<?xml version='1.0' encoding='UTF-8'?><gpx version="1.1" creator="JPX - https://github.com/jenetics/jpx" xmlns="http://www.topografix.com/GPX/1/1"><trk><trkseg><trkpt lat="45.4922779" lon="10.7997924"><ele>189.0</ele><time>2026-05-01T08:39:12.376Z</time></trkpt><trkpt lat="45.4923526" lon="10.7996324"><ele>189.0</ele><time>2026-05-01T08:39:14.375Z</time></trkpt><trkpt lat="45.4924219" lon="10.7995496"><ele>189.0</ele><time>2026-05-01T08:39:15.376Z</time></trkpt><trkpt lat="45.4924956" lon="10.7994714"><ele>189.0</ele><time>2026-05-01T08:39:16.375Z</time></trkpt><trkpt lat="45.4925538" lon="10.7994033"><ele>189.0</ele><time>2026-05-01T08:39:17.376Z</time></trkpt><trkpt lat="45.4926208" lon="10.7993459"><ele>189.0</ele><time>2026-05-01T08:39:19.376Z</time></trkpt><trkpt lat="45.4926696" lon="10.7992653"><ele>189.0</ele><time>2026-05-01T08:40:01.376Z</time></trkpt><trkpt lat="45.4927353" lon="10.7991839"><ele>189.0</ele><time>2026-05-01T08:40:02.376Z</time></trkpt><trkpt lat="45.4928336" lon="10.7990959"><ele>189.0</ele><time>2026-05-01T08:40:03.376Z</time></trkpt><trkpt lat="45.492952" lon="10.7990134"><ele>189.0</ele><time>2026-05-01T08:40:04.376Z</time></trkpt><trkpt lat="45.4930664" lon="10.7989676"><ele>189.0</ele><time>2026-05-01T08:40:05.376Z</time></trkpt><trkpt lat="45.4931739" lon="10.7989357"><ele>189.0</ele><time>2026-05-01T08:40:06.376Z</time></trkpt><trkpt lat="45.4932748" lon="10.7989366"><ele>189.0</ele><time>2026-05-01T08:40:07.376Z</time></trkpt><trkpt lat="45.4933777" lon="10.7989759"><ele>189.0</ele><time>2026-05-01T08:40:08.376Z</time></trkpt><trkpt lat="45.4934878" lon="10.7990533"><ele>189.0</ele><time>2026-05-01T08:40:09.376Z</time></trkpt><trkpt lat="45.493604" lon="10.7991336"><ele>189.0</ele><time>2026-05-01T08:40:10.376Z</time></trkpt><trkpt lat="45.4937112" lon="10.7992205"><ele>189.0</ele><time>2026-05-01T08:40:11.376Z</time></trkpt><trkpt lat="45.4938153" lon="10.7993249"><ele>189.0</ele><time>2026-05-01T08:40:12.376Z</time></trkpt><trkpt lat="45.493931" lon="10.7994105"><ele>189.0</ele><time>2026-05-01T08:40:13.376Z</time></trkpt><trkpt lat="45.4940558" lon="10.7994825"><ele>189.25</ele><time>2026-05-01T08:40:14.376Z</time></trkpt><trkpt lat="45.4941952" lon="10.7995391"><ele>189.5</ele><time>2026-05-01T08:40:15.376Z</time></trkpt><trkpt lat="45.4943377" lon="10.7995788"><ele>189.75</ele><time>2026-05-01T08:40:16.375Z</time></trkpt><trkpt lat="45.4944831" lon="10.7996069"><ele>190.0</ele><time>2026-05-01T08:40:17.375Z</time></trkpt><trkpt lat="45.4946341" lon="10.7996284"><ele>189.25</ele><time>2026-05-01T08:40:18.376Z</time></trkpt><trkpt lat="45.4947803" lon="10.7996509"><ele>188.5</ele><time>2026-05-01T08:40:19.376Z</time></trkpt><trkpt lat="45.4949327" lon="10.7996747"><ele>187.75</ele><time>2026-05-01T08:40:20.376Z</time></trkpt><trkpt lat="45.4950746" lon="10.7996973"><ele>187.0</ele><time>2026-05-01T08:40:21.376Z</time></trkpt><trkpt lat="45.495222" lon="10.7997365"><ele>187.0</ele><time>2026-05-01T08:40:22.375Z</time></trkpt><trkpt lat="45.4953729" lon="10.7997722"><ele>187.0</ele><time>2026-05-01T08:40:23.376Z</time></trkpt><trkpt lat="45.4955213" lon="10.7997982"><ele>187.0</ele><time>2026-05-01T08:40:24.375Z</time></trkpt><trkpt lat="45.4956623" lon="10.7998275"><ele>187.0</ele><time>2026-05-01T08:40:25.376Z</time></trkpt><trkpt lat="45.4958007" lon="10.7998532"><ele>186.25</ele><time>2026-05-01T08:40:26.376Z</time></trkpt><trkpt lat="45.4959447" lon="10.7998603"><ele>185.5</ele><time>2026-05-01T08:40:27.376Z</time></trkpt><trkpt lat="45.4960928" lon="10.7998508"><ele>184.75</ele><time>2026-05-01T08:40:28.376Z</time></trkpt><trkpt lat="45.4962441" lon="10.7998211"><ele>184.0</ele><time>2026-05-01T08:40:29.376Z</time></trkpt><trkpt lat="45.4964052" lon="10.7997831"><ele>183.33333333333334</ele><time>2026-05-01T08:40:30.376Z</time></trkpt><trkpt lat="45.4965689" lon="10.799753"><ele>182.66666666666666</ele><time>2026-05-01T08:40:31.376Z</time></trkpt><trkpt lat="45.4967298" lon="10.7997244"><ele>182.0</ele><time>2026-05-01T08:40:32.376Z</time></trkpt><trkpt lat="45.4968946" lon="10.7996881"><ele>182.0</ele><time>2026-05-01T08:40:33.376Z</time></trkpt><trkpt lat="45.4970678" lon="10.7996492"><ele>182.0</ele><time>2026-05-01T08:40:34.376Z</time></trkpt><trkpt lat="45.4972457" lon="10.7996009"><ele>182.0</ele><time>2026-05-01T08:40:35.375Z</time></trkpt><trkpt lat="45.4974244" lon="10.7995489"><ele>181.66666666666666</ele><time>2026-05-01T08:40:36.376Z</time></trkpt><trkpt lat="45.4975999" lon="10.7994966"><ele>181.33333333333334</ele><time>2026-05-01T08:40:37.376Z</time></trkpt><trkpt lat="45.4977677" lon="10.7994364"><ele>181.0</ele><time>2026-05-01T08:40:38.376Z</time></trkpt><trkpt lat="45.4979383" lon="10.7993583"><ele>178.66666666666669</ele><time>2026-05-01T08:40:39.376Z</time></trkpt><trkpt lat="45.4981033" lon="10.7992613"><ele>176.33333333333334</ele><time>2026-05-01T08:40:40.376Z</time></trkpt><trkpt lat="45.4982676" lon="10.7991451"><ele>174.0</ele><time>2026-05-01T08:40:41.376Z</time></trkpt><trkpt lat="45.4984321" lon="10.7990202"><ele>174.0</ele><time>2026-05-01T08:40:42.376Z</time></trkpt><trkpt lat="45.4985874" lon="10.7989148"><ele>174.0</ele><time>2026-05-01T08:40:43.376Z</time></trkpt><trkpt lat="45.4987504" lon="10.7988254"><ele>174.0</ele><time>2026-05-01T08:40:44.376Z</time></trkpt><trkpt lat="45.4989229" lon="10.7987282"><ele>172.33333333333334</ele><time>2026-05-01T08:40:45.376Z</time></trkpt><trkpt lat="45.4990838" lon="10.7986202"><ele>170.66666666666669</ele><time>2026-05-01T08:40:46.376Z</time></trkpt><trkpt lat="45.4992668" lon="10.7985525"><ele>169.0</ele><time>2026-05-01T08:40:47.376Z</time></trkpt><trkpt lat="45.4994444" lon="10.798497"><ele>167.0</ele><time>2026-05-01T08:40:48.376Z</time></trkpt><trkpt lat="45.4996154" lon="10.7984526"><ele>165.0</ele><time>2026-05-01T08:40:49.376Z</time></trkpt><trkpt lat="45.4997897" lon="10.7984267"><ele>163.0</ele><time>2026-05-01T08:40:50.376Z</time></trkpt><trkpt lat="45.499962" lon="10.7984057"><ele>163.0</ele><time>2026-05-01T08:40:51.376Z</time></trkpt><trkpt lat="45.5001393" lon="10.7983765"><ele>163.0</ele><time>2026-05-01T08:40:52.376Z</time></trkpt><trkpt lat="45.5003072" lon="10.7983558"><ele>163.0</ele><time>2026-05-01T08:40:53.376Z</time></trkpt><trkpt lat="45.5004691" lon="10.79834"><ele>164.0</ele><time>2026-05-01T08:40:54.376Z</time></trkpt><trkpt lat="45.5006261" lon="10.7983193"><ele>165.0</ele><time>2026-05-01T08:40:55.376Z</time></trkpt><trkpt lat="45.5007837" lon="10.7983013"><ele>166.0</ele><time>2026-05-01T08:40:56.376Z</time></trkpt><trkpt lat="45.5009385" lon="10.7982879"><ele>166.0</ele><time>2026-05-01T08:40:57.376Z</time></trkpt><trkpt lat="45.5010945" lon="10.7982839"><ele>166.0</ele><time>2026-05-01T08:40:58.376Z</time></trkpt><trkpt lat="45.5012423" lon="10.7982803"><ele>166.0</ele><time>2026-05-01T08:40:59.376Z</time></trkpt><trkpt lat="45.5013908" lon="10.7982794"><ele>165.33333333333334</ele><time>2026-05-01T08:41:00.376Z</time></trkpt><trkpt lat="45.5015574" lon="10.7982702"><ele>164.66666666666666</ele><time>2026-05-01T08:41:01.376Z</time></trkpt><trkpt lat="45.5017332" lon="10.7982686"><ele>164.0</ele><time>2026-05-01T08:41:02.376Z</time></trkpt><trkpt lat="45.5019036" lon="10.798267"><ele>164.0</ele><time>2026-05-01T08:41:03.376Z</time></trkpt><trkpt lat="45.5020649" lon="10.7982695"><ele>164.0</ele><time>2026-05-01T08:41:04.376Z</time></trkpt><trkpt lat="45.502214" lon="10.7982623"><ele>164.0</ele><time>2026-05-01T08:41:05.376Z</time></trkpt><trkpt lat="45.502357" lon="10.7982654"><ele>163.66666666666666</ele><time>2026-05-01T08:41:06.376Z</time></trkpt><trkpt lat="45.5025016" lon="10.7982715"><ele>163.33333333333334</ele><time>2026-05-01T08:41:07.376Z</time></trkpt><trkpt lat="45.5026648" lon="10.7982724"><ele>163.0</ele><time>2026-05-01T08:41:08.376Z</time></trkpt><trkpt lat="45.5028435" lon="10.7982529"><ele>161.0</ele><time>2026-05-01T08:41:09.376Z</time></trkpt><trkpt lat="45.5030202" lon="10.7982189"><ele>159.0</ele><time>2026-05-01T08:41:10.376Z</time></trkpt><trkpt lat="45.5031899" lon="10.7981616"><ele>157.0</ele><time>2026-05-01T08:41:11.376Z</time></trkpt><trkpt lat="45.5033555" lon="10.79811"><ele>157.0</ele><time>2026-05-01T08:41:12.376Z</time></trkpt><trkpt lat="45.5035111" lon="10.7980601"><ele>157.0</ele><time>2026-05-01T08:41:13.376Z</time></trkpt><trkpt lat="45.5036647" lon="10.7979892"><ele>157.0</ele><time>2026-05-01T08:41:14.376Z</time></trkpt><trkpt lat="45.5038014" lon="10.7979001"><ele>156.5</ele><time>2026-05-01T08:41:15.376Z</time></trkpt><trkpt lat="45.5039263" lon="10.7977986"><ele>156.0</ele><time>2026-05-01T08:41:16.376Z</time></trkpt><trkpt lat="45.5040395" lon="10.7976748"><ele>155.5</ele><time>2026-05-01T08:41:17.375Z</time></trkpt><trkpt lat="45.5041325" lon="10.7975256"><ele>155.0</ele><time>2026-05-01T08:41:18.376Z</time></trkpt><trkpt lat="45.5042213" lon="10.7973622"><ele>154.75</ele><time>2026-05-01T08:41:19.376Z</time></trkpt><trkpt lat="45.5043026" lon="10.7971942"><ele>154.5</ele><time>2026-05-01T08:41:20.376Z</time></trkpt><trkpt lat="45.5043762" lon="10.7970358"><ele>154.25</ele><time>2026-05-01T08:41:21.376Z</time></trkpt><trkpt lat="45.5044539" lon="10.7968695"><ele>154.0</ele><time>2026-05-01T08:41:22.376Z</time></trkpt><trkpt lat="45.5045289" lon="10.7967072"><ele>153.75</ele><time>2026-05-01T08:41:23.376Z</time></trkpt><trkpt lat="45.5046084" lon="10.7965421"><ele>153.5</ele><time>2026-05-01T08:41:24.375Z</time></trkpt><trkpt lat="45.5046851" lon="10.79637"><ele>153.25</ele><time>2026-05-01T08:41:25.376Z</time></trkpt><trkpt lat="45.5047651" lon="10.7961995"><ele>153.0</ele><time>2026-05-01T08:41:26.376Z</time></trkpt><trkpt lat="45.5048713" lon="10.7960598"><ele>153.0</ele><time>2026-05-01T08:41:27.376Z</time></trkpt><trkpt lat="45.5049783" lon="10.7959327"><ele>153.0</ele><time>2026-05-01T08:41:28.376Z</time></trkpt><trkpt lat="45.5050967" lon="10.795848"><ele>153.0</ele><time>2026-05-01T08:41:29.376Z</time></trkpt><trkpt lat="45.5052372" lon="10.7958004"><ele>153.0</ele><time>2026-05-01T08:41:30.376Z</time></trkpt><trkpt lat="45.5053867" lon="10.7957714"><ele>152.0</ele><time>2026-05-01T08:41:31.376Z</time></trkpt><trkpt lat="45.5055543" lon="10.7957312"><ele>151.0</ele><time>2026-05-01T08:41:32.376Z</time></trkpt><trkpt lat="45.5057144" lon="10.7956932"><ele>150.0</ele><time>2026-05-01T08:41:33.376Z</time></trkpt><trkpt lat="45.5058592" lon="10.795649"><ele>150.0</ele><time>2026-05-01T08:41:34.376Z</time></trkpt><trkpt lat="45.5059862" lon="10.7955893"><ele>150.0</ele><time>2026-05-01T08:41:35.376Z</time></trkpt><trkpt lat="45.5061011" lon="10.7955286"><ele>150.0</ele><time>2026-05-01T08:41:36.376Z</time></trkpt><trkpt lat="45.5062061" lon="10.7954588"><ele>150.0</ele><time>2026-05-01T08:41:37.376Z</time></trkpt><trkpt lat="45.5062984" lon="10.7953917"><ele>150.0</ele><time>2026-05-01T08:41:38.375Z</time></trkpt><trkpt lat="45.5063875" lon="10.795329"><ele>150.0</ele><time>2026-05-01T08:41:39.376Z</time></trkpt><trkpt lat="45.5064815" lon="10.7953032"><ele>150.0</ele><time>2026-05-01T08:41:40.376Z</time></trkpt><trkpt lat="45.5065859" lon="10.7953331"><ele>150.0</ele><time>2026-05-01T08:41:41.376Z</time></trkpt><trkpt lat="45.5067031" lon="10.7953916"><ele>150.0</ele><time>2026-05-01T08:41:42.376Z</time></trkpt><trkpt lat="45.5068267" lon="10.795437"><ele>150.0</ele><time>2026-05-01T08:41:43.376Z</time></trkpt><trkpt lat="45.5069655" lon="10.7954436"><ele>150.0</ele><time>2026-05-01T08:41:44.375Z</time></trkpt><trkpt lat="45.5071109" lon="10.7954457"><ele>150.0</ele><time>2026-05-01T08:41:45.376Z</time></trkpt><trkpt lat="45.5072579" lon="10.7954637"><ele>150.0</ele><time>2026-05-01T08:41:46.376Z</time></trkpt><trkpt lat="45.5074046" lon="10.7954949"><ele>149.75</ele><time>2026-05-01T08:41:47.376Z</time></trkpt><trkpt lat="45.5075427" lon="10.7955408"><ele>149.5</ele><time>2026-05-01T08:41:48.375Z</time></trkpt><trkpt lat="45.5076777" lon="10.7956174"><ele>149.25</ele><time>2026-05-01T08:41:49.375Z</time></trkpt><trkpt lat="45.5078051" lon="10.7957242"><ele>149.0</ele><time>2026-05-01T08:41:50.376Z</time></trkpt><trkpt lat="45.507933" lon="10.7958507"><ele>148.0</ele><time>2026-05-01T08:41:51.376Z</time></trkpt><trkpt lat="45.5080557" lon="10.7959963"><ele>147.0</ele><time>2026-05-01T08:41:52.376Z</time></trkpt><trkpt lat="45.5081751" lon="10.7961591"><ele>146.0</ele><time>2026-05-01T08:41:53.376Z</time></trkpt><trkpt lat="45.5082856" lon="10.7963301"><ele>143.66666666666666</ele><time>2026-05-01T08:41:54.376Z</time></trkpt><trkpt lat="45.5083964" lon="10.796506"><ele>141.33333333333334</ele><time>2026-05-01T08:41:55.376Z</time></trkpt><trkpt lat="45.508505" lon="10.7966727"><ele>139.0</ele><time>2026-05-01T08:41:56.375Z</time></trkpt><trkpt lat="45.5086122" lon="10.7968364"><ele>136.25</ele><time>2026-05-01T08:41:57.376Z</time></trkpt><trkpt lat="45.5087148" lon="10.7969764"><ele>133.5</ele><time>2026-05-01T08:41:58.376Z</time></trkpt><trkpt lat="45.5088275" lon="10.7971038"><ele>130.75</ele><time>2026-05-01T08:41:59.376Z</time></trkpt><trkpt lat="45.508943" lon="10.7972202"><ele>128.0</ele><time>2026-05-01T08:42:00.376Z</time></trkpt><trkpt lat="45.5090697" lon="10.7973211"><ele>126.33333333333333</ele><time>2026-05-01T08:42:01.376Z</time></trkpt><trkpt lat="45.5092006" lon="10.7973823"><ele>124.66666666666666</ele><time>2026-05-01T08:42:02.376Z</time></trkpt><trkpt lat="45.5093494" lon="10.7974"><ele>123.0</ele><time>2026-05-01T08:42:03.376Z</time></trkpt><trkpt lat="45.5095124" lon="10.7973764"><ele>121.0</ele><time>2026-05-01T08:42:04.376Z</time></trkpt><trkpt lat="45.5096948" lon="10.7973307"><ele>119.0</ele><time>2026-05-01T08:42:05.376Z</time></trkpt><trkpt lat="45.5098808" lon="10.7972801"><ele>117.0</ele><time>2026-05-01T08:42:06.376Z</time></trkpt><trkpt lat="45.5100839" lon="10.7972333"><ele>117.0</ele><time>2026-05-01T08:42:07.376Z</time></trkpt><trkpt lat="45.5102744" lon="10.7972018"><ele>117.0</ele><time>2026-05-01T08:42:08.376Z</time></trkpt><trkpt lat="45.5104591" lon="10.7971797"><ele>117.0</ele><time>2026-05-01T08:42:09.375Z</time></trkpt><trkpt lat="45.5106465" lon="10.7971891"><ele>116.0</ele><time>2026-05-01T08:42:10.376Z</time></trkpt><trkpt lat="45.5108169" lon="10.7972425"><ele>115.0</ele><time>2026-05-01T08:42:11.376Z</time></trkpt><trkpt lat="45.5109947" lon="10.7973063"><ele>114.0</ele><time>2026-05-01T08:42:12.375Z</time></trkpt><trkpt lat="45.5111598" lon="10.7973599"><ele>113.33333333333334</ele><time>2026-05-01T08:42:13.376Z</time></trkpt><trkpt lat="45.5113234" lon="10.7974071"><ele>112.66666666666667</ele><time>2026-05-01T08:42:14.376Z</time></trkpt><trkpt lat="45.5114875" lon="10.7974544"><ele>112.0</ele><time>2026-05-01T08:42:15.376Z</time></trkpt><trkpt lat="45.5116608" lon="10.7975114"><ele>112.0</ele><time>2026-05-01T08:42:16.376Z</time></trkpt><trkpt lat="45.511836" lon="10.7975626"><ele>112.0</ele><time>2026-05-01T08:42:17.376Z</time></trkpt><trkpt lat="45.5119981" lon="10.7976023"><ele>112.0</ele><time>2026-05-01T08:42:18.376Z</time></trkpt><trkpt lat="45.5121554" lon="10.7976347"><ele>109.0</ele><time>2026-05-01T08:42:19.376Z</time></trkpt><trkpt lat="45.5123075" lon="10.7976715"><ele>106.0</ele><time>2026-05-01T08:42:20.376Z</time></trkpt><trkpt lat="45.5124626" lon="10.797733"><ele>103.0</ele><time>2026-05-01T08:42:21.376Z</time></trkpt><trkpt lat="45.5126127" lon="10.7977889"><ele>103.0</ele><time>2026-05-01T08:42:22.376Z</time></trkpt><trkpt lat="45.5127453" lon="10.7978608"><ele>103.0</ele><time>2026-05-01T08:42:23.376Z</time></trkpt><trkpt lat="45.5128851" lon="10.7979522"><ele>103.0</ele><time>2026-05-01T08:42:24.376Z</time></trkpt><trkpt lat="45.5130287" lon="10.7980555"><ele>102.66666666666667</ele><time>2026-05-01T08:42:25.376Z</time></trkpt><trkpt lat="45.5131781" lon="10.7981633"><ele>102.33333333333334</ele><time>2026-05-01T08:42:26.376Z</time></trkpt><trkpt lat="45.5133285" lon="10.7982705"><ele>102.0</ele><time>2026-05-01T08:42:27.376Z</time></trkpt><trkpt lat="45.5134829" lon="10.7983766"><ele>102.0</ele><time>2026-05-01T08:42:28.376Z</time></trkpt><trkpt lat="45.513635" lon="10.7984874"><ele>102.0</ele><time>2026-05-01T08:42:29.375Z</time></trkpt><trkpt lat="45.5137899" lon="10.7986084"><ele>102.0</ele><time>2026-05-01T08:42:30.376Z</time></trkpt><trkpt lat="45.513947" lon="10.7987382"><ele>101.33333333333334</ele><time>2026-05-01T08:42:31.376Z</time></trkpt><trkpt lat="45.5140992" lon="10.7988674"><ele>100.66666666666667</ele><time>2026-05-01T08:42:32.376Z</time></trkpt><trkpt lat="45.5142477" lon="10.7990005"><ele>100.0</ele><time>2026-05-01T08:42:33.376Z</time></trkpt><trkpt lat="45.5143941" lon="10.7991271"><ele>100.0</ele><time>2026-05-01T08:42:34.376Z</time></trkpt><trkpt lat="45.5145327" lon="10.7992523"><ele>100.0</ele><time>2026-05-01T08:42:35.376Z</time></trkpt><trkpt lat="45.5146596" lon="10.7993724"><ele>100.0</ele><time>2026-05-01T08:42:36.376Z</time></trkpt><trkpt lat="45.5147802" lon="10.7994822"><ele>99.6</ele><time>2026-05-01T08:42:37.375Z</time></trkpt><trkpt lat="45.5148843" lon="10.7995827"><ele>99.2</ele><time>2026-05-01T08:42:38.375Z</time></trkpt><trkpt lat="45.5149732" lon="10.7996772"><ele>98.80000000000001</ele><time>2026-05-01T08:42:39.375Z</time></trkpt><trkpt lat="45.5150543" lon="10.7997583"><ele>98.4</ele><time>2026-05-01T08:42:40.375Z</time></trkpt><trkpt lat="45.5151198" lon="10.7998335"><ele>98.0</ele><time>2026-05-01T08:42:41.374Z</time></trkpt><trkpt lat="45.5151697" lon="10.799908"><ele>97.99999999999999</ele><time>2026-05-01T08:42:42.374Z</time></trkpt><trkpt lat="45.5152049" lon="10.7999882"><ele>98.0</ele><time>2026-05-01T08:42:43.375Z</time></trkpt><trkpt lat="45.515253" lon="10.800144"><ele>98.0</ele><time>2026-05-01T08:42:45.374Z</time></trkpt><trkpt lat="45.5152934" lon="10.800226"><ele>98.0</ele><time>2026-05-01T08:42:46.375Z</time></trkpt><trkpt lat="45.5153524" lon="10.8002902"><ele>97.99999999999999</ele><time>2026-05-01T08:42:47.375Z</time></trkpt><trkpt lat="45.5154212" lon="10.8003322"><ele>98.0</ele><time>2026-05-01T08:42:48.375Z</time></trkpt><trkpt lat="45.5155139" lon="10.8003577"><ele>98.5</ele><time>2026-05-01T08:42:49.375Z</time></trkpt><trkpt lat="45.5156183" lon="10.8004048"><ele>99.0</ele><time>2026-05-01T08:42:50.375Z</time></trkpt><trkpt lat="45.5157215" lon="10.8004915"><ele>99.5</ele><time>2026-05-01T08:42:51.375Z</time></trkpt><trkpt lat="45.5158152" lon="10.8006101"><ele>100.0</ele><time>2026-05-01T08:42:52.375Z</time></trkpt><trkpt lat="45.5159141" lon="10.8007441"><ele>100.0</ele><time>2026-05-01T08:42:53.375Z</time></trkpt><trkpt lat="45.5160214" lon="10.80088"><ele>100.0</ele><time>2026-05-01T08:42:54.375Z</time></trkpt><trkpt lat="45.5161219" lon="10.8010094"><ele>100.0</ele><time>2026-05-01T08:42:55.375Z</time></trkpt><trkpt lat="45.5162197" lon="10.8011346"><ele>100.0</ele><time>2026-05-01T08:42:56.375Z</time></trkpt><trkpt lat="45.5163132" lon="10.8012492"><ele>99.75</ele><time>2026-05-01T08:42:57.375Z</time></trkpt><trkpt lat="45.5164038" lon="10.8013509"><ele>99.5</ele><time>2026-05-01T08:42:58.375Z</time></trkpt><trkpt lat="45.5164951" lon="10.8014503"><ele>99.25</ele><time>2026-05-01T08:42:59.375Z</time></trkpt><trkpt lat="45.5165872" lon="10.8015581"><ele>99.0</ele><time>2026-05-01T08:43:00.374Z</time></trkpt><trkpt lat="45.516672" lon="10.8016659"><ele>99.0</ele><time>2026-05-01T08:43:01.375Z</time></trkpt><trkpt lat="45.5167617" lon="10.8017604"><ele>99.0</ele><time>2026-05-01T08:43:02.375Z</time></trkpt><trkpt lat="45.5168462" lon="10.8018432"><ele>99.0</ele><time>2026-05-01T08:43:03.375Z</time></trkpt><trkpt lat="45.5169425" lon="10.8019181"><ele>99.0</ele><time>2026-05-01T08:43:04.375Z</time></trkpt><trkpt lat="45.5170249" lon="10.8019801"><ele>99.0</ele><time>2026-05-01T08:43:05.375Z</time></trkpt><trkpt lat="45.5171134" lon="10.8020418"><ele>98.4</ele><time>2026-05-01T08:43:06.375Z</time></trkpt><trkpt lat="45.517203" lon="10.8020986"><ele>97.80000000000001</ele><time>2026-05-01T08:43:07.374Z</time></trkpt><trkpt lat="45.5172882" lon="10.8021588"><ele>97.19999999999999</ele><time>2026-05-01T08:43:08.375Z</time></trkpt><trkpt lat="45.5173718" lon="10.8022202"><ele>96.6</ele><time>2026-05-01T08:43:09.375Z</time></trkpt><trkpt lat="45.5174537" lon="10.8022641"><ele>96.0</ele><time>2026-05-01T08:43:10.375Z</time></trkpt><trkpt lat="45.5175384" lon="10.8022837"><ele>96.0</ele><time>2026-05-01T08:43:11.375Z</time></trkpt><trkpt lat="45.5176271" lon="10.8022784"><ele>96.0</ele><time>2026-05-01T08:43:12.374Z</time></trkpt><trkpt lat="45.5177167" lon="10.8022608"><ele>96.0</ele><time>2026-05-01T08:43:13.374Z</time></trkpt><trkpt lat="45.5178165" lon="10.8022475"><ele>96.0</ele><time>2026-05-01T08:43:14.375Z</time></trkpt><trkpt lat="45.5179166" lon="10.8022376"><ele>96.0</ele><time>2026-05-01T08:43:15.375Z</time></trkpt><trkpt lat="45.5180094" lon="10.8021971"><ele>96.0</ele><time>2026-05-01T08:43:16.375Z</time></trkpt><trkpt lat="45.5181017" lon="10.8021591"><ele>96.0</ele><time>2026-05-01T08:43:17.375Z</time></trkpt><trkpt lat="45.5181944" lon="10.8021031"><ele>96.0</ele><time>2026-05-01T08:43:18.375Z</time></trkpt><trkpt lat="45.5182886" lon="10.8020347"><ele>96.0</ele><time>2026-05-01T08:43:19.375Z</time></trkpt><trkpt lat="45.5183862" lon="10.8019783"><ele>96.0</ele><time>2026-05-01T08:43:20.375Z</time></trkpt><trkpt lat="45.5184932" lon="10.8019245"><ele>96.0</ele><time>2026-05-01T08:43:21.374Z</time></trkpt><trkpt lat="45.5186017" lon="10.8018765"><ele>96.0</ele><time>2026-05-01T08:43:22.375Z</time></trkpt><trkpt lat="45.5187114" lon="10.8018317"><ele>96.0</ele><time>2026-05-01T08:43:23.375Z</time></trkpt><trkpt lat="45.5188175" lon="10.8018114"><ele>96.0</ele><time>2026-05-01T08:43:24.375Z</time></trkpt><trkpt lat="45.5189329" lon="10.8017973"><ele>96.5</ele><time>2026-05-01T08:43:25.375Z</time></trkpt><trkpt lat="45.5190718" lon="10.8018234"><ele>97.0</ele><time>2026-05-01T08:43:26.375Z</time></trkpt><trkpt lat="45.5191982" lon="10.8018568"><ele>97.5</ele><time>2026-05-01T08:43:27.374Z</time></trkpt><trkpt lat="45.5193273" lon="10.8019058"><ele>98.0</ele><time>2026-05-01T08:43:28.375Z</time></trkpt><trkpt lat="45.5194453" lon="10.8019577"><ele>97.2</ele><time>2026-05-01T08:43:29.375Z</time></trkpt><trkpt lat="45.5195456" lon="10.802002"><ele>96.4</ele><time>2026-05-01T08:43:30.375Z</time></trkpt><trkpt lat="45.5196492" lon="10.8020452"><ele>95.60000000000001</ele><time>2026-05-01T08:43:31.375Z</time></trkpt><trkpt lat="45.5197534" lon="10.802085"><ele>94.80000000000001</ele><time>2026-05-01T08:43:32.375Z</time></trkpt><trkpt lat="45.5198598" lon="10.802126"><ele>94.0</ele><time>2026-05-01T08:43:33.375Z</time></trkpt><trkpt lat="45.5199631" lon="10.8021576"><ele>93.80000000000001</ele><time>2026-05-01T08:43:34.375Z</time></trkpt><trkpt lat="45.5200635" lon="10.8021887"><ele>93.60000000000001</ele><time>2026-05-01T08:43:35.374Z</time></trkpt><trkpt lat="45.5201676" lon="10.8022195"><ele>93.4</ele><time>2026-05-01T08:43:36.375Z</time></trkpt><trkpt lat="45.5202682" lon="10.8022491"><ele>93.2</ele><time>2026-05-01T08:43:37.375Z</time></trkpt><trkpt lat="45.5203712" lon="10.8022693"><ele>93.0</ele><time>2026-05-01T08:43:38.374Z</time></trkpt><trkpt lat="45.5204737" lon="10.8022961"><ele>93.5</ele><time>2026-05-01T08:43:39.375Z</time></trkpt><trkpt lat="45.5205818" lon="10.8023224"><ele>94.0</ele><time>2026-05-01T08:43:40.375Z</time></trkpt><trkpt lat="45.5206949" lon="10.802345"><ele>94.5</ele><time>2026-05-01T08:43:41.374Z</time></trkpt><trkpt lat="45.5208117" lon="10.8023712"><ele>95.0</ele><time>2026-05-01T08:43:42.375Z</time></trkpt><trkpt lat="45.5209345" lon="10.802395"><ele>95.0</ele><time>2026-05-01T08:43:43.375Z</time></trkpt><trkpt lat="45.5210625" lon="10.8024228"><ele>95.0</ele><time>2026-05-01T08:43:44.375Z</time></trkpt><trkpt lat="45.5211895" lon="10.8024482"><ele>95.0</ele><time>2026-05-01T08:43:45.375Z</time></trkpt><trkpt lat="45.5213152" lon="10.8024823"><ele>95.0</ele><time>2026-05-01T08:43:46.375Z</time></trkpt><trkpt lat="45.5214417" lon="10.8025171"><ele>95.5</ele><time>2026-05-01T08:43:47.375Z</time></trkpt><trkpt lat="45.5215714" lon="10.8025522"><ele>96.0</ele><time>2026-05-01T08:43:48.375Z</time></trkpt><trkpt lat="45.5217" lon="10.8025844"><ele>96.5</ele><time>2026-05-01T08:43:49.375Z</time></trkpt><trkpt lat="45.5218344" lon="10.8026073"><ele>97.0</ele><time>2026-05-01T08:43:50.375Z</time></trkpt><trkpt lat="45.5219742" lon="10.8026363"><ele>97.0</ele><time>2026-05-01T08:43:51.375Z</time></trkpt><trkpt lat="45.5221135" lon="10.8026649"><ele>97.0</ele><time>2026-05-01T08:43:52.375Z</time></trkpt><trkpt lat="45.5222425" lon="10.8026894"><ele>97.0</ele><time>2026-05-01T08:43:53.375Z</time></trkpt><trkpt lat="45.522349" lon="10.8027199"><ele>97.0</ele><time>2026-05-01T08:43:54.375Z</time></trkpt><trkpt lat="45.5224364" lon="10.8027572"><ele>97.0</ele><time>2026-05-01T08:43:55.374Z</time></trkpt><trkpt lat="45.5225301" lon="10.802807"><ele>97.0</ele><time>2026-05-01T08:43:57.375Z</time></trkpt><trkpt lat="45.5226067" lon="10.80285"><ele>97.0</ele><time>2026-05-01T08:44:05.375Z</time></trkpt><trkpt lat="45.5226449" lon="10.8029548"><ele>97.0</ele><time>2026-05-01T08:44:07.375Z</time></trkpt><trkpt lat="45.5226637" lon="10.8030465"><ele>97.0</ele><time>2026-05-01T08:44:08.375Z</time></trkpt><trkpt lat="45.5226747" lon="10.8032443"><ele>97.0</ele><time>2026-05-01T08:44:10.375Z</time></trkpt><trkpt lat="45.522655" lon="10.8033739"><ele>97.0</ele><time>2026-05-01T08:44:11.375Z</time></trkpt><trkpt lat="45.5226262" lon="10.8035037"><ele>97.0</ele><time>2026-05-01T08:44:12.375Z</time></trkpt><trkpt lat="45.5225953" lon="10.803635"><ele>97.0</ele><time>2026-05-01T08:44:13.374Z</time></trkpt><trkpt lat="45.5225637" lon="10.8037703"><ele>97.0</ele><time>2026-05-01T08:44:14.375Z</time></trkpt><trkpt lat="45.5225317" lon="10.8039045"><ele>96.6</ele><time>2026-05-01T08:44:15.375Z</time></trkpt><trkpt lat="45.5225033" lon="10.8040425"><ele>96.19999999999999</ele><time>2026-05-01T08:44:16.375Z</time></trkpt><trkpt lat="45.5224736" lon="10.8041886"><ele>95.8</ele><time>2026-05-01T08:44:17.375Z</time></trkpt><trkpt lat="45.5224415" lon="10.8043489"><ele>95.4</ele><time>2026-05-01T08:44:18.375Z</time></trkpt><trkpt lat="45.5224049" lon="10.8045133"><ele>95.0</ele><time>2026-05-01T08:44:19.375Z</time></trkpt><trkpt lat="45.522369" lon="10.8046804"><ele>95.0</ele><time>2026-05-01T08:44:20.375Z</time></trkpt><trkpt lat="45.5223334" lon="10.8048476"><ele>95.0</ele><time>2026-05-01T08:44:21.375Z</time></trkpt><trkpt lat="45.5222996" lon="10.8050108"><ele>95.0</ele><time>2026-05-01T08:44:22.375Z</time></trkpt><trkpt lat="45.5222635" lon="10.8051723"><ele>95.0</ele><time>2026-05-01T08:44:23.375Z</time></trkpt><trkpt lat="45.5222273" lon="10.8053325"><ele>95.0</ele><time>2026-05-01T08:44:24.375Z</time></trkpt><trkpt lat="45.5221919" lon="10.8054946"><ele>95.0</ele><time>2026-05-01T08:44:25.375Z</time></trkpt><trkpt lat="45.5221558" lon="10.8056504"><ele>95.0</ele><time>2026-05-01T08:44:26.375Z</time></trkpt><trkpt lat="45.5221206" lon="10.8058027"><ele>95.0</ele><time>2026-05-01T08:44:27.375Z</time></trkpt><trkpt lat="45.5220897" lon="10.8059507"><ele>96.6</ele><time>2026-05-01T08:44:28.375Z</time></trkpt><trkpt lat="45.5220641" lon="10.8060974"><ele>98.2</ele><time>2026-05-01T08:44:29.375Z</time></trkpt><trkpt lat="45.5220487" lon="10.8062383"><ele>99.80000000000001</ele><time>2026-05-01T08:44:30.374Z</time></trkpt><trkpt lat="45.5220511" lon="10.8063911"><ele>101.4</ele><time>2026-05-01T08:44:31.375Z</time></trkpt><trkpt lat="45.522067" lon="10.8065373"><ele>103.0</ele><time>2026-05-01T08:44:32.374Z</time></trkpt><trkpt lat="45.5220936" lon="10.8066886"><ele>104.5</ele><time>2026-05-01T08:44:33.375Z</time></trkpt><trkpt lat="45.5221319" lon="10.8068376"><ele>106.0</ele><time>2026-05-01T08:44:34.375Z</time></trkpt><trkpt lat="45.5221857" lon="10.8069823"><ele>107.5</ele><time>2026-05-01T08:44:35.375Z</time></trkpt><trkpt lat="45.5222464" lon="10.8071343"><ele>109.0</ele><time>2026-05-01T08:44:36.375Z</time></trkpt><trkpt lat="45.5223091" lon="10.8072847"><ele>109.0</ele><time>2026-05-01T08:44:37.375Z</time></trkpt><trkpt lat="45.5223684" lon="10.8074373"><ele>109.0</ele><time>2026-05-01T08:44:38.375Z</time></trkpt><trkpt lat="45.5224208" lon="10.8075913"><ele>109.0</ele><time>2026-05-01T08:44:39.375Z</time></trkpt><trkpt lat="45.522476" lon="10.8077459"><ele>109.0</ele><time>2026-05-01T08:44:40.375Z</time></trkpt><trkpt lat="45.5225336" lon="10.8079011"><ele>109.0</ele><time>2026-05-01T08:44:41.375Z</time></trkpt><trkpt lat="45.5225931" lon="10.8080597"><ele>109.0</ele><time>2026-05-01T08:44:42.375Z</time></trkpt><trkpt lat="45.5226487" lon="10.8082232"><ele>109.0</ele><time>2026-05-01T08:44:43.375Z</time></trkpt><trkpt lat="45.5226976" lon="10.8083963"><ele>109.0</ele><time>2026-05-01T08:44:44.375Z</time></trkpt><trkpt lat="45.5227534" lon="10.8085752"><ele>109.0</ele><time>2026-05-01T08:44:45.375Z</time></trkpt><trkpt lat="45.5228171" lon="10.8087542"><ele>109.0</ele><time>2026-05-01T08:44:46.375Z</time></trkpt><trkpt lat="45.5228766" lon="10.8089476"><ele>109.0</ele><time>2026-05-01T08:44:47.375Z</time></trkpt><trkpt lat="45.5229289" lon="10.8091506"><ele>109.0</ele><time>2026-05-01T08:44:48.375Z</time></trkpt><trkpt lat="45.5229892" lon="10.809354"><ele>109.5</ele><time>2026-05-01T08:44:49.374Z</time></trkpt><trkpt lat="45.5230501" lon="10.8095545"><ele>110.0</ele><time>2026-05-01T08:44:50.375Z</time></trkpt><trkpt lat="45.5231118" lon="10.8097406"><ele>110.5</ele><time>2026-05-01T08:44:51.375Z</time></trkpt><trkpt lat="45.5231721" lon="10.809922"><ele>111.0</ele><time>2026-05-01T08:44:52.375Z</time></trkpt><trkpt lat="45.5232348" lon="10.8101032"><ele>111.0</ele><time>2026-05-01T08:44:53.375Z</time></trkpt><trkpt lat="45.5232896" lon="10.810289"><ele>111.0</ele><time>2026-05-01T08:44:54.375Z</time></trkpt><trkpt lat="45.5233441" lon="10.8104672"><ele>111.0</ele><time>2026-05-01T08:44:55.375Z</time></trkpt><trkpt lat="45.5234027" lon="10.8106464"><ele>111.0</ele><time>2026-05-01T08:44:56.375Z</time></trkpt><trkpt lat="45.5234599" lon="10.8108282"><ele>111.0</ele><time>2026-05-01T08:44:57.375Z</time></trkpt><trkpt lat="45.5235184" lon="10.8110083"><ele>111.0</ele><time>2026-05-01T08:44:58.375Z</time></trkpt><trkpt lat="45.5235859" lon="10.8111962"><ele>111.0</ele><time>2026-05-01T08:44:59.375Z</time></trkpt><trkpt lat="45.5236564" lon="10.8113775"><ele>111.0</ele><time>2026-05-01T08:45:00.375Z</time></trkpt><trkpt lat="45.5237318" lon="10.8115486"><ele>111.5</ele><time>2026-05-01T08:45:01.375Z</time></trkpt><trkpt lat="45.5238164" lon="10.8117155"><ele>112.0</ele><time>2026-05-01T08:45:02.374Z</time></trkpt><trkpt lat="45.5239046" lon="10.8118751"><ele>112.5</ele><time>2026-05-01T08:45:03.375Z</time></trkpt><trkpt lat="45.5239959" lon="10.812048"><ele>113.0</ele><time>2026-05-01T08:45:04.375Z</time></trkpt><trkpt lat="45.5240832" lon="10.8122263"><ele>113.0</ele><time>2026-05-01T08:45:05.375Z</time></trkpt><trkpt lat="45.5241718" lon="10.8124003"><ele>113.0</ele><time>2026-05-01T08:45:06.375Z</time></trkpt><trkpt lat="45.5242616" lon="10.8125778"><ele>113.0</ele><time>2026-05-01T08:45:07.375Z</time></trkpt><trkpt lat="45.5243469" lon="10.8127521"><ele>113.0</ele><time>2026-05-01T08:45:08.375Z</time></trkpt><trkpt lat="45.5244259" lon="10.8129286"><ele>113.0</ele><time>2026-05-01T08:45:09.374Z</time></trkpt><trkpt lat="45.5245071" lon="10.8131035"><ele>113.0</ele><time>2026-05-01T08:45:10.375Z</time></trkpt><trkpt lat="45.5245858" lon="10.8132799"><ele>113.0</ele><time>2026-05-01T08:45:11.375Z</time></trkpt><trkpt lat="45.5246655" lon="10.8134563"><ele>113.0</ele><time>2026-05-01T08:45:12.375Z</time></trkpt><trkpt lat="45.5247495" lon="10.8136269"><ele>113.0</ele><time>2026-05-01T08:45:13.375Z</time></trkpt><trkpt lat="45.5248287" lon="10.8138012"><ele>113.0</ele><time>2026-05-01T08:45:14.375Z</time></trkpt><trkpt lat="45.5249086" lon="10.8139763"><ele>113.0</ele><time>2026-05-01T08:45:15.375Z</time></trkpt><trkpt lat="45.5249915" lon="10.8141499"><ele>113.25</ele><time>2026-05-01T08:45:16.375Z</time></trkpt><trkpt lat="45.5250736" lon="10.8143242"><ele>113.5</ele><time>2026-05-01T08:45:17.375Z</time></trkpt><trkpt lat="45.5251581" lon="10.8144964"><ele>113.75</ele><time>2026-05-01T08:45:18.375Z</time></trkpt><trkpt lat="45.5252448" lon="10.814665"><ele>114.0</ele><time>2026-05-01T08:45:19.375Z</time></trkpt><trkpt lat="45.5253238" lon="10.8148233"><ele>113.5</ele><time>2026-05-01T08:45:20.375Z</time></trkpt><trkpt lat="45.5253971" lon="10.8149712"><ele>113.0</ele><time>2026-05-01T08:45:21.374Z</time></trkpt><trkpt lat="45.5254684" lon="10.8151224"><ele>112.5</ele><time>2026-05-01T08:45:22.375Z</time></trkpt><trkpt lat="45.5255441" lon="10.8152731"><ele>112.0</ele><time>2026-05-01T08:45:23.375Z</time></trkpt><trkpt lat="45.5256152" lon="10.8154294"><ele>112.0</ele><time>2026-05-01T08:45:24.375Z</time></trkpt><trkpt lat="45.5256842" lon="10.8155949"><ele>112.0</ele><time>2026-05-01T08:45:25.375Z</time></trkpt><trkpt lat="45.5257574" lon="10.8157545"><ele>112.0</ele><time>2026-05-01T08:45:26.375Z</time></trkpt><trkpt lat="45.5258351" lon="10.8159162"><ele>112.0</ele><time>2026-05-01T08:45:27.375Z</time></trkpt><trkpt lat="45.5259162" lon="10.8160808"><ele>112.25</ele><time>2026-05-01T08:45:28.375Z</time></trkpt><trkpt lat="45.5259936" lon="10.816246"><ele>112.5</ele><time>2026-05-01T08:45:29.374Z</time></trkpt><trkpt lat="45.5260751" lon="10.8164161"><ele>112.75</ele><time>2026-05-01T08:45:30.375Z</time></trkpt><trkpt lat="45.5261554" lon="10.8165834"><ele>113.0</ele><time>2026-05-01T08:45:31.375Z</time></trkpt><trkpt lat="45.5262281" lon="10.8167448"><ele>113.5</ele><time>2026-05-01T08:45:32.375Z</time></trkpt><trkpt lat="45.5262985" lon="10.8168896"><ele>114.0</ele><time>2026-05-01T08:45:33.375Z</time></trkpt><trkpt lat="45.5263637" lon="10.8170253"><ele>114.5</ele><time>2026-05-01T08:45:34.375Z</time></trkpt><trkpt lat="45.5264344" lon="10.8171604"><ele>115.0</ele><time>2026-05-01T08:45:35.374Z</time></trkpt><trkpt lat="45.5264989" lon="10.8172955"><ele>115.0</ele><time>2026-05-01T08:45:36.375Z</time></trkpt><trkpt lat="45.526559" lon="10.8174302"><ele>115.0</ele><time>2026-05-01T08:45:37.375Z</time></trkpt><trkpt lat="45.5266163" lon="10.8175524"><ele>115.0</ele><time>2026-05-01T08:45:38.375Z</time></trkpt><trkpt lat="45.5266723" lon="10.8176648"><ele>115.0</ele><time>2026-05-01T08:45:39.375Z</time></trkpt><trkpt lat="45.5267219" lon="10.8177667"><ele>115.0</ele><time>2026-05-01T08:45:40.375Z</time></trkpt><trkpt lat="45.5267532" lon="10.8178549"><ele>114.8</ele><time>2026-05-01T08:45:41.374Z</time></trkpt><trkpt lat="45.526781" lon="10.8179991"><ele>114.6</ele><time>2026-05-01T08:45:43.375Z</time></trkpt><trkpt lat="45.5267481" lon="10.8181415"><ele>114.4</ele><time>2026-05-01T08:45:45.375Z</time></trkpt><trkpt lat="45.5266474" lon="10.8182383"><ele>114.2</ele><time>2026-05-01T08:45:47.375Z</time></trkpt><trkpt lat="45.5265667" lon="10.8182393"><ele>114.0</ele><time>2026-05-01T08:45:48.375Z</time></trkpt><trkpt lat="45.5264686" lon="10.818227"><ele>114.0</ele><time>2026-05-01T08:45:49.375Z</time></trkpt><trkpt lat="45.5263522" lon="10.8182257"><ele>114.0</ele><time>2026-05-01T08:45:50.375Z</time></trkpt><trkpt lat="45.5262302" lon="10.8182241"><ele>114.0</ele><time>2026-05-01T08:45:51.375Z</time></trkpt><trkpt lat="45.5261037" lon="10.8182202"><ele>114.0</ele><time>2026-05-01T08:45:52.375Z</time></trkpt><trkpt lat="45.5259743" lon="10.8182186"><ele>114.25</ele><time>2026-05-01T08:45:53.375Z</time></trkpt><trkpt lat="45.5258437" lon="10.818217"><ele>114.5</ele><time>2026-05-01T08:45:54.375Z</time></trkpt><trkpt lat="45.5257088" lon="10.8182134"><ele>114.75</ele><time>2026-05-01T08:45:55.375Z</time></trkpt><trkpt lat="45.525581" lon="10.8182053"><ele>115.0</ele><time>2026-05-01T08:45:56.375Z</time></trkpt><trkpt lat="45.5254665" lon="10.8181924"><ele>115.4</ele><time>2026-05-01T08:45:57.375Z</time></trkpt><trkpt lat="45.5253548" lon="10.818176"><ele>115.8</ele><time>2026-05-01T08:45:58.375Z</time></trkpt><trkpt lat="45.5252395" lon="10.8181739"><ele>116.19999999999999</ele><time>2026-05-01T08:45:59.375Z</time></trkpt><trkpt lat="45.5251287" lon="10.8181716"><ele>116.6</ele><time>2026-05-01T08:46:00.374Z</time></trkpt><trkpt lat="45.5250262" lon="10.8181749"><ele>117.0</ele><time>2026-05-01T08:46:01.375Z</time></trkpt><trkpt lat="45.5249264" lon="10.8181804"><ele>117.0</ele><time>2026-05-01T08:46:02.375Z</time></trkpt><trkpt lat="45.5248263" lon="10.8181855"><ele>117.0</ele><time>2026-05-01T08:46:03.375Z</time></trkpt><trkpt lat="45.524711" lon="10.8181984"><ele>117.0</ele><time>2026-05-01T08:46:04.374Z</time></trkpt><trkpt lat="45.524562" lon="10.81823"><ele>117.0</ele><time>2026-05-01T08:46:05.375Z</time></trkpt><trkpt lat="45.5243799" lon="10.8182633"><ele>117.33333333333334</ele><time>2026-05-01T08:46:06.375Z</time></trkpt><trkpt lat="45.5241824" lon="10.8182939"><ele>117.66666666666667</ele><time>2026-05-01T08:46:07.375Z</time></trkpt><trkpt lat="45.5240055" lon="10.8183111"><ele>118.0</ele><time>2026-05-01T08:46:08.375Z</time></trkpt><trkpt lat="45.5238456" lon="10.8183248"><ele>117.5</ele><time>2026-05-01T08:46:09.375Z</time></trkpt><trkpt lat="45.5236994" lon="10.8183462"><ele>117.0</ele><time>2026-05-01T08:46:10.374Z</time></trkpt><trkpt lat="45.5235617" lon="10.8183709"><ele>116.5</ele><time>2026-05-01T08:46:11.375Z</time></trkpt><trkpt lat="45.5234399" lon="10.8183948"><ele>116.0</ele><time>2026-05-01T08:46:12.375Z</time></trkpt><trkpt lat="45.5233176" lon="10.8184214"><ele>116.0</ele><time>2026-05-01T08:46:13.375Z</time></trkpt><trkpt lat="45.523193" lon="10.8184481"><ele>116.0</ele><time>2026-05-01T08:46:14.374Z</time></trkpt><trkpt lat="45.5230662" lon="10.8184746"><ele>116.0</ele><time>2026-05-01T08:46:15.375Z</time></trkpt><trkpt lat="45.5229353" lon="10.8184959"><ele>116.0</ele><time>2026-05-01T08:46:16.375Z</time></trkpt><trkpt lat="45.5228008" lon="10.8185231"><ele>116.0</ele><time>2026-05-01T08:46:17.375Z</time></trkpt><trkpt lat="45.5226762" lon="10.8185592"><ele>116.0</ele><time>2026-05-01T08:46:18.375Z</time></trkpt><trkpt lat="45.5225469" lon="10.8185855"><ele>116.0</ele><time>2026-05-01T08:46:19.375Z</time></trkpt><trkpt lat="45.5224099" lon="10.8186135"><ele>116.0</ele><time>2026-05-01T08:46:20.375Z</time></trkpt><trkpt lat="45.5222647" lon="10.8186444"><ele>116.0</ele><time>2026-05-01T08:46:21.375Z</time></trkpt><trkpt lat="45.522129" lon="10.818669"><ele>116.0</ele><time>2026-05-01T08:46:22.374Z</time></trkpt><trkpt lat="45.5219919" lon="10.8186915"><ele>116.0</ele><time>2026-05-01T08:46:23.374Z</time></trkpt><trkpt lat="45.5218518" lon="10.8187143"><ele>116.0</ele><time>2026-05-01T08:46:24.374Z</time></trkpt><trkpt lat="45.5217151" lon="10.8187338"><ele>116.25</ele><time>2026-05-01T08:46:25.374Z</time></trkpt><trkpt lat="45.5215796" lon="10.8187617"><ele>116.5</ele><time>2026-05-01T08:46:26.374Z</time></trkpt><trkpt lat="45.5214344" lon="10.8187956"><ele>116.75</ele><time>2026-05-01T08:46:27.373Z</time></trkpt><trkpt lat="45.5212891" lon="10.8188173"><ele>117.0</ele><time>2026-05-01T08:46:28.374Z</time></trkpt><trkpt lat="45.5211434" lon="10.8188413"><ele>116.0</ele><time>2026-05-01T08:46:29.374Z</time></trkpt><trkpt lat="45.5209969" lon="10.8188557"><ele>115.0</ele><time>2026-05-01T08:46:30.374Z</time></trkpt><trkpt lat="45.5208453" lon="10.8188673"><ele>114.0</ele><time>2026-05-01T08:46:31.374Z</time></trkpt><trkpt lat="45.5206936" lon="10.8188806"><ele>114.0</ele><time>2026-05-01T08:46:32.374Z</time></trkpt><trkpt lat="45.5205475" lon="10.8188833"><ele>114.0</ele><time>2026-05-01T08:46:33.374Z</time></trkpt><trkpt lat="45.5203937" lon="10.8188831"><ele>114.0</ele><time>2026-05-01T08:46:34.374Z</time></trkpt><trkpt lat="45.5202331" lon="10.8188831"><ele>113.75</ele><time>2026-05-01T08:46:35.374Z</time></trkpt><trkpt lat="45.5200786" lon="10.8188893"><ele>113.5</ele><time>2026-05-01T08:46:36.374Z</time></trkpt><trkpt lat="45.5199326" lon="10.8189063"><ele>113.25</ele><time>2026-05-01T08:46:37.374Z</time></trkpt><trkpt lat="45.5197956" lon="10.818933"><ele>113.0</ele><time>2026-05-01T08:46:38.373Z</time></trkpt><trkpt lat="45.5196625" lon="10.8189668"><ele>113.2</ele><time>2026-05-01T08:46:39.373Z</time></trkpt><trkpt lat="45.5195401" lon="10.8190067"><ele>113.4</ele><time>2026-05-01T08:46:40.374Z</time></trkpt><trkpt lat="45.5194239" lon="10.8190528"><ele>113.60000000000001</ele><time>2026-05-01T08:46:41.374Z</time></trkpt><trkpt lat="45.5193263" lon="10.8191056"><ele>113.80000000000001</ele><time>2026-05-01T08:46:42.373Z</time></trkpt><trkpt lat="45.5192412" lon="10.8191519"><ele>114.0</ele><time>2026-05-01T08:46:43.374Z</time></trkpt><trkpt lat="45.519162" lon="10.8191879"><ele>114.0</ele><time>2026-05-01T08:46:44.374Z</time></trkpt><trkpt lat="45.5190743" lon="10.8192281"><ele>114.0</ele><time>2026-05-01T08:46:46.374Z</time></trkpt><trkpt lat="45.5190011" lon="10.8192661"><ele>114.0</ele><time>2026-05-01T08:46:49.374Z</time></trkpt><trkpt lat="45.5188855" lon="10.8193448"><ele>114.0</ele><time>2026-05-01T08:46:51.374Z</time></trkpt><trkpt lat="45.5188354" lon="10.819407"><ele>114.0</ele><time>2026-05-01T08:46:52.374Z</time></trkpt><trkpt lat="45.518791" lon="10.8195642"><ele>114.0</ele><time>2026-05-01T08:46:54.374Z</time></trkpt><trkpt lat="45.5188277" lon="10.8197372"><ele>114.0</ele><time>2026-05-01T08:46:56.373Z</time></trkpt><trkpt lat="45.51886" lon="10.8198201"><ele>114.0</ele><time>2026-05-01T08:46:57.374Z</time></trkpt><trkpt lat="45.5188857" lon="10.8199081"><ele>114.0</ele><time>2026-05-01T08:46:58.374Z</time></trkpt><trkpt lat="45.5189039" lon="10.8200009"><ele>114.0</ele><time>2026-05-01T08:46:59.374Z</time></trkpt><trkpt lat="45.5189244" lon="10.8200991"><ele>114.0</ele><time>2026-05-01T08:47:00.374Z</time></trkpt><trkpt lat="45.5189368" lon="10.8202205"><ele>114.0</ele><time>2026-05-01T08:47:01.374Z</time></trkpt><trkpt lat="45.5189435" lon="10.8203616"><ele>114.0</ele><time>2026-05-01T08:47:02.374Z</time></trkpt><trkpt lat="45.5189533" lon="10.8204982"><ele>114.0</ele><time>2026-05-01T08:47:03.374Z</time></trkpt><trkpt lat="45.5189648" lon="10.8206472"><ele>114.0</ele><time>2026-05-01T08:47:04.374Z</time></trkpt><trkpt lat="45.5189709" lon="10.8207979"><ele>114.0</ele><time>2026-05-01T08:47:05.373Z</time></trkpt><trkpt lat="45.5189806" lon="10.8209349"><ele>114.4</ele><time>2026-05-01T08:47:06.374Z</time></trkpt><trkpt lat="45.5189804" lon="10.8210861"><ele>114.80000000000001</ele><time>2026-05-01T08:47:07.374Z</time></trkpt><trkpt lat="45.5189728" lon="10.8212448"><ele>115.19999999999999</ele><time>2026-05-01T08:47:08.374Z</time></trkpt><trkpt lat="45.5189724" lon="10.8213992"><ele>115.6</ele><time>2026-05-01T08:47:09.374Z</time></trkpt><trkpt lat="45.5189672" lon="10.8215546"><ele>116.0</ele><time>2026-05-01T08:47:10.374Z</time></trkpt><trkpt lat="45.5189565" lon="10.8217114"><ele>116.75</ele><time>2026-05-01T08:47:11.374Z</time></trkpt><trkpt lat="45.5189387" lon="10.8218729"><ele>117.5</ele><time>2026-05-01T08:47:12.374Z</time></trkpt><trkpt lat="45.5189105" lon="10.8220428"><ele>118.25</ele><time>2026-05-01T08:47:13.373Z</time></trkpt><trkpt lat="45.5188781" lon="10.8222173"><ele>119.0</ele><time>2026-05-01T08:47:14.374Z</time></trkpt><trkpt lat="45.5188443" lon="10.8223828"><ele>119.0</ele><time>2026-05-01T08:47:15.374Z</time></trkpt><trkpt lat="45.5188064" lon="10.822545"><ele>119.0</ele><time>2026-05-01T08:47:16.374Z</time></trkpt><trkpt lat="45.5187661" lon="10.8227066"><ele>119.0</ele><time>2026-05-01T08:47:17.374Z</time></trkpt><trkpt lat="45.5187257" lon="10.8228668"><ele>119.0</ele><time>2026-05-01T08:47:18.374Z</time></trkpt><trkpt lat="45.5186779" lon="10.8230313"><ele>119.75</ele><time>2026-05-01T08:47:19.374Z</time></trkpt><trkpt lat="45.5186281" lon="10.8232122"><ele>120.5</ele><time>2026-05-01T08:47:20.374Z</time></trkpt><trkpt lat="45.5185732" lon="10.8234136"><ele>121.25</ele><time>2026-05-01T08:47:21.374Z</time></trkpt><trkpt lat="45.5185284" lon="10.8236259"><ele>122.0</ele><time>2026-05-01T08:47:22.374Z</time></trkpt><trkpt lat="45.5184882" lon="10.8238459"><ele>122.75</ele><time>2026-05-01T08:47:23.374Z</time></trkpt><trkpt lat="45.5184562" lon="10.8240601"><ele>123.5</ele><time>2026-05-01T08:47:24.374Z</time></trkpt><trkpt lat="45.5184339" lon="10.8242656"><ele>124.25</ele><time>2026-05-01T08:47:25.373Z</time></trkpt><trkpt lat="45.5184127" lon="10.8244547"><ele>125.0</ele><time>2026-05-01T08:47:26.374Z</time></trkpt><trkpt lat="45.5183991" lon="10.8246344"><ele>126.5</ele><time>2026-05-01T08:47:27.374Z</time></trkpt><trkpt lat="45.5183855" lon="10.8248095"><ele>128.0</ele><time>2026-05-01T08:47:28.374Z</time></trkpt><trkpt lat="45.5183767" lon="10.8249872"><ele>129.5</ele><time>2026-05-01T08:47:29.374Z</time></trkpt><trkpt lat="45.5183802" lon="10.8251683"><ele>131.0</ele><time>2026-05-01T08:47:30.374Z</time></trkpt><trkpt lat="45.518386" lon="10.8253514"><ele>131.5</ele><time>2026-05-01T08:47:31.374Z</time></trkpt><trkpt lat="45.5183935" lon="10.8255358"><ele>132.0</ele><time>2026-05-01T08:47:32.374Z</time></trkpt><trkpt lat="45.5183979" lon="10.8257233"><ele>132.5</ele><time>2026-05-01T08:47:33.374Z</time></trkpt><trkpt lat="45.5184" lon="10.8259031"><ele>133.0</ele><time>2026-05-01T08:47:34.374Z</time></trkpt><trkpt lat="45.5184101" lon="10.8260788"><ele>133.75</ele><time>2026-05-01T08:47:35.374Z</time></trkpt><trkpt lat="45.5184244" lon="10.8262568"><ele>134.5</ele><time>2026-05-01T08:47:36.373Z</time></trkpt><trkpt lat="45.5184323" lon="10.826428"><ele>135.25</ele><time>2026-05-01T08:47:37.374Z</time></trkpt><trkpt lat="45.5184446" lon="10.8265937"><ele>136.0</ele><time>2026-05-01T08:47:38.373Z</time></trkpt><trkpt lat="45.5184548" lon="10.8267422"><ele>136.33333333333334</ele><time>2026-05-01T08:47:39.374Z</time></trkpt><trkpt lat="45.5184667" lon="10.8268758"><ele>136.66666666666669</ele><time>2026-05-01T08:47:40.374Z</time></trkpt><trkpt lat="45.5184741" lon="10.8270015"><ele>137.0</ele><time>2026-05-01T08:47:41.374Z</time></trkpt><trkpt lat="45.5184836" lon="10.8271229"><ele>137.33333333333334</ele><time>2026-05-01T08:47:42.374Z</time></trkpt><trkpt lat="45.5184905" lon="10.8272307"><ele>137.66666666666666</ele><time>2026-05-01T08:47:43.374Z</time></trkpt><trkpt lat="45.5184973" lon="10.8273501"><ele>138.0</ele><time>2026-05-01T08:47:44.374Z</time></trkpt><trkpt lat="45.5185067" lon="10.8274825"><ele>138.0</ele><time>2026-05-01T08:47:45.374Z</time></trkpt><trkpt lat="45.5185088" lon="10.8276212"><ele>138.0</ele><time>2026-05-01T08:47:46.373Z</time></trkpt><trkpt lat="45.5185103" lon="10.8277626"><ele>138.0</ele><time>2026-05-01T08:47:47.374Z</time></trkpt><trkpt lat="45.5185091" lon="10.8278968"><ele>138.0</ele><time>2026-05-01T08:47:48.374Z</time></trkpt><trkpt lat="45.5185163" lon="10.8280272"><ele>138.0</ele><time>2026-05-01T08:47:49.373Z</time></trkpt><trkpt lat="45.5185274" lon="10.828156"><ele>138.6</ele><time>2026-05-01T08:47:50.374Z</time></trkpt><trkpt lat="45.5185366" lon="10.8282932"><ele>139.20000000000002</ele><time>2026-05-01T08:47:51.374Z</time></trkpt><trkpt lat="45.518542" lon="10.828433"><ele>139.8</ele><time>2026-05-01T08:47:52.374Z</time></trkpt><trkpt lat="45.5185439" lon="10.8285803"><ele>140.4</ele><time>2026-05-01T08:47:53.374Z</time></trkpt><trkpt lat="45.5185409" lon="10.8287246"><ele>141.0</ele><time>2026-05-01T08:47:54.374Z</time></trkpt><trkpt lat="45.5185435" lon="10.8288755"><ele>141.0</ele><time>2026-05-01T08:47:55.374Z</time></trkpt><trkpt lat="45.5185481" lon="10.8290306"><ele>141.0</ele><time>2026-05-01T08:47:56.374Z</time></trkpt><trkpt lat="45.5185579" lon="10.8291873"><ele>141.0</ele><time>2026-05-01T08:47:57.374Z</time></trkpt><trkpt lat="45.5185676" lon="10.8293388"><ele>141.0</ele><time>2026-05-01T08:47:58.374Z</time></trkpt><trkpt lat="45.5185753" lon="10.8294904"><ele>141.0</ele><time>2026-05-01T08:47:59.374Z</time></trkpt><trkpt lat="45.5185948" lon="10.8296374"><ele>141.2</ele><time>2026-05-01T08:48:00.374Z</time></trkpt><trkpt lat="45.5186243" lon="10.8297836"><ele>141.39999999999998</ele><time>2026-05-01T08:48:01.374Z</time></trkpt><trkpt lat="45.518661" lon="10.8299325"><ele>141.6</ele><time>2026-05-01T08:48:02.374Z</time></trkpt><trkpt lat="45.5186988" lon="10.8300848"><ele>141.79999999999998</ele><time>2026-05-01T08:48:03.374Z</time></trkpt><trkpt lat="45.5187434" lon="10.830223"><ele>142.0</ele><time>2026-05-01T08:48:04.374Z</time></trkpt><trkpt lat="45.5187852" lon="10.8303502"><ele>144.5</ele><time>2026-05-01T08:48:05.374Z</time></trkpt><trkpt lat="45.5188174" lon="10.8304661"><ele>147.0</ele><time>2026-05-01T08:48:06.374Z</time></trkpt><trkpt lat="45.5188349" lon="10.8305785"><ele>149.5</ele><time>2026-05-01T08:48:07.374Z</time></trkpt><trkpt lat="45.5188383" lon="10.8306968"><ele>152.0</ele><time>2026-05-01T08:48:08.374Z</time></trkpt><trkpt lat="45.518825" lon="10.830799"><ele>154.5</ele><time>2026-05-01T08:48:09.374Z</time></trkpt><trkpt lat="45.5188026" lon="10.8309041"><ele>157.0</ele><time>2026-05-01T08:48:10.374Z</time></trkpt><trkpt lat="45.5187973" lon="10.8310044"><ele>157.0</ele><time>2026-05-01T08:48:11.374Z</time></trkpt><trkpt lat="45.5188578" lon="10.8311459"><ele>157.0</ele><time>2026-05-01T08:48:13.374Z</time></trkpt><trkpt lat="45.5189164" lon="10.8311913"><ele>157.0</ele><time>2026-05-01T08:48:14.374Z</time></trkpt><trkpt lat="45.5189942" lon="10.8312087"><ele>157.0</ele><time>2026-05-01T08:48:15.373Z</time></trkpt><trkpt lat="45.5190967" lon="10.8312058"><ele>157.0</ele><time>2026-05-01T08:48:16.374Z</time></trkpt><trkpt lat="45.519231" lon="10.831218"><ele>157.0</ele><time>2026-05-01T08:48:17.374Z</time></trkpt><trkpt lat="45.5193902" lon="10.8312644"><ele>157.0</ele><time>2026-05-01T08:48:18.373Z</time></trkpt><trkpt lat="45.519556" lon="10.8313569"><ele>157.0</ele><time>2026-05-01T08:48:19.374Z</time></trkpt><trkpt lat="45.5196984" lon="10.8314666"><ele>158.0</ele><time>2026-05-01T08:48:20.374Z</time></trkpt><trkpt lat="45.5198443" lon="10.8315625"><ele>159.0</ele><time>2026-05-01T08:48:21.374Z</time></trkpt><trkpt lat="45.5199979" lon="10.8316514"><ele>160.0</ele><time>2026-05-01T08:48:22.374Z</time></trkpt><trkpt lat="45.5201587" lon="10.8317239"><ele>160.0</ele><time>2026-05-01T08:48:23.374Z</time></trkpt><trkpt lat="45.5202983" lon="10.8317966"><ele>160.0</ele><time>2026-05-01T08:48:24.374Z</time></trkpt><trkpt lat="45.5204448" lon="10.8318786"><ele>160.0</ele><time>2026-05-01T08:48:25.374Z</time></trkpt><trkpt lat="45.5205866" lon="10.8319685"><ele>160.0</ele><time>2026-05-01T08:48:26.374Z</time></trkpt><trkpt lat="45.5207262" lon="10.8320496"><ele>160.0</ele><time>2026-05-01T08:48:27.373Z</time></trkpt><trkpt lat="45.5208529" lon="10.8321252"><ele>160.0</ele><time>2026-05-01T08:48:28.374Z</time></trkpt><trkpt lat="45.520981" lon="10.8321997"><ele>160.0</ele><time>2026-05-01T08:48:29.374Z</time></trkpt><trkpt lat="45.5211091" lon="10.8322836"><ele>160.0</ele><time>2026-05-01T08:48:30.374Z</time></trkpt><trkpt lat="45.521243" lon="10.8323614"><ele>160.0</ele><time>2026-05-01T08:48:31.374Z</time></trkpt><trkpt lat="45.5213774" lon="10.8324344"><ele>160.0</ele><time>2026-05-01T08:48:32.373Z</time></trkpt><trkpt lat="45.5215017" lon="10.8325342"><ele>160.0</ele><time>2026-05-01T08:48:33.374Z</time></trkpt><trkpt lat="45.5216184" lon="10.8326448"><ele>160.25</ele><time>2026-05-01T08:48:34.374Z</time></trkpt><trkpt lat="45.5217215" lon="10.8327748"><ele>160.5</ele><time>2026-05-01T08:48:35.374Z</time></trkpt><trkpt lat="45.5218163" lon="10.8329213"><ele>160.75</ele><time>2026-05-01T08:48:36.373Z</time></trkpt><trkpt lat="45.5218996" lon="10.8330862"><ele>161.0</ele><time>2026-05-01T08:48:37.374Z</time></trkpt><trkpt lat="45.5219668" lon="10.8332634"><ele>161.0</ele><time>2026-05-01T08:48:38.374Z</time></trkpt><trkpt lat="45.5220102" lon="10.8334547"><ele>161.0</ele><time>2026-05-01T08:48:39.374Z</time></trkpt><trkpt lat="45.5220366" lon="10.8336213"><ele>161.0</ele><time>2026-05-01T08:48:40.374Z</time></trkpt><trkpt lat="45.5220545" lon="10.8337605"><ele>161.0</ele><time>2026-05-01T08:48:41.374Z</time></trkpt><trkpt lat="45.5220612" lon="10.8338663"><ele>161.0</ele><time>2026-05-01T08:48:42.374Z</time></trkpt><trkpt lat="45.5220583" lon="10.8340079"><ele>160.83333333333331</ele><time>2026-05-01T08:48:44.374Z</time></trkpt><trkpt lat="45.5220389" lon="10.8341513"><ele>160.66666666666666</ele><time>2026-05-01T08:48:46.374Z</time></trkpt><trkpt lat="45.5220042" lon="10.8342281"><ele>160.5</ele><time>2026-05-01T08:48:47.374Z</time></trkpt><trkpt lat="45.5219624" lon="10.8343259"><ele>160.33333333333334</ele><time>2026-05-01T08:48:48.374Z</time></trkpt><trkpt lat="45.5219368" lon="10.8344312"><ele>160.16666666666669</ele><time>2026-05-01T08:48:49.374Z</time></trkpt><trkpt lat="45.5219315" lon="10.8345234"><ele>160.0</ele><time>2026-05-01T08:48:50.374Z</time></trkpt><trkpt lat="45.5219624" lon="10.8346291"><ele>159.4</ele><time>2026-05-01T08:48:52.374Z</time></trkpt><trkpt lat="45.5219771" lon="10.8347417"><ele>158.8</ele><time>2026-05-01T08:48:54.374Z</time></trkpt><trkpt lat="45.521971" lon="10.834845"><ele>158.2</ele><time>2026-05-01T08:48:55.373Z</time></trkpt><trkpt lat="45.5219477" lon="10.8349948"><ele>157.6</ele><time>2026-05-01T08:48:56.374Z</time></trkpt><trkpt lat="45.5219179" lon="10.8352078"><ele>157.0</ele><time>2026-05-01T08:48:57.374Z</time></trkpt><trkpt lat="45.5218883" lon="10.8354478"><ele>157.0</ele><time>2026-05-01T08:48:58.374Z</time></trkpt><trkpt lat="45.5218593" lon="10.8356975"><ele>157.0</ele><time>2026-05-01T08:48:59.374Z</time></trkpt><trkpt lat="45.5218333" lon="10.8359405"><ele>157.0</ele><time>2026-05-01T08:49:00.374Z</time></trkpt><trkpt lat="45.5218127" lon="10.8361831"><ele>157.0</ele><time>2026-05-01T08:49:01.374Z</time></trkpt><trkpt lat="45.5217926" lon="10.8364235"><ele>157.0</ele><time>2026-05-01T08:49:02.374Z</time></trkpt><trkpt lat="45.5217745" lon="10.8366675"><ele>157.0</ele><time>2026-05-01T08:49:03.374Z</time></trkpt><trkpt lat="45.5217502" lon="10.8369009"><ele>157.0</ele><time>2026-05-01T08:49:04.373Z</time></trkpt><trkpt lat="45.5217245" lon="10.8371139"><ele>157.0</ele><time>2026-05-01T08:49:05.374Z</time></trkpt><trkpt lat="45.5217013" lon="10.8373094"><ele>157.0</ele><time>2026-05-01T08:49:06.374Z</time></trkpt><trkpt lat="45.5216821" lon="10.8374595"><ele>157.0</ele><time>2026-05-01T08:49:07.374Z</time></trkpt><trkpt lat="45.5216719" lon="10.8375896"><ele>156.83333333333334</ele><time>2026-05-01T08:49:08.373Z</time></trkpt><trkpt lat="45.5216522" lon="10.8377093"><ele>156.66666666666669</ele><time>2026-05-01T08:49:09.374Z</time></trkpt><trkpt lat="45.5216159" lon="10.8378199"><ele>156.5</ele><time>2026-05-01T08:49:10.374Z</time></trkpt><trkpt lat="45.5215639" lon="10.8379065"><ele>156.33333333333334</ele><time>2026-05-01T08:49:11.374Z</time></trkpt><trkpt lat="45.5215055" lon="10.8379716"><ele>156.16666666666666</ele><time>2026-05-01T08:49:12.373Z</time></trkpt><trkpt lat="45.5214499" lon="10.8380549"><ele>156.0</ele><time>2026-05-01T08:49:13.374Z</time></trkpt><trkpt lat="45.5214171" lon="10.8381623"><ele>156.0</ele><time>2026-05-01T08:49:14.374Z</time></trkpt><trkpt lat="45.5214153" lon="10.8382818"><ele>156.0</ele><time>2026-05-01T08:49:15.374Z</time></trkpt><trkpt lat="45.5214472" lon="10.8383923"><ele>156.0</ele><time>2026-05-01T08:49:16.373Z</time></trkpt><trkpt lat="45.521504" lon="10.8384803"><ele>156.0</ele><time>2026-05-01T08:49:17.374Z</time></trkpt><trkpt lat="45.5215623" lon="10.8385773"><ele>156.0</ele><time>2026-05-01T08:49:18.374Z</time></trkpt><trkpt lat="45.5215961" lon="10.838711"><ele>156.0</ele><time>2026-05-01T08:49:19.373Z</time></trkpt><trkpt lat="45.5216053" lon="10.8388739"><ele>156.0</ele><time>2026-05-01T08:49:20.374Z</time></trkpt><trkpt lat="45.5216023" lon="10.8390582"><ele>156.0</ele><time>2026-05-01T08:49:21.374Z</time></trkpt><trkpt lat="45.5216031" lon="10.8392496"><ele>156.0</ele><time>2026-05-01T08:49:22.373Z</time></trkpt><trkpt lat="45.5216065" lon="10.8394352"><ele>156.0</ele><time>2026-05-01T08:49:23.374Z</time></trkpt><trkpt lat="45.5216087" lon="10.8396154"><ele>156.0</ele><time>2026-05-01T08:49:24.374Z</time></trkpt><trkpt lat="45.5216087" lon="10.8398022"><ele>156.0</ele><time>2026-05-01T08:49:25.374Z</time></trkpt><trkpt lat="45.5216052" lon="10.8400039"><ele>156.0</ele><time>2026-05-01T08:49:26.374Z</time></trkpt><trkpt lat="45.5216" lon="10.8402127"><ele>156.0</ele><time>2026-05-01T08:49:27.374Z</time></trkpt><trkpt lat="45.5215922" lon="10.840433"><ele>156.25</ele><time>2026-05-01T08:49:28.374Z</time></trkpt><trkpt lat="45.5215853" lon="10.8406519"><ele>156.5</ele><time>2026-05-01T08:49:29.374Z</time></trkpt><trkpt lat="45.5215768" lon="10.840862"><ele>156.75</ele><time>2026-05-01T08:49:30.374Z</time></trkpt><trkpt lat="45.5215713" lon="10.8410733"><ele>157.0</ele><time>2026-05-01T08:49:31.373Z</time></trkpt><trkpt lat="45.5215633" lon="10.8412793"><ele>156.25</ele><time>2026-05-01T08:49:32.374Z</time></trkpt><trkpt lat="45.5215523" lon="10.8414848"><ele>155.5</ele><time>2026-05-01T08:49:33.374Z</time></trkpt><trkpt lat="45.5215439" lon="10.8416854"><ele>154.75</ele><time>2026-05-01T08:49:34.373Z</time></trkpt><trkpt lat="45.5215338" lon="10.8418787"><ele>154.0</ele><time>2026-05-01T08:49:35.374Z</time></trkpt><trkpt lat="45.5215239" lon="10.8420654"><ele>153.5</ele><time>2026-05-01T08:49:36.374Z</time></trkpt><trkpt lat="45.5215195" lon="10.8422537"><ele>153.0</ele><time>2026-05-01T08:49:37.374Z</time></trkpt><trkpt lat="45.521516" lon="10.8424348"><ele>152.5</ele><time>2026-05-01T08:49:38.374Z</time></trkpt><trkpt lat="45.5215113" lon="10.8426058"><ele>152.0</ele><time>2026-05-01T08:49:39.374Z</time></trkpt><trkpt lat="45.5215036" lon="10.8427781"><ele>151.75</ele><time>2026-05-01T08:49:40.373Z</time></trkpt><trkpt lat="45.5214981" lon="10.8429521"><ele>151.5</ele><time>2026-05-01T08:49:41.373Z</time></trkpt><trkpt lat="45.5214888" lon="10.8431363"><ele>151.25</ele><time>2026-05-01T08:49:42.373Z</time></trkpt><trkpt lat="45.5214807" lon="10.8433294"><ele>151.0</ele><time>2026-05-01T08:49:43.374Z</time></trkpt><trkpt lat="45.5214724" lon="10.843525"><ele>150.5</ele><time>2026-05-01T08:49:44.374Z</time></trkpt><trkpt lat="45.5214608" lon="10.8437136"><ele>150.0</ele><time>2026-05-01T08:49:45.374Z</time></trkpt><trkpt lat="45.5214503" lon="10.8438954"><ele>149.5</ele><time>2026-05-01T08:49:46.373Z</time></trkpt><trkpt lat="45.5214402" lon="10.8440709"><ele>149.0</ele><time>2026-05-01T08:49:47.374Z</time></trkpt><trkpt lat="45.5214288" lon="10.8442469"><ele>149.0</ele><time>2026-05-01T08:49:48.374Z</time></trkpt><trkpt lat="45.5214204" lon="10.8444231"><ele>149.0</ele><time>2026-05-01T08:49:49.374Z</time></trkpt><trkpt lat="45.521413" lon="10.8445989"><ele>149.0</ele><time>2026-05-01T08:49:50.373Z</time></trkpt><trkpt lat="45.5214112" lon="10.8447902"><ele>149.0</ele><time>2026-05-01T08:49:51.374Z</time></trkpt><trkpt lat="45.5214032" lon="10.8449972"><ele>148.66666666666666</ele><time>2026-05-01T08:49:52.374Z</time></trkpt><trkpt lat="45.5213987" lon="10.8452179"><ele>148.33333333333334</ele><time>2026-05-01T08:49:53.374Z</time></trkpt><trkpt lat="45.5213891" lon="10.8454358"><ele>148.0</ele><time>2026-05-01T08:49:54.374Z</time></trkpt><trkpt lat="45.5213798" lon="10.8456558"><ele>148.0</ele><time>2026-05-01T08:49:55.373Z</time></trkpt><trkpt lat="45.5213717" lon="10.8458751"><ele>148.0</ele><time>2026-05-01T08:49:56.374Z</time></trkpt><trkpt lat="45.521362" lon="10.8460951"><ele>148.0</ele><time>2026-05-01T08:49:57.374Z</time></trkpt><trkpt lat="45.5213492" lon="10.8463154"><ele>148.33333333333334</ele><time>2026-05-01T08:49:58.374Z</time></trkpt><trkpt lat="45.5213401" lon="10.8465401"><ele>148.66666666666666</ele><time>2026-05-01T08:49:59.373Z</time></trkpt><trkpt lat="45.5213299" lon="10.846765"><ele>149.0</ele><time>2026-05-01T08:50:00.374Z</time></trkpt><trkpt lat="45.5213156" lon="10.8469948"><ele>148.33333333333331</ele><time>2026-05-01T08:50:01.374Z</time></trkpt><trkpt lat="45.5213053" lon="10.8472275"><ele>147.66666666666666</ele><time>2026-05-01T08:50:02.374Z</time></trkpt><trkpt lat="45.5212939" lon="10.8474628"><ele>147.0</ele><time>2026-05-01T08:50:03.374Z</time></trkpt><trkpt lat="45.5212878" lon="10.8476964"><ele>146.0</ele><time>2026-05-01T08:50:04.374Z</time></trkpt><trkpt lat="45.5212818" lon="10.8479342"><ele>145.0</ele><time>2026-05-01T08:50:05.374Z</time></trkpt><trkpt lat="45.5212709" lon="10.8481745"><ele>144.0</ele><time>2026-05-01T08:50:06.374Z</time></trkpt><trkpt lat="45.5212589" lon="10.8484149"><ele>144.0</ele><time>2026-05-01T08:50:07.373Z</time></trkpt><trkpt lat="45.5212486" lon="10.8486553"><ele>144.0</ele><time>2026-05-01T08:50:08.372Z</time></trkpt><trkpt lat="45.5212385" lon="10.8488955"><ele>144.0</ele><time>2026-05-01T08:50:09.373Z</time></trkpt><trkpt lat="45.5212299" lon="10.8491397"><ele>142.66666666666666</ele><time>2026-05-01T08:50:10.373Z</time></trkpt><trkpt lat="45.5212229" lon="10.8493849"><ele>141.33333333333331</ele><time>2026-05-01T08:50:11.373Z</time></trkpt><trkpt lat="45.521212" lon="10.8496287"><ele>140.0</ele><time>2026-05-01T08:50:12.372Z</time></trkpt><trkpt lat="45.5212032" lon="10.849874"><ele>140.0</ele><time>2026-05-01T08:50:13.372Z</time></trkpt><trkpt lat="45.5211963" lon="10.8501222"><ele>140.0</ele><time>2026-05-01T08:50:14.373Z</time></trkpt><trkpt lat="45.5211886" lon="10.85037"><ele>140.0</ele><time>2026-05-01T08:50:15.372Z</time></trkpt><trkpt lat="45.521179" lon="10.8506116"><ele>140.0</ele><time>2026-05-01T08:50:16.373Z</time></trkpt><trkpt lat="45.5211672" lon="10.8508518"><ele>140.0</ele><time>2026-05-01T08:50:17.373Z</time></trkpt><trkpt lat="45.5211583" lon="10.8510887"><ele>140.0</ele><time>2026-05-01T08:50:18.373Z</time></trkpt><trkpt lat="45.521143" lon="10.8513177"><ele>140.0</ele><time>2026-05-01T08:50:19.373Z</time></trkpt><trkpt lat="45.5211349" lon="10.8515393"><ele>140.0</ele><time>2026-05-01T08:50:20.373Z</time></trkpt><trkpt lat="45.5211314" lon="10.8517525"><ele>140.0</ele><time>2026-05-01T08:50:21.373Z</time></trkpt><trkpt lat="45.5211298" lon="10.8519544"><ele>140.0</ele><time>2026-05-01T08:50:22.373Z</time></trkpt><trkpt lat="45.5211346" lon="10.8521618"><ele>140.33333333333331</ele><time>2026-05-01T08:50:23.373Z</time></trkpt><trkpt lat="45.5211464" lon="10.8523734"><ele>140.66666666666666</ele><time>2026-05-01T08:50:24.372Z</time></trkpt><trkpt lat="45.5211696" lon="10.8525884"><ele>141.0</ele><time>2026-05-01T08:50:25.373Z</time></trkpt><trkpt lat="45.5211994" lon="10.8528007"><ele>141.25</ele><time>2026-05-01T08:50:26.373Z</time></trkpt><trkpt lat="45.5212361" lon="10.8529998"><ele>141.5</ele><time>2026-05-01T08:50:27.373Z</time></trkpt><trkpt lat="45.5212731" lon="10.8531801"><ele>141.75</ele><time>2026-05-01T08:50:28.373Z</time></trkpt><trkpt lat="45.5213026" lon="10.8533403"><ele>142.0</ele><time>2026-05-01T08:50:29.373Z</time></trkpt><trkpt lat="45.521326" lon="10.8534738"><ele>142.0</ele><time>2026-05-01T08:50:30.373Z</time></trkpt><trkpt lat="45.5213442" lon="10.8535853"><ele>142.0</ele><time>2026-05-01T08:50:31.373Z</time></trkpt><trkpt lat="45.5213646" lon="10.8536787"><ele>142.0</ele><time>2026-05-01T08:50:32.373Z</time></trkpt><trkpt lat="45.5213842" lon="10.8537708"><ele>142.0</ele><time>2026-05-01T08:50:33.373Z</time></trkpt><trkpt lat="45.5214048" lon="10.8538713"><ele>142.0</ele><time>2026-05-01T08:50:34.372Z</time></trkpt><trkpt lat="45.5214298" lon="10.8539901"><ele>142.0</ele><time>2026-05-01T08:50:35.373Z</time></trkpt><trkpt lat="45.5214538" lon="10.8541219"><ele>142.0</ele><time>2026-05-01T08:50:36.373Z</time></trkpt><trkpt lat="45.5214771" lon="10.8542692"><ele>142.0</ele><time>2026-05-01T08:50:37.373Z</time></trkpt><trkpt lat="45.5214955" lon="10.8544186"><ele>142.0</ele><time>2026-05-01T08:50:38.373Z</time></trkpt><trkpt lat="45.5215125" lon="10.8545714"><ele>142.0</ele><time>2026-05-01T08:50:39.373Z</time></trkpt><trkpt lat="45.5215369" lon="10.8547167"><ele>142.0</ele><time>2026-05-01T08:50:40.372Z</time></trkpt><trkpt lat="45.5215634" lon="10.8548629"><ele>141.75</ele><time>2026-05-01T08:50:41.373Z</time></trkpt><trkpt lat="45.521596" lon="10.8550207"><ele>141.5</ele><time>2026-05-01T08:50:42.373Z</time></trkpt><trkpt lat="45.5216343" lon="10.8551915"><ele>141.25</ele><time>2026-05-01T08:50:43.372Z</time></trkpt><trkpt lat="45.5216718" lon="10.8553755"><ele>141.0</ele><time>2026-05-01T08:50:44.373Z</time></trkpt><trkpt lat="45.5217085" lon="10.8555691"><ele>141.66666666666666</ele><time>2026-05-01T08:50:45.372Z</time></trkpt><trkpt lat="45.5217404" lon="10.8557707"><ele>142.33333333333331</ele><time>2026-05-01T08:50:46.373Z</time></trkpt><trkpt lat="45.5217747" lon="10.8559848"><ele>143.0</ele><time>2026-05-01T08:50:47.373Z</time></trkpt><trkpt lat="45.5218116" lon="10.8561976"><ele>143.66666666666666</ele><time>2026-05-01T08:50:48.372Z</time></trkpt><trkpt lat="45.5218498" lon="10.8564127"><ele>144.33333333333334</ele><time>2026-05-01T08:50:49.372Z</time></trkpt><trkpt lat="45.5218854" lon="10.8566297"><ele>145.0</ele><time>2026-05-01T08:50:50.373Z</time></trkpt><trkpt lat="45.5219219" lon="10.856845"><ele>145.0</ele><time>2026-05-01T08:50:51.372Z</time></trkpt><trkpt lat="45.5219501" lon="10.8570614"><ele>145.0</ele><time>2026-05-01T08:50:52.372Z</time></trkpt><trkpt lat="45.5219779" lon="10.8572751"><ele>145.0</ele><time>2026-05-01T08:50:53.373Z</time></trkpt><trkpt lat="45.5220007" lon="10.8574903"><ele>144.33333333333334</ele><time>2026-05-01T08:50:54.373Z</time></trkpt><trkpt lat="45.5220222" lon="10.8577083"><ele>143.66666666666666</ele><time>2026-05-01T08:50:55.373Z</time></trkpt><trkpt lat="45.5220328" lon="10.8579361"><ele>143.0</ele><time>2026-05-01T08:50:56.372Z</time></trkpt><trkpt lat="45.5220313" lon="10.8581608"><ele>143.0</ele><time>2026-05-01T08:50:57.373Z</time></trkpt><trkpt lat="45.5220181" lon="10.8583891"><ele>143.0</ele><time>2026-05-01T08:50:58.372Z</time></trkpt><trkpt lat="45.5219903" lon="10.8586333"><ele>143.0</ele><time>2026-05-01T08:50:59.373Z</time></trkpt><trkpt lat="45.521961" lon="10.8588881"><ele>142.33333333333331</ele><time>2026-05-01T08:51:00.373Z</time></trkpt><trkpt lat="45.5219314" lon="10.8591388"><ele>141.66666666666666</ele><time>2026-05-01T08:51:01.373Z</time></trkpt><trkpt lat="45.5219061" lon="10.859389"><ele>141.0</ele><time>2026-05-01T08:51:02.373Z</time></trkpt><trkpt lat="45.5218817" lon="10.8596358"><ele>141.0</ele><time>2026-05-01T08:51:03.373Z</time></trkpt><trkpt lat="45.5218554" lon="10.8598807"><ele>141.0</ele><time>2026-05-01T08:51:04.373Z</time></trkpt><trkpt lat="45.5218395" lon="10.8601256"><ele>141.0</ele><time>2026-05-01T08:51:05.373Z</time></trkpt><trkpt lat="45.521825" lon="10.8603639"><ele>141.0</ele><time>2026-05-01T08:51:06.373Z</time></trkpt><trkpt lat="45.5218222" lon="10.8605944"><ele>141.0</ele><time>2026-05-01T08:51:07.373Z</time></trkpt><trkpt lat="45.5218213" lon="10.8608227"><ele>141.0</ele><time>2026-05-01T08:51:08.373Z</time></trkpt><trkpt lat="45.5218202" lon="10.8610519"><ele>141.33333333333334</ele><time>2026-05-01T08:51:09.373Z</time></trkpt><trkpt lat="45.5218275" lon="10.8612804"><ele>141.66666666666669</ele><time>2026-05-01T08:51:10.373Z</time></trkpt><trkpt lat="45.5218524" lon="10.8615039"><ele>142.0</ele><time>2026-05-01T08:51:11.373Z</time></trkpt><trkpt lat="45.5218717" lon="10.8617288"><ele>141.66666666666669</ele><time>2026-05-01T08:51:12.373Z</time></trkpt><trkpt lat="45.5218911" lon="10.8619593"><ele>141.33333333333334</ele><time>2026-05-01T08:51:13.373Z</time></trkpt><trkpt lat="45.521917" lon="10.862182"><ele>141.0</ele><time>2026-05-01T08:51:14.372Z</time></trkpt><trkpt lat="45.5219397" lon="10.8623964"><ele>141.0</ele><time>2026-05-01T08:51:15.373Z</time></trkpt><trkpt lat="45.5219736" lon="10.8626138"><ele>141.0</ele><time>2026-05-01T08:51:16.373Z</time></trkpt><trkpt lat="45.5220148" lon="10.8628281"><ele>141.0</ele><time>2026-05-01T08:51:17.373Z</time></trkpt><trkpt lat="45.5220581" lon="10.8630397"><ele>142.33333333333334</ele><time>2026-05-01T08:51:18.373Z</time></trkpt><trkpt lat="45.5221078" lon="10.8632469"><ele>143.66666666666669</ele><time>2026-05-01T08:51:19.373Z</time></trkpt><trkpt lat="45.5221611" lon="10.8634563"><ele>145.0</ele><time>2026-05-01T08:51:20.373Z</time></trkpt><trkpt lat="45.5222193" lon="10.8636699"><ele>145.0</ele><time>2026-05-01T08:51:21.373Z</time></trkpt><trkpt lat="45.5222827" lon="10.8638833"><ele>145.0</ele><time>2026-05-01T08:51:22.373Z</time></trkpt><trkpt lat="45.5223483" lon="10.864092"><ele>145.0</ele><time>2026-05-01T08:51:23.373Z</time></trkpt><trkpt lat="45.5224077" lon="10.8642914"><ele>145.5</ele><time>2026-05-01T08:51:24.373Z</time></trkpt><trkpt lat="45.5224624" lon="10.8644827"><ele>146.0</ele><time>2026-05-01T08:51:25.373Z</time></trkpt><trkpt lat="45.5225152" lon="10.8646537"><ele>146.5</ele><time>2026-05-01T08:51:26.373Z</time></trkpt><trkpt lat="45.5225637" lon="10.8648179"><ele>147.0</ele><time>2026-05-01T08:51:27.373Z</time></trkpt><trkpt lat="45.5226132" lon="10.8649819"><ele>147.5</ele><time>2026-05-01T08:51:28.373Z</time></trkpt><trkpt lat="45.5226603" lon="10.8651493"><ele>148.0</ele><time>2026-05-01T08:51:29.373Z</time></trkpt><trkpt lat="45.5227058" lon="10.8653056"><ele>148.5</ele><time>2026-05-01T08:51:30.373Z</time></trkpt><trkpt lat="45.5227505" lon="10.8654527"><ele>149.0</ele><time>2026-05-01T08:51:31.373Z</time></trkpt><trkpt lat="45.5227932" lon="10.8655893"><ele>149.0</ele><time>2026-05-01T08:51:32.373Z</time></trkpt><trkpt lat="45.5228334" lon="10.8657281"><ele>149.0</ele><time>2026-05-01T08:51:33.373Z</time></trkpt><trkpt lat="45.5228795" lon="10.8658635"><ele>149.0</ele><time>2026-05-01T08:51:34.373Z</time></trkpt><trkpt lat="45.5229279" lon="10.8660047"><ele>149.0</ele><time>2026-05-01T08:51:35.372Z</time></trkpt><trkpt lat="45.522973" lon="10.8661492"><ele>149.0</ele><time>2026-05-01T08:51:36.373Z</time></trkpt><trkpt lat="45.5230169" lon="10.8663128"><ele>149.5</ele><time>2026-05-01T08:51:37.373Z</time></trkpt><trkpt lat="45.5230609" lon="10.866488"><ele>150.0</ele><time>2026-05-01T08:51:38.373Z</time></trkpt><trkpt lat="45.5230972" lon="10.8666751"><ele>150.5</ele><time>2026-05-01T08:51:39.373Z</time></trkpt><trkpt lat="45.5231207" lon="10.8668611"><ele>151.0</ele><time>2026-05-01T08:51:40.373Z</time></trkpt><trkpt lat="45.5231433" lon="10.8670459"><ele>150.0</ele><time>2026-05-01T08:51:41.373Z</time></trkpt><trkpt lat="45.5231666" lon="10.8672326"><ele>149.0</ele><time>2026-05-01T08:51:42.373Z</time></trkpt><trkpt lat="45.5231939" lon="10.8674231"><ele>148.0</ele><time>2026-05-01T08:51:43.373Z</time></trkpt><trkpt lat="45.5232246" lon="10.8676223"><ele>147.0</ele><time>2026-05-01T08:51:44.372Z</time></trkpt><trkpt lat="45.5232536" lon="10.8678294"><ele>147.0</ele><time>2026-05-01T08:51:45.373Z</time></trkpt><trkpt lat="45.5232803" lon="10.8680381"><ele>147.0</ele><time>2026-05-01T08:51:46.373Z</time></trkpt><trkpt lat="45.5233098" lon="10.8682453"><ele>147.0</ele><time>2026-05-01T08:51:47.373Z</time></trkpt><trkpt lat="45.5233415" lon="10.8684517"><ele>147.0</ele><time>2026-05-01T08:51:48.373Z</time></trkpt><trkpt lat="45.5233718" lon="10.8686554"><ele>146.25</ele><time>2026-05-01T08:51:49.372Z</time></trkpt><trkpt lat="45.5234088" lon="10.8688585"><ele>145.5</ele><time>2026-05-01T08:51:50.373Z</time></trkpt><trkpt lat="45.5234371" lon="10.8690661"><ele>144.75</ele><time>2026-05-01T08:51:51.373Z</time></trkpt><trkpt lat="45.523465" lon="10.8692672"><ele>144.0</ele><time>2026-05-01T08:51:52.373Z</time></trkpt><trkpt lat="45.5234919" lon="10.8694673"><ele>143.5</ele><time>2026-05-01T08:51:53.372Z</time></trkpt><trkpt lat="45.5235139" lon="10.8696716"><ele>143.0</ele><time>2026-05-01T08:51:54.373Z</time></trkpt><trkpt lat="45.5235372" lon="10.8698829"><ele>142.5</ele><time>2026-05-01T08:51:55.373Z</time></trkpt><trkpt lat="45.5235638" lon="10.8700996"><ele>142.0</ele><time>2026-05-01T08:51:56.373Z</time></trkpt><trkpt lat="45.5235925" lon="10.8703226"><ele>142.0</ele><time>2026-05-01T08:51:57.373Z</time></trkpt><trkpt lat="45.5236293" lon="10.8705508"><ele>142.0</ele><time>2026-05-01T08:51:58.373Z</time></trkpt><trkpt lat="45.523662" lon="10.8707871"><ele>142.0</ele><time>2026-05-01T08:51:59.373Z</time></trkpt><trkpt lat="45.5236923" lon="10.8710348"><ele>142.25</ele><time>2026-05-01T08:52:00.373Z</time></trkpt><trkpt lat="45.5237192" lon="10.8712581"><ele>142.5</ele><time>2026-05-01T08:52:01.373Z</time></trkpt><trkpt lat="45.5237362" lon="10.8714559"><ele>142.75</ele><time>2026-05-01T08:52:02.372Z</time></trkpt><trkpt lat="45.5237325" lon="10.8716373"><ele>143.0</ele><time>2026-05-01T08:52:03.373Z</time></trkpt><trkpt lat="45.5237045" lon="10.8717933"><ele>143.0</ele><time>2026-05-01T08:52:04.372Z</time></trkpt><trkpt lat="45.5236833" lon="10.8719578"><ele>143.0</ele><time>2026-05-01T08:52:05.373Z</time></trkpt><trkpt lat="45.5237072" lon="10.8721279"><ele>143.0</ele><time>2026-05-01T08:52:06.372Z</time></trkpt><trkpt lat="45.5237648" lon="10.8723012"><ele>143.0</ele><time>2026-05-01T08:52:07.373Z</time></trkpt><trkpt lat="45.5238347" lon="10.8724964"><ele>144.33333333333331</ele><time>2026-05-01T08:52:08.373Z</time></trkpt><trkpt lat="45.5238912" lon="10.8727252"><ele>145.66666666666666</ele><time>2026-05-01T08:52:09.373Z</time></trkpt><trkpt lat="45.5239306" lon="10.872985"><ele>147.0</ele><time>2026-05-01T08:52:10.372Z</time></trkpt><trkpt lat="45.5239502" lon="10.8732671"><ele>146.33333333333334</ele><time>2026-05-01T08:52:11.373Z</time></trkpt><trkpt lat="45.5239531" lon="10.8735573"><ele>145.66666666666669</ele><time>2026-05-01T08:52:12.373Z</time></trkpt><trkpt lat="45.5239457" lon="10.8738392"><ele>145.0</ele><time>2026-05-01T08:52:13.373Z</time></trkpt><trkpt lat="45.5239295" lon="10.8741"><ele>144.0</ele><time>2026-05-01T08:52:14.372Z</time></trkpt><trkpt lat="45.5239111" lon="10.8743523"><ele>143.0</ele><time>2026-05-01T08:52:15.372Z</time></trkpt><trkpt lat="45.5238816" lon="10.8745909"><ele>142.0</ele><time>2026-05-01T08:52:16.373Z</time></trkpt><trkpt lat="45.5238447" lon="10.8748288"><ele>142.0</ele><time>2026-05-01T08:52:17.372Z</time></trkpt><trkpt lat="45.5238037" lon="10.875064"><ele>142.0</ele><time>2026-05-01T08:52:18.373Z</time></trkpt><trkpt lat="45.5237576" lon="10.8752959"><ele>142.0</ele><time>2026-05-01T08:52:19.373Z</time></trkpt><trkpt lat="45.523706" lon="10.8755226"><ele>142.66666666666669</ele><time>2026-05-01T08:52:20.373Z</time></trkpt><trkpt lat="45.5236487" lon="10.8757531"><ele>143.33333333333334</ele><time>2026-05-01T08:52:21.373Z</time></trkpt><trkpt lat="45.5235814" lon="10.8759796"><ele>144.0</ele><time>2026-05-01T08:52:22.372Z</time></trkpt><trkpt lat="45.5235172" lon="10.8761914"><ele>144.25</ele><time>2026-05-01T08:52:23.373Z</time></trkpt><trkpt lat="45.5234629" lon="10.8763947"><ele>144.5</ele><time>2026-05-01T08:52:24.373Z</time></trkpt><trkpt lat="45.5234119" lon="10.87658"><ele>144.75</ele><time>2026-05-01T08:52:25.373Z</time></trkpt><trkpt lat="45.5233668" lon="10.8767408"><ele>145.0</ele><time>2026-05-01T08:52:26.373Z</time></trkpt><trkpt lat="45.5233159" lon="10.8768938"><ele>145.0</ele><time>2026-05-01T08:52:27.372Z</time></trkpt><trkpt lat="45.5232454" lon="10.8770302"><ele>145.0</ele><time>2026-05-01T08:52:28.373Z</time></trkpt><trkpt lat="45.5231582" lon="10.8771439"><ele>145.0</ele><time>2026-05-01T08:52:29.373Z</time></trkpt><trkpt lat="45.5230784" lon="10.8772494"><ele>145.0</ele><time>2026-05-01T08:52:30.373Z</time></trkpt><trkpt lat="45.5230233" lon="10.8773763"><ele>145.0</ele><time>2026-05-01T08:52:31.373Z</time></trkpt><trkpt lat="45.5230078" lon="10.8775256"><ele>145.0</ele><time>2026-05-01T08:52:32.373Z</time></trkpt><trkpt lat="45.5230454" lon="10.8776478"><ele>145.0</ele><time>2026-05-01T08:52:33.373Z</time></trkpt><trkpt lat="45.5231262" lon="10.8777311"><ele>145.0</ele><time>2026-05-01T08:52:34.372Z</time></trkpt><trkpt lat="45.523236" lon="10.8777506"><ele>145.0</ele><time>2026-05-01T08:52:35.373Z</time></trkpt><trkpt lat="45.5233694" lon="10.8777269"><ele>144.66666666666669</ele><time>2026-05-01T08:52:36.373Z</time></trkpt><trkpt lat="45.5235211" lon="10.8777224"><ele>144.33333333333334</ele><time>2026-05-01T08:52:37.373Z</time></trkpt><trkpt lat="45.5236706" lon="10.8777851"><ele>144.0</ele><time>2026-05-01T08:52:38.373Z</time></trkpt><trkpt lat="45.5238287" lon="10.8778928"><ele>144.0</ele><time>2026-05-01T08:52:39.373Z</time></trkpt><trkpt lat="45.5239994" lon="10.8780133"><ele>144.0</ele><time>2026-05-01T08:52:40.373Z</time></trkpt><trkpt lat="45.5241812" lon="10.8781374"><ele>144.0</ele><time>2026-05-01T08:52:41.372Z</time></trkpt><trkpt lat="45.5243745" lon="10.8782748"><ele>146.5</ele><time>2026-05-01T08:52:42.373Z</time></trkpt><trkpt lat="45.524578" lon="10.8784197"><ele>149.0</ele><time>2026-05-01T08:52:43.373Z</time></trkpt><trkpt lat="45.5247893" lon="10.8785677"><ele>149.0</ele><time>2026-05-01T08:52:44.373Z</time></trkpt><trkpt lat="45.5250033" lon="10.878717"><ele>149.0</ele><time>2026-05-01T08:52:45.373Z</time></trkpt><trkpt lat="45.5252184" lon="10.8788615"><ele>149.5</ele><time>2026-05-01T08:52:46.373Z</time></trkpt><trkpt lat="45.5254317" lon="10.8790075"><ele>150.0</ele><time>2026-05-01T08:52:47.373Z</time></trkpt><trkpt lat="45.525645" lon="10.8791513"><ele>149.0</ele><time>2026-05-01T08:52:48.372Z</time></trkpt><trkpt lat="45.525858" lon="10.8792918"><ele>148.0</ele><time>2026-05-01T08:52:49.373Z</time></trkpt><trkpt lat="45.5260683" lon="10.8794345"><ele>148.0</ele><time>2026-05-01T08:52:50.373Z</time></trkpt><trkpt lat="45.5262755" lon="10.8795805"><ele>148.0</ele><time>2026-05-01T08:52:51.373Z</time></trkpt><trkpt lat="45.5264792" lon="10.8797227"><ele>148.0</ele><time>2026-05-01T08:52:52.373Z</time></trkpt><trkpt lat="45.5266827" lon="10.8798659"><ele>148.0</ele><time>2026-05-01T08:52:53.373Z</time></trkpt><trkpt lat="45.5268843" lon="10.880009"><ele>150.0</ele><time>2026-05-01T08:52:54.373Z</time></trkpt><trkpt lat="45.5270875" lon="10.8801481"><ele>152.0</ele><time>2026-05-01T08:52:55.373Z</time></trkpt><trkpt lat="45.5272919" lon="10.8802864"><ele>152.0</ele><time>2026-05-01T08:52:56.373Z</time></trkpt><trkpt lat="45.5274955" lon="10.8804262"><ele>152.0</ele><time>2026-05-01T08:52:57.373Z</time></trkpt><trkpt lat="45.5276969" lon="10.8805668"><ele>152.66666666666666</ele><time>2026-05-01T08:52:58.373Z</time></trkpt><trkpt lat="45.5279" lon="10.880706"><ele>153.33333333333334</ele><time>2026-05-01T08:52:59.373Z</time></trkpt><trkpt lat="45.5281001" lon="10.8808451"><ele>154.0</ele><time>2026-05-01T08:53:00.373Z</time></trkpt><trkpt lat="45.5282989" lon="10.8809827"><ele>154.0</ele><time>2026-05-01T08:53:01.373Z</time></trkpt><trkpt lat="45.5284983" lon="10.8811165"><ele>154.0</ele><time>2026-05-01T08:53:02.373Z</time></trkpt><trkpt lat="45.5286999" lon="10.8812501"><ele>154.0</ele><time>2026-05-01T08:53:03.373Z</time></trkpt><trkpt lat="45.5289048" lon="10.8813856"><ele>154.5</ele><time>2026-05-01T08:53:04.373Z</time></trkpt><trkpt lat="45.5291221" lon="10.8815298"><ele>155.0</ele><time>2026-05-01T08:53:05.373Z</time></trkpt><trkpt lat="45.5293528" lon="10.8816887"><ele>155.5</ele><time>2026-05-01T08:53:06.373Z</time></trkpt><trkpt lat="45.5295821" lon="10.8818514"><ele>156.0</ele><time>2026-05-01T08:53:07.372Z</time></trkpt><trkpt lat="45.5297991" lon="10.8820023"><ele>156.0</ele><time>2026-05-01T08:53:08.373Z</time></trkpt><trkpt lat="45.530009" lon="10.8821407"><ele>156.0</ele><time>2026-05-01T08:53:09.373Z</time></trkpt><trkpt lat="45.5302062" lon="10.88227"><ele>156.0</ele><time>2026-05-01T08:53:10.373Z</time></trkpt><trkpt lat="45.5303944" lon="10.8824069"><ele>156.0</ele><time>2026-05-01T08:53:11.372Z</time></trkpt><trkpt lat="45.5305697" lon="10.8825592"><ele>156.0</ele><time>2026-05-01T08:53:12.373Z</time></trkpt><trkpt lat="45.5307257" lon="10.8827399"><ele>156.0</ele><time>2026-05-01T08:53:13.373Z</time></trkpt><trkpt lat="45.530862" lon="10.8829534"><ele>156.66666666666666</ele><time>2026-05-01T08:53:14.373Z</time></trkpt><trkpt lat="45.5309751" lon="10.8831839"><ele>157.33333333333331</ele><time>2026-05-01T08:53:15.373Z</time></trkpt><trkpt lat="45.5310824" lon="10.8834211"><ele>158.0</ele><time>2026-05-01T08:53:16.372Z</time></trkpt><trkpt lat="45.5311928" lon="10.8836582"><ele>158.66666666666666</ele><time>2026-05-01T08:53:17.373Z</time></trkpt><trkpt lat="45.5313157" lon="10.8838857"><ele>159.33333333333334</ele><time>2026-05-01T08:53:18.373Z</time></trkpt><trkpt lat="45.5314519" lon="10.8840937"><ele>160.0</ele><time>2026-05-01T08:53:19.373Z</time></trkpt><trkpt lat="45.5316096" lon="10.8842714"><ele>160.0</ele><time>2026-05-01T08:53:20.373Z</time></trkpt><trkpt lat="45.5317837" lon="10.884415"><ele>160.0</ele><time>2026-05-01T08:53:21.373Z</time></trkpt><trkpt lat="45.5319644" lon="10.8845252"><ele>160.0</ele><time>2026-05-01T08:53:22.372Z</time></trkpt><trkpt lat="45.5321419" lon="10.8846029"><ele>161.0</ele><time>2026-05-01T08:53:23.373Z</time></trkpt><trkpt lat="45.532315" lon="10.8846614"><ele>162.0</ele><time>2026-05-01T08:53:24.373Z</time></trkpt><trkpt lat="45.5324851" lon="10.8847288"><ele>163.0</ele><time>2026-05-01T08:53:25.372Z</time></trkpt><trkpt lat="45.5326449" lon="10.8848229"><ele>163.0</ele><time>2026-05-01T08:53:26.372Z</time></trkpt><trkpt lat="45.5328086" lon="10.8849523"><ele>163.0</ele><time>2026-05-01T08:53:27.373Z</time></trkpt><trkpt lat="45.5329782" lon="10.8851006"><ele>163.0</ele><time>2026-05-01T08:53:28.373Z</time></trkpt><trkpt lat="45.5331484" lon="10.8852616"><ele>163.33333333333334</ele><time>2026-05-01T08:53:29.373Z</time></trkpt><trkpt lat="45.5333301" lon="10.8854217"><ele>163.66666666666666</ele><time>2026-05-01T08:53:30.373Z</time></trkpt><trkpt lat="45.5335108" lon="10.8855599"><ele>164.0</ele><time>2026-05-01T08:53:31.372Z</time></trkpt><trkpt lat="45.5337069" lon="10.8856902"><ele>164.5</ele><time>2026-05-01T08:53:32.373Z</time></trkpt><trkpt lat="45.533914" lon="10.8858155"><ele>165.0</ele><time>2026-05-01T08:53:33.373Z</time></trkpt><trkpt lat="45.5341278" lon="10.8859287"><ele>165.0</ele><time>2026-05-01T08:53:34.373Z</time></trkpt><trkpt lat="45.5343431" lon="10.8860269"><ele>165.0</ele><time>2026-05-01T08:53:35.373Z</time></trkpt><trkpt lat="45.5345571" lon="10.8861057"><ele>165.0</ele><time>2026-05-01T08:53:36.373Z</time></trkpt><trkpt lat="45.5347704" lon="10.8861645"><ele>165.33333333333334</ele><time>2026-05-01T08:53:37.372Z</time></trkpt><trkpt lat="45.5349771" lon="10.8862097"><ele>165.66666666666669</ele><time>2026-05-01T08:53:38.372Z</time></trkpt><trkpt lat="45.5351666" lon="10.8862485"><ele>166.0</ele><time>2026-05-01T08:53:39.373Z</time></trkpt><trkpt lat="45.5353402" lon="10.8862745"><ele>166.75</ele><time>2026-05-01T08:53:40.373Z</time></trkpt><trkpt lat="45.535501" lon="10.8862811"><ele>167.5</ele><time>2026-05-01T08:53:41.372Z</time></trkpt><trkpt lat="45.5356512" lon="10.8862711"><ele>168.25</ele><time>2026-05-01T08:53:42.373Z</time></trkpt><trkpt lat="45.5357815" lon="10.8862444"><ele>169.0</ele><time>2026-05-01T08:53:43.372Z</time></trkpt><trkpt lat="45.5359004" lon="10.8862059"><ele>169.0</ele><time>2026-05-01T08:53:44.372Z</time></trkpt><trkpt lat="45.536015" lon="10.8861641"><ele>169.0</ele><time>2026-05-01T08:53:45.372Z</time></trkpt><trkpt lat="45.5361268" lon="10.886116"><ele>169.0</ele><time>2026-05-01T08:53:46.373Z</time></trkpt><trkpt lat="45.5362365" lon="10.8860604"><ele>169.0</ele><time>2026-05-01T08:53:47.372Z</time></trkpt><trkpt lat="45.5363434" lon="10.8860049"><ele>169.2</ele><time>2026-05-01T08:53:48.373Z</time></trkpt><trkpt lat="45.5364488" lon="10.8859606"><ele>169.39999999999998</ele><time>2026-05-01T08:53:49.373Z</time></trkpt><trkpt lat="45.5365568" lon="10.8859194"><ele>169.6</ele><time>2026-05-01T08:53:50.373Z</time></trkpt><trkpt lat="45.5366692" lon="10.8858797"><ele>169.8</ele><time>2026-05-01T08:53:51.373Z</time></trkpt><trkpt lat="45.536778" lon="10.8858505"><ele>170.0</ele><time>2026-05-01T08:53:52.373Z</time></trkpt><trkpt lat="45.5368834" lon="10.8858244"><ele>170.0</ele><time>2026-05-01T08:53:53.373Z</time></trkpt><trkpt lat="45.5369845" lon="10.8858284"><ele>170.0</ele><time>2026-05-01T08:53:54.373Z</time></trkpt><trkpt lat="45.5370884" lon="10.8858649"><ele>170.0</ele><time>2026-05-01T08:53:55.373Z</time></trkpt><trkpt lat="45.5371947" lon="10.8858872"><ele>170.0</ele><time>2026-05-01T08:53:56.373Z</time></trkpt><trkpt lat="45.5373031" lon="10.8858793"><ele>170.0</ele><time>2026-05-01T08:53:57.373Z</time></trkpt><trkpt lat="45.5374189" lon="10.885879"><ele>170.0</ele><time>2026-05-01T08:53:58.373Z</time></trkpt><trkpt lat="45.5375517" lon="10.8858912"><ele>170.0</ele><time>2026-05-01T08:53:59.373Z</time></trkpt><trkpt lat="45.5376865" lon="10.8858935"><ele>170.0</ele><time>2026-05-01T08:54:00.373Z</time></trkpt><trkpt lat="45.5378183" lon="10.8858915"><ele>170.0</ele><time>2026-05-01T08:54:01.373Z</time></trkpt><trkpt lat="45.5379467" lon="10.8858925"><ele>170.75</ele><time>2026-05-01T08:54:02.373Z</time></trkpt><trkpt lat="45.5380704" lon="10.8858955"><ele>171.5</ele><time>2026-05-01T08:54:03.373Z</time></trkpt><trkpt lat="45.5382022" lon="10.8858842"><ele>172.25</ele><time>2026-05-01T08:54:04.373Z</time></trkpt><trkpt lat="45.5383242" lon="10.8858811"><ele>173.0</ele><time>2026-05-01T08:54:05.373Z</time></trkpt><trkpt lat="45.5384527" lon="10.8858693"><ele>173.0</ele><time>2026-05-01T08:54:06.372Z</time></trkpt><trkpt lat="45.5385798" lon="10.8858633"><ele>173.0</ele><time>2026-05-01T08:54:07.372Z</time></trkpt><trkpt lat="45.5387066" lon="10.8858567"><ele>173.0</ele><time>2026-05-01T08:54:08.372Z</time></trkpt><trkpt lat="45.538829" lon="10.8858543"><ele>173.0</ele><time>2026-05-01T08:54:09.372Z</time></trkpt><trkpt lat="45.5389564" lon="10.8858567"><ele>173.5</ele><time>2026-05-01T08:54:10.372Z</time></trkpt><trkpt lat="45.5390887" lon="10.8858562"><ele>174.0</ele><time>2026-05-01T08:54:11.372Z</time></trkpt><trkpt lat="45.539215" lon="10.8858533"><ele>174.5</ele><time>2026-05-01T08:54:12.372Z</time></trkpt><trkpt lat="45.53934" lon="10.8858557"><ele>175.0</ele><time>2026-05-01T08:54:13.372Z</time></trkpt><trkpt lat="45.5394649" lon="10.8858518"><ele>175.75</ele><time>2026-05-01T08:54:14.372Z</time></trkpt><trkpt lat="45.5395867" lon="10.8858493"><ele>176.5</ele><time>2026-05-01T08:54:15.372Z</time></trkpt><trkpt lat="45.5397083" lon="10.885848"><ele>177.25</ele><time>2026-05-01T08:54:16.372Z</time></trkpt><trkpt lat="45.5398244" lon="10.8858464"><ele>178.0</ele><time>2026-05-01T08:54:17.372Z</time></trkpt><trkpt lat="45.5399451" lon="10.8858405"><ele>178.0</ele><time>2026-05-01T08:54:18.372Z</time></trkpt><trkpt lat="45.5400635" lon="10.8858368"><ele>178.0</ele><time>2026-05-01T08:54:19.372Z</time></trkpt><trkpt lat="45.5401843" lon="10.8858348"><ele>178.0</ele><time>2026-05-01T08:54:20.372Z</time></trkpt><trkpt lat="45.540303" lon="10.8858317"><ele>178.0</ele><time>2026-05-01T08:54:21.372Z</time></trkpt><trkpt lat="45.5404172" lon="10.8858242"><ele>178.25</ele><time>2026-05-01T08:54:22.372Z</time></trkpt><trkpt lat="45.5405288" lon="10.8858267"><ele>178.5</ele><time>2026-05-01T08:54:23.372Z</time></trkpt><trkpt lat="45.5406389" lon="10.8858244"><ele>178.75</ele><time>2026-05-01T08:54:24.371Z</time></trkpt><trkpt lat="45.5407532" lon="10.8858212"><ele>179.0</ele><time>2026-05-01T08:54:25.372Z</time></trkpt><trkpt lat="45.5408697" lon="10.8858151"><ele>179.0</ele><time>2026-05-01T08:54:26.372Z</time></trkpt><trkpt lat="45.5409851" lon="10.8858113"><ele>179.0</ele><time>2026-05-01T08:54:27.372Z</time></trkpt><trkpt lat="45.5410999" lon="10.8858055"><ele>179.0</ele><time>2026-05-01T08:54:28.372Z</time></trkpt><trkpt lat="45.5412134" lon="10.8858107"><ele>179.0</ele><time>2026-05-01T08:54:29.372Z</time></trkpt><trkpt lat="45.541334" lon="10.8858059"><ele>179.5</ele><time>2026-05-01T08:54:30.371Z</time></trkpt><trkpt lat="45.5414516" lon="10.8858066"><ele>180.0</ele><time>2026-05-01T08:54:31.372Z</time></trkpt><trkpt lat="45.541571" lon="10.8858076"><ele>180.5</ele><time>2026-05-01T08:54:32.372Z</time></trkpt><trkpt lat="45.5416884" lon="10.8858059"><ele>181.0</ele><time>2026-05-01T08:54:33.372Z</time></trkpt><trkpt lat="45.541805" lon="10.8857996"><ele>181.0</ele><time>2026-05-01T08:54:34.372Z</time></trkpt><trkpt lat="45.5419263" lon="10.8857929"><ele>181.0</ele><time>2026-05-01T08:54:35.372Z</time></trkpt><trkpt lat="45.5420451" lon="10.8857942"><ele>181.0</ele><time>2026-05-01T08:54:36.371Z</time></trkpt><trkpt lat="45.5421651" lon="10.8857963"><ele>181.0</ele><time>2026-05-01T08:54:37.372Z</time></trkpt><trkpt lat="45.5422838" lon="10.8857952"><ele>181.25</ele><time>2026-05-01T08:54:38.372Z</time></trkpt><trkpt lat="45.5424021" lon="10.8857965"><ele>181.5</ele><time>2026-05-01T08:54:39.372Z</time></trkpt><trkpt lat="45.542519" lon="10.885792"><ele>181.75</ele><time>2026-05-01T08:54:40.372Z</time></trkpt><trkpt lat="45.5426323" lon="10.8857852"><ele>182.0</ele><time>2026-05-01T08:54:41.372Z</time></trkpt><trkpt lat="45.5427378" lon="10.8857799"><ele>182.0</ele><time>2026-05-01T08:54:42.372Z</time></trkpt><trkpt lat="45.5428377" lon="10.8857739"><ele>182.0</ele><time>2026-05-01T08:54:43.371Z</time></trkpt><trkpt lat="45.542926" lon="10.8857699"><ele>182.0</ele><time>2026-05-01T08:54:44.372Z</time></trkpt><trkpt lat="45.5429996" lon="10.8857634"><ele>182.0</ele><time>2026-05-01T08:54:45.372Z</time></trkpt><trkpt lat="45.5431065" lon="10.8857414"><ele>182.0</ele><time>2026-05-01T08:54:47.372Z</time></trkpt><trkpt lat="45.5431734" lon="10.8857116"><ele>182.0</ele><time>2026-05-01T08:54:50.372Z</time></trkpt><trkpt lat="45.543222" lon="10.8855704"><ele>182.5</ele><time>2026-05-01T08:54:53.371Z</time></trkpt><trkpt lat="45.543224" lon="10.8854675"><ele>183.0</ele><time>2026-05-01T08:54:54.372Z</time></trkpt><trkpt lat="45.5432179" lon="10.8853508"><ele>183.5</ele><time>2026-05-01T08:54:55.372Z</time></trkpt><trkpt lat="45.543211" lon="10.8852231"><ele>184.0</ele><time>2026-05-01T08:54:56.372Z</time></trkpt><trkpt lat="45.5432045" lon="10.8850905"><ele>184.5</ele><time>2026-05-01T08:54:57.372Z</time></trkpt><trkpt lat="45.5431949" lon="10.8849425"><ele>185.0</ele><time>2026-05-01T08:54:58.372Z</time></trkpt><trkpt lat="45.5431883" lon="10.8848005"><ele>185.33333333333331</ele><time>2026-05-01T08:54:59.372Z</time></trkpt><trkpt lat="45.5431802" lon="10.8846704"><ele>185.66666666666666</ele><time>2026-05-01T08:55:00.372Z</time></trkpt><trkpt lat="45.5431711" lon="10.8845471"><ele>186.0</ele><time>2026-05-01T08:55:01.372Z</time></trkpt><trkpt lat="45.5431725" lon="10.8844384"><ele>186.33333333333334</ele><time>2026-05-01T08:55:02.371Z</time></trkpt><trkpt lat="45.54317" lon="10.8843327"><ele>186.66666666666669</ele><time>2026-05-01T08:55:03.372Z</time></trkpt><trkpt lat="45.5431606" lon="10.8842359"><ele>187.0</ele><time>2026-05-01T08:55:04.372Z</time></trkpt><trkpt lat="45.5431593" lon="10.8841338"><ele>187.5</ele><time>2026-05-01T08:55:05.372Z</time></trkpt><trkpt lat="45.5431639" lon="10.8840306"><ele>188.0</ele><time>2026-05-01T08:55:06.372Z</time></trkpt><trkpt lat="45.5431726" lon="10.883927"><ele>188.5</ele><time>2026-05-01T08:55:07.371Z</time></trkpt><trkpt lat="45.5431772" lon="10.8838264"><ele>189.0</ele><time>2026-05-01T08:55:08.372Z</time></trkpt><trkpt lat="45.5431816" lon="10.8837173"><ele>189.5</ele><time>2026-05-01T08:55:09.371Z</time></trkpt><trkpt lat="45.543186" lon="10.8835929"><ele>190.0</ele><time>2026-05-01T08:55:10.372Z</time></trkpt><trkpt lat="45.5431886" lon="10.8834601"><ele>190.8</ele><time>2026-05-01T08:55:11.372Z</time></trkpt><trkpt lat="45.5431959" lon="10.8833265"><ele>191.6</ele><time>2026-05-01T08:55:12.372Z</time></trkpt><trkpt lat="45.5431996" lon="10.8831938"><ele>192.39999999999998</ele><time>2026-05-01T08:55:13.372Z</time></trkpt><trkpt lat="45.5432028" lon="10.8830606"><ele>193.2</ele><time>2026-05-01T08:55:14.372Z</time></trkpt><trkpt lat="45.5431936" lon="10.8829313"><ele>194.0</ele><time>2026-05-01T08:55:15.371Z</time></trkpt><trkpt lat="45.5431922" lon="10.8828018"><ele>194.00000000000003</ele><time>2026-05-01T08:55:16.372Z</time></trkpt><trkpt lat="45.5431791" lon="10.8826734"><ele>194.0</ele><time>2026-05-01T08:55:17.372Z</time></trkpt><trkpt lat="45.5431724" lon="10.8825506"><ele>194.0</ele><time>2026-05-01T08:55:18.372Z</time></trkpt><trkpt lat="45.5431734" lon="10.8824349"><ele>194.0</ele><time>2026-05-01T08:55:19.371Z</time></trkpt><trkpt lat="45.5431796" lon="10.8823246"><ele>194.00000000000003</ele><time>2026-05-01T08:55:20.372Z</time></trkpt><trkpt lat="45.5431679" lon="10.8822346"><ele>194.0</ele><time>2026-05-01T08:55:21.372Z</time></trkpt><trkpt lat="45.5431583" lon="10.8821377"><ele>194.0</ele><time>2026-05-01T08:55:22.372Z</time></trkpt><trkpt lat="45.5431131" lon="10.8820492"><ele>194.0</ele><time>2026-05-01T08:55:23.372Z</time></trkpt><trkpt lat="45.5430386" lon="10.881966"><ele>194.0</ele><time>2026-05-01T08:55:24.372Z</time></trkpt><trkpt lat="45.5429376" lon="10.8819061"><ele>194.0</ele><time>2026-05-01T08:55:25.372Z</time></trkpt><trkpt lat="45.5428481" lon="10.8818408"><ele>194.0</ele><time>2026-05-01T08:55:26.371Z</time></trkpt><trkpt lat="45.542763" lon="10.8817692"><ele>194.79999999999998</ele><time>2026-05-01T08:55:27.371Z</time></trkpt><trkpt lat="45.5426805" lon="10.8817019"><ele>195.6</ele><time>2026-05-01T08:55:28.372Z</time></trkpt><trkpt lat="45.5425973" lon="10.8816337"><ele>196.4</ele><time>2026-05-01T08:55:29.372Z</time></trkpt><trkpt lat="45.5425243" lon="10.8815642"><ele>197.2</ele><time>2026-05-01T08:55:30.372Z</time></trkpt><trkpt lat="45.5424541" lon="10.8814917"><ele>198.0</ele><time>2026-05-01T08:55:31.372Z</time></trkpt><trkpt lat="45.5423802" lon="10.8814156"><ele>198.0</ele><time>2026-05-01T08:55:32.372Z</time></trkpt><trkpt lat="45.5423052" lon="10.8813342"><ele>198.0</ele><time>2026-05-01T08:55:33.372Z</time></trkpt><trkpt lat="45.5422333" lon="10.8812585"><ele>198.0</ele><time>2026-05-01T08:55:34.372Z</time></trkpt><trkpt lat="45.5421646" lon="10.8811897"><ele>198.0</ele><time>2026-05-01T08:55:35.372Z</time></trkpt><trkpt lat="45.5420915" lon="10.8811229"><ele>198.0</ele><time>2026-05-01T08:55:36.372Z</time></trkpt><trkpt lat="45.5420214" lon="10.8810534"><ele>198.0</ele><time>2026-05-01T08:55:37.371Z</time></trkpt><trkpt lat="45.5419513" lon="10.8809852"><ele>197.5</ele><time>2026-05-01T08:55:38.372Z</time></trkpt><trkpt lat="45.541883" lon="10.8809182"><ele>197.0</ele><time>2026-05-01T08:55:39.372Z</time></trkpt><trkpt lat="45.5418175" lon="10.8808533"><ele>196.5</ele><time>2026-05-01T08:55:40.371Z</time></trkpt><trkpt lat="45.5417548" lon="10.8807885"><ele>196.0</ele><time>2026-05-01T08:55:41.372Z</time></trkpt><trkpt lat="45.5416885" lon="10.8807251"><ele>195.5</ele><time>2026-05-01T08:55:42.372Z</time></trkpt><trkpt lat="45.541623" lon="10.8806587"><ele>195.0</ele><time>2026-05-01T08:55:43.371Z</time></trkpt><trkpt lat="45.5415673" lon="10.8806076"><ele>195.0</ele><time>2026-05-01T08:55:44.371Z</time></trkpt><trkpt lat="45.5414954" lon="10.8805301"><ele>195.0</ele><time>2026-05-01T08:55:46.372Z</time></trkpt><trkpt lat="45.5414374" lon="10.8804427"><ele>195.0</ele><time>2026-05-01T08:56:08.372Z</time></trkpt><trkpt lat="45.5413756" lon="10.8803958"><ele>195.0</ele><time>2026-05-01T08:56:09.372Z</time></trkpt><trkpt lat="45.5412979" lon="10.8803462"><ele>195.0</ele><time>2026-05-01T08:56:10.372Z</time></trkpt><trkpt lat="45.5412108" lon="10.8802897"><ele>195.0</ele><time>2026-05-01T08:56:11.372Z</time></trkpt><trkpt lat="45.5411132" lon="10.8802271"><ele>194.8</ele><time>2026-05-01T08:56:12.372Z</time></trkpt><trkpt lat="45.5410166" lon="10.8801632"><ele>194.6</ele><time>2026-05-01T08:56:13.372Z</time></trkpt><trkpt lat="45.5409224" lon="10.8800977"><ele>194.39999999999998</ele><time>2026-05-01T08:56:14.372Z</time></trkpt><trkpt lat="45.5408193" lon="10.8800333"><ele>194.2</ele><time>2026-05-01T08:56:15.372Z</time></trkpt><trkpt lat="45.5407225" lon="10.8799652"><ele>194.0</ele><time>2026-05-01T08:56:16.372Z</time></trkpt><trkpt lat="45.5406313" lon="10.8798977"><ele>194.0</ele><time>2026-05-01T08:56:17.372Z</time></trkpt><trkpt lat="45.5405404" lon="10.8798366"><ele>194.0</ele><time>2026-05-01T08:56:18.372Z</time></trkpt><trkpt lat="45.5404535" lon="10.8797799"><ele>194.0</ele><time>2026-05-01T08:56:19.372Z</time></trkpt><trkpt lat="45.5403758" lon="10.8797268"><ele>194.0</ele><time>2026-05-01T08:56:20.372Z</time></trkpt><trkpt lat="45.5402999" lon="10.8796811"><ele>194.0</ele><time>2026-05-01T08:56:21.372Z</time></trkpt><trkpt lat="45.5402222" lon="10.8796302"><ele>193.66666666666669</ele><time>2026-05-01T08:56:22.372Z</time></trkpt><trkpt lat="45.5401436" lon="10.8795711"><ele>193.33333333333334</ele><time>2026-05-01T08:56:23.372Z</time></trkpt><trkpt lat="45.5400723" lon="10.8795017"><ele>193.0</ele><time>2026-05-01T08:56:24.372Z</time></trkpt><trkpt lat="45.5399984" lon="10.8794366"><ele>192.66666666666669</ele><time>2026-05-01T08:56:25.372Z</time></trkpt><trkpt lat="45.5399328" lon="10.8793705"><ele>192.33333333333334</ele><time>2026-05-01T08:56:26.372Z</time></trkpt><trkpt lat="45.5398702" lon="10.8792953"><ele>192.0</ele><time>2026-05-01T08:56:27.372Z</time></trkpt><trkpt lat="45.5398242" lon="10.8791986"><ele>192.0</ele><time>2026-05-01T08:56:28.372Z</time></trkpt><trkpt lat="45.5397971" lon="10.8790813"><ele>192.0</ele><time>2026-05-01T08:56:29.372Z</time></trkpt><trkpt lat="45.5397899" lon="10.8789579"><ele>192.0</ele><time>2026-05-01T08:56:30.372Z</time></trkpt><trkpt lat="45.5397959" lon="10.8788222"><ele>192.0</ele><time>2026-05-01T08:56:31.372Z</time></trkpt><trkpt lat="45.5398162" lon="10.8786602"><ele>192.0</ele><time>2026-05-01T08:56:32.372Z</time></trkpt><trkpt lat="45.5398403" lon="10.8784918"><ele>192.6</ele><time>2026-05-01T08:56:33.372Z</time></trkpt><trkpt lat="45.5398664" lon="10.8783322"><ele>193.2</ele><time>2026-05-01T08:56:34.371Z</time></trkpt><trkpt lat="45.5398947" lon="10.8781911"><ele>193.8</ele><time>2026-05-01T08:56:35.371Z</time></trkpt><trkpt lat="45.5399113" lon="10.8780406"><ele>194.4</ele><time>2026-05-01T08:56:36.371Z</time></trkpt><trkpt lat="45.5399034" lon="10.8778867"><ele>195.0</ele><time>2026-05-01T08:56:37.372Z</time></trkpt><trkpt lat="45.5398793" lon="10.8777298"><ele>195.2</ele><time>2026-05-01T08:56:38.372Z</time></trkpt><trkpt lat="45.5398729" lon="10.8775762"><ele>195.4</ele><time>2026-05-01T08:56:39.372Z</time></trkpt><trkpt lat="45.5398922" lon="10.877429"><ele>195.60000000000002</ele><time>2026-05-01T08:56:40.372Z</time></trkpt><trkpt lat="45.5399457" lon="10.8772938"><ele>195.8</ele><time>2026-05-01T08:56:41.371Z</time></trkpt><trkpt lat="45.5400215" lon="10.8771732"><ele>196.0</ele><time>2026-05-01T08:56:42.372Z</time></trkpt><trkpt lat="45.54012" lon="10.8770602"><ele>196.0</ele><time>2026-05-01T08:56:43.372Z</time></trkpt><trkpt lat="45.5402142" lon="10.8769344"><ele>196.0</ele><time>2026-05-01T08:56:44.372Z</time></trkpt><trkpt lat="45.5403144" lon="10.8768058"><ele>196.0</ele><time>2026-05-01T08:56:45.372Z</time></trkpt><trkpt lat="45.5404238" lon="10.8766705"><ele>196.0</ele><time>2026-05-01T08:56:46.372Z</time></trkpt><trkpt lat="45.5405341" lon="10.8765144"><ele>199.5</ele><time>2026-05-01T08:56:47.371Z</time></trkpt><trkpt lat="45.540637" lon="10.8763511"><ele>203.0</ele><time>2026-05-01T08:56:48.372Z</time></trkpt><trkpt lat="45.5407262" lon="10.876181"><ele>206.5</ele><time>2026-05-01T08:56:49.371Z</time></trkpt><trkpt lat="45.5408044" lon="10.876014"><ele>210.0</ele><time>2026-05-01T08:56:50.372Z</time></trkpt><trkpt lat="45.5408504" lon="10.8758385"><ele>210.0</ele><time>2026-05-01T08:56:51.371Z</time></trkpt><trkpt lat="45.5408426" lon="10.8756574"><ele>210.0</ele><time>2026-05-01T08:56:52.372Z</time></trkpt><trkpt lat="45.5407858" lon="10.8754892"><ele>210.0</ele><time>2026-05-01T08:56:53.372Z</time></trkpt><trkpt lat="45.54069" lon="10.8753322"><ele>210.0</ele><time>2026-05-01T08:56:54.372Z</time></trkpt><trkpt lat="45.5405657" lon="10.875189"><ele>210.33333333333331</ele><time>2026-05-01T08:56:55.371Z</time></trkpt><trkpt lat="45.5404333" lon="10.8750409"><ele>210.66666666666666</ele><time>2026-05-01T08:56:56.372Z</time></trkpt><trkpt lat="45.5402878" lon="10.8749144"><ele>211.0</ele><time>2026-05-01T08:56:57.372Z</time></trkpt><trkpt lat="45.5401335" lon="10.8747954"><ele>209.0</ele><time>2026-05-01T08:56:58.372Z</time></trkpt><trkpt lat="45.5399762" lon="10.8746664"><ele>207.0</ele><time>2026-05-01T08:56:59.372Z</time></trkpt><trkpt lat="45.5398226" lon="10.8745274"><ele>205.0</ele><time>2026-05-01T08:57:00.372Z</time></trkpt><trkpt lat="45.5396745" lon="10.8743846"><ele>206.0</ele><time>2026-05-01T08:57:01.372Z</time></trkpt><trkpt lat="45.5395371" lon="10.8742485"><ele>207.0</ele><time>2026-05-01T08:57:02.372Z</time></trkpt><trkpt lat="45.5394163" lon="10.8741252"><ele>208.0</ele><time>2026-05-01T08:57:03.372Z</time></trkpt><trkpt lat="45.5393178" lon="10.87402"><ele>209.0</ele><time>2026-05-01T08:57:04.372Z</time></trkpt><trkpt lat="45.5392454" lon="10.873925"><ele>209.0</ele><time>2026-05-01T08:57:05.372Z</time></trkpt><trkpt lat="45.5392056" lon="10.8738245"><ele>209.0</ele><time>2026-05-01T08:57:06.372Z</time></trkpt><trkpt lat="45.5392185" lon="10.8737285"><ele>209.0</ele><time>2026-05-01T08:57:07.372Z</time></trkpt><trkpt lat="45.539284" lon="10.8736827"><ele>209.0</ele><time>2026-05-01T08:57:08.372Z</time></trkpt><trkpt lat="45.5393914" lon="10.8736761"><ele>209.0</ele><time>2026-05-01T08:57:09.372Z</time></trkpt><trkpt lat="45.5395226" lon="10.8737018"><ele>211.66666666666669</ele><time>2026-05-01T08:57:10.372Z</time></trkpt><trkpt lat="45.5396772" lon="10.8737406"><ele>214.33333333333331</ele><time>2026-05-01T08:57:11.372Z</time></trkpt><trkpt lat="45.5398374" lon="10.8737778"><ele>217.0</ele><time>2026-05-01T08:57:12.372Z</time></trkpt><trkpt lat="45.5400105" lon="10.8738141"><ele>217.0</ele><time>2026-05-01T08:57:13.372Z</time></trkpt><trkpt lat="45.5402067" lon="10.8738444"><ele>217.0</ele><time>2026-05-01T08:57:14.372Z</time></trkpt><trkpt lat="45.5404181" lon="10.8738842"><ele>217.0</ele><time>2026-05-01T08:57:15.372Z</time></trkpt><trkpt lat="45.5406392" lon="10.8739296"><ele>220.0</ele><time>2026-05-01T08:57:16.371Z</time></trkpt><trkpt lat="45.5408595" lon="10.8739682"><ele>223.0</ele><time>2026-05-01T08:57:17.372Z</time></trkpt><trkpt lat="45.5410698" lon="10.8739915"><ele>226.0</ele><time>2026-05-01T08:57:18.372Z</time></trkpt><trkpt lat="45.541275" lon="10.8739862"><ele>226.66666666666666</ele><time>2026-05-01T08:57:19.372Z</time></trkpt><trkpt lat="45.5414742" lon="10.8739517"><ele>227.33333333333331</ele><time>2026-05-01T08:57:20.372Z</time></trkpt><trkpt lat="45.5416807" lon="10.8738988"><ele>228.0</ele><time>2026-05-01T08:57:21.372Z</time></trkpt><trkpt lat="45.5418769" lon="10.8738379"><ele>230.66666666666669</ele><time>2026-05-01T08:57:22.372Z</time></trkpt><trkpt lat="45.5420613" lon="10.8737822"><ele>233.33333333333334</ele><time>2026-05-01T08:57:23.372Z</time></trkpt><trkpt lat="45.542227" lon="10.8737333"><ele>236.0</ele><time>2026-05-01T08:57:24.372Z</time></trkpt><trkpt lat="45.5423768" lon="10.8736989"><ele>236.0</ele><time>2026-05-01T08:57:25.372Z</time></trkpt><trkpt lat="45.5425056" lon="10.8736757"><ele>236.00000000000003</ele><time>2026-05-01T08:57:26.372Z</time></trkpt><trkpt lat="45.5426122" lon="10.8736493"><ele>236.00000000000003</ele><time>2026-05-01T08:57:27.372Z</time></trkpt><trkpt lat="45.5426904" lon="10.873594"><ele>236.0</ele><time>2026-05-01T08:57:28.372Z</time></trkpt><trkpt lat="45.542725" lon="10.8735051"><ele>236.0</ele><time>2026-05-01T08:57:29.372Z</time></trkpt><trkpt lat="45.5427161" lon="10.8734012"><ele>239.0</ele><time>2026-05-01T08:57:30.372Z</time></trkpt><trkpt lat="45.5426694" lon="10.8733235"><ele>242.0</ele><time>2026-05-01T08:57:31.372Z</time></trkpt><trkpt lat="45.5425862" lon="10.8732947"><ele>245.0</ele><time>2026-05-01T08:57:32.372Z</time></trkpt><trkpt lat="45.5424536" lon="10.8733166"><ele>248.0</ele><time>2026-05-01T08:57:33.371Z</time></trkpt><trkpt lat="45.5422723" lon="10.8733443"><ele>248.0</ele><time>2026-05-01T08:57:34.372Z</time></trkpt><trkpt lat="45.5420705" lon="10.873325"><ele>248.0</ele><time>2026-05-01T08:57:35.371Z</time></trkpt><trkpt lat="45.5418803" lon="10.8732479"><ele>248.0</ele><time>2026-05-01T08:57:36.372Z</time></trkpt><trkpt lat="45.5416824" lon="10.8731427"><ele>248.0</ele><time>2026-05-01T08:57:37.372Z</time></trkpt><trkpt lat="45.5414718" lon="10.8730298"><ele>248.0</ele><time>2026-05-01T08:57:38.372Z</time></trkpt><trkpt lat="45.5412623" lon="10.8729153"><ele>248.0</ele><time>2026-05-01T08:57:39.372Z</time></trkpt><trkpt lat="45.5410668" lon="10.8728065"><ele>246.0</ele><time>2026-05-01T08:57:40.371Z</time></trkpt><trkpt lat="45.5408901" lon="10.8727005"><ele>244.0</ele><time>2026-05-01T08:57:41.372Z</time></trkpt><trkpt lat="45.5407345" lon="10.8726083"><ele>242.0</ele><time>2026-05-01T08:57:42.372Z</time></trkpt><trkpt lat="45.5405961" lon="10.8725315"><ele>243.16666666666669</ele><time>2026-05-01T08:57:43.372Z</time></trkpt><trkpt lat="45.5404773" lon="10.8724501"><ele>244.33333333333334</ele><time>2026-05-01T08:57:44.372Z</time></trkpt><trkpt lat="45.5403924" lon="10.872357"><ele>245.5</ele><time>2026-05-01T08:57:45.372Z</time></trkpt><trkpt lat="45.5403699" lon="10.8722501"><ele>246.66666666666669</ele><time>2026-05-01T08:57:46.371Z</time></trkpt><trkpt lat="45.54039" lon="10.8721606"><ele>247.83333333333334</ele><time>2026-05-01T08:57:47.372Z</time></trkpt><trkpt lat="45.5404496" lon="10.8721188"><ele>249.0</ele><time>2026-05-01T08:57:48.372Z</time></trkpt><trkpt lat="45.5405456" lon="10.8721281"><ele>252.0</ele><time>2026-05-01T08:57:49.371Z</time></trkpt><trkpt lat="45.5406712" lon="10.8721724"><ele>255.0</ele><time>2026-05-01T08:57:50.372Z</time></trkpt><trkpt lat="45.5408254" lon="10.8722411"><ele>258.0</ele><time>2026-05-01T08:57:51.371Z</time></trkpt><trkpt lat="45.5409823" lon="10.8723125"><ele>258.0</ele><time>2026-05-01T08:57:52.371Z</time></trkpt><trkpt lat="45.5411507" lon="10.8723687"><ele>258.0</ele><time>2026-05-01T08:57:53.371Z</time></trkpt><trkpt lat="45.5413267" lon="10.8723926"><ele>258.0</ele><time>2026-05-01T08:57:54.371Z</time></trkpt><trkpt lat="45.5415153" lon="10.8723693"><ele>261.0</ele><time>2026-05-01T08:57:55.371Z</time></trkpt><trkpt lat="45.5417189" lon="10.8723169"><ele>264.0</ele><time>2026-05-01T08:57:56.371Z</time></trkpt><trkpt lat="45.5419326" lon="10.8722516"><ele>267.0</ele><time>2026-05-01T08:57:57.371Z</time></trkpt><trkpt lat="45.5421567" lon="10.8721674"><ele>267.5</ele><time>2026-05-01T08:57:58.371Z</time></trkpt><trkpt lat="45.5423806" lon="10.8720465"><ele>268.0</ele><time>2026-05-01T08:57:59.371Z</time></trkpt><trkpt lat="45.5425977" lon="10.8719599"><ele>268.0</ele><time>2026-05-01T08:58:00.371Z</time></trkpt><trkpt lat="45.5427929" lon="10.8719015"><ele>268.0</ele><time>2026-05-01T08:58:01.37Z</time></trkpt><trkpt lat="45.5429553" lon="10.8718783"><ele>268.0</ele><time>2026-05-01T08:58:02.371Z</time></trkpt><trkpt lat="45.5430814" lon="10.8718894"><ele>267.5</ele><time>2026-05-01T08:58:03.371Z</time></trkpt><trkpt lat="45.5431816" lon="10.8719001"><ele>267.0</ele><time>2026-05-01T08:58:04.371Z</time></trkpt><trkpt lat="45.5432517" lon="10.8718793"><ele>266.5</ele><time>2026-05-01T08:58:05.371Z</time></trkpt><trkpt lat="45.5433079" lon="10.8718224"><ele>266.0</ele><time>2026-05-01T08:58:06.371Z</time></trkpt><trkpt lat="45.5432985" lon="10.8716886"><ele>265.5</ele><time>2026-05-01T08:58:08.37Z</time></trkpt><trkpt lat="45.5432183" lon="10.8716374"><ele>265.0</ele><time>2026-05-01T08:58:09.371Z</time></trkpt><trkpt lat="45.5430881" lon="10.871607"><ele>273.0</ele><time>2026-05-01T08:58:10.371Z</time></trkpt><trkpt lat="45.5429033" lon="10.8715851"><ele>281.0</ele><time>2026-05-01T08:58:11.37Z</time></trkpt><trkpt lat="45.5426867" lon="10.8715745"><ele>289.0</ele><time>2026-05-01T08:58:12.371Z</time></trkpt><trkpt lat="45.5424958" lon="10.8715705"><ele>289.3333333333333</ele><time>2026-05-01T08:58:13.371Z</time></trkpt><trkpt lat="45.5423225" lon="10.8715563"><ele>289.6666666666667</ele><time>2026-05-01T08:58:14.371Z</time></trkpt><trkpt lat="45.542133" lon="10.8715315"><ele>290.0</ele><time>2026-05-01T08:58:15.371Z</time></trkpt><trkpt lat="45.5419391" lon="10.8714891"><ele>289.33333333333337</ele><time>2026-05-01T08:58:16.371Z</time></trkpt><trkpt lat="45.5417467" lon="10.871426"><ele>288.6666666666667</ele><time>2026-05-01T08:58:17.37Z</time></trkpt><trkpt lat="45.5415773" lon="10.871353"><ele>288.0</ele><time>2026-05-01T08:58:18.371Z</time></trkpt><trkpt lat="45.5414357" lon="10.8712859"><ele>288.0</ele><time>2026-05-01T08:58:19.37Z</time></trkpt><trkpt lat="45.5413267" lon="10.871233"><ele>288.0</ele><time>2026-05-01T08:58:20.371Z</time></trkpt><trkpt lat="45.5412605" lon="10.8711605"><ele>288.0</ele><time>2026-05-01T08:58:21.37Z</time></trkpt><trkpt lat="45.5412382" lon="10.8710713"><ele>288.0</ele><time>2026-05-01T08:58:22.37Z</time></trkpt><trkpt lat="45.541329" lon="10.8709643"><ele>288.0</ele><time>2026-05-01T08:58:24.371Z</time></trkpt><trkpt lat="45.5414353" lon="10.870998"><ele>288.0</ele><time>2026-05-01T08:58:25.371Z</time></trkpt><trkpt lat="45.5415635" lon="10.8710813"><ele>288.0</ele><time>2026-05-01T08:58:26.371Z</time></trkpt><trkpt lat="45.5417258" lon="10.871158"><ele>288.0</ele><time>2026-05-01T08:58:27.371Z</time></trkpt><trkpt lat="45.5419143" lon="10.8711834"><ele>288.6666666666667</ele><time>2026-05-01T08:58:28.371Z</time></trkpt><trkpt lat="45.5421275" lon="10.8711508"><ele>289.33333333333337</ele><time>2026-05-01T08:58:29.37Z</time></trkpt><trkpt lat="45.5423578" lon="10.8710913"><ele>290.0</ele><time>2026-05-01T08:58:30.371Z</time></trkpt><trkpt lat="45.5425919" lon="10.8710254"><ele>290.0</ele><time>2026-05-01T08:58:31.371Z</time></trkpt><trkpt lat="45.5427861" lon="10.8709778"><ele>290.0</ele><time>2026-05-01T08:58:32.371Z</time></trkpt><trkpt lat="45.5429553" lon="10.8709381"><ele>290.0</ele><time>2026-05-01T08:58:33.371Z</time></trkpt><trkpt lat="45.5431005" lon="10.8709109"><ele>294.8</ele><time>2026-05-01T08:58:34.371Z</time></trkpt><trkpt lat="45.5432218" lon="10.8708906"><ele>299.6</ele><time>2026-05-01T08:58:35.371Z</time></trkpt><trkpt lat="45.5433238" lon="10.8708612"><ele>304.4</ele><time>2026-05-01T08:58:36.37Z</time></trkpt><trkpt lat="45.5434033" lon="10.8708014"><ele>309.2</ele><time>2026-05-01T08:58:37.371Z</time></trkpt><trkpt lat="45.5434499" lon="10.8707226"><ele>314.0</ele><time>2026-05-01T08:58:38.371Z</time></trkpt><trkpt lat="45.5434538" lon="10.8705785"><ele>314.0</ele><time>2026-05-01T08:58:40.371Z</time></trkpt><trkpt lat="45.5433992" lon="10.8705288"><ele>314.0</ele><time>2026-05-01T08:58:41.371Z</time></trkpt><trkpt lat="45.5432903" lon="10.8705012"><ele>314.0</ele><time>2026-05-01T08:58:42.371Z</time></trkpt><trkpt lat="45.5431074" lon="10.8704951"><ele>314.0</ele><time>2026-05-01T08:58:43.37Z</time></trkpt><trkpt lat="45.5429071" lon="10.8704882"><ele>314.0</ele><time>2026-05-01T08:58:44.371Z</time></trkpt><trkpt lat="45.5427321" lon="10.8704685"><ele>314.0</ele><time>2026-05-01T08:58:45.371Z</time></trkpt><trkpt lat="45.5425653" lon="10.8704386"><ele>314.0</ele><time>2026-05-01T08:58:46.371Z</time></trkpt><trkpt lat="45.5424067" lon="10.8703836"><ele>314.0</ele><time>2026-05-01T08:58:47.371Z</time></trkpt><trkpt lat="45.5422562" lon="10.8703054"><ele>314.0</ele><time>2026-05-01T08:58:48.37Z</time></trkpt><trkpt lat="45.5421056" lon="10.8702165"><ele>314.0</ele><time>2026-05-01T08:58:49.37Z</time></trkpt><trkpt lat="45.5419665" lon="10.8701078"><ele>317.25</ele><time>2026-05-01T08:58:50.371Z</time></trkpt><trkpt lat="45.5418424" lon="10.8699897"><ele>320.5</ele><time>2026-05-01T08:58:51.371Z</time></trkpt><trkpt lat="45.5417383" lon="10.8698711"><ele>323.75</ele><time>2026-05-01T08:58:52.371Z</time></trkpt><trkpt lat="45.5416457" lon="10.8697633"><ele>327.0</ele><time>2026-05-01T08:58:53.37Z</time></trkpt><trkpt lat="45.541561" lon="10.8696734"><ele>327.0</ele><time>2026-05-01T08:58:54.371Z</time></trkpt><trkpt lat="45.5414854" lon="10.8695996"><ele>327.0</ele><time>2026-05-01T08:58:55.371Z</time></trkpt><trkpt lat="45.541417" lon="10.8695444"><ele>327.0</ele><time>2026-05-01T08:58:56.37Z</time></trkpt><trkpt lat="45.5413108" lon="10.8694769"><ele>327.0</ele><time>2026-05-01T08:58:58.371Z</time></trkpt><trkpt lat="45.5412287" lon="10.8693899"><ele>327.0</ele><time>2026-05-01T08:59:00.371Z</time></trkpt><trkpt lat="45.5412438" lon="10.8692707"><ele>327.0</ele><time>2026-05-01T08:59:02.371Z</time></trkpt><trkpt lat="45.5413676" lon="10.8692752"><ele>327.0</ele><time>2026-05-01T08:59:04.371Z</time></trkpt><trkpt lat="45.5414472" lon="10.8693529"><ele>327.0</ele><time>2026-05-01T08:59:05.37Z</time></trkpt><trkpt lat="45.5415295" lon="10.8694493"><ele>327.0</ele><time>2026-05-01T08:59:06.371Z</time></trkpt><trkpt lat="45.5416359" lon="10.8695548"><ele>327.0</ele><time>2026-05-01T08:59:07.371Z</time></trkpt><trkpt lat="45.5417545" lon="10.8696542"><ele>327.0</ele><time>2026-05-01T08:59:08.371Z</time></trkpt><trkpt lat="45.5418845" lon="10.8697358"><ele>327.0</ele><time>2026-05-01T08:59:09.37Z</time></trkpt><trkpt lat="45.5420253" lon="10.8697912"><ele>327.0</ele><time>2026-05-01T08:59:10.371Z</time></trkpt><trkpt lat="45.5421711" lon="10.8698183"><ele>330.0</ele><time>2026-05-01T08:59:11.371Z</time></trkpt><trkpt lat="45.5423154" lon="10.8698277"><ele>333.0</ele><time>2026-05-01T08:59:12.371Z</time></trkpt><trkpt lat="45.5424534" lon="10.8698235"><ele>336.0</ele><time>2026-05-01T08:59:13.371Z</time></trkpt><trkpt lat="45.5425931" lon="10.8698195"><ele>339.0</ele><time>2026-05-01T08:59:14.371Z</time></trkpt><trkpt lat="45.5427367" lon="10.8698089"><ele>339.0</ele><time>2026-05-01T08:59:15.371Z</time></trkpt><trkpt lat="45.5428795" lon="10.8697827"><ele>339.0</ele><time>2026-05-01T08:59:16.371Z</time></trkpt><trkpt lat="45.5430172" lon="10.8697426"><ele>339.0</ele><time>2026-05-01T08:59:17.371Z</time></trkpt><trkpt lat="45.5431519" lon="10.8696969"><ele>339.0</ele><time>2026-05-01T08:59:18.371Z</time></trkpt><trkpt lat="45.5432777" lon="10.8696515"><ele>338.79999999999995</ele><time>2026-05-01T08:59:19.37Z</time></trkpt><trkpt lat="45.5433953" lon="10.8696079"><ele>338.59999999999997</ele><time>2026-05-01T08:59:20.371Z</time></trkpt><trkpt lat="45.5434947" lon="10.8695494"><ele>338.4</ele><time>2026-05-01T08:59:21.371Z</time></trkpt><trkpt lat="45.5435875" lon="10.8694714"><ele>338.2</ele><time>2026-05-01T08:59:22.371Z</time></trkpt><trkpt lat="45.5436758" lon="10.8693767"><ele>338.0</ele><time>2026-05-01T08:59:23.371Z</time></trkpt><trkpt lat="45.543762" lon="10.8692855"><ele>341.75</ele><time>2026-05-01T08:59:24.371Z</time></trkpt><trkpt lat="45.5438533" lon="10.8691929"><ele>345.5</ele><time>2026-05-01T08:59:25.37Z</time></trkpt><trkpt lat="45.5439478" lon="10.8691083"><ele>349.25</ele><time>2026-05-01T08:59:26.371Z</time></trkpt><trkpt lat="45.5440388" lon="10.8690198"><ele>353.0</ele><time>2026-05-01T08:59:27.371Z</time></trkpt><trkpt lat="45.5441501" lon="10.8689417"><ele>353.0</ele><time>2026-05-01T08:59:28.371Z</time></trkpt><trkpt lat="45.5442849" lon="10.8688669"><ele>353.0</ele><time>2026-05-01T08:59:29.371Z</time></trkpt><trkpt lat="45.5444543" lon="10.8687908"><ele>353.0</ele><time>2026-05-01T08:59:30.371Z</time></trkpt><trkpt lat="45.5446433" lon="10.868718"><ele>355.33333333333337</ele><time>2026-05-01T08:59:31.371Z</time></trkpt><trkpt lat="45.5448184" lon="10.8686655"><ele>357.6666666666667</ele><time>2026-05-01T08:59:32.37Z</time></trkpt><trkpt lat="45.544971" lon="10.8686429"><ele>360.0</ele><time>2026-05-01T08:59:33.371Z</time></trkpt><trkpt lat="45.5451122" lon="10.8686411"><ele>360.0</ele><time>2026-05-01T08:59:34.371Z</time></trkpt><trkpt lat="45.5452286" lon="10.8686891"><ele>360.0</ele><time>2026-05-01T08:59:35.371Z</time></trkpt><trkpt lat="45.5453003" lon="10.8687834"><ele>360.0</ele><time>2026-05-01T08:59:36.37Z</time></trkpt><trkpt lat="45.5453256" lon="10.8689177"><ele>360.0</ele><time>2026-05-01T08:59:37.371Z</time></trkpt><trkpt lat="45.5453448" lon="10.869052"><ele>360.0</ele><time>2026-05-01T08:59:38.37Z</time></trkpt><trkpt lat="45.5453772" lon="10.8691658"><ele>360.6</ele><time>2026-05-01T08:59:39.37Z</time></trkpt><trkpt lat="45.5454246" lon="10.8692657"><ele>361.2</ele><time>2026-05-01T08:59:40.37Z</time></trkpt><trkpt lat="45.545488" lon="10.8693635"><ele>361.79999999999995</ele><time>2026-05-01T08:59:41.371Z</time></trkpt><trkpt lat="45.5455721" lon="10.8694553"><ele>362.4</ele><time>2026-05-01T08:59:42.371Z</time></trkpt><trkpt lat="45.5456713" lon="10.8695312"><ele>363.0</ele><time>2026-05-01T08:59:43.371Z</time></trkpt><trkpt lat="45.5457724" lon="10.8695927"><ele>363.0</ele><time>2026-05-01T08:59:44.371Z</time></trkpt><trkpt lat="45.5458834" lon="10.8696339"><ele>363.0</ele><time>2026-05-01T08:59:45.371Z</time></trkpt><trkpt lat="45.5459973" lon="10.8696541"><ele>363.0</ele><time>2026-05-01T08:59:46.371Z</time></trkpt><trkpt lat="45.5461231" lon="10.869651"><ele>363.0</ele><time>2026-05-01T08:59:47.371Z</time></trkpt><trkpt lat="45.54627" lon="10.8696162"><ele>364.3333333333333</ele><time>2026-05-01T08:59:48.371Z</time></trkpt><trkpt lat="45.5464453" lon="10.8695578"><ele>365.66666666666663</ele><time>2026-05-01T08:59:49.371Z</time></trkpt><trkpt lat="45.5466526" lon="10.8695109"><ele>367.0</ele><time>2026-05-01T08:59:50.371Z</time></trkpt><trkpt lat="45.5468281" lon="10.8694763"><ele>367.0</ele><time>2026-05-01T08:59:51.371Z</time></trkpt><trkpt lat="45.5469563" lon="10.8694513"><ele>367.0</ele><time>2026-05-01T08:59:52.371Z</time></trkpt><trkpt lat="45.5470464" lon="10.869424"><ele>367.0</ele><time>2026-05-01T08:59:53.371Z</time></trkpt><trkpt lat="45.5470998" lon="10.869355"><ele>367.0</ele><time>2026-05-01T08:59:54.371Z</time></trkpt><trkpt lat="45.5470966" lon="10.8691873"><ele>367.0</ele><time>2026-05-01T08:59:56.371Z</time></trkpt><trkpt lat="45.5470239" lon="10.8691401"><ele>372.5</ele><time>2026-05-01T08:59:57.371Z</time></trkpt><trkpt lat="45.5469372" lon="10.869147"><ele>378.0</ele><time>2026-05-01T08:59:58.37Z</time></trkpt><trkpt lat="45.5467973" lon="10.8691852"><ele>383.5</ele><time>2026-05-01T08:59:59.371Z</time></trkpt><trkpt lat="45.5466233" lon="10.8692341"><ele>389.0</ele><time>2026-05-01T09:00:00.371Z</time></trkpt><trkpt lat="45.5464399" lon="10.8692421"><ele>389.0</ele><time>2026-05-01T09:00:01.371Z</time></trkpt><trkpt lat="45.5462636" lon="10.8691962"><ele>389.0</ele><time>2026-05-01T09:00:02.371Z</time></trkpt><trkpt lat="45.5461141" lon="10.8690955"><ele>389.0</ele><time>2026-05-01T09:00:03.371Z</time></trkpt><trkpt lat="45.5459952" lon="10.8689529"><ele>391.3333333333333</ele><time>2026-05-01T09:00:04.371Z</time></trkpt><trkpt lat="45.5459088" lon="10.8687683"><ele>393.66666666666663</ele><time>2026-05-01T09:00:05.371Z</time></trkpt><trkpt lat="45.5458214" lon="10.8685509"><ele>396.0</ele><time>2026-05-01T09:00:06.371Z</time></trkpt><trkpt lat="45.5457104" lon="10.8683346"><ele>396.0</ele><time>2026-05-01T09:00:07.371Z</time></trkpt><trkpt lat="45.5455863" lon="10.8681367"><ele>396.0</ele><time>2026-05-01T09:00:08.371Z</time></trkpt><trkpt lat="45.5454575" lon="10.8679753"><ele>396.0</ele><time>2026-05-01T09:00:09.371Z</time></trkpt><trkpt lat="45.5453183" lon="10.8678582"><ele>391.6666666666667</ele><time>2026-05-01T09:00:10.371Z</time></trkpt><trkpt lat="45.5451584" lon="10.8677987"><ele>387.33333333333337</ele><time>2026-05-01T09:00:11.371Z</time></trkpt><trkpt lat="45.5449694" lon="10.8677847"><ele>383.0</ele><time>2026-05-01T09:00:12.371Z</time></trkpt><trkpt lat="45.5447869" lon="10.8677886"><ele>383.0</ele><time>2026-05-01T09:00:13.371Z</time></trkpt><trkpt lat="45.544623" lon="10.8677994"><ele>383.0</ele><time>2026-05-01T09:00:14.371Z</time></trkpt><trkpt lat="45.5444738" lon="10.8678053"><ele>383.0</ele><time>2026-05-01T09:00:15.371Z</time></trkpt><trkpt lat="45.5443205" lon="10.8678113"><ele>381.6666666666667</ele><time>2026-05-01T09:00:16.371Z</time></trkpt><trkpt lat="45.5441688" lon="10.8678009"><ele>380.3333333333333</ele><time>2026-05-01T09:00:17.371Z</time></trkpt><trkpt lat="45.5440164" lon="10.8677591"><ele>379.0</ele><time>2026-05-01T09:00:18.371Z</time></trkpt><trkpt lat="45.5438722" lon="10.8676708"><ele>383.25</ele><time>2026-05-01T09:00:19.371Z</time></trkpt><trkpt lat="45.54374" lon="10.8675869"><ele>387.5</ele><time>2026-05-01T09:00:20.371Z</time></trkpt><trkpt lat="45.5436277" lon="10.8675003"><ele>391.75</ele><time>2026-05-01T09:00:21.371Z</time></trkpt><trkpt lat="45.5435301" lon="10.8674163"><ele>396.0</ele><time>2026-05-01T09:00:22.371Z</time></trkpt><trkpt lat="45.5434433" lon="10.8673259"><ele>396.0</ele><time>2026-05-01T09:00:23.371Z</time></trkpt><trkpt lat="45.5433743" lon="10.8672053"><ele>396.0</ele><time>2026-05-01T09:00:24.371Z</time></trkpt><trkpt lat="45.5433304" lon="10.8670454"><ele>396.0</ele><time>2026-05-01T09:00:25.371Z</time></trkpt><trkpt lat="45.5433017" lon="10.8668279"><ele>396.0</ele><time>2026-05-01T09:00:26.371Z</time></trkpt><trkpt lat="45.5432787" lon="10.8665527"><ele>398.0</ele><time>2026-05-01T09:00:27.371Z</time></trkpt><trkpt lat="45.5432662" lon="10.8662798"><ele>400.0</ele><time>2026-05-01T09:00:28.371Z</time></trkpt><trkpt lat="45.5432614" lon="10.8660475"><ele>402.0</ele><time>2026-05-01T09:00:29.37Z</time></trkpt><trkpt lat="45.5432617" lon="10.8658743"><ele>402.0</ele><time>2026-05-01T09:00:30.415Z</time></trkpt><trkpt lat="45.5433412" lon="10.8656498"><ele>402.0</ele><time>2026-05-01T09:00:31.371Z</time></trkpt><trkpt lat="45.5434322" lon="10.865466"><ele>402.0</ele><time>2026-05-01T09:00:32.371Z</time></trkpt><trkpt lat="45.5435277" lon="10.8652929"><ele>402.0</ele><time>2026-05-01T09:00:33.371Z</time></trkpt><trkpt lat="45.5436149" lon="10.8651274"><ele>402.0</ele><time>2026-05-01T09:00:34.371Z</time></trkpt><trkpt lat="45.5437055" lon="10.8649753"><ele>402.0</ele><time>2026-05-01T09:00:35.371Z</time></trkpt><trkpt lat="45.5438007" lon="10.864848"><ele>402.0</ele><time>2026-05-01T09:00:36.371Z</time></trkpt><trkpt lat="45.5439047" lon="10.8647577"><ele>404.25</ele><time>2026-05-01T09:00:37.37Z</time></trkpt><trkpt lat="45.5440154" lon="10.8646995"><ele>406.5</ele><time>2026-05-01T09:00:38.371Z</time></trkpt><trkpt lat="45.5441294" lon="10.8646796"><ele>408.75</ele><time>2026-05-01T09:00:39.371Z</time></trkpt><trkpt lat="45.5442418" lon="10.8646949"><ele>411.0</ele><time>2026-05-01T09:00:40.371Z</time></trkpt><trkpt lat="45.544355" lon="10.8647238"><ele>411.0</ele><time>2026-05-01T09:00:41.371Z</time></trkpt><trkpt lat="45.5444642" lon="10.8647855"><ele>411.0</ele><time>2026-05-01T09:00:42.371Z</time></trkpt><trkpt lat="45.5445647" lon="10.8648695"><ele>411.0</ele><time>2026-05-01T09:00:43.371Z</time></trkpt><trkpt lat="45.544661" lon="10.8649717"><ele>411.0</ele><time>2026-05-01T09:00:44.371Z</time></trkpt><trkpt lat="45.5447456" lon="10.8650921"><ele>413.75</ele><time>2026-05-01T09:00:45.371Z</time></trkpt><trkpt lat="45.5448237" lon="10.865218"><ele>416.5</ele><time>2026-05-01T09:00:46.37Z</time></trkpt><trkpt lat="45.5448984" lon="10.8653472"><ele>419.25</ele><time>2026-05-01T09:00:47.371Z</time></trkpt><trkpt lat="45.5449716" lon="10.8654659"><ele>422.0</ele><time>2026-05-01T09:00:48.371Z</time></trkpt><trkpt lat="45.545048" lon="10.8655886"><ele>422.0</ele><time>2026-05-01T09:00:49.371Z</time></trkpt><trkpt lat="45.545112" lon="10.8656938"><ele>422.0</ele><time>2026-05-01T09:00:50.42Z</time></trkpt><trkpt lat="45.5452129" lon="10.8658485"><ele>422.0</ele><time>2026-05-01T09:00:51.371Z</time></trkpt><trkpt lat="45.5453099" lon="10.8659746"><ele>422.0</ele><time>2026-05-01T09:00:52.371Z</time></trkpt><trkpt lat="45.5454155" lon="10.8660842"><ele>423.75</ele><time>2026-05-01T09:00:53.371Z</time></trkpt><trkpt lat="45.5455324" lon="10.8661891"><ele>425.5</ele><time>2026-05-01T09:00:54.371Z</time></trkpt><trkpt lat="45.5456577" lon="10.8662803"><ele>427.25</ele><time>2026-05-01T09:00:55.371Z</time></trkpt><trkpt lat="45.5457845" lon="10.8663659"><ele>429.0</ele><time>2026-05-01T09:00:56.371Z</time></trkpt><trkpt lat="45.5459102" lon="10.8664521"><ele>429.0</ele><time>2026-05-01T09:00:57.371Z</time></trkpt><trkpt lat="45.5460289" lon="10.8665395"><ele>429.0</ele><time>2026-05-01T09:00:58.371Z</time></trkpt><trkpt lat="45.5461438" lon="10.8666245"><ele>429.0</ele><time>2026-05-01T09:00:59.371Z</time></trkpt><trkpt lat="45.5462555" lon="10.8667096"><ele>429.0</ele><time>2026-05-01T09:01:00.371Z</time></trkpt><trkpt lat="45.5463714" lon="10.8667913"><ele>428.25</ele><time>2026-05-01T09:01:01.37Z</time></trkpt><trkpt lat="45.5464887" lon="10.8668687"><ele>427.5</ele><time>2026-05-01T09:01:02.371Z</time></trkpt><trkpt lat="45.5466111" lon="10.8669374"><ele>426.75</ele><time>2026-05-01T09:01:03.371Z</time></trkpt><trkpt lat="45.5467388" lon="10.8669973"><ele>426.0</ele><time>2026-05-01T09:01:04.371Z</time></trkpt><trkpt lat="45.5468684" lon="10.8670501"><ele>426.0</ele><time>2026-05-01T09:01:05.37Z</time></trkpt><trkpt lat="45.5469938" lon="10.8671004"><ele>426.0</ele><time>2026-05-01T09:01:06.371Z</time></trkpt><trkpt lat="45.5471078" lon="10.8671485"><ele>426.0</ele><time>2026-05-01T09:01:07.371Z</time></trkpt><trkpt lat="45.5472022" lon="10.8671893"><ele>426.0</ele><time>2026-05-01T09:01:08.371Z</time></trkpt><trkpt lat="45.547283" lon="10.8672236"><ele>426.0</ele><time>2026-05-01T09:01:09.371Z</time></trkpt><trkpt lat="45.5473496" lon="10.8672461"><ele>429.25</ele><time>2026-05-01T09:01:10.371Z</time></trkpt><trkpt lat="45.5474868" lon="10.8672444"><ele>432.5</ele><time>2026-05-01T09:01:12.371Z</time></trkpt><trkpt lat="45.5475737" lon="10.8672084"><ele>435.75</ele><time>2026-05-01T09:01:13.37Z</time></trkpt><trkpt lat="45.5476696" lon="10.8671271"><ele>439.0</ele><time>2026-05-01T09:01:14.371Z</time></trkpt><trkpt lat="45.5477786" lon="10.8670042"><ele>439.6666666666667</ele><time>2026-05-01T09:01:15.371Z</time></trkpt><trkpt lat="45.5478856" lon="10.8668616"><ele>440.33333333333337</ele><time>2026-05-01T09:01:16.371Z</time></trkpt><trkpt lat="45.5480082" lon="10.8667196"><ele>441.0</ele><time>2026-05-01T09:01:17.371Z</time></trkpt><trkpt lat="45.5481412" lon="10.8665848"><ele>443.66666666666663</ele><time>2026-05-01T09:01:18.371Z</time></trkpt><trkpt lat="45.548286" lon="10.8664603"><ele>446.3333333333333</ele><time>2026-05-01T09:01:19.371Z</time></trkpt><trkpt lat="45.5484394" lon="10.866354"><ele>449.0</ele><time>2026-05-01T09:01:20.37Z</time></trkpt><trkpt lat="45.5486049" lon="10.8662585"><ele>447.0</ele><time>2026-05-01T09:01:21.371Z</time></trkpt><trkpt lat="45.5487799" lon="10.8661633"><ele>445.0</ele><time>2026-05-01T09:01:22.37Z</time></trkpt><trkpt lat="45.5489574" lon="10.8660662"><ele>443.0</ele><time>2026-05-01T09:01:23.371Z</time></trkpt><trkpt lat="45.549135" lon="10.8659698"><ele>444.66666666666663</ele><time>2026-05-01T09:01:24.371Z</time></trkpt><trkpt lat="45.5493147" lon="10.8658774"><ele>446.33333333333337</ele><time>2026-05-01T09:01:25.371Z</time></trkpt><trkpt lat="45.5494946" lon="10.8657856"><ele>448.0</ele><time>2026-05-01T09:01:26.37Z</time></trkpt><trkpt lat="45.5496624" lon="10.8656993"><ele>448.0</ele><time>2026-05-01T09:01:27.37Z</time></trkpt><trkpt lat="45.5498277" lon="10.8656185"><ele>448.0</ele><time>2026-05-01T09:01:28.369Z</time></trkpt><trkpt lat="45.5499979" lon="10.8655555"><ele>448.0</ele><time>2026-05-01T09:01:29.37Z</time></trkpt><trkpt lat="45.5501696" lon="10.865535"><ele>448.0</ele><time>2026-05-01T09:01:30.37Z</time></trkpt><trkpt lat="45.5503385" lon="10.8655505"><ele>448.0</ele><time>2026-05-01T09:01:31.37Z</time></trkpt><trkpt lat="45.5505035" lon="10.8656086"><ele>448.0</ele><time>2026-05-01T09:01:32.37Z</time></trkpt><trkpt lat="45.5506616" lon="10.8657062"><ele>449.33333333333337</ele><time>2026-05-01T09:01:33.369Z</time></trkpt><trkpt lat="45.5508244" lon="10.8658206"><ele>450.66666666666663</ele><time>2026-05-01T09:01:34.37Z</time></trkpt><trkpt lat="45.5510025" lon="10.86594"><ele>452.0</ele><time>2026-05-01T09:01:35.37Z</time></trkpt><trkpt lat="45.551182" lon="10.8660607"><ele>451.66666666666663</ele><time>2026-05-01T09:01:36.37Z</time></trkpt><trkpt lat="45.5513573" lon="10.8661664"><ele>451.33333333333337</ele><time>2026-05-01T09:01:37.37Z</time></trkpt><trkpt lat="45.5515284" lon="10.8662467"><ele>451.0</ele><time>2026-05-01T09:01:38.37Z</time></trkpt><trkpt lat="45.5516893" lon="10.8662609"><ele>451.0</ele><time>2026-05-01T09:01:39.37Z</time></trkpt><trkpt lat="45.5518566" lon="10.8662231"><ele>451.0</ele><time>2026-05-01T09:01:40.37Z</time></trkpt><trkpt lat="45.5520382" lon="10.8661779"><ele>451.0</ele><time>2026-05-01T09:01:41.37Z</time></trkpt><trkpt lat="45.5522131" lon="10.8661629"><ele>449.6666666666667</ele><time>2026-05-01T09:01:42.37Z</time></trkpt><trkpt lat="45.5523927" lon="10.8661836"><ele>448.33333333333337</ele><time>2026-05-01T09:01:43.369Z</time></trkpt><trkpt lat="45.5525747" lon="10.8662143"><ele>447.0</ele><time>2026-05-01T09:01:44.37Z</time></trkpt><trkpt lat="45.5527526" lon="10.8662571"><ele>447.33333333333337</ele><time>2026-05-01T09:01:45.37Z</time></trkpt><trkpt lat="45.5529294" lon="10.8662878"><ele>447.6666666666667</ele><time>2026-05-01T09:01:46.369Z</time></trkpt><trkpt lat="45.5531069" lon="10.8663079"><ele>448.0</ele><time>2026-05-01T09:01:47.37Z</time></trkpt><trkpt lat="45.5532894" lon="10.866309"><ele>448.0</ele><time>2026-05-01T09:01:48.37Z</time></trkpt><trkpt lat="45.5534631" lon="10.8662986"><ele>448.0</ele><time>2026-05-01T09:01:49.369Z</time></trkpt><trkpt lat="45.5536401" lon="10.8662556"><ele>448.0</ele><time>2026-05-01T09:01:50.369Z</time></trkpt><trkpt lat="45.5538151" lon="10.8662025"><ele>446.33333333333337</ele><time>2026-05-01T09:01:51.37Z</time></trkpt><trkpt lat="45.5539884" lon="10.8661514"><ele>444.66666666666663</ele><time>2026-05-01T09:01:52.37Z</time></trkpt><trkpt lat="45.5541689" lon="10.866097"><ele>443.0</ele><time>2026-05-01T09:01:53.37Z</time></trkpt><trkpt lat="45.5543553" lon="10.866056"><ele>445.66666666666663</ele><time>2026-05-01T09:01:54.37Z</time></trkpt><trkpt lat="45.5545447" lon="10.8660348"><ele>448.33333333333337</ele><time>2026-05-01T09:01:55.37Z</time></trkpt><trkpt lat="45.5547374" lon="10.8660476"><ele>451.0</ele><time>2026-05-01T09:01:56.37Z</time></trkpt><trkpt lat="45.5549354" lon="10.8661065"><ele>451.0</ele><time>2026-05-01T09:01:57.37Z</time></trkpt><trkpt lat="45.5551196" lon="10.8662408"><ele>451.0</ele><time>2026-05-01T09:01:58.37Z</time></trkpt><trkpt lat="45.5552821" lon="10.8664233"><ele>451.0</ele><time>2026-05-01T09:01:59.37Z</time></trkpt><trkpt lat="45.5554159" lon="10.8666198"><ele>447.6666666666667</ele><time>2026-05-01T09:02:00.369Z</time></trkpt><trkpt lat="45.5555474" lon="10.8667829"><ele>444.33333333333337</ele><time>2026-05-01T09:02:01.37Z</time></trkpt><trkpt lat="45.5557065" lon="10.866904"><ele>441.0</ele><time>2026-05-01T09:02:02.37Z</time></trkpt><trkpt lat="45.5559146" lon="10.8669533"><ele>441.0</ele><time>2026-05-01T09:02:03.369Z</time></trkpt><trkpt lat="45.556113" lon="10.8669625"><ele>441.0</ele><time>2026-05-01T09:02:04.37Z</time></trkpt><trkpt lat="45.5563073" lon="10.8668982"><ele>441.0</ele><time>2026-05-01T09:02:05.37Z</time></trkpt><trkpt lat="45.5564793" lon="10.8667652"><ele>446.0</ele><time>2026-05-01T09:02:06.37Z</time></trkpt><trkpt lat="45.5566235" lon="10.8665772"><ele>451.0</ele><time>2026-05-01T09:02:07.37Z</time></trkpt><trkpt lat="45.5567704" lon="10.8663978"><ele>456.0</ele><time>2026-05-01T09:02:08.37Z</time></trkpt><trkpt lat="45.5569289" lon="10.8662456"><ele>452.66666666666663</ele><time>2026-05-01T09:02:09.37Z</time></trkpt><trkpt lat="45.5571206" lon="10.866129"><ele>449.3333333333333</ele><time>2026-05-01T09:02:10.37Z</time></trkpt><trkpt lat="45.5573338" lon="10.8660116"><ele>446.0</ele><time>2026-05-01T09:02:11.37Z</time></trkpt><trkpt lat="45.5575495" lon="10.8658704"><ele>452.66666666666663</ele><time>2026-05-01T09:02:12.37Z</time></trkpt><trkpt lat="45.5577388" lon="10.8657354"><ele>459.33333333333337</ele><time>2026-05-01T09:02:13.37Z</time></trkpt><trkpt lat="45.5579319" lon="10.8656166"><ele>466.0</ele><time>2026-05-01T09:02:14.37Z</time></trkpt><trkpt lat="45.5581436" lon="10.8655463"><ele>466.0</ele><time>2026-05-01T09:02:15.37Z</time></trkpt><trkpt lat="45.5583526" lon="10.8655645"><ele>466.0</ele><time>2026-05-01T09:02:16.37Z</time></trkpt><trkpt lat="45.5585721" lon="10.8656432"><ele>466.0</ele><time>2026-05-01T09:02:17.37Z</time></trkpt><trkpt lat="45.5587805" lon="10.8657464"><ele>463.6666666666667</ele><time>2026-05-01T09:02:18.37Z</time></trkpt><trkpt lat="45.5589849" lon="10.8658669"><ele>461.33333333333337</ele><time>2026-05-01T09:02:19.369Z</time></trkpt><trkpt lat="45.5591818" lon="10.8660105"><ele>459.0</ele><time>2026-05-01T09:02:20.37Z</time></trkpt><trkpt lat="45.5593676" lon="10.8661395"><ele>465.66666666666663</ele><time>2026-05-01T09:02:21.37Z</time></trkpt><trkpt lat="45.5595373" lon="10.8662549"><ele>472.3333333333333</ele><time>2026-05-01T09:02:22.37Z</time></trkpt><trkpt lat="45.5596916" lon="10.866381"><ele>479.0</ele><time>2026-05-01T09:02:23.37Z</time></trkpt><trkpt lat="45.5598331" lon="10.8664884"><ele>479.0</ele><time>2026-05-01T09:02:24.37Z</time></trkpt><trkpt lat="45.5599733" lon="10.8665928"><ele>479.0</ele><time>2026-05-01T09:02:25.37Z</time></trkpt><trkpt lat="45.560101" lon="10.8666976"><ele>479.0</ele><time>2026-05-01T09:02:26.37Z</time></trkpt><trkpt lat="45.5602304" lon="10.8667948"><ele>478.5</ele><time>2026-05-01T09:02:27.37Z</time></trkpt><trkpt lat="45.5603615" lon="10.8668793"><ele>478.0</ele><time>2026-05-01T09:02:28.37Z</time></trkpt><trkpt lat="45.5605021" lon="10.8669405"><ele>477.5</ele><time>2026-05-01T09:02:29.37Z</time></trkpt><trkpt lat="45.5606449" lon="10.866967"><ele>477.0</ele><time>2026-05-01T09:02:30.37Z</time></trkpt><trkpt lat="45.5607832" lon="10.8669286"><ele>477.0</ele><time>2026-05-01T09:02:31.37Z</time></trkpt><trkpt lat="45.5609151" lon="10.8668163"><ele>477.0</ele><time>2026-05-01T09:02:32.37Z</time></trkpt><trkpt lat="45.5610415" lon="10.8666629"><ele>477.0</ele><time>2026-05-01T09:02:33.369Z</time></trkpt><trkpt lat="45.5611646" lon="10.8665114"><ele>481.66666666666663</ele><time>2026-05-01T09:02:34.37Z</time></trkpt><trkpt lat="45.5613024" lon="10.8663946"><ele>486.3333333333333</ele><time>2026-05-01T09:02:35.37Z</time></trkpt><trkpt lat="45.561458" lon="10.8663215"><ele>491.0</ele><time>2026-05-01T09:02:36.37Z</time></trkpt><trkpt lat="45.5616151" lon="10.8662924"><ele>491.0</ele><time>2026-05-01T09:02:37.37Z</time></trkpt><trkpt lat="45.5617676" lon="10.8662985"><ele>491.0</ele><time>2026-05-01T09:02:38.37Z</time></trkpt><trkpt lat="45.5619151" lon="10.8663181"><ele>491.0</ele><time>2026-05-01T09:02:39.37Z</time></trkpt><trkpt lat="45.5620597" lon="10.8663618"><ele>491.0</ele><time>2026-05-01T09:02:40.369Z</time></trkpt><trkpt lat="45.5621958" lon="10.8664139"><ele>493.25</ele><time>2026-05-01T09:02:41.37Z</time></trkpt><trkpt lat="45.5623258" lon="10.8664831"><ele>495.5</ele><time>2026-05-01T09:02:42.369Z</time></trkpt><trkpt lat="45.5624532" lon="10.8665678"><ele>497.75</ele><time>2026-05-01T09:02:43.37Z</time></trkpt><trkpt lat="45.5625843" lon="10.866654"><ele>500.0</ele><time>2026-05-01T09:02:44.37Z</time></trkpt><trkpt lat="45.5627194" lon="10.866737"><ele>501.0</ele><time>2026-05-01T09:02:45.37Z</time></trkpt><trkpt lat="45.5628582" lon="10.8668203"><ele>502.0</ele><time>2026-05-01T09:02:46.37Z</time></trkpt><trkpt lat="45.5630045" lon="10.8669146"><ele>503.0</ele><time>2026-05-01T09:02:47.369Z</time></trkpt><trkpt lat="45.5631547" lon="10.8670106"><ele>503.0</ele><time>2026-05-01T09:02:48.37Z</time></trkpt><trkpt lat="45.5633016" lon="10.8670999"><ele>503.0</ele><time>2026-05-01T09:02:49.37Z</time></trkpt><trkpt lat="45.5634421" lon="10.8671852"><ele>503.0</ele><time>2026-05-01T09:02:50.37Z</time></trkpt><trkpt lat="45.563571" lon="10.8672619"><ele>503.0</ele><time>2026-05-01T09:02:51.37Z</time></trkpt><trkpt lat="45.563682" lon="10.867336"><ele>502.99999999999994</ele><time>2026-05-01T09:02:52.37Z</time></trkpt><trkpt lat="45.5637771" lon="10.8673897"><ele>502.99999999999994</ele><time>2026-05-01T09:02:53.37Z</time></trkpt><trkpt lat="45.5638611" lon="10.8674263"><ele>503.0</ele><time>2026-05-01T09:02:54.37Z</time></trkpt><trkpt lat="45.563952" lon="10.8674511"><ele>503.0</ele><time>2026-05-01T09:02:55.37Z</time></trkpt><trkpt lat="45.5640308" lon="10.8674858"><ele>504.99999999999994</ele><time>2026-05-01T09:02:56.37Z</time></trkpt><trkpt lat="45.5640841" lon="10.8675366"><ele>507.0</ele><time>2026-05-01T09:02:57.37Z</time></trkpt><trkpt lat="45.5641242" lon="10.867701"><ele>509.0</ele><time>2026-05-01T09:02:59.37Z</time></trkpt><trkpt lat="45.5641191" lon="10.8678046"><ele>511.0</ele><time>2026-05-01T09:03:00.37Z</time></trkpt><trkpt lat="45.5640911" lon="10.8679208"><ele>513.0</ele><time>2026-05-01T09:03:01.369Z</time></trkpt><trkpt lat="45.5640386" lon="10.868031"><ele>515.0</ele><time>2026-05-01T09:03:02.37Z</time></trkpt><trkpt lat="45.5639764" lon="10.8681342"><ele>515.0</ele><time>2026-05-01T09:03:03.37Z</time></trkpt><trkpt lat="45.5639136" lon="10.8682308"><ele>515.0</ele><time>2026-05-01T09:03:04.37Z</time></trkpt><trkpt lat="45.5638624" lon="10.8683171"><ele>515.0</ele><time>2026-05-01T09:03:05.37Z</time></trkpt><trkpt lat="45.5638276" lon="10.8683988"><ele>515.0</ele><time>2026-05-01T09:03:06.37Z</time></trkpt><trkpt lat="45.5638016" lon="10.868487"><ele>515.0</ele><time>2026-05-01T09:03:07.37Z</time></trkpt><trkpt lat="45.5638017" lon="10.8685898"><ele>515.0</ele><time>2026-05-01T09:03:08.37Z</time></trkpt><trkpt lat="45.563824" lon="10.868692"><ele>514.5</ele><time>2026-05-01T09:03:09.37Z</time></trkpt><trkpt lat="45.5638775" lon="10.8687671"><ele>514.0</ele><time>2026-05-01T09:03:10.37Z</time></trkpt><trkpt lat="45.5639699" lon="10.868809"><ele>513.5</ele><time>2026-05-01T09:03:11.37Z</time></trkpt><trkpt lat="45.5640896" lon="10.8688081"><ele>513.0</ele><time>2026-05-01T09:03:12.369Z</time></trkpt><trkpt lat="45.564257" lon="10.8687801"><ele>513.0</ele><time>2026-05-01T09:03:13.37Z</time></trkpt><trkpt lat="45.5644789" lon="10.8687535"><ele>513.0</ele><time>2026-05-01T09:03:14.369Z</time></trkpt><trkpt lat="45.5647242" lon="10.8687683"><ele>516.6666666666666</ele><time>2026-05-01T09:03:15.37Z</time></trkpt><trkpt lat="45.5649579" lon="10.8688253"><ele>520.3333333333333</ele><time>2026-05-01T09:03:16.37Z</time></trkpt><trkpt lat="45.5651539" lon="10.8689156"><ele>524.0</ele><time>2026-05-01T09:03:17.37Z</time></trkpt><trkpt lat="45.5653385" lon="10.8690288"><ele>526.3333333333333</ele><time>2026-05-01T09:03:18.37Z</time></trkpt><trkpt lat="45.5655192" lon="10.8691523"><ele>528.6666666666666</ele><time>2026-05-01T09:03:19.37Z</time></trkpt><trkpt lat="45.565689" lon="10.8692741"><ele>531.0</ele><time>2026-05-01T09:03:20.37Z</time></trkpt><trkpt lat="45.5658537" lon="10.8693596"><ele>531.0</ele><time>2026-05-01T09:03:21.37Z</time></trkpt><trkpt lat="45.5660138" lon="10.8693887"><ele>531.0</ele><time>2026-05-01T09:03:22.37Z</time></trkpt><trkpt lat="45.5661641" lon="10.8693498"><ele>531.0</ele><time>2026-05-01T09:03:23.37Z</time></trkpt><trkpt lat="45.566294" lon="10.8692161"><ele>534.0</ele><time>2026-05-01T09:03:24.37Z</time></trkpt><trkpt lat="45.5664098" lon="10.8690689"><ele>537.0</ele><time>2026-05-01T09:03:25.37Z</time></trkpt><trkpt lat="45.5665202" lon="10.8689612"><ele>540.0</ele><time>2026-05-01T09:03:26.37Z</time></trkpt><trkpt lat="45.5666305" lon="10.8689161"><ele>543.0</ele><time>2026-05-01T09:03:27.369Z</time></trkpt><trkpt lat="45.5667313" lon="10.8689561"><ele>543.0</ele><time>2026-05-01T09:03:28.37Z</time></trkpt><trkpt lat="45.566817" lon="10.8690711"><ele>543.0</ele><time>2026-05-01T09:03:29.37Z</time></trkpt><trkpt lat="45.5668632" lon="10.8692398"><ele>543.0</ele><time>2026-05-01T09:03:30.37Z</time></trkpt><trkpt lat="45.566878" lon="10.8694388"><ele>543.0</ele><time>2026-05-01T09:03:31.37Z</time></trkpt><trkpt lat="45.5668963" lon="10.8696626"><ele>543.3333333333334</ele><time>2026-05-01T09:03:32.37Z</time></trkpt><trkpt lat="45.5669291" lon="10.8699097"><ele>543.6666666666667</ele><time>2026-05-01T09:03:33.37Z</time></trkpt><trkpt lat="45.5669748" lon="10.8701918"><ele>544.0</ele><time>2026-05-01T09:03:34.37Z</time></trkpt><trkpt lat="45.5670271" lon="10.8704876"><ele>552.0</ele><time>2026-05-01T09:03:35.37Z</time></trkpt><trkpt lat="45.5670728" lon="10.8707875"><ele>560.0</ele><time>2026-05-01T09:03:36.37Z</time></trkpt><trkpt lat="45.5671259" lon="10.8710556"><ele>568.0</ele><time>2026-05-01T09:03:37.37Z</time></trkpt><trkpt lat="45.5671766" lon="10.8712926"><ele>568.6666666666667</ele><time>2026-05-01T09:03:38.37Z</time></trkpt><trkpt lat="45.5672121" lon="10.8715238"><ele>569.3333333333334</ele><time>2026-05-01T09:03:39.369Z</time></trkpt><trkpt lat="45.5672135" lon="10.8717661"><ele>570.0</ele><time>2026-05-01T09:03:40.369Z</time></trkpt><trkpt lat="45.5671782" lon="10.8720175"><ele>571.6666666666666</ele><time>2026-05-01T09:03:41.37Z</time></trkpt><trkpt lat="45.5671054" lon="10.8722886"><ele>573.3333333333333</ele><time>2026-05-01T09:03:42.37Z</time></trkpt><trkpt lat="45.5670181" lon="10.8725668"><ele>575.0</ele><time>2026-05-01T09:03:43.37Z</time></trkpt><trkpt lat="45.5669337" lon="10.8728466"><ele>574.0</ele><time>2026-05-01T09:03:44.37Z</time></trkpt><trkpt lat="45.5668545" lon="10.8731099"><ele>573.0</ele><time>2026-05-01T09:03:45.37Z</time></trkpt><trkpt lat="45.5667866" lon="10.8733567"><ele>572.0</ele><time>2026-05-01T09:03:46.37Z</time></trkpt><trkpt lat="45.5667201" lon="10.8735961"><ele>572.0</ele><time>2026-05-01T09:03:47.37Z</time></trkpt><trkpt lat="45.5666518" lon="10.8738337"><ele>572.0</ele><time>2026-05-01T09:03:48.37Z</time></trkpt><trkpt lat="45.5665896" lon="10.8740704"><ele>572.0</ele><time>2026-05-01T09:03:49.37Z</time></trkpt><trkpt lat="45.5665298" lon="10.8743028"><ele>573.6666666666666</ele><time>2026-05-01T09:03:50.369Z</time></trkpt><trkpt lat="45.5664536" lon="10.8745126"><ele>575.3333333333334</ele><time>2026-05-01T09:03:51.37Z</time></trkpt><trkpt lat="45.5663398" lon="10.8746698"><ele>577.0</ele><time>2026-05-01T09:03:52.37Z</time></trkpt><trkpt lat="45.5661935" lon="10.8747701"><ele>577.0</ele><time>2026-05-01T09:03:53.369Z</time></trkpt><trkpt lat="45.566043" lon="10.8748224"><ele>577.0</ele><time>2026-05-01T09:03:54.37Z</time></trkpt><trkpt lat="45.5659062" lon="10.874842"><ele>577.0</ele><time>2026-05-01T09:03:55.37Z</time></trkpt><trkpt lat="45.5658007" lon="10.8749009"><ele>577.0</ele><time>2026-05-01T09:03:56.37Z</time></trkpt><trkpt lat="45.5657435" lon="10.8750055"><ele>579.8000000000001</ele><time>2026-05-01T09:03:57.369Z</time></trkpt><trkpt lat="45.5657265" lon="10.8751171"><ele>582.6</ele><time>2026-05-01T09:03:58.37Z</time></trkpt><trkpt lat="45.5657494" lon="10.8752151"><ele>585.4000000000001</ele><time>2026-05-01T09:03:59.37Z</time></trkpt><trkpt lat="45.5658192" lon="10.8752621"><ele>588.2</ele><time>2026-05-01T09:04:00.37Z</time></trkpt><trkpt lat="45.5659319" lon="10.8752641"><ele>591.0</ele><time>2026-05-01T09:04:01.37Z</time></trkpt><trkpt lat="45.5661038" lon="10.8752038"><ele>588.6666666666666</ele><time>2026-05-01T09:04:02.37Z</time></trkpt><trkpt lat="45.566311" lon="10.8750954"><ele>586.3333333333333</ele><time>2026-05-01T09:04:03.37Z</time></trkpt><trkpt lat="45.5665044" lon="10.8749957"><ele>584.0</ele><time>2026-05-01T09:04:04.37Z</time></trkpt><trkpt lat="45.5666908" lon="10.8749157"><ele>584.0</ele><time>2026-05-01T09:04:05.37Z</time></trkpt><trkpt lat="45.5668737" lon="10.8748349"><ele>584.0</ele><time>2026-05-01T09:04:06.37Z</time></trkpt><trkpt lat="45.5670555" lon="10.8747662"><ele>584.0</ele><time>2026-05-01T09:04:07.37Z</time></trkpt><trkpt lat="45.5672482" lon="10.8746868"><ele>588.0</ele><time>2026-05-01T09:04:08.37Z</time></trkpt><trkpt lat="45.5674412" lon="10.8746084"><ele>592.0</ele><time>2026-05-01T09:04:09.37Z</time></trkpt><trkpt lat="45.5676369" lon="10.8745269"><ele>596.0</ele><time>2026-05-01T09:04:10.369Z</time></trkpt><trkpt lat="45.5678359" lon="10.8744489"><ele>596.0</ele><time>2026-05-01T09:04:11.37Z</time></trkpt><trkpt lat="45.5680356" lon="10.8743721"><ele>596.0</ele><time>2026-05-01T09:04:12.369Z</time></trkpt><trkpt lat="45.5682208" lon="10.8743006"><ele>596.0</ele><time>2026-05-01T09:04:13.37Z</time></trkpt><trkpt lat="45.5683897" lon="10.874234"><ele>596.0</ele><time>2026-05-01T09:04:14.369Z</time></trkpt><trkpt lat="45.5685568" lon="10.8741678"><ele>596.0</ele><time>2026-05-01T09:04:15.37Z</time></trkpt><trkpt lat="45.5687183" lon="10.8741059"><ele>596.0</ele><time>2026-05-01T09:04:16.37Z</time></trkpt><trkpt lat="45.5688793" lon="10.8740459"><ele>597.75</ele><time>2026-05-01T09:04:17.37Z</time></trkpt><trkpt lat="45.5690274" lon="10.873989"><ele>599.5</ele><time>2026-05-01T09:04:18.37Z</time></trkpt><trkpt lat="45.569163" lon="10.8739385"><ele>601.25</ele><time>2026-05-01T09:04:19.37Z</time></trkpt><trkpt lat="45.569288" lon="10.8738891"><ele>603.0</ele><time>2026-05-01T09:04:20.369Z</time></trkpt><trkpt lat="45.5694133" lon="10.8738472"><ele>602.25</ele><time>2026-05-01T09:04:21.37Z</time></trkpt><trkpt lat="45.5695461" lon="10.8738233"><ele>601.5</ele><time>2026-05-01T09:04:22.37Z</time></trkpt><trkpt lat="45.5696844" lon="10.873817"><ele>600.75</ele><time>2026-05-01T09:04:23.37Z</time></trkpt><trkpt lat="45.5698253" lon="10.8738195"><ele>600.0</ele><time>2026-05-01T09:04:24.37Z</time></trkpt><trkpt lat="45.5699682" lon="10.873819"><ele>600.0</ele><time>2026-05-01T09:04:25.369Z</time></trkpt><trkpt lat="45.570113" lon="10.8738024"><ele>600.0</ele><time>2026-05-01T09:04:26.37Z</time></trkpt><trkpt lat="45.570255" lon="10.8737504"><ele>600.0</ele><time>2026-05-01T09:04:27.37Z</time></trkpt><trkpt lat="45.5703798" lon="10.8736475"><ele>600.0</ele><time>2026-05-01T09:04:28.37Z</time></trkpt><trkpt lat="45.5704781" lon="10.873498"><ele>600.0</ele><time>2026-05-01T09:04:29.37Z</time></trkpt><trkpt lat="45.5705294" lon="10.8733135"><ele>600.0</ele><time>2026-05-01T09:04:30.37Z</time></trkpt><trkpt lat="45.5705581" lon="10.8731115"><ele>600.0</ele><time>2026-05-01T09:04:31.37Z</time></trkpt><trkpt lat="45.5705709" lon="10.8729195"><ele>600.0</ele><time>2026-05-01T09:04:32.37Z</time></trkpt><trkpt lat="45.5705985" lon="10.872728"><ele>601.75</ele><time>2026-05-01T09:04:33.369Z</time></trkpt><trkpt lat="45.5706274" lon="10.8725372"><ele>603.5</ele><time>2026-05-01T09:04:34.37Z</time></trkpt><trkpt lat="45.5706589" lon="10.8723683"><ele>605.25</ele><time>2026-05-01T09:04:35.37Z</time></trkpt><trkpt lat="45.5707126" lon="10.8722391"><ele>607.0</ele><time>2026-05-01T09:04:36.37Z</time></trkpt><trkpt lat="45.5707955" lon="10.8721558"><ele>607.0</ele><time>2026-05-01T09:04:37.37Z</time></trkpt><trkpt lat="45.5708949" lon="10.8721387"><ele>607.0</ele><time>2026-05-01T09:04:38.37Z</time></trkpt><trkpt lat="45.5709988" lon="10.8722061"><ele>607.0</ele><time>2026-05-01T09:04:39.369Z</time></trkpt><trkpt lat="45.5710955" lon="10.8723333"><ele>607.0</ele><time>2026-05-01T09:04:40.37Z</time></trkpt><trkpt lat="45.5711876" lon="10.8724871"><ele>609.0</ele><time>2026-05-01T09:04:41.37Z</time></trkpt><trkpt lat="45.5712819" lon="10.8726388"><ele>611.0</ele><time>2026-05-01T09:04:42.37Z</time></trkpt><trkpt lat="45.5713599" lon="10.8727752"><ele>613.0</ele><time>2026-05-01T09:04:43.37Z</time></trkpt><trkpt lat="45.5714259" lon="10.8728711"><ele>615.0</ele><time>2026-05-01T09:04:44.37Z</time></trkpt><trkpt lat="45.5714947" lon="10.872911"><ele>617.0</ele><time>2026-05-01T09:04:45.37Z</time></trkpt><trkpt lat="45.5715588" lon="10.8729001"><ele>617.0</ele><time>2026-05-01T09:04:46.369Z</time></trkpt><trkpt lat="45.5716166" lon="10.8727865"><ele>617.0</ele><time>2026-05-01T09:04:48.37Z</time></trkpt><trkpt lat="45.5716014" lon="10.8726672"><ele>617.0</ele><time>2026-05-01T09:04:49.37Z</time></trkpt><trkpt lat="45.5715422" lon="10.8724768"><ele>617.0</ele><time>2026-05-01T09:04:50.37Z</time></trkpt><trkpt lat="45.5714887" lon="10.8722558"><ele>622.0</ele><time>2026-05-01T09:04:51.37Z</time></trkpt><trkpt lat="45.5714499" lon="10.8719994"><ele>627.0</ele><time>2026-05-01T09:04:52.37Z</time></trkpt><trkpt lat="45.5714121" lon="10.8717487"><ele>632.0</ele><time>2026-05-01T09:04:53.37Z</time></trkpt><trkpt lat="45.571421" lon="10.8715191"><ele>632.3333333333333</ele><time>2026-05-01T09:04:54.37Z</time></trkpt><trkpt lat="45.5714888" lon="10.8713055"><ele>632.6666666666666</ele><time>2026-05-01T09:04:55.37Z</time></trkpt><trkpt lat="45.5715729" lon="10.8710915"><ele>633.0</ele><time>2026-05-01T09:04:56.37Z</time></trkpt><trkpt lat="45.5716669" lon="10.8708843"><ele>633.0</ele><time>2026-05-01T09:04:57.37Z</time></trkpt><trkpt lat="45.5717606" lon="10.8706842"><ele>633.0</ele><time>2026-05-01T09:04:58.37Z</time></trkpt><trkpt lat="45.5718503" lon="10.8705112"><ele>633.0</ele><time>2026-05-01T09:04:59.37Z</time></trkpt><trkpt lat="45.5719504" lon="10.8703701"><ele>637.25</ele><time>2026-05-01T09:05:00.37Z</time></trkpt><trkpt lat="45.572059" lon="10.8702698"><ele>641.5</ele><time>2026-05-01T09:05:01.37Z</time></trkpt><trkpt lat="45.5721866" lon="10.8702087"><ele>645.75</ele><time>2026-05-01T09:05:02.37Z</time></trkpt><trkpt lat="45.5723272" lon="10.870178"><ele>650.0</ele><time>2026-05-01T09:05:03.37Z</time></trkpt><trkpt lat="45.5724742" lon="10.8701747"><ele>650.0</ele><time>2026-05-01T09:05:04.37Z</time></trkpt><trkpt lat="45.5726227" lon="10.8702048"><ele>650.0</ele><time>2026-05-01T09:05:05.369Z</time></trkpt><trkpt lat="45.5727676" lon="10.8702691"><ele>650.0</ele><time>2026-05-01T09:05:06.369Z</time></trkpt><trkpt lat="45.5729173" lon="10.8703814"><ele>653.6666666666666</ele><time>2026-05-01T09:05:07.369Z</time></trkpt><trkpt lat="45.5730489" lon="10.8705256"><ele>657.3333333333334</ele><time>2026-05-01T09:05:08.368Z</time></trkpt><trkpt lat="45.5731621" lon="10.8706853"><ele>661.0</ele><time>2026-05-01T09:05:09.369Z</time></trkpt><trkpt lat="45.5732696" lon="10.8708423"><ele>658.6666666666667</ele><time>2026-05-01T09:05:10.369Z</time></trkpt><trkpt lat="45.573382" lon="10.8709863"><ele>656.3333333333334</ele><time>2026-05-01T09:05:11.369Z</time></trkpt><trkpt lat="45.5735015" lon="10.8711423"><ele>654.0</ele><time>2026-05-01T09:05:12.369Z</time></trkpt><trkpt lat="45.5736143" lon="10.8712889"><ele>656.0</ele><time>2026-05-01T09:05:13.369Z</time></trkpt><trkpt lat="45.5737257" lon="10.8714151"><ele>658.0</ele><time>2026-05-01T09:05:14.369Z</time></trkpt><trkpt lat="45.5738469" lon="10.871541"><ele>660.0</ele><time>2026-05-01T09:05:15.369Z</time></trkpt><trkpt lat="45.5739842" lon="10.8716565"><ele>653.3333333333334</ele><time>2026-05-01T09:05:16.369Z</time></trkpt><trkpt lat="45.5741295" lon="10.8717772"><ele>646.6666666666667</ele><time>2026-05-01T09:05:17.368Z</time></trkpt><trkpt lat="45.5742708" lon="10.8718998"><ele>640.0</ele><time>2026-05-01T09:05:18.368Z</time></trkpt><trkpt lat="45.5744181" lon="10.8720293"><ele>647.0</ele><time>2026-05-01T09:05:19.369Z</time></trkpt><trkpt lat="45.5745683" lon="10.8721633"><ele>654.0</ele><time>2026-05-01T09:05:20.369Z</time></trkpt><trkpt lat="45.5747123" lon="10.872288"><ele>661.0</ele><time>2026-05-01T09:05:21.369Z</time></trkpt><trkpt lat="45.5748405" lon="10.8724064"><ele>661.0</ele><time>2026-05-01T09:05:22.369Z</time></trkpt><trkpt lat="45.5749616" lon="10.8725655"><ele>661.0</ele><time>2026-05-01T09:05:23.369Z</time></trkpt><trkpt lat="45.575078" lon="10.8727576"><ele>661.0</ele><time>2026-05-01T09:05:24.369Z</time></trkpt><trkpt lat="45.5751919" lon="10.8729348"><ele>660.6666666666667</ele><time>2026-05-01T09:05:25.369Z</time></trkpt><trkpt lat="45.5753174" lon="10.8730893"><ele>660.3333333333334</ele><time>2026-05-01T09:05:26.369Z</time></trkpt><trkpt lat="45.5754662" lon="10.8731928"><ele>660.0</ele><time>2026-05-01T09:05:27.368Z</time></trkpt><trkpt lat="45.5756196" lon="10.8732695"><ele>660.0</ele><time>2026-05-01T09:05:28.369Z</time></trkpt><trkpt lat="45.5757977" lon="10.8733095"><ele>660.0</ele><time>2026-05-01T09:05:29.368Z</time></trkpt><trkpt lat="45.5759961" lon="10.8733094"><ele>660.0</ele><time>2026-05-01T09:05:30.369Z</time></trkpt><trkpt lat="45.5761951" lon="10.8732762"><ele>661.0</ele><time>2026-05-01T09:05:31.369Z</time></trkpt><trkpt lat="45.576383" lon="10.8731863"><ele>662.0</ele><time>2026-05-01T09:05:32.369Z</time></trkpt><trkpt lat="45.5765285" lon="10.8730399"><ele>663.0</ele><time>2026-05-01T09:05:33.369Z</time></trkpt><trkpt lat="45.5766557" lon="10.8728834"><ele>663.0</ele><time>2026-05-01T09:05:34.369Z</time></trkpt><trkpt lat="45.5767923" lon="10.872788"><ele>663.0</ele><time>2026-05-01T09:05:35.368Z</time></trkpt><trkpt lat="45.5769422" lon="10.8727735"><ele>663.0</ele><time>2026-05-01T09:05:36.369Z</time></trkpt><trkpt lat="45.5770909" lon="10.8728384"><ele>666.6666666666666</ele><time>2026-05-01T09:05:37.368Z</time></trkpt><trkpt lat="45.5772416" lon="10.8729652"><ele>670.3333333333333</ele><time>2026-05-01T09:05:38.369Z</time></trkpt><trkpt lat="45.5773832" lon="10.8731365"><ele>674.0</ele><time>2026-05-01T09:05:39.368Z</time></trkpt><trkpt lat="45.5775204" lon="10.8733304"><ele>673.6666666666666</ele><time>2026-05-01T09:05:40.369Z</time></trkpt><trkpt lat="45.5776659" lon="10.8735263"><ele>673.3333333333334</ele><time>2026-05-01T09:05:41.369Z</time></trkpt><trkpt lat="45.5778328" lon="10.8737003"><ele>673.0</ele><time>2026-05-01T09:05:42.369Z</time></trkpt><trkpt lat="45.5780154" lon="10.8738455"><ele>673.0</ele><time>2026-05-01T09:05:43.368Z</time></trkpt><trkpt lat="45.5782033" lon="10.8739654"><ele>673.0</ele><time>2026-05-01T09:05:44.369Z</time></trkpt><trkpt lat="45.57839" lon="10.8740691"><ele>673.0</ele><time>2026-05-01T09:05:45.368Z</time></trkpt><trkpt lat="45.5785812" lon="10.8741462"><ele>679.6666666666667</ele><time>2026-05-01T09:05:46.369Z</time></trkpt><trkpt lat="45.578782" lon="10.8741789"><ele>686.3333333333334</ele><time>2026-05-01T09:05:47.369Z</time></trkpt><trkpt lat="45.5789914" lon="10.8741822"><ele>693.0</ele><time>2026-05-01T09:05:48.369Z</time></trkpt><trkpt lat="45.5791919" lon="10.874203"><ele>692.3333333333334</ele><time>2026-05-01T09:05:49.369Z</time></trkpt><trkpt lat="45.5793972" lon="10.8742722"><ele>691.6666666666667</ele><time>2026-05-01T09:05:50.369Z</time></trkpt><trkpt lat="45.5796009" lon="10.8743952"><ele>691.0</ele><time>2026-05-01T09:05:51.368Z</time></trkpt><trkpt lat="45.5797838" lon="10.8745389"><ele>691.0</ele><time>2026-05-01T09:05:52.368Z</time></trkpt><trkpt lat="45.5799554" lon="10.8746895"><ele>691.0</ele><time>2026-05-01T09:05:53.369Z</time></trkpt><trkpt lat="45.5801224" lon="10.8748455"><ele>691.0</ele><time>2026-05-01T09:05:54.369Z</time></trkpt><trkpt lat="45.5802888" lon="10.8750309"><ele>696.5</ele><time>2026-05-01T09:05:55.369Z</time></trkpt><trkpt lat="45.5804599" lon="10.8752507"><ele>702.0</ele><time>2026-05-01T09:05:56.369Z</time></trkpt><trkpt lat="45.5806293" lon="10.8754889"><ele>702.0</ele><time>2026-05-01T09:05:57.369Z</time></trkpt><trkpt lat="45.5807847" lon="10.8757064"><ele>702.0</ele><time>2026-05-01T09:05:58.369Z</time></trkpt><trkpt lat="45.5809147" lon="10.8759221"><ele>702.0</ele><time>2026-05-01T09:05:59.369Z</time></trkpt><trkpt lat="45.5810197" lon="10.8761505"><ele>704.6666666666666</ele><time>2026-05-01T09:06:00.369Z</time></trkpt><trkpt lat="45.5811188" lon="10.8763775"><ele>707.3333333333333</ele><time>2026-05-01T09:06:01.369Z</time></trkpt><trkpt lat="45.5812349" lon="10.8765927"><ele>710.0</ele><time>2026-05-01T09:06:02.369Z</time></trkpt><trkpt lat="45.5813876" lon="10.8767746"><ele>704.6666666666666</ele><time>2026-05-01T09:06:03.369Z</time></trkpt><trkpt lat="45.5815573" lon="10.8769158"><ele>699.3333333333334</ele><time>2026-05-01T09:06:04.369Z</time></trkpt><trkpt lat="45.5817288" lon="10.8770168"><ele>694.0</ele><time>2026-05-01T09:06:05.368Z</time></trkpt><trkpt lat="45.5818844" lon="10.8771432"><ele>694.0</ele><time>2026-05-01T09:06:06.369Z</time></trkpt><trkpt lat="45.5820086" lon="10.8773297"><ele>694.0</ele><time>2026-05-01T09:06:07.369Z</time></trkpt><trkpt lat="45.5820983" lon="10.8775218"><ele>694.0</ele><time>2026-05-01T09:06:08.368Z</time></trkpt><trkpt lat="45.5821545" lon="10.8777154"><ele>694.75</ele><time>2026-05-01T09:06:09.369Z</time></trkpt><trkpt lat="45.5821509" lon="10.8778996"><ele>695.5</ele><time>2026-05-01T09:06:10.368Z</time></trkpt><trkpt lat="45.5820829" lon="10.8780626"><ele>696.25</ele><time>2026-05-01T09:06:11.368Z</time></trkpt><trkpt lat="45.5819746" lon="10.8782191"><ele>697.0</ele><time>2026-05-01T09:06:12.369Z</time></trkpt><trkpt lat="45.5818732" lon="10.878404"><ele>699.25</ele><time>2026-05-01T09:06:13.369Z</time></trkpt><trkpt lat="45.5817811" lon="10.8785827"><ele>701.5</ele><time>2026-05-01T09:06:14.368Z</time></trkpt><trkpt lat="45.5816779" lon="10.8787205"><ele>703.75</ele><time>2026-05-01T09:06:15.368Z</time></trkpt><trkpt lat="45.5815754" lon="10.8788388"><ele>706.0</ele><time>2026-05-01T09:06:16.368Z</time></trkpt><trkpt lat="45.5814947" lon="10.8789547"><ele>706.0</ele><time>2026-05-01T09:06:17.369Z</time></trkpt><trkpt lat="45.5814286" lon="10.879062"><ele>706.0</ele><time>2026-05-01T09:06:18.369Z</time></trkpt><trkpt lat="45.5813726" lon="10.8791668"><ele>706.0</ele><time>2026-05-01T09:06:19.369Z</time></trkpt><trkpt lat="45.5813205" lon="10.8792811"><ele>706.0</ele><time>2026-05-01T09:06:20.369Z</time></trkpt><trkpt lat="45.5812863" lon="10.879406"><ele>706.0</ele><time>2026-05-01T09:06:21.369Z</time></trkpt><trkpt lat="45.5812705" lon="10.8795472"><ele>706.0</ele><time>2026-05-01T09:06:22.368Z</time></trkpt><trkpt lat="45.5812743" lon="10.8796958"><ele>706.0</ele><time>2026-05-01T09:06:23.369Z</time></trkpt><trkpt lat="45.5812901" lon="10.8798465"><ele>706.0</ele><time>2026-05-01T09:06:24.369Z</time></trkpt><trkpt lat="45.5813089" lon="10.8800112"><ele>706.0</ele><time>2026-05-01T09:06:25.368Z</time></trkpt><trkpt lat="45.5813377" lon="10.8801945"><ele>704.0</ele><time>2026-05-01T09:06:26.369Z</time></trkpt><trkpt lat="45.5814036" lon="10.8804036"><ele>702.0</ele><time>2026-05-01T09:06:27.369Z</time></trkpt><trkpt lat="45.5814815" lon="10.8806413"><ele>700.0</ele><time>2026-05-01T09:06:28.368Z</time></trkpt><trkpt lat="45.5815455" lon="10.8808954"><ele>699.3333333333334</ele><time>2026-05-01T09:06:29.369Z</time></trkpt><trkpt lat="45.5816049" lon="10.8811505"><ele>698.6666666666666</ele><time>2026-05-01T09:06:30.369Z</time></trkpt><trkpt lat="45.5816591" lon="10.8813905"><ele>698.0</ele><time>2026-05-01T09:06:31.369Z</time></trkpt><trkpt lat="45.5817135" lon="10.8816143"><ele>697.0</ele><time>2026-05-01T09:06:32.369Z</time></trkpt><trkpt lat="45.5817792" lon="10.8818245"><ele>696.0</ele><time>2026-05-01T09:06:33.369Z</time></trkpt><trkpt lat="45.5818745" lon="10.8820217"><ele>695.0</ele><time>2026-05-01T09:06:34.369Z</time></trkpt><trkpt lat="45.5819933" lon="10.8822036"><ele>699.3333333333333</ele><time>2026-05-01T09:06:35.369Z</time></trkpt><trkpt lat="45.5821233" lon="10.8823436"><ele>703.6666666666666</ele><time>2026-05-01T09:06:36.369Z</time></trkpt><trkpt lat="45.5822375" lon="10.8824769"><ele>708.0</ele><time>2026-05-01T09:06:37.369Z</time></trkpt><trkpt lat="45.5823212" lon="10.8826453"><ele>708.0</ele><time>2026-05-01T09:06:38.369Z</time></trkpt><trkpt lat="45.5823806" lon="10.8828481"><ele>708.0</ele><time>2026-05-01T09:06:39.369Z</time></trkpt><trkpt lat="45.5824271" lon="10.8830571"><ele>708.0</ele><time>2026-05-01T09:06:40.369Z</time></trkpt><trkpt lat="45.5824825" lon="10.8832454"><ele>708.0</ele><time>2026-05-01T09:06:41.369Z</time></trkpt><trkpt lat="45.5825521" lon="10.8834135"><ele>708.0</ele><time>2026-05-01T09:06:42.369Z</time></trkpt><trkpt lat="45.5826297" lon="10.8835706"><ele>708.0</ele><time>2026-05-01T09:06:43.369Z</time></trkpt><trkpt lat="45.5827095" lon="10.883719"><ele>708.0</ele><time>2026-05-01T09:06:44.369Z</time></trkpt><trkpt lat="45.5827929" lon="10.8838682"><ele>710.25</ele><time>2026-05-01T09:06:45.369Z</time></trkpt><trkpt lat="45.5828737" lon="10.8840214"><ele>712.5</ele><time>2026-05-01T09:06:46.369Z</time></trkpt><trkpt lat="45.582952" lon="10.8841718"><ele>714.75</ele><time>2026-05-01T09:06:47.369Z</time></trkpt><trkpt lat="45.5830288" lon="10.8843325"><ele>717.0</ele><time>2026-05-01T09:06:48.369Z</time></trkpt><trkpt lat="45.5831026" lon="10.8845047"><ele>717.0</ele><time>2026-05-01T09:06:49.368Z</time></trkpt><trkpt lat="45.5831605" lon="10.8846974"><ele>717.0</ele><time>2026-05-01T09:06:50.369Z</time></trkpt><trkpt lat="45.583202" lon="10.8849158"><ele>717.0</ele><time>2026-05-01T09:06:51.369Z</time></trkpt><trkpt lat="45.5832398" lon="10.8851532"><ele>717.0</ele><time>2026-05-01T09:06:52.369Z</time></trkpt><trkpt lat="45.5832888" lon="10.8853939"><ele>717.0</ele><time>2026-05-01T09:06:53.369Z</time></trkpt><trkpt lat="45.5833682" lon="10.8856044"><ele>717.0</ele><time>2026-05-01T09:06:54.369Z</time></trkpt><trkpt lat="45.5834898" lon="10.8857787"><ele>717.0</ele><time>2026-05-01T09:06:55.369Z</time></trkpt><trkpt lat="45.5836459" lon="10.885901"><ele>717.0</ele><time>2026-05-01T09:06:56.369Z</time></trkpt><trkpt lat="45.5838286" lon="10.885963"><ele>717.0</ele><time>2026-05-01T09:06:57.368Z</time></trkpt><trkpt lat="45.584014" lon="10.8859669"><ele>719.6666666666666</ele><time>2026-05-01T09:06:58.369Z</time></trkpt><trkpt lat="45.5841903" lon="10.8859015"><ele>722.3333333333333</ele><time>2026-05-01T09:06:59.369Z</time></trkpt><trkpt lat="45.5843645" lon="10.8857568"><ele>725.0</ele><time>2026-05-01T09:07:00.368Z</time></trkpt><trkpt lat="45.5845324" lon="10.8855946"><ele>728.0</ele><time>2026-05-01T09:07:01.369Z</time></trkpt><trkpt lat="45.5846912" lon="10.8854481"><ele>731.0</ele><time>2026-05-01T09:07:02.369Z</time></trkpt><trkpt lat="45.5848422" lon="10.8853172"><ele>734.0</ele><time>2026-05-01T09:07:03.369Z</time></trkpt><trkpt lat="45.5849959" lon="10.8852139"><ele>734.0</ele><time>2026-05-01T09:07:04.369Z</time></trkpt><trkpt lat="45.5851605" lon="10.8851429"><ele>734.0</ele><time>2026-05-01T09:07:05.369Z</time></trkpt><trkpt lat="45.5853369" lon="10.8851275"><ele>734.0</ele><time>2026-05-01T09:07:06.368Z</time></trkpt><trkpt lat="45.5855163" lon="10.8851619"><ele>737.6666666666666</ele><time>2026-05-01T09:07:07.369Z</time></trkpt><trkpt lat="45.5856797" lon="10.8852429"><ele>741.3333333333334</ele><time>2026-05-01T09:07:08.369Z</time></trkpt><trkpt lat="45.5858346" lon="10.8853705"><ele>745.0</ele><time>2026-05-01T09:07:09.369Z</time></trkpt><trkpt lat="45.5859827" lon="10.8855287"><ele>745.0</ele><time>2026-05-01T09:07:10.369Z</time></trkpt><trkpt lat="45.5861295" lon="10.885701"><ele>745.0</ele><time>2026-05-01T09:07:11.369Z</time></trkpt><trkpt lat="45.5862934" lon="10.8858441"><ele>745.0</ele><time>2026-05-01T09:07:12.369Z</time></trkpt><trkpt lat="45.5864787" lon="10.8859356"><ele>741.5</ele><time>2026-05-01T09:07:13.368Z</time></trkpt><trkpt lat="45.5866974" lon="10.8859636"><ele>738.0</ele><time>2026-05-01T09:07:14.369Z</time></trkpt><trkpt lat="45.5869469" lon="10.8859448"><ele>749.5</ele><time>2026-05-01T09:07:15.369Z</time></trkpt><trkpt lat="45.5871952" lon="10.8859043"><ele>761.0</ele><time>2026-05-01T09:07:16.369Z</time></trkpt><trkpt lat="45.5874252" lon="10.8858718"><ele>761.0</ele><time>2026-05-01T09:07:17.369Z</time></trkpt><trkpt lat="45.5876361" lon="10.8858455"><ele>761.0</ele><time>2026-05-01T09:07:18.369Z</time></trkpt><trkpt lat="45.5878442" lon="10.8858264"><ele>761.0</ele><time>2026-05-01T09:07:19.368Z</time></trkpt><trkpt lat="45.5880433" lon="10.885801"><ele>762.3333333333333</ele><time>2026-05-01T09:07:20.369Z</time></trkpt><trkpt lat="45.5882353" lon="10.8857633"><ele>763.6666666666666</ele><time>2026-05-01T09:07:21.369Z</time></trkpt><trkpt lat="45.5884236" lon="10.8857123"><ele>765.0</ele><time>2026-05-01T09:07:22.369Z</time></trkpt><trkpt lat="45.5885994" lon="10.8856511"><ele>765.3333333333334</ele><time>2026-05-01T09:07:23.369Z</time></trkpt><trkpt lat="45.5887757" lon="10.8855732"><ele>765.6666666666667</ele><time>2026-05-01T09:07:24.369Z</time></trkpt><trkpt lat="45.5889493" lon="10.8854738"><ele>766.0</ele><time>2026-05-01T09:07:25.369Z</time></trkpt><trkpt lat="45.5891215" lon="10.885363"><ele>766.0</ele><time>2026-05-01T09:07:26.369Z</time></trkpt><trkpt lat="45.5892996" lon="10.885208"><ele>766.0</ele><time>2026-05-01T09:07:27.369Z</time></trkpt><trkpt lat="45.5894756" lon="10.8850308"><ele>766.0</ele><time>2026-05-01T09:07:28.369Z</time></trkpt><trkpt lat="45.5896436" lon="10.8848564"><ele>771.0</ele><time>2026-05-01T09:07:29.369Z</time></trkpt><trkpt lat="45.5897995" lon="10.8847065"><ele>776.0</ele><time>2026-05-01T09:07:30.369Z</time></trkpt><trkpt lat="45.5899621" lon="10.8845876"><ele>781.0</ele><time>2026-05-01T09:07:31.368Z</time></trkpt><trkpt lat="45.5901445" lon="10.8844987"><ele>784.0</ele><time>2026-05-01T09:07:32.369Z</time></trkpt><trkpt lat="45.5903445" lon="10.8844363"><ele>787.0</ele><time>2026-05-01T09:07:33.369Z</time></trkpt><trkpt lat="45.5905369" lon="10.8843902"><ele>790.0</ele><time>2026-05-01T09:07:34.368Z</time></trkpt><trkpt lat="45.5907062" lon="10.8843571"><ele>790.0</ele><time>2026-05-01T09:07:35.369Z</time></trkpt><trkpt lat="45.5908517" lon="10.8843496"><ele>790.0</ele><time>2026-05-01T09:07:36.369Z</time></trkpt><trkpt lat="45.5909829" lon="10.8843937"><ele>790.0</ele><time>2026-05-01T09:07:37.369Z</time></trkpt><trkpt lat="45.591086" lon="10.8845126"><ele>790.0</ele><time>2026-05-01T09:07:38.369Z</time></trkpt><trkpt lat="45.5911397" lon="10.8846834"><ele>790.0</ele><time>2026-05-01T09:07:39.369Z</time></trkpt><trkpt lat="45.591125" lon="10.8848917"><ele>790.0</ele><time>2026-05-01T09:07:40.369Z</time></trkpt><trkpt lat="45.5910646" lon="10.8851145"><ele>790.0</ele><time>2026-05-01T09:07:41.368Z</time></trkpt><trkpt lat="45.5909788" lon="10.8853507"><ele>790.6666666666666</ele><time>2026-05-01T09:07:42.369Z</time></trkpt><trkpt lat="45.5908941" lon="10.8855872"><ele>791.3333333333333</ele><time>2026-05-01T09:07:43.369Z</time></trkpt><trkpt lat="45.5908018" lon="10.8858284"><ele>792.0</ele><time>2026-05-01T09:07:44.369Z</time></trkpt><trkpt lat="45.5907117" lon="10.8860502"><ele>794.0</ele><time>2026-05-01T09:07:45.369Z</time></trkpt><trkpt lat="45.5906286" lon="10.8862531"><ele>796.0</ele><time>2026-05-01T09:07:46.369Z</time></trkpt><trkpt lat="45.5905664" lon="10.8864555"><ele>798.0</ele><time>2026-05-01T09:07:47.369Z</time></trkpt><trkpt lat="45.5905457" lon="10.8866603"><ele>797.0</ele><time>2026-05-01T09:07:48.369Z</time></trkpt><trkpt lat="45.5905808" lon="10.8868653"><ele>796.0</ele><time>2026-05-01T09:07:49.369Z</time></trkpt><trkpt lat="45.5906611" lon="10.8870788"><ele>795.0</ele><time>2026-05-01T09:07:50.369Z</time></trkpt><trkpt lat="45.5907548" lon="10.8873019"><ele>795.0</ele><time>2026-05-01T09:07:51.369Z</time></trkpt><trkpt lat="45.5908435" lon="10.8875291"><ele>795.0</ele><time>2026-05-01T09:07:52.369Z</time></trkpt><trkpt lat="45.5909273" lon="10.8877534"><ele>795.0</ele><time>2026-05-01T09:07:53.368Z</time></trkpt><trkpt lat="45.5910024" lon="10.8879664"><ele>794.6666666666667</ele><time>2026-05-01T09:07:54.369Z</time></trkpt><trkpt lat="45.5910722" lon="10.888163"><ele>794.3333333333334</ele><time>2026-05-01T09:07:55.369Z</time></trkpt><trkpt lat="45.5911477" lon="10.8883525"><ele>794.0</ele><time>2026-05-01T09:07:56.368Z</time></trkpt><trkpt lat="45.5912398" lon="10.88853"><ele>793.0</ele><time>2026-05-01T09:07:57.369Z</time></trkpt><trkpt lat="45.591356" lon="10.8886817"><ele>792.0</ele><time>2026-05-01T09:07:58.369Z</time></trkpt><trkpt lat="45.5915024" lon="10.8887895"><ele>791.0</ele><time>2026-05-01T09:07:59.369Z</time></trkpt><trkpt lat="45.5916787" lon="10.8888479"><ele>791.0</ele><time>2026-05-01T09:08:00.369Z</time></trkpt><trkpt lat="45.5918733" lon="10.8888654"><ele>791.0</ele><time>2026-05-01T09:08:01.369Z</time></trkpt><trkpt lat="45.5920784" lon="10.8888482"><ele>791.0</ele><time>2026-05-01T09:08:02.369Z</time></trkpt><trkpt lat="45.5922921" lon="10.888812"><ele>790.5</ele><time>2026-05-01T09:08:03.368Z</time></trkpt><trkpt lat="45.5924729" lon="10.8887754"><ele>790.0</ele><time>2026-05-01T09:08:04.392Z</time></trkpt><trkpt lat="45.5927374" lon="10.8887194"><ele>787.0</ele><time>2026-05-01T09:08:05.369Z</time></trkpt><trkpt lat="45.5929722" lon="10.8886733"><ele>784.0</ele><time>2026-05-01T09:08:06.369Z</time></trkpt><trkpt lat="45.5932093" lon="10.8886267"><ele>784.0</ele><time>2026-05-01T09:08:07.368Z</time></trkpt><trkpt lat="45.5934496" lon="10.8885812"><ele>784.0</ele><time>2026-05-01T09:08:08.368Z</time></trkpt><trkpt lat="45.5936872" lon="10.8885361"><ele>782.6666666666666</ele><time>2026-05-01T09:08:09.369Z</time></trkpt><trkpt lat="45.5939127" lon="10.888497"><ele>781.3333333333333</ele><time>2026-05-01T09:08:10.369Z</time></trkpt><trkpt lat="45.5941303" lon="10.8884625"><ele>780.0</ele><time>2026-05-01T09:08:11.369Z</time></trkpt><trkpt lat="45.5943406" lon="10.888425"><ele>785.3333333333333</ele><time>2026-05-01T09:08:12.369Z</time></trkpt><trkpt lat="45.594541" lon="10.8883791"><ele>790.6666666666666</ele><time>2026-05-01T09:08:13.368Z</time></trkpt><trkpt lat="45.5947323" lon="10.888311"><ele>796.0</ele><time>2026-05-01T09:08:14.369Z</time></trkpt><trkpt lat="45.5949032" lon="10.8882128"><ele>796.0</ele><time>2026-05-01T09:08:15.368Z</time></trkpt><trkpt lat="45.5950564" lon="10.8881051"><ele>796.0</ele><time>2026-05-01T09:08:16.369Z</time></trkpt><trkpt lat="45.5952009" lon="10.8880171"><ele>796.0</ele><time>2026-05-01T09:08:17.369Z</time></trkpt><trkpt lat="45.5953372" lon="10.8879757"><ele>797.75</ele><time>2026-05-01T09:08:18.369Z</time></trkpt><trkpt lat="45.5954644" lon="10.8880035"><ele>799.5</ele><time>2026-05-01T09:08:19.369Z</time></trkpt><trkpt lat="45.5955655" lon="10.8881247"><ele>801.25</ele><time>2026-05-01T09:08:20.369Z</time></trkpt><trkpt lat="45.5956442" lon="10.8883038"><ele>803.0</ele><time>2026-05-01T09:08:21.369Z</time></trkpt><trkpt lat="45.5956997" lon="10.8885302"><ele>803.0</ele><time>2026-05-01T09:08:22.369Z</time></trkpt><trkpt lat="45.5957277" lon="10.8887749"><ele>803.0</ele><time>2026-05-01T09:08:23.369Z</time></trkpt><trkpt lat="45.5957261" lon="10.8890414"><ele>803.0</ele><time>2026-05-01T09:08:24.369Z</time></trkpt><trkpt lat="45.595697" lon="10.8893062"><ele>801.6666666666667</ele><time>2026-05-01T09:08:25.369Z</time></trkpt><trkpt lat="45.5956428" lon="10.8895499"><ele>800.3333333333333</ele><time>2026-05-01T09:08:26.369Z</time></trkpt><trkpt lat="45.5955839" lon="10.8897634"><ele>799.0</ele><time>2026-05-01T09:08:27.368Z</time></trkpt><trkpt lat="45.5955481" lon="10.8899586"><ele>796.8000000000001</ele><time>2026-05-01T09:08:28.369Z</time></trkpt><trkpt lat="45.5955471" lon="10.8901392"><ele>794.6</ele><time>2026-05-01T09:08:29.369Z</time></trkpt><trkpt lat="45.5955853" lon="10.8902793"><ele>792.4</ele><time>2026-05-01T09:08:30.369Z</time></trkpt><trkpt lat="45.5956659" lon="10.8903579"><ele>790.2</ele><time>2026-05-01T09:08:31.369Z</time></trkpt><trkpt lat="45.5957734" lon="10.8903806"><ele>788.0</ele><time>2026-05-01T09:08:32.368Z</time></trkpt><trkpt lat="45.595919" lon="10.8903552"><ele>788.0</ele><time>2026-05-01T09:08:33.369Z</time></trkpt><trkpt lat="45.5960933" lon="10.8903249"><ele>788.0</ele><time>2026-05-01T09:08:34.369Z</time></trkpt><trkpt lat="45.5962876" lon="10.8903004"><ele>788.0</ele><time>2026-05-01T09:08:35.368Z</time></trkpt><trkpt lat="45.5964916" lon="10.8902719"><ele>788.3333333333334</ele><time>2026-05-01T09:08:36.368Z</time></trkpt><trkpt lat="45.5966944" lon="10.8902467"><ele>788.6666666666667</ele><time>2026-05-01T09:08:37.369Z</time></trkpt><trkpt lat="45.5969" lon="10.8902166"><ele>789.0</ele><time>2026-05-01T09:08:38.369Z</time></trkpt><trkpt lat="45.5971023" lon="10.8901874"><ele>788.3333333333333</ele><time>2026-05-01T09:08:39.369Z</time></trkpt><trkpt lat="45.5973049" lon="10.8901575"><ele>787.6666666666666</ele><time>2026-05-01T09:08:40.369Z</time></trkpt><trkpt lat="45.5975068" lon="10.8901189"><ele>787.0</ele><time>2026-05-01T09:08:41.369Z</time></trkpt><trkpt lat="45.5977097" lon="10.8900733"><ele>793.3333333333333</ele><time>2026-05-01T09:08:42.369Z</time></trkpt><trkpt lat="45.5979084" lon="10.8900283"><ele>799.6666666666667</ele><time>2026-05-01T09:08:43.369Z</time></trkpt><trkpt lat="45.5981028" lon="10.8899892"><ele>806.0</ele><time>2026-05-01T09:08:44.369Z</time></trkpt><trkpt lat="45.5982872" lon="10.8899587"><ele>806.0</ele><time>2026-05-01T09:08:45.369Z</time></trkpt><trkpt lat="45.5984711" lon="10.8899457"><ele>806.0</ele><time>2026-05-01T09:08:46.369Z</time></trkpt><trkpt lat="45.5986482" lon="10.8899331"><ele>806.0</ele><time>2026-05-01T09:08:47.369Z</time></trkpt><trkpt lat="45.5988155" lon="10.8899257"><ele>805.3333333333334</ele><time>2026-05-01T09:08:48.368Z</time></trkpt><trkpt lat="45.5989831" lon="10.889921"><ele>804.6666666666667</ele><time>2026-05-01T09:08:49.368Z</time></trkpt><trkpt lat="45.5991575" lon="10.8899118"><ele>804.0</ele><time>2026-05-01T09:08:50.369Z</time></trkpt><trkpt lat="45.5993436" lon="10.8898773"><ele>803.0</ele><time>2026-05-01T09:08:51.369Z</time></trkpt><trkpt lat="45.5995456" lon="10.8898028"><ele>802.0</ele><time>2026-05-01T09:08:52.369Z</time></trkpt><trkpt lat="45.5997604" lon="10.8896996"><ele>801.0</ele><time>2026-05-01T09:08:53.369Z</time></trkpt><trkpt lat="45.5999708" lon="10.8895925"><ele>801.0</ele><time>2026-05-01T09:08:54.368Z</time></trkpt><trkpt lat="45.6001757" lon="10.8894797"><ele>801.0</ele><time>2026-05-01T09:08:55.369Z</time></trkpt><trkpt lat="45.600374" lon="10.8893698"><ele>801.0</ele><time>2026-05-01T09:08:56.369Z</time></trkpt><trkpt lat="45.6005688" lon="10.889263"><ele>806.6666666666667</ele><time>2026-05-01T09:08:57.369Z</time></trkpt><trkpt lat="45.6007621" lon="10.8891608"><ele>812.3333333333334</ele><time>2026-05-01T09:08:58.369Z</time></trkpt><trkpt lat="45.6009533" lon="10.8890621"><ele>818.0</ele><time>2026-05-01T09:08:59.369Z</time></trkpt><trkpt lat="45.6011465" lon="10.8889688"><ele>816.0</ele><time>2026-05-01T09:09:00.369Z</time></trkpt><trkpt lat="45.6013451" lon="10.8888835"><ele>814.0</ele><time>2026-05-01T09:09:01.369Z</time></trkpt><trkpt lat="45.6015547" lon="10.8888144"><ele>812.0</ele><time>2026-05-01T09:09:02.369Z</time></trkpt><trkpt lat="45.6017765" lon="10.8887581"><ele>809.0</ele><time>2026-05-01T09:09:03.369Z</time></trkpt><trkpt lat="45.6020123" lon="10.8886963"><ele>806.0</ele><time>2026-05-01T09:09:04.369Z</time></trkpt><trkpt lat="45.6022545" lon="10.8886205"><ele>806.0</ele><time>2026-05-01T09:09:05.369Z</time></trkpt><trkpt lat="45.602497" lon="10.8885385"><ele>806.0</ele><time>2026-05-01T09:09:06.369Z</time></trkpt><trkpt lat="45.6027151" lon="10.8884384"><ele>814.6666666666667</ele><time>2026-05-01T09:09:07.369Z</time></trkpt><trkpt lat="45.6029104" lon="10.8883278"><ele>823.3333333333333</ele><time>2026-05-01T09:09:08.369Z</time></trkpt><trkpt lat="45.6030865" lon="10.8882051"><ele>832.0</ele><time>2026-05-01T09:09:09.369Z</time></trkpt><trkpt lat="45.6032668" lon="10.8881049"><ele>832.0</ele><time>2026-05-01T09:09:10.369Z</time></trkpt><trkpt lat="45.6034468" lon="10.888047"><ele>832.0</ele><time>2026-05-01T09:09:11.369Z</time></trkpt><trkpt lat="45.6036291" lon="10.8880412"><ele>832.0</ele><time>2026-05-01T09:09:12.369Z</time></trkpt><trkpt lat="45.6037996" lon="10.8880914"><ele>834.6666666666666</ele><time>2026-05-01T09:09:13.369Z</time></trkpt><trkpt lat="45.6039665" lon="10.8881626"><ele>837.3333333333333</ele><time>2026-05-01T09:09:14.369Z</time></trkpt><trkpt lat="45.6041351" lon="10.888231"><ele>840.0</ele><time>2026-05-01T09:09:15.369Z</time></trkpt><trkpt lat="45.6043131" lon="10.8882732"><ele>841.3333333333333</ele><time>2026-05-01T09:09:16.369Z</time></trkpt><trkpt lat="45.6045169" lon="10.8882875"><ele>842.6666666666666</ele><time>2026-05-01T09:09:17.369Z</time></trkpt><trkpt lat="45.6047346" lon="10.8882728"><ele>844.0</ele><time>2026-05-01T09:09:18.369Z</time></trkpt><trkpt lat="45.6049459" lon="10.8882497"><ele>844.0</ele><time>2026-05-01T09:09:19.369Z</time></trkpt><trkpt lat="45.6051532" lon="10.8882071"><ele>844.0</ele><time>2026-05-01T09:09:20.369Z</time></trkpt><trkpt lat="45.6053506" lon="10.8881454"><ele>844.0</ele><time>2026-05-01T09:09:21.369Z</time></trkpt><trkpt lat="45.6055372" lon="10.8880747"><ele>844.3333333333333</ele><time>2026-05-01T09:09:22.369Z</time></trkpt><trkpt lat="45.605726" lon="10.8880183"><ele>844.6666666666667</ele><time>2026-05-01T09:09:23.369Z</time></trkpt><trkpt lat="45.6059172" lon="10.8880026"><ele>845.0</ele><time>2026-05-01T09:09:24.368Z</time></trkpt><trkpt lat="45.6061087" lon="10.8880398"><ele>849.3333333333334</ele><time>2026-05-01T09:09:25.367Z</time></trkpt><trkpt lat="45.6062903" lon="10.8881213"><ele>853.6666666666667</ele><time>2026-05-01T09:09:26.368Z</time></trkpt><trkpt lat="45.6064649" lon="10.8882249"><ele>858.0</ele><time>2026-05-01T09:09:27.368Z</time></trkpt><trkpt lat="45.6066474" lon="10.8883275"><ele>858.0</ele><time>2026-05-01T09:09:28.367Z</time></trkpt><trkpt lat="45.6068442" lon="10.8884033"><ele>858.0</ele><time>2026-05-01T09:09:29.367Z</time></trkpt><trkpt lat="45.607065" lon="10.8884426"><ele>858.0</ele><time>2026-05-01T09:09:30.367Z</time></trkpt><trkpt lat="45.6072954" lon="10.8884594"><ele>854.6666666666667</ele><time>2026-05-01T09:09:31.368Z</time></trkpt><trkpt lat="45.607517" lon="10.8884814"><ele>851.3333333333334</ele><time>2026-05-01T09:09:32.367Z</time></trkpt><trkpt lat="45.6077304" lon="10.888534"><ele>848.0</ele><time>2026-05-01T09:09:33.368Z</time></trkpt><trkpt lat="45.6079421" lon="10.8886054"><ele>848.0</ele><time>2026-05-01T09:09:34.368Z</time></trkpt><trkpt lat="45.6081565" lon="10.88867"><ele>848.0</ele><time>2026-05-01T09:09:35.368Z</time></trkpt><trkpt lat="45.6083785" lon="10.8887172"><ele>848.0</ele><time>2026-05-01T09:09:36.368Z</time></trkpt><trkpt lat="45.608601" lon="10.8887346"><ele>851.0</ele><time>2026-05-01T09:09:37.368Z</time></trkpt><trkpt lat="45.6088275" lon="10.8887517"><ele>854.0</ele><time>2026-05-01T09:09:38.368Z</time></trkpt><trkpt lat="45.6090514" lon="10.8887613"><ele>854.0</ele><time>2026-05-01T09:09:39.368Z</time></trkpt><trkpt lat="45.6092687" lon="10.8887602"><ele>854.0</ele><time>2026-05-01T09:09:40.368Z</time></trkpt><trkpt lat="45.6094795" lon="10.8887578"><ele>854.0</ele><time>2026-05-01T09:09:41.368Z</time></trkpt><trkpt lat="45.6096867" lon="10.8887731"><ele>858.3333333333334</ele><time>2026-05-01T09:09:42.368Z</time></trkpt><trkpt lat="45.6098902" lon="10.8887948"><ele>862.6666666666667</ele><time>2026-05-01T09:09:43.368Z</time></trkpt><trkpt lat="45.6100871" lon="10.8888164"><ele>867.0</ele><time>2026-05-01T09:09:44.368Z</time></trkpt><trkpt lat="45.6102774" lon="10.8888429"><ele>871.3333333333333</ele><time>2026-05-01T09:09:45.368Z</time></trkpt><trkpt lat="45.6104621" lon="10.8888674"><ele>875.6666666666666</ele><time>2026-05-01T09:09:46.368Z</time></trkpt><trkpt lat="45.6106405" lon="10.8888964"><ele>880.0</ele><time>2026-05-01T09:09:47.368Z</time></trkpt><trkpt lat="45.6108043" lon="10.8889245"><ele>880.0</ele><time>2026-05-01T09:09:48.368Z</time></trkpt><trkpt lat="45.6109528" lon="10.8889496"><ele>880.0</ele><time>2026-05-01T09:09:49.368Z</time></trkpt><trkpt lat="45.6110891" lon="10.8889715"><ele>880.0</ele><time>2026-05-01T09:09:50.368Z</time></trkpt><trkpt lat="45.611225" lon="10.8889945"><ele>880.0</ele><time>2026-05-01T09:09:51.368Z</time></trkpt><trkpt lat="45.6113568" lon="10.8890177"><ele>880.0</ele><time>2026-05-01T09:09:52.368Z</time></trkpt><trkpt lat="45.6114869" lon="10.88905"><ele>880.0</ele><time>2026-05-01T09:09:53.368Z</time></trkpt><trkpt lat="45.6116185" lon="10.8891055"><ele>880.0</ele><time>2026-05-01T09:09:54.368Z</time></trkpt><trkpt lat="45.611746" lon="10.8891835"><ele>880.0</ele><time>2026-05-01T09:09:55.368Z</time></trkpt><trkpt lat="45.611872" lon="10.8892839"><ele>883.75</ele><time>2026-05-01T09:09:56.367Z</time></trkpt><trkpt lat="45.6119919" lon="10.8893995"><ele>887.5</ele><time>2026-05-01T09:09:57.368Z</time></trkpt><trkpt lat="45.6121071" lon="10.8895252"><ele>891.25</ele><time>2026-05-01T09:09:58.368Z</time></trkpt><trkpt lat="45.612223" lon="10.8896603"><ele>895.0</ele><time>2026-05-01T09:09:59.368Z</time></trkpt><trkpt lat="45.6123385" lon="10.8898049"><ele>895.0</ele><time>2026-05-01T09:10:00.368Z</time></trkpt><trkpt lat="45.6124517" lon="10.8899614"><ele>895.0</ele><time>2026-05-01T09:10:01.367Z</time></trkpt><trkpt lat="45.6125574" lon="10.8901275"><ele>895.0</ele><time>2026-05-01T09:10:02.368Z</time></trkpt><trkpt lat="45.6126693" lon="10.8902975"><ele>890.6666666666666</ele><time>2026-05-01T09:10:03.368Z</time></trkpt><trkpt lat="45.6127864" lon="10.8904791"><ele>886.3333333333333</ele><time>2026-05-01T09:10:04.368Z</time></trkpt><trkpt lat="45.6129009" lon="10.8906744"><ele>882.0</ele><time>2026-05-01T09:10:05.368Z</time></trkpt><trkpt lat="45.6130254" lon="10.8908905"><ele>886.3333333333333</ele><time>2026-05-01T09:10:06.368Z</time></trkpt><trkpt lat="45.6131551" lon="10.8911038"><ele>890.6666666666666</ele><time>2026-05-01T09:10:07.368Z</time></trkpt><trkpt lat="45.6132927" lon="10.8913139"><ele>895.0</ele><time>2026-05-01T09:10:08.368Z</time></trkpt><trkpt lat="45.6134569" lon="10.8915207"><ele>895.0</ele><time>2026-05-01T09:10:09.367Z</time></trkpt><trkpt lat="45.6136469" lon="10.8917103"><ele>895.0</ele><time>2026-05-01T09:10:10.368Z</time></trkpt><trkpt lat="45.6138313" lon="10.8918768"><ele>900.3333333333333</ele><time>2026-05-01T09:10:11.368Z</time></trkpt><trkpt lat="45.6139892" lon="10.8920338"><ele>905.6666666666667</ele><time>2026-05-01T09:10:12.368Z</time></trkpt><trkpt lat="45.6141151" lon="10.8922128"><ele>911.0</ele><time>2026-05-01T09:10:13.368Z</time></trkpt><trkpt lat="45.614205" lon="10.8924306"><ele>907.3333333333334</ele><time>2026-05-01T09:10:14.368Z</time></trkpt><trkpt lat="45.6142384" lon="10.8926974"><ele>903.6666666666667</ele><time>2026-05-01T09:10:15.368Z</time></trkpt><trkpt lat="45.6142639" lon="10.8929779"><ele>900.0</ele><time>2026-05-01T09:10:16.368Z</time></trkpt><trkpt lat="45.6142905" lon="10.8932805"><ele>900.3333333333333</ele><time>2026-05-01T09:10:17.368Z</time></trkpt><trkpt lat="45.6143248" lon="10.8935817"><ele>900.6666666666666</ele><time>2026-05-01T09:10:18.367Z</time></trkpt><trkpt lat="45.6143811" lon="10.8938729"><ele>901.0</ele><time>2026-05-01T09:10:19.367Z</time></trkpt><trkpt lat="45.614451" lon="10.8941488"><ele>902.6666666666666</ele><time>2026-05-01T09:10:20.368Z</time></trkpt><trkpt lat="45.6145373" lon="10.8944041"><ele>904.3333333333333</ele><time>2026-05-01T09:10:21.368Z</time></trkpt><trkpt lat="45.6146395" lon="10.8946312"><ele>906.0</ele><time>2026-05-01T09:10:22.368Z</time></trkpt><trkpt lat="45.6147551" lon="10.8948371"><ele>906.0</ele><time>2026-05-01T09:10:23.368Z</time></trkpt><trkpt lat="45.6148769" lon="10.8950414"><ele>906.0</ele><time>2026-05-01T09:10:24.368Z</time></trkpt><trkpt lat="45.6150045" lon="10.8952304"><ele>906.0</ele><time>2026-05-01T09:10:25.368Z</time></trkpt><trkpt lat="45.6151422" lon="10.8953991"><ele>905.0</ele><time>2026-05-01T09:10:26.368Z</time></trkpt><trkpt lat="45.615296" lon="10.8955421"><ele>904.0</ele><time>2026-05-01T09:10:27.368Z</time></trkpt><trkpt lat="45.6154839" lon="10.8956501"><ele>903.0</ele><time>2026-05-01T09:10:28.368Z</time></trkpt><trkpt lat="45.6156899" lon="10.8957248"><ele>900.6666666666667</ele><time>2026-05-01T09:10:29.368Z</time></trkpt><trkpt lat="45.6158856" lon="10.8957859"><ele>898.3333333333334</ele><time>2026-05-01T09:10:30.368Z</time></trkpt><trkpt lat="45.6160691" lon="10.8958723"><ele>896.0</ele><time>2026-05-01T09:10:31.368Z</time></trkpt><trkpt lat="45.6162531" lon="10.8959959"><ele>893.3333333333334</ele><time>2026-05-01T09:10:32.368Z</time></trkpt><trkpt lat="45.6164394" lon="10.8961346"><ele>890.6666666666667</ele><time>2026-05-01T09:10:33.367Z</time></trkpt><trkpt lat="45.6166205" lon="10.8962689"><ele>888.0</ele><time>2026-05-01T09:10:34.368Z</time></trkpt><trkpt lat="45.6168032" lon="10.8964044"><ele>888.0</ele><time>2026-05-01T09:10:35.368Z</time></trkpt><trkpt lat="45.6169849" lon="10.8965389"><ele>888.0</ele><time>2026-05-01T09:10:36.367Z</time></trkpt><trkpt lat="45.6171682" lon="10.8966703"><ele>888.0</ele><time>2026-05-01T09:10:37.367Z</time></trkpt><trkpt lat="45.6173414" lon="10.8968031"><ele>881.6666666666667</ele><time>2026-05-01T09:10:38.367Z</time></trkpt><trkpt lat="45.6175047" lon="10.8969304"><ele>875.3333333333334</ele><time>2026-05-01T09:10:39.368Z</time></trkpt><trkpt lat="45.6176552" lon="10.897054"><ele>869.0</ele><time>2026-05-01T09:10:40.368Z</time></trkpt><trkpt lat="45.6177995" lon="10.8971557"><ele>867.0</ele><time>2026-05-01T09:10:41.368Z</time></trkpt><trkpt lat="45.6179385" lon="10.8972162"><ele>865.0</ele><time>2026-05-01T09:10:42.368Z</time></trkpt><trkpt lat="45.6180753" lon="10.8972116"><ele>863.0</ele><time>2026-05-01T09:10:43.368Z</time></trkpt><trkpt lat="45.6182037" lon="10.8971371"><ele>861.0</ele><time>2026-05-01T09:10:44.368Z</time></trkpt><trkpt lat="45.6183193" lon="10.896993"><ele>861.0</ele><time>2026-05-01T09:10:45.367Z</time></trkpt><trkpt lat="45.6184287" lon="10.896816"><ele>861.0</ele><time>2026-05-01T09:10:46.367Z</time></trkpt><trkpt lat="45.61853" lon="10.8966384"><ele>861.0</ele><time>2026-05-01T09:10:47.368Z</time></trkpt><trkpt lat="45.6186404" lon="10.8964808"><ele>859.3333333333333</ele><time>2026-05-01T09:10:48.368Z</time></trkpt><trkpt lat="45.6187716" lon="10.8963541"><ele>857.6666666666666</ele><time>2026-05-01T09:10:49.368Z</time></trkpt><trkpt lat="45.6189292" lon="10.8962534"><ele>856.0</ele><time>2026-05-01T09:10:50.368Z</time></trkpt><trkpt lat="45.6190908" lon="10.8961779"><ele>856.0</ele><time>2026-05-01T09:10:51.368Z</time></trkpt><trkpt lat="45.6192469" lon="10.8961394"><ele>856.0</ele><time>2026-05-01T09:10:52.368Z</time></trkpt><trkpt lat="45.6194073" lon="10.8961591"><ele>856.0</ele><time>2026-05-01T09:10:53.368Z</time></trkpt><trkpt lat="45.6195657" lon="10.8962456"><ele>856.3333333333333</ele><time>2026-05-01T09:10:54.368Z</time></trkpt><trkpt lat="45.6197067" lon="10.8963747"><ele>856.6666666666667</ele><time>2026-05-01T09:10:55.367Z</time></trkpt><trkpt lat="45.6198273" lon="10.8965428"><ele>857.0</ele><time>2026-05-01T09:10:56.368Z</time></trkpt><trkpt lat="45.6199294" lon="10.8967368"><ele>853.6666666666667</ele><time>2026-05-01T09:10:57.368Z</time></trkpt><trkpt lat="45.6200285" lon="10.8969417"><ele>850.3333333333333</ele><time>2026-05-01T09:10:58.368Z</time></trkpt><trkpt lat="45.6201299" lon="10.8971405"><ele>847.0</ele><time>2026-05-01T09:10:59.368Z</time></trkpt><trkpt lat="45.6202384" lon="10.8973523"><ele>847.0</ele><time>2026-05-01T09:11:00.368Z</time></trkpt><trkpt lat="45.6203476" lon="10.8975701"><ele>847.0</ele><time>2026-05-01T09:11:01.368Z</time></trkpt><trkpt lat="45.6204524" lon="10.8977847"><ele>847.0</ele><time>2026-05-01T09:11:02.368Z</time></trkpt><trkpt lat="45.6205584" lon="10.8979935"><ele>847.0</ele><time>2026-05-01T09:11:03.368Z</time></trkpt><trkpt lat="45.6206623" lon="10.8982037"><ele>847.0</ele><time>2026-05-01T09:11:04.368Z</time></trkpt><trkpt lat="45.6207619" lon="10.8984059"><ele>847.0</ele><time>2026-05-01T09:11:05.368Z</time></trkpt><trkpt lat="45.6208604" lon="10.8986076"><ele>846.0</ele><time>2026-05-01T09:11:06.368Z</time></trkpt><trkpt lat="45.6209524" lon="10.8988171"><ele>845.0</ele><time>2026-05-01T09:11:07.368Z</time></trkpt><trkpt lat="45.6210359" lon="10.8990352"><ele>844.0</ele><time>2026-05-01T09:11:08.367Z</time></trkpt><trkpt lat="45.6211109" lon="10.8992373"><ele>845.6666666666666</ele><time>2026-05-01T09:11:09.368Z</time></trkpt><trkpt lat="45.6211823" lon="10.8994369"><ele>847.3333333333333</ele><time>2026-05-01T09:11:10.367Z</time></trkpt><trkpt lat="45.6212503" lon="10.8996416"><ele>849.0</ele><time>2026-05-01T09:11:11.368Z</time></trkpt><trkpt lat="45.6213173" lon="10.8998496"><ele>849.0</ele><time>2026-05-01T09:11:12.368Z</time></trkpt><trkpt lat="45.6213836" lon="10.9000598"><ele>849.0</ele><time>2026-05-01T09:11:13.368Z</time></trkpt><trkpt lat="45.6214517" lon="10.9002698"><ele>849.0</ele><time>2026-05-01T09:11:14.368Z</time></trkpt><trkpt lat="45.6215247" lon="10.900477"><ele>848.6666666666667</ele><time>2026-05-01T09:11:15.368Z</time></trkpt><trkpt lat="45.6216026" lon="10.9006822"><ele>848.3333333333334</ele><time>2026-05-01T09:11:16.368Z</time></trkpt><trkpt lat="45.6216821" lon="10.9008792"><ele>848.0</ele><time>2026-05-01T09:11:17.368Z</time></trkpt><trkpt lat="45.621762" lon="10.9010677"><ele>849.0</ele><time>2026-05-01T09:11:18.367Z</time></trkpt><trkpt lat="45.6218419" lon="10.9012462"><ele>850.0</ele><time>2026-05-01T09:11:19.368Z</time></trkpt><trkpt lat="45.6219205" lon="10.9014128"><ele>851.0</ele><time>2026-05-01T09:11:20.368Z</time></trkpt><trkpt lat="45.6219984" lon="10.9015732"><ele>852.0</ele><time>2026-05-01T09:11:21.368Z</time></trkpt><trkpt lat="45.6220734" lon="10.9017441"><ele>850.75</ele><time>2026-05-01T09:11:22.368Z</time></trkpt><trkpt lat="45.6221393" lon="10.9019121"><ele>849.5</ele><time>2026-05-01T09:11:23.367Z</time></trkpt><trkpt lat="45.6221898" lon="10.9020781"><ele>848.25</ele><time>2026-05-01T09:11:24.368Z</time></trkpt><trkpt lat="45.6222264" lon="10.9022558"><ele>847.0</ele><time>2026-05-01T09:11:25.368Z</time></trkpt><trkpt lat="45.6222569" lon="10.902449"><ele>845.5</ele><time>2026-05-01T09:11:26.368Z</time></trkpt><trkpt lat="45.6222866" lon="10.902651"><ele>844.0</ele><time>2026-05-01T09:11:27.368Z</time></trkpt><trkpt lat="45.6223168" lon="10.9028579"><ele>842.5</ele><time>2026-05-01T09:11:28.368Z</time></trkpt><trkpt lat="45.6223471" lon="10.9030615"><ele>841.0</ele><time>2026-05-01T09:11:29.367Z</time></trkpt><trkpt lat="45.6223751" lon="10.9032739"><ele>840.3333333333333</ele><time>2026-05-01T09:11:30.368Z</time></trkpt><trkpt lat="45.6224038" lon="10.9034877"><ele>839.6666666666667</ele><time>2026-05-01T09:11:31.368Z</time></trkpt><trkpt lat="45.6224305" lon="10.9037045"><ele>839.0</ele><time>2026-05-01T09:11:32.368Z</time></trkpt><trkpt lat="45.6224585" lon="10.9039229"><ele>839.0</ele><time>2026-05-01T09:11:33.368Z</time></trkpt><trkpt lat="45.6224886" lon="10.904134"><ele>839.0</ele><time>2026-05-01T09:11:34.368Z</time></trkpt><trkpt lat="45.6225201" lon="10.9043402"><ele>839.0</ele><time>2026-05-01T09:11:35.368Z</time></trkpt><trkpt lat="45.62255" lon="10.9045419"><ele>839.0</ele><time>2026-05-01T09:11:36.368Z</time></trkpt><trkpt lat="45.62258" lon="10.9047431"><ele>838.75</ele><time>2026-05-01T09:11:37.367Z</time></trkpt><trkpt lat="45.622613" lon="10.9049399"><ele>838.5</ele><time>2026-05-01T09:11:38.368Z</time></trkpt><trkpt lat="45.6226431" lon="10.9051381"><ele>838.25</ele><time>2026-05-01T09:11:39.368Z</time></trkpt><trkpt lat="45.6226719" lon="10.9053367"><ele>838.0</ele><time>2026-05-01T09:11:40.368Z</time></trkpt><trkpt lat="45.6227021" lon="10.9055398"><ele>837.0</ele><time>2026-05-01T09:11:41.368Z</time></trkpt><trkpt lat="45.6227319" lon="10.9057483"><ele>836.0</ele><time>2026-05-01T09:11:42.368Z</time></trkpt><trkpt lat="45.6227606" lon="10.905963"><ele>835.0</ele><time>2026-05-01T09:11:43.368Z</time></trkpt><trkpt lat="45.6227914" lon="10.9061813"><ele>840.6666666666666</ele><time>2026-05-01T09:11:44.368Z</time></trkpt><trkpt lat="45.6228207" lon="10.906406"><ele>846.3333333333333</ele><time>2026-05-01T09:11:45.368Z</time></trkpt><trkpt lat="45.6228479" lon="10.9066374"><ele>852.0</ele><time>2026-05-01T09:11:46.367Z</time></trkpt><trkpt lat="45.6228609" lon="10.9068924"><ele>854.3333333333333</ele><time>2026-05-01T09:11:47.368Z</time></trkpt><trkpt lat="45.6228517" lon="10.9071579"><ele>856.6666666666666</ele><time>2026-05-01T09:11:48.368Z</time></trkpt><trkpt lat="45.6228319" lon="10.9074191"><ele>859.0</ele><time>2026-05-01T09:11:49.368Z</time></trkpt><trkpt lat="45.6228166" lon="10.9076777"><ele>859.0</ele><time>2026-05-01T09:11:50.368Z</time></trkpt><trkpt lat="45.6228053" lon="10.907935"><ele>859.0</ele><time>2026-05-01T09:11:51.368Z</time></trkpt><trkpt lat="45.622816" lon="10.9081956"><ele>859.0</ele><time>2026-05-01T09:11:52.368Z</time></trkpt><trkpt lat="45.6228635" lon="10.9084542"><ele>857.0</ele><time>2026-05-01T09:11:53.368Z</time></trkpt><trkpt lat="45.6229497" lon="10.908705"><ele>855.0</ele><time>2026-05-01T09:11:54.368Z</time></trkpt><trkpt lat="45.6230583" lon="10.9089676"><ele>853.0</ele><time>2026-05-01T09:11:55.367Z</time></trkpt><trkpt lat="45.6231735" lon="10.909246"><ele>850.6666666666666</ele><time>2026-05-01T09:11:56.367Z</time></trkpt><trkpt lat="45.6232756" lon="10.9095297"><ele>848.3333333333333</ele><time>2026-05-01T09:11:57.367Z</time></trkpt><trkpt lat="45.6233698" lon="10.9098018"><ele>846.0</ele><time>2026-05-01T09:11:58.368Z</time></trkpt><trkpt lat="45.6234722" lon="10.9100446"><ele>843.6666666666667</ele><time>2026-05-01T09:11:59.368Z</time></trkpt><trkpt lat="45.6236021" lon="10.9102501"><ele>841.3333333333334</ele><time>2026-05-01T09:12:00.367Z</time></trkpt><trkpt lat="45.6237769" lon="10.9104052"><ele>839.0</ele><time>2026-05-01T09:12:01.368Z</time></trkpt><trkpt lat="45.6239819" lon="10.9105302"><ele>849.0</ele><time>2026-05-01T09:12:02.368Z</time></trkpt><trkpt lat="45.6242029" lon="10.9106433"><ele>859.0</ele><time>2026-05-01T09:12:03.368Z</time></trkpt><trkpt lat="45.6244227" lon="10.9107543"><ele>858.0</ele><time>2026-05-01T09:12:04.368Z</time></trkpt><trkpt lat="45.624639" lon="10.9108691"><ele>857.0</ele><time>2026-05-01T09:12:05.368Z</time></trkpt><trkpt lat="45.6248407" lon="10.9109836"><ele>856.0</ele><time>2026-05-01T09:12:06.368Z</time></trkpt><trkpt lat="45.6250405" lon="10.9110799"><ele>856.0</ele><time>2026-05-01T09:12:07.368Z</time></trkpt><trkpt lat="45.625243" lon="10.9111669"><ele>856.0</ele><time>2026-05-01T09:12:08.367Z</time></trkpt><trkpt lat="45.6254494" lon="10.9112295"><ele>856.0</ele><time>2026-05-01T09:12:09.368Z</time></trkpt><trkpt lat="45.6256525" lon="10.9112713"><ele>860.3333333333333</ele><time>2026-05-01T09:12:10.368Z</time></trkpt><trkpt lat="45.6258555" lon="10.9112955"><ele>864.6666666666667</ele><time>2026-05-01T09:12:11.368Z</time></trkpt><trkpt lat="45.6260624" lon="10.911279"><ele>869.0</ele><time>2026-05-01T09:12:12.368Z</time></trkpt><trkpt lat="45.6262786" lon="10.9112165"><ele>869.5</ele><time>2026-05-01T09:12:13.367Z</time></trkpt><trkpt lat="45.6265021" lon="10.9111309"><ele>870.0</ele><time>2026-05-01T09:12:14.368Z</time></trkpt><trkpt lat="45.6267164" lon="10.9110395"><ele>870.0</ele><time>2026-05-01T09:12:15.368Z</time></trkpt><trkpt lat="45.6269105" lon="10.9109643"><ele>870.0</ele><time>2026-05-01T09:12:16.368Z</time></trkpt><trkpt lat="45.6270899" lon="10.9109195"><ele>870.0</ele><time>2026-05-01T09:12:17.368Z</time></trkpt><trkpt lat="45.6272515" lon="10.910923"><ele>872.3333333333333</ele><time>2026-05-01T09:12:18.368Z</time></trkpt><trkpt lat="45.6274045" lon="10.9109839"><ele>874.6666666666666</ele><time>2026-05-01T09:12:19.368Z</time></trkpt><trkpt lat="45.6275466" lon="10.9110799"><ele>877.0</ele><time>2026-05-01T09:12:20.368Z</time></trkpt><trkpt lat="45.6276854" lon="10.9111762"><ele>881.6666666666666</ele><time>2026-05-01T09:12:21.367Z</time></trkpt><trkpt lat="45.6278239" lon="10.9112745"><ele>886.3333333333333</ele><time>2026-05-01T09:12:22.368Z</time></trkpt><trkpt lat="45.6279608" lon="10.9113923"><ele>891.0</ele><time>2026-05-01T09:12:23.368Z</time></trkpt><trkpt lat="45.6280942" lon="10.9115439"><ele>891.0</ele><time>2026-05-01T09:12:24.368Z</time></trkpt><trkpt lat="45.6282261" lon="10.9117159"><ele>891.0</ele><time>2026-05-01T09:12:25.368Z</time></trkpt><trkpt lat="45.6283539" lon="10.9118986"><ele>891.0</ele><time>2026-05-01T09:12:26.368Z</time></trkpt><trkpt lat="45.6284803" lon="10.9120929"><ele>888.6666666666667</ele><time>2026-05-01T09:12:27.368Z</time></trkpt><trkpt lat="45.6285976" lon="10.912306"><ele>886.3333333333334</ele><time>2026-05-01T09:12:28.368Z</time></trkpt><trkpt lat="45.6287085" lon="10.9125309"><ele>884.0</ele><time>2026-05-01T09:12:29.368Z</time></trkpt><trkpt lat="45.6288215" lon="10.9127543"><ele>890.3333333333334</ele><time>2026-05-01T09:12:30.368Z</time></trkpt><trkpt lat="45.6289325" lon="10.9129648"><ele>896.6666666666667</ele><time>2026-05-01T09:12:31.368Z</time></trkpt><trkpt lat="45.6290374" lon="10.9131606"><ele>903.0</ele><time>2026-05-01T09:12:32.368Z</time></trkpt><trkpt lat="45.6291373" lon="10.9133484"><ele>901.0</ele><time>2026-05-01T09:12:33.368Z</time></trkpt><trkpt lat="45.6292354" lon="10.9135304"><ele>899.0</ele><time>2026-05-01T09:12:34.368Z</time></trkpt><trkpt lat="45.629329" lon="10.9137055"><ele>897.0</ele><time>2026-05-01T09:12:35.367Z</time></trkpt><trkpt lat="45.6294207" lon="10.9138785"><ele>900.3333333333333</ele><time>2026-05-01T09:12:36.368Z</time></trkpt><trkpt lat="45.6295209" lon="10.9140426"><ele>903.6666666666666</ele><time>2026-05-01T09:12:37.368Z</time></trkpt><trkpt lat="45.6296338" lon="10.9141824"><ele>907.0</ele><time>2026-05-01T09:12:38.368Z</time></trkpt><trkpt lat="45.6297638" lon="10.914289"><ele>907.0</ele><time>2026-05-01T09:12:39.367Z</time></trkpt><trkpt lat="45.6299028" lon="10.9143737"><ele>907.0</ele><time>2026-05-01T09:12:40.368Z</time></trkpt><trkpt lat="45.6300348" lon="10.9144585"><ele>907.0</ele><time>2026-05-01T09:12:41.368Z</time></trkpt><trkpt lat="45.6301485" lon="10.9145652"><ele>907.0</ele><time>2026-05-01T09:12:42.368Z</time></trkpt><trkpt lat="45.6302424" lon="10.9147166"><ele>905.6666666666666</ele><time>2026-05-01T09:12:43.368Z</time></trkpt><trkpt lat="45.6303213" lon="10.914898"><ele>904.3333333333333</ele><time>2026-05-01T09:12:44.368Z</time></trkpt><trkpt lat="45.6303963" lon="10.9151048"><ele>903.0</ele><time>2026-05-01T09:12:45.368Z</time></trkpt><trkpt lat="45.630468" lon="10.9153292"><ele>903.0</ele><time>2026-05-01T09:12:46.368Z</time></trkpt><trkpt lat="45.6305444" lon="10.9155563"><ele>903.0</ele><time>2026-05-01T09:12:47.368Z</time></trkpt><trkpt lat="45.6306182" lon="10.9157775"><ele>903.0</ele><time>2026-05-01T09:12:48.368Z</time></trkpt><trkpt lat="45.6306931" lon="10.9160104"><ele>904.0</ele><time>2026-05-01T09:12:49.368Z</time></trkpt><trkpt lat="45.6307666" lon="10.9162348"><ele>905.0</ele><time>2026-05-01T09:12:50.367Z</time></trkpt><trkpt lat="45.6308417" lon="10.9164493"><ele>906.0</ele><time>2026-05-01T09:12:51.367Z</time></trkpt><trkpt lat="45.6309154" lon="10.9166618"><ele>906.3333333333333</ele><time>2026-05-01T09:12:52.368Z</time></trkpt><trkpt lat="45.6309947" lon="10.916866"><ele>906.6666666666666</ele><time>2026-05-01T09:12:53.368Z</time></trkpt><trkpt lat="45.6310801" lon="10.9170604"><ele>907.0</ele><time>2026-05-01T09:12:54.368Z</time></trkpt><trkpt lat="45.6311701" lon="10.9172531"><ele>907.0</ele><time>2026-05-01T09:12:55.368Z</time></trkpt><trkpt lat="45.631265" lon="10.9174399"><ele>907.0</ele><time>2026-05-01T09:12:56.367Z</time></trkpt><trkpt lat="45.6313664" lon="10.9176189"><ele>907.0</ele><time>2026-05-01T09:12:57.368Z</time></trkpt><trkpt lat="45.6314744" lon="10.9177917"><ele>908.6666666666666</ele><time>2026-05-01T09:12:58.368Z</time></trkpt><trkpt lat="45.6315853" lon="10.9179583"><ele>910.3333333333333</ele><time>2026-05-01T09:12:59.367Z</time></trkpt><trkpt lat="45.6317016" lon="10.918122"><ele>912.0</ele><time>2026-05-01T09:13:00.367Z</time></trkpt><trkpt lat="45.6318216" lon="10.9182839"><ele>913.3333333333333</ele><time>2026-05-01T09:13:01.368Z</time></trkpt><trkpt lat="45.6319432" lon="10.9184409"><ele>914.6666666666666</ele><time>2026-05-01T09:13:02.368Z</time></trkpt><trkpt lat="45.6320652" lon="10.9186"><ele>916.0</ele><time>2026-05-01T09:13:03.368Z</time></trkpt><trkpt lat="45.6321868" lon="10.9187647"><ele>917.0</ele><time>2026-05-01T09:13:04.368Z</time></trkpt><trkpt lat="45.6323051" lon="10.9189341"><ele>918.0</ele><time>2026-05-01T09:13:05.368Z</time></trkpt><trkpt lat="45.6324202" lon="10.9191028"><ele>919.0</ele><time>2026-05-01T09:13:06.368Z</time></trkpt><trkpt lat="45.632535" lon="10.919271"><ele>920.6666666666666</ele><time>2026-05-01T09:13:07.368Z</time></trkpt><trkpt lat="45.6326529" lon="10.9194367"><ele>922.3333333333333</ele><time>2026-05-01T09:13:08.368Z</time></trkpt><trkpt lat="45.6327705" lon="10.9196019"><ele>924.0</ele><time>2026-05-01T09:13:09.368Z</time></trkpt><trkpt lat="45.6328977" lon="10.9197667"><ele>925.0</ele><time>2026-05-01T09:13:10.367Z</time></trkpt><trkpt lat="45.633022" lon="10.9199368"><ele>926.0</ele><time>2026-05-01T09:13:11.367Z</time></trkpt><trkpt lat="45.6331455" lon="10.9201026"><ele>927.0</ele><time>2026-05-01T09:13:12.368Z</time></trkpt><trkpt lat="45.633267" lon="10.9202667"><ele>928.6666666666667</ele><time>2026-05-01T09:13:13.368Z</time></trkpt><trkpt lat="45.6333919" lon="10.9204214"><ele>930.3333333333334</ele><time>2026-05-01T09:13:14.368Z</time></trkpt><trkpt lat="45.6335231" lon="10.9205596"><ele>932.0</ele><time>2026-05-01T09:13:15.368Z</time></trkpt><trkpt lat="45.6336612" lon="10.9206823"><ele>932.0</ele><time>2026-05-01T09:13:16.368Z</time></trkpt><trkpt lat="45.6338033" lon="10.9207874"><ele>932.0</ele><time>2026-05-01T09:13:17.368Z</time></trkpt><trkpt lat="45.633942" lon="10.9208976"><ele>932.0</ele><time>2026-05-01T09:13:18.368Z</time></trkpt><trkpt lat="45.6340772" lon="10.9210109"><ele>934.0</ele><time>2026-05-01T09:13:19.368Z</time></trkpt><trkpt lat="45.6342163" lon="10.9211087"><ele>936.0</ele><time>2026-05-01T09:13:20.368Z</time></trkpt><trkpt lat="45.6343503" lon="10.9212215"><ele>938.0</ele><time>2026-05-01T09:13:21.368Z</time></trkpt><trkpt lat="45.6344839" lon="10.9213286"><ele>938.3333333333334</ele><time>2026-05-01T09:13:22.368Z</time></trkpt><trkpt lat="45.634617" lon="10.9214351"><ele>938.6666666666667</ele><time>2026-05-01T09:13:23.368Z</time></trkpt><trkpt lat="45.634753" lon="10.9215319"><ele>939.0</ele><time>2026-05-01T09:13:24.368Z</time></trkpt><trkpt lat="45.6348939" lon="10.9216175"><ele>939.0</ele><time>2026-05-01T09:13:25.368Z</time></trkpt><trkpt lat="45.6350404" lon="10.9216892"><ele>939.0</ele><time>2026-05-01T09:13:26.367Z</time></trkpt><trkpt lat="45.6351845" lon="10.9217578"><ele>939.0</ele><time>2026-05-01T09:13:27.368Z</time></trkpt><trkpt lat="45.6353314" lon="10.9218145"><ele>941.25</ele><time>2026-05-01T09:13:28.368Z</time></trkpt><trkpt lat="45.6354767" lon="10.921861"><ele>943.5</ele><time>2026-05-01T09:13:29.367Z</time></trkpt><trkpt lat="45.635623" lon="10.921905"><ele>945.75</ele><time>2026-05-01T09:13:30.368Z</time></trkpt><trkpt lat="45.6357687" lon="10.9219424"><ele>948.0</ele><time>2026-05-01T09:13:31.368Z</time></trkpt><trkpt lat="45.6359107" lon="10.9219669"><ele>948.0</ele><time>2026-05-01T09:13:32.368Z</time></trkpt><trkpt lat="45.6360522" lon="10.9219822"><ele>948.0</ele><time>2026-05-01T09:13:33.368Z</time></trkpt><trkpt lat="45.6361982" lon="10.9219883"><ele>948.0</ele><time>2026-05-01T09:13:34.368Z</time></trkpt><trkpt lat="45.6363475" lon="10.9219906"><ele>948.0</ele><time>2026-05-01T09:13:35.368Z</time></trkpt><trkpt lat="45.6364931" lon="10.9220072"><ele>949.75</ele><time>2026-05-01T09:13:36.368Z</time></trkpt><trkpt lat="45.6366307" lon="10.9220259"><ele>951.5</ele><time>2026-05-01T09:13:37.367Z</time></trkpt><trkpt lat="45.6367684" lon="10.9220408"><ele>953.25</ele><time>2026-05-01T09:13:38.367Z</time></trkpt><trkpt lat="45.636905" lon="10.9220507"><ele>955.0</ele><time>2026-05-01T09:13:39.368Z</time></trkpt><trkpt lat="45.6370386" lon="10.9220668"><ele>955.0</ele><time>2026-05-01T09:13:40.367Z</time></trkpt><trkpt lat="45.637173" lon="10.9220884"><ele>955.0</ele><time>2026-05-01T09:13:41.368Z</time></trkpt><trkpt lat="45.6373093" lon="10.9221154"><ele>955.0</ele><time>2026-05-01T09:13:42.367Z</time></trkpt><trkpt lat="45.6374384" lon="10.9221564"><ele>955.0</ele><time>2026-05-01T09:13:43.368Z</time></trkpt><trkpt lat="45.6375652" lon="10.9222202"><ele>955.0</ele><time>2026-05-01T09:13:44.368Z</time></trkpt><trkpt lat="45.6376923" lon="10.9222877"><ele>955.0</ele><time>2026-05-01T09:13:45.368Z</time></trkpt><trkpt lat="45.637827" lon="10.9223739"><ele>955.0</ele><time>2026-05-01T09:13:46.367Z</time></trkpt><trkpt lat="45.6379664" lon="10.9224729"><ele>955.0</ele><time>2026-05-01T09:13:47.368Z</time></trkpt><trkpt lat="45.6381122" lon="10.9225826"><ele>956.0</ele><time>2026-05-01T09:13:48.368Z</time></trkpt><trkpt lat="45.6382592" lon="10.9226951"><ele>957.0</ele><time>2026-05-01T09:13:49.368Z</time></trkpt><trkpt lat="45.6384111" lon="10.9228139"><ele>958.0</ele><time>2026-05-01T09:13:50.367Z</time></trkpt><trkpt lat="45.638562" lon="10.9229384"><ele>956.6666666666666</ele><time>2026-05-01T09:13:51.368Z</time></trkpt><trkpt lat="45.6387198" lon="10.9230652"><ele>955.3333333333333</ele><time>2026-05-01T09:13:52.368Z</time></trkpt><trkpt lat="45.6388861" lon="10.9231968"><ele>954.0</ele><time>2026-05-01T09:13:53.368Z</time></trkpt><trkpt lat="45.6390547" lon="10.9233276"><ele>956.3333333333333</ele><time>2026-05-01T09:13:54.368Z</time></trkpt><trkpt lat="45.6392218" lon="10.9234564"><ele>958.6666666666666</ele><time>2026-05-01T09:13:55.367Z</time></trkpt><trkpt lat="45.6393818" lon="10.9235836"><ele>961.0</ele><time>2026-05-01T09:13:56.368Z</time></trkpt><trkpt lat="45.6395377" lon="10.9237105"><ele>961.0</ele><time>2026-05-01T09:13:57.368Z</time></trkpt><trkpt lat="45.6396888" lon="10.9238303"><ele>961.0</ele><time>2026-05-01T09:13:58.368Z</time></trkpt><trkpt lat="45.6398404" lon="10.9239468"><ele>961.0</ele><time>2026-05-01T09:13:59.367Z</time></trkpt><trkpt lat="45.6399912" lon="10.9240602"><ele>961.0</ele><time>2026-05-01T09:14:00.368Z</time></trkpt><trkpt lat="45.6401372" lon="10.9241733"><ele>961.0</ele><time>2026-05-01T09:14:01.368Z</time></trkpt><trkpt lat="45.6402792" lon="10.9242892"><ele>961.0</ele><time>2026-05-01T09:14:02.368Z</time></trkpt><trkpt lat="45.6404204" lon="10.9244061"><ele>963.6666666666666</ele><time>2026-05-01T09:14:03.368Z</time></trkpt><trkpt lat="45.6405646" lon="10.9245247"><ele>966.3333333333333</ele><time>2026-05-01T09:14:04.368Z</time></trkpt><trkpt lat="45.6407104" lon="10.924646"><ele>969.0</ele><time>2026-05-01T09:14:05.368Z</time></trkpt><trkpt lat="45.640854" lon="10.9247739"><ele>969.0</ele><time>2026-05-01T09:14:06.368Z</time></trkpt><trkpt lat="45.6409849" lon="10.924926"><ele>969.0</ele><time>2026-05-01T09:14:07.368Z</time></trkpt><trkpt lat="45.6410896" lon="10.9251036"><ele>969.0</ele><time>2026-05-01T09:14:08.368Z</time></trkpt><trkpt lat="45.6411569" lon="10.9253089"><ele>971.0</ele><time>2026-05-01T09:14:09.368Z</time></trkpt><trkpt lat="45.6411966" lon="10.9255389"><ele>973.0</ele><time>2026-05-01T09:14:10.368Z</time></trkpt><trkpt lat="45.6412242" lon="10.9257734"><ele>975.0</ele><time>2026-05-01T09:14:11.368Z</time></trkpt><trkpt lat="45.6412551" lon="10.9259978"><ele>975.0</ele><time>2026-05-01T09:14:12.368Z</time></trkpt><trkpt lat="45.6412982" lon="10.9261876"><ele>975.0</ele><time>2026-05-01T09:14:13.368Z</time></trkpt><trkpt lat="45.6413702" lon="10.9263369"><ele>975.0</ele><time>2026-05-01T09:14:14.368Z</time></trkpt><trkpt lat="45.6414629" lon="10.9264379"><ele>975.0</ele><time>2026-05-01T09:14:15.368Z</time></trkpt><trkpt lat="45.6415636" lon="10.9264764"><ele>975.0</ele><time>2026-05-01T09:14:16.367Z</time></trkpt><trkpt lat="45.6416813" lon="10.9264191"><ele>975.0</ele><time>2026-05-01T09:14:17.368Z</time></trkpt><trkpt lat="45.6418097" lon="10.9263305"><ele>975.0</ele><time>2026-05-01T09:14:18.368Z</time></trkpt><trkpt lat="45.6419386" lon="10.9263022"><ele>975.0</ele><time>2026-05-01T09:14:19.367Z</time></trkpt><trkpt lat="45.6420674" lon="10.9263271"><ele>975.25</ele><time>2026-05-01T09:14:20.368Z</time></trkpt><trkpt lat="45.6421967" lon="10.9263906"><ele>975.5</ele><time>2026-05-01T09:14:21.367Z</time></trkpt><trkpt lat="45.6423234" lon="10.926469"><ele>975.75</ele><time>2026-05-01T09:14:22.368Z</time></trkpt><trkpt lat="45.6424618" lon="10.9265611"><ele>976.0</ele><time>2026-05-01T09:14:23.368Z</time></trkpt><trkpt lat="45.6425991" lon="10.9266607"><ele>977.0</ele><time>2026-05-01T09:14:24.368Z</time></trkpt><trkpt lat="45.6427417" lon="10.9267635"><ele>978.0</ele><time>2026-05-01T09:14:25.368Z</time></trkpt><trkpt lat="45.6428956" lon="10.9268702"><ele>979.0</ele><time>2026-05-01T09:14:26.368Z</time></trkpt><trkpt lat="45.6430404" lon="10.9269711"><ele>979.0</ele><time>2026-05-01T09:14:27.368Z</time></trkpt><trkpt lat="45.643179" lon="10.9270715"><ele>979.0</ele><time>2026-05-01T09:14:28.367Z</time></trkpt><trkpt lat="45.6433108" lon="10.927166"><ele>979.0</ele><time>2026-05-01T09:14:29.367Z</time></trkpt><trkpt lat="45.6434388" lon="10.9272644"><ele>979.0</ele><time>2026-05-01T09:14:30.368Z</time></trkpt><trkpt lat="45.6435623" lon="10.9273804"><ele>979.0</ele><time>2026-05-01T09:14:31.368Z</time></trkpt><trkpt lat="45.6436805" lon="10.9275199"><ele>979.0</ele><time>2026-05-01T09:14:32.367Z</time></trkpt><trkpt lat="45.6437935" lon="10.9276723"><ele>979.0</ele><time>2026-05-01T09:14:33.367Z</time></trkpt><trkpt lat="45.6439047" lon="10.9278248"><ele>979.0</ele><time>2026-05-01T09:14:34.367Z</time></trkpt><trkpt lat="45.6440167" lon="10.9279748"><ele>979.0</ele><time>2026-05-01T09:14:35.366Z</time></trkpt><trkpt lat="45.644124" lon="10.9281247"><ele>979.0</ele><time>2026-05-01T09:14:36.367Z</time></trkpt><trkpt lat="45.6442269" lon="10.9282776"><ele>981.0</ele><time>2026-05-01T09:14:37.367Z</time></trkpt><trkpt lat="45.6443253" lon="10.9284372"><ele>983.0</ele><time>2026-05-01T09:14:38.366Z</time></trkpt><trkpt lat="45.6444142" lon="10.9286145"><ele>985.0</ele><time>2026-05-01T09:14:39.367Z</time></trkpt><trkpt lat="45.6444964" lon="10.9288057"><ele>977.6666666666666</ele><time>2026-05-01T09:14:40.367Z</time></trkpt><trkpt lat="45.6445704" lon="10.9290101"><ele>970.3333333333333</ele><time>2026-05-01T09:14:41.366Z</time></trkpt><trkpt lat="45.6446354" lon="10.9292236"><ele>963.0</ele><time>2026-05-01T09:14:42.366Z</time></trkpt><trkpt lat="45.644705" lon="10.9294325"><ele>963.0</ele><time>2026-05-01T09:14:43.367Z</time></trkpt><trkpt lat="45.6447784" lon="10.9296413"><ele>963.0</ele><time>2026-05-01T09:14:44.367Z</time></trkpt><trkpt lat="45.6448577" lon="10.9298451"><ele>963.0</ele><time>2026-05-01T09:14:45.367Z</time></trkpt><trkpt lat="45.6449398" lon="10.9300451"><ele>965.6666666666667</ele><time>2026-05-01T09:14:46.366Z</time></trkpt><trkpt lat="45.6450205" lon="10.9302449"><ele>968.3333333333334</ele><time>2026-05-01T09:14:47.367Z</time></trkpt><trkpt lat="45.6450992" lon="10.9304462"><ele>971.0</ele><time>2026-05-01T09:14:48.367Z</time></trkpt><trkpt lat="45.6451786" lon="10.9306356"><ele>971.0</ele><time>2026-05-01T09:14:49.367Z</time></trkpt><trkpt lat="45.6452496" lon="10.9308229"><ele>971.0</ele><time>2026-05-01T09:14:50.367Z</time></trkpt><trkpt lat="45.6453027" lon="10.9310231"><ele>971.0</ele><time>2026-05-01T09:14:51.367Z</time></trkpt><trkpt lat="45.6453312" lon="10.9312371"><ele>963.0</ele><time>2026-05-01T09:14:52.367Z</time></trkpt><trkpt lat="45.6453327" lon="10.9314578"><ele>955.0</ele><time>2026-05-01T09:14:53.367Z</time></trkpt><trkpt lat="45.6453165" lon="10.9316741"><ele>947.0</ele><time>2026-05-01T09:14:54.367Z</time></trkpt><trkpt lat="45.6452867" lon="10.9318809"><ele>947.0</ele><time>2026-05-01T09:14:55.367Z</time></trkpt><trkpt lat="45.6452422" lon="10.9320763"><ele>947.0</ele><time>2026-05-01T09:14:56.367Z</time></trkpt><trkpt lat="45.6451727" lon="10.9322546"><ele>947.0</ele><time>2026-05-01T09:14:57.367Z</time></trkpt><trkpt lat="45.6450762" lon="10.9323974"><ele>947.0</ele><time>2026-05-01T09:14:58.367Z</time></trkpt><trkpt lat="45.6449516" lon="10.9325082"><ele>941.6666666666667</ele><time>2026-05-01T09:14:59.366Z</time></trkpt><trkpt lat="45.6448116" lon="10.9326028"><ele>936.3333333333333</ele><time>2026-05-01T09:15:00.366Z</time></trkpt><trkpt lat="45.6446678" lon="10.9326991"><ele>931.0</ele><time>2026-05-01T09:15:01.366Z</time></trkpt><trkpt lat="45.6445255" lon="10.9327959"><ele>935.75</ele><time>2026-05-01T09:15:02.366Z</time></trkpt><trkpt lat="45.6443878" lon="10.9328934"><ele>940.5</ele><time>2026-05-01T09:15:03.367Z</time></trkpt><trkpt lat="45.6442561" lon="10.9329917"><ele>945.25</ele><time>2026-05-01T09:15:04.367Z</time></trkpt><trkpt lat="45.6441388" lon="10.9330962"><ele>950.0</ele><time>2026-05-01T09:15:05.367Z</time></trkpt><trkpt lat="45.6440428" lon="10.933223"><ele>950.0</ele><time>2026-05-01T09:15:06.367Z</time></trkpt><trkpt lat="45.6439813" lon="10.9333794"><ele>950.0</ele><time>2026-05-01T09:15:07.367Z</time></trkpt><trkpt lat="45.6439755" lon="10.9335579"><ele>950.0</ele><time>2026-05-01T09:15:08.367Z</time></trkpt><trkpt lat="45.6440069" lon="10.9337386"><ele>950.0</ele><time>2026-05-01T09:15:09.367Z</time></trkpt><trkpt lat="45.6440368" lon="10.9339091"><ele>948.0</ele><time>2026-05-01T09:15:10.366Z</time></trkpt><trkpt lat="45.644062" lon="10.934071"><ele>946.0</ele><time>2026-05-01T09:15:11.367Z</time></trkpt><trkpt lat="45.6440802" lon="10.9342267"><ele>944.0</ele><time>2026-05-01T09:15:12.367Z</time></trkpt><trkpt lat="45.6440864" lon="10.9343877"><ele>942.0</ele><time>2026-05-01T09:15:13.367Z</time></trkpt><trkpt lat="45.6440695" lon="10.9345527"><ele>940.75</ele><time>2026-05-01T09:15:14.367Z</time></trkpt><trkpt lat="45.6440294" lon="10.9347132"><ele>939.5</ele><time>2026-05-01T09:15:15.366Z</time></trkpt><trkpt lat="45.6439705" lon="10.9348716"><ele>938.25</ele><time>2026-05-01T09:15:16.367Z</time></trkpt><trkpt lat="45.6439077" lon="10.9350237"><ele>937.0</ele><time>2026-05-01T09:15:17.367Z</time></trkpt><trkpt lat="45.6438497" lon="10.9351713"><ele>936.6</ele><time>2026-05-01T09:15:18.366Z</time></trkpt><trkpt lat="45.643793" lon="10.9353066"><ele>936.2</ele><time>2026-05-01T09:15:19.367Z</time></trkpt><trkpt lat="45.6437431" lon="10.9354299"><ele>935.8</ele><time>2026-05-01T09:15:20.367Z</time></trkpt><trkpt lat="45.6437009" lon="10.9355429"><ele>935.4</ele><time>2026-05-01T09:15:21.367Z</time></trkpt><trkpt lat="45.6436615" lon="10.9356524"><ele>935.0</ele><time>2026-05-01T09:15:22.367Z</time></trkpt><trkpt lat="45.6436262" lon="10.9357543"><ele>935.4285714285716</ele><time>2026-05-01T09:15:23.367Z</time></trkpt><trkpt lat="45.6435975" lon="10.9358508"><ele>935.8571428571429</ele><time>2026-05-01T09:15:24.366Z</time></trkpt><trkpt lat="45.6435745" lon="10.9359412"><ele>936.2857142857143</ele><time>2026-05-01T09:15:25.366Z</time></trkpt><trkpt lat="45.6435506" lon="10.9360868"><ele>936.7142857142858</ele><time>2026-05-01T09:15:27.367Z</time></trkpt><trkpt lat="45.6435401" lon="10.9361756"><ele>937.1428571428571</ele><time>2026-05-01T09:15:29.367Z</time></trkpt><trkpt lat="45.6435299" lon="10.936275"><ele>937.5714285714286</ele><time>2026-05-01T09:15:33.367Z</time></trkpt><trkpt lat="45.6435408" lon="10.9363674"><ele>938.0</ele><time>2026-05-01T09:15:36.367Z</time></trkpt><trkpt lat="45.643609" lon="10.9364176"><ele>938.2</ele><time>2026-05-01T09:15:38.367Z</time></trkpt><trkpt lat="45.6436848" lon="10.936455"><ele>938.4</ele><time>2026-05-01T09:15:39.367Z</time></trkpt><trkpt lat="45.6437679" lon="10.9365045"><ele>938.6000000000001</ele><time>2026-05-01T09:15:40.366Z</time></trkpt><trkpt lat="45.6438612" lon="10.9365587"><ele>938.8000000000001</ele><time>2026-05-01T09:15:41.366Z</time></trkpt><trkpt lat="45.6439541" lon="10.9366118"><ele>939.0</ele><time>2026-05-01T09:15:42.367Z</time></trkpt><trkpt lat="45.644043" lon="10.9366593"><ele>939.0</ele><time>2026-05-01T09:15:43.367Z</time></trkpt><trkpt lat="45.6441298" lon="10.9366861"><ele>939.0000000000001</ele><time>2026-05-01T09:15:44.366Z</time></trkpt><trkpt lat="45.6442181" lon="10.9366995"><ele>939.0000000000001</ele><time>2026-05-01T09:15:45.367Z</time></trkpt><trkpt lat="45.6443138" lon="10.9367038"><ele>939.0</ele><time>2026-05-01T09:15:46.367Z</time></trkpt><trkpt lat="45.6444186" lon="10.9367105"><ele>939.0</ele><time>2026-05-01T09:15:47.367Z</time></trkpt><trkpt lat="45.6445211" lon="10.9367161"><ele>938.4000000000001</ele><time>2026-05-01T09:15:48.367Z</time></trkpt><trkpt lat="45.6446228" lon="10.9367152"><ele>937.8000000000001</ele><time>2026-05-01T09:15:49.367Z</time></trkpt><trkpt lat="45.6447202" lon="10.9367192"><ele>937.1999999999999</ele><time>2026-05-01T09:15:50.367Z</time></trkpt><trkpt lat="45.6448186" lon="10.9367255"><ele>936.5999999999999</ele><time>2026-05-01T09:15:51.367Z</time></trkpt><trkpt lat="45.6449229" lon="10.9367265"><ele>936.0</ele><time>2026-05-01T09:15:52.367Z</time></trkpt><trkpt lat="45.6450313" lon="10.9367244"><ele>936.0</ele><time>2026-05-01T09:15:53.367Z</time></trkpt><trkpt lat="45.6451399" lon="10.9367263"><ele>936.0</ele><time>2026-05-01T09:15:54.367Z</time></trkpt><trkpt lat="45.64525" lon="10.9367294"><ele>936.0</ele><time>2026-05-01T09:15:55.367Z</time></trkpt><trkpt lat="45.6453704" lon="10.9367327"><ele>936.0</ele><time>2026-05-01T09:15:56.367Z</time></trkpt><trkpt lat="45.6454832" lon="10.9367393"><ele>935.4</ele><time>2026-05-01T09:15:57.366Z</time></trkpt><trkpt lat="45.6455907" lon="10.9367431"><ele>934.8</ele><time>2026-05-01T09:15:58.367Z</time></trkpt><trkpt lat="45.6457033" lon="10.9367554"><ele>934.1999999999999</ele><time>2026-05-01T09:15:59.367Z</time></trkpt><trkpt lat="45.645812" lon="10.9367737"><ele>933.5999999999999</ele><time>2026-05-01T09:16:00.367Z</time></trkpt><trkpt lat="45.6459156" lon="10.936802"><ele>933.0</ele><time>2026-05-01T09:16:01.367Z</time></trkpt><trkpt lat="45.646014" lon="10.9368417"><ele>933.0</ele><time>2026-05-01T09:16:02.367Z</time></trkpt><trkpt lat="45.6461014" lon="10.9368935"><ele>933.0</ele><time>2026-05-01T09:16:03.367Z</time></trkpt><trkpt lat="45.6461762" lon="10.9369493"><ele>933.0</ele><time>2026-05-01T09:16:04.367Z</time></trkpt><trkpt lat="45.6462443" lon="10.9370064"><ele>933.0</ele><time>2026-05-01T09:16:05.366Z</time></trkpt><trkpt lat="45.6463057" lon="10.9370628"><ele>933.0</ele><time>2026-05-01T09:16:06.367Z</time></trkpt><trkpt lat="45.646364" lon="10.9371261"><ele>933.0</ele><time>2026-05-01T09:16:07.367Z</time></trkpt><trkpt lat="45.6464139" lon="10.9371925"><ele>932.8333333333334</ele><time>2026-05-01T09:16:08.367Z</time></trkpt><trkpt lat="45.6464529" lon="10.9372666"><ele>932.6666666666667</ele><time>2026-05-01T09:16:09.367Z</time></trkpt><trkpt lat="45.6464811" lon="10.9373596"><ele>932.5</ele><time>2026-05-01T09:16:10.366Z</time></trkpt><trkpt lat="45.6464908" lon="10.9374663"><ele>932.3333333333334</ele><time>2026-05-01T09:16:11.367Z</time></trkpt><trkpt lat="45.646477" lon="10.9375865"><ele>932.1666666666667</ele><time>2026-05-01T09:16:12.367Z</time></trkpt><trkpt lat="45.6464501" lon="10.9377102"><ele>932.0</ele><time>2026-05-01T09:16:13.367Z</time></trkpt><trkpt lat="45.6464143" lon="10.9378437"><ele>931.2</ele><time>2026-05-01T09:16:14.367Z</time></trkpt><trkpt lat="45.6463713" lon="10.9379812"><ele>930.4000000000001</ele><time>2026-05-01T09:16:15.367Z</time></trkpt><trkpt lat="45.6463142" lon="10.9381107"><ele>929.5999999999999</ele><time>2026-05-01T09:16:16.367Z</time></trkpt><trkpt lat="45.6462417" lon="10.9382309"><ele>928.8</ele><time>2026-05-01T09:16:17.367Z</time></trkpt><trkpt lat="45.6461639" lon="10.9383381"><ele>928.0</ele><time>2026-05-01T09:16:18.366Z</time></trkpt><trkpt lat="45.6460858" lon="10.9384385"><ele>926.5999999999999</ele><time>2026-05-01T09:16:19.367Z</time></trkpt><trkpt lat="45.6460108" lon="10.9385366"><ele>925.1999999999999</ele><time>2026-05-01T09:16:20.367Z</time></trkpt><trkpt lat="45.6459341" lon="10.9386367"><ele>923.8</ele><time>2026-05-01T09:16:21.367Z</time></trkpt><trkpt lat="45.6458575" lon="10.9387366"><ele>922.4</ele><time>2026-05-01T09:16:22.367Z</time></trkpt><trkpt lat="45.6457825" lon="10.9388321"><ele>921.0</ele><time>2026-05-01T09:16:23.367Z</time></trkpt><trkpt lat="45.6457073" lon="10.9389278"><ele>921.0</ele><time>2026-05-01T09:16:24.367Z</time></trkpt><trkpt lat="45.6456336" lon="10.9390248"><ele>920.9999999999999</ele><time>2026-05-01T09:16:25.366Z</time></trkpt><trkpt lat="45.6455617" lon="10.9391235"><ele>920.9999999999999</ele><time>2026-05-01T09:16:26.367Z</time></trkpt><trkpt lat="45.6454902" lon="10.9392235"><ele>921.0</ele><time>2026-05-01T09:16:27.367Z</time></trkpt><trkpt lat="45.645417" lon="10.9393232"><ele>921.0</ele><time>2026-05-01T09:16:28.367Z</time></trkpt><trkpt lat="45.6453403" lon="10.9394248"><ele>920.1999999999999</ele><time>2026-05-01T09:16:29.367Z</time></trkpt><trkpt lat="45.6452648" lon="10.9395267"><ele>919.3999999999999</ele><time>2026-05-01T09:16:30.367Z</time></trkpt><trkpt lat="45.6451914" lon="10.9396301"><ele>918.6</ele><time>2026-05-01T09:16:31.366Z</time></trkpt><trkpt lat="45.6451136" lon="10.9397336"><ele>917.8</ele><time>2026-05-01T09:16:32.367Z</time></trkpt><trkpt lat="45.6450369" lon="10.9398354"><ele>917.0</ele><time>2026-05-01T09:16:33.367Z</time></trkpt><trkpt lat="45.6449585" lon="10.939937"><ele>917.0</ele><time>2026-05-01T09:16:34.367Z</time></trkpt><trkpt lat="45.6448802" lon="10.9400386"><ele>917.0</ele><time>2026-05-01T09:16:35.367Z</time></trkpt><trkpt lat="45.6448033" lon="10.9401387"><ele>917.0</ele><time>2026-05-01T09:16:36.367Z</time></trkpt><trkpt lat="45.6447285" lon="10.9402354"><ele>917.0</ele><time>2026-05-01T09:16:37.367Z</time></trkpt><trkpt lat="45.644655" lon="10.9403272"><ele>917.0</ele><time>2026-05-01T09:16:38.367Z</time></trkpt><trkpt lat="45.6445865" lon="10.9404186"><ele>915.8</ele><time>2026-05-01T09:16:39.367Z</time></trkpt><trkpt lat="45.6445183" lon="10.9405133"><ele>914.6</ele><time>2026-05-01T09:16:40.367Z</time></trkpt><trkpt lat="45.64445" lon="10.9406129"><ele>913.3999999999999</ele><time>2026-05-01T09:16:41.367Z</time></trkpt><trkpt lat="45.6443833" lon="10.9407255"><ele>912.1999999999999</ele><time>2026-05-01T09:16:42.367Z</time></trkpt><trkpt lat="45.6443273" lon="10.9408564"><ele>911.0</ele><time>2026-05-01T09:16:43.367Z</time></trkpt><trkpt lat="45.6442962" lon="10.9410053"><ele>911.0</ele><time>2026-05-01T09:16:44.367Z</time></trkpt><trkpt lat="45.6442823" lon="10.9411672"><ele>911.0</ele><time>2026-05-01T09:16:45.367Z</time></trkpt><trkpt lat="45.644278" lon="10.9413376"><ele>911.0</ele><time>2026-05-01T09:16:46.367Z</time></trkpt><trkpt lat="45.6442769" lon="10.941513"><ele>911.0</ele><time>2026-05-01T09:16:47.367Z</time></trkpt><trkpt lat="45.644275" lon="10.9416898"><ele>909.5</ele><time>2026-05-01T09:16:48.367Z</time></trkpt><trkpt lat="45.6442736" lon="10.9418652"><ele>908.0</ele><time>2026-05-01T09:16:49.366Z</time></trkpt><trkpt lat="45.6442699" lon="10.9420419"><ele>906.5</ele><time>2026-05-01T09:16:50.367Z</time></trkpt><trkpt lat="45.6442742" lon="10.9422199"><ele>905.0</ele><time>2026-05-01T09:16:51.367Z</time></trkpt><trkpt lat="45.644298" lon="10.9423938"><ele>903.5</ele><time>2026-05-01T09:16:52.367Z</time></trkpt><trkpt lat="45.6443403" lon="10.9425653"><ele>902.0</ele><time>2026-05-01T09:16:53.367Z</time></trkpt><trkpt lat="45.6443915" lon="10.9427363"><ele>900.5</ele><time>2026-05-01T09:16:54.367Z</time></trkpt><trkpt lat="45.6444423" lon="10.9429141"><ele>899.0</ele><time>2026-05-01T09:16:55.367Z</time></trkpt><trkpt lat="45.6444905" lon="10.9430992"><ele>898.6666666666667</ele><time>2026-05-01T09:16:56.367Z</time></trkpt><trkpt lat="45.6445371" lon="10.9432984"><ele>898.3333333333333</ele><time>2026-05-01T09:16:57.367Z</time></trkpt><trkpt lat="45.6445808" lon="10.9435169"><ele>898.0</ele><time>2026-05-01T09:16:58.367Z</time></trkpt><trkpt lat="45.6446182" lon="10.9437517"><ele>896.6666666666666</ele><time>2026-05-01T09:16:59.367Z</time></trkpt><trkpt lat="45.6446501" lon="10.9439945"><ele>895.3333333333333</ele><time>2026-05-01T09:17:00.367Z</time></trkpt><trkpt lat="45.6446875" lon="10.9442399"><ele>894.0</ele><time>2026-05-01T09:17:01.367Z</time></trkpt><trkpt lat="45.644739" lon="10.9444866"><ele>894.0</ele><time>2026-05-01T09:17:02.367Z</time></trkpt><trkpt lat="45.6448025" lon="10.9447319"><ele>894.0</ele><time>2026-05-01T09:17:03.367Z</time></trkpt><trkpt lat="45.6448758" lon="10.9449736"><ele>894.0</ele><time>2026-05-01T09:17:04.367Z</time></trkpt><trkpt lat="45.6449473" lon="10.9452133"><ele>894.0</ele><time>2026-05-01T09:17:05.367Z</time></trkpt><trkpt lat="45.6450154" lon="10.9454473"><ele>894.0</ele><time>2026-05-01T09:17:06.367Z</time></trkpt><trkpt lat="45.6450802" lon="10.9456757"><ele>894.0</ele><time>2026-05-01T09:17:07.366Z</time></trkpt><trkpt lat="45.6451442" lon="10.9458952"><ele>894.0</ele><time>2026-05-01T09:17:08.367Z</time></trkpt><trkpt lat="45.6452012" lon="10.9461084"><ele>894.0</ele><time>2026-05-01T09:17:09.367Z</time></trkpt><trkpt lat="45.6452507" lon="10.9463198"><ele>894.0</ele><time>2026-05-01T09:17:10.367Z</time></trkpt><trkpt lat="45.6452806" lon="10.9465376"><ele>889.3333333333333</ele><time>2026-05-01T09:17:11.367Z</time></trkpt><trkpt lat="45.645283" lon="10.9467615"><ele>884.6666666666666</ele><time>2026-05-01T09:17:12.367Z</time></trkpt><trkpt lat="45.645272" lon="10.9469831"><ele>880.0</ele><time>2026-05-01T09:17:13.367Z</time></trkpt><trkpt lat="45.6452451" lon="10.9472036"><ele>880.0</ele><time>2026-05-01T09:17:14.367Z</time></trkpt><trkpt lat="45.6451803" lon="10.9474193"><ele>880.0</ele><time>2026-05-01T09:17:15.367Z</time></trkpt><trkpt lat="45.6450799" lon="10.9476224"><ele>880.0</ele><time>2026-05-01T09:17:16.367Z</time></trkpt><trkpt lat="45.6449618" lon="10.9478146"><ele>874.3333333333333</ele><time>2026-05-01T09:17:17.367Z</time></trkpt><trkpt lat="45.6448355" lon="10.9479947"><ele>868.6666666666667</ele><time>2026-05-01T09:17:18.367Z</time></trkpt><trkpt lat="45.6447092" lon="10.9481693"><ele>863.0</ele><time>2026-05-01T09:17:19.367Z</time></trkpt><trkpt lat="45.6445993" lon="10.9483486"><ele>862.3333333333334</ele><time>2026-05-01T09:17:20.366Z</time></trkpt><trkpt lat="45.6445127" lon="10.9485466"><ele>861.6666666666667</ele><time>2026-05-01T09:17:21.367Z</time></trkpt><trkpt lat="45.6444583" lon="10.9487641"><ele>861.0</ele><time>2026-05-01T09:17:22.367Z</time></trkpt><trkpt lat="45.6444298" lon="10.9489866"><ele>859.3333333333333</ele><time>2026-05-01T09:17:23.367Z</time></trkpt><trkpt lat="45.6444196" lon="10.949214"><ele>857.6666666666666</ele><time>2026-05-01T09:17:24.367Z</time></trkpt><trkpt lat="45.644434" lon="10.9494462"><ele>856.0</ele><time>2026-05-01T09:17:25.367Z</time></trkpt><trkpt lat="45.644478" lon="10.9496688"><ele>856.0</ele><time>2026-05-01T09:17:26.367Z</time></trkpt><trkpt lat="45.6445431" lon="10.9498793"><ele>856.0</ele><time>2026-05-01T09:17:27.366Z</time></trkpt><trkpt lat="45.6446168" lon="10.9500773"><ele>856.0</ele><time>2026-05-01T09:17:28.367Z</time></trkpt><trkpt lat="45.6446907" lon="10.9502657"><ele>855.0</ele><time>2026-05-01T09:17:29.367Z</time></trkpt><trkpt lat="45.6447547" lon="10.9504555"><ele>854.0</ele><time>2026-05-01T09:17:30.367Z</time></trkpt><trkpt lat="45.6448036" lon="10.9506407"><ele>853.0</ele><time>2026-05-01T09:17:31.367Z</time></trkpt><trkpt lat="45.6448411" lon="10.9508102"><ele>852.0</ele><time>2026-05-01T09:17:32.367Z</time></trkpt><trkpt lat="45.6448647" lon="10.9509523"><ele>852.0</ele><time>2026-05-01T09:17:33.367Z</time></trkpt><trkpt lat="45.6448752" lon="10.9510692"><ele>852.0</ele><time>2026-05-01T09:17:34.366Z</time></trkpt><trkpt lat="45.6448689" lon="10.951167"><ele>852.0</ele><time>2026-05-01T09:17:35.366Z</time></trkpt><trkpt lat="45.6447809" lon="10.9513029"><ele>852.0</ele><time>2026-05-01T09:17:37.367Z</time></trkpt><trkpt lat="45.6446987" lon="10.9513323"><ele>852.0</ele><time>2026-05-01T09:17:38.367Z</time></trkpt><trkpt lat="45.644599" lon="10.951374"><ele>852.0</ele><time>2026-05-01T09:17:39.367Z</time></trkpt><trkpt lat="45.6444969" lon="10.9514494"><ele>852.0</ele><time>2026-05-01T09:17:40.366Z</time></trkpt><trkpt lat="45.6444079" lon="10.9515421"><ele>852.0</ele><time>2026-05-01T09:17:41.367Z</time></trkpt><trkpt lat="45.6443362" lon="10.9516574"><ele>852.0</ele><time>2026-05-01T09:17:42.367Z</time></trkpt><trkpt lat="45.6442705" lon="10.9518048"><ele>850.25</ele><time>2026-05-01T09:17:43.367Z</time></trkpt><trkpt lat="45.6442178" lon="10.9519659"><ele>848.5</ele><time>2026-05-01T09:17:44.366Z</time></trkpt><trkpt lat="45.6441654" lon="10.9521171"><ele>846.75</ele><time>2026-05-01T09:17:45.367Z</time></trkpt><trkpt lat="45.6441073" lon="10.952272"><ele>845.0</ele><time>2026-05-01T09:17:46.367Z</time></trkpt><trkpt lat="45.6440548" lon="10.9524125"><ele>848.4</ele><time>2026-05-01T09:17:47.367Z</time></trkpt><trkpt lat="45.643997" lon="10.9525432"><ele>851.8</ele><time>2026-05-01T09:17:48.367Z</time></trkpt><trkpt lat="45.6439338" lon="10.9526646"><ele>855.2</ele><time>2026-05-01T09:17:49.367Z</time></trkpt><trkpt lat="45.6438528" lon="10.9527729"><ele>858.6</ele><time>2026-05-01T09:17:50.367Z</time></trkpt><trkpt lat="45.6437534" lon="10.9528601"><ele>862.0</ele><time>2026-05-01T09:17:51.367Z</time></trkpt><trkpt lat="45.6436381" lon="10.9529319"><ele>859.75</ele><time>2026-05-01T09:17:52.367Z</time></trkpt><trkpt lat="45.643513" lon="10.952977"><ele>857.5</ele><time>2026-05-01T09:17:53.367Z</time></trkpt><trkpt lat="45.6433859" lon="10.9529848"><ele>855.25</ele><time>2026-05-01T09:17:54.367Z</time></trkpt><trkpt lat="45.6432587" lon="10.9529545"><ele>853.0</ele><time>2026-05-01T09:17:55.367Z</time></trkpt><trkpt lat="45.6431187" lon="10.952902"><ele>853.0</ele><time>2026-05-01T09:17:56.367Z</time></trkpt><trkpt lat="45.6429727" lon="10.9528809"><ele>853.0</ele><time>2026-05-01T09:17:57.366Z</time></trkpt><trkpt lat="45.6428145" lon="10.9528924"><ele>853.0</ele><time>2026-05-01T09:17:58.367Z</time></trkpt><trkpt lat="45.6426578" lon="10.9529017"><ele>852.5</ele><time>2026-05-01T09:17:59.366Z</time></trkpt><trkpt lat="45.6425056" lon="10.9528961"><ele>852.0</ele><time>2026-05-01T09:18:00.366Z</time></trkpt><trkpt lat="45.6423673" lon="10.9528746"><ele>851.5</ele><time>2026-05-01T09:18:01.367Z</time></trkpt><trkpt lat="45.6422277" lon="10.952853"><ele>851.0</ele><time>2026-05-01T09:18:02.367Z</time></trkpt><trkpt lat="45.642095" lon="10.9528575"><ele>851.0</ele><time>2026-05-01T09:18:03.367Z</time></trkpt><trkpt lat="45.6419662" lon="10.952925"><ele>851.0</ele><time>2026-05-01T09:18:04.367Z</time></trkpt><trkpt lat="45.6418364" lon="10.953018"><ele>851.0</ele><time>2026-05-01T09:18:05.367Z</time></trkpt><trkpt lat="45.6416973" lon="10.9530979"><ele>851.0</ele><time>2026-05-01T09:18:06.366Z</time></trkpt><trkpt lat="45.6415655" lon="10.953174"><ele>847.0</ele><time>2026-05-01T09:18:07.367Z</time></trkpt><trkpt lat="45.6414259" lon="10.9532189"><ele>843.0</ele><time>2026-05-01T09:18:08.367Z</time></trkpt><trkpt lat="45.6412879" lon="10.9532151"><ele>839.0</ele><time>2026-05-01T09:18:09.367Z</time></trkpt><trkpt lat="45.6411605" lon="10.9531788"><ele>835.0</ele><time>2026-05-01T09:18:10.366Z</time></trkpt><trkpt lat="45.6410343" lon="10.9531727"><ele>837.5</ele><time>2026-05-01T09:18:11.367Z</time></trkpt><trkpt lat="45.640908" lon="10.9532246"><ele>840.0</ele><time>2026-05-01T09:18:12.367Z</time></trkpt><trkpt lat="45.640782" lon="10.9533224"><ele>842.5</ele><time>2026-05-01T09:18:13.367Z</time></trkpt><trkpt lat="45.6406586" lon="10.9534415"><ele>845.0</ele><time>2026-05-01T09:18:14.367Z</time></trkpt><trkpt lat="45.6405453" lon="10.9535692"><ele>845.0</ele><time>2026-05-01T09:18:15.367Z</time></trkpt><trkpt lat="45.6404384" lon="10.9537331"><ele>845.0</ele><time>2026-05-01T09:18:16.367Z</time></trkpt><trkpt lat="45.640347" lon="10.9539166"><ele>845.0</ele><time>2026-05-01T09:18:17.367Z</time></trkpt><trkpt lat="45.6402709" lon="10.9541053"><ele>842.25</ele><time>2026-05-01T09:18:18.367Z</time></trkpt><trkpt lat="45.6401971" lon="10.9542842"><ele>839.5</ele><time>2026-05-01T09:18:19.367Z</time></trkpt><trkpt lat="45.6401212" lon="10.9544458"><ele>836.75</ele><time>2026-05-01T09:18:20.367Z</time></trkpt><trkpt lat="45.6400436" lon="10.9545898"><ele>834.0</ele><time>2026-05-01T09:18:21.367Z</time></trkpt><trkpt lat="45.6399545" lon="10.9547076"><ele>834.0</ele><time>2026-05-01T09:18:22.367Z</time></trkpt><trkpt lat="45.6398372" lon="10.954813"><ele>834.0</ele><time>2026-05-01T09:18:23.367Z</time></trkpt><trkpt lat="45.639719" lon="10.9549278"><ele>834.0</ele><time>2026-05-01T09:18:24.366Z</time></trkpt><trkpt lat="45.6396094" lon="10.9550425"><ele>834.0</ele><time>2026-05-01T09:18:25.367Z</time></trkpt><trkpt lat="45.6395062" lon="10.9551447"><ele>834.5</ele><time>2026-05-01T09:18:26.367Z</time></trkpt><trkpt lat="45.6394096" lon="10.9552306"><ele>835.0</ele><time>2026-05-01T09:18:27.367Z</time></trkpt><trkpt lat="45.6393265" lon="10.9552936"><ele>835.5</ele><time>2026-05-01T09:18:28.367Z</time></trkpt><trkpt lat="45.6392532" lon="10.9552948"><ele>836.0</ele><time>2026-05-01T09:18:29.366Z</time></trkpt><trkpt lat="45.6391852" lon="10.9552491"><ele>836.5</ele><time>2026-05-01T09:18:30.367Z</time></trkpt><trkpt lat="45.6391013" lon="10.9552059"><ele>837.0</ele><time>2026-05-01T09:18:31.367Z</time></trkpt><trkpt lat="45.6390064" lon="10.9551968"><ele>837.0</ele><time>2026-05-01T09:18:32.367Z</time></trkpt><trkpt lat="45.6389166" lon="10.9552479"><ele>837.0</ele><time>2026-05-01T09:18:33.367Z</time></trkpt><trkpt lat="45.6388238" lon="10.9553488"><ele>837.0</ele><time>2026-05-01T09:18:34.367Z</time></trkpt><trkpt lat="45.6387116" lon="10.9554878"><ele>837.0</ele><time>2026-05-01T09:18:35.367Z</time></trkpt><trkpt lat="45.638587" lon="10.9556274"><ele>835.0</ele><time>2026-05-01T09:18:36.367Z</time></trkpt><trkpt lat="45.6384521" lon="10.9557359"><ele>833.0</ele><time>2026-05-01T09:18:37.367Z</time></trkpt><trkpt lat="45.6383216" lon="10.9558132"><ele>831.0</ele><time>2026-05-01T09:18:38.367Z</time></trkpt><trkpt lat="45.638191" lon="10.9558694"><ele>829.0</ele><time>2026-05-01T09:18:39.367Z</time></trkpt><trkpt lat="45.6380743" lon="10.9559385"><ele>829.0</ele><time>2026-05-01T09:18:40.366Z</time></trkpt><trkpt lat="45.6379768" lon="10.9560288"><ele>829.0</ele><time>2026-05-01T09:18:41.367Z</time></trkpt><trkpt lat="45.6379024" lon="10.956141"><ele>829.0</ele><time>2026-05-01T09:18:42.367Z</time></trkpt><trkpt lat="45.6378658" lon="10.9562681"><ele>829.0</ele><time>2026-05-01T09:18:43.367Z</time></trkpt><trkpt lat="45.6378577" lon="10.9563968"><ele>829.0</ele><time>2026-05-01T09:18:44.367Z</time></trkpt><trkpt lat="45.6378371" lon="10.9565076"><ele>823.9999999999999</ele><time>2026-05-01T09:18:45.367Z</time></trkpt><trkpt lat="45.6377868" lon="10.956586"><ele>819.0</ele><time>2026-05-01T09:18:46.366Z</time></trkpt><trkpt lat="45.6377214" lon="10.956612"><ele>814.0</ele><time>2026-05-01T09:18:47.366Z</time></trkpt><trkpt lat="45.6376565" lon="10.9566127"><ele>809.0</ele><time>2026-05-01T09:18:48.367Z</time></trkpt><trkpt lat="45.6375661" lon="10.9565884"><ele>803.9999999999999</ele><time>2026-05-01T09:18:49.367Z</time></trkpt><trkpt lat="45.6374652" lon="10.9565894"><ele>799.0</ele><time>2026-05-01T09:18:50.367Z</time></trkpt><trkpt lat="45.6373666" lon="10.9566574"><ele>800.0</ele><time>2026-05-01T09:18:51.366Z</time></trkpt><trkpt lat="45.6372581" lon="10.9567656"><ele>801.0</ele><time>2026-05-01T09:18:52.367Z</time></trkpt><trkpt lat="45.6371531" lon="10.9568881"><ele>802.0</ele><time>2026-05-01T09:18:53.367Z</time></trkpt><trkpt lat="45.6370494" lon="10.9570058"><ele>803.0</ele><time>2026-05-01T09:18:54.367Z</time></trkpt><trkpt lat="45.636944" lon="10.9571099"><ele>803.0</ele><time>2026-05-01T09:18:55.367Z</time></trkpt><trkpt lat="45.6368531" lon="10.9572163"><ele>803.0</ele><time>2026-05-01T09:18:56.367Z</time></trkpt><trkpt lat="45.6367594" lon="10.9573366"><ele>803.0</ele><time>2026-05-01T09:18:57.367Z</time></trkpt><trkpt lat="45.6366563" lon="10.9574391"><ele>803.0</ele><time>2026-05-01T09:18:58.367Z</time></trkpt><trkpt lat="45.6365344" lon="10.957526"><ele>805.5</ele><time>2026-05-01T09:18:59.367Z</time></trkpt><trkpt lat="45.6363983" lon="10.9576107"><ele>808.0</ele><time>2026-05-01T09:19:00.367Z</time></trkpt><trkpt lat="45.6362611" lon="10.9577037"><ele>810.5</ele><time>2026-05-01T09:19:01.367Z</time></trkpt><trkpt lat="45.6361329" lon="10.9577907"><ele>813.0</ele><time>2026-05-01T09:19:02.367Z</time></trkpt><trkpt lat="45.6360069" lon="10.9578689"><ele>813.0</ele><time>2026-05-01T09:19:03.367Z</time></trkpt><trkpt lat="45.6358592" lon="10.9579218"><ele>813.0</ele><time>2026-05-01T09:19:04.367Z</time></trkpt><trkpt lat="45.6357094" lon="10.9579753"><ele>813.0</ele><time>2026-05-01T09:19:05.367Z</time></trkpt><trkpt lat="45.6355659" lon="10.9580246"><ele>813.0</ele><time>2026-05-01T09:19:06.367Z</time></trkpt><trkpt lat="45.635429" lon="10.9580579"><ele>813.0</ele><time>2026-05-01T09:19:07.366Z</time></trkpt><trkpt lat="45.6352898" lon="10.9581309"><ele>813.0</ele><time>2026-05-01T09:19:08.367Z</time></trkpt><trkpt lat="45.6351515" lon="10.9582419"><ele>813.0</ele><time>2026-05-01T09:19:09.367Z</time></trkpt><trkpt lat="45.6350046" lon="10.9583594"><ele>816.25</ele><time>2026-05-01T09:19:10.367Z</time></trkpt><trkpt lat="45.6348605" lon="10.9584517"><ele>819.5</ele><time>2026-05-01T09:19:11.367Z</time></trkpt><trkpt lat="45.6347235" lon="10.9585229"><ele>822.75</ele><time>2026-05-01T09:19:12.367Z</time></trkpt><trkpt lat="45.6345987" lon="10.9586007"><ele>826.0</ele><time>2026-05-01T09:19:13.367Z</time></trkpt><trkpt lat="45.6344835" lon="10.9586768"><ele>821.5999999999999</ele><time>2026-05-01T09:19:14.367Z</time></trkpt><trkpt lat="45.6343709" lon="10.958728"><ele>817.2</ele><time>2026-05-01T09:19:15.367Z</time></trkpt><trkpt lat="45.6342714" lon="10.9587476"><ele>812.8</ele><time>2026-05-01T09:19:16.367Z</time></trkpt><trkpt lat="45.6341749" lon="10.9587575"><ele>808.4000000000001</ele><time>2026-05-01T09:19:17.367Z</time></trkpt><trkpt lat="45.634065" lon="10.9587839"><ele>804.0</ele><time>2026-05-01T09:19:18.367Z</time></trkpt><trkpt lat="45.6339509" lon="10.9588482"><ele>804.0</ele><time>2026-05-01T09:19:19.366Z</time></trkpt><trkpt lat="45.6338414" lon="10.9589287"><ele>804.0</ele><time>2026-05-01T09:19:20.367Z</time></trkpt><trkpt lat="45.6337351" lon="10.9589999"><ele>804.0</ele><time>2026-05-01T09:19:21.367Z</time></trkpt><trkpt lat="45.6336277" lon="10.9590616"><ele>804.0</ele><time>2026-05-01T09:19:22.366Z</time></trkpt><trkpt lat="45.6335166" lon="10.9591192"><ele>809.25</ele><time>2026-05-01T09:19:23.366Z</time></trkpt><trkpt lat="45.633398" lon="10.9591807"><ele>814.5</ele><time>2026-05-01T09:19:24.367Z</time></trkpt><trkpt lat="45.6332791" lon="10.9592304"><ele>819.75</ele><time>2026-05-01T09:19:25.367Z</time></trkpt><trkpt lat="45.6331613" lon="10.9592724"><ele>825.0</ele><time>2026-05-01T09:19:26.367Z</time></trkpt><trkpt lat="45.6330395" lon="10.9593332"><ele>825.0</ele><time>2026-05-01T09:19:27.367Z</time></trkpt><trkpt lat="45.6329239" lon="10.959422"><ele>825.0</ele><time>2026-05-01T09:19:28.367Z</time></trkpt><trkpt lat="45.6328062" lon="10.9595196"><ele>825.0</ele><time>2026-05-01T09:19:29.366Z</time></trkpt><trkpt lat="45.6326981" lon="10.9596283"><ele>825.0</ele><time>2026-05-01T09:19:30.367Z</time></trkpt><trkpt lat="45.6325878" lon="10.959732"><ele>826.25</ele><time>2026-05-01T09:19:31.367Z</time></trkpt><trkpt lat="45.6324669" lon="10.9598231"><ele>827.5</ele><time>2026-05-01T09:19:32.367Z</time></trkpt><trkpt lat="45.6323549" lon="10.9599112"><ele>828.75</ele><time>2026-05-01T09:19:33.367Z</time></trkpt><trkpt lat="45.6322496" lon="10.9600099"><ele>830.0</ele><time>2026-05-01T09:19:34.367Z</time></trkpt><trkpt lat="45.6321463" lon="10.9601125"><ele>830.0</ele><time>2026-05-01T09:19:35.367Z</time></trkpt><trkpt lat="45.6320405" lon="10.9602163"><ele>830.0</ele><time>2026-05-01T09:19:36.367Z</time></trkpt><trkpt lat="45.6319467" lon="10.9603235"><ele>830.0</ele><time>2026-05-01T09:19:37.367Z</time></trkpt><trkpt lat="45.6318569" lon="10.9604388"><ele>830.0</ele><time>2026-05-01T09:19:38.366Z</time></trkpt><trkpt lat="45.6317733" lon="10.9605449"><ele>826.0000000000001</ele><time>2026-05-01T09:19:39.367Z</time></trkpt><trkpt lat="45.631698" lon="10.9606192"><ele>822.0</ele><time>2026-05-01T09:19:40.367Z</time></trkpt><trkpt lat="45.6316403" lon="10.9606749"><ele>818.0</ele><time>2026-05-01T09:19:41.367Z</time></trkpt><trkpt lat="45.631588" lon="10.9607266"><ele>814.0</ele><time>2026-05-01T09:19:42.367Z</time></trkpt><trkpt lat="45.6315298" lon="10.9607785"><ele>810.0000000000001</ele><time>2026-05-01T09:19:43.367Z</time></trkpt><trkpt lat="45.6314654" lon="10.9608391"><ele>806.0</ele><time>2026-05-01T09:19:44.366Z</time></trkpt><trkpt lat="45.6313939" lon="10.9609132"><ele>806.0</ele><time>2026-05-01T09:19:45.367Z</time></trkpt><trkpt lat="45.6313186" lon="10.9609998"><ele>806.0</ele><time>2026-05-01T09:19:46.367Z</time></trkpt><trkpt lat="45.6312409" lon="10.9611043"><ele>806.0</ele><time>2026-05-01T09:19:47.367Z</time></trkpt><trkpt lat="45.6311687" lon="10.9612383"><ele>806.0</ele><time>2026-05-01T09:19:48.367Z</time></trkpt><trkpt lat="45.6311029" lon="10.961382"><ele>806.0</ele><time>2026-05-01T09:19:49.367Z</time></trkpt><trkpt lat="45.6310183" lon="10.961502"><ele>804.0</ele><time>2026-05-01T09:19:50.367Z</time></trkpt><trkpt lat="45.6309189" lon="10.9616052"><ele>802.0</ele><time>2026-05-01T09:19:51.366Z</time></trkpt><trkpt lat="45.6307989" lon="10.9617169"><ele>800.0</ele><time>2026-05-01T09:19:52.367Z</time></trkpt><trkpt lat="45.6306771" lon="10.9618435"><ele>798.0</ele><time>2026-05-01T09:19:53.366Z</time></trkpt><trkpt lat="45.6305685" lon="10.9619697"><ele>798.0</ele><time>2026-05-01T09:19:54.367Z</time></trkpt><trkpt lat="45.630477" lon="10.9620987"><ele>798.0</ele><time>2026-05-01T09:19:55.367Z</time></trkpt><trkpt lat="45.6303985" lon="10.9622232"><ele>798.0</ele><time>2026-05-01T09:19:56.367Z</time></trkpt><trkpt lat="45.6303333" lon="10.9623309"><ele>798.0</ele><time>2026-05-01T09:19:57.367Z</time></trkpt><trkpt lat="45.6302755" lon="10.9624211"><ele>798.0</ele><time>2026-05-01T09:19:58.367Z</time></trkpt><trkpt lat="45.6302226" lon="10.9624895"><ele>798.0</ele><time>2026-05-01T09:19:59.367Z</time></trkpt><trkpt lat="45.6301626" lon="10.9625346"><ele>798.0</ele><time>2026-05-01T09:20:00.367Z</time></trkpt><trkpt lat="45.6300934" lon="10.9625476"><ele>798.0</ele><time>2026-05-01T09:20:01.367Z</time></trkpt><trkpt lat="45.6300059" lon="10.9625447"><ele>798.0</ele><time>2026-05-01T09:20:02.367Z</time></trkpt><trkpt lat="45.6298985" lon="10.9625612"><ele>798.0</ele><time>2026-05-01T09:20:03.367Z</time></trkpt><trkpt lat="45.6297499" lon="10.9626135"><ele>798.0</ele><time>2026-05-01T09:20:04.367Z</time></trkpt><trkpt lat="45.6295525" lon="10.9626775"><ele>798.0</ele><time>2026-05-01T09:20:05.367Z</time></trkpt><trkpt lat="45.6293486" lon="10.9627301"><ele>798.0</ele><time>2026-05-01T09:20:06.367Z</time></trkpt><trkpt lat="45.6291496" lon="10.9627703"><ele>796.3333333333333</ele><time>2026-05-01T09:20:07.367Z</time></trkpt><trkpt lat="45.6289691" lon="10.9628255"><ele>794.6666666666666</ele><time>2026-05-01T09:20:08.366Z</time></trkpt><trkpt lat="45.6287895" lon="10.9628761"><ele>793.0</ele><time>2026-05-01T09:20:09.367Z</time></trkpt><trkpt lat="45.6286094" lon="10.9629087"><ele>787.3333333333333</ele><time>2026-05-01T09:20:10.366Z</time></trkpt><trkpt lat="45.6284206" lon="10.9629244"><ele>781.6666666666667</ele><time>2026-05-01T09:20:11.367Z</time></trkpt><trkpt lat="45.6282222" lon="10.9629257"><ele>776.0</ele><time>2026-05-01T09:20:12.367Z</time></trkpt><trkpt lat="45.628017" lon="10.9629209"><ele>776.0</ele><time>2026-05-01T09:20:13.367Z</time></trkpt><trkpt lat="45.627811" lon="10.9629187"><ele>776.0</ele><time>2026-05-01T09:20:14.367Z</time></trkpt><trkpt lat="45.6276097" lon="10.9629206"><ele>776.0</ele><time>2026-05-01T09:20:15.367Z</time></trkpt><trkpt lat="45.627417" lon="10.9629279"><ele>772.0</ele><time>2026-05-01T09:20:16.367Z</time></trkpt><trkpt lat="45.6272386" lon="10.9629332"><ele>768.0</ele><time>2026-05-01T09:20:17.366Z</time></trkpt><trkpt lat="45.6270721" lon="10.9629354"><ele>764.0</ele><time>2026-05-01T09:20:18.367Z</time></trkpt><trkpt lat="45.6269142" lon="10.9629456"><ele>759.75</ele><time>2026-05-01T09:20:19.367Z</time></trkpt><trkpt lat="45.6267732" lon="10.9629839"><ele>755.5</ele><time>2026-05-01T09:20:20.367Z</time></trkpt><trkpt lat="45.6266446" lon="10.9630547"><ele>751.25</ele><time>2026-05-01T09:20:21.367Z</time></trkpt><trkpt lat="45.6265278" lon="10.9631503"><ele>747.0</ele><time>2026-05-01T09:20:22.367Z</time></trkpt><trkpt lat="45.6264117" lon="10.9632192"><ele>747.0</ele><time>2026-05-01T09:20:23.366Z</time></trkpt><trkpt lat="45.6262763" lon="10.963259"><ele>747.0</ele><time>2026-05-01T09:20:24.367Z</time></trkpt><trkpt lat="45.6261295" lon="10.9632922"><ele>747.0</ele><time>2026-05-01T09:20:25.367Z</time></trkpt><trkpt lat="45.6259743" lon="10.9633411"><ele>747.0</ele><time>2026-05-01T09:20:26.367Z</time></trkpt><trkpt lat="45.6258125" lon="10.9633834"><ele>748.5</ele><time>2026-05-01T09:20:27.367Z</time></trkpt><trkpt lat="45.625661" lon="10.9634134"><ele>750.0</ele><time>2026-05-01T09:20:28.367Z</time></trkpt><trkpt lat="45.6255235" lon="10.9634329"><ele>751.5</ele><time>2026-05-01T09:20:29.367Z</time></trkpt><trkpt lat="45.6253918" lon="10.9634389"><ele>753.0</ele><time>2026-05-01T09:20:30.367Z</time></trkpt><trkpt lat="45.6252699" lon="10.9634382"><ele>747.4</ele><time>2026-05-01T09:20:31.367Z</time></trkpt><trkpt lat="45.6251633" lon="10.9634556"><ele>741.8</ele><time>2026-05-01T09:20:32.367Z</time></trkpt><trkpt lat="45.6250634" lon="10.9634959"><ele>736.2</ele><time>2026-05-01T09:20:33.367Z</time></trkpt><trkpt lat="45.6249879" lon="10.9635807"><ele>730.6</ele><time>2026-05-01T09:20:34.367Z</time></trkpt><trkpt lat="45.6249514" lon="10.9637079"><ele>725.0</ele><time>2026-05-01T09:20:35.366Z</time></trkpt><trkpt lat="45.624954" lon="10.9638643"><ele>725.0</ele><time>2026-05-01T09:20:36.366Z</time></trkpt><trkpt lat="45.6249832" lon="10.9640336"><ele>725.0</ele><time>2026-05-01T09:20:37.367Z</time></trkpt><trkpt lat="45.6250095" lon="10.9641901"><ele>725.0</ele><time>2026-05-01T09:20:38.367Z</time></trkpt><trkpt lat="45.6250266" lon="10.964328"><ele>725.0</ele><time>2026-05-01T09:20:39.367Z</time></trkpt><trkpt lat="45.6250328" lon="10.9644428"><ele>725.0</ele><time>2026-05-01T09:20:40.367Z</time></trkpt><trkpt lat="45.625028" lon="10.9646254"><ele>726.2</ele><time>2026-05-01T09:20:42.367Z</time></trkpt><trkpt lat="45.6250089" lon="10.9647369"><ele>727.4</ele><time>2026-05-01T09:20:43.367Z</time></trkpt><trkpt lat="45.625004" lon="10.9648711"><ele>728.5999999999999</ele><time>2026-05-01T09:20:44.367Z</time></trkpt><trkpt lat="45.6250477" lon="10.965043"><ele>729.8</ele><time>2026-05-01T09:20:45.366Z</time></trkpt><trkpt lat="45.6251058" lon="10.9652258"><ele>731.0</ele><time>2026-05-01T09:20:46.366Z</time></trkpt><trkpt lat="45.6251813" lon="10.96541"><ele>733.75</ele><time>2026-05-01T09:20:47.366Z</time></trkpt><trkpt lat="45.6252695" lon="10.9655745"><ele>736.5</ele><time>2026-05-01T09:20:48.366Z</time></trkpt><trkpt lat="45.6253368" lon="10.9657233"><ele>739.25</ele><time>2026-05-01T09:20:49.366Z</time></trkpt><trkpt lat="45.6253689" lon="10.9658627"><ele>742.0</ele><time>2026-05-01T09:20:50.366Z</time></trkpt><trkpt lat="45.6253573" lon="10.9659795"><ele>747.0</ele><time>2026-05-01T09:20:51.366Z</time></trkpt><trkpt lat="45.6253179" lon="10.966058"><ele>752.0</ele><time>2026-05-01T09:20:52.366Z</time></trkpt><trkpt lat="45.6252482" lon="10.9661097"><ele>757.0</ele><time>2026-05-01T09:20:53.366Z</time></trkpt><trkpt lat="45.6251538" lon="10.9661152"><ele>762.0</ele><time>2026-05-01T09:20:54.366Z</time></trkpt><trkpt lat="45.6250241" lon="10.9660709"><ele>767.0</ele><time>2026-05-01T09:20:55.366Z</time></trkpt><trkpt lat="45.6248552" lon="10.9659765"><ele>760.6666666666666</ele><time>2026-05-01T09:20:56.365Z</time></trkpt><trkpt lat="45.6246429" lon="10.9658224"><ele>754.3333333333334</ele><time>2026-05-01T09:20:57.366Z</time></trkpt><trkpt lat="45.6244674" lon="10.9656637"><ele>748.0</ele><time>2026-05-01T09:20:58.366Z</time></trkpt><trkpt lat="45.6243146" lon="10.9655427"><ele>748.0</ele><time>2026-05-01T09:20:59.366Z</time></trkpt><trkpt lat="45.624162" lon="10.9654512"><ele>748.0</ele><time>2026-05-01T09:21:00.365Z</time></trkpt><trkpt lat="45.6239953" lon="10.9654168"><ele>748.0</ele><time>2026-05-01T09:21:01.366Z</time></trkpt><trkpt lat="45.6238377" lon="10.9654295"><ele>748.0</ele><time>2026-05-01T09:21:02.366Z</time></trkpt><trkpt lat="45.6237116" lon="10.9654963"><ele>748.0</ele><time>2026-05-01T09:21:03.366Z</time></trkpt><trkpt lat="45.6236199" lon="10.9656274"><ele>748.0</ele><time>2026-05-01T09:21:04.366Z</time></trkpt><trkpt lat="45.6235701" lon="10.9658153"><ele>748.0</ele><time>2026-05-01T09:21:05.366Z</time></trkpt><trkpt lat="45.6235584" lon="10.9660339"><ele>749.0</ele><time>2026-05-01T09:21:06.366Z</time></trkpt><trkpt lat="45.6235696" lon="10.9662627"><ele>750.0</ele><time>2026-05-01T09:21:07.366Z</time></trkpt><trkpt lat="45.6235744" lon="10.9664901"><ele>751.0</ele><time>2026-05-01T09:21:08.366Z</time></trkpt><trkpt lat="45.6235465" lon="10.9667003"><ele>755.5</ele><time>2026-05-01T09:21:09.366Z</time></trkpt><trkpt lat="45.6234827" lon="10.9668732"><ele>760.0</ele><time>2026-05-01T09:21:10.365Z</time></trkpt><trkpt lat="45.623386" lon="10.9669974"><ele>764.5</ele><time>2026-05-01T09:21:11.366Z</time></trkpt><trkpt lat="45.6232631" lon="10.9670507"><ele>769.0</ele><time>2026-05-01T09:21:12.366Z</time></trkpt><trkpt lat="45.6231169" lon="10.9670685"><ele>769.0</ele><time>2026-05-01T09:21:13.366Z</time></trkpt><trkpt lat="45.6229681" lon="10.9671021"><ele>769.0</ele><time>2026-05-01T09:21:14.365Z</time></trkpt><trkpt lat="45.6228266" lon="10.9671451"><ele>769.0</ele><time>2026-05-01T09:21:15.366Z</time></trkpt><trkpt lat="45.6227038" lon="10.9671893"><ele>769.0</ele><time>2026-05-01T09:21:16.365Z</time></trkpt><trkpt lat="45.6225847" lon="10.96722"><ele>766.75</ele><time>2026-05-01T09:21:17.366Z</time></trkpt><trkpt lat="45.6224697" lon="10.9672307"><ele>764.5</ele><time>2026-05-01T09:21:18.366Z</time></trkpt><trkpt lat="45.622361" lon="10.9672642"><ele>762.25</ele><time>2026-05-01T09:21:19.366Z</time></trkpt><trkpt lat="45.622265" lon="10.9673419"><ele>760.0</ele><time>2026-05-01T09:21:20.366Z</time></trkpt><trkpt lat="45.6221925" lon="10.9674856"><ele>760.25</ele><time>2026-05-01T09:21:21.366Z</time></trkpt><trkpt lat="45.6221631" lon="10.9676653"><ele>760.5</ele><time>2026-05-01T09:21:22.365Z</time></trkpt><trkpt lat="45.6221899" lon="10.967875"><ele>760.75</ele><time>2026-05-01T09:21:23.366Z</time></trkpt><trkpt lat="45.6222645" lon="10.9680881"><ele>761.0</ele><time>2026-05-01T09:21:24.366Z</time></trkpt><trkpt lat="45.6223716" lon="10.9682894"><ele>757.3333333333333</ele><time>2026-05-01T09:21:25.366Z</time></trkpt><trkpt lat="45.6225031" lon="10.9684683"><ele>753.6666666666666</ele><time>2026-05-01T09:21:26.365Z</time></trkpt><trkpt lat="45.6226528" lon="10.9686416"><ele>750.0</ele><time>2026-05-01T09:21:27.366Z</time></trkpt><trkpt lat="45.6228154" lon="10.9688302"><ele>753.3333333333334</ele><time>2026-05-01T09:21:28.366Z</time></trkpt><trkpt lat="45.6229734" lon="10.9690191"><ele>756.6666666666667</ele><time>2026-05-01T09:21:29.365Z</time></trkpt><trkpt lat="45.6231372" lon="10.9692124"><ele>760.0</ele><time>2026-05-01T09:21:30.366Z</time></trkpt><trkpt lat="45.6233059" lon="10.9694089"><ele>760.0</ele><time>2026-05-01T09:21:31.366Z</time></trkpt><trkpt lat="45.6234722" lon="10.9695986"><ele>760.0</ele><time>2026-05-01T09:21:32.366Z</time></trkpt><trkpt lat="45.6236474" lon="10.969786"><ele>760.0</ele><time>2026-05-01T09:21:33.366Z</time></trkpt><trkpt lat="45.6238183" lon="10.9699616"><ele>766.3333333333334</ele><time>2026-05-01T09:21:34.366Z</time></trkpt><trkpt lat="45.6239831" lon="10.9701274"><ele>772.6666666666667</ele><time>2026-05-01T09:21:35.366Z</time></trkpt><trkpt lat="45.6241651" lon="10.9702695"><ele>779.0</ele><time>2026-05-01T09:21:36.366Z</time></trkpt><trkpt lat="45.624352" lon="10.9703852"><ele>786.6666666666667</ele><time>2026-05-01T09:21:37.366Z</time></trkpt><trkpt lat="45.6245228" lon="10.970477"><ele>794.3333333333333</ele><time>2026-05-01T09:21:38.366Z</time></trkpt><trkpt lat="45.6246685" lon="10.9705639"><ele>802.0</ele><time>2026-05-01T09:21:39.366Z</time></trkpt><trkpt lat="45.6247703" lon="10.9706609"><ele>802.0</ele><time>2026-05-01T09:21:40.366Z</time></trkpt><trkpt lat="45.624832" lon="10.9707732"><ele>802.0</ele><time>2026-05-01T09:21:41.365Z</time></trkpt><trkpt lat="45.6248382" lon="10.9709078"><ele>802.0</ele><time>2026-05-01T09:21:42.365Z</time></trkpt><trkpt lat="45.624797" lon="10.9710361"><ele>802.0</ele><time>2026-05-01T09:21:43.365Z</time></trkpt><trkpt lat="45.6247158" lon="10.9711401"><ele>802.0</ele><time>2026-05-01T09:21:44.366Z</time></trkpt><trkpt lat="45.6245766" lon="10.971235"><ele>800.6666666666666</ele><time>2026-05-01T09:21:45.366Z</time></trkpt><trkpt lat="45.6244207" lon="10.971327"><ele>799.3333333333333</ele><time>2026-05-01T09:21:46.366Z</time></trkpt><trkpt lat="45.6242632" lon="10.9714201"><ele>798.0</ele><time>2026-05-01T09:21:47.366Z</time></trkpt><trkpt lat="45.6240991" lon="10.9715166"><ele>798.0</ele><time>2026-05-01T09:21:48.366Z</time></trkpt><trkpt lat="45.6239177" lon="10.9716146"><ele>798.0</ele><time>2026-05-01T09:21:49.366Z</time></trkpt><trkpt lat="45.6237113" lon="10.9716963"><ele>798.0</ele><time>2026-05-01T09:21:50.366Z</time></trkpt><trkpt lat="45.6234998" lon="10.9717698"><ele>803.0</ele><time>2026-05-01T09:21:51.366Z</time></trkpt><trkpt lat="45.6233089" lon="10.9718131"><ele>808.0</ele><time>2026-05-01T09:21:52.366Z</time></trkpt><trkpt lat="45.6231442" lon="10.971857"><ele>813.0</ele><time>2026-05-01T09:21:53.366Z</time></trkpt><trkpt lat="45.6229842" lon="10.9719172"><ele>813.0</ele><time>2026-05-01T09:21:54.366Z</time></trkpt><trkpt lat="45.6228237" lon="10.9720119"><ele>813.0</ele><time>2026-05-01T09:21:55.366Z</time></trkpt><trkpt lat="45.6226697" lon="10.9721115"><ele>813.0</ele><time>2026-05-01T09:21:56.366Z</time></trkpt><trkpt lat="45.6225167" lon="10.9722"><ele>811.0</ele><time>2026-05-01T09:21:57.366Z</time></trkpt><trkpt lat="45.6223621" lon="10.9722848"><ele>809.0</ele><time>2026-05-01T09:21:58.366Z</time></trkpt><trkpt lat="45.6222102" lon="10.9723717"><ele>807.0</ele><time>2026-05-01T09:21:59.366Z</time></trkpt><trkpt lat="45.6220617" lon="10.9724603"><ele>810.0</ele><time>2026-05-01T09:22:00.366Z</time></trkpt><trkpt lat="45.6219166" lon="10.972547"><ele>813.0</ele><time>2026-05-01T09:22:01.366Z</time></trkpt><trkpt lat="45.6217734" lon="10.972634"><ele>816.0</ele><time>2026-05-01T09:22:02.366Z</time></trkpt><trkpt lat="45.6216316" lon="10.9727207"><ele>816.0</ele><time>2026-05-01T09:22:03.365Z</time></trkpt><trkpt lat="45.6214901" lon="10.9728073"><ele>816.0</ele><time>2026-05-01T09:22:04.366Z</time></trkpt><trkpt lat="45.621347" lon="10.9728968"><ele>816.0</ele><time>2026-05-01T09:22:05.366Z</time></trkpt><trkpt lat="45.6212018" lon="10.9729884"><ele>813.3333333333333</ele><time>2026-05-01T09:22:06.366Z</time></trkpt><trkpt lat="45.6210519" lon="10.9730868"><ele>810.6666666666666</ele><time>2026-05-01T09:22:07.366Z</time></trkpt><trkpt lat="45.6209031" lon="10.9731853"><ele>808.0</ele><time>2026-05-01T09:22:08.366Z</time></trkpt><trkpt lat="45.6207659" lon="10.973273"><ele>808.0</ele><time>2026-05-01T09:22:09.366Z</time></trkpt><trkpt lat="45.6206438" lon="10.9733514"><ele>808.0</ele><time>2026-05-01T09:22:10.366Z</time></trkpt><trkpt lat="45.6205325" lon="10.9734208"><ele>808.0</ele><time>2026-05-01T09:22:11.365Z</time></trkpt><trkpt lat="45.6204308" lon="10.9734856"><ele>808.0</ele><time>2026-05-01T09:22:12.366Z</time></trkpt><trkpt lat="45.6203465" lon="10.9735517"><ele>807.8</ele><time>2026-05-01T09:22:13.365Z</time></trkpt><trkpt lat="45.6202866" lon="10.9736333"><ele>807.5999999999999</ele><time>2026-05-01T09:22:14.365Z</time></trkpt><trkpt lat="45.6202576" lon="10.9737295"><ele>807.4000000000001</ele><time>2026-05-01T09:22:15.365Z</time></trkpt><trkpt lat="45.6202961" lon="10.9738815"><ele>807.2</ele><time>2026-05-01T09:22:17.366Z</time></trkpt><trkpt lat="45.6204284" lon="10.9739149"><ele>807.0</ele><time>2026-05-01T09:22:19.366Z</time></trkpt><trkpt lat="45.6205499" lon="10.9738925"><ele>808.5</ele><time>2026-05-01T09:22:20.366Z</time></trkpt><trkpt lat="45.6206772" lon="10.9738764"><ele>810.0</ele><time>2026-05-01T09:22:21.366Z</time></trkpt><trkpt lat="45.6208024" lon="10.9738684"><ele>811.5</ele><time>2026-05-01T09:22:22.366Z</time></trkpt><trkpt lat="45.6209288" lon="10.9738766"><ele>813.0</ele><time>2026-05-01T09:22:23.366Z</time></trkpt><trkpt lat="45.6210516" lon="10.973884"><ele>815.0</ele><time>2026-05-01T09:22:24.366Z</time></trkpt><trkpt lat="45.621169" lon="10.9738824"><ele>817.0</ele><time>2026-05-01T09:22:25.366Z</time></trkpt><trkpt lat="45.6212862" lon="10.9738631"><ele>819.0</ele><time>2026-05-01T09:22:26.366Z</time></trkpt><trkpt lat="45.6214028" lon="10.973819"><ele>821.0</ele><time>2026-05-01T09:22:27.366Z</time></trkpt><trkpt lat="45.6215152" lon="10.9737648"><ele>821.0</ele><time>2026-05-01T09:22:28.366Z</time></trkpt><trkpt lat="45.6216252" lon="10.9737063"><ele>821.0</ele><time>2026-05-01T09:22:29.366Z</time></trkpt><trkpt lat="45.6217317" lon="10.9736408"><ele>821.0</ele><time>2026-05-01T09:22:30.366Z</time></trkpt><trkpt lat="45.6218399" lon="10.9735798"><ele>821.0</ele><time>2026-05-01T09:22:31.366Z</time></trkpt><trkpt lat="45.6219498" lon="10.9735275"><ele>821.5</ele><time>2026-05-01T09:22:32.366Z</time></trkpt><trkpt lat="45.62206" lon="10.9734869"><ele>822.0</ele><time>2026-05-01T09:22:33.366Z</time></trkpt><trkpt lat="45.6221731" lon="10.9734542"><ele>822.5</ele><time>2026-05-01T09:22:34.366Z</time></trkpt><trkpt lat="45.6222849" lon="10.9734219"><ele>823.0</ele><time>2026-05-01T09:22:35.366Z</time></trkpt><trkpt lat="45.6223967" lon="10.9733916"><ele>823.0</ele><time>2026-05-01T09:22:36.366Z</time></trkpt><trkpt lat="45.6225098" lon="10.9733671"><ele>823.0</ele><time>2026-05-01T09:22:37.366Z</time></trkpt><trkpt lat="45.6226247" lon="10.9733463"><ele>823.0</ele><time>2026-05-01T09:22:38.366Z</time></trkpt><trkpt lat="45.6227415" lon="10.9733247"><ele>823.0</ele><time>2026-05-01T09:22:39.366Z</time></trkpt><trkpt lat="45.6228612" lon="10.9733044"><ele>822.5</ele><time>2026-05-01T09:22:40.366Z</time></trkpt><trkpt lat="45.6229843" lon="10.9732862"><ele>822.0</ele><time>2026-05-01T09:22:41.366Z</time></trkpt><trkpt lat="45.6231079" lon="10.9732724"><ele>821.5</ele><time>2026-05-01T09:22:42.366Z</time></trkpt><trkpt lat="45.6232347" lon="10.9732581"><ele>821.0</ele><time>2026-05-01T09:22:43.365Z</time></trkpt><trkpt lat="45.6233675" lon="10.973237"><ele>821.0</ele><time>2026-05-01T09:22:44.366Z</time></trkpt><trkpt lat="45.6235018" lon="10.97321"><ele>821.0</ele><time>2026-05-01T09:22:45.365Z</time></trkpt><trkpt lat="45.6236321" lon="10.97318"><ele>821.0</ele><time>2026-05-01T09:22:46.366Z</time></trkpt><trkpt lat="45.623757" lon="10.9731516"><ele>821.0</ele><time>2026-05-01T09:22:47.366Z</time></trkpt><trkpt lat="45.6238818" lon="10.9731228"><ele>822.5</ele><time>2026-05-01T09:22:48.366Z</time></trkpt><trkpt lat="45.6240067" lon="10.9730949"><ele>824.0</ele><time>2026-05-01T09:22:49.366Z</time></trkpt><trkpt lat="45.6241316" lon="10.9730681"><ele>825.5</ele><time>2026-05-01T09:22:50.366Z</time></trkpt><trkpt lat="45.6242579" lon="10.9730428"><ele>827.0</ele><time>2026-05-01T09:22:51.366Z</time></trkpt><trkpt lat="45.624383" lon="10.9730197"><ele>828.75</ele><time>2026-05-01T09:22:52.365Z</time></trkpt><trkpt lat="45.624508" lon="10.972995"><ele>830.5</ele><time>2026-05-01T09:22:53.366Z</time></trkpt><trkpt lat="45.6246346" lon="10.9729648"><ele>832.25</ele><time>2026-05-01T09:22:54.366Z</time></trkpt><trkpt lat="45.6247646" lon="10.9729346"><ele>834.0</ele><time>2026-05-01T09:22:55.366Z</time></trkpt><trkpt lat="45.6248965" lon="10.9729064"><ele>834.0</ele><time>2026-05-01T09:22:56.366Z</time></trkpt><trkpt lat="45.6250297" lon="10.9728719"><ele>834.0</ele><time>2026-05-01T09:22:57.366Z</time></trkpt><trkpt lat="45.6251663" lon="10.9728302"><ele>834.0</ele><time>2026-05-01T09:22:58.365Z</time></trkpt><trkpt lat="45.6253063" lon="10.9727912"><ele>834.0</ele><time>2026-05-01T09:22:59.366Z</time></trkpt><trkpt lat="45.625445" lon="10.9727594"><ele>836.6666666666667</ele><time>2026-05-01T09:23:00.366Z</time></trkpt><trkpt lat="45.6255845" lon="10.9727235"><ele>839.3333333333334</ele><time>2026-05-01T09:23:01.366Z</time></trkpt><trkpt lat="45.6257318" lon="10.9726822"><ele>842.0</ele><time>2026-05-01T09:23:02.366Z</time></trkpt><trkpt lat="45.6258898" lon="10.9726335"><ele>842.0</ele><time>2026-05-01T09:23:03.366Z</time></trkpt><trkpt lat="45.6260424" lon="10.9725782"><ele>842.0</ele><time>2026-05-01T09:23:04.366Z</time></trkpt><trkpt lat="45.6261839" lon="10.9725227"><ele>842.0</ele><time>2026-05-01T09:23:05.366Z</time></trkpt><trkpt lat="45.6263188" lon="10.9724683"><ele>842.0</ele><time>2026-05-01T09:23:06.366Z</time></trkpt><trkpt lat="45.6264459" lon="10.9724121"><ele>843.75</ele><time>2026-05-01T09:23:07.366Z</time></trkpt><trkpt lat="45.6265722" lon="10.9723441"><ele>845.5</ele><time>2026-05-01T09:23:08.366Z</time></trkpt><trkpt lat="45.6266938" lon="10.9722642"><ele>847.25</ele><time>2026-05-01T09:23:09.366Z</time></trkpt><trkpt lat="45.6268164" lon="10.9721856"><ele>849.0</ele><time>2026-05-01T09:23:10.366Z</time></trkpt><trkpt lat="45.6269352" lon="10.9721071"><ele>850.75</ele><time>2026-05-01T09:23:11.365Z</time></trkpt><trkpt lat="45.6270476" lon="10.972025"><ele>852.5</ele><time>2026-05-01T09:23:12.366Z</time></trkpt><trkpt lat="45.6271482" lon="10.9719243"><ele>854.25</ele><time>2026-05-01T09:23:13.366Z</time></trkpt><trkpt lat="45.6272269" lon="10.9717889"><ele>856.0</ele><time>2026-05-01T09:23:14.366Z</time></trkpt><trkpt lat="45.6272748" lon="10.971626"><ele>857.75</ele><time>2026-05-01T09:23:15.366Z</time></trkpt><trkpt lat="45.6272988" lon="10.971443"><ele>859.5</ele><time>2026-05-01T09:23:16.366Z</time></trkpt><trkpt lat="45.6273213" lon="10.9712614"><ele>861.25</ele><time>2026-05-01T09:23:17.365Z</time></trkpt><trkpt lat="45.6273523" lon="10.9710953"><ele>863.0</ele><time>2026-05-01T09:23:18.366Z</time></trkpt><trkpt lat="45.6274047" lon="10.9709541"><ele>863.25</ele><time>2026-05-01T09:23:19.365Z</time></trkpt><trkpt lat="45.6274827" lon="10.9708434"><ele>863.5</ele><time>2026-05-01T09:23:20.366Z</time></trkpt><trkpt lat="45.6275857" lon="10.970768"><ele>863.75</ele><time>2026-05-01T09:23:21.366Z</time></trkpt><trkpt lat="45.6277084" lon="10.9707233"><ele>864.0</ele><time>2026-05-01T09:23:22.366Z</time></trkpt><trkpt lat="45.6278406" lon="10.9707038"><ele>866.0</ele><time>2026-05-01T09:23:23.366Z</time></trkpt><trkpt lat="45.6279776" lon="10.9707097"><ele>868.0</ele><time>2026-05-01T09:23:24.366Z</time></trkpt><trkpt lat="45.6281193" lon="10.9707312"><ele>870.0</ele><time>2026-05-01T09:23:25.366Z</time></trkpt><trkpt lat="45.6282628" lon="10.970756"><ele>872.0</ele><time>2026-05-01T09:23:26.366Z</time></trkpt><trkpt lat="45.6284112" lon="10.9707777"><ele>872.0</ele><time>2026-05-01T09:23:27.366Z</time></trkpt><trkpt lat="45.6285597" lon="10.9707966"><ele>872.0</ele><time>2026-05-01T09:23:28.365Z</time></trkpt><trkpt lat="45.6287084" lon="10.970813"><ele>872.0</ele><time>2026-05-01T09:23:29.366Z</time></trkpt><trkpt lat="45.6288552" lon="10.9708282"><ele>872.0</ele><time>2026-05-01T09:23:30.366Z</time></trkpt><trkpt lat="45.6290017" lon="10.9708384"><ele>872.75</ele><time>2026-05-01T09:23:31.366Z</time></trkpt><trkpt lat="45.6291497" lon="10.9708437"><ele>873.5</ele><time>2026-05-01T09:23:32.366Z</time></trkpt><trkpt lat="45.6292979" lon="10.9708378"><ele>874.25</ele><time>2026-05-01T09:23:33.366Z</time></trkpt><trkpt lat="45.6294434" lon="10.9708101"><ele>875.0</ele><time>2026-05-01T09:23:34.366Z</time></trkpt><trkpt lat="45.629591" lon="10.970763"><ele>877.6666666666667</ele><time>2026-05-01T09:23:35.366Z</time></trkpt><trkpt lat="45.6297398" lon="10.9707038"><ele>880.3333333333333</ele><time>2026-05-01T09:23:36.365Z</time></trkpt><trkpt lat="45.6298836" lon="10.9706386"><ele>883.0</ele><time>2026-05-01T09:23:37.366Z</time></trkpt><trkpt lat="45.6300233" lon="10.9705727"><ele>883.0</ele><time>2026-05-01T09:23:38.366Z</time></trkpt><trkpt lat="45.6301583" lon="10.970508"><ele>883.0</ele><time>2026-05-01T09:23:39.366Z</time></trkpt><trkpt lat="45.6302916" lon="10.9704461"><ele>883.0</ele><time>2026-05-01T09:23:40.366Z</time></trkpt><trkpt lat="45.6304189" lon="10.9703823"><ele>883.0</ele><time>2026-05-01T09:23:41.366Z</time></trkpt><trkpt lat="45.6305406" lon="10.9702983"><ele>884.25</ele><time>2026-05-01T09:23:42.366Z</time></trkpt><trkpt lat="45.6306577" lon="10.9701861"><ele>885.5</ele><time>2026-05-01T09:23:43.366Z</time></trkpt><trkpt lat="45.6307627" lon="10.9700486"><ele>886.75</ele><time>2026-05-01T09:23:44.365Z</time></trkpt><trkpt lat="45.630853" lon="10.9698965"><ele>888.0</ele><time>2026-05-01T09:23:45.366Z</time></trkpt><trkpt lat="45.6309298" lon="10.9697403"><ele>888.0</ele><time>2026-05-01T09:23:46.365Z</time></trkpt><trkpt lat="45.630999" lon="10.9695851"><ele>888.0</ele><time>2026-05-01T09:23:47.366Z</time></trkpt><trkpt lat="45.6310665" lon="10.9694362"><ele>888.0</ele><time>2026-05-01T09:23:48.366Z</time></trkpt><trkpt lat="45.631135" lon="10.9692944"><ele>888.0</ele><time>2026-05-01T09:23:49.366Z</time></trkpt><trkpt lat="45.631208" lon="10.9691562"><ele>889.25</ele><time>2026-05-01T09:23:50.366Z</time></trkpt><trkpt lat="45.6312847" lon="10.969029"><ele>890.5</ele><time>2026-05-01T09:23:51.366Z</time></trkpt><trkpt lat="45.6313729" lon="10.9689142"><ele>891.75</ele><time>2026-05-01T09:23:52.366Z</time></trkpt><trkpt lat="45.6314666" lon="10.9688012"><ele>893.0</ele><time>2026-05-01T09:23:53.366Z</time></trkpt><trkpt lat="45.6315538" lon="10.9686879"><ele>893.0</ele><time>2026-05-01T09:23:54.366Z</time></trkpt><trkpt lat="45.6316401" lon="10.9685767"><ele>893.0</ele><time>2026-05-01T09:23:55.366Z</time></trkpt><trkpt lat="45.6317282" lon="10.9684793"><ele>893.0</ele><time>2026-05-01T09:23:56.366Z</time></trkpt><trkpt lat="45.6318208" lon="10.9683883"><ele>893.0</ele><time>2026-05-01T09:23:57.366Z</time></trkpt><trkpt lat="45.6319202" lon="10.9683334"><ele>893.0</ele><time>2026-05-01T09:23:58.366Z</time></trkpt><trkpt lat="45.6320212" lon="10.9683062"><ele>894.0</ele><time>2026-05-01T09:23:59.366Z</time></trkpt><trkpt lat="45.6321295" lon="10.9682876"><ele>895.0</ele><time>2026-05-01T09:24:00.366Z</time></trkpt><trkpt lat="45.6322395" lon="10.9682824"><ele>896.0</ele><time>2026-05-01T09:24:01.366Z</time></trkpt><trkpt lat="45.6323511" lon="10.9682805"><ele>897.0</ele><time>2026-05-01T09:24:02.366Z</time></trkpt><trkpt lat="45.6324661" lon="10.9682778"><ele>898.0</ele><time>2026-05-01T09:24:03.366Z</time></trkpt><trkpt lat="45.6325829" lon="10.9682703"><ele>898.0</ele><time>2026-05-01T09:24:04.365Z</time></trkpt><trkpt lat="45.6327044" lon="10.9682598"><ele>898.0</ele><time>2026-05-01T09:24:05.366Z</time></trkpt><trkpt lat="45.6328312" lon="10.9682524"><ele>898.0</ele><time>2026-05-01T09:24:06.366Z</time></trkpt><trkpt lat="45.63296" lon="10.9682361"><ele>898.0</ele><time>2026-05-01T09:24:07.366Z</time></trkpt><trkpt lat="45.6330945" lon="10.9682222"><ele>900.5</ele><time>2026-05-01T09:24:08.366Z</time></trkpt><trkpt lat="45.6332254" lon="10.9681914"><ele>903.0</ele><time>2026-05-01T09:24:09.366Z</time></trkpt><trkpt lat="45.6333627" lon="10.968166"><ele>905.5</ele><time>2026-05-01T09:24:10.366Z</time></trkpt><trkpt lat="45.6334995" lon="10.968146"><ele>908.0</ele><time>2026-05-01T09:24:11.366Z</time></trkpt><trkpt lat="45.6336363" lon="10.9681308"><ele>911.25</ele><time>2026-05-01T09:24:12.366Z</time></trkpt><trkpt lat="45.6337746" lon="10.9681067"><ele>914.5</ele><time>2026-05-01T09:24:13.366Z</time></trkpt><trkpt lat="45.6339145" lon="10.9680784"><ele>917.75</ele><time>2026-05-01T09:24:14.366Z</time></trkpt><trkpt lat="45.6340565" lon="10.9680461"><ele>921.0</ele><time>2026-05-01T09:24:15.366Z</time></trkpt><trkpt lat="45.6342014" lon="10.968019"><ele>921.0</ele><time>2026-05-01T09:24:16.366Z</time></trkpt><trkpt lat="45.6343497" lon="10.9680004"><ele>921.0</ele><time>2026-05-01T09:24:17.366Z</time></trkpt><trkpt lat="45.6345" lon="10.9679844"><ele>921.0</ele><time>2026-05-01T09:24:18.366Z</time></trkpt><trkpt lat="45.6346472" lon="10.9679581"><ele>921.0</ele><time>2026-05-01T09:24:19.366Z</time></trkpt><trkpt lat="45.6347904" lon="10.9679042"><ele>923.3333333333333</ele><time>2026-05-01T09:24:20.366Z</time></trkpt><trkpt lat="45.6349317" lon="10.9678265"><ele>925.6666666666666</ele><time>2026-05-01T09:24:21.366Z</time></trkpt><trkpt lat="45.635073" lon="10.9677305"><ele>928.0</ele><time>2026-05-01T09:24:22.366Z</time></trkpt><trkpt lat="45.6352126" lon="10.9676414"><ele>929.0</ele><time>2026-05-01T09:24:23.366Z</time></trkpt><trkpt lat="45.6353501" lon="10.9675569"><ele>930.0</ele><time>2026-05-01T09:24:24.366Z</time></trkpt><trkpt lat="45.6354868" lon="10.9674818"><ele>931.0</ele><time>2026-05-01T09:24:25.366Z</time></trkpt><trkpt lat="45.6356232" lon="10.9674165"><ele>932.0</ele><time>2026-05-01T09:24:26.366Z</time></trkpt><trkpt lat="45.6357528" lon="10.9673652"><ele>932.0</ele><time>2026-05-01T09:24:27.366Z</time></trkpt><trkpt lat="45.6358883" lon="10.9673271"><ele>932.0</ele><time>2026-05-01T09:24:28.365Z</time></trkpt><trkpt lat="45.6360219" lon="10.9672846"><ele>932.0</ele><time>2026-05-01T09:24:29.366Z</time></trkpt><trkpt lat="45.6361581" lon="10.9672372"><ele>932.0</ele><time>2026-05-01T09:24:30.366Z</time></trkpt><trkpt lat="45.6362993" lon="10.9671793"><ele>933.3333333333334</ele><time>2026-05-01T09:24:31.366Z</time></trkpt><trkpt lat="45.6364397" lon="10.9671025"><ele>934.6666666666667</ele><time>2026-05-01T09:24:32.366Z</time></trkpt><trkpt lat="45.6365855" lon="10.9670085"><ele>936.0</ele><time>2026-05-01T09:24:33.366Z</time></trkpt><trkpt lat="45.6367305" lon="10.9669053"><ele>936.0</ele><time>2026-05-01T09:24:34.365Z</time></trkpt><trkpt lat="45.6368771" lon="10.966797"><ele>936.0</ele><time>2026-05-01T09:24:35.366Z</time></trkpt><trkpt lat="45.6370241" lon="10.9666863"><ele>936.0</ele><time>2026-05-01T09:24:36.366Z</time></trkpt><trkpt lat="45.6371706" lon="10.9665722"><ele>935.6666666666667</ele><time>2026-05-01T09:24:37.366Z</time></trkpt><trkpt lat="45.6373178" lon="10.9664554"><ele>935.3333333333334</ele><time>2026-05-01T09:24:38.366Z</time></trkpt><trkpt lat="45.6374643" lon="10.9663354"><ele>935.0</ele><time>2026-05-01T09:24:39.366Z</time></trkpt><trkpt lat="45.6376116" lon="10.9662149"><ele>935.0</ele><time>2026-05-01T09:24:40.366Z</time></trkpt><trkpt lat="45.6377578" lon="10.9661001"><ele>935.0</ele><time>2026-05-01T09:24:41.366Z</time></trkpt><trkpt lat="45.6379007" lon="10.9659912"><ele>935.0</ele><time>2026-05-01T09:24:42.366Z</time></trkpt><trkpt lat="45.6380513" lon="10.9659178"><ele>937.0</ele><time>2026-05-01T09:24:43.366Z</time></trkpt><trkpt lat="45.6382" lon="10.9658401"><ele>939.0</ele><time>2026-05-01T09:24:44.366Z</time></trkpt><trkpt lat="45.6383361" lon="10.9657423"><ele>941.0</ele><time>2026-05-01T09:24:45.366Z</time></trkpt><trkpt lat="45.6384556" lon="10.9656143"><ele>941.0</ele><time>2026-05-01T09:24:46.366Z</time></trkpt><trkpt lat="45.6385515" lon="10.9654772"><ele>940.9999999999999</ele><time>2026-05-01T09:24:47.365Z</time></trkpt><trkpt lat="45.6386301" lon="10.9653587"><ele>940.9999999999999</ele><time>2026-05-01T09:24:48.366Z</time></trkpt><trkpt lat="45.6386867" lon="10.9652822"><ele>941.0</ele><time>2026-05-01T09:24:49.366Z</time></trkpt><trkpt lat="45.6387624" lon="10.9652209"><ele>941.0</ele><time>2026-05-01T09:24:51.366Z</time></trkpt><trkpt lat="45.6388492" lon="10.9652466"><ele>942.1999999999999</ele><time>2026-05-01T09:24:53.366Z</time></trkpt><trkpt lat="45.6389162" lon="10.9652971"><ele>943.3999999999999</ele><time>2026-05-01T09:24:54.365Z</time></trkpt><trkpt lat="45.638997" lon="10.9653417"><ele>944.6</ele><time>2026-05-01T09:24:55.366Z</time></trkpt><trkpt lat="45.6390817" lon="10.9653401"><ele>945.8</ele><time>2026-05-01T09:24:56.366Z</time></trkpt><trkpt lat="45.639174" lon="10.9652781"><ele>947.0</ele><time>2026-05-01T09:24:57.366Z</time></trkpt><trkpt lat="45.6392502" lon="10.9651724"><ele>949.0</ele><time>2026-05-01T09:24:58.366Z</time></trkpt><trkpt lat="45.6393064" lon="10.9650116"><ele>951.0</ele><time>2026-05-01T09:24:59.365Z</time></trkpt><trkpt lat="45.6393171" lon="10.9648104"><ele>953.0</ele><time>2026-05-01T09:25:00.366Z</time></trkpt><trkpt lat="45.6393086" lon="10.9645935"><ele>955.0</ele><time>2026-05-01T09:25:01.365Z</time></trkpt><trkpt lat="45.6393084" lon="10.9643951"><ele>955.0</ele><time>2026-05-01T09:25:02.366Z</time></trkpt><trkpt lat="45.6393277" lon="10.9642074"><ele>955.0</ele><time>2026-05-01T09:25:03.366Z</time></trkpt><trkpt lat="45.6393734" lon="10.9640377"><ele>955.0</ele><time>2026-05-01T09:25:04.365Z</time></trkpt><trkpt lat="45.6394448" lon="10.9638927"><ele>955.0</ele><time>2026-05-01T09:25:05.366Z</time></trkpt><trkpt lat="45.6395405" lon="10.9637903"><ele>957.25</ele><time>2026-05-01T09:25:06.365Z</time></trkpt><trkpt lat="45.6396609" lon="10.9637436"><ele>959.5</ele><time>2026-05-01T09:25:07.365Z</time></trkpt><trkpt lat="45.6397908" lon="10.963761"><ele>961.75</ele><time>2026-05-01T09:25:08.365Z</time></trkpt><trkpt lat="45.6399321" lon="10.9638192"><ele>964.0</ele><time>2026-05-01T09:25:09.366Z</time></trkpt><trkpt lat="45.640086" lon="10.9638984"><ele>964.0</ele><time>2026-05-01T09:25:10.366Z</time></trkpt><trkpt lat="45.640245" lon="10.9639788"><ele>964.0</ele><time>2026-05-01T09:25:11.366Z</time></trkpt><trkpt lat="45.6404081" lon="10.9640661"><ele>964.0</ele><time>2026-05-01T09:25:12.366Z</time></trkpt><trkpt lat="45.6405784" lon="10.9641507"><ele>970.0</ele><time>2026-05-01T09:25:13.366Z</time></trkpt><trkpt lat="45.6407539" lon="10.9642391"><ele>976.0</ele><time>2026-05-01T09:25:14.366Z</time></trkpt><trkpt lat="45.6409524" lon="10.9643328"><ele>982.0</ele><time>2026-05-01T09:25:15.366Z</time></trkpt><trkpt lat="45.6411636" lon="10.964431"><ele>986.0</ele><time>2026-05-01T09:25:16.366Z</time></trkpt><trkpt lat="45.6413824" lon="10.9645128"><ele>990.0</ele><time>2026-05-01T09:25:17.366Z</time></trkpt><trkpt lat="45.6416198" lon="10.9645574"><ele>990.0</ele><time>2026-05-01T09:25:18.366Z</time></trkpt><trkpt lat="45.6418563" lon="10.9645769"><ele>990.0</ele><time>2026-05-01T09:25:19.366Z</time></trkpt><trkpt lat="45.6420871" lon="10.9645856"><ele>992.3333333333333</ele><time>2026-05-01T09:25:20.366Z</time></trkpt><trkpt lat="45.6423107" lon="10.9645967"><ele>994.6666666666666</ele><time>2026-05-01T09:25:21.366Z</time></trkpt><trkpt lat="45.6425259" lon="10.9645976"><ele>997.0</ele><time>2026-05-01T09:25:22.366Z</time></trkpt><trkpt lat="45.64274" lon="10.9646041"><ele>999.0</ele><time>2026-05-01T09:25:23.366Z</time></trkpt><trkpt lat="45.6429497" lon="10.9646135"><ele>1001.0</ele><time>2026-05-01T09:25:24.366Z</time></trkpt><trkpt lat="45.6431519" lon="10.9646234"><ele>1003.0</ele><time>2026-05-01T09:25:25.366Z</time></trkpt><trkpt lat="45.6433518" lon="10.964639"><ele>1003.0</ele><time>2026-05-01T09:25:26.366Z</time></trkpt><trkpt lat="45.6435412" lon="10.9646562"><ele>1003.0</ele><time>2026-05-01T09:25:27.366Z</time></trkpt><trkpt lat="45.6437258" lon="10.9646686"><ele>1003.0</ele><time>2026-05-01T09:25:28.366Z</time></trkpt><trkpt lat="45.6439059" lon="10.9646705"><ele>1006.0</ele><time>2026-05-01T09:25:29.366Z</time></trkpt><trkpt lat="45.6440853" lon="10.964668"><ele>1009.0</ele><time>2026-05-01T09:25:30.366Z</time></trkpt><trkpt lat="45.6442663" lon="10.9646556"><ele>1012.0</ele><time>2026-05-01T09:25:31.366Z</time></trkpt><trkpt lat="45.6444574" lon="10.9646193"><ele>1016.0</ele><time>2026-05-01T09:25:32.366Z</time></trkpt><trkpt lat="45.6446526" lon="10.9645455"><ele>1020.0</ele><time>2026-05-01T09:25:33.366Z</time></trkpt><trkpt lat="45.6448319" lon="10.9644371"><ele>1024.0</ele><time>2026-05-01T09:25:34.365Z</time></trkpt><trkpt lat="45.6450033" lon="10.9642807"><ele>1024.0</ele><time>2026-05-01T09:25:35.366Z</time></trkpt><trkpt lat="45.6451529" lon="10.9640953"><ele>1024.0</ele><time>2026-05-01T09:25:36.366Z</time></trkpt><trkpt lat="45.6452553" lon="10.9638903"><ele>1024.0</ele><time>2026-05-01T09:25:37.366Z</time></trkpt><trkpt lat="45.6453219" lon="10.9636893"><ele>1024.0</ele><time>2026-05-01T09:25:38.366Z</time></trkpt><trkpt lat="45.6453918" lon="10.9634948"><ele>1024.0</ele><time>2026-05-01T09:25:39.366Z</time></trkpt><trkpt lat="45.6454798" lon="10.9633308"><ele>1024.0</ele><time>2026-05-01T09:25:40.366Z</time></trkpt><trkpt lat="45.645609" lon="10.9632053"><ele>1021.6666666666666</ele><time>2026-05-01T09:25:41.366Z</time></trkpt><trkpt lat="45.6457532" lon="10.9631604"><ele>1019.3333333333333</ele><time>2026-05-01T09:25:42.365Z</time></trkpt><trkpt lat="45.6459115" lon="10.9631937"><ele>1017.0</ele><time>2026-05-01T09:25:43.366Z</time></trkpt><trkpt lat="45.6460699" lon="10.9632795"><ele>1020.3333333333333</ele><time>2026-05-01T09:25:44.365Z</time></trkpt><trkpt lat="45.6462309" lon="10.9633742"><ele>1023.6666666666666</ele><time>2026-05-01T09:25:45.365Z</time></trkpt><trkpt lat="45.6463873" lon="10.9634638"><ele>1027.0</ele><time>2026-05-01T09:25:46.366Z</time></trkpt><trkpt lat="45.6465376" lon="10.9635583"><ele>1027.0</ele><time>2026-05-01T09:25:47.366Z</time></trkpt><trkpt lat="45.6466737" lon="10.963672"><ele>1027.0</ele><time>2026-05-01T09:25:48.366Z</time></trkpt><trkpt lat="45.6467922" lon="10.9638271"><ele>1027.0</ele><time>2026-05-01T09:25:49.366Z</time></trkpt><trkpt lat="45.646889" lon="10.9640296"><ele>1026.3333333333333</ele><time>2026-05-01T09:25:50.366Z</time></trkpt><trkpt lat="45.6469537" lon="10.9642543"><ele>1025.6666666666667</ele><time>2026-05-01T09:25:51.366Z</time></trkpt><trkpt lat="45.6469989" lon="10.9644582"><ele>1025.0</ele><time>2026-05-01T09:25:52.366Z</time></trkpt><trkpt lat="45.6470563" lon="10.9646347"><ele>1027.6666666666667</ele><time>2026-05-01T09:25:53.366Z</time></trkpt><trkpt lat="45.6471467" lon="10.9647998"><ele>1030.3333333333333</ele><time>2026-05-01T09:25:54.365Z</time></trkpt><trkpt lat="45.6472785" lon="10.964947"><ele>1033.0</ele><time>2026-05-01T09:25:55.366Z</time></trkpt><trkpt lat="45.647435" lon="10.9650714"><ele>1033.0</ele><time>2026-05-01T09:25:56.366Z</time></trkpt><trkpt lat="45.6476011" lon="10.9651915"><ele>1033.0</ele><time>2026-05-01T09:25:57.365Z</time></trkpt><trkpt lat="45.6477714" lon="10.9653163"><ele>1033.0</ele><time>2026-05-01T09:25:58.366Z</time></trkpt><trkpt lat="45.6479386" lon="10.9654371"><ele>1033.0</ele><time>2026-05-01T09:25:59.366Z</time></trkpt><trkpt lat="45.6480989" lon="10.9655544"><ele>1033.0</ele><time>2026-05-01T09:26:00.365Z</time></trkpt><trkpt lat="45.6482513" lon="10.965685"><ele>1033.0</ele><time>2026-05-01T09:26:01.366Z</time></trkpt><trkpt lat="45.6483813" lon="10.9658513"><ele>1029.3333333333333</ele><time>2026-05-01T09:26:02.365Z</time></trkpt><trkpt lat="45.6484817" lon="10.9660638"><ele>1025.6666666666667</ele><time>2026-05-01T09:26:03.365Z</time></trkpt><trkpt lat="45.64854" lon="10.9663116"><ele>1022.0</ele><time>2026-05-01T09:26:04.366Z</time></trkpt><trkpt lat="45.6485487" lon="10.9665723"><ele>1021.0</ele><time>2026-05-01T09:26:05.366Z</time></trkpt><trkpt lat="45.6485344" lon="10.9668195"><ele>1020.0</ele><time>2026-05-01T09:26:06.366Z</time></trkpt><trkpt lat="45.6485429" lon="10.9670557"><ele>1019.0</ele><time>2026-05-01T09:26:07.366Z</time></trkpt><trkpt lat="45.6485946" lon="10.9672798"><ele>1021.0</ele><time>2026-05-01T09:26:08.366Z</time></trkpt><trkpt lat="45.6486923" lon="10.9674712"><ele>1023.0</ele><time>2026-05-01T09:26:09.365Z</time></trkpt><trkpt lat="45.6488277" lon="10.9676034"><ele>1025.0</ele><time>2026-05-01T09:26:10.366Z</time></trkpt><trkpt lat="45.649003" lon="10.9676549"><ele>1025.0</ele><time>2026-05-01T09:26:11.366Z</time></trkpt><trkpt lat="45.6491986" lon="10.9676518"><ele>1025.0</ele><time>2026-05-01T09:26:12.366Z</time></trkpt><trkpt lat="45.6494145" lon="10.967632"><ele>1025.0</ele><time>2026-05-01T09:26:13.366Z</time></trkpt><trkpt lat="45.6496356" lon="10.967623"><ele>1025.0</ele><time>2026-05-01T09:26:14.365Z</time></trkpt><trkpt lat="45.6498534" lon="10.9676373"><ele>1025.0</ele><time>2026-05-01T09:26:15.366Z</time></trkpt><trkpt lat="45.6500575" lon="10.967686"><ele>1025.0</ele><time>2026-05-01T09:26:16.366Z</time></trkpt><trkpt lat="45.6502539" lon="10.967731"><ele>1026.6666666666667</ele><time>2026-05-01T09:26:17.366Z</time></trkpt><trkpt lat="45.6504517" lon="10.9677439"><ele>1028.3333333333333</ele><time>2026-05-01T09:26:18.366Z</time></trkpt><trkpt lat="45.65065" lon="10.967725"><ele>1030.0</ele><time>2026-05-01T09:26:19.366Z</time></trkpt><trkpt lat="45.6508422" lon="10.9676845"><ele>1030.0</ele><time>2026-05-01T09:26:20.366Z</time></trkpt><trkpt lat="45.6510209" lon="10.9676439"><ele>1030.0</ele><time>2026-05-01T09:26:21.366Z</time></trkpt><trkpt lat="45.6511951" lon="10.9676302"><ele>1030.0</ele><time>2026-05-01T09:26:22.366Z</time></trkpt><trkpt lat="45.6513609" lon="10.967691"><ele>1034.3333333333333</ele><time>2026-05-01T09:26:23.366Z</time></trkpt><trkpt lat="45.6515019" lon="10.9678391"><ele>1038.6666666666667</ele><time>2026-05-01T09:26:24.366Z</time></trkpt><trkpt lat="45.6515955" lon="10.9680538"><ele>1043.0</ele><time>2026-05-01T09:26:25.366Z</time></trkpt><trkpt lat="45.6516399" lon="10.9683052"><ele>1042.3333333333335</ele><time>2026-05-01T09:26:26.366Z</time></trkpt><trkpt lat="45.6516575" lon="10.9685659"><ele>1041.6666666666667</ele><time>2026-05-01T09:26:27.366Z</time></trkpt><trkpt lat="45.6516809" lon="10.9688315"><ele>1041.0</ele><time>2026-05-01T09:26:28.366Z</time></trkpt><trkpt lat="45.6517149" lon="10.9690659"><ele>1038.6666666666667</ele><time>2026-05-01T09:26:29.365Z</time></trkpt><trkpt lat="45.6517846" lon="10.9692612"><ele>1036.3333333333335</ele><time>2026-05-01T09:26:30.366Z</time></trkpt><trkpt lat="45.6519024" lon="10.9693993"><ele>1034.0</ele><time>2026-05-01T09:26:31.366Z</time></trkpt><trkpt lat="45.6520663" lon="10.9694697"><ele>1034.0</ele><time>2026-05-01T09:26:32.366Z</time></trkpt><trkpt lat="45.6522546" lon="10.9694941"><ele>1034.0</ele><time>2026-05-01T09:26:33.366Z</time></trkpt><trkpt lat="45.6524516" lon="10.9695148"><ele>1034.0</ele><time>2026-05-01T09:26:34.366Z</time></trkpt><trkpt lat="45.6526523" lon="10.9695364"><ele>1033.6666666666667</ele><time>2026-05-01T09:26:35.366Z</time></trkpt><trkpt lat="45.6528443" lon="10.9695538"><ele>1033.3333333333333</ele><time>2026-05-01T09:26:36.366Z</time></trkpt><trkpt lat="45.6530412" lon="10.9695387"><ele>1033.0</ele><time>2026-05-01T09:26:37.366Z</time></trkpt><trkpt lat="45.6532632" lon="10.9694722"><ele>1033.0</ele><time>2026-05-01T09:26:38.365Z</time></trkpt><trkpt lat="45.6534836" lon="10.9693727"><ele>1033.0</ele><time>2026-05-01T09:26:39.366Z</time></trkpt><trkpt lat="45.6536752" lon="10.9692482"><ele>1033.0</ele><time>2026-05-01T09:26:40.366Z</time></trkpt><trkpt lat="45.6538574" lon="10.969142"><ele>1035.6666666666665</ele><time>2026-05-01T09:26:41.366Z</time></trkpt><trkpt lat="45.6540215" lon="10.9690665"><ele>1038.3333333333333</ele><time>2026-05-01T09:26:42.365Z</time></trkpt><trkpt lat="45.6541819" lon="10.9690492"><ele>1041.0</ele><time>2026-05-01T09:26:43.365Z</time></trkpt><trkpt lat="45.6543435" lon="10.9691051"><ele>1040.3333333333333</ele><time>2026-05-01T09:26:44.365Z</time></trkpt><trkpt lat="45.6544739" lon="10.9692481"><ele>1039.6666666666665</ele><time>2026-05-01T09:26:45.365Z</time></trkpt><trkpt lat="45.6545555" lon="10.9694566"><ele>1039.0</ele><time>2026-05-01T09:26:46.365Z</time></trkpt><trkpt lat="45.6546324" lon="10.9696476"><ele>1039.0</ele><time>2026-05-01T09:26:47.365Z</time></trkpt><trkpt lat="45.6547428" lon="10.9698132"><ele>1039.0</ele><time>2026-05-01T09:26:48.365Z</time></trkpt><trkpt lat="45.6548735" lon="10.9699483"><ele>1039.0</ele><time>2026-05-01T09:26:49.365Z</time></trkpt><trkpt lat="45.6549985" lon="10.9700715"><ele>1038.25</ele><time>2026-05-01T09:26:50.364Z</time></trkpt><trkpt lat="45.6551013" lon="10.9701935"><ele>1037.5</ele><time>2026-05-01T09:26:51.364Z</time></trkpt><trkpt lat="45.6551672" lon="10.9703444"><ele>1036.75</ele><time>2026-05-01T09:26:52.365Z</time></trkpt><trkpt lat="45.6551768" lon="10.9705212"><ele>1036.0</ele><time>2026-05-01T09:26:53.365Z</time></trkpt><trkpt lat="45.6551232" lon="10.9706776"><ele>1036.0</ele><time>2026-05-01T09:26:54.365Z</time></trkpt><trkpt lat="45.6550145" lon="10.9707978"><ele>1036.0</ele><time>2026-05-01T09:26:55.365Z</time></trkpt><trkpt lat="45.6549042" lon="10.9708681"><ele>1036.0</ele><time>2026-05-01T09:26:56.365Z</time></trkpt><trkpt lat="45.6548046" lon="10.9709337"><ele>1036.0</ele><time>2026-05-01T09:26:57.364Z</time></trkpt><trkpt lat="45.6547106" lon="10.9710057"><ele>1036.5</ele><time>2026-05-01T09:26:58.365Z</time></trkpt><trkpt lat="45.6546212" lon="10.9710878"><ele>1037.0</ele><time>2026-05-01T09:26:59.364Z</time></trkpt><trkpt lat="45.6545588" lon="10.9711806"><ele>1037.5</ele><time>2026-05-01T09:27:00.364Z</time></trkpt><trkpt lat="45.6545157" lon="10.9712796"><ele>1038.0</ele><time>2026-05-01T09:27:01.365Z</time></trkpt><trkpt lat="45.6544774" lon="10.971377"><ele>1038.5</ele><time>2026-05-01T09:27:02.365Z</time></trkpt><trkpt lat="45.6544394" lon="10.9714783"><ele>1039.0</ele><time>2026-05-01T09:27:03.365Z</time></trkpt><trkpt lat="45.654409" lon="10.9715734"><ele>1037.5</ele><time>2026-05-01T09:27:04.365Z</time></trkpt><trkpt lat="45.6543862" lon="10.9716577"><ele>1036.0</ele><time>2026-05-01T09:27:05.364Z</time></trkpt><trkpt lat="45.654375" lon="10.9718409"><ele>1034.5</ele><time>2026-05-01T09:27:07.365Z</time></trkpt><trkpt lat="45.6543931" lon="10.9719514"><ele>1033.0</ele><time>2026-05-01T09:27:08.365Z</time></trkpt><trkpt lat="45.6544291" lon="10.9720654"><ele>1031.5</ele><time>2026-05-01T09:27:09.365Z</time></trkpt><trkpt lat="45.6544845" lon="10.9721664"><ele>1030.0</ele><time>2026-05-01T09:27:10.365Z</time></trkpt><trkpt lat="45.654564" lon="10.9722382"><ele>1030.0</ele><time>2026-05-01T09:27:11.365Z</time></trkpt><trkpt lat="45.6546457" lon="10.9722681"><ele>1030.0</ele><time>2026-05-01T09:27:12.365Z</time></trkpt><trkpt lat="45.6547353" lon="10.9722856"><ele>1030.0</ele><time>2026-05-01T09:27:13.365Z</time></trkpt><trkpt lat="45.6548316" lon="10.9723046"><ele>1030.0</ele><time>2026-05-01T09:27:14.365Z</time></trkpt><trkpt lat="45.6549242" lon="10.9723242"><ele>1030.0</ele><time>2026-05-01T09:27:15.365Z</time></trkpt><trkpt lat="45.6550121" lon="10.9723492"><ele>1030.0</ele><time>2026-05-01T09:27:16.365Z</time></trkpt><trkpt lat="45.6551017" lon="10.9723836"><ele>1030.0</ele><time>2026-05-01T09:27:17.364Z</time></trkpt><trkpt lat="45.6551904" lon="10.9724236"><ele>1030.0</ele><time>2026-05-01T09:27:18.365Z</time></trkpt><trkpt lat="45.6552741" lon="10.972484"><ele>1030.0</ele><time>2026-05-01T09:27:19.365Z</time></trkpt><trkpt lat="45.6553447" lon="10.9725721"><ele>1030.0</ele><time>2026-05-01T09:27:20.364Z</time></trkpt><trkpt lat="45.6553938" lon="10.9726844"><ele>1032.0</ele><time>2026-05-01T09:27:21.365Z</time></trkpt><trkpt lat="45.6554205" lon="10.972828"><ele>1034.0</ele><time>2026-05-01T09:27:22.365Z</time></trkpt><trkpt lat="45.6554224" lon="10.9729912"><ele>1036.0</ele><time>2026-05-01T09:27:23.365Z</time></trkpt><trkpt lat="45.6554102" lon="10.9731712"><ele>1038.0</ele><time>2026-05-01T09:27:24.365Z</time></trkpt><trkpt lat="45.6553889" lon="10.9733626"><ele>1039.75</ele><time>2026-05-01T09:27:25.365Z</time></trkpt><trkpt lat="45.6553665" lon="10.9735588"><ele>1041.5</ele><time>2026-05-01T09:27:26.364Z</time></trkpt><trkpt lat="45.6553511" lon="10.9737525"><ele>1043.25</ele><time>2026-05-01T09:27:27.365Z</time></trkpt><trkpt lat="45.6553417" lon="10.9739403"><ele>1045.0</ele><time>2026-05-01T09:27:28.365Z</time></trkpt><trkpt lat="45.655343" lon="10.9741325"><ele>1042.75</ele><time>2026-05-01T09:27:29.364Z</time></trkpt><trkpt lat="45.6553366" lon="10.9743204"><ele>1040.5</ele><time>2026-05-01T09:27:30.365Z</time></trkpt><trkpt lat="45.6553081" lon="10.9745101"><ele>1038.25</ele><time>2026-05-01T09:27:31.365Z</time></trkpt><trkpt lat="45.6552605" lon="10.9747"><ele>1036.0</ele><time>2026-05-01T09:27:32.365Z</time></trkpt><trkpt lat="45.6551756" lon="10.9748755"><ele>1036.0</ele><time>2026-05-01T09:27:33.365Z</time></trkpt><trkpt lat="45.6550542" lon="10.9750078"><ele>1036.0</ele><time>2026-05-01T09:27:34.365Z</time></trkpt><trkpt lat="45.6549205" lon="10.9751068"><ele>1036.0</ele><time>2026-05-01T09:27:35.365Z</time></trkpt><trkpt lat="45.6547798" lon="10.9752013"><ele>1034.3333333333333</ele><time>2026-05-01T09:27:36.365Z</time></trkpt><trkpt lat="45.6546405" lon="10.9753156"><ele>1032.6666666666667</ele><time>2026-05-01T09:27:37.365Z</time></trkpt><trkpt lat="45.6544997" lon="10.9754533"><ele>1031.0</ele><time>2026-05-01T09:27:38.365Z</time></trkpt><trkpt lat="45.654387" lon="10.9755968"><ele>1031.0</ele><time>2026-05-01T09:27:39.364Z</time></trkpt><trkpt lat="45.6542922" lon="10.9757278"><ele>1031.0</ele><time>2026-05-01T09:27:40.365Z</time></trkpt><trkpt lat="45.6541978" lon="10.9758526"><ele>1031.0</ele><time>2026-05-01T09:27:41.365Z</time></trkpt><trkpt lat="45.6541108" lon="10.975973"><ele>1031.0</ele><time>2026-05-01T09:27:42.365Z</time></trkpt><trkpt lat="45.6540317" lon="10.9760902"><ele>1032.2</ele><time>2026-05-01T09:27:43.365Z</time></trkpt><trkpt lat="45.6539813" lon="10.9762133"><ele>1033.3999999999999</ele><time>2026-05-01T09:27:44.365Z</time></trkpt><trkpt lat="45.6539672" lon="10.9763442"><ele>1034.6</ele><time>2026-05-01T09:27:45.365Z</time></trkpt><trkpt lat="45.6539843" lon="10.9764621"><ele>1035.8</ele><time>2026-05-01T09:27:46.365Z</time></trkpt><trkpt lat="45.6540369" lon="10.9765605"><ele>1037.0</ele><time>2026-05-01T09:27:47.365Z</time></trkpt><trkpt lat="45.6541072" lon="10.9766528"><ele>1031.0</ele><time>2026-05-01T09:27:48.365Z</time></trkpt><trkpt lat="45.6541896" lon="10.9767511"><ele>1025.0</ele><time>2026-05-01T09:27:49.365Z</time></trkpt><trkpt lat="45.6542721" lon="10.9768646"><ele>1019.0</ele><time>2026-05-01T09:27:50.365Z</time></trkpt><trkpt lat="45.6543406" lon="10.9770015"><ele>1013.0</ele><time>2026-05-01T09:27:51.365Z</time></trkpt><trkpt lat="45.654403" lon="10.9771493"><ele>1014.0</ele><time>2026-05-01T09:27:52.364Z</time></trkpt><trkpt lat="45.654487" lon="10.9773007"><ele>1015.0</ele><time>2026-05-01T09:27:53.365Z</time></trkpt><trkpt lat="45.654594" lon="10.9774426"><ele>1016.0</ele><time>2026-05-01T09:27:54.365Z</time></trkpt><trkpt lat="45.6547117" lon="10.977584"><ele>1017.0</ele><time>2026-05-01T09:27:55.365Z</time></trkpt><trkpt lat="45.6548312" lon="10.9777177"><ele>1017.0</ele><time>2026-05-01T09:27:56.364Z</time></trkpt><trkpt lat="45.65496" lon="10.9778467"><ele>1017.0</ele><time>2026-05-01T09:27:57.365Z</time></trkpt><trkpt lat="45.6551126" lon="10.9779626"><ele>1017.0</ele><time>2026-05-01T09:27:58.365Z</time></trkpt><trkpt lat="45.6552995" lon="10.978077"><ele>1016.6666666666667</ele><time>2026-05-01T09:27:59.364Z</time></trkpt><trkpt lat="45.6555029" lon="10.978192"><ele>1016.3333333333334</ele><time>2026-05-01T09:28:00.365Z</time></trkpt><trkpt lat="45.6556892" lon="10.9782888"><ele>1016.0</ele><time>2026-05-01T09:28:01.365Z</time></trkpt><trkpt lat="45.6558596" lon="10.978383"><ele>1016.0</ele><time>2026-05-01T09:28:02.365Z</time></trkpt><trkpt lat="45.6560109" lon="10.9784911"><ele>1016.0</ele><time>2026-05-01T09:28:03.365Z</time></trkpt><trkpt lat="45.6561436" lon="10.9786253"><ele>1016.0</ele><time>2026-05-01T09:28:04.365Z</time></trkpt><trkpt lat="45.656253" lon="10.9787736"><ele>1022.0</ele><time>2026-05-01T09:28:05.365Z</time></trkpt><trkpt lat="45.6563319" lon="10.9789604"><ele>1028.0</ele><time>2026-05-01T09:28:06.365Z</time></trkpt><trkpt lat="45.6563999" lon="10.9791629"><ele>1034.0</ele><time>2026-05-01T09:28:07.365Z</time></trkpt><trkpt lat="45.6564676" lon="10.9793696"><ele>1034.0</ele><time>2026-05-01T09:28:08.364Z</time></trkpt><trkpt lat="45.6565688" lon="10.9795928"><ele>1034.0</ele><time>2026-05-01T09:28:09.365Z</time></trkpt><trkpt lat="45.6566903" lon="10.9798306"><ele>1034.0</ele><time>2026-05-01T09:28:10.365Z</time></trkpt><trkpt lat="45.6568296" lon="10.9800609"><ele>1029.0</ele><time>2026-05-01T09:28:11.365Z</time></trkpt><trkpt lat="45.6569517" lon="10.9802879"><ele>1024.0</ele><time>2026-05-01T09:28:12.365Z</time></trkpt><trkpt lat="45.6570524" lon="10.980529"><ele>1019.0</ele><time>2026-05-01T09:28:13.365Z</time></trkpt><trkpt lat="45.6571553" lon="10.9807682"><ele>1024.0</ele><time>2026-05-01T09:28:14.365Z</time></trkpt><trkpt lat="45.6572833" lon="10.9809706"><ele>1029.0</ele><time>2026-05-01T09:28:15.365Z</time></trkpt><trkpt lat="45.6574163" lon="10.9811292"><ele>1034.0</ele><time>2026-05-01T09:28:16.365Z</time></trkpt><trkpt lat="45.6575599" lon="10.9812748"><ele>1034.0</ele><time>2026-05-01T09:28:17.365Z</time></trkpt><trkpt lat="45.6576807" lon="10.9814562"><ele>1034.0</ele><time>2026-05-01T09:28:18.365Z</time></trkpt><trkpt lat="45.6577772" lon="10.9816787"><ele>1034.0</ele><time>2026-05-01T09:28:19.365Z</time></trkpt><trkpt lat="45.6578667" lon="10.9819173"><ele>1044.6666666666667</ele><time>2026-05-01T09:28:20.365Z</time></trkpt><trkpt lat="45.6579544" lon="10.9821655"><ele>1055.3333333333333</ele><time>2026-05-01T09:28:21.365Z</time></trkpt><trkpt lat="45.6580262" lon="10.982413"><ele>1066.0</ele><time>2026-05-01T09:28:22.365Z</time></trkpt><trkpt lat="45.6580926" lon="10.9826357"><ele>1066.0</ele><time>2026-05-01T09:28:23.365Z</time></trkpt><trkpt lat="45.6581509" lon="10.9828161"><ele>1066.0</ele><time>2026-05-01T09:28:24.365Z</time></trkpt><trkpt lat="45.6582075" lon="10.9829727"><ele>1066.0</ele><time>2026-05-01T09:28:25.364Z</time></trkpt><trkpt lat="45.6582406" lon="10.9831022"><ele>1066.0</ele><time>2026-05-01T09:28:26.364Z</time></trkpt><trkpt lat="45.6582422" lon="10.983211"><ele>1066.0</ele><time>2026-05-01T09:28:27.365Z</time></trkpt><trkpt lat="45.6582107" lon="10.9833064"><ele>1066.0</ele><time>2026-05-01T09:28:28.365Z</time></trkpt><trkpt lat="45.6581565" lon="10.9833621"><ele>1066.0</ele><time>2026-05-01T09:28:29.365Z</time></trkpt><trkpt lat="45.6580599" lon="10.9833706"><ele>1066.0</ele><time>2026-05-01T09:28:30.365Z</time></trkpt><trkpt lat="45.6579379" lon="10.9833205"><ele>1066.0</ele><time>2026-05-01T09:28:31.365Z</time></trkpt><trkpt lat="45.6578084" lon="10.9832226"><ele>1066.0</ele><time>2026-05-01T09:28:32.365Z</time></trkpt><trkpt lat="45.6576847" lon="10.9831006"><ele>1065.3333333333333</ele><time>2026-05-01T09:28:33.365Z</time></trkpt><trkpt lat="45.657546" lon="10.9829374"><ele>1064.6666666666667</ele><time>2026-05-01T09:28:34.365Z</time></trkpt><trkpt lat="45.6574031" lon="10.9827835"><ele>1064.0</ele><time>2026-05-01T09:28:35.365Z</time></trkpt><trkpt lat="45.6572719" lon="10.9826171"><ele>1064.3333333333335</ele><time>2026-05-01T09:28:36.365Z</time></trkpt><trkpt lat="45.6571654" lon="10.9824314"><ele>1064.6666666666667</ele><time>2026-05-01T09:28:37.365Z</time></trkpt><trkpt lat="45.6570503" lon="10.9822466"><ele>1065.0</ele><time>2026-05-01T09:28:38.365Z</time></trkpt><trkpt lat="45.6569174" lon="10.9820745"><ele>1065.0</ele><time>2026-05-01T09:28:39.365Z</time></trkpt><trkpt lat="45.656742" lon="10.9819477"><ele>1065.0</ele><time>2026-05-01T09:28:40.364Z</time></trkpt><trkpt lat="45.6565586" lon="10.9818283"><ele>1065.0</ele><time>2026-05-01T09:28:41.365Z</time></trkpt><trkpt lat="45.6563712" lon="10.9816924"><ele>1060.6666666666667</ele><time>2026-05-01T09:28:42.365Z</time></trkpt><trkpt lat="45.6561886" lon="10.9815628"><ele>1056.3333333333335</ele><time>2026-05-01T09:28:43.365Z</time></trkpt><trkpt lat="45.6560132" lon="10.9814378"><ele>1052.0</ele><time>2026-05-01T09:28:44.365Z</time></trkpt><trkpt lat="45.6558355" lon="10.9813333"><ele>1052.0</ele><time>2026-05-01T09:28:45.365Z</time></trkpt><trkpt lat="45.6556498" lon="10.9812714"><ele>1052.0</ele><time>2026-05-01T09:28:46.364Z</time></trkpt><trkpt lat="45.6554462" lon="10.9812552"><ele>1052.0</ele><time>2026-05-01T09:28:47.365Z</time></trkpt><trkpt lat="45.6552329" lon="10.9812526"><ele>1060.0</ele><time>2026-05-01T09:28:48.365Z</time></trkpt><trkpt lat="45.6550222" lon="10.9812418"><ele>1068.0</ele><time>2026-05-01T09:28:49.365Z</time></trkpt><trkpt lat="45.6547934" lon="10.9812157"><ele>1076.0</ele><time>2026-05-01T09:28:50.365Z</time></trkpt><trkpt lat="45.6545642" lon="10.9811448"><ele>1083.0</ele><time>2026-05-01T09:28:51.365Z</time></trkpt><trkpt lat="45.6543377" lon="10.9810533"><ele>1090.0</ele><time>2026-05-01T09:28:52.365Z</time></trkpt><trkpt lat="45.6541154" lon="10.9809473"><ele>1080.3333333333333</ele><time>2026-05-01T09:28:53.365Z</time></trkpt><trkpt lat="45.6539076" lon="10.9808331"><ele>1070.6666666666667</ele><time>2026-05-01T09:28:54.365Z</time></trkpt><trkpt lat="45.6537205" lon="10.9807091"><ele>1061.0</ele><time>2026-05-01T09:28:55.365Z</time></trkpt><trkpt lat="45.6535566" lon="10.9805806"><ele>1061.0</ele><time>2026-05-01T09:28:56.365Z</time></trkpt><trkpt lat="45.6534308" lon="10.9804807"><ele>1061.0</ele><time>2026-05-01T09:28:57.365Z</time></trkpt><trkpt lat="45.6533266" lon="10.9804142"><ele>1061.0</ele><time>2026-05-01T09:28:58.365Z</time></trkpt><trkpt lat="45.6532326" lon="10.9803881"><ele>1061.0</ele><time>2026-05-01T09:28:59.365Z</time></trkpt><trkpt lat="45.6531564" lon="10.9804266"><ele>1061.0</ele><time>2026-05-01T09:29:00.365Z</time></trkpt><trkpt lat="45.6530906" lon="10.9805149"><ele>1061.0</ele><time>2026-05-01T09:29:01.365Z</time></trkpt><trkpt lat="45.653062" lon="10.9806529"><ele>1061.0</ele><time>2026-05-01T09:29:02.365Z</time></trkpt><trkpt lat="45.653049" lon="10.9808142"><ele>1061.0</ele><time>2026-05-01T09:29:03.365Z</time></trkpt><trkpt lat="45.6530232" lon="10.9810219"><ele>1061.0</ele><time>2026-05-01T09:29:04.364Z</time></trkpt><trkpt lat="45.6529721" lon="10.9812532"><ele>1063.6666666666667</ele><time>2026-05-01T09:29:05.365Z</time></trkpt><trkpt lat="45.652901" lon="10.9814652"><ele>1066.3333333333333</ele><time>2026-05-01T09:29:06.365Z</time></trkpt><trkpt lat="45.6528234" lon="10.9816776"><ele>1069.0</ele><time>2026-05-01T09:29:07.365Z</time></trkpt><trkpt lat="45.6527343" lon="10.9819047"><ele>1069.0</ele><time>2026-05-01T09:29:08.365Z</time></trkpt><trkpt lat="45.6526426" lon="10.9821298"><ele>1069.0</ele><time>2026-05-01T09:29:09.364Z</time></trkpt><trkpt lat="45.6525334" lon="10.9823443"><ele>1069.0</ele><time>2026-05-01T09:29:10.365Z</time></trkpt><trkpt lat="45.6524071" lon="10.9825412"><ele>1073.0</ele><time>2026-05-01T09:29:11.364Z</time></trkpt><trkpt lat="45.6522857" lon="10.9827159"><ele>1077.0</ele><time>2026-05-01T09:29:12.365Z</time></trkpt><trkpt lat="45.6521712" lon="10.9828693"><ele>1081.0</ele><time>2026-05-01T09:29:13.364Z</time></trkpt><trkpt lat="45.6520589" lon="10.9829861"><ele>1078.5</ele><time>2026-05-01T09:29:14.365Z</time></trkpt><trkpt lat="45.6519453" lon="10.9830472"><ele>1076.0</ele><time>2026-05-01T09:29:15.365Z</time></trkpt><trkpt lat="45.6518329" lon="10.9830091"><ele>1073.5</ele><time>2026-05-01T09:29:16.364Z</time></trkpt><trkpt lat="45.6517379" lon="10.9829023"><ele>1071.0</ele><time>2026-05-01T09:29:17.365Z</time></trkpt><trkpt lat="45.6516808" lon="10.9827232"><ele>1071.0</ele><time>2026-05-01T09:29:18.365Z</time></trkpt><trkpt lat="45.6516503" lon="10.9825166"><ele>1071.0</ele><time>2026-05-01T09:29:19.364Z</time></trkpt><trkpt lat="45.6516219" lon="10.982307"><ele>1071.0</ele><time>2026-05-01T09:29:20.365Z</time></trkpt><trkpt lat="45.6515742" lon="10.9821256"><ele>1071.0</ele><time>2026-05-01T09:29:21.365Z</time></trkpt><trkpt lat="45.6515013" lon="10.9819851"><ele>1071.25</ele><time>2026-05-01T09:29:22.365Z</time></trkpt><trkpt lat="45.6514009" lon="10.981906"><ele>1071.5</ele><time>2026-05-01T09:29:23.365Z</time></trkpt><trkpt lat="45.6512824" lon="10.9818996"><ele>1071.75</ele><time>2026-05-01T09:29:24.365Z</time></trkpt><trkpt lat="45.6511615" lon="10.9819749"><ele>1072.0</ele><time>2026-05-01T09:29:25.365Z</time></trkpt><trkpt lat="45.6510319" lon="10.9820877"><ele>1075.0</ele><time>2026-05-01T09:29:26.365Z</time></trkpt><trkpt lat="45.6508899" lon="10.9822017"><ele>1078.0</ele><time>2026-05-01T09:29:27.365Z</time></trkpt><trkpt lat="45.6507396" lon="10.9823171"><ele>1081.0</ele><time>2026-05-01T09:29:28.365Z</time></trkpt><trkpt lat="45.6505825" lon="10.9824375"><ele>1082.0</ele><time>2026-05-01T09:29:29.365Z</time></trkpt><trkpt lat="45.6504175" lon="10.9825678"><ele>1083.0</ele><time>2026-05-01T09:29:30.365Z</time></trkpt><trkpt lat="45.650253" lon="10.9827011"><ele>1084.0</ele><time>2026-05-01T09:29:31.365Z</time></trkpt><trkpt lat="45.6500935" lon="10.9828373"><ele>1084.0</ele><time>2026-05-01T09:29:32.365Z</time></trkpt><trkpt lat="45.6499584" lon="10.9829722"><ele>1084.0</ele><time>2026-05-01T09:29:33.365Z</time></trkpt><trkpt lat="45.6498552" lon="10.983132"><ele>1084.0</ele><time>2026-05-01T09:29:34.365Z</time></trkpt><trkpt lat="45.6497925" lon="10.9833178"><ele>1085.0</ele><time>2026-05-01T09:29:35.365Z</time></trkpt><trkpt lat="45.6497653" lon="10.9835167"><ele>1086.0</ele><time>2026-05-01T09:29:36.365Z</time></trkpt><trkpt lat="45.6497637" lon="10.9837214"><ele>1087.0</ele><time>2026-05-01T09:29:37.365Z</time></trkpt><trkpt lat="45.6497746" lon="10.9839237"><ele>1088.0</ele><time>2026-05-01T09:29:38.365Z</time></trkpt><trkpt lat="45.6497892" lon="10.9841286"><ele>1088.0</ele><time>2026-05-01T09:29:39.365Z</time></trkpt><trkpt lat="45.6498031" lon="10.9843381"><ele>1088.0</ele><time>2026-05-01T09:29:40.365Z</time></trkpt><trkpt lat="45.6498216" lon="10.9845452"><ele>1088.0</ele><time>2026-05-01T09:29:41.365Z</time></trkpt><trkpt lat="45.6498449" lon="10.9847531"><ele>1088.0</ele><time>2026-05-01T09:29:42.365Z</time></trkpt><trkpt lat="45.6498891" lon="10.9849385"><ele>1086.75</ele><time>2026-05-01T09:29:43.365Z</time></trkpt><trkpt lat="45.6499629" lon="10.9850994"><ele>1085.5</ele><time>2026-05-01T09:29:44.364Z</time></trkpt><trkpt lat="45.6500644" lon="10.9852311"><ele>1084.25</ele><time>2026-05-01T09:29:45.365Z</time></trkpt><trkpt lat="45.6501862" lon="10.985336"><ele>1083.0</ele><time>2026-05-01T09:29:46.365Z</time></trkpt><trkpt lat="45.6503065" lon="10.9854335"><ele>1085.75</ele><time>2026-05-01T09:29:47.365Z</time></trkpt><trkpt lat="45.6504223" lon="10.9855157"><ele>1088.5</ele><time>2026-05-01T09:29:48.364Z</time></trkpt><trkpt lat="45.6505313" lon="10.9856054"><ele>1091.25</ele><time>2026-05-01T09:29:49.365Z</time></trkpt><trkpt lat="45.6506367" lon="10.9856937"><ele>1094.0</ele><time>2026-05-01T09:29:50.365Z</time></trkpt><trkpt lat="45.6507398" lon="10.9857822"><ele>1093.75</ele><time>2026-05-01T09:29:51.365Z</time></trkpt><trkpt lat="45.6508376" lon="10.9858763"><ele>1093.5</ele><time>2026-05-01T09:29:52.365Z</time></trkpt><trkpt lat="45.6509353" lon="10.9859703"><ele>1093.25</ele><time>2026-05-01T09:29:53.365Z</time></trkpt><trkpt lat="45.6510243" lon="10.9860731"><ele>1093.0</ele><time>2026-05-01T09:29:54.365Z</time></trkpt><trkpt lat="45.6511034" lon="10.9861931"><ele>1097.25</ele><time>2026-05-01T09:29:55.365Z</time></trkpt><trkpt lat="45.6511746" lon="10.9863266"><ele>1101.5</ele><time>2026-05-01T09:29:56.365Z</time></trkpt><trkpt lat="45.6512482" lon="10.9864727"><ele>1105.75</ele><time>2026-05-01T09:29:57.365Z</time></trkpt><trkpt lat="45.651317" lon="10.9866251"><ele>1110.0</ele><time>2026-05-01T09:29:58.365Z</time></trkpt><trkpt lat="45.6513747" lon="10.9867734"><ele>1111.75</ele><time>2026-05-01T09:29:59.364Z</time></trkpt><trkpt lat="45.6514124" lon="10.9869243"><ele>1113.5</ele><time>2026-05-01T09:30:00.365Z</time></trkpt><trkpt lat="45.6514181" lon="10.9870839"><ele>1115.25</ele><time>2026-05-01T09:30:01.365Z</time></trkpt><trkpt lat="45.6513867" lon="10.9872607"><ele>1117.0</ele><time>2026-05-01T09:30:02.365Z</time></trkpt><trkpt lat="45.6513364" lon="10.9874469"><ele>1114.5</ele><time>2026-05-01T09:30:03.365Z</time></trkpt><trkpt lat="45.6512765" lon="10.9876388"><ele>1112.0</ele><time>2026-05-01T09:30:04.365Z</time></trkpt><trkpt lat="45.6512139" lon="10.9878386"><ele>1109.5</ele><time>2026-05-01T09:30:05.364Z</time></trkpt><trkpt lat="45.6511575" lon="10.9880345"><ele>1107.0</ele><time>2026-05-01T09:30:06.365Z</time></trkpt><trkpt lat="45.6510759" lon="10.9881966"><ele>1107.0</ele><time>2026-05-01T09:30:07.364Z</time></trkpt><trkpt lat="45.6509533" lon="10.9883047"><ele>1107.0</ele><time>2026-05-01T09:30:08.365Z</time></trkpt><trkpt lat="45.6508148" lon="10.9883364"><ele>1107.0</ele><time>2026-05-01T09:30:09.365Z</time></trkpt><trkpt lat="45.6506775" lon="10.9883025"><ele>1107.0</ele><time>2026-05-01T09:30:10.365Z</time></trkpt><trkpt lat="45.6505427" lon="10.988278"><ele>1107.0</ele><time>2026-05-01T09:30:11.365Z</time></trkpt><trkpt lat="45.6504177" lon="10.9883197"><ele>1107.0</ele><time>2026-05-01T09:30:12.365Z</time></trkpt><trkpt lat="45.650308" lon="10.9884295"><ele>1107.0</ele><time>2026-05-01T09:30:13.365Z</time></trkpt><trkpt lat="45.6502183" lon="10.9885827"><ele>1107.0</ele><time>2026-05-01T09:30:14.365Z</time></trkpt><trkpt lat="45.6501394" lon="10.9887519"><ele>1108.5</ele><time>2026-05-01T09:30:15.364Z</time></trkpt><trkpt lat="45.6500634" lon="10.9889223"><ele>1110.0</ele><time>2026-05-01T09:30:16.365Z</time></trkpt><trkpt lat="45.64997" lon="10.9890788"><ele>1111.5</ele><time>2026-05-01T09:30:17.365Z</time></trkpt><trkpt lat="45.649856" lon="10.989198"><ele>1113.0</ele><time>2026-05-01T09:30:18.365Z</time></trkpt><trkpt lat="45.6497382" lon="10.9892937"><ele>1114.0</ele><time>2026-05-01T09:30:19.365Z</time></trkpt><trkpt lat="45.6496262" lon="10.9893841"><ele>1115.0</ele><time>2026-05-01T09:30:20.365Z</time></trkpt><trkpt lat="45.64952" lon="10.9894861"><ele>1116.0</ele><time>2026-05-01T09:30:21.364Z</time></trkpt><trkpt lat="45.6494385" lon="10.9896081"><ele>1117.0</ele><time>2026-05-01T09:30:22.365Z</time></trkpt><trkpt lat="45.649397" lon="10.9897506"><ele>1115.0</ele><time>2026-05-01T09:30:23.365Z</time></trkpt><trkpt lat="45.6493999" lon="10.9899017"><ele>1113.0</ele><time>2026-05-01T09:30:24.365Z</time></trkpt><trkpt lat="45.6494467" lon="10.9900462"><ele>1111.0</ele><time>2026-05-01T09:30:25.364Z</time></trkpt><trkpt lat="45.649524" lon="10.9901731"><ele>1109.0</ele><time>2026-05-01T09:30:26.365Z</time></trkpt><trkpt lat="45.6496256" lon="10.9902679"><ele>1109.0</ele><time>2026-05-01T09:30:27.365Z</time></trkpt><trkpt lat="45.6497309" lon="10.990357"><ele>1109.0</ele><time>2026-05-01T09:30:28.365Z</time></trkpt><trkpt lat="45.6498331" lon="10.9904611"><ele>1109.0</ele><time>2026-05-01T09:30:29.365Z</time></trkpt><trkpt lat="45.6499383" lon="10.9905689"><ele>1109.0</ele><time>2026-05-01T09:30:30.365Z</time></trkpt><trkpt lat="45.6500541" lon="10.9906885"><ele>1109.0</ele><time>2026-05-01T09:30:31.365Z</time></trkpt><trkpt lat="45.6501517" lon="10.990821"><ele>1109.0</ele><time>2026-05-01T09:30:32.365Z</time></trkpt><trkpt lat="45.6502102" lon="10.9909759"><ele>1109.0</ele><time>2026-05-01T09:30:33.364Z</time></trkpt><trkpt lat="45.6502159" lon="10.9911488"><ele>1109.0</ele><time>2026-05-01T09:30:34.365Z</time></trkpt><trkpt lat="45.650159" lon="10.9913097"><ele>1111.25</ele><time>2026-05-01T09:30:35.364Z</time></trkpt><trkpt lat="45.6500535" lon="10.9914272"><ele>1113.5</ele><time>2026-05-01T09:30:36.365Z</time></trkpt><trkpt lat="45.649934" lon="10.9915137"><ele>1115.75</ele><time>2026-05-01T09:30:37.365Z</time></trkpt><trkpt lat="45.6498143" lon="10.9916015"><ele>1118.0</ele><time>2026-05-01T09:30:38.365Z</time></trkpt><trkpt lat="45.649698" lon="10.9917001"><ele>1115.0</ele><time>2026-05-01T09:30:39.365Z</time></trkpt><trkpt lat="45.6495816" lon="10.9918057"><ele>1112.0</ele><time>2026-05-01T09:30:40.365Z</time></trkpt><trkpt lat="45.6494786" lon="10.9919166"><ele>1109.0</ele><time>2026-05-01T09:30:41.365Z</time></trkpt><trkpt lat="45.6493866" lon="10.9920383"><ele>1106.0</ele><time>2026-05-01T09:30:42.365Z</time></trkpt><trkpt lat="45.6493058" lon="10.9921621"><ele>1106.0</ele><time>2026-05-01T09:30:43.365Z</time></trkpt><trkpt lat="45.6492374" lon="10.992281"><ele>1106.0</ele><time>2026-05-01T09:30:44.365Z</time></trkpt><trkpt lat="45.6491759" lon="10.9923891"><ele>1106.0</ele><time>2026-05-01T09:30:45.364Z</time></trkpt><trkpt lat="45.6491312" lon="10.9924833"><ele>1106.0</ele><time>2026-05-01T09:30:46.365Z</time></trkpt><trkpt lat="45.6491115" lon="10.9926303"><ele>1106.0</ele><time>2026-05-01T09:30:48.364Z</time></trkpt><trkpt lat="45.6491803" lon="10.9926589"><ele>1106.0</ele><time>2026-05-01T09:30:50.365Z</time></trkpt><trkpt lat="45.6492307" lon="10.9926014"><ele>1106.0</ele><time>2026-05-01T09:30:51.365Z</time></trkpt><trkpt lat="45.6492884" lon="10.9924886"><ele>1106.0</ele><time>2026-05-01T09:30:52.365Z</time></trkpt><trkpt lat="45.6493498" lon="10.9923489"><ele>1106.0</ele><time>2026-05-01T09:30:53.365Z</time></trkpt><trkpt lat="45.6494276" lon="10.9922173"><ele>1106.0</ele><time>2026-05-01T09:30:54.364Z</time></trkpt><trkpt lat="45.6495186" lon="10.99211"><ele>1112.75</ele><time>2026-05-01T09:30:55.365Z</time></trkpt><trkpt lat="45.6496217" lon="10.9920246"><ele>1119.5</ele><time>2026-05-01T09:30:56.365Z</time></trkpt><trkpt lat="45.6497401" lon="10.9919463"><ele>1126.25</ele><time>2026-05-01T09:30:57.365Z</time></trkpt><trkpt lat="45.6498705" lon="10.9918729"><ele>1133.0</ele><time>2026-05-01T09:30:58.364Z</time></trkpt><trkpt lat="45.6500076" lon="10.9918075"><ele>1133.0</ele><time>2026-05-01T09:30:59.365Z</time></trkpt><trkpt lat="45.6501494" lon="10.9917509"><ele>1133.0</ele><time>2026-05-01T09:31:00.365Z</time></trkpt><trkpt lat="45.6502929" lon="10.9917015"><ele>1133.0</ele><time>2026-05-01T09:31:01.365Z</time></trkpt><trkpt lat="45.6504271" lon="10.9916234"><ele>1133.0</ele><time>2026-05-01T09:31:02.364Z</time></trkpt><trkpt lat="45.6505431" lon="10.9915005"><ele>1133.5</ele><time>2026-05-01T09:31:03.365Z</time></trkpt><trkpt lat="45.6506417" lon="10.9913576"><ele>1134.0</ele><time>2026-05-01T09:31:04.365Z</time></trkpt><trkpt lat="45.6507309" lon="10.9912063"><ele>1134.5</ele><time>2026-05-01T09:31:05.365Z</time></trkpt><trkpt lat="45.6507915" lon="10.9910375"><ele>1135.0</ele><time>2026-05-01T09:31:06.365Z</time></trkpt><trkpt lat="45.6508065" lon="10.9908497"><ele>1134.25</ele><time>2026-05-01T09:31:07.364Z</time></trkpt><trkpt lat="45.6507564" lon="10.9906513"><ele>1133.5</ele><time>2026-05-01T09:31:08.365Z</time></trkpt><trkpt lat="45.6506655" lon="10.9904784"><ele>1132.75</ele><time>2026-05-01T09:31:09.365Z</time></trkpt><trkpt lat="45.6505848" lon="10.9903237"><ele>1132.0</ele><time>2026-05-01T09:31:10.365Z</time></trkpt><trkpt lat="45.6505445" lon="10.9901838"><ele>1132.0</ele><time>2026-05-01T09:31:11.365Z</time></trkpt><trkpt lat="45.6505345" lon="10.9900276"><ele>1132.0</ele><time>2026-05-01T09:31:12.365Z</time></trkpt><trkpt lat="45.6505684" lon="10.9898717"><ele>1132.0</ele><time>2026-05-01T09:31:13.365Z</time></trkpt><trkpt lat="45.6506417" lon="10.9897289"><ele>1132.0</ele><time>2026-05-01T09:31:14.365Z</time></trkpt><trkpt lat="45.6507465" lon="10.9895988"><ele>1132.25</ele><time>2026-05-01T09:31:15.365Z</time></trkpt><trkpt lat="45.650874" lon="10.9895054"><ele>1132.5</ele><time>2026-05-01T09:31:16.365Z</time></trkpt><trkpt lat="45.6510162" lon="10.9894552"><ele>1132.75</ele><time>2026-05-01T09:31:17.365Z</time></trkpt><trkpt lat="45.6511713" lon="10.9894473"><ele>1133.0</ele><time>2026-05-01T09:31:18.365Z</time></trkpt><trkpt lat="45.6513179" lon="10.9894478"><ele>1135.0</ele><time>2026-05-01T09:31:19.365Z</time></trkpt><trkpt lat="45.651448" lon="10.9894065"><ele>1137.0</ele><time>2026-05-01T09:31:20.365Z</time></trkpt><trkpt lat="45.6515559" lon="10.9892913"><ele>1139.0</ele><time>2026-05-01T09:31:21.365Z</time></trkpt><trkpt lat="45.6516234" lon="10.9891132"><ele>1141.0</ele><time>2026-05-01T09:31:22.365Z</time></trkpt><trkpt lat="45.6516566" lon="10.9888967"><ele>1141.0</ele><time>2026-05-01T09:31:23.365Z</time></trkpt><trkpt lat="45.6517034" lon="10.9886772"><ele>1141.0</ele><time>2026-05-01T09:31:24.365Z</time></trkpt><trkpt lat="45.6517731" lon="10.9884697"><ele>1141.0</ele><time>2026-05-01T09:31:25.365Z</time></trkpt><trkpt lat="45.6518685" lon="10.9882641"><ele>1147.0</ele><time>2026-05-01T09:31:26.365Z</time></trkpt><trkpt lat="45.6519769" lon="10.9880593"><ele>1153.0</ele><time>2026-05-01T09:31:27.364Z</time></trkpt><trkpt lat="45.6521035" lon="10.9878591"><ele>1159.0</ele><time>2026-05-01T09:31:28.365Z</time></trkpt><trkpt lat="45.6522322" lon="10.987662"><ele>1154.3333333333333</ele><time>2026-05-01T09:31:29.364Z</time></trkpt><trkpt lat="45.6523573" lon="10.9874611"><ele>1149.6666666666667</ele><time>2026-05-01T09:31:30.365Z</time></trkpt><trkpt lat="45.6524657" lon="10.9872446"><ele>1145.0</ele><time>2026-05-01T09:31:31.365Z</time></trkpt><trkpt lat="45.6525691" lon="10.9869998"><ele>1145.0</ele><time>2026-05-01T09:31:32.365Z</time></trkpt><trkpt lat="45.6526666" lon="10.9867655"><ele>1145.0</ele><time>2026-05-01T09:31:33.365Z</time></trkpt><trkpt lat="45.6527747" lon="10.9865361"><ele>1145.0</ele><time>2026-05-01T09:31:34.364Z</time></trkpt><trkpt lat="45.652883" lon="10.9862986"><ele>1146.3333333333335</ele><time>2026-05-01T09:31:35.365Z</time></trkpt><trkpt lat="45.6529946" lon="10.9860609"><ele>1147.6666666666667</ele><time>2026-05-01T09:31:36.365Z</time></trkpt><trkpt lat="45.6530957" lon="10.9858202"><ele>1149.0</ele><time>2026-05-01T09:31:37.365Z</time></trkpt><trkpt lat="45.6531892" lon="10.985581"><ele>1149.0</ele><time>2026-05-01T09:31:38.365Z</time></trkpt><trkpt lat="45.6532957" lon="10.9853583"><ele>1149.0</ele><time>2026-05-01T09:31:39.365Z</time></trkpt><trkpt lat="45.6534124" lon="10.9851468"><ele>1149.0</ele><time>2026-05-01T09:31:40.365Z</time></trkpt><trkpt lat="45.6535328" lon="10.9849454"><ele>1154.6666666666667</ele><time>2026-05-01T09:31:41.365Z</time></trkpt><trkpt lat="45.6536499" lon="10.9847469"><ele>1160.3333333333335</ele><time>2026-05-01T09:31:42.364Z</time></trkpt><trkpt lat="45.6537677" lon="10.9845576"><ele>1166.0</ele><time>2026-05-01T09:31:43.364Z</time></trkpt><trkpt lat="45.6538724" lon="10.9843863"><ele>1166.0</ele><time>2026-05-01T09:31:44.365Z</time></trkpt><trkpt lat="45.6539717" lon="10.9842242"><ele>1166.0</ele><time>2026-05-01T09:31:45.365Z</time></trkpt><trkpt lat="45.6540821" lon="10.9840803"><ele>1166.0</ele><time>2026-05-01T09:31:46.365Z</time></trkpt><trkpt lat="45.6542146" lon="10.9839498"><ele>1168.0</ele><time>2026-05-01T09:31:47.365Z</time></trkpt><trkpt lat="45.6543662" lon="10.983839"><ele>1170.0</ele><time>2026-05-01T09:31:48.365Z</time></trkpt><trkpt lat="45.65451" lon="10.9837264"><ele>1172.0</ele><time>2026-05-01T09:31:49.365Z</time></trkpt><trkpt lat="45.6546503" lon="10.9836163"><ele>1172.0</ele><time>2026-05-01T09:31:50.365Z</time></trkpt><trkpt lat="45.6547989" lon="10.983523"><ele>1172.0</ele><time>2026-05-01T09:31:51.365Z</time></trkpt><trkpt lat="45.6549507" lon="10.9834509"><ele>1172.0</ele><time>2026-05-01T09:31:52.365Z</time></trkpt><trkpt lat="45.6550995" lon="10.983384"><ele>1171.5</ele><time>2026-05-01T09:31:53.364Z</time></trkpt><trkpt lat="45.6552425" lon="10.9833256"><ele>1171.0</ele><time>2026-05-01T09:31:54.365Z</time></trkpt><trkpt lat="45.655384" lon="10.9832874"><ele>1170.5</ele><time>2026-05-01T09:31:55.364Z</time></trkpt><trkpt lat="45.6555185" lon="10.9832977"><ele>1170.0</ele><time>2026-05-01T09:31:56.365Z</time></trkpt><trkpt lat="45.6556336" lon="10.9833778"><ele>1170.0</ele><time>2026-05-01T09:31:57.365Z</time></trkpt><trkpt lat="45.6557348" lon="10.9835157"><ele>1170.0</ele><time>2026-05-01T09:31:58.365Z</time></trkpt><trkpt lat="45.6558185" lon="10.9836751"><ele>1170.0</ele><time>2026-05-01T09:31:59.365Z</time></trkpt><trkpt lat="45.6559074" lon="10.9838366"><ele>1170.0</ele><time>2026-05-01T09:32:00.365Z</time></trkpt><trkpt lat="45.6560066" lon="10.9840018"><ele>1170.0</ele><time>2026-05-01T09:32:01.365Z</time></trkpt><trkpt lat="45.6561172" lon="10.9841742"><ele>1170.0</ele><time>2026-05-01T09:32:02.364Z</time></trkpt><trkpt lat="45.65625" lon="10.9843412"><ele>1170.0</ele><time>2026-05-01T09:32:03.365Z</time></trkpt><trkpt lat="45.6564141" lon="10.9844837"><ele>1174.3333333333333</ele><time>2026-05-01T09:32:04.365Z</time></trkpt><trkpt lat="45.6566008" lon="10.9845982"><ele>1178.6666666666665</ele><time>2026-05-01T09:32:05.365Z</time></trkpt><trkpt lat="45.6567864" lon="10.9847265"><ele>1183.0</ele><time>2026-05-01T09:32:06.365Z</time></trkpt><trkpt lat="45.6569542" lon="10.9848704"><ele>1181.6666666666665</ele><time>2026-05-01T09:32:07.364Z</time></trkpt><trkpt lat="45.6571099" lon="10.9850549"><ele>1180.3333333333333</ele><time>2026-05-01T09:32:08.364Z</time></trkpt><trkpt lat="45.6572466" lon="10.9852776"><ele>1179.0</ele><time>2026-05-01T09:32:09.365Z</time></trkpt><trkpt lat="45.6573877" lon="10.9855158"><ele>1179.0</ele><time>2026-05-01T09:32:10.365Z</time></trkpt><trkpt lat="45.6575445" lon="10.985746"><ele>1179.0</ele><time>2026-05-01T09:32:11.365Z</time></trkpt><trkpt lat="45.6577221" lon="10.985953"><ele>1177.6666666666667</ele><time>2026-05-01T09:32:12.365Z</time></trkpt><trkpt lat="45.6578916" lon="10.9861365"><ele>1176.3333333333335</ele><time>2026-05-01T09:32:13.364Z</time></trkpt><trkpt lat="45.6580527" lon="10.9863144"><ele>1175.0</ele><time>2026-05-01T09:32:14.364Z</time></trkpt><trkpt lat="45.6581904" lon="10.9864956"><ele>1189.3333333333335</ele><time>2026-05-01T09:32:15.363Z</time></trkpt><trkpt lat="45.6582979" lon="10.9866879"><ele>1203.6666666666667</ele><time>2026-05-01T09:32:16.363Z</time></trkpt><trkpt lat="45.6583958" lon="10.9868747"><ele>1218.0</ele><time>2026-05-01T09:32:17.364Z</time></trkpt><trkpt lat="45.6585213" lon="10.987022"><ele>1212.0</ele><time>2026-05-01T09:32:18.364Z</time></trkpt><trkpt lat="45.6586635" lon="10.98712"><ele>1206.0</ele><time>2026-05-01T09:32:19.364Z</time></trkpt><trkpt lat="45.6588171" lon="10.9871764"><ele>1200.0</ele><time>2026-05-01T09:32:20.363Z</time></trkpt><trkpt lat="45.6589556" lon="10.9872241"><ele>1200.0</ele><time>2026-05-01T09:32:21.364Z</time></trkpt><trkpt lat="45.6590941" lon="10.9872843"><ele>1200.0</ele><time>2026-05-01T09:32:22.364Z</time></trkpt><trkpt lat="45.6592229" lon="10.9873328"><ele>1200.0</ele><time>2026-05-01T09:32:23.364Z</time></trkpt><trkpt lat="45.6593472" lon="10.9873481"><ele>1200.0</ele><time>2026-05-01T09:32:24.364Z</time></trkpt><trkpt lat="45.6594781" lon="10.9873112"><ele>1196.75</ele><time>2026-05-01T09:32:25.364Z</time></trkpt><trkpt lat="45.6596096" lon="10.987306"><ele>1193.5</ele><time>2026-05-01T09:32:26.364Z</time></trkpt><trkpt lat="45.6597502" lon="10.9873307"><ele>1190.25</ele><time>2026-05-01T09:32:27.364Z</time></trkpt><trkpt lat="45.6598937" lon="10.9873687"><ele>1187.0</ele><time>2026-05-01T09:32:28.364Z</time></trkpt><trkpt lat="45.6600303" lon="10.9873997"><ele>1187.0</ele><time>2026-05-01T09:32:29.364Z</time></trkpt><trkpt lat="45.660158" lon="10.9874254"><ele>1187.0</ele><time>2026-05-01T09:32:30.364Z</time></trkpt><trkpt lat="45.6602877" lon="10.9874495"><ele>1187.0</ele><time>2026-05-01T09:32:31.364Z</time></trkpt><trkpt lat="45.6604175" lon="10.9874862"><ele>1187.0</ele><time>2026-05-01T09:32:32.364Z</time></trkpt><trkpt lat="45.6605452" lon="10.9875268"><ele>1197.5</ele><time>2026-05-01T09:32:33.364Z</time></trkpt><trkpt lat="45.6606732" lon="10.9875546"><ele>1208.0</ele><time>2026-05-01T09:32:34.364Z</time></trkpt><trkpt lat="45.6608061" lon="10.9875861"><ele>1218.5</ele><time>2026-05-01T09:32:35.364Z</time></trkpt><trkpt lat="45.6609423" lon="10.9876054"><ele>1229.0</ele><time>2026-05-01T09:32:36.364Z</time></trkpt><trkpt lat="45.661074" lon="10.9875875"><ele>1233.0</ele><time>2026-05-01T09:32:37.364Z</time></trkpt><trkpt lat="45.6612143" lon="10.987552"><ele>1237.0</ele><time>2026-05-01T09:32:38.364Z</time></trkpt><trkpt lat="45.6613606" lon="10.9874967"><ele>1241.0</ele><time>2026-05-01T09:32:39.364Z</time></trkpt><trkpt lat="45.6615123" lon="10.9874373"><ele>1238.0</ele><time>2026-05-01T09:32:40.364Z</time></trkpt><trkpt lat="45.6616588" lon="10.9873745"><ele>1235.0</ele><time>2026-05-01T09:32:41.363Z</time></trkpt><trkpt lat="45.6617985" lon="10.9872981"><ele>1232.0</ele><time>2026-05-01T09:32:42.364Z</time></trkpt><trkpt lat="45.6619249" lon="10.9872125"><ele>1229.0</ele><time>2026-05-01T09:32:43.364Z</time></trkpt><trkpt lat="45.6620445" lon="10.9871266"><ele>1229.0</ele><time>2026-05-01T09:32:44.364Z</time></trkpt><trkpt lat="45.6621626" lon="10.9870505"><ele>1229.0</ele><time>2026-05-01T09:32:45.364Z</time></trkpt><trkpt lat="45.6622813" lon="10.9869687"><ele>1229.0</ele><time>2026-05-01T09:32:46.364Z</time></trkpt><trkpt lat="45.662398" lon="10.9868811"><ele>1229.0</ele><time>2026-05-01T09:32:47.364Z</time></trkpt><trkpt lat="45.6625161" lon="10.9868005"><ele>1229.0</ele><time>2026-05-01T09:32:48.364Z</time></trkpt><trkpt lat="45.6626318" lon="10.9867275"><ele>1229.0</ele><time>2026-05-01T09:32:49.364Z</time></trkpt><trkpt lat="45.662751" lon="10.9866581"><ele>1229.0</ele><time>2026-05-01T09:32:50.364Z</time></trkpt><trkpt lat="45.6628735" lon="10.9866056"><ele>1229.0</ele><time>2026-05-01T09:32:51.364Z</time></trkpt><trkpt lat="45.663012" lon="10.9866098"><ele>1230.75</ele><time>2026-05-01T09:32:52.364Z</time></trkpt><trkpt lat="45.6631515" lon="10.9866513"><ele>1232.5</ele><time>2026-05-01T09:32:53.364Z</time></trkpt><trkpt lat="45.6632851" lon="10.9867007"><ele>1234.25</ele><time>2026-05-01T09:32:54.363Z</time></trkpt><trkpt lat="45.6634093" lon="10.9867633"><ele>1236.0</ele><time>2026-05-01T09:32:55.364Z</time></trkpt><trkpt lat="45.6635183" lon="10.9868175"><ele>1231.75</ele><time>2026-05-01T09:32:56.436Z</time></trkpt><trkpt lat="45.6636328" lon="10.9868796"><ele>1227.5</ele><time>2026-05-01T09:32:57.364Z</time></trkpt><trkpt lat="45.6637448" lon="10.9869598"><ele>1223.25</ele><time>2026-05-01T09:32:58.363Z</time></trkpt><trkpt lat="45.6638608" lon="10.9870522"><ele>1219.0</ele><time>2026-05-01T09:32:59.364Z</time></trkpt><trkpt lat="45.6639869" lon="10.9871703"><ele>1219.0</ele><time>2026-05-01T09:33:00.364Z</time></trkpt><trkpt lat="45.6641243" lon="10.9873105"><ele>1219.0</ele><time>2026-05-01T09:33:01.364Z</time></trkpt><trkpt lat="45.6642588" lon="10.9874469"><ele>1219.0</ele><time>2026-05-01T09:33:02.364Z</time></trkpt><trkpt lat="45.6643876" lon="10.9875758"><ele>1222.0</ele><time>2026-05-01T09:33:03.364Z</time></trkpt><trkpt lat="45.6645004" lon="10.9877164"><ele>1225.0</ele><time>2026-05-01T09:33:04.364Z</time></trkpt><trkpt lat="45.6645916" lon="10.9878587"><ele>1228.0</ele><time>2026-05-01T09:33:05.364Z</time></trkpt><trkpt lat="45.6646703" lon="10.9880001"><ele>1231.0</ele><time>2026-05-01T09:33:06.363Z</time></trkpt><trkpt lat="45.6647382" lon="10.9881229"><ele>1231.0</ele><time>2026-05-01T09:33:07.364Z</time></trkpt><trkpt lat="45.66482" lon="10.9882351"><ele>1231.0</ele><time>2026-05-01T09:33:08.363Z</time></trkpt><trkpt lat="45.6649176" lon="10.9883054"><ele>1231.0</ele><time>2026-05-01T09:33:09.364Z</time></trkpt><trkpt lat="45.6650354" lon="10.9883297"><ele>1231.0</ele><time>2026-05-01T09:33:10.364Z</time></trkpt><trkpt lat="45.6651564" lon="10.988325"><ele>1231.0</ele><time>2026-05-01T09:33:11.364Z</time></trkpt><trkpt lat="45.6652716" lon="10.9883021"><ele>1231.0</ele><time>2026-05-01T09:33:12.364Z</time></trkpt><trkpt lat="45.6653782" lon="10.9882868"><ele>1231.0</ele><time>2026-05-01T09:33:13.363Z</time></trkpt><trkpt lat="45.6654876" lon="10.9882732"><ele>1231.0</ele><time>2026-05-01T09:33:14.364Z</time></trkpt><trkpt lat="45.6656047" lon="10.9882771"><ele>1230.25</ele><time>2026-05-01T09:33:15.364Z</time></trkpt><trkpt lat="45.6657291" lon="10.9883057"><ele>1229.5</ele><time>2026-05-01T09:33:16.364Z</time></trkpt><trkpt lat="45.6658677" lon="10.9883472"><ele>1228.75</ele><time>2026-05-01T09:33:17.364Z</time></trkpt><trkpt lat="45.666034" lon="10.988418"><ele>1228.0</ele><time>2026-05-01T09:33:18.364Z</time></trkpt><trkpt lat="45.6662088" lon="10.988522"><ele>1233.6666666666665</ele><time>2026-05-01T09:33:19.364Z</time></trkpt><trkpt lat="45.6663906" lon="10.9886635"><ele>1239.3333333333333</ele><time>2026-05-01T09:33:20.364Z</time></trkpt><trkpt lat="45.6665722" lon="10.9888199"><ele>1245.0</ele><time>2026-05-01T09:33:21.364Z</time></trkpt><trkpt lat="45.6667531" lon="10.9889642"><ele>1245.0</ele><time>2026-05-01T09:33:22.363Z</time></trkpt><trkpt lat="45.6669441" lon="10.9890683"><ele>1245.0</ele><time>2026-05-01T09:33:23.364Z</time></trkpt><trkpt lat="45.6671441" lon="10.9891243"><ele>1245.0</ele><time>2026-05-01T09:33:24.364Z</time></trkpt><trkpt lat="45.6673509" lon="10.9891554"><ele>1244.0</ele><time>2026-05-01T09:33:25.364Z</time></trkpt><trkpt lat="45.6675554" lon="10.9891573"><ele>1243.0</ele><time>2026-05-01T09:33:26.364Z</time></trkpt><trkpt lat="45.6677571" lon="10.9891797"><ele>1242.0</ele><time>2026-05-01T09:33:27.364Z</time></trkpt><trkpt lat="45.6679787" lon="10.9892517"><ele>1247.6666666666667</ele><time>2026-05-01T09:33:28.364Z</time></trkpt><trkpt lat="45.668197" lon="10.9893187"><ele>1253.3333333333335</ele><time>2026-05-01T09:33:29.364Z</time></trkpt><trkpt lat="45.6684096" lon="10.9894005"><ele>1259.0</ele><time>2026-05-01T09:33:30.363Z</time></trkpt><trkpt lat="45.6686145" lon="10.989489"><ele>1259.0</ele><time>2026-05-01T09:33:31.364Z</time></trkpt><trkpt lat="45.6688202" lon="10.9896076"><ele>1259.0</ele><time>2026-05-01T09:33:32.363Z</time></trkpt><trkpt lat="45.6690218" lon="10.9897381"><ele>1259.0</ele><time>2026-05-01T09:33:33.364Z</time></trkpt><trkpt lat="45.6692204" lon="10.9898532"><ele>1259.0</ele><time>2026-05-01T09:33:34.364Z</time></trkpt><trkpt lat="45.6694169" lon="10.9899399"><ele>1259.0</ele><time>2026-05-01T09:33:35.364Z</time></trkpt><trkpt lat="45.6696226" lon="10.9899945"><ele>1259.0</ele><time>2026-05-01T09:33:36.363Z</time></trkpt><trkpt lat="45.6698396" lon="10.9900317"><ele>1267.0</ele><time>2026-05-01T09:33:37.364Z</time></trkpt><trkpt lat="45.6700437" lon="10.9900683"><ele>1275.0</ele><time>2026-05-01T09:33:38.364Z</time></trkpt><trkpt lat="45.6702392" lon="10.9901248"><ele>1283.0</ele><time>2026-05-01T09:33:39.364Z</time></trkpt><trkpt lat="45.6704418" lon="10.9901908"><ele>1284.0</ele><time>2026-05-01T09:33:40.363Z</time></trkpt><trkpt lat="45.6706512" lon="10.990239"><ele>1285.0</ele><time>2026-05-01T09:33:41.364Z</time></trkpt><trkpt lat="45.6708706" lon="10.9902704"><ele>1286.0</ele><time>2026-05-01T09:33:42.364Z</time></trkpt><trkpt lat="45.6710849" lon="10.9902898"><ele>1288.0</ele><time>2026-05-01T09:33:43.364Z</time></trkpt><trkpt lat="45.6712925" lon="10.9903174"><ele>1290.0</ele><time>2026-05-01T09:33:44.364Z</time></trkpt><trkpt lat="45.6714898" lon="10.9903377"><ele>1292.0</ele><time>2026-05-01T09:33:45.363Z</time></trkpt><trkpt lat="45.6716795" lon="10.9903608"><ele>1292.0</ele><time>2026-05-01T09:33:46.364Z</time></trkpt><trkpt lat="45.6718423" lon="10.9903329"><ele>1292.0</ele><time>2026-05-01T09:33:47.364Z</time></trkpt><trkpt lat="45.6720236" lon="10.9902433"><ele>1292.0</ele><time>2026-05-01T09:33:48.364Z</time></trkpt><trkpt lat="45.6722008" lon="10.9901274"><ele>1294.3333333333335</ele><time>2026-05-01T09:33:49.364Z</time></trkpt><trkpt lat="45.6723764" lon="10.9900207"><ele>1296.6666666666667</ele><time>2026-05-01T09:33:50.364Z</time></trkpt><trkpt lat="45.672555" lon="10.9899758"><ele>1299.0</ele><time>2026-05-01T09:33:51.364Z</time></trkpt><trkpt lat="45.672731" lon="10.9899799"><ele>1291.0</ele><time>2026-05-01T09:33:52.364Z</time></trkpt><trkpt lat="45.6729124" lon="10.9899887"><ele>1283.0</ele><time>2026-05-01T09:33:53.363Z</time></trkpt><trkpt lat="45.6731044" lon="10.9899808"><ele>1275.0</ele><time>2026-05-01T09:33:54.364Z</time></trkpt><trkpt lat="45.6733028" lon="10.9899822"><ele>1286.0</ele><time>2026-05-01T09:33:55.363Z</time></trkpt><trkpt lat="45.6735122" lon="10.9900241"><ele>1297.0</ele><time>2026-05-01T09:33:56.363Z</time></trkpt><trkpt lat="45.6737302" lon="10.9900753"><ele>1308.0</ele><time>2026-05-01T09:33:57.364Z</time></trkpt><trkpt lat="45.6739407" lon="10.9901401"><ele>1308.0</ele><time>2026-05-01T09:33:58.363Z</time></trkpt><trkpt lat="45.6741333" lon="10.9901998"><ele>1308.0</ele><time>2026-05-01T09:33:59.364Z</time></trkpt><trkpt lat="45.6743122" lon="10.9902713"><ele>1308.0</ele><time>2026-05-01T09:34:00.364Z</time></trkpt><trkpt lat="45.6744752" lon="10.990375"><ele>1309.6666666666667</ele><time>2026-05-01T09:34:01.364Z</time></trkpt><trkpt lat="45.6746061" lon="10.990538"><ele>1311.3333333333335</ele><time>2026-05-01T09:34:02.364Z</time></trkpt><trkpt lat="45.6746952" lon="10.990738"><ele>1313.0</ele><time>2026-05-01T09:34:03.364Z</time></trkpt><trkpt lat="45.6747539" lon="10.9909404"><ele>1313.0</ele><time>2026-05-01T09:34:04.363Z</time></trkpt><trkpt lat="45.6747992" lon="10.9911125"><ele>1313.0</ele><time>2026-05-01T09:34:05.364Z</time></trkpt><trkpt lat="45.6748485" lon="10.9912402"><ele>1313.0</ele><time>2026-05-01T09:34:06.364Z</time></trkpt><trkpt lat="45.6749122" lon="10.9913231"><ele>1313.0</ele><time>2026-05-01T09:34:07.363Z</time></trkpt><trkpt lat="45.6749951" lon="10.9913523"><ele>1313.0</ele><time>2026-05-01T09:34:08.364Z</time></trkpt><trkpt lat="45.6750745" lon="10.9913441"><ele>1313.0</ele><time>2026-05-01T09:34:09.364Z</time></trkpt><trkpt lat="45.6751569" lon="10.9912951"><ele>1313.0</ele><time>2026-05-01T09:34:10.363Z</time></trkpt><trkpt lat="45.6752216" lon="10.9911984"><ele>1313.0</ele><time>2026-05-01T09:34:11.364Z</time></trkpt><trkpt lat="45.6752729" lon="10.9910371"><ele>1313.0</ele><time>2026-05-01T09:34:12.364Z</time></trkpt><trkpt lat="45.6752961" lon="10.9908368"><ele>1313.0</ele><time>2026-05-01T09:34:13.364Z</time></trkpt><trkpt lat="45.6752928" lon="10.9905665"><ele>1315.0</ele><time>2026-05-01T09:34:14.363Z</time></trkpt><trkpt lat="45.6753002" lon="10.990333"><ele>1317.0</ele><time>2026-05-01T09:34:15.364Z</time></trkpt><trkpt lat="45.6753357" lon="10.9901573"><ele>1319.0</ele><time>2026-05-01T09:34:16.364Z</time></trkpt><trkpt lat="45.6754274" lon="10.9900386"><ele>1321.0</ele><time>2026-05-01T09:34:17.364Z</time></trkpt><trkpt lat="45.675552" lon="10.9899259"><ele>1316.0</ele><time>2026-05-01T09:34:18.363Z</time></trkpt><trkpt lat="45.6756704" lon="10.9897961"><ele>1311.0</ele><time>2026-05-01T09:34:19.364Z</time></trkpt><trkpt lat="45.6757933" lon="10.9896948"><ele>1306.0</ele><time>2026-05-01T09:34:20.364Z</time></trkpt><trkpt lat="45.67594" lon="10.9896529"><ele>1301.0</ele><time>2026-05-01T09:34:21.364Z</time></trkpt><trkpt lat="45.676103" lon="10.9896464"><ele>1305.0</ele><time>2026-05-01T09:34:22.364Z</time></trkpt><trkpt lat="45.6762694" lon="10.9896403"><ele>1309.0</ele><time>2026-05-01T09:34:23.363Z</time></trkpt><trkpt lat="45.6764289" lon="10.9896256"><ele>1313.0</ele><time>2026-05-01T09:34:24.364Z</time></trkpt><trkpt lat="45.6765579" lon="10.9895811"><ele>1313.0</ele><time>2026-05-01T09:34:25.364Z</time></trkpt><trkpt lat="45.6766559" lon="10.9894739"><ele>1313.0</ele><time>2026-05-01T09:34:26.364Z</time></trkpt><trkpt lat="45.6767121" lon="10.9893088"><ele>1313.0</ele><time>2026-05-01T09:34:27.364Z</time></trkpt><trkpt lat="45.6767652" lon="10.9891427"><ele>1313.0</ele><time>2026-05-01T09:34:28.364Z</time></trkpt><trkpt lat="45.6768485" lon="10.9890214"><ele>1311.25</ele><time>2026-05-01T09:34:29.364Z</time></trkpt><trkpt lat="45.6769599" lon="10.9889776"><ele>1309.5</ele><time>2026-05-01T09:34:30.363Z</time></trkpt><trkpt lat="45.6771003" lon="10.9889854"><ele>1307.75</ele><time>2026-05-01T09:34:31.364Z</time></trkpt><trkpt lat="45.6772575" lon="10.9889633"><ele>1306.0</ele><time>2026-05-01T09:34:32.364Z</time></trkpt><trkpt lat="45.6774223" lon="10.9889234"><ele>1306.0</ele><time>2026-05-01T09:34:33.364Z</time></trkpt><trkpt lat="45.6775917" lon="10.9889142"><ele>1306.0</ele><time>2026-05-01T09:34:34.364Z</time></trkpt><trkpt lat="45.6777812" lon="10.9889429"><ele>1306.0</ele><time>2026-05-01T09:34:35.363Z</time></trkpt><trkpt lat="45.677958" lon="10.9889607"><ele>1310.6666666666665</ele><time>2026-05-01T09:34:36.364Z</time></trkpt><trkpt lat="45.6781262" lon="10.9889502"><ele>1315.3333333333333</ele><time>2026-05-01T09:34:37.364Z</time></trkpt><trkpt lat="45.6782816" lon="10.9888775"><ele>1320.0</ele><time>2026-05-01T09:34:38.364Z</time></trkpt><trkpt lat="45.6784228" lon="10.9887439"><ele>1320.0</ele><time>2026-05-01T09:34:39.364Z</time></trkpt><trkpt lat="45.6785535" lon="10.9885666"><ele>1320.0</ele><time>2026-05-01T09:34:40.364Z</time></trkpt><trkpt lat="45.6786868" lon="10.9884035"><ele>1320.0</ele><time>2026-05-01T09:34:41.364Z</time></trkpt><trkpt lat="45.6788371" lon="10.9882956"><ele>1318.6666666666667</ele><time>2026-05-01T09:34:42.364Z</time></trkpt><trkpt lat="45.6790082" lon="10.9882344"><ele>1317.3333333333335</ele><time>2026-05-01T09:34:43.364Z</time></trkpt><trkpt lat="45.6792046" lon="10.9881749"><ele>1316.0</ele><time>2026-05-01T09:34:44.364Z</time></trkpt><trkpt lat="45.6794075" lon="10.9880715"><ele>1321.6666666666667</ele><time>2026-05-01T09:34:45.364Z</time></trkpt><trkpt lat="45.6796152" lon="10.9879418"><ele>1327.3333333333333</ele><time>2026-05-01T09:34:46.364Z</time></trkpt><trkpt lat="45.679816" lon="10.9878085"><ele>1333.0</ele><time>2026-05-01T09:34:47.364Z</time></trkpt><trkpt lat="45.6800041" lon="10.98765"><ele>1333.6666666666665</ele><time>2026-05-01T09:34:48.364Z</time></trkpt><trkpt lat="45.6801661" lon="10.9874725"><ele>1334.3333333333333</ele><time>2026-05-01T09:34:49.364Z</time></trkpt><trkpt lat="45.6803265" lon="10.9873211"><ele>1335.0</ele><time>2026-05-01T09:34:50.363Z</time></trkpt><trkpt lat="45.6805084" lon="10.9872289"><ele>1335.0</ele><time>2026-05-01T09:34:51.363Z</time></trkpt><trkpt lat="45.6806951" lon="10.9871777"><ele>1335.0</ele><time>2026-05-01T09:34:52.364Z</time></trkpt><trkpt lat="45.6808734" lon="10.9870815"><ele>1335.0</ele><time>2026-05-01T09:34:53.364Z</time></trkpt><trkpt lat="45.6810398" lon="10.9869573"><ele>1340.0</ele><time>2026-05-01T09:34:54.364Z</time></trkpt><trkpt lat="45.6811784" lon="10.9868725"><ele>1345.0</ele><time>2026-05-01T09:34:55.413Z</time></trkpt><trkpt lat="45.6814005" lon="10.9868827"><ele>1350.0</ele><time>2026-05-01T09:34:56.364Z</time></trkpt><trkpt lat="45.6815902" lon="10.9868795"><ele>1350.0</ele><time>2026-05-01T09:34:57.364Z</time></trkpt><trkpt lat="45.6817577" lon="10.986854"><ele>1350.0</ele><time>2026-05-01T09:34:58.364Z</time></trkpt><trkpt lat="45.6819007" lon="10.9867988"><ele>1350.0</ele><time>2026-05-01T09:34:59.364Z</time></trkpt><trkpt lat="45.6819998" lon="10.986693"><ele>1350.0</ele><time>2026-05-01T09:35:00.364Z</time></trkpt><trkpt lat="45.6820528" lon="10.9865531"><ele>1346.0</ele><time>2026-05-01T09:35:01.364Z</time></trkpt><trkpt lat="45.6820944" lon="10.9863935"><ele>1342.0</ele><time>2026-05-01T09:35:02.364Z</time></trkpt><trkpt lat="45.6821225" lon="10.9862157"><ele>1338.0</ele><time>2026-05-01T09:35:03.364Z</time></trkpt><trkpt lat="45.6821206" lon="10.9860288"><ele>1334.0</ele><time>2026-05-01T09:35:04.364Z</time></trkpt><trkpt lat="45.6820664" lon="10.9858578"><ele>1334.5</ele><time>2026-05-01T09:35:05.363Z</time></trkpt><trkpt lat="45.6819683" lon="10.9857004"><ele>1335.0</ele><time>2026-05-01T09:35:06.364Z</time></trkpt><trkpt lat="45.6818547" lon="10.9855603"><ele>1335.5</ele><time>2026-05-01T09:35:07.364Z</time></trkpt><trkpt lat="45.6817672" lon="10.9854121"><ele>1336.0</ele><time>2026-05-01T09:35:08.363Z</time></trkpt><trkpt lat="45.6816984" lon="10.9852506"><ele>1334.75</ele><time>2026-05-01T09:35:09.364Z</time></trkpt><trkpt lat="45.6816663" lon="10.9850732"><ele>1333.5</ele><time>2026-05-01T09:35:10.364Z</time></trkpt><trkpt lat="45.6816779" lon="10.984889"><ele>1332.25</ele><time>2026-05-01T09:35:11.364Z</time></trkpt><trkpt lat="45.6817304" lon="10.9847223"><ele>1331.0</ele><time>2026-05-01T09:35:12.364Z</time></trkpt><trkpt lat="45.6817993" lon="10.9845465"><ele>1331.0</ele><time>2026-05-01T09:35:13.364Z</time></trkpt><trkpt lat="45.6818761" lon="10.9843508"><ele>1331.0</ele><time>2026-05-01T09:35:14.364Z</time></trkpt><trkpt lat="45.6819382" lon="10.9841847"><ele>1331.0</ele><time>2026-05-01T09:35:15.42Z</time></trkpt><trkpt lat="45.6820034" lon="10.9839218"><ele>1333.0</ele><time>2026-05-01T09:35:16.364Z</time></trkpt><trkpt lat="45.682005" lon="10.9836705"><ele>1335.0</ele><time>2026-05-01T09:35:17.364Z</time></trkpt><trkpt lat="45.6819553" lon="10.9834202"><ele>1337.0</ele><time>2026-05-01T09:35:18.364Z</time></trkpt><trkpt lat="45.68189" lon="10.9831963"><ele>1337.0</ele><time>2026-05-01T09:35:19.364Z</time></trkpt><trkpt lat="45.6818356" lon="10.983"><ele>1337.0</ele><time>2026-05-01T09:35:20.364Z</time></trkpt><trkpt lat="45.6818117" lon="10.9827933"><ele>1337.0</ele><time>2026-05-01T09:35:21.363Z</time></trkpt><trkpt lat="45.6818113" lon="10.9825663"><ele>1338.3333333333335</ele><time>2026-05-01T09:35:22.363Z</time></trkpt><trkpt lat="45.6818078" lon="10.9823201"><ele>1339.6666666666667</ele><time>2026-05-01T09:35:23.363Z</time></trkpt><trkpt lat="45.6817786" lon="10.9820532"><ele>1341.0</ele><time>2026-05-01T09:35:24.364Z</time></trkpt><trkpt lat="45.6817308" lon="10.9817917"><ele>1342.3333333333333</ele><time>2026-05-01T09:35:25.364Z</time></trkpt><trkpt lat="45.6816766" lon="10.9815625"><ele>1343.6666666666665</ele><time>2026-05-01T09:35:26.364Z</time></trkpt><trkpt lat="45.6816147" lon="10.9813669"><ele>1345.0</ele><time>2026-05-01T09:35:27.363Z</time></trkpt><trkpt lat="45.6815307" lon="10.9812044"><ele>1345.0</ele><time>2026-05-01T09:35:28.364Z</time></trkpt><trkpt lat="45.6814145" lon="10.9810838"><ele>1345.0</ele><time>2026-05-01T09:35:29.364Z</time></trkpt><trkpt lat="45.6812779" lon="10.9809912"><ele>1345.0</ele><time>2026-05-01T09:35:30.364Z</time></trkpt><trkpt lat="45.6811418" lon="10.9808987"><ele>1345.0</ele><time>2026-05-01T09:35:31.364Z</time></trkpt><trkpt lat="45.6810067" lon="10.9808063"><ele>1347.0</ele><time>2026-05-01T09:35:32.364Z</time></trkpt><trkpt lat="45.6808688" lon="10.9807166"><ele>1349.0</ele><time>2026-05-01T09:35:33.364Z</time></trkpt><trkpt lat="45.6807239" lon="10.9806286"><ele>1351.0</ele><time>2026-05-01T09:35:34.363Z</time></trkpt><trkpt lat="45.6805858" lon="10.9805424"><ele>1351.0</ele><time>2026-05-01T09:35:35.364Z</time></trkpt><trkpt lat="45.6804603" lon="10.9804701"><ele>1351.0</ele><time>2026-05-01T09:35:36.364Z</time></trkpt><trkpt lat="45.6803647" lon="10.9804176"><ele>1351.0</ele><time>2026-05-01T09:35:37.389Z</time></trkpt><trkpt lat="45.6802798" lon="10.9803312"><ele>1351.0</ele><time>2026-05-01T09:35:38.364Z</time></trkpt><trkpt lat="45.6802323" lon="10.9802399"><ele>1351.0</ele><time>2026-05-01T09:35:39.364Z</time></trkpt><trkpt lat="45.6802296" lon="10.9801395"><ele>1351.0</ele><time>2026-05-01T09:35:40.364Z</time></trkpt><trkpt lat="45.6802672" lon="10.9800431"><ele>1351.0</ele><time>2026-05-01T09:35:41.364Z</time></trkpt><trkpt lat="45.6803396" lon="10.9799879"><ele>1351.0</ele><time>2026-05-01T09:35:42.364Z</time></trkpt><trkpt lat="45.6804449" lon="10.9799855"><ele>1351.0</ele><time>2026-05-01T09:35:43.364Z</time></trkpt><trkpt lat="45.6805638" lon="10.9800191"><ele>1351.0</ele><time>2026-05-01T09:35:44.364Z</time></trkpt><trkpt lat="45.6806887" lon="10.9800658"><ele>1351.0</ele><time>2026-05-01T09:35:45.364Z</time></trkpt><trkpt lat="45.6808101" lon="10.9801188"><ele>1351.0</ele><time>2026-05-01T09:35:46.364Z</time></trkpt><trkpt lat="45.6809227" lon="10.9801695"><ele>1351.0</ele><time>2026-05-01T09:35:47.364Z</time></trkpt><trkpt lat="45.6810298" lon="10.9802119"><ele>1351.0</ele><time>2026-05-01T09:35:48.364Z</time></trkpt><trkpt lat="45.6811332" lon="10.9802549"><ele>1351.1999999999998</ele><time>2026-05-01T09:35:49.364Z</time></trkpt><trkpt lat="45.6812365" lon="10.9802981"><ele>1351.3999999999999</ele><time>2026-05-01T09:35:50.363Z</time></trkpt><trkpt lat="45.6813412" lon="10.9803428"><ele>1351.6</ele><time>2026-05-01T09:35:51.364Z</time></trkpt><trkpt lat="45.681445" lon="10.9803897"><ele>1351.8</ele><time>2026-05-01T09:35:52.363Z</time></trkpt><trkpt lat="45.6815497" lon="10.9804257"><ele>1352.0</ele><time>2026-05-01T09:35:53.364Z</time></trkpt><trkpt lat="45.6816579" lon="10.9804392"><ele>1352.0</ele><time>2026-05-01T09:35:54.364Z</time></trkpt><trkpt lat="45.6817589" lon="10.9804056"><ele>1352.0</ele><time>2026-05-01T09:35:55.363Z</time></trkpt><trkpt lat="45.6818423" lon="10.9803294"><ele>1352.0</ele><time>2026-05-01T09:35:56.364Z</time></trkpt><trkpt lat="45.6819113" lon="10.9802256"><ele>1352.0</ele><time>2026-05-01T09:35:57.364Z</time></trkpt><trkpt lat="45.6819739" lon="10.9801049"><ele>1352.0</ele><time>2026-05-01T09:35:58.364Z</time></trkpt><trkpt lat="45.6820307" lon="10.9799718"><ele>1354.5</ele><time>2026-05-01T09:35:59.364Z</time></trkpt><trkpt lat="45.6820794" lon="10.9798252"><ele>1357.0</ele><time>2026-05-01T09:36:00.364Z</time></trkpt><trkpt lat="45.6821044" lon="10.9796631"><ele>1359.5</ele><time>2026-05-01T09:36:01.364Z</time></trkpt><trkpt lat="45.6821054" lon="10.9794884"><ele>1362.0</ele><time>2026-05-01T09:36:02.364Z</time></trkpt><trkpt lat="45.6821006" lon="10.9793302"><ele>1362.0</ele><time>2026-05-01T09:36:03.364Z</time></trkpt><trkpt lat="45.6821012" lon="10.9791907"><ele>1362.0</ele><time>2026-05-01T09:36:04.364Z</time></trkpt><trkpt lat="45.6821136" lon="10.979067"><ele>1362.0</ele><time>2026-05-01T09:36:05.364Z</time></trkpt><trkpt lat="45.6821388" lon="10.9789599"><ele>1362.0</ele><time>2026-05-01T09:36:06.364Z</time></trkpt><trkpt lat="45.6821801" lon="10.9788817"><ele>1362.0</ele><time>2026-05-01T09:36:07.364Z</time></trkpt><trkpt lat="45.6822365" lon="10.9788329"><ele>1362.0</ele><time>2026-05-01T09:36:08.364Z</time></trkpt><trkpt lat="45.6823036" lon="10.9788141"><ele>1363.6666666666667</ele><time>2026-05-01T09:36:09.364Z</time></trkpt><trkpt lat="45.6823727" lon="10.9788229"><ele>1365.3333333333333</ele><time>2026-05-01T09:36:10.364Z</time></trkpt><trkpt lat="45.6824411" lon="10.9788579"><ele>1367.0</ele><time>2026-05-01T09:36:11.364Z</time></trkpt><trkpt lat="45.6825112" lon="10.9789136"><ele>1368.6666666666665</ele><time>2026-05-01T09:36:12.364Z</time></trkpt><trkpt lat="45.6825783" lon="10.9789751"><ele>1370.3333333333333</ele><time>2026-05-01T09:36:13.364Z</time></trkpt><trkpt lat="45.6826417" lon="10.9790356"><ele>1372.0</ele><time>2026-05-01T09:36:14.364Z</time></trkpt><trkpt lat="45.6827019" lon="10.9790932"><ele>1372.0</ele><time>2026-05-01T09:36:15.363Z</time></trkpt><trkpt lat="45.682763" lon="10.9791435"><ele>1372.0</ele><time>2026-05-01T09:36:16.364Z</time></trkpt><trkpt lat="45.6828294" lon="10.979182"><ele>1372.0</ele><time>2026-05-01T09:36:17.364Z</time></trkpt><trkpt lat="45.6828992" lon="10.9792087"><ele>1372.0</ele><time>2026-05-01T09:36:18.364Z</time></trkpt><trkpt lat="45.6829684" lon="10.9792317"><ele>1372.0</ele><time>2026-05-01T09:36:19.364Z</time></trkpt><trkpt lat="45.6830369" lon="10.9792532"><ele>1372.0</ele><time>2026-05-01T09:36:20.364Z</time></trkpt><trkpt lat="45.6831016" lon="10.9792735"><ele>1372.0</ele><time>2026-05-01T09:36:21.363Z</time></trkpt><trkpt lat="45.6831638" lon="10.9792885"><ele>1371.8</ele><time>2026-05-01T09:36:22.364Z</time></trkpt><trkpt lat="45.6832818" lon="10.9793033"><ele>1371.6</ele><time>2026-05-01T09:36:24.364Z</time></trkpt><trkpt lat="45.6833916" lon="10.9793128"><ele>1371.3999999999999</ele><time>2026-05-01T09:36:26.364Z</time></trkpt><trkpt lat="45.6834935" lon="10.9793264"><ele>1371.1999999999998</ele><time>2026-05-01T09:36:28.364Z</time></trkpt><trkpt lat="45.6835997" lon="10.9793481"><ele>1371.0</ele><time>2026-05-01T09:36:30.364Z</time></trkpt><trkpt lat="45.6837086" lon="10.9793892"><ele>1372.6</ele><time>2026-05-01T09:36:32.363Z</time></trkpt><trkpt lat="45.6837817" lon="10.979478"><ele>1374.1999999999998</ele><time>2026-05-01T09:36:34.364Z</time></trkpt><trkpt lat="45.6838031" lon="10.9796298"><ele>1375.8000000000002</ele><time>2026-05-01T09:36:36.364Z</time></trkpt><trkpt lat="45.6837966" lon="10.9797376"><ele>1377.4</ele><time>2026-05-01T09:36:37.363Z</time></trkpt><trkpt lat="45.6837801" lon="10.9798691"><ele>1379.0</ele><time>2026-05-01T09:36:38.364Z</time></trkpt><trkpt lat="45.6837594" lon="10.9800186"><ele>1380.0</ele><time>2026-05-01T09:36:39.364Z</time></trkpt><trkpt lat="45.6837478" lon="10.9801691"><ele>1381.0</ele><time>2026-05-01T09:36:40.364Z</time></trkpt><trkpt lat="45.6837395" lon="10.9803149"><ele>1382.0</ele><time>2026-05-01T09:36:41.364Z</time></trkpt><trkpt lat="45.6837327" lon="10.9804445"><ele>1383.0</ele><time>2026-05-01T09:36:42.364Z</time></trkpt><trkpt lat="45.6837275" lon="10.9805721"><ele>1384.0</ele><time>2026-05-01T09:36:43.364Z</time></trkpt><trkpt lat="45.6837209" lon="10.9806895"><ele>1384.0</ele><time>2026-05-01T09:36:44.364Z</time></trkpt><trkpt lat="45.6837116" lon="10.9808022"><ele>1384.0</ele><time>2026-05-01T09:36:45.364Z</time></trkpt><trkpt lat="45.6837017" lon="10.9809106"><ele>1384.0</ele><time>2026-05-01T09:36:46.364Z</time></trkpt><trkpt lat="45.6836906" lon="10.9810218"><ele>1384.0</ele><time>2026-05-01T09:36:47.364Z</time></trkpt><trkpt lat="45.6836727" lon="10.9811318"><ele>1384.0</ele><time>2026-05-01T09:36:48.364Z</time></trkpt><trkpt lat="45.6836568" lon="10.981242"><ele>1384.0</ele><time>2026-05-01T09:36:49.364Z</time></trkpt><trkpt lat="45.6836404" lon="10.9813485"><ele>1383.4285714285713</ele><time>2026-05-01T09:36:50.364Z</time></trkpt><trkpt lat="45.6836223" lon="10.9814523"><ele>1382.857142857143</ele><time>2026-05-01T09:36:51.364Z</time></trkpt><trkpt lat="45.6836083" lon="10.9815491"><ele>1382.2857142857142</ele><time>2026-05-01T09:36:52.364Z</time></trkpt><trkpt lat="45.6835923" lon="10.981642"><ele>1381.7142857142858</ele><time>2026-05-01T09:36:53.364Z</time></trkpt><trkpt lat="45.6835753" lon="10.9817323"><ele>1381.142857142857</ele><time>2026-05-01T09:36:54.364Z</time></trkpt><trkpt lat="45.6835553" lon="10.9818205"><ele>1380.5714285714287</ele><time>2026-05-01T09:36:55.364Z</time></trkpt><trkpt lat="45.6835344" lon="10.9819115"><ele>1380.0</ele><time>2026-05-01T09:36:56.363Z</time></trkpt><trkpt lat="45.6835269" lon="10.9820146"><ele>1379.0</ele><time>2026-05-01T09:36:57.363Z</time></trkpt><trkpt lat="45.6835448" lon="10.9821189"><ele>1378.0</ele><time>2026-05-01T09:36:58.363Z</time></trkpt><trkpt lat="45.6836" lon="10.982207"><ele>1377.0</ele><time>2026-05-01T09:36:59.364Z</time></trkpt><trkpt lat="45.6836954" lon="10.9822547"><ele>1376.0</ele><time>2026-05-01T09:37:00.364Z</time></trkpt><trkpt lat="45.6838057" lon="10.9822698"><ele>1375.0</ele><time>2026-05-01T09:37:01.364Z</time></trkpt><trkpt lat="45.6839213" lon="10.982274"><ele>1375.0</ele><time>2026-05-01T09:37:02.364Z</time></trkpt><trkpt lat="45.6840404" lon="10.9822832"><ele>1375.0</ele><time>2026-05-01T09:37:03.364Z</time></trkpt><trkpt lat="45.684161" lon="10.9822917"><ele>1375.0</ele><time>2026-05-01T09:37:04.364Z</time></trkpt><trkpt lat="45.6842811" lon="10.9823001"><ele>1375.0</ele><time>2026-05-01T09:37:05.363Z</time></trkpt><trkpt lat="45.6843997" lon="10.9823098"><ele>1374.2</ele><time>2026-05-01T09:37:06.364Z</time></trkpt><trkpt lat="45.6845151" lon="10.9823254"><ele>1373.4</ele><time>2026-05-01T09:37:07.364Z</time></trkpt><trkpt lat="45.6846222" lon="10.9823519"><ele>1372.6</ele><time>2026-05-01T09:37:08.364Z</time></trkpt><trkpt lat="45.6847219" lon="10.9823907"><ele>1371.8</ele><time>2026-05-01T09:37:09.364Z</time></trkpt><trkpt lat="45.6848157" lon="10.9824375"><ele>1371.0</ele><time>2026-05-01T09:37:10.364Z</time></trkpt><trkpt lat="45.6849071" lon="10.9824834"><ele>1369.1666666666667</ele><time>2026-05-01T09:37:11.364Z</time></trkpt><trkpt lat="45.6849953" lon="10.9825282"><ele>1367.3333333333333</ele><time>2026-05-01T09:37:12.364Z</time></trkpt><trkpt lat="45.6850772" lon="10.9825718"><ele>1365.5</ele><time>2026-05-01T09:37:13.364Z</time></trkpt><trkpt lat="45.6851482" lon="10.9826266"><ele>1363.6666666666665</ele><time>2026-05-01T09:37:14.364Z</time></trkpt><trkpt lat="45.6852118" lon="10.9826839"><ele>1361.8333333333333</ele><time>2026-05-01T09:37:15.364Z</time></trkpt><trkpt lat="45.6852654" lon="10.9827449"><ele>1360.0</ele><time>2026-05-01T09:37:16.364Z</time></trkpt><trkpt lat="45.6853193" lon="10.982801"><ele>1360.0</ele><time>2026-05-01T09:37:17.363Z</time></trkpt><trkpt lat="45.6853829" lon="10.9828506"><ele>1360.0</ele><time>2026-05-01T09:37:18.364Z</time></trkpt><trkpt lat="45.6854527" lon="10.9828905"><ele>1360.0</ele><time>2026-05-01T09:37:19.363Z</time></trkpt><trkpt lat="45.6855236" lon="10.9829164"><ele>1360.0</ele><time>2026-05-01T09:37:20.364Z</time></trkpt><trkpt lat="45.6856045" lon="10.9829327"><ele>1360.0</ele><time>2026-05-01T09:37:21.364Z</time></trkpt><trkpt lat="45.6857066" lon="10.9829407"><ele>1360.0</ele><time>2026-05-01T09:37:22.364Z</time></trkpt><trkpt lat="45.6858239" lon="10.9829387"><ele>1360.0</ele><time>2026-05-01T09:37:23.364Z</time></trkpt><trkpt lat="45.6859475" lon="10.9829337"><ele>1360.0</ele><time>2026-05-01T09:37:24.364Z</time></trkpt><trkpt lat="45.6860683" lon="10.9829226"><ele>1360.0</ele><time>2026-05-01T09:37:25.364Z</time></trkpt><trkpt lat="45.6861879" lon="10.9829074"><ele>1360.0</ele><time>2026-05-01T09:37:26.364Z</time></trkpt><trkpt lat="45.6863002" lon="10.9828989"><ele>1361.2</ele><time>2026-05-01T09:37:27.363Z</time></trkpt><trkpt lat="45.6864163" lon="10.9828924"><ele>1362.4</ele><time>2026-05-01T09:37:28.363Z</time></trkpt><trkpt lat="45.6865227" lon="10.9828984"><ele>1363.6</ele><time>2026-05-01T09:37:29.364Z</time></trkpt><trkpt lat="45.6866302" lon="10.9829122"><ele>1364.8</ele><time>2026-05-01T09:37:30.364Z</time></trkpt><trkpt lat="45.6867365" lon="10.9829446"><ele>1366.0</ele><time>2026-05-01T09:37:31.364Z</time></trkpt><trkpt lat="45.6868329" lon="10.9829943"><ele>1368.0</ele><time>2026-05-01T09:37:32.364Z</time></trkpt><trkpt lat="45.6869402" lon="10.9830578"><ele>1370.0</ele><time>2026-05-01T09:37:33.364Z</time></trkpt><trkpt lat="45.687032" lon="10.9831363"><ele>1372.0</ele><time>2026-05-01T09:37:34.364Z</time></trkpt><trkpt lat="45.6871185" lon="10.9832281"><ele>1374.0</ele><time>2026-05-01T09:37:35.364Z</time></trkpt><trkpt lat="45.6872056" lon="10.9833315"><ele>1376.0</ele><time>2026-05-01T09:37:36.364Z</time></trkpt><trkpt lat="45.6872989" lon="10.9834444"><ele>1376.0</ele><time>2026-05-01T09:37:37.364Z</time></trkpt><trkpt lat="45.6873991" lon="10.9835626"><ele>1376.0</ele><time>2026-05-01T09:37:38.364Z</time></trkpt><trkpt lat="45.6874979" lon="10.9836479"><ele>1376.0</ele><time>2026-05-01T09:37:39.364Z</time></trkpt><trkpt lat="45.6875911" lon="10.9837225"><ele>1376.0</ele><time>2026-05-01T09:37:40.364Z</time></trkpt><trkpt lat="45.6876826" lon="10.9838008"><ele>1376.6</ele><time>2026-05-01T09:37:41.364Z</time></trkpt><trkpt lat="45.6877642" lon="10.9839009"><ele>1377.1999999999998</ele><time>2026-05-01T09:37:42.364Z</time></trkpt><trkpt lat="45.6878294" lon="10.9840206"><ele>1377.8000000000002</ele><time>2026-05-01T09:37:43.364Z</time></trkpt><trkpt lat="45.6878855" lon="10.9841464"><ele>1378.4</ele><time>2026-05-01T09:37:44.364Z</time></trkpt><trkpt lat="45.6879405" lon="10.9842671"><ele>1379.0</ele><time>2026-05-01T09:37:45.364Z</time></trkpt><trkpt lat="45.6880006" lon="10.9844014"><ele>1379.6</ele><time>2026-05-01T09:37:46.363Z</time></trkpt><trkpt lat="45.6880562" lon="10.9845284"><ele>1380.2</ele><time>2026-05-01T09:37:47.364Z</time></trkpt><trkpt lat="45.6881081" lon="10.9846465"><ele>1380.8</ele><time>2026-05-01T09:37:48.364Z</time></trkpt><trkpt lat="45.6881573" lon="10.9847652"><ele>1381.3999999999999</ele><time>2026-05-01T09:37:49.364Z</time></trkpt><trkpt lat="45.6881899" lon="10.9848917"><ele>1382.0</ele><time>2026-05-01T09:37:50.364Z</time></trkpt><trkpt lat="45.6882074" lon="10.9850418"><ele>1383.8</ele><time>2026-05-01T09:37:51.364Z</time></trkpt><trkpt lat="45.6882152" lon="10.9852074"><ele>1385.6</ele><time>2026-05-01T09:37:52.364Z</time></trkpt><trkpt lat="45.6882132" lon="10.9853689"><ele>1387.3999999999999</ele><time>2026-05-01T09:37:53.364Z</time></trkpt><trkpt lat="45.688206" lon="10.9855243"><ele>1389.1999999999998</ele><time>2026-05-01T09:37:54.364Z</time></trkpt><trkpt lat="45.6881953" lon="10.985668"><ele>1391.0</ele><time>2026-05-01T09:37:55.364Z</time></trkpt><trkpt lat="45.6881659" lon="10.9858043"><ele>1391.8</ele><time>2026-05-01T09:37:56.364Z</time></trkpt><trkpt lat="45.688106" lon="10.9859139"><ele>1392.6</ele><time>2026-05-01T09:37:57.364Z</time></trkpt><trkpt lat="45.6880188" lon="10.9860006"><ele>1393.4</ele><time>2026-05-01T09:37:58.363Z</time></trkpt><trkpt lat="45.6879238" lon="10.9860728"><ele>1394.2</ele><time>2026-05-01T09:37:59.364Z</time></trkpt><trkpt lat="45.6878325" lon="10.9861435"><ele>1395.0</ele><time>2026-05-01T09:38:00.364Z</time></trkpt><trkpt lat="45.6877524" lon="10.9862045"><ele>1395.0</ele><time>2026-05-01T09:38:01.364Z</time></trkpt><trkpt lat="45.6876905" lon="10.9862454"><ele>1395.0</ele><time>2026-05-01T09:38:02.364Z</time></trkpt><trkpt lat="45.6875896" lon="10.9863812"><ele>1395.0</ele><time>2026-05-01T09:38:04.364Z</time></trkpt><trkpt lat="45.6875506" lon="10.9864865"><ele>1395.0</ele><time>2026-05-01T09:38:05.364Z</time></trkpt><trkpt lat="45.6875193" lon="10.9866083"><ele>1395.0</ele><time>2026-05-01T09:38:06.364Z</time></trkpt><trkpt lat="45.6874949" lon="10.9867251"><ele>1397.5</ele><time>2026-05-01T09:38:07.364Z</time></trkpt><trkpt lat="45.6874741" lon="10.9868273"><ele>1400.0</ele><time>2026-05-01T09:38:08.364Z</time></trkpt><trkpt lat="45.6874436" lon="10.9869179"><ele>1402.5</ele><time>2026-05-01T09:38:09.364Z</time></trkpt><trkpt lat="45.687409" lon="10.9870239"><ele>1405.0</ele><time>2026-05-01T09:38:10.364Z</time></trkpt><trkpt lat="45.6873555" lon="10.98714"><ele>1407.5</ele><time>2026-05-01T09:38:11.364Z</time></trkpt><trkpt lat="45.6872883" lon="10.9872628"><ele>1410.0</ele><time>2026-05-01T09:38:12.364Z</time></trkpt><trkpt lat="45.6872205" lon="10.9873859"><ele>1410.0</ele><time>2026-05-01T09:38:13.364Z</time></trkpt><trkpt lat="45.6871442" lon="10.9874998"><ele>1410.0</ele><time>2026-05-01T09:38:14.364Z</time></trkpt><trkpt lat="45.6870668" lon="10.9876024"><ele>1410.0</ele><time>2026-05-01T09:38:15.364Z</time></trkpt><trkpt lat="45.6869899" lon="10.9876975"><ele>1410.0</ele><time>2026-05-01T09:38:16.364Z</time></trkpt><trkpt lat="45.6869209" lon="10.9877814"><ele>1410.0</ele><time>2026-05-01T09:38:17.364Z</time></trkpt><trkpt lat="45.686861" lon="10.9878563"><ele>1408.6666666666667</ele><time>2026-05-01T09:38:18.364Z</time></trkpt><trkpt lat="45.6868177" lon="10.9879371"><ele>1407.3333333333333</ele><time>2026-05-01T09:38:19.363Z</time></trkpt><trkpt lat="45.6868089" lon="10.9881176"><ele>1406.0</ele><time>2026-05-01T09:38:21.364Z</time></trkpt><trkpt lat="45.6868328" lon="10.9882152"><ele>1404.6666666666665</ele><time>2026-05-01T09:38:22.364Z</time></trkpt><trkpt lat="45.6868429" lon="10.988324"><ele>1403.3333333333333</ele><time>2026-05-01T09:38:23.363Z</time></trkpt><trkpt lat="45.686812" lon="10.9884042"><ele>1402.0</ele><time>2026-05-01T09:38:24.364Z</time></trkpt><trkpt lat="45.6866877" lon="10.9884644"><ele>1408.5</ele><time>2026-05-01T09:38:26.363Z</time></trkpt><trkpt lat="45.686591" lon="10.9884689"><ele>1415.0</ele><time>2026-05-01T09:38:27.364Z</time></trkpt><trkpt lat="45.6864726" lon="10.9885137"><ele>1421.5</ele><time>2026-05-01T09:38:28.364Z</time></trkpt><trkpt lat="45.6863408" lon="10.9886136"><ele>1428.0</ele><time>2026-05-01T09:38:29.363Z</time></trkpt><trkpt lat="45.6862035" lon="10.9887183"><ele>1426.6666666666667</ele><time>2026-05-01T09:38:30.364Z</time></trkpt><trkpt lat="45.6860624" lon="10.9887906"><ele>1425.3333333333335</ele><time>2026-05-01T09:38:31.364Z</time></trkpt><trkpt lat="45.6859086" lon="10.9888448"><ele>1424.0</ele><time>2026-05-01T09:38:32.363Z</time></trkpt><trkpt lat="45.6857507" lon="10.9888749"><ele>1424.0</ele><time>2026-05-01T09:38:33.363Z</time></trkpt><trkpt lat="45.6856075" lon="10.9888824"><ele>1424.0</ele><time>2026-05-01T09:38:34.363Z</time></trkpt><trkpt lat="45.685482" lon="10.9888716"><ele>1424.0</ele><time>2026-05-01T09:38:35.363Z</time></trkpt><trkpt lat="45.6853773" lon="10.9888492"><ele>1424.0</ele><time>2026-05-01T09:38:36.363Z</time></trkpt><trkpt lat="45.6852859" lon="10.988843"><ele>1422.3333333333335</ele><time>2026-05-01T09:38:37.363Z</time></trkpt><trkpt lat="45.6851987" lon="10.9888549"><ele>1420.6666666666667</ele><time>2026-05-01T09:38:38.363Z</time></trkpt><trkpt lat="45.6851218" lon="10.9888906"><ele>1419.0</ele><time>2026-05-01T09:38:39.362Z</time></trkpt><trkpt lat="45.6850602" lon="10.9889646"><ele>1417.3333333333333</ele><time>2026-05-01T09:38:40.363Z</time></trkpt><trkpt lat="45.6850149" lon="10.9890763"><ele>1415.6666666666665</ele><time>2026-05-01T09:38:41.362Z</time></trkpt><trkpt lat="45.6849859" lon="10.9892047"><ele>1414.0</ele><time>2026-05-01T09:38:42.363Z</time></trkpt><trkpt lat="45.6849732" lon="10.9893229"><ele>1414.0</ele><time>2026-05-01T09:38:43.362Z</time></trkpt><trkpt lat="45.6849813" lon="10.9894194"><ele>1414.0</ele><time>2026-05-01T09:38:44.363Z</time></trkpt><trkpt lat="45.6850788" lon="10.9895394"><ele>1414.0</ele><time>2026-05-01T09:38:46.363Z</time></trkpt><trkpt lat="45.6851557" lon="10.9895651"><ele>1414.0</ele><time>2026-05-01T09:38:47.363Z</time></trkpt><trkpt lat="45.6852198" lon="10.989613"><ele>1414.0</ele><time>2026-05-01T09:38:48.363Z</time></trkpt><trkpt lat="45.6852679" lon="10.9896819"><ele>1414.0</ele><time>2026-05-01T09:38:49.363Z</time></trkpt><trkpt lat="45.685298" lon="10.9897742"><ele>1418.6666666666665</ele><time>2026-05-01T09:38:50.363Z</time></trkpt><trkpt lat="45.6853016" lon="10.9898805"><ele>1423.3333333333333</ele><time>2026-05-01T09:38:51.363Z</time></trkpt><trkpt lat="45.6852845" lon="10.9899919"><ele>1428.0</ele><time>2026-05-01T09:38:52.363Z</time></trkpt><trkpt lat="45.6852844" lon="10.9900997"><ele>1432.6666666666667</ele><time>2026-05-01T09:38:53.363Z</time></trkpt><trkpt lat="45.6853102" lon="10.9902044"><ele>1437.3333333333335</ele><time>2026-05-01T09:38:54.363Z</time></trkpt><trkpt lat="45.6853596" lon="10.9902933"><ele>1442.0</ele><time>2026-05-01T09:38:55.363Z</time></trkpt><trkpt lat="45.6854224" lon="10.990358"><ele>1441.5</ele><time>2026-05-01T09:38:56.363Z</time></trkpt><trkpt lat="45.6854943" lon="10.9904167"><ele>1441.0</ele><time>2026-05-01T09:38:57.363Z</time></trkpt><trkpt lat="45.6855551" lon="10.9905013"><ele>1440.5</ele><time>2026-05-01T09:38:58.363Z</time></trkpt><trkpt lat="45.6855939" lon="10.9906104"><ele>1440.0</ele><time>2026-05-01T09:38:59.363Z</time></trkpt><trkpt lat="45.685613" lon="10.9907372"><ele>1439.5</ele><time>2026-05-01T09:39:00.363Z</time></trkpt><trkpt lat="45.6856276" lon="10.9908804"><ele>1439.0</ele><time>2026-05-01T09:39:01.362Z</time></trkpt><trkpt lat="45.6856412" lon="10.9910222"><ele>1439.0</ele><time>2026-05-01T09:39:02.363Z</time></trkpt><trkpt lat="45.685653" lon="10.9911658"><ele>1439.0</ele><time>2026-05-01T09:39:03.363Z</time></trkpt><trkpt lat="45.6856563" lon="10.9913097"><ele>1439.0</ele><time>2026-05-01T09:39:04.363Z</time></trkpt><trkpt lat="45.6856678" lon="10.9914478"><ele>1439.0</ele><time>2026-05-01T09:39:05.363Z</time></trkpt><trkpt lat="45.6857135" lon="10.9915661"><ele>1439.0</ele><time>2026-05-01T09:39:06.363Z</time></trkpt><trkpt lat="45.6857919" lon="10.991658"><ele>1437.8000000000002</ele><time>2026-05-01T09:39:07.363Z</time></trkpt><trkpt lat="45.6858859" lon="10.9917338"><ele>1436.6000000000001</ele><time>2026-05-01T09:39:08.363Z</time></trkpt><trkpt lat="45.6859867" lon="10.9918095"><ele>1435.4</ele><time>2026-05-01T09:39:09.362Z</time></trkpt><trkpt lat="45.6860837" lon="10.9918969"><ele>1434.2</ele><time>2026-05-01T09:39:10.363Z</time></trkpt><trkpt lat="45.6861796" lon="10.9919754"><ele>1433.0</ele><time>2026-05-01T09:39:11.363Z</time></trkpt><trkpt lat="45.6862792" lon="10.9920295"><ele>1436.4</ele><time>2026-05-01T09:39:12.363Z</time></trkpt><trkpt lat="45.6863906" lon="10.9920375"><ele>1439.8000000000002</ele><time>2026-05-01T09:39:13.362Z</time></trkpt><trkpt lat="45.6865101" lon="10.9920133"><ele>1443.2</ele><time>2026-05-01T09:39:14.362Z</time></trkpt><trkpt lat="45.6866221" lon="10.9919849"><ele>1446.6</ele><time>2026-05-01T09:39:15.363Z</time></trkpt><trkpt lat="45.6867229" lon="10.9919605"><ele>1450.0</ele><time>2026-05-01T09:39:16.362Z</time></trkpt><trkpt lat="45.6868068" lon="10.9919519"><ele>1450.0</ele><time>2026-05-01T09:39:17.363Z</time></trkpt><trkpt lat="45.6868813" lon="10.9919623"><ele>1450.0</ele><time>2026-05-01T09:39:18.363Z</time></trkpt><trkpt lat="45.686944" lon="10.9920077"><ele>1450.0</ele><time>2026-05-01T09:39:19.363Z</time></trkpt><trkpt lat="45.6869869" lon="10.992074"><ele>1450.0</ele><time>2026-05-01T09:39:20.363Z</time></trkpt><trkpt lat="45.6870006" lon="10.9922439"><ele>1450.0</ele><time>2026-05-01T09:39:22.363Z</time></trkpt><trkpt lat="45.6869721" lon="10.9923548"><ele>1450.0</ele><time>2026-05-01T09:39:23.363Z</time></trkpt><trkpt lat="45.6868848" lon="10.9924817"><ele>1450.8</ele><time>2026-05-01T09:39:24.363Z</time></trkpt><trkpt lat="45.6867983" lon="10.9925739"><ele>1451.6</ele><time>2026-05-01T09:39:25.362Z</time></trkpt><trkpt lat="45.6867206" lon="10.9926307"><ele>1452.4</ele><time>2026-05-01T09:39:26.363Z</time></trkpt><trkpt lat="45.6866352" lon="10.9926693"><ele>1453.2</ele><time>2026-05-01T09:39:27.363Z</time></trkpt><trkpt lat="45.686593" lon="10.9927835"><ele>1454.0</ele><time>2026-05-01T09:39:29.363Z</time></trkpt><trkpt lat="45.6866656" lon="10.9928517"><ele>1454.0</ele><time>2026-05-01T09:39:31.363Z</time></trkpt><trkpt lat="45.6867516" lon="10.992805"><ele>1454.0</ele><time>2026-05-01T09:39:32.363Z</time></trkpt><trkpt lat="45.686881" lon="10.9927021"><ele>1454.0</ele><time>2026-05-01T09:39:33.363Z</time></trkpt><trkpt lat="45.6870173" lon="10.9925499"><ele>1454.0</ele><time>2026-05-01T09:39:34.363Z</time></trkpt><trkpt lat="45.6871507" lon="10.9923624"><ele>1457.75</ele><time>2026-05-01T09:39:35.363Z</time></trkpt><trkpt lat="45.687259" lon="10.9921719"><ele>1461.5</ele><time>2026-05-01T09:39:36.363Z</time></trkpt><trkpt lat="45.6873481" lon="10.9920228"><ele>1465.25</ele><time>2026-05-01T09:39:37.363Z</time></trkpt><trkpt lat="45.687429" lon="10.9919245"><ele>1469.0</ele><time>2026-05-01T09:39:38.362Z</time></trkpt><trkpt lat="45.6874696" lon="10.9918233"><ele>1469.0</ele><time>2026-05-01T09:39:39.363Z</time></trkpt><trkpt lat="45.6874671" lon="10.9917106"><ele>1469.0</ele><time>2026-05-01T09:39:40.363Z</time></trkpt><trkpt lat="45.6874357" lon="10.9916103"><ele>1469.0</ele><time>2026-05-01T09:39:41.363Z</time></trkpt><trkpt lat="45.6873785" lon="10.9914861"><ele>1469.0</ele><time>2026-05-01T09:39:43.363Z</time></trkpt><trkpt lat="45.6874689" lon="10.9914624"><ele>1469.0</ele><time>2026-05-01T09:39:46.362Z</time></trkpt><trkpt lat="45.6875239" lon="10.9915381"><ele>1469.0</ele><time>2026-05-01T09:39:47.363Z</time></trkpt><trkpt lat="45.6875978" lon="10.9916699"><ele>1469.0</ele><time>2026-05-01T09:39:48.363Z</time></trkpt><trkpt lat="45.6876759" lon="10.9918451"><ele>1469.0</ele><time>2026-05-01T09:39:49.363Z</time></trkpt><trkpt lat="45.6877562" lon="10.9919971"><ele>1469.0</ele><time>2026-05-01T09:39:50.363Z</time></trkpt><trkpt lat="45.6878448" lon="10.9920691"><ele>1469.0</ele><time>2026-05-01T09:39:51.363Z</time></trkpt><trkpt lat="45.6879363" lon="10.9920718"><ele>1470.0</ele><time>2026-05-01T09:39:52.362Z</time></trkpt><trkpt lat="45.6880327" lon="10.9920204"><ele>1471.0</ele><time>2026-05-01T09:39:53.362Z</time></trkpt><trkpt lat="45.6881341" lon="10.9919165"><ele>1472.0</ele><time>2026-05-01T09:39:54.362Z</time></trkpt><trkpt lat="45.6882323" lon="10.9918445"><ele>1473.0</ele><time>2026-05-01T09:39:55.362Z</time></trkpt><trkpt lat="45.6883294" lon="10.9918585"><ele>1474.0</ele><time>2026-05-01T09:39:56.363Z</time></trkpt><trkpt lat="45.6884123" lon="10.9919435"><ele>1474.0</ele><time>2026-05-01T09:39:57.362Z</time></trkpt><trkpt lat="45.6884807" lon="10.9920858"><ele>1474.0</ele><time>2026-05-01T09:39:58.363Z</time></trkpt><trkpt lat="45.6885395" lon="10.99225"><ele>1474.0</ele><time>2026-05-01T09:39:59.362Z</time></trkpt><trkpt lat="45.6885814" lon="10.992418"><ele>1474.0</ele><time>2026-05-01T09:40:00.363Z</time></trkpt><trkpt lat="45.6886426" lon="10.9925506"><ele>1477.75</ele><time>2026-05-01T09:40:01.363Z</time></trkpt><trkpt lat="45.688739" lon="10.9926214"><ele>1481.5</ele><time>2026-05-01T09:40:02.363Z</time></trkpt><trkpt lat="45.6888501" lon="10.9926784"><ele>1485.25</ele><time>2026-05-01T09:40:03.363Z</time></trkpt><trkpt lat="45.6889451" lon="10.9927596"><ele>1489.0</ele><time>2026-05-01T09:40:04.362Z</time></trkpt><trkpt lat="45.6890398" lon="10.9928473"><ele>1489.0</ele><time>2026-05-01T09:40:05.362Z</time></trkpt><trkpt lat="45.6891365" lon="10.992897"><ele>1489.0</ele><time>2026-05-01T09:40:06.363Z</time></trkpt><trkpt lat="45.6892329" lon="10.992868"><ele>1489.0</ele><time>2026-05-01T09:40:07.363Z</time></trkpt><trkpt lat="45.689303" lon="10.9927758"><ele>1489.0</ele><time>2026-05-01T09:40:08.363Z</time></trkpt><trkpt lat="45.6893335" lon="10.9926235"><ele>1489.0</ele><time>2026-05-01T09:40:09.363Z</time></trkpt><trkpt lat="45.68936" lon="10.9924643"><ele>1489.6</ele><time>2026-05-01T09:40:10.362Z</time></trkpt><trkpt lat="45.6894006" lon="10.9923222"><ele>1490.2</ele><time>2026-05-01T09:40:11.363Z</time></trkpt><trkpt lat="45.6894722" lon="10.9922212"><ele>1490.8</ele><time>2026-05-01T09:40:12.363Z</time></trkpt><trkpt lat="45.6895749" lon="10.9921481"><ele>1491.3999999999999</ele><time>2026-05-01T09:40:13.363Z</time></trkpt><trkpt lat="45.689684" lon="10.9921093"><ele>1492.0</ele><time>2026-05-01T09:40:14.363Z</time></trkpt><trkpt lat="45.6897735" lon="10.992103"><ele>1492.0</ele><time>2026-05-01T09:40:15.363Z</time></trkpt><trkpt lat="45.6898439" lon="10.9921473"><ele>1492.0</ele><time>2026-05-01T09:40:16.363Z</time></trkpt><trkpt lat="45.6898911" lon="10.9922389"><ele>1492.0</ele><time>2026-05-01T09:40:17.363Z</time></trkpt><trkpt lat="45.6899111" lon="10.9923684"><ele>1492.0</ele><time>2026-05-01T09:40:18.363Z</time></trkpt><trkpt lat="45.689936" lon="10.9925232"><ele>1492.0</ele><time>2026-05-01T09:40:19.363Z</time></trkpt><trkpt lat="45.6899959" lon="10.9926463"><ele>1492.6</ele><time>2026-05-01T09:40:20.363Z</time></trkpt><trkpt lat="45.6900861" lon="10.9927298"><ele>1493.1999999999998</ele><time>2026-05-01T09:40:21.363Z</time></trkpt><trkpt lat="45.6901772" lon="10.9928092"><ele>1493.8</ele><time>2026-05-01T09:40:22.363Z</time></trkpt><trkpt lat="45.6902489" lon="10.9929168"><ele>1494.4</ele><time>2026-05-01T09:40:23.363Z</time></trkpt><trkpt lat="45.6903105" lon="10.9930385"><ele>1495.0</ele><time>2026-05-01T09:40:24.362Z</time></trkpt><trkpt lat="45.6903564" lon="10.9931671"><ele>1496.8</ele><time>2026-05-01T09:40:25.363Z</time></trkpt><trkpt lat="45.6904039" lon="10.9932919"><ele>1498.6</ele><time>2026-05-01T09:40:26.363Z</time></trkpt><trkpt lat="45.6904571" lon="10.993412"><ele>1500.4</ele><time>2026-05-01T09:40:27.362Z</time></trkpt><trkpt lat="45.6905076" lon="10.9935348"><ele>1502.2</ele><time>2026-05-01T09:40:28.363Z</time></trkpt><trkpt lat="45.6905645" lon="10.9936549"><ele>1504.0</ele><time>2026-05-01T09:40:29.363Z</time></trkpt><trkpt lat="45.6906372" lon="10.9937613"><ele>1504.0</ele><time>2026-05-01T09:40:30.363Z</time></trkpt><trkpt lat="45.6907478" lon="10.9938579"><ele>1504.0</ele><time>2026-05-01T09:40:31.363Z</time></trkpt><trkpt lat="45.6908783" lon="10.99395"><ele>1504.0</ele><time>2026-05-01T09:40:32.363Z</time></trkpt><trkpt lat="45.6910057" lon="10.9940594"><ele>1504.0</ele><time>2026-05-01T09:40:33.363Z</time></trkpt><trkpt lat="45.6911127" lon="10.9942217"><ele>1507.25</ele><time>2026-05-01T09:40:34.363Z</time></trkpt><trkpt lat="45.6911905" lon="10.9944137"><ele>1510.5</ele><time>2026-05-01T09:40:35.363Z</time></trkpt><trkpt lat="45.6912468" lon="10.9946036"><ele>1513.75</ele><time>2026-05-01T09:40:36.363Z</time></trkpt><trkpt lat="45.6913036" lon="10.9947651"><ele>1517.0</ele><time>2026-05-01T09:40:37.363Z</time></trkpt><trkpt lat="45.6913653" lon="10.9949067"><ele>1516.8</ele><time>2026-05-01T09:40:38.363Z</time></trkpt><trkpt lat="45.6914305" lon="10.9950367"><ele>1516.6</ele><time>2026-05-01T09:40:39.363Z</time></trkpt><trkpt lat="45.6914999" lon="10.9951612"><ele>1516.3999999999999</ele><time>2026-05-01T09:40:40.363Z</time></trkpt><trkpt lat="45.6915683" lon="10.9952796"><ele>1516.1999999999998</ele><time>2026-05-01T09:40:41.363Z</time></trkpt><trkpt lat="45.6916395" lon="10.995393"><ele>1516.0</ele><time>2026-05-01T09:40:42.363Z</time></trkpt><trkpt lat="45.6917172" lon="10.9954983"><ele>1516.0</ele><time>2026-05-01T09:40:43.363Z</time></trkpt><trkpt lat="45.6918022" lon="10.9956138"><ele>1516.0</ele><time>2026-05-01T09:40:44.363Z</time></trkpt><trkpt lat="45.6919027" lon="10.9957287"><ele>1516.0</ele><time>2026-05-01T09:40:45.363Z</time></trkpt><trkpt lat="45.6920053" lon="10.995852"><ele>1516.0</ele><time>2026-05-01T09:40:46.363Z</time></trkpt><trkpt lat="45.6920932" lon="10.9959828"><ele>1518.6</ele><time>2026-05-01T09:40:47.363Z</time></trkpt><trkpt lat="45.6921651" lon="10.996114"><ele>1521.1999999999998</ele><time>2026-05-01T09:40:48.363Z</time></trkpt><trkpt lat="45.6922292" lon="10.996245"><ele>1523.8000000000002</ele><time>2026-05-01T09:40:49.363Z</time></trkpt><trkpt lat="45.6922889" lon="10.9963712"><ele>1526.4</ele><time>2026-05-01T09:40:50.363Z</time></trkpt><trkpt lat="45.6923391" lon="10.996491"><ele>1529.0</ele><time>2026-05-01T09:40:51.362Z</time></trkpt><trkpt lat="45.6923643" lon="10.9966166"><ele>1530.4</ele><time>2026-05-01T09:40:52.362Z</time></trkpt><trkpt lat="45.6923571" lon="10.9967516"><ele>1531.8000000000002</ele><time>2026-05-01T09:40:53.363Z</time></trkpt><trkpt lat="45.6923137" lon="10.9968643"><ele>1533.1999999999998</ele><time>2026-05-01T09:40:54.363Z</time></trkpt><trkpt lat="45.6922358" lon="10.9969357"><ele>1534.6</ele><time>2026-05-01T09:40:55.363Z</time></trkpt><trkpt lat="45.6921546" lon="10.996961"><ele>1536.0</ele><time>2026-05-01T09:40:56.362Z</time></trkpt><trkpt lat="45.6920654" lon="10.9969474"><ele>1536.0</ele><time>2026-05-01T09:40:57.363Z</time></trkpt><trkpt lat="45.6919501" lon="10.9969298"><ele>1536.0</ele><time>2026-05-01T09:40:58.363Z</time></trkpt><trkpt lat="45.6918315" lon="10.9969274"><ele>1536.0</ele><time>2026-05-01T09:40:59.362Z</time></trkpt><trkpt lat="45.6917241" lon="10.9969427"><ele>1536.0</ele><time>2026-05-01T09:41:00.363Z</time></trkpt><trkpt lat="45.6916185" lon="10.9969667"><ele>1536.0</ele><time>2026-05-01T09:41:01.363Z</time></trkpt><trkpt lat="45.6915134" lon="10.9969915"><ele>1535.4</ele><time>2026-05-01T09:41:02.363Z</time></trkpt><trkpt lat="45.6914141" lon="10.9970201"><ele>1534.8</ele><time>2026-05-01T09:41:03.363Z</time></trkpt><trkpt lat="45.6913327" lon="10.997059"><ele>1534.2</ele><time>2026-05-01T09:41:04.363Z</time></trkpt><trkpt lat="45.6912554" lon="10.9971255"><ele>1533.6000000000001</ele><time>2026-05-01T09:41:05.363Z</time></trkpt><trkpt lat="45.6911934" lon="10.9972292"><ele>1533.0</ele><time>2026-05-01T09:41:06.363Z</time></trkpt><trkpt lat="45.6911623" lon="10.9973606"><ele>1535.0</ele><time>2026-05-01T09:41:07.362Z</time></trkpt><trkpt lat="45.6911549" lon="10.9975049"><ele>1537.0</ele><time>2026-05-01T09:41:08.363Z</time></trkpt><trkpt lat="45.691148" lon="10.9976524"><ele>1539.0</ele><time>2026-05-01T09:41:09.363Z</time></trkpt><trkpt lat="45.6911393" lon="10.9977952"><ele>1541.0</ele><time>2026-05-01T09:41:10.363Z</time></trkpt><trkpt lat="45.6911295" lon="10.9979372"><ele>1543.0</ele><time>2026-05-01T09:41:11.363Z</time></trkpt><trkpt lat="45.6911157" lon="10.9980713"><ele>1543.0</ele><time>2026-05-01T09:41:12.363Z</time></trkpt><trkpt lat="45.6910914" lon="10.9981996"><ele>1543.0</ele><time>2026-05-01T09:41:13.363Z</time></trkpt><trkpt lat="45.691029" lon="10.9983018"><ele>1543.0</ele><time>2026-05-01T09:41:14.363Z</time></trkpt><trkpt lat="45.6909427" lon="10.9983663"><ele>1543.0</ele><time>2026-05-01T09:41:15.363Z</time></trkpt><trkpt lat="45.6908388" lon="10.9983971"><ele>1543.0</ele><time>2026-05-01T09:41:16.363Z</time></trkpt><trkpt lat="45.6907248" lon="10.998422"><ele>1542.75</ele><time>2026-05-01T09:41:17.363Z</time></trkpt><trkpt lat="45.6906093" lon="10.9984417"><ele>1542.5</ele><time>2026-05-01T09:41:18.363Z</time></trkpt><trkpt lat="45.690497" lon="10.9984578"><ele>1542.25</ele><time>2026-05-01T09:41:19.362Z</time></trkpt><trkpt lat="45.690385" lon="10.9984577"><ele>1542.0</ele><time>2026-05-01T09:41:20.363Z</time></trkpt><trkpt lat="45.6902729" lon="10.9984349"><ele>1543.0</ele><time>2026-05-01T09:41:21.363Z</time></trkpt><trkpt lat="45.6901684" lon="10.9983776"><ele>1544.0</ele><time>2026-05-01T09:41:22.363Z</time></trkpt><trkpt lat="45.6900715" lon="10.9982931"><ele>1545.0</ele><time>2026-05-01T09:41:23.363Z</time></trkpt><trkpt lat="45.6899804" lon="10.9982165"><ele>1546.0</ele><time>2026-05-01T09:41:24.363Z</time></trkpt><trkpt lat="45.689899" lon="10.9981599"><ele>1547.0</ele><time>2026-05-01T09:41:25.363Z</time></trkpt><trkpt lat="45.6898165" lon="10.9981133"><ele>1543.6</ele><time>2026-05-01T09:41:26.363Z</time></trkpt><trkpt lat="45.6897199" lon="10.9981021"><ele>1540.1999999999998</ele><time>2026-05-01T09:41:27.363Z</time></trkpt><trkpt lat="45.6896284" lon="10.9981376"><ele>1536.8</ele><time>2026-05-01T09:41:28.363Z</time></trkpt><trkpt lat="45.6895386" lon="10.9981978"><ele>1533.4</ele><time>2026-05-01T09:41:29.363Z</time></trkpt><trkpt lat="45.6894547" lon="10.998262"><ele>1530.0</ele><time>2026-05-01T09:41:30.362Z</time></trkpt><trkpt lat="45.6893686" lon="10.9983233"><ele>1532.75</ele><time>2026-05-01T09:41:31.363Z</time></trkpt><trkpt lat="45.6892712" lon="10.998391"><ele>1535.5</ele><time>2026-05-01T09:41:32.363Z</time></trkpt><trkpt lat="45.6891682" lon="10.99846"><ele>1538.25</ele><time>2026-05-01T09:41:33.362Z</time></trkpt><trkpt lat="45.6890629" lon="10.9985303"><ele>1541.0</ele><time>2026-05-01T09:41:34.363Z</time></trkpt><trkpt lat="45.6889606" lon="10.9986032"><ele>1541.0</ele><time>2026-05-01T09:41:35.363Z</time></trkpt><trkpt lat="45.6888575" lon="10.9986783"><ele>1541.0</ele><time>2026-05-01T09:41:36.363Z</time></trkpt><trkpt lat="45.6887502" lon="10.9987523"><ele>1541.0</ele><time>2026-05-01T09:41:37.363Z</time></trkpt><trkpt lat="45.688635" lon="10.9988271"><ele>1541.0</ele><time>2026-05-01T09:41:38.363Z</time></trkpt><trkpt lat="45.688529" lon="10.9988997"><ele>1537.5</ele><time>2026-05-01T09:41:39.363Z</time></trkpt><trkpt lat="45.688425" lon="10.9989741"><ele>1534.0</ele><time>2026-05-01T09:41:40.363Z</time></trkpt><trkpt lat="45.6883408" lon="10.9990817"><ele>1530.5</ele><time>2026-05-01T09:41:41.362Z</time></trkpt><trkpt lat="45.6883024" lon="10.999228"><ele>1527.0</ele><time>2026-05-01T09:41:42.362Z</time></trkpt><trkpt lat="45.6883024" lon="10.9994"><ele>1526.6</ele><time>2026-05-01T09:41:43.363Z</time></trkpt><trkpt lat="45.6883232" lon="10.999564"><ele>1526.1999999999998</ele><time>2026-05-01T09:41:44.363Z</time></trkpt><trkpt lat="45.6883577" lon="10.9997112"><ele>1525.8</ele><time>2026-05-01T09:41:45.363Z</time></trkpt><trkpt lat="45.6884185" lon="10.999849"><ele>1525.4</ele><time>2026-05-01T09:41:46.363Z</time></trkpt><trkpt lat="45.6884971" lon="10.9999536"><ele>1525.0</ele><time>2026-05-01T09:41:47.363Z</time></trkpt><trkpt lat="45.6885819" lon="11.0000469"><ele>1529.0</ele><time>2026-05-01T09:41:48.363Z</time></trkpt><trkpt lat="45.6886667" lon="11.0001518"><ele>1533.0</ele><time>2026-05-01T09:41:49.363Z</time></trkpt><trkpt lat="45.688754" lon="11.0002554"><ele>1537.0</ele><time>2026-05-01T09:41:50.363Z</time></trkpt><trkpt lat="45.6888412" lon="11.0003525"><ele>1541.0</ele><time>2026-05-01T09:41:51.362Z</time></trkpt><trkpt lat="45.6889314" lon="11.0004408"><ele>1545.0</ele><time>2026-05-01T09:41:52.363Z</time></trkpt><trkpt lat="45.6890293" lon="11.0005189"><ele>1545.0</ele><time>2026-05-01T09:41:53.363Z</time></trkpt><trkpt lat="45.6891341" lon="11.0006007"><ele>1545.0</ele><time>2026-05-01T09:41:54.363Z</time></trkpt><trkpt lat="45.6892201" lon="11.0006936"><ele>1545.0</ele><time>2026-05-01T09:41:55.363Z</time></trkpt><trkpt lat="45.6892918" lon="11.0007967"><ele>1545.0</ele><time>2026-05-01T09:41:56.363Z</time></trkpt><trkpt lat="45.6893386" lon="11.0009126"><ele>1545.0</ele><time>2026-05-01T09:41:57.363Z</time></trkpt><trkpt lat="45.6893807" lon="11.0010206"><ele>1545.0</ele><time>2026-05-01T09:41:58.363Z</time></trkpt><trkpt lat="45.689446" lon="11.0011056"><ele>1545.0</ele><time>2026-05-01T09:41:59.363Z</time></trkpt><trkpt lat="45.6895401" lon="11.0011625"><ele>1545.0</ele><time>2026-05-01T09:42:00.363Z</time></trkpt><trkpt lat="45.6896448" lon="11.0011647"><ele>1545.0</ele><time>2026-05-01T09:42:01.363Z</time></trkpt><trkpt lat="45.6897381" lon="11.0011104"><ele>1545.0</ele><time>2026-05-01T09:42:02.363Z</time></trkpt><trkpt lat="45.689825" lon="11.0010373"><ele>1545.0</ele><time>2026-05-01T09:42:03.363Z</time></trkpt><trkpt lat="45.6899104" lon="11.0009738"><ele>1545.0</ele><time>2026-05-01T09:42:04.363Z</time></trkpt><trkpt lat="45.6900002" lon="11.0009147"><ele>1545.0</ele><time>2026-05-01T09:42:05.363Z</time></trkpt><trkpt lat="45.6900913" lon="11.0008597"><ele>1545.0</ele><time>2026-05-01T09:42:06.363Z</time></trkpt><trkpt lat="45.6901815" lon="11.0008125"><ele>1545.0</ele><time>2026-05-01T09:42:07.363Z</time></trkpt><trkpt lat="45.690273" lon="11.0007665"><ele>1546.0</ele><time>2026-05-01T09:42:08.362Z</time></trkpt><trkpt lat="45.690365" lon="11.0007202"><ele>1547.0</ele><time>2026-05-01T09:42:09.363Z</time></trkpt><trkpt lat="45.6904583" lon="11.0006795"><ele>1548.0</ele><time>2026-05-01T09:42:10.363Z</time></trkpt><trkpt lat="45.6905533" lon="11.0006396"><ele>1549.0</ele><time>2026-05-01T09:42:11.363Z</time></trkpt><trkpt lat="45.6906473" lon="11.0006023"><ele>1550.0</ele><time>2026-05-01T09:42:12.363Z</time></trkpt><trkpt lat="45.6907464" lon="11.0005627"><ele>1550.0</ele><time>2026-05-01T09:42:13.363Z</time></trkpt><trkpt lat="45.6908556" lon="11.0005196"><ele>1550.0</ele><time>2026-05-01T09:42:14.363Z</time></trkpt><trkpt lat="45.6909684" lon="11.0004775"><ele>1550.0</ele><time>2026-05-01T09:42:15.363Z</time></trkpt><trkpt lat="45.6910799" lon="11.0004485"><ele>1550.0</ele><time>2026-05-01T09:42:16.363Z</time></trkpt><trkpt lat="45.6911882" lon="11.0004528"><ele>1551.0</ele><time>2026-05-01T09:42:17.363Z</time></trkpt><trkpt lat="45.6912903" lon="11.0004876"><ele>1552.0</ele><time>2026-05-01T09:42:18.363Z</time></trkpt><trkpt lat="45.691381" lon="11.0005518"><ele>1553.0</ele><time>2026-05-01T09:42:19.363Z</time></trkpt><trkpt lat="45.6914673" lon="11.0006252"><ele>1554.0</ele><time>2026-05-01T09:42:20.363Z</time></trkpt><trkpt lat="45.6915592" lon="11.0006856"><ele>1555.0</ele><time>2026-05-01T09:42:21.363Z</time></trkpt><trkpt lat="45.6916522" lon="11.0007448"><ele>1555.0</ele><time>2026-05-01T09:42:22.363Z</time></trkpt><trkpt lat="45.6917411" lon="11.0007985"><ele>1555.0</ele><time>2026-05-01T09:42:23.362Z</time></trkpt><trkpt lat="45.6918233" lon="11.0008558"><ele>1555.0</ele><time>2026-05-01T09:42:24.363Z</time></trkpt><trkpt lat="45.691894" lon="11.0009315"><ele>1555.0</ele><time>2026-05-01T09:42:25.363Z</time></trkpt><trkpt lat="45.6919549" lon="11.0010295"><ele>1555.0</ele><time>2026-05-01T09:42:26.363Z</time></trkpt><trkpt lat="45.6920042" lon="11.0011446"><ele>1555.3333333333335</ele><time>2026-05-01T09:42:27.363Z</time></trkpt><trkpt lat="45.6920402" lon="11.0012639"><ele>1555.6666666666667</ele><time>2026-05-01T09:42:28.363Z</time></trkpt><trkpt lat="45.6920511" lon="11.0013771"><ele>1556.0</ele><time>2026-05-01T09:42:29.363Z</time></trkpt><trkpt lat="45.6920559" lon="11.0014868"><ele>1556.3333333333335</ele><time>2026-05-01T09:42:30.363Z</time></trkpt><trkpt lat="45.6920558" lon="11.0015905"><ele>1556.6666666666667</ele><time>2026-05-01T09:42:31.363Z</time></trkpt><trkpt lat="45.6920523" lon="11.001695"><ele>1557.0</ele><time>2026-05-01T09:42:32.363Z</time></trkpt><trkpt lat="45.692047" lon="11.0017999"><ele>1557.0</ele><time>2026-05-01T09:42:33.363Z</time></trkpt><trkpt lat="45.6920419" lon="11.0019069"><ele>1557.0</ele><time>2026-05-01T09:42:34.363Z</time></trkpt><trkpt lat="45.6920306" lon="11.0020167"><ele>1557.0</ele><time>2026-05-01T09:42:35.363Z</time></trkpt><trkpt lat="45.6920124" lon="11.0021345"><ele>1557.0</ele><time>2026-05-01T09:42:36.363Z</time></trkpt><trkpt lat="45.6919953" lon="11.0022472"><ele>1557.0</ele><time>2026-05-01T09:42:37.363Z</time></trkpt><trkpt lat="45.6919777" lon="11.0023586"><ele>1557.0</ele><time>2026-05-01T09:42:38.363Z</time></trkpt><trkpt lat="45.6919651" lon="11.0024595"><ele>1557.8333333333333</ele><time>2026-05-01T09:42:39.363Z</time></trkpt><trkpt lat="45.6919354" lon="11.0026123"><ele>1558.6666666666665</ele><time>2026-05-01T09:42:41.363Z</time></trkpt><trkpt lat="45.6918996" lon="11.0027198"><ele>1559.5</ele><time>2026-05-01T09:42:43.362Z</time></trkpt><trkpt lat="45.6918504" lon="11.0027968"><ele>1560.3333333333333</ele><time>2026-05-01T09:42:45.363Z</time></trkpt><trkpt lat="45.6917843" lon="11.0028551"><ele>1561.1666666666665</ele><time>2026-05-01T09:44:37.362Z</time></trkpt><trkpt lat="45.6918436" lon="11.0029462"><ele>1562.0</ele><time>2026-05-01T09:44:41.363Z</time></trkpt><trkpt lat="45.6919073" lon="11.0029121"><ele>1562.9999999999998</ele><time>2026-05-01T09:44:42.363Z</time></trkpt><trkpt lat="45.6919727" lon="11.0028464"><ele>1564.0</ele><time>2026-05-01T09:44:43.363Z</time></trkpt><trkpt lat="45.6920215" lon="11.0027874"><ele>1565.0</ele><time>2026-05-01T09:44:44.363Z</time></trkpt><trkpt lat="45.6921015" lon="11.0027066"><ele>1566.0</ele><time>2026-05-01T09:44:46.363Z</time></trkpt><trkpt lat="45.6921912" lon="11.0026396"><ele>1566.9999999999998</ele><time>2026-05-01T09:44:48.362Z</time></trkpt><trkpt lat="45.6922939" lon="11.0026061"><ele>1568.0</ele><time>2026-05-01T09:44:50.363Z</time></trkpt><trkpt lat="45.6923606" lon="11.0025943"><ele>1568.0</ele><time>2026-05-01T09:44:51.363Z</time></trkpt><trkpt lat="45.6924263" lon="11.0025861"><ele>1568.0</ele><time>2026-05-01T09:44:52.363Z</time></trkpt><trkpt lat="45.6924896" lon="11.0025864"><ele>1568.0</ele><time>2026-05-01T09:44:53.362Z</time></trkpt><trkpt lat="45.6926023" lon="11.0026108"><ele>1568.0</ele><time>2026-05-01T09:44:55.363Z</time></trkpt><trkpt lat="45.6926647" lon="11.0026249"><ele>1568.0</ele><time>2026-05-01T09:44:56.363Z</time></trkpt><trkpt lat="45.6927307" lon="11.0026415"><ele>1568.0</ele><time>2026-05-01T09:44:57.363Z</time></trkpt><trkpt lat="45.6927929" lon="11.0026686"><ele>1568.0</ele><time>2026-05-01T09:44:58.363Z</time></trkpt><trkpt lat="45.6928541" lon="11.0027036"><ele>1567.2</ele><time>2026-05-01T09:44:59.363Z</time></trkpt><trkpt lat="45.6929144" lon="11.0027425"><ele>1566.4</ele><time>2026-05-01T09:45:00.363Z</time></trkpt><trkpt lat="45.6930073" lon="11.0028449"><ele>1565.6000000000001</ele><time>2026-05-01T09:45:02.363Z</time></trkpt><trkpt lat="45.6930983" lon="11.0029789"><ele>1564.8000000000002</ele><time>2026-05-01T09:45:04.363Z</time></trkpt><trkpt lat="45.6931559" lon="11.0031314"><ele>1564.0</ele><time>2026-05-01T09:45:06.363Z</time></trkpt><trkpt lat="45.6931811" lon="11.0032884"><ele>1565.6</ele><time>2026-05-01T09:45:08.363Z</time></trkpt><trkpt lat="45.6931843" lon="11.0034242"><ele>1567.2</ele><time>2026-05-01T09:45:10.363Z</time></trkpt><trkpt lat="45.693179" lon="11.00356"><ele>1568.8</ele><time>2026-05-01T09:45:12.363Z</time></trkpt><trkpt lat="45.6931884" lon="11.0037157"><ele>1570.3999999999999</ele><time>2026-05-01T09:45:14.363Z</time></trkpt><trkpt lat="45.6931951" lon="11.0038961"><ele>1572.0</ele><time>2026-05-01T09:45:16.362Z</time></trkpt><trkpt lat="45.6931952" lon="11.0039898"><ele>1572.0</ele><time>2026-05-01T09:45:17.363Z</time></trkpt><trkpt lat="45.6931824" lon="11.0040859"><ele>1572.0</ele><time>2026-05-01T09:45:18.363Z</time></trkpt><trkpt lat="45.693172" lon="11.0041879"><ele>1572.0</ele><time>2026-05-01T09:45:19.362Z</time></trkpt><trkpt lat="45.6931771" lon="11.0043081"><ele>1572.0</ele><time>2026-05-01T09:45:20.362Z</time></trkpt><trkpt lat="45.6931891" lon="11.0044296"><ele>1572.0</ele><time>2026-05-01T09:45:21.362Z</time></trkpt><trkpt lat="45.693212" lon="11.0045464"><ele>1572.0</ele><time>2026-05-01T09:45:22.362Z</time></trkpt><trkpt lat="45.6932473" lon="11.004649"><ele>1573.1428571428573</ele><time>2026-05-01T09:45:23.362Z</time></trkpt><trkpt lat="45.6932925" lon="11.0047301"><ele>1574.2857142857142</ele><time>2026-05-01T09:45:24.361Z</time></trkpt><trkpt lat="45.6933457" lon="11.0047954"><ele>1575.4285714285716</ele><time>2026-05-01T09:45:25.362Z</time></trkpt><trkpt lat="45.6933966" lon="11.0048585"><ele>1576.5714285714287</ele><time>2026-05-01T09:45:26.361Z</time></trkpt><trkpt lat="45.693447" lon="11.0049177"><ele>1577.7142857142858</ele><time>2026-05-01T09:45:27.362Z</time></trkpt><trkpt lat="45.6935051" lon="11.0049693"><ele>1578.857142857143</ele><time>2026-05-01T09:45:28.362Z</time></trkpt><trkpt lat="45.6935698" lon="11.0050081"><ele>1580.0</ele><time>2026-05-01T09:45:29.362Z</time></trkpt><trkpt lat="45.6936406" lon="11.00504"><ele>1580.3333333333333</ele><time>2026-05-01T09:45:30.362Z</time></trkpt><trkpt lat="45.6937125" lon="11.0050798"><ele>1580.6666666666665</ele><time>2026-05-01T09:45:31.361Z</time></trkpt><trkpt lat="45.6937904" lon="11.0051135"><ele>1581.0</ele><time>2026-05-01T09:45:32.362Z</time></trkpt><trkpt lat="45.6938666" lon="11.0051393"><ele>1581.3333333333335</ele><time>2026-05-01T09:45:33.362Z</time></trkpt><trkpt lat="45.6939433" lon="11.0051587"><ele>1581.6666666666667</ele><time>2026-05-01T09:45:34.362Z</time></trkpt><trkpt lat="45.69402" lon="11.0051724"><ele>1582.0</ele><time>2026-05-01T09:45:35.362Z</time></trkpt><trkpt lat="45.6940981" lon="11.0051827"><ele>1582.0000000000002</ele><time>2026-05-01T09:45:36.362Z</time></trkpt><trkpt lat="45.6941748" lon="11.0051952"><ele>1582.0</ele><time>2026-05-01T09:45:37.362Z</time></trkpt><trkpt lat="45.6942412" lon="11.0052082"><ele>1582.0</ele><time>2026-05-01T09:45:38.361Z</time></trkpt><trkpt lat="45.694303" lon="11.0052282"><ele>1582.0</ele><time>2026-05-01T09:45:39.362Z</time></trkpt><trkpt lat="45.6944294" lon="11.0052797"><ele>1582.0000000000002</ele><time>2026-05-01T09:45:41.362Z</time></trkpt><trkpt lat="45.6944917" lon="11.0053138"><ele>1582.0</ele><time>2026-05-01T09:45:42.362Z</time></trkpt><trkpt lat="45.6945485" lon="11.0053565"><ele>1582.4285714285713</ele><time>2026-05-01T09:45:43.362Z</time></trkpt><trkpt lat="45.6946034" lon="11.0054023"><ele>1582.857142857143</ele><time>2026-05-01T09:45:44.362Z</time></trkpt><trkpt lat="45.6946539" lon="11.0054573"><ele>1583.2857142857142</ele><time>2026-05-01T09:45:45.362Z</time></trkpt><trkpt lat="45.6947023" lon="11.0055153"><ele>1583.7142857142858</ele><time>2026-05-01T09:45:46.362Z</time></trkpt><trkpt lat="45.6947536" lon="11.0055715"><ele>1584.142857142857</ele><time>2026-05-01T09:45:47.362Z</time></trkpt><trkpt lat="45.6948081" lon="11.0056222"><ele>1584.5714285714284</ele><time>2026-05-01T09:45:48.361Z</time></trkpt><trkpt lat="45.694872" lon="11.0056722"><ele>1585.0</ele><time>2026-05-01T09:45:49.362Z</time></trkpt><trkpt lat="45.6949268" lon="11.0057359"><ele>1585.0000000000002</ele><time>2026-05-01T09:45:50.362Z</time></trkpt><trkpt lat="45.6949891" lon="11.005799"><ele>1585.0</ele><time>2026-05-01T09:45:51.362Z</time></trkpt><trkpt lat="45.695053" lon="11.005862"><ele>1585.0</ele><time>2026-05-01T09:45:52.362Z</time></trkpt><trkpt lat="45.6951111" lon="11.0059386"><ele>1585.0</ele><time>2026-05-01T09:45:53.362Z</time></trkpt><trkpt lat="45.6951795" lon="11.006021"><ele>1585.0000000000002</ele><time>2026-05-01T09:45:54.362Z</time></trkpt><trkpt lat="45.695245" lon="11.0060929"><ele>1585.0</ele><time>2026-05-01T09:45:55.362Z</time></trkpt><trkpt lat="45.6953142" lon="11.0061738"><ele>1586.2</ele><time>2026-05-01T09:45:56.362Z</time></trkpt><trkpt lat="45.6953769" lon="11.0062625"><ele>1587.4</ele><time>2026-05-01T09:45:57.362Z</time></trkpt><trkpt lat="45.6954493" lon="11.0063426"><ele>1588.6</ele><time>2026-05-01T09:45:58.362Z</time></trkpt><trkpt lat="45.6955247" lon="11.0064134"><ele>1589.8</ele><time>2026-05-01T09:45:59.361Z</time></trkpt><trkpt lat="45.6955998" lon="11.0064928"><ele>1591.0</ele><time>2026-05-01T09:46:00.361Z</time></trkpt><trkpt lat="45.6956854" lon="11.0065745"><ele>1591.0</ele><time>2026-05-01T09:46:01.361Z</time></trkpt><trkpt lat="45.6957757" lon="11.0066562"><ele>1591.0</ele><time>2026-05-01T09:46:02.361Z</time></trkpt><trkpt lat="45.6958558" lon="11.0067317"><ele>1591.0</ele><time>2026-05-01T09:46:03.362Z</time></trkpt><trkpt lat="45.6959292" lon="11.0068025"><ele>1591.0</ele><time>2026-05-01T09:46:04.362Z</time></trkpt><trkpt lat="45.6959907" lon="11.0068783"><ele>1591.0</ele><time>2026-05-01T09:46:05.362Z</time></trkpt><trkpt lat="45.6960516" lon="11.0069524"><ele>1591.0</ele><time>2026-05-01T09:46:06.362Z</time></trkpt><trkpt lat="45.6961101" lon="11.0070329"><ele>1591.0</ele><time>2026-05-01T09:46:07.362Z</time></trkpt><trkpt lat="45.6961595" lon="11.0071161"><ele>1591.0</ele><time>2026-05-01T09:46:08.362Z</time></trkpt><trkpt lat="45.696206" lon="11.007203"><ele>1591.0</ele><time>2026-05-01T09:46:09.361Z</time></trkpt><trkpt lat="45.6962525" lon="11.0072899"><ele>1591.0</ele><time>2026-05-01T09:46:10.362Z</time></trkpt><trkpt lat="45.6962931" lon="11.0073787"><ele>1591.0</ele><time>2026-05-01T09:46:11.362Z</time></trkpt><trkpt lat="45.6963339" lon="11.0074478"><ele>1591.0</ele><time>2026-05-01T09:46:12.362Z</time></trkpt><trkpt lat="45.6963797" lon="11.0075444"><ele>1594.1666666666667</ele><time>2026-05-01T09:46:14.362Z</time></trkpt><trkpt lat="45.6964293" lon="11.0076104"><ele>1597.3333333333335</ele><time>2026-05-01T09:46:16.362Z</time></trkpt><trkpt lat="45.6964965" lon="11.0076832"><ele>1600.5</ele><time>2026-05-01T09:46:18.362Z</time></trkpt><trkpt lat="45.6965516" lon="11.0077745"><ele>1603.6666666666665</ele><time>2026-05-01T09:46:20.362Z</time></trkpt><trkpt lat="45.6965926" lon="11.0078738"><ele>1606.8333333333333</ele><time>2026-05-01T09:46:22.361Z</time></trkpt><trkpt lat="45.6966179" lon="11.0079685"><ele>1610.0</ele><time>2026-05-01T09:46:32.362Z</time></trkpt><trkpt lat="45.6966821" lon="11.0079024"><ele>1609.9999999999998</ele><time>2026-05-01T09:46:35.362Z</time></trkpt><trkpt lat="45.6966171" lon="11.0078314"><ele>1610.0</ele><time>2026-05-01T09:46:38.362Z</time></trkpt><trkpt lat="45.6965586" lon="11.0077865"><ele>1610.0</ele><time>2026-05-01T09:46:40.361Z</time></trkpt><trkpt lat="45.6964873" lon="11.0077346"><ele>1610.0</ele><time>2026-05-01T09:46:42.362Z</time></trkpt><trkpt lat="45.6964134" lon="11.007681"><ele>1609.9999999999998</ele><time>2026-05-01T09:46:44.362Z</time></trkpt><trkpt lat="45.6963276" lon="11.0076135"><ele>1610.0</ele><time>2026-05-01T09:46:46.362Z</time></trkpt><trkpt lat="45.6962397" lon="11.007587"><ele>1609.9999999999998</ele><time>2026-05-01T09:46:48.362Z</time></trkpt><trkpt lat="45.6961631" lon="11.0076246"><ele>1610.0</ele><time>2026-05-01T09:46:50.362Z</time></trkpt><trkpt lat="45.6961056" lon="11.0077118"><ele>1610.0</ele><time>2026-05-01T09:46:52.362Z</time></trkpt><trkpt lat="45.6961423" lon="11.0078138"><ele>1610.0</ele><time>2026-05-01T09:46:55.362Z</time></trkpt><trkpt lat="45.6961024" lon="11.0078876"><ele>1609.9999999999998</ele><time>2026-05-01T09:47:00.362Z</time></trkpt><trkpt lat="45.6959951" lon="11.0078299"><ele>1610.0</ele><time>2026-05-01T09:48:55.361Z</time></trkpt><trkpt lat="45.696055" lon="11.0078813"><ele>1609.9999999999998</ele><time>2026-05-01T11:08:12.82Z</time></trkpt><trkpt lat="45.6961349" lon="11.007851"><ele>1610.0</ele><time>2026-05-01T11:08:15.82Z</time></trkpt><trkpt lat="45.6960258" lon="11.0078036"><ele>1610.0</ele><time>2026-05-01T11:15:06.375Z</time></trkpt><trkpt lat="45.695962" lon="11.0077662"><ele>1610.0</ele><time>2026-05-01T11:15:07.376Z</time></trkpt><trkpt lat="45.6958789" lon="11.0077528"><ele>1609.9999999999998</ele><time>2026-05-01T11:15:08.376Z</time></trkpt><trkpt lat="45.6957938" lon="11.007765"><ele>1610.0</ele><time>2026-05-01T11:15:09.376Z</time></trkpt><trkpt lat="45.6957162" lon="11.007806"><ele>1610.6</ele><time>2026-05-01T11:15:10.376Z</time></trkpt><trkpt lat="45.6956403" lon="11.0078472"><ele>1611.2</ele><time>2026-05-01T11:15:11.376Z</time></trkpt><trkpt lat="45.6955499" lon="11.007877"><ele>1611.8000000000002</ele><time>2026-05-01T11:15:12.376Z</time></trkpt><trkpt lat="45.6954488" lon="11.0078985"><ele>1612.4</ele><time>2026-05-01T11:15:13.376Z</time></trkpt><trkpt lat="45.6953491" lon="11.0079081"><ele>1613.0</ele><time>2026-05-01T11:15:14.376Z</time></trkpt><trkpt lat="45.6952534" lon="11.0079136"><ele>1613.1666666666665</ele><time>2026-05-01T11:15:15.376Z</time></trkpt><trkpt lat="45.6951597" lon="11.0079166"><ele>1613.3333333333333</ele><time>2026-05-01T11:15:16.376Z</time></trkpt><trkpt lat="45.6950695" lon="11.0079231"><ele>1613.5</ele><time>2026-05-01T11:15:17.376Z</time></trkpt><trkpt lat="45.6949824" lon="11.007927"><ele>1613.6666666666665</ele><time>2026-05-01T11:15:18.376Z</time></trkpt><trkpt lat="45.6949043" lon="11.0079275"><ele>1613.8333333333333</ele><time>2026-05-01T11:15:19.376Z</time></trkpt><trkpt lat="45.6948349" lon="11.0079115"><ele>1614.0</ele><time>2026-05-01T11:15:20.376Z</time></trkpt><trkpt lat="45.6947325" lon="11.0078508"><ele>1614.0</ele><time>2026-05-01T11:15:22.376Z</time></trkpt><trkpt lat="45.6946783" lon="11.007765"><ele>1614.0</ele><time>2026-05-01T11:15:24.376Z</time></trkpt><trkpt lat="45.69465" lon="11.00765"><ele>1614.0</ele><time>2026-05-01T11:15:26.376Z</time></trkpt><trkpt lat="45.69464" lon="11.0075233"><ele>1614.0</ele><time>2026-05-01T11:15:28.376Z</time></trkpt><trkpt lat="45.6946367" lon="11.0073883"><ele>1614.0</ele><time>2026-05-01T11:15:30.376Z</time></trkpt><trkpt lat="45.6946233" lon="11.00729"><ele>1614.0</ele><time>2026-05-01T11:15:31.376Z</time></trkpt><trkpt lat="45.694605" lon="11.007175"><ele>1612.6666666666667</ele><time>2026-05-01T11:15:32.376Z</time></trkpt><trkpt lat="45.6945817" lon="11.0070683"><ele>1611.3333333333335</ele><time>2026-05-01T11:15:33.376Z</time></trkpt><trkpt lat="45.6945533" lon="11.0069633"><ele>1610.0</ele><time>2026-05-01T11:15:34.376Z</time></trkpt><trkpt lat="45.6945267" lon="11.0068567"><ele>1608.6666666666667</ele><time>2026-05-01T11:15:35.376Z</time></trkpt><trkpt lat="45.6944983" lon="11.0067433"><ele>1607.3333333333335</ele><time>2026-05-01T11:15:36.376Z</time></trkpt><trkpt lat="45.6944617" lon="11.0066367"><ele>1606.0</ele><time>2026-05-01T11:15:37.376Z</time></trkpt><trkpt lat="45.6944333" lon="11.0065383"><ele>1604.5000000000002</ele><time>2026-05-01T11:15:38.376Z</time></trkpt><trkpt lat="45.6944033" lon="11.0064417"><ele>1603.0</ele><time>2026-05-01T11:15:39.375Z</time></trkpt><trkpt lat="45.6943717" lon="11.0063517"><ele>1601.5</ele><time>2026-05-01T11:15:40.376Z</time></trkpt><trkpt lat="45.69434" lon="11.0062733"><ele>1600.0</ele><time>2026-05-01T11:15:41.376Z</time></trkpt><trkpt lat="45.6942833" lon="11.0061517"><ele>1598.5000000000002</ele><time>2026-05-01T11:15:43.375Z</time></trkpt><trkpt lat="45.6942367" lon="11.0060817"><ele>1597.0</ele><time>2026-05-01T11:15:45.376Z</time></trkpt><trkpt lat="45.6942" lon="11.0059783"><ele>1597.0</ele><time>2026-05-01T11:20:53.375Z</time></trkpt><trkpt lat="45.6941517" lon="11.00589"><ele>1597.0</ele><time>2026-05-01T11:20:55.374Z</time></trkpt><trkpt lat="45.69409" lon="11.0057867"><ele>1597.0</ele><time>2026-05-01T11:20:57.375Z</time></trkpt><trkpt lat="45.6940233" lon="11.0056783"><ele>1597.0</ele><time>2026-05-01T11:20:59.375Z</time></trkpt><trkpt lat="45.6939583" lon="11.0055617"><ele>1597.0</ele><time>2026-05-01T11:21:01.375Z</time></trkpt><trkpt lat="45.6938783" lon="11.0054517"><ele>1594.8333333333335</ele><time>2026-05-01T11:21:03.375Z</time></trkpt><trkpt lat="45.6938267" lon="11.005385"><ele>1592.6666666666667</ele><time>2026-05-01T11:21:04.374Z</time></trkpt><trkpt lat="45.6937633" lon="11.0053033"><ele>1590.5</ele><time>2026-05-01T11:21:05.374Z</time></trkpt><trkpt lat="45.6936967" lon="11.0052283"><ele>1588.3333333333335</ele><time>2026-05-01T11:21:06.374Z</time></trkpt><trkpt lat="45.6936283" lon="11.00515"><ele>1586.1666666666667</ele><time>2026-05-01T11:21:07.374Z</time></trkpt><trkpt lat="45.69356" lon="11.0050867"><ele>1584.0</ele><time>2026-05-01T11:21:08.374Z</time></trkpt><trkpt lat="45.6935017" lon="11.0050433"><ele>1584.0</ele><time>2026-05-01T11:21:09.374Z</time></trkpt><trkpt lat="45.6934467" lon="11.0049967"><ele>1584.0</ele><time>2026-05-01T11:21:10.374Z</time></trkpt><trkpt lat="45.6933967" lon="11.004935"><ele>1584.0</ele><time>2026-05-01T11:21:11.374Z</time></trkpt><trkpt lat="45.6933117" lon="11.00484"><ele>1584.0</ele><time>2026-05-01T11:21:13.374Z</time></trkpt><trkpt lat="45.6932467" lon="11.0047417"><ele>1584.0</ele><time>2026-05-01T11:21:15.373Z</time></trkpt><trkpt lat="45.693215" lon="11.00465"><ele>1584.0</ele><time>2026-05-01T11:21:17.374Z</time></trkpt><trkpt lat="45.6932133" lon="11.004555"><ele>1583.2</ele><time>2026-05-01T11:21:19.374Z</time></trkpt><trkpt lat="45.6931967" lon="11.00441"><ele>1582.4</ele><time>2026-05-01T11:21:21.374Z</time></trkpt><trkpt lat="45.6931783" lon="11.0042767"><ele>1581.6</ele><time>2026-05-01T11:21:23.374Z</time></trkpt><trkpt lat="45.693175" lon="11.0041617"><ele>1580.8</ele><time>2026-05-01T11:21:25.374Z</time></trkpt><trkpt lat="45.6931817" lon="11.0040367"><ele>1580.0</ele><time>2026-05-01T11:21:27.374Z</time></trkpt><trkpt lat="45.6931783" lon="11.0039033"><ele>1578.6666666666665</ele><time>2026-05-01T11:21:29.374Z</time></trkpt><trkpt lat="45.6931667" lon="11.0037783"><ele>1577.3333333333333</ele><time>2026-05-01T11:21:31.373Z</time></trkpt><trkpt lat="45.69317" lon="11.0036533"><ele>1576.0</ele><time>2026-05-01T11:21:33.374Z</time></trkpt><trkpt lat="45.6931733" lon="11.0035317"><ele>1574.6666666666665</ele><time>2026-05-01T11:21:35.374Z</time></trkpt><trkpt lat="45.69317" lon="11.00342"><ele>1573.3333333333333</ele><time>2026-05-01T11:21:37.374Z</time></trkpt><trkpt lat="45.6931617" lon="11.003295"><ele>1572.0</ele><time>2026-05-01T11:21:39.373Z</time></trkpt><trkpt lat="45.6931417" lon="11.00316"><ele>1570.6666666666667</ele><time>2026-05-01T11:21:41.374Z</time></trkpt><trkpt lat="45.6931133" lon="11.003035"><ele>1569.3333333333335</ele><time>2026-05-01T11:21:43.374Z</time></trkpt><trkpt lat="45.69306" lon="11.0029433"><ele>1568.0</ele><time>2026-05-01T11:21:45.374Z</time></trkpt><trkpt lat="45.69299" lon="11.0028633"><ele>1566.6666666666667</ele><time>2026-05-01T11:21:47.374Z</time></trkpt><trkpt lat="45.69292" lon="11.0028"><ele>1565.3333333333335</ele><time>2026-05-01T11:21:49.374Z</time></trkpt><trkpt lat="45.69285" lon="11.0027283"><ele>1564.0</ele><time>2026-05-01T11:21:51.374Z</time></trkpt><trkpt lat="45.6927733" lon="11.00266"><ele>1564.8000000000002</ele><time>2026-05-01T11:21:53.374Z</time></trkpt><trkpt lat="45.6926867" lon="11.0026167"><ele>1565.6000000000001</ele><time>2026-05-01T11:21:55.374Z</time></trkpt><trkpt lat="45.6926017" lon="11.0025933"><ele>1566.4</ele><time>2026-05-01T11:21:57.374Z</time></trkpt><trkpt lat="45.692505" lon="11.002575"><ele>1567.2</ele><time>2026-05-01T11:21:59.374Z</time></trkpt><trkpt lat="45.69241" lon="11.0025517"><ele>1568.0</ele><time>2026-05-01T11:22:01.374Z</time></trkpt><trkpt lat="45.6923083" lon="11.00255"><ele>1568.0</ele><time>2026-05-01T11:22:03.374Z</time></trkpt><trkpt lat="45.6922083" lon="11.00257"><ele>1568.0</ele><time>2026-05-01T11:22:05.373Z</time></trkpt><trkpt lat="45.69213" lon="11.0026367"><ele>1568.0</ele><time>2026-05-01T11:22:07.374Z</time></trkpt><trkpt lat="45.6920667" lon="11.002735"><ele>1568.0</ele><time>2026-05-01T11:22:09.373Z</time></trkpt><trkpt lat="45.6919933" lon="11.0028183"><ele>1568.0</ele><time>2026-05-01T11:22:11.373Z</time></trkpt><trkpt lat="45.691935" lon="11.0028867"><ele>1566.8000000000002</ele><time>2026-05-01T11:22:13.373Z</time></trkpt><trkpt lat="45.6918733" lon="11.0029317"><ele>1565.6</ele><time>2026-05-01T11:22:15.374Z</time></trkpt><trkpt lat="45.6917933" lon="11.0029483"><ele>1564.4</ele><time>2026-05-01T11:22:17.374Z</time></trkpt><trkpt lat="45.6917" lon="11.0029433"><ele>1563.1999999999998</ele><time>2026-05-01T11:22:19.374Z</time></trkpt><trkpt lat="45.691595" lon="11.0029083"><ele>1562.0</ele><time>2026-05-01T11:22:21.374Z</time></trkpt><trkpt lat="45.6914883" lon="11.0028567"><ele>1561.9999999999998</ele><time>2026-05-01T11:22:23.374Z</time></trkpt><trkpt lat="45.6913733" lon="11.0028"><ele>1562.0</ele><time>2026-05-01T11:22:25.374Z</time></trkpt><trkpt lat="45.6913083" lon="11.0027667"><ele>1562.0</ele><time>2026-05-01T11:22:26.374Z</time></trkpt><trkpt lat="45.691245" lon="11.0027283"><ele>1562.0</ele><time>2026-05-01T11:22:27.374Z</time></trkpt><trkpt lat="45.6911767" lon="11.0026967"><ele>1561.9999999999998</ele><time>2026-05-01T11:22:28.374Z</time></trkpt><trkpt lat="45.6911017" lon="11.00267"><ele>1562.0</ele><time>2026-05-01T11:22:29.374Z</time></trkpt><trkpt lat="45.6910267" lon="11.0026433"><ele>1560.9999999999998</ele><time>2026-05-01T11:22:30.374Z</time></trkpt><trkpt lat="45.6909467" lon="11.0026133"><ele>1560.0</ele><time>2026-05-01T11:22:31.373Z</time></trkpt><trkpt lat="45.6908667" lon="11.0025833"><ele>1559.0</ele><time>2026-05-01T11:22:32.374Z</time></trkpt><trkpt lat="45.6907817" lon="11.0025733"><ele>1558.0</ele><time>2026-05-01T11:22:33.374Z</time></trkpt><trkpt lat="45.6907017" lon="11.0025617"><ele>1556.9999999999998</ele><time>2026-05-01T11:22:34.374Z</time></trkpt><trkpt lat="45.6906267" lon="11.0025567"><ele>1556.0</ele><time>2026-05-01T11:22:35.374Z</time></trkpt><trkpt lat="45.6905467" lon="11.00256"><ele>1555.9999999999998</ele><time>2026-05-01T11:22:36.374Z</time></trkpt><trkpt lat="45.6904683" lon="11.0025883"><ele>1556.0</ele><time>2026-05-01T11:22:37.374Z</time></trkpt><trkpt lat="45.69039" lon="11.002625"><ele>1556.0</ele><time>2026-05-01T11:22:38.374Z</time></trkpt><trkpt lat="45.6903133" lon="11.00267"><ele>1556.0</ele><time>2026-05-01T11:22:39.374Z</time></trkpt><trkpt lat="45.6902383" lon="11.0027233"><ele>1555.9999999999998</ele><time>2026-05-01T11:22:40.374Z</time></trkpt><trkpt lat="45.6901667" lon="11.00278"><ele>1556.0</ele><time>2026-05-01T11:22:41.373Z</time></trkpt><trkpt lat="45.6900967" lon="11.0028383"><ele>1554.7142857142858</ele><time>2026-05-01T11:22:42.374Z</time></trkpt><trkpt lat="45.6900317" lon="11.0028933"><ele>1553.4285714285713</ele><time>2026-05-01T11:22:43.374Z</time></trkpt><trkpt lat="45.6899683" lon="11.0029417"><ele>1552.142857142857</ele><time>2026-05-01T11:22:44.374Z</time></trkpt><trkpt lat="45.6899067" lon="11.0029933"><ele>1550.857142857143</ele><time>2026-05-01T11:22:45.374Z</time></trkpt><trkpt lat="45.6898467" lon="11.0030383"><ele>1549.5714285714284</ele><time>2026-05-01T11:22:46.374Z</time></trkpt><trkpt lat="45.68978" lon="11.0030833"><ele>1548.2857142857142</ele><time>2026-05-01T11:22:47.374Z</time></trkpt><trkpt lat="45.6897167" lon="11.0031333"><ele>1547.0</ele><time>2026-05-01T11:22:48.374Z</time></trkpt><trkpt lat="45.6896567" lon="11.0031817"><ele>1547.0</ele><time>2026-05-01T11:22:49.374Z</time></trkpt><trkpt lat="45.6895967" lon="11.0032317"><ele>1547.0</ele><time>2026-05-01T11:22:50.374Z</time></trkpt><trkpt lat="45.68954" lon="11.00329"><ele>1547.0</ele><time>2026-05-01T11:22:51.374Z</time></trkpt><trkpt lat="45.68948" lon="11.003345"><ele>1547.0</ele><time>2026-05-01T11:22:52.374Z</time></trkpt><trkpt lat="45.68942" lon="11.0034017"><ele>1547.0</ele><time>2026-05-01T11:22:53.374Z</time></trkpt><trkpt lat="45.689365" lon="11.00346"><ele>1547.0</ele><time>2026-05-01T11:22:54.374Z</time></trkpt><trkpt lat="45.6893067" lon="11.0035217"><ele>1547.0</ele><time>2026-05-01T11:22:55.374Z</time></trkpt><trkpt lat="45.6892533" lon="11.00358"><ele>1546.4285714285713</ele><time>2026-05-01T11:22:56.373Z</time></trkpt><trkpt lat="45.689205" lon="11.0036533"><ele>1545.857142857143</ele><time>2026-05-01T11:22:57.374Z</time></trkpt><trkpt lat="45.6891633" lon="11.003735"><ele>1545.2857142857142</ele><time>2026-05-01T11:22:58.374Z</time></trkpt><trkpt lat="45.68912" lon="11.0038183"><ele>1544.7142857142858</ele><time>2026-05-01T11:22:59.374Z</time></trkpt><trkpt lat="45.6890783" lon="11.0039067"><ele>1544.142857142857</ele><time>2026-05-01T11:23:00.374Z</time></trkpt><trkpt lat="45.6890383" lon="11.004"><ele>1543.5714285714284</ele><time>2026-05-01T11:23:01.374Z</time></trkpt><trkpt lat="45.688995" lon="11.0040883"><ele>1543.0</ele><time>2026-05-01T11:23:02.374Z</time></trkpt><trkpt lat="45.68895" lon="11.0041767"><ele>1543.0000000000002</ele><time>2026-05-01T11:23:03.374Z</time></trkpt><trkpt lat="45.6889" lon="11.0042567"><ele>1543.0</ele><time>2026-05-01T11:23:04.374Z</time></trkpt><trkpt lat="45.6888467" lon="11.0043317"><ele>1543.0</ele><time>2026-05-01T11:23:05.374Z</time></trkpt><trkpt lat="45.68879" lon="11.0044067"><ele>1543.0</ele><time>2026-05-01T11:23:06.374Z</time></trkpt><trkpt lat="45.6887317" lon="11.00449"><ele>1543.0000000000002</ele><time>2026-05-01T11:23:07.374Z</time></trkpt><trkpt lat="45.68867" lon="11.0045683"><ele>1543.0</ele><time>2026-05-01T11:23:08.373Z</time></trkpt><trkpt lat="45.68861" lon="11.0046433"><ele>1540.3333333333335</ele><time>2026-05-01T11:23:09.373Z</time></trkpt><trkpt lat="45.688545" lon="11.0047083"><ele>1537.6666666666667</ele><time>2026-05-01T11:23:10.374Z</time></trkpt><trkpt lat="45.6884817" lon="11.00476"><ele>1535.0</ele><time>2026-05-01T11:23:11.374Z</time></trkpt><trkpt lat="45.68841" lon="11.00481"><ele>1532.3333333333335</ele><time>2026-05-01T11:23:12.374Z</time></trkpt><trkpt lat="45.6883433" lon="11.004855"><ele>1529.6666666666667</ele><time>2026-05-01T11:23:13.374Z</time></trkpt><trkpt lat="45.688275" lon="11.0049"><ele>1527.0</ele><time>2026-05-01T11:23:14.374Z</time></trkpt><trkpt lat="45.68821" lon="11.0049467"><ele>1527.0</ele><time>2026-05-01T11:23:15.374Z</time></trkpt><trkpt lat="45.6881433" lon="11.0049883"><ele>1527.0</ele><time>2026-05-01T11:23:16.373Z</time></trkpt><trkpt lat="45.6880717" lon="11.0050317"><ele>1527.0</ele><time>2026-05-01T11:23:17.374Z</time></trkpt><trkpt lat="45.688005" lon="11.0050733"><ele>1527.0</ele><time>2026-05-01T11:23:18.374Z</time></trkpt><trkpt lat="45.6879317" lon="11.0051133"><ele>1527.0</ele><time>2026-05-01T11:23:19.374Z</time></trkpt><trkpt lat="45.6878633" lon="11.0051483"><ele>1527.0</ele><time>2026-05-01T11:23:20.374Z</time></trkpt><trkpt lat="45.6877917" lon="11.0051767"><ele>1527.0</ele><time>2026-05-01T11:23:21.373Z</time></trkpt><trkpt lat="45.6877233" lon="11.0051967"><ele>1526.857142857143</ele><time>2026-05-01T11:23:22.374Z</time></trkpt><trkpt lat="45.6876517" lon="11.0052033"><ele>1526.7142857142858</ele><time>2026-05-01T11:23:23.374Z</time></trkpt><trkpt lat="45.6875833" lon="11.0052083"><ele>1526.5714285714284</ele><time>2026-05-01T11:23:24.374Z</time></trkpt><trkpt lat="45.6875133" lon="11.005205"><ele>1526.4285714285716</ele><time>2026-05-01T11:23:25.374Z</time></trkpt><trkpt lat="45.6874417" lon="11.0051833"><ele>1526.2857142857142</ele><time>2026-05-01T11:23:26.374Z</time></trkpt><trkpt lat="45.6873667" lon="11.005155"><ele>1526.142857142857</ele><time>2026-05-01T11:23:27.374Z</time></trkpt><trkpt lat="45.6872967" lon="11.00511"><ele>1526.0</ele><time>2026-05-01T11:23:28.374Z</time></trkpt><trkpt lat="45.6872333" lon="11.0050567"><ele>1526.0</ele><time>2026-05-01T11:23:29.374Z</time></trkpt><trkpt lat="45.6871733" lon="11.005"><ele>1526.0</ele><time>2026-05-01T11:23:30.373Z</time></trkpt><trkpt lat="45.6871117" lon="11.004935"><ele>1526.0</ele><time>2026-05-01T11:23:31.374Z</time></trkpt><trkpt lat="45.6869767" lon="11.0047933"><ele>1526.0</ele><time>2026-05-01T11:23:33.374Z</time></trkpt><trkpt lat="45.6869067" lon="11.0047167"><ele>1526.0</ele><time>2026-05-01T11:23:34.374Z</time></trkpt><trkpt lat="45.6868383" lon="11.00464"><ele>1524.8</ele><time>2026-05-01T11:23:35.374Z</time></trkpt><trkpt lat="45.68677" lon="11.00456"><ele>1523.6</ele><time>2026-05-01T11:23:36.374Z</time></trkpt><trkpt lat="45.6866983" lon="11.0044767"><ele>1522.4</ele><time>2026-05-01T11:23:37.374Z</time></trkpt><trkpt lat="45.6866283" lon="11.0043883"><ele>1521.2</ele><time>2026-05-01T11:23:38.374Z</time></trkpt><trkpt lat="45.68656" lon="11.0043017"><ele>1520.0</ele><time>2026-05-01T11:23:39.374Z</time></trkpt><trkpt lat="45.68649" lon="11.0042133"><ele>1519.4</ele><time>2026-05-01T11:23:40.374Z</time></trkpt><trkpt lat="45.68642" lon="11.004125"><ele>1518.8</ele><time>2026-05-01T11:23:41.374Z</time></trkpt><trkpt lat="45.686335" lon="11.0040567"><ele>1518.1999999999998</ele><time>2026-05-01T11:23:42.373Z</time></trkpt><trkpt lat="45.6862483" lon="11.004015"><ele>1517.6</ele><time>2026-05-01T11:23:43.374Z</time></trkpt><trkpt lat="45.68616" lon="11.0039783"><ele>1517.0</ele><time>2026-05-01T11:23:44.374Z</time></trkpt><trkpt lat="45.6860717" lon="11.0039617"><ele>1519.0</ele><time>2026-05-01T11:23:45.374Z</time></trkpt><trkpt lat="45.6859867" lon="11.0039667"><ele>1521.0</ele><time>2026-05-01T11:23:46.374Z</time></trkpt><trkpt lat="45.6859017" lon="11.0039767"><ele>1523.0</ele><time>2026-05-01T11:23:47.373Z</time></trkpt><trkpt lat="45.6858117" lon="11.004005"><ele>1525.0</ele><time>2026-05-01T11:23:48.373Z</time></trkpt><trkpt lat="45.68573" lon="11.00404"><ele>1527.0</ele><time>2026-05-01T11:23:49.373Z</time></trkpt><trkpt lat="45.685645" lon="11.00407"><ele>1529.0</ele><time>2026-05-01T11:23:50.374Z</time></trkpt><trkpt lat="45.6855633" lon="11.0041067"><ele>1529.0</ele><time>2026-05-01T11:23:51.374Z</time></trkpt><trkpt lat="45.6854833" lon="11.004145"><ele>1529.0</ele><time>2026-05-01T11:23:52.374Z</time></trkpt><trkpt lat="45.6854033" lon="11.004185"><ele>1529.0</ele><time>2026-05-01T11:23:53.374Z</time></trkpt><trkpt lat="45.6853233" lon="11.004225"><ele>1529.0</ele><time>2026-05-01T11:23:54.374Z</time></trkpt><trkpt lat="45.685245" lon="11.0042617"><ele>1529.0</ele><time>2026-05-01T11:23:55.374Z</time></trkpt><trkpt lat="45.68517" lon="11.0043033"><ele>1529.0</ele><time>2026-05-01T11:23:56.374Z</time></trkpt><trkpt lat="45.6850967" lon="11.0043467"><ele>1527.3333333333335</ele><time>2026-05-01T11:23:57.374Z</time></trkpt><trkpt lat="45.685025" lon="11.0043833"><ele>1525.6666666666667</ele><time>2026-05-01T11:23:58.373Z</time></trkpt><trkpt lat="45.6849483" lon="11.0044117"><ele>1524.0</ele><time>2026-05-01T11:23:59.374Z</time></trkpt><trkpt lat="45.6848683" lon="11.004415"><ele>1522.3333333333333</ele><time>2026-05-01T11:24:00.374Z</time></trkpt><trkpt lat="45.6847883" lon="11.0044167"><ele>1520.6666666666665</ele><time>2026-05-01T11:24:01.374Z</time></trkpt><trkpt lat="45.6847117" lon="11.004405"><ele>1519.0</ele><time>2026-05-01T11:24:02.374Z</time></trkpt><trkpt lat="45.6845667" lon="11.0043533"><ele>1519.0</ele><time>2026-05-01T11:24:04.374Z</time></trkpt><trkpt lat="45.6844983" lon="11.00433"><ele>1519.0</ele><time>2026-05-01T11:24:05.374Z</time></trkpt><trkpt lat="45.6844283" lon="11.0043117"><ele>1519.0</ele><time>2026-05-01T11:24:06.374Z</time></trkpt><trkpt lat="45.6843583" lon="11.004305"><ele>1519.0</ele><time>2026-05-01T11:24:07.374Z</time></trkpt><trkpt lat="45.6842883" lon="11.004305"><ele>1519.0</ele><time>2026-05-01T11:24:08.374Z</time></trkpt><trkpt lat="45.68422" lon="11.0042983"><ele>1519.0</ele><time>2026-05-01T11:24:09.374Z</time></trkpt><trkpt lat="45.68415" lon="11.00429"><ele>1519.0</ele><time>2026-05-01T11:24:10.373Z</time></trkpt><trkpt lat="45.6840817" lon="11.0042783"><ele>1518.4285714285713</ele><time>2026-05-01T11:24:11.374Z</time></trkpt><trkpt lat="45.6840117" lon="11.0042683"><ele>1517.857142857143</ele><time>2026-05-01T11:24:12.374Z</time></trkpt><trkpt lat="45.683945" lon="11.00426"><ele>1517.2857142857142</ele><time>2026-05-01T11:24:13.373Z</time></trkpt><trkpt lat="45.68388" lon="11.00426"><ele>1516.7142857142858</ele><time>2026-05-01T11:24:14.373Z</time></trkpt><trkpt lat="45.6838117" lon="11.004275"><ele>1516.142857142857</ele><time>2026-05-01T11:24:15.373Z</time></trkpt><trkpt lat="45.6837517" lon="11.00431"><ele>1515.5714285714284</ele><time>2026-05-01T11:24:16.374Z</time></trkpt><trkpt lat="45.6836967" lon="11.0043633"><ele>1515.0</ele><time>2026-05-01T11:24:17.374Z</time></trkpt><trkpt lat="45.6836483" lon="11.0044267"><ele>1515.0</ele><time>2026-05-01T11:24:18.374Z</time></trkpt><trkpt lat="45.6835983" lon="11.0044917"><ele>1515.0</ele><time>2026-05-01T11:24:19.374Z</time></trkpt><trkpt lat="45.6835467" lon="11.0045483"><ele>1515.0</ele><time>2026-05-01T11:24:20.374Z</time></trkpt><trkpt lat="45.6834767" lon="11.00461"><ele>1515.0</ele><time>2026-05-01T11:24:21.374Z</time></trkpt><trkpt lat="45.6833867" lon="11.00469"><ele>1515.0</ele><time>2026-05-01T11:24:22.374Z</time></trkpt><trkpt lat="45.6832983" lon="11.0047867"><ele>1515.0</ele><time>2026-05-01T11:24:23.374Z</time></trkpt><trkpt lat="45.6832183" lon="11.0048933"><ele>1516.8</ele><time>2026-05-01T11:24:24.374Z</time></trkpt><trkpt lat="45.6831433" lon="11.004985"><ele>1518.6</ele><time>2026-05-01T11:24:25.374Z</time></trkpt><trkpt lat="45.683065" lon="11.00507"><ele>1520.4</ele><time>2026-05-01T11:24:26.374Z</time></trkpt><trkpt lat="45.682985" lon="11.0051483"><ele>1522.2</ele><time>2026-05-01T11:24:27.374Z</time></trkpt><trkpt lat="45.6829083" lon="11.0052133"><ele>1524.0</ele><time>2026-05-01T11:24:28.374Z</time></trkpt><trkpt lat="45.682835" lon="11.0052833"><ele>1523.1666666666667</ele><time>2026-05-01T11:24:29.374Z</time></trkpt><trkpt lat="45.6827683" lon="11.00535"><ele>1522.3333333333333</ele><time>2026-05-01T11:24:30.373Z</time></trkpt><trkpt lat="45.6826917" lon="11.0054183"><ele>1521.5</ele><time>2026-05-01T11:24:31.374Z</time></trkpt><trkpt lat="45.68262" lon="11.0054733"><ele>1520.6666666666665</ele><time>2026-05-01T11:24:32.374Z</time></trkpt><trkpt lat="45.6825467" lon="11.0055267"><ele>1519.8333333333333</ele><time>2026-05-01T11:24:33.374Z</time></trkpt><trkpt lat="45.682475" lon="11.0055817"><ele>1519.0</ele><time>2026-05-01T11:24:34.374Z</time></trkpt><trkpt lat="45.6823933" lon="11.005645"><ele>1519.0</ele><time>2026-05-01T11:24:35.374Z</time></trkpt><trkpt lat="45.6822817" lon="11.0057133"><ele>1519.0</ele><time>2026-05-01T11:24:36.374Z</time></trkpt><trkpt lat="45.6821583" lon="11.0057817"><ele>1519.0</ele><time>2026-05-01T11:24:37.374Z</time></trkpt><trkpt lat="45.6820433" lon="11.00584"><ele>1519.0</ele><time>2026-05-01T11:24:38.374Z</time></trkpt><trkpt lat="45.6819417" lon="11.005895"><ele>1516.6666666666665</ele><time>2026-05-01T11:24:39.374Z</time></trkpt><trkpt lat="45.6818483" lon="11.00595"><ele>1514.3333333333333</ele><time>2026-05-01T11:24:40.374Z</time></trkpt><trkpt lat="45.681765" lon="11.0059867"><ele>1512.0</ele><time>2026-05-01T11:24:41.374Z</time></trkpt><trkpt lat="45.6816917" lon="11.0060183"><ele>1509.6666666666667</ele><time>2026-05-01T11:24:42.373Z</time></trkpt><trkpt lat="45.6816317" lon="11.00605"><ele>1507.3333333333335</ele><time>2026-05-01T11:24:43.374Z</time></trkpt><trkpt lat="45.68156" lon="11.0061133"><ele>1505.0</ele><time>2026-05-01T11:24:45.374Z</time></trkpt><trkpt lat="45.6815983" lon="11.006185"><ele>1505.0</ele><time>2026-05-01T11:24:48.374Z</time></trkpt><trkpt lat="45.6816617" lon="11.0061567"><ele>1505.0</ele><time>2026-05-01T11:24:50.373Z</time></trkpt><trkpt lat="45.6817233" lon="11.0061283"><ele>1505.0</ele><time>2026-05-01T11:24:51.374Z</time></trkpt><trkpt lat="45.6818067" lon="11.0060983"><ele>1505.0</ele><time>2026-05-01T11:24:52.374Z</time></trkpt><trkpt lat="45.6819233" lon="11.00606"><ele>1505.0</ele><time>2026-05-01T11:24:53.374Z</time></trkpt><trkpt lat="45.6820483" lon="11.006015"><ele>1503.25</ele><time>2026-05-01T11:24:54.374Z</time></trkpt><trkpt lat="45.6821717" lon="11.0059767"><ele>1501.5</ele><time>2026-05-01T11:24:55.374Z</time></trkpt><trkpt lat="45.6822883" lon="11.0059533"><ele>1499.75</ele><time>2026-05-01T11:24:56.374Z</time></trkpt><trkpt lat="45.6824" lon="11.0059283"><ele>1498.0</ele><time>2026-05-01T11:24:57.373Z</time></trkpt><trkpt lat="45.682515" lon="11.005885"><ele>1499.25</ele><time>2026-05-01T11:24:58.374Z</time></trkpt><trkpt lat="45.68263" lon="11.00582"><ele>1500.5</ele><time>2026-05-01T11:24:59.373Z</time></trkpt><trkpt lat="45.6827567" lon="11.0057417"><ele>1501.75</ele><time>2026-05-01T11:25:00.374Z</time></trkpt><trkpt lat="45.6828817" lon="11.0056617"><ele>1503.0</ele><time>2026-05-01T11:25:01.374Z</time></trkpt><trkpt lat="45.683005" lon="11.0055817"><ele>1503.0</ele><time>2026-05-01T11:25:02.374Z</time></trkpt><trkpt lat="45.683145" lon="11.0055"><ele>1503.0</ele><time>2026-05-01T11:25:03.374Z</time></trkpt><trkpt lat="45.6832917" lon="11.005385"><ele>1503.0</ele><time>2026-05-01T11:25:04.374Z</time></trkpt><trkpt lat="45.6834317" lon="11.0052583"><ele>1503.0</ele><time>2026-05-01T11:25:05.373Z</time></trkpt><trkpt lat="45.68355" lon="11.0051383"><ele>1503.0</ele><time>2026-05-01T11:25:06.374Z</time></trkpt><trkpt lat="45.6836467" lon="11.0050383"><ele>1503.0</ele><time>2026-05-01T11:25:07.374Z</time></trkpt><trkpt lat="45.6837417" lon="11.0049683"><ele>1503.0</ele><time>2026-05-01T11:25:08.373Z</time></trkpt><trkpt lat="45.68383" lon="11.0049267"><ele>1502.6666666666667</ele><time>2026-05-01T11:25:09.373Z</time></trkpt><trkpt lat="45.68392" lon="11.0049017"><ele>1502.3333333333333</ele><time>2026-05-01T11:25:10.373Z</time></trkpt><trkpt lat="45.6840117" lon="11.004905"><ele>1502.0</ele><time>2026-05-01T11:25:11.373Z</time></trkpt><trkpt lat="45.684105" lon="11.0049217"><ele>1501.6666666666665</ele><time>2026-05-01T11:25:12.374Z</time></trkpt><trkpt lat="45.6841883" lon="11.0049667"><ele>1501.3333333333333</ele><time>2026-05-01T11:25:13.374Z</time></trkpt><trkpt lat="45.6842533" lon="11.0050317"><ele>1501.0</ele><time>2026-05-01T11:25:14.374Z</time></trkpt><trkpt lat="45.68431" lon="11.00512"><ele>1501.0</ele><time>2026-05-01T11:25:15.374Z</time></trkpt><trkpt lat="45.6843517" lon="11.0052267"><ele>1501.0</ele><time>2026-05-01T11:25:16.374Z</time></trkpt><trkpt lat="45.6843867" lon="11.00535"><ele>1501.0</ele><time>2026-05-01T11:25:17.373Z</time></trkpt><trkpt lat="45.6844083" lon="11.0054867"><ele>1501.0</ele><time>2026-05-01T11:25:18.374Z</time></trkpt><trkpt lat="45.684425" lon="11.005625"><ele>1501.0</ele><time>2026-05-01T11:25:19.374Z</time></trkpt><trkpt lat="45.684435" lon="11.0057683"><ele>1500.4</ele><time>2026-05-01T11:25:20.374Z</time></trkpt><trkpt lat="45.684445" lon="11.0059117"><ele>1499.8</ele><time>2026-05-01T11:25:21.374Z</time></trkpt><trkpt lat="45.684455" lon="11.0060583"><ele>1499.2</ele><time>2026-05-01T11:25:22.374Z</time></trkpt><trkpt lat="45.6844667" lon="11.006195"><ele>1498.6000000000001</ele><time>2026-05-01T11:25:23.374Z</time></trkpt><trkpt lat="45.6844683" lon="11.00632"><ele>1498.0</ele><time>2026-05-01T11:25:24.374Z</time></trkpt><trkpt lat="45.68446" lon="11.00642"><ele>1498.0</ele><time>2026-05-01T11:25:25.373Z</time></trkpt><trkpt lat="45.684435" lon="11.00652"><ele>1498.0</ele><time>2026-05-01T11:25:26.374Z</time></trkpt><trkpt lat="45.6843883" lon="11.0066267"><ele>1498.0</ele><time>2026-05-01T11:25:27.374Z</time></trkpt><trkpt lat="45.6843317" lon="11.0067483"><ele>1498.0</ele><time>2026-05-01T11:25:28.374Z</time></trkpt><trkpt lat="45.6842667" lon="11.00687"><ele>1498.0</ele><time>2026-05-01T11:25:29.374Z</time></trkpt><trkpt lat="45.68419" lon="11.00702"><ele>1496.5</ele><time>2026-05-01T11:25:30.374Z</time></trkpt><trkpt lat="45.6841233" lon="11.0071583"><ele>1495.0</ele><time>2026-05-01T11:25:31.373Z</time></trkpt><trkpt lat="45.6840517" lon="11.0073"><ele>1493.5</ele><time>2026-05-01T11:25:32.373Z</time></trkpt><trkpt lat="45.6839817" lon="11.007425"><ele>1492.0</ele><time>2026-05-01T11:25:33.373Z</time></trkpt><trkpt lat="45.683915" lon="11.0075383"><ele>1491.6666666666665</ele><time>2026-05-01T11:25:34.373Z</time></trkpt><trkpt lat="45.683855" lon="11.0076267"><ele>1491.3333333333333</ele><time>2026-05-01T11:25:35.373Z</time></trkpt><trkpt lat="45.6838" lon="11.0076933"><ele>1491.0</ele><time>2026-05-01T11:25:36.373Z</time></trkpt><trkpt lat="45.6837517" lon="11.0077617"><ele>1490.6666666666667</ele><time>2026-05-01T11:25:37.373Z</time></trkpt><trkpt lat="45.6836867" lon="11.0078167"><ele>1490.3333333333335</ele><time>2026-05-01T11:25:39.373Z</time></trkpt><trkpt lat="45.68377" lon="11.0077533"><ele>1490.0</ele><time>2026-05-01T11:27:57.373Z</time></trkpt><trkpt lat="45.683815" lon="11.007665"><ele>1490.0</ele><time>2026-05-01T11:27:58.373Z</time></trkpt><trkpt lat="45.6838783" lon="11.0075733"><ele>1490.0</ele><time>2026-05-01T11:27:59.373Z</time></trkpt><trkpt lat="45.6839483" lon="11.007455"><ele>1490.0</ele><time>2026-05-01T11:28:00.373Z</time></trkpt><trkpt lat="45.684035" lon="11.0073"><ele>1490.0</ele><time>2026-05-01T11:28:01.373Z</time></trkpt><trkpt lat="45.6841333" lon="11.0070967"><ele>1490.6666666666667</ele><time>2026-05-01T11:28:02.373Z</time></trkpt><trkpt lat="45.6842383" lon="11.006895"><ele>1491.3333333333333</ele><time>2026-05-01T11:28:03.373Z</time></trkpt><trkpt lat="45.6843283" lon="11.0067217"><ele>1492.0</ele><time>2026-05-01T11:28:04.372Z</time></trkpt><trkpt lat="45.6843983" lon="11.0065733"><ele>1493.1999999999998</ele><time>2026-05-01T11:28:05.373Z</time></trkpt><trkpt lat="45.6844383" lon="11.0064383"><ele>1494.4</ele><time>2026-05-01T11:28:06.373Z</time></trkpt><trkpt lat="45.6844567" lon="11.00631"><ele>1495.6</ele><time>2026-05-01T11:28:07.373Z</time></trkpt><trkpt lat="45.6844517" lon="11.0061717"><ele>1496.8000000000002</ele><time>2026-05-01T11:28:08.372Z</time></trkpt><trkpt lat="45.684435" lon="11.005985"><ele>1498.0</ele><time>2026-05-01T11:28:09.372Z</time></trkpt><trkpt lat="45.6844167" lon="11.005765"><ele>1498.75</ele><time>2026-05-01T11:28:10.373Z</time></trkpt><trkpt lat="45.6843933" lon="11.0055617"><ele>1499.5</ele><time>2026-05-01T11:28:11.373Z</time></trkpt><trkpt lat="45.6843717" lon="11.0053783"><ele>1500.25</ele><time>2026-05-01T11:28:12.373Z</time></trkpt><trkpt lat="45.6843483" lon="11.0052167"><ele>1501.0</ele><time>2026-05-01T11:28:13.373Z</time></trkpt><trkpt lat="45.68431" lon="11.0050967"><ele>1501.0</ele><time>2026-05-01T11:28:14.372Z</time></trkpt><trkpt lat="45.6842583" lon="11.0049967"><ele>1501.0</ele><time>2026-05-01T11:28:15.373Z</time></trkpt><trkpt lat="45.6841783" lon="11.004925"><ele>1501.0</ele><time>2026-05-01T11:28:16.373Z</time></trkpt><trkpt lat="45.6840833" lon="11.0048883"><ele>1501.0</ele><time>2026-05-01T11:28:17.373Z</time></trkpt><trkpt lat="45.6839817" lon="11.0048733"><ele>1501.0</ele><time>2026-05-01T11:28:18.372Z</time></trkpt><trkpt lat="45.683875" lon="11.0048883"><ele>1501.0</ele><time>2026-05-01T11:28:19.373Z</time></trkpt><trkpt lat="45.6837683" lon="11.0049283"><ele>1501.0</ele><time>2026-05-01T11:28:20.373Z</time></trkpt><trkpt lat="45.683665" lon="11.005"><ele>1501.0</ele><time>2026-05-01T11:28:21.373Z</time></trkpt><trkpt lat="45.68355" lon="11.005105"><ele>1501.0</ele><time>2026-05-01T11:28:22.372Z</time></trkpt><trkpt lat="45.6834167" lon="11.0052383"><ele>1501.5</ele><time>2026-05-01T11:28:23.373Z</time></trkpt><trkpt lat="45.6833" lon="11.00535"><ele>1502.0</ele><time>2026-05-01T11:28:24.373Z</time></trkpt><trkpt lat="45.683185" lon="11.0054483"><ele>1502.5</ele><time>2026-05-01T11:28:25.373Z</time></trkpt><trkpt lat="45.6830633" lon="11.0055367"><ele>1503.0</ele><time>2026-05-01T11:28:26.373Z</time></trkpt><trkpt lat="45.6829217" lon="11.0056333"><ele>1503.0</ele><time>2026-05-01T11:28:27.373Z</time></trkpt><trkpt lat="45.682775" lon="11.00572"><ele>1503.0</ele><time>2026-05-01T11:28:28.372Z</time></trkpt><trkpt lat="45.6826383" lon="11.0058"><ele>1503.0</ele><time>2026-05-01T11:28:29.373Z</time></trkpt><trkpt lat="45.6825017" lon="11.0058683"><ele>1501.75</ele><time>2026-05-01T11:28:30.373Z</time></trkpt><trkpt lat="45.6823667" lon="11.0059233"><ele>1500.5</ele><time>2026-05-01T11:28:31.373Z</time></trkpt><trkpt lat="45.6822317" lon="11.005955"><ele>1499.25</ele><time>2026-05-01T11:28:32.373Z</time></trkpt><trkpt lat="45.6821033" lon="11.0059833"><ele>1498.0</ele><time>2026-05-01T11:28:33.373Z</time></trkpt><trkpt lat="45.68197" lon="11.006025"><ele>1499.4</ele><time>2026-05-01T11:28:34.373Z</time></trkpt><trkpt lat="45.6818483" lon="11.0060633"><ele>1500.8000000000002</ele><time>2026-05-01T11:28:35.373Z</time></trkpt><trkpt lat="45.68174" lon="11.0061067"><ele>1502.2</ele><time>2026-05-01T11:28:36.373Z</time></trkpt><trkpt lat="45.6816583" lon="11.0061383"><ele>1503.6</ele><time>2026-05-01T11:28:37.373Z</time></trkpt><trkpt lat="45.6815967" lon="11.00616"><ele>1505.0</ele><time>2026-05-01T11:28:38.373Z</time></trkpt><trkpt lat="45.6815267" lon="11.0061833"><ele>1505.0</ele><time>2026-05-01T11:28:40.372Z</time></trkpt><trkpt lat="45.681445" lon="11.006205"><ele>1505.0</ele><time>2026-05-01T11:28:42.373Z</time></trkpt><trkpt lat="45.681375" lon="11.0062583"><ele>1505.0</ele><time>2026-05-01T11:28:44.373Z</time></trkpt><trkpt lat="45.6813183" lon="11.0063233"><ele>1505.0</ele><time>2026-05-01T11:28:57.373Z</time></trkpt><trkpt lat="45.6812567" lon="11.00639"><ele>1505.0</ele><time>2026-05-01T11:28:58.372Z</time></trkpt><trkpt lat="45.6811833" lon="11.0064583"><ele>1505.0</ele><time>2026-05-01T11:28:59.373Z</time></trkpt><trkpt lat="45.6811083" lon="11.0065233"><ele>1505.0</ele><time>2026-05-01T11:29:00.373Z</time></trkpt><trkpt lat="45.681025" lon="11.006575"><ele>1505.0</ele><time>2026-05-01T11:29:01.372Z</time></trkpt><trkpt lat="45.6809433" lon="11.006615"><ele>1505.0</ele><time>2026-05-01T11:29:02.373Z</time></trkpt><trkpt lat="45.6808567" lon="11.0066333"><ele>1505.0</ele><time>2026-05-01T11:29:03.373Z</time></trkpt><trkpt lat="45.6807683" lon="11.0066233"><ele>1505.0</ele><time>2026-05-01T11:29:04.373Z</time></trkpt><trkpt lat="45.68069" lon="11.00658"><ele>1505.0</ele><time>2026-05-01T11:29:05.372Z</time></trkpt><trkpt lat="45.680625" lon="11.0064967"><ele>1505.0</ele><time>2026-05-01T11:29:06.373Z</time></trkpt><trkpt lat="45.6805733" lon="11.0063883"><ele>1505.0</ele><time>2026-05-01T11:29:07.373Z</time></trkpt><trkpt lat="45.6805417" lon="11.0062783"><ele>1505.0</ele><time>2026-05-01T11:29:08.373Z</time></trkpt><trkpt lat="45.6805033" lon="11.0061817"><ele>1505.0</ele><time>2026-05-01T11:29:09.372Z</time></trkpt><trkpt lat="45.680445" lon="11.0061"><ele>1505.0</ele><time>2026-05-01T11:29:10.373Z</time></trkpt><trkpt lat="45.680375" lon="11.0060483"><ele>1505.0</ele><time>2026-05-01T11:29:11.373Z</time></trkpt><trkpt lat="45.680305" lon="11.0060317"><ele>1504.2</ele><time>2026-05-01T11:29:12.372Z</time></trkpt><trkpt lat="45.6802233" lon="11.0060383"><ele>1503.4</ele><time>2026-05-01T11:29:13.373Z</time></trkpt><trkpt lat="45.680135" lon="11.0060667"><ele>1502.6</ele><time>2026-05-01T11:29:14.373Z</time></trkpt><trkpt lat="45.68004" lon="11.006085"><ele>1501.8</ele><time>2026-05-01T11:29:15.373Z</time></trkpt><trkpt lat="45.67994" lon="11.0061067"><ele>1501.0</ele><time>2026-05-01T11:29:16.372Z</time></trkpt><trkpt lat="45.67984" lon="11.006125"><ele>1501.0</ele><time>2026-05-01T11:29:17.373Z</time></trkpt><trkpt lat="45.6797467" lon="11.0061267"><ele>1501.0</ele><time>2026-05-01T11:29:18.373Z</time></trkpt><trkpt lat="45.679655" lon="11.0061217"><ele>1501.0</ele><time>2026-05-01T11:29:19.373Z</time></trkpt><trkpt lat="45.67956" lon="11.0061167"><ele>1501.0</ele><time>2026-05-01T11:29:20.373Z</time></trkpt><trkpt lat="45.6794733" lon="11.006105"><ele>1501.0</ele><time>2026-05-01T11:29:21.373Z</time></trkpt><trkpt lat="45.679385" lon="11.0060717"><ele>1501.0</ele><time>2026-05-01T11:29:22.373Z</time></trkpt><trkpt lat="45.6793" lon="11.0060217"><ele>1501.0</ele><time>2026-05-01T11:29:23.373Z</time></trkpt><trkpt lat="45.67922" lon="11.0059533"><ele>1501.0</ele><time>2026-05-01T11:29:24.373Z</time></trkpt><trkpt lat="45.6791433" lon="11.005885"><ele>1501.0</ele><time>2026-05-01T11:29:25.372Z</time></trkpt><trkpt lat="45.6790683" lon="11.0058033"><ele>1501.0</ele><time>2026-05-01T11:29:26.373Z</time></trkpt><trkpt lat="45.6789983" lon="11.0057117"><ele>1501.0</ele><time>2026-05-01T11:29:27.373Z</time></trkpt><trkpt lat="45.6789333" lon="11.0056283"><ele>1501.0</ele><time>2026-05-01T11:29:28.373Z</time></trkpt><trkpt lat="45.6788717" lon="11.0055433"><ele>1501.0</ele><time>2026-05-01T11:29:29.373Z</time></trkpt><trkpt lat="45.6788083" lon="11.0054567"><ele>1501.0</ele><time>2026-05-01T11:29:30.373Z</time></trkpt><trkpt lat="45.678745" lon="11.0053717"><ele>1501.0</ele><time>2026-05-01T11:29:31.373Z</time></trkpt><trkpt lat="45.6786817" lon="11.0052733"><ele>1501.0</ele><time>2026-05-01T11:29:32.372Z</time></trkpt><trkpt lat="45.6786183" lon="11.00518"><ele>1499.8</ele><time>2026-05-01T11:29:33.373Z</time></trkpt><trkpt lat="45.6785667" lon="11.0050733"><ele>1498.6</ele><time>2026-05-01T11:29:34.373Z</time></trkpt><trkpt lat="45.6785267" lon="11.004955"><ele>1497.4</ele><time>2026-05-01T11:29:35.372Z</time></trkpt><trkpt lat="45.6784867" lon="11.004835"><ele>1496.2</ele><time>2026-05-01T11:29:36.373Z</time></trkpt><trkpt lat="45.6784567" lon="11.0047083"><ele>1495.0</ele><time>2026-05-01T11:29:37.373Z</time></trkpt><trkpt lat="45.6784283" lon="11.004565"><ele>1493.0</ele><time>2026-05-01T11:29:38.373Z</time></trkpt><trkpt lat="45.6783967" lon="11.0044233"><ele>1491.0</ele><time>2026-05-01T11:29:39.372Z</time></trkpt><trkpt lat="45.6783683" lon="11.0042783"><ele>1489.0</ele><time>2026-05-01T11:29:40.373Z</time></trkpt><trkpt lat="45.6783267" lon="11.004125"><ele>1487.0</ele><time>2026-05-01T11:29:41.373Z</time></trkpt><trkpt lat="45.6782733" lon="11.003975"><ele>1485.0</ele><time>2026-05-01T11:29:42.373Z</time></trkpt><trkpt lat="45.67821" lon="11.0038117"><ele>1482.75</ele><time>2026-05-01T11:29:43.373Z</time></trkpt><trkpt lat="45.6781417" lon="11.0036483"><ele>1480.5</ele><time>2026-05-01T11:29:44.373Z</time></trkpt><trkpt lat="45.678075" lon="11.0034783"><ele>1478.25</ele><time>2026-05-01T11:29:45.373Z</time></trkpt><trkpt lat="45.6780083" lon="11.0033067"><ele>1476.0</ele><time>2026-05-01T11:29:46.373Z</time></trkpt><trkpt lat="45.67795" lon="11.0031183"><ele>1474.0</ele><time>2026-05-01T11:29:47.373Z</time></trkpt><trkpt lat="45.6778967" lon="11.0029383"><ele>1472.0</ele><time>2026-05-01T11:29:48.373Z</time></trkpt><trkpt lat="45.6778467" lon="11.00277"><ele>1470.0</ele><time>2026-05-01T11:29:49.373Z</time></trkpt><trkpt lat="45.6778" lon="11.0026"><ele>1468.0</ele><time>2026-05-01T11:29:50.373Z</time></trkpt><trkpt lat="45.6777533" lon="11.0024383"><ele>1468.0</ele><time>2026-05-01T11:29:51.373Z</time></trkpt><trkpt lat="45.6777083" lon="11.00228"><ele>1468.0</ele><time>2026-05-01T11:29:52.372Z</time></trkpt><trkpt lat="45.6776617" lon="11.00212"><ele>1468.0</ele><time>2026-05-01T11:29:53.373Z</time></trkpt><trkpt lat="45.6776067" lon="11.00196"><ele>1468.0</ele><time>2026-05-01T11:29:54.373Z</time></trkpt><trkpt lat="45.67755" lon="11.0018"><ele>1464.25</ele><time>2026-05-01T11:29:55.373Z</time></trkpt><trkpt lat="45.6774933" lon="11.001635"><ele>1460.5</ele><time>2026-05-01T11:29:56.373Z</time></trkpt><trkpt lat="45.6774267" lon="11.0014617"><ele>1456.75</ele><time>2026-05-01T11:29:57.373Z</time></trkpt><trkpt lat="45.677365" lon="11.0012983"><ele>1453.0</ele><time>2026-05-01T11:29:58.373Z</time></trkpt><trkpt lat="45.6773" lon="11.0011483"><ele>1453.0</ele><time>2026-05-01T11:29:59.372Z</time></trkpt><trkpt lat="45.677225" lon="11.0010033"><ele>1453.0</ele><time>2026-05-01T11:30:00.373Z</time></trkpt><trkpt lat="45.677115" lon="11.0008917"><ele>1453.0</ele><time>2026-05-01T11:30:01.373Z</time></trkpt><trkpt lat="45.6770017" lon="11.0008017"><ele>1453.0</ele><time>2026-05-01T11:30:02.373Z</time></trkpt><trkpt lat="45.6768967" lon="11.0007233"><ele>1453.0</ele><time>2026-05-01T11:30:03.372Z</time></trkpt><trkpt lat="45.6767933" lon="11.00065"><ele>1453.0</ele><time>2026-05-01T11:30:04.372Z</time></trkpt><trkpt lat="45.6767033" lon="11.0005533"><ele>1453.0</ele><time>2026-05-01T11:30:05.372Z</time></trkpt><trkpt lat="45.6766383" lon="11.0004233"><ele>1453.0</ele><time>2026-05-01T11:30:06.372Z</time></trkpt><trkpt lat="45.6765717" lon="11.0002817"><ele>1453.0</ele><time>2026-05-01T11:30:07.372Z</time></trkpt><trkpt lat="45.6765017" lon="11.00013"><ele>1453.0</ele><time>2026-05-01T11:30:08.372Z</time></trkpt><trkpt lat="45.6764333" lon="10.99998"><ele>1453.0</ele><time>2026-05-01T11:30:09.372Z</time></trkpt><trkpt lat="45.67636" lon="10.9998333"><ele>1453.0</ele><time>2026-05-01T11:30:10.372Z</time></trkpt><trkpt lat="45.676285" lon="10.9996867"><ele>1453.0</ele><time>2026-05-01T11:30:11.372Z</time></trkpt><trkpt lat="45.676205" lon="10.9995417"><ele>1453.0</ele><time>2026-05-01T11:30:12.372Z</time></trkpt><trkpt lat="45.6761333" lon="10.9993933"><ele>1453.0</ele><time>2026-05-01T11:30:13.372Z</time></trkpt><trkpt lat="45.6760583" lon="10.9992417"><ele>1453.0</ele><time>2026-05-01T11:30:14.372Z</time></trkpt><trkpt lat="45.6759883" lon="10.999105"><ele>1452.8000000000002</ele><time>2026-05-01T11:30:15.372Z</time></trkpt><trkpt lat="45.675915" lon="10.99898"><ele>1452.6</ele><time>2026-05-01T11:30:16.372Z</time></trkpt><trkpt lat="45.6758467" lon="10.9988617"><ele>1452.4</ele><time>2026-05-01T11:30:17.372Z</time></trkpt><trkpt lat="45.6757583" lon="10.9987617"><ele>1452.1999999999998</ele><time>2026-05-01T11:30:18.372Z</time></trkpt><trkpt lat="45.6756533" lon="10.9986933"><ele>1452.0</ele><time>2026-05-01T11:30:19.371Z</time></trkpt><trkpt lat="45.6755383" lon="10.9986467"><ele>1452.0</ele><time>2026-05-01T11:30:20.372Z</time></trkpt><trkpt lat="45.6754317" lon="10.9986517"><ele>1452.0</ele><time>2026-05-01T11:30:21.372Z</time></trkpt><trkpt lat="45.6753517" lon="10.9986867"><ele>1452.0</ele><time>2026-05-01T11:30:22.372Z</time></trkpt><trkpt lat="45.6752917" lon="10.9987533"><ele>1452.0</ele><time>2026-05-01T11:30:23.372Z</time></trkpt><trkpt lat="45.6752533" lon="10.998855"><ele>1452.0</ele><time>2026-05-01T11:30:24.372Z</time></trkpt><trkpt lat="45.675255" lon="10.998975"><ele>1452.0</ele><time>2026-05-01T11:30:25.371Z</time></trkpt><trkpt lat="45.6752583" lon="10.9991217"><ele>1450.1999999999998</ele><time>2026-05-01T11:30:26.372Z</time></trkpt><trkpt lat="45.6752533" lon="10.99927"><ele>1448.4</ele><time>2026-05-01T11:30:27.372Z</time></trkpt><trkpt lat="45.6752317" lon="10.999405"><ele>1446.6</ele><time>2026-05-01T11:30:28.372Z</time></trkpt><trkpt lat="45.6751717" lon="10.999535"><ele>1444.8000000000002</ele><time>2026-05-01T11:30:29.372Z</time></trkpt><trkpt lat="45.6750983" lon="10.9996317"><ele>1443.0</ele><time>2026-05-01T11:30:30.372Z</time></trkpt><trkpt lat="45.6750033" lon="10.999675"><ele>1443.0</ele><time>2026-05-01T11:30:31.372Z</time></trkpt><trkpt lat="45.674925" lon="10.9997183"><ele>1443.0</ele><time>2026-05-01T11:30:32.372Z</time></trkpt><trkpt lat="45.6748617" lon="10.9997867"><ele>1443.0</ele><time>2026-05-01T11:30:33.372Z</time></trkpt><trkpt lat="45.6748367" lon="10.99987"><ele>1443.0</ele><time>2026-05-01T11:30:34.372Z</time></trkpt><trkpt lat="45.6748583" lon="10.99996"><ele>1443.0</ele><time>2026-05-01T11:30:35.372Z</time></trkpt><trkpt lat="45.6749167" lon="11.0000333"><ele>1443.0</ele><time>2026-05-01T11:30:36.372Z</time></trkpt><trkpt lat="45.6749983" lon="11.0000933"><ele>1443.0</ele><time>2026-05-01T11:30:37.372Z</time></trkpt><trkpt lat="45.67509" lon="11.000155"><ele>1443.0</ele><time>2026-05-01T11:30:38.372Z</time></trkpt><trkpt lat="45.6751783" lon="11.0002183"><ele>1443.0</ele><time>2026-05-01T11:30:39.372Z</time></trkpt><trkpt lat="45.6752533" lon="11.0003033"><ele>1443.0</ele><time>2026-05-01T11:30:40.372Z</time></trkpt><trkpt lat="45.6752883" lon="11.0004167"><ele>1443.0</ele><time>2026-05-01T11:30:41.372Z</time></trkpt><trkpt lat="45.6752933" lon="11.0005317"><ele>1443.0</ele><time>2026-05-01T11:30:42.372Z</time></trkpt><trkpt lat="45.6752617" lon="11.0006483"><ele>1443.0</ele><time>2026-05-01T11:30:43.371Z</time></trkpt><trkpt lat="45.6752283" lon="11.0007717"><ele>1443.0</ele><time>2026-05-01T11:30:44.371Z</time></trkpt><trkpt lat="45.6752083" lon="11.0009133"><ele>1443.0</ele><time>2026-05-01T11:30:45.372Z</time></trkpt><trkpt lat="45.6752083" lon="11.0010567"><ele>1443.0</ele><time>2026-05-01T11:30:46.372Z</time></trkpt><trkpt lat="45.6751917" lon="11.0011917"><ele>1442.6666666666667</ele><time>2026-05-01T11:30:47.371Z</time></trkpt><trkpt lat="45.67514" lon="11.0012967"><ele>1442.3333333333333</ele><time>2026-05-01T11:30:48.371Z</time></trkpt><trkpt lat="45.6750683" lon="11.0013717"><ele>1442.0</ele><time>2026-05-01T11:30:49.372Z</time></trkpt><trkpt lat="45.67498" lon="11.0014033"><ele>1441.6666666666665</ele><time>2026-05-01T11:30:50.372Z</time></trkpt><trkpt lat="45.6748933" lon="11.0014133"><ele>1441.3333333333333</ele><time>2026-05-01T11:30:51.372Z</time></trkpt><trkpt lat="45.6748117" lon="11.0014483"><ele>1441.0</ele><time>2026-05-01T11:30:52.372Z</time></trkpt><trkpt lat="45.6747517" lon="11.00153"><ele>1441.0</ele><time>2026-05-01T11:30:53.372Z</time></trkpt><trkpt lat="45.6747083" lon="11.001645"><ele>1441.0</ele><time>2026-05-01T11:30:54.372Z</time></trkpt><trkpt lat="45.6746617" lon="11.0017717"><ele>1441.0</ele><time>2026-05-01T11:30:55.371Z</time></trkpt><trkpt lat="45.6745817" lon="11.00185"><ele>1441.0</ele><time>2026-05-01T11:30:56.372Z</time></trkpt><trkpt lat="45.6744967" lon="11.0019"><ele>1441.0</ele><time>2026-05-01T11:30:57.372Z</time></trkpt><trkpt lat="45.674415" lon="11.0019733"><ele>1438.5</ele><time>2026-05-01T11:30:58.372Z</time></trkpt><trkpt lat="45.67436" lon="11.0020983"><ele>1436.0</ele><time>2026-05-01T11:30:59.372Z</time></trkpt><trkpt lat="45.6742983" lon="11.0022317"><ele>1433.5</ele><time>2026-05-01T11:31:00.372Z</time></trkpt><trkpt lat="45.6742183" lon="11.0023517"><ele>1431.0</ele><time>2026-05-01T11:31:01.372Z</time></trkpt><trkpt lat="45.67412" lon="11.002465"><ele>1433.25</ele><time>2026-05-01T11:31:02.372Z</time></trkpt><trkpt lat="45.6740033" lon="11.0025833"><ele>1435.5</ele><time>2026-05-01T11:31:03.372Z</time></trkpt><trkpt lat="45.6738917" lon="11.0027"><ele>1437.75</ele><time>2026-05-01T11:31:04.371Z</time></trkpt><trkpt lat="45.6737867" lon="11.0028033"><ele>1440.0</ele><time>2026-05-01T11:31:05.372Z</time></trkpt><trkpt lat="45.6736883" lon="11.0028967"><ele>1437.8</ele><time>2026-05-01T11:31:06.372Z</time></trkpt><trkpt lat="45.673585" lon="11.0029817"><ele>1435.6</ele><time>2026-05-01T11:31:07.371Z</time></trkpt><trkpt lat="45.673495" lon="11.0030333"><ele>1433.4</ele><time>2026-05-01T11:31:08.372Z</time></trkpt><trkpt lat="45.6734033" lon="11.003035"><ele>1431.2</ele><time>2026-05-01T11:31:09.372Z</time></trkpt><trkpt lat="45.6733267" lon="11.0029917"><ele>1429.0</ele><time>2026-05-01T11:31:10.371Z</time></trkpt><trkpt lat="45.6732717" lon="11.0028967"><ele>1429.0</ele><time>2026-05-01T11:31:11.372Z</time></trkpt><trkpt lat="45.6732333" lon="11.0027733"><ele>1429.0</ele><time>2026-05-01T11:31:12.371Z</time></trkpt><trkpt lat="45.67321" lon="11.0026317"><ele>1429.0</ele><time>2026-05-01T11:31:13.372Z</time></trkpt><trkpt lat="45.6731933" lon="11.0024817"><ele>1429.0</ele><time>2026-05-01T11:31:14.372Z</time></trkpt><trkpt lat="45.6731883" lon="11.00234"><ele>1429.0</ele><time>2026-05-01T11:31:15.372Z</time></trkpt><trkpt lat="45.673185" lon="11.0021967"><ele>1428.1666666666665</ele><time>2026-05-01T11:31:16.372Z</time></trkpt><trkpt lat="45.6732" lon="11.0020683"><ele>1427.3333333333333</ele><time>2026-05-01T11:31:17.372Z</time></trkpt><trkpt lat="45.6732117" lon="11.0019467"><ele>1426.5</ele><time>2026-05-01T11:31:18.372Z</time></trkpt><trkpt lat="45.6732083" lon="11.00183"><ele>1425.6666666666667</ele><time>2026-05-01T11:31:19.371Z</time></trkpt><trkpt lat="45.6731683" lon="11.0017233"><ele>1424.8333333333335</ele><time>2026-05-01T11:31:20.371Z</time></trkpt><trkpt lat="45.6731133" lon="11.0016417"><ele>1424.0</ele><time>2026-05-01T11:31:21.371Z</time></trkpt><trkpt lat="45.6730333" lon="11.00159"><ele>1422.6</ele><time>2026-05-01T11:31:22.372Z</time></trkpt><trkpt lat="45.672945" lon="11.0015383"><ele>1421.2</ele><time>2026-05-01T11:31:23.372Z</time></trkpt><trkpt lat="45.672865" lon="11.001465"><ele>1419.8</ele><time>2026-05-01T11:31:24.372Z</time></trkpt><trkpt lat="45.6727933" lon="11.0013617"><ele>1418.3999999999999</ele><time>2026-05-01T11:31:25.371Z</time></trkpt><trkpt lat="45.6727433" lon="11.0012433"><ele>1417.0</ele><time>2026-05-01T11:31:26.372Z</time></trkpt><trkpt lat="45.6727083" lon="11.0011217"><ele>1417.0</ele><time>2026-05-01T11:31:27.372Z</time></trkpt><trkpt lat="45.6726767" lon="11.00099"><ele>1417.0</ele><time>2026-05-01T11:31:28.372Z</time></trkpt><trkpt lat="45.6726467" lon="11.000865"><ele>1417.0</ele><time>2026-05-01T11:31:29.372Z</time></trkpt><trkpt lat="45.67262" lon="11.0007433"><ele>1417.0</ele><time>2026-05-01T11:31:30.372Z</time></trkpt><trkpt lat="45.6725717" lon="11.0006617"><ele>1417.0</ele><time>2026-05-01T11:31:31.372Z</time></trkpt><trkpt lat="45.6725017" lon="11.00061"><ele>1417.0</ele><time>2026-05-01T11:31:32.372Z</time></trkpt><trkpt lat="45.6724183" lon="11.0005983"><ele>1416.8</ele><time>2026-05-01T11:31:33.371Z</time></trkpt><trkpt lat="45.67233" lon="11.0006283"><ele>1416.6</ele><time>2026-05-01T11:31:34.372Z</time></trkpt><trkpt lat="45.6722283" lon="11.0006817"><ele>1416.3999999999999</ele><time>2026-05-01T11:31:35.372Z</time></trkpt><trkpt lat="45.6721267" lon="11.0007467"><ele>1416.1999999999998</ele><time>2026-05-01T11:31:36.372Z</time></trkpt><trkpt lat="45.6720217" lon="11.0008167"><ele>1416.0</ele><time>2026-05-01T11:31:37.372Z</time></trkpt><trkpt lat="45.6719233" lon="11.0008817"><ele>1416.0</ele><time>2026-05-01T11:31:38.372Z</time></trkpt><trkpt lat="45.6718183" lon="11.000925"><ele>1416.0</ele><time>2026-05-01T11:31:39.372Z</time></trkpt><trkpt lat="45.6717067" lon="11.0009467"><ele>1416.0</ele><time>2026-05-01T11:31:40.371Z</time></trkpt><trkpt lat="45.6716" lon="11.00095"><ele>1416.0</ele><time>2026-05-01T11:31:41.371Z</time></trkpt><trkpt lat="45.6714917" lon="11.0009217"><ele>1416.0</ele><time>2026-05-01T11:31:42.372Z</time></trkpt><trkpt lat="45.6713983" lon="11.0008833"><ele>1416.0</ele><time>2026-05-01T11:31:43.371Z</time></trkpt><trkpt lat="45.671305" lon="11.0008317"><ele>1416.0</ele><time>2026-05-01T11:31:44.372Z</time></trkpt><trkpt lat="45.671215" lon="11.000775"><ele>1416.0</ele><time>2026-05-01T11:31:45.372Z</time></trkpt><trkpt lat="45.67113" lon="11.0007167"><ele>1416.0</ele><time>2026-05-01T11:31:46.372Z</time></trkpt><trkpt lat="45.6710417" lon="11.0006617"><ele>1416.0</ele><time>2026-05-01T11:31:47.372Z</time></trkpt><trkpt lat="45.6709533" lon="11.0005983"><ele>1416.0</ele><time>2026-05-01T11:31:48.372Z</time></trkpt><trkpt lat="45.6708467" lon="11.0005467"><ele>1416.0</ele><time>2026-05-01T11:31:49.371Z</time></trkpt><trkpt lat="45.670725" lon="11.0005183"><ele>1416.0</ele><time>2026-05-01T11:31:50.372Z</time></trkpt><trkpt lat="45.6705967" lon="11.0005117"><ele>1416.0</ele><time>2026-05-01T11:31:51.372Z</time></trkpt><trkpt lat="45.6704733" lon="11.0005133"><ele>1416.0</ele><time>2026-05-01T11:31:52.372Z</time></trkpt><trkpt lat="45.67036" lon="11.000515"><ele>1416.0</ele><time>2026-05-01T11:31:53.372Z</time></trkpt><trkpt lat="45.67024" lon="11.000505"><ele>1416.0</ele><time>2026-05-01T11:31:54.372Z</time></trkpt><trkpt lat="45.67014" lon="11.000465"><ele>1416.0</ele><time>2026-05-01T11:31:55.372Z</time></trkpt><trkpt lat="45.6700633" lon="11.0004"><ele>1416.0</ele><time>2026-05-01T11:31:56.372Z</time></trkpt><trkpt lat="45.6700083" lon="11.0003"><ele>1414.8</ele><time>2026-05-01T11:31:57.372Z</time></trkpt><trkpt lat="45.6699633" lon="11.0001917"><ele>1413.6</ele><time>2026-05-01T11:31:58.372Z</time></trkpt><trkpt lat="45.669915" lon="11.0000833"><ele>1412.4</ele><time>2026-05-01T11:31:59.372Z</time></trkpt><trkpt lat="45.669855" lon="10.9999783"><ele>1411.2</ele><time>2026-05-01T11:32:00.372Z</time></trkpt><trkpt lat="45.6697767" lon="10.9998967"><ele>1410.0</ele><time>2026-05-01T11:32:01.371Z</time></trkpt><trkpt lat="45.66969" lon="10.999855"><ele>1410.0</ele><time>2026-05-01T11:32:02.372Z</time></trkpt><trkpt lat="45.66959" lon="10.9998683"><ele>1410.0</ele><time>2026-05-01T11:32:03.372Z</time></trkpt><trkpt lat="45.669495" lon="10.999915"><ele>1410.0</ele><time>2026-05-01T11:32:04.372Z</time></trkpt><trkpt lat="45.6693967" lon="10.9999683"><ele>1410.0</ele><time>2026-05-01T11:32:05.372Z</time></trkpt><trkpt lat="45.6692933" lon="11.0000133"><ele>1410.0</ele><time>2026-05-01T11:32:06.372Z</time></trkpt><trkpt lat="45.6691933" lon="11.00005"><ele>1408.0</ele><time>2026-05-01T11:32:07.372Z</time></trkpt><trkpt lat="45.669085" lon="11.000085"><ele>1406.0</ele><time>2026-05-01T11:32:08.372Z</time></trkpt><trkpt lat="45.6689733" lon="11.0001083"><ele>1404.0</ele><time>2026-05-01T11:32:09.372Z</time></trkpt><trkpt lat="45.6688583" lon="11.00011"><ele>1402.0</ele><time>2026-05-01T11:32:10.372Z</time></trkpt><trkpt lat="45.668735" lon="11.0000967"><ele>1402.0</ele><time>2026-05-01T11:32:11.372Z</time></trkpt><trkpt lat="45.6686133" lon="11.0000767"><ele>1402.0</ele><time>2026-05-01T11:32:12.372Z</time></trkpt><trkpt lat="45.66849" lon="11.0000533"><ele>1402.0</ele><time>2026-05-01T11:32:13.372Z</time></trkpt><trkpt lat="45.6683683" lon="11.00001"><ele>1402.0</ele><time>2026-05-01T11:32:14.372Z</time></trkpt><trkpt lat="45.6682417" lon="10.99994"><ele>1399.0</ele><time>2026-05-01T11:32:15.372Z</time></trkpt><trkpt lat="45.668095" lon="10.9998417"><ele>1396.0</ele><time>2026-05-01T11:32:16.372Z</time></trkpt><trkpt lat="45.66795" lon="10.9997167"><ele>1393.0</ele><time>2026-05-01T11:32:17.372Z</time></trkpt><trkpt lat="45.6678167" lon="10.9995967"><ele>1389.5</ele><time>2026-05-01T11:32:18.372Z</time></trkpt><trkpt lat="45.667695" lon="10.9995033"><ele>1386.0</ele><time>2026-05-01T11:32:19.372Z</time></trkpt><trkpt lat="45.6675717" lon="10.9994433"><ele>1382.5</ele><time>2026-05-01T11:32:20.372Z</time></trkpt><trkpt lat="45.6674383" lon="10.999435"><ele>1379.0</ele><time>2026-05-01T11:32:21.372Z</time></trkpt><trkpt lat="45.667305" lon="10.9994633"><ele>1379.0</ele><time>2026-05-01T11:32:22.372Z</time></trkpt><trkpt lat="45.6671833" lon="10.9995283"><ele>1379.0</ele><time>2026-05-01T11:32:23.372Z</time></trkpt><trkpt lat="45.6670683" lon="10.99961"><ele>1379.0</ele><time>2026-05-01T11:32:24.372Z</time></trkpt><trkpt lat="45.666975" lon="10.9997067"><ele>1379.0</ele><time>2026-05-01T11:32:25.372Z</time></trkpt><trkpt lat="45.6668833" lon="10.9998367"><ele>1379.75</ele><time>2026-05-01T11:32:26.372Z</time></trkpt><trkpt lat="45.6667883" lon="10.9999583"><ele>1380.5</ele><time>2026-05-01T11:32:27.372Z</time></trkpt><trkpt lat="45.666685" lon="11.00005"><ele>1381.25</ele><time>2026-05-01T11:32:28.371Z</time></trkpt><trkpt lat="45.6665617" lon="11.0001133"><ele>1382.0</ele><time>2026-05-01T11:32:29.372Z</time></trkpt><trkpt lat="45.6664533" lon="11.0001517"><ele>1382.0</ele><time>2026-05-01T11:32:30.372Z</time></trkpt><trkpt lat="45.6663383" lon="11.0001633"><ele>1382.0</ele><time>2026-05-01T11:32:31.372Z</time></trkpt><trkpt lat="45.66624" lon="11.0001667"><ele>1382.0</ele><time>2026-05-01T11:32:32.371Z</time></trkpt><trkpt lat="45.6660833" lon="11.0000483"><ele>1382.0</ele><time>2026-05-01T11:32:34.372Z</time></trkpt><trkpt lat="45.66605" lon="10.999955"><ele>1379.3999999999999</ele><time>2026-05-01T11:32:35.372Z</time></trkpt><trkpt lat="45.6660317" lon="10.99985"><ele>1376.8</ele><time>2026-05-01T11:32:36.372Z</time></trkpt><trkpt lat="45.6660267" lon="10.9997267"><ele>1374.2</ele><time>2026-05-01T11:32:37.372Z</time></trkpt><trkpt lat="45.6660217" lon="10.9995833"><ele>1371.6</ele><time>2026-05-01T11:32:38.372Z</time></trkpt><trkpt lat="45.6659867" lon="10.9994383"><ele>1369.0</ele><time>2026-05-01T11:32:39.372Z</time></trkpt><trkpt lat="45.66593" lon="10.9993"><ele>1369.0</ele><time>2026-05-01T11:32:40.372Z</time></trkpt><trkpt lat="45.665845" lon="10.9992117"><ele>1369.0</ele><time>2026-05-01T11:32:41.372Z</time></trkpt><trkpt lat="45.6657383" lon="10.99917"><ele>1369.0</ele><time>2026-05-01T11:32:42.372Z</time></trkpt><trkpt lat="45.6656233" lon="10.999175"><ele>1369.0</ele><time>2026-05-01T11:32:43.372Z</time></trkpt><trkpt lat="45.6655017" lon="10.9992"><ele>1369.0</ele><time>2026-05-01T11:32:44.372Z</time></trkpt><trkpt lat="45.665385" lon="10.9992317"><ele>1369.0</ele><time>2026-05-01T11:32:45.372Z</time></trkpt><trkpt lat="45.6652667" lon="10.9992617"><ele>1369.0</ele><time>2026-05-01T11:32:46.372Z</time></trkpt><trkpt lat="45.6651467" lon="10.9992983"><ele>1369.0</ele><time>2026-05-01T11:32:47.372Z</time></trkpt><trkpt lat="45.66502" lon="10.9993333"><ele>1364.75</ele><time>2026-05-01T11:32:48.371Z</time></trkpt><trkpt lat="45.664905" lon="10.999375"><ele>1360.5</ele><time>2026-05-01T11:32:49.372Z</time></trkpt><trkpt lat="45.6648017" lon="10.9994283"><ele>1356.25</ele><time>2026-05-01T11:32:50.372Z</time></trkpt><trkpt lat="45.6646833" lon="10.9995267"><ele>1352.0</ele><time>2026-05-01T11:32:51.372Z</time></trkpt><trkpt lat="45.6645767" lon="10.9996667"><ele>1352.0</ele><time>2026-05-01T11:32:52.372Z</time></trkpt><trkpt lat="45.66448" lon="10.9998117"><ele>1352.0</ele><time>2026-05-01T11:32:53.372Z</time></trkpt><trkpt lat="45.66438" lon="10.9999417"><ele>1352.0</ele><time>2026-05-01T11:32:54.372Z</time></trkpt><trkpt lat="45.6642833" lon="11.0000783"><ele>1352.0</ele><time>2026-05-01T11:32:55.372Z</time></trkpt><trkpt lat="45.6641833" lon="11.0002"><ele>1354.25</ele><time>2026-05-01T11:32:56.372Z</time></trkpt><trkpt lat="45.6640733" lon="11.0003117"><ele>1356.5</ele><time>2026-05-01T11:32:57.372Z</time></trkpt><trkpt lat="45.663955" lon="11.0004067"><ele>1358.75</ele><time>2026-05-01T11:32:58.372Z</time></trkpt><trkpt lat="45.66382" lon="11.00047"><ele>1361.0</ele><time>2026-05-01T11:32:59.372Z</time></trkpt><trkpt lat="45.6636917" lon="11.000525"><ele>1361.5</ele><time>2026-05-01T11:33:00.372Z</time></trkpt><trkpt lat="45.663565" lon="11.0005733"><ele>1362.0</ele><time>2026-05-01T11:33:01.371Z</time></trkpt><trkpt lat="45.6634533" lon="11.0006167"><ele>1362.5</ele><time>2026-05-01T11:33:02.371Z</time></trkpt><trkpt lat="45.6633283" lon="11.0006267"><ele>1363.0</ele><time>2026-05-01T11:33:03.371Z</time></trkpt><trkpt lat="45.6632167" lon="11.0005733"><ele>1363.0</ele><time>2026-05-01T11:33:04.372Z</time></trkpt><trkpt lat="45.663105" lon="11.0004833"><ele>1363.0</ele><time>2026-05-01T11:33:05.372Z</time></trkpt><trkpt lat="45.663005" lon="11.00039"><ele>1363.0</ele><time>2026-05-01T11:33:06.372Z</time></trkpt><trkpt lat="45.662905" lon="11.0002917"><ele>1363.0</ele><time>2026-05-01T11:33:07.371Z</time></trkpt><trkpt lat="45.6628017" lon="11.0002183"><ele>1361.4</ele><time>2026-05-01T11:33:08.372Z</time></trkpt><trkpt lat="45.6626933" lon="11.000185"><ele>1359.8000000000002</ele><time>2026-05-01T11:33:09.372Z</time></trkpt><trkpt lat="45.6625983" lon="11.0002067"><ele>1358.2</ele><time>2026-05-01T11:33:10.372Z</time></trkpt><trkpt lat="45.6625183" lon="11.0002883"><ele>1356.6</ele><time>2026-05-01T11:33:11.372Z</time></trkpt><trkpt lat="45.662475" lon="11.0004133"><ele>1355.0</ele><time>2026-05-01T11:33:12.372Z</time></trkpt><trkpt lat="45.662455" lon="11.0005567"><ele>1355.0</ele><time>2026-05-01T11:33:13.372Z</time></trkpt><trkpt lat="45.6624367" lon="11.0006983"><ele>1355.0</ele><time>2026-05-01T11:33:14.372Z</time></trkpt><trkpt lat="45.6624033" lon="11.0008317"><ele>1355.0</ele><time>2026-05-01T11:33:15.372Z</time></trkpt><trkpt lat="45.6623467" lon="11.00094"><ele>1355.0</ele><time>2026-05-01T11:33:16.372Z</time></trkpt><trkpt lat="45.6622683" lon="11.0010067"><ele>1355.0</ele><time>2026-05-01T11:33:17.371Z</time></trkpt><trkpt lat="45.6621683" lon="11.001025"><ele>1353.0</ele><time>2026-05-01T11:33:18.371Z</time></trkpt><trkpt lat="45.6620617" lon="11.0010067"><ele>1351.0</ele><time>2026-05-01T11:33:19.372Z</time></trkpt><trkpt lat="45.6619583" lon="11.0009667"><ele>1349.0</ele><time>2026-05-01T11:33:20.371Z</time></trkpt><trkpt lat="45.661855" lon="11.0009167"><ele>1347.0</ele><time>2026-05-01T11:33:21.372Z</time></trkpt><trkpt lat="45.6617433" lon="11.0008717"><ele>1345.0</ele><time>2026-05-01T11:33:22.372Z</time></trkpt><trkpt lat="45.6616283" lon="11.0008217"><ele>1345.0</ele><time>2026-05-01T11:33:23.372Z</time></trkpt><trkpt lat="45.66151" lon="11.0007717"><ele>1345.0</ele><time>2026-05-01T11:33:24.372Z</time></trkpt><trkpt lat="45.6613917" lon="11.00074"><ele>1345.0</ele><time>2026-05-01T11:33:25.372Z</time></trkpt><trkpt lat="45.6612633" lon="11.0007167"><ele>1345.0</ele><time>2026-05-01T11:33:26.372Z</time></trkpt><trkpt lat="45.6611333" lon="11.00071"><ele>1342.25</ele><time>2026-05-01T11:33:27.372Z</time></trkpt><trkpt lat="45.6610017" lon="11.000705"><ele>1339.5</ele><time>2026-05-01T11:33:28.372Z</time></trkpt><trkpt lat="45.66087" lon="11.00071"><ele>1336.75</ele><time>2026-05-01T11:33:29.372Z</time></trkpt><trkpt lat="45.6607267" lon="11.0007183"><ele>1334.0</ele><time>2026-05-01T11:33:30.371Z</time></trkpt><trkpt lat="45.6605783" lon="11.0007417"><ele>1334.0</ele><time>2026-05-01T11:33:31.371Z</time></trkpt><trkpt lat="45.660425" lon="11.000775"><ele>1334.0</ele><time>2026-05-01T11:33:32.372Z</time></trkpt><trkpt lat="45.6602733" lon="11.0008383"><ele>1334.0</ele><time>2026-05-01T11:33:33.372Z</time></trkpt><trkpt lat="45.6601083" lon="11.0009217"><ele>1331.0</ele><time>2026-05-01T11:33:34.371Z</time></trkpt><trkpt lat="45.65995" lon="11.00101"><ele>1328.0</ele><time>2026-05-01T11:33:35.372Z</time></trkpt><trkpt lat="45.6598" lon="11.0011033"><ele>1325.0</ele><time>2026-05-01T11:33:36.372Z</time></trkpt><trkpt lat="45.6596467" lon="11.0012"><ele>1325.0</ele><time>2026-05-01T11:33:37.372Z</time></trkpt><trkpt lat="45.659505" lon="11.0012867"><ele>1325.0</ele><time>2026-05-01T11:33:38.371Z</time></trkpt><trkpt lat="45.65936" lon="11.0013683"><ele>1325.0</ele><time>2026-05-01T11:33:39.372Z</time></trkpt><trkpt lat="45.65922" lon="11.0014417"><ele>1321.6666666666667</ele><time>2026-05-01T11:33:40.372Z</time></trkpt><trkpt lat="45.659075" lon="11.0015167"><ele>1318.3333333333333</ele><time>2026-05-01T11:33:41.372Z</time></trkpt><trkpt lat="45.6589317" lon="11.001565"><ele>1315.0</ele><time>2026-05-01T11:33:42.372Z</time></trkpt><trkpt lat="45.6587783" lon="11.0015717"><ele>1315.0</ele><time>2026-05-01T11:33:43.372Z</time></trkpt><trkpt lat="45.65863" lon="11.0015183"><ele>1315.0</ele><time>2026-05-01T11:33:44.372Z</time></trkpt><trkpt lat="45.6584917" lon="11.00143"><ele>1315.0</ele><time>2026-05-01T11:33:45.372Z</time></trkpt><trkpt lat="45.6583633" lon="11.0013317"><ele>1313.6666666666665</ele><time>2026-05-01T11:33:46.372Z</time></trkpt><trkpt lat="45.6582333" lon="11.0012367"><ele>1312.3333333333333</ele><time>2026-05-01T11:33:47.372Z</time></trkpt><trkpt lat="45.6580917" lon="11.0011467"><ele>1311.0</ele><time>2026-05-01T11:33:48.372Z</time></trkpt><trkpt lat="45.657955" lon="11.00105"><ele>1311.0</ele><time>2026-05-01T11:33:49.372Z</time></trkpt><trkpt lat="45.657815" lon="11.00096"><ele>1311.0</ele><time>2026-05-01T11:33:50.372Z</time></trkpt><trkpt lat="45.6576783" lon="11.0008683"><ele>1311.0</ele><time>2026-05-01T11:33:51.371Z</time></trkpt><trkpt lat="45.657535" lon="11.0007717"><ele>1307.0</ele><time>2026-05-01T11:33:52.372Z</time></trkpt><trkpt lat="45.657395" lon="11.0006767"><ele>1303.0</ele><time>2026-05-01T11:33:53.372Z</time></trkpt><trkpt lat="45.6572567" lon="11.00058"><ele>1299.0</ele><time>2026-05-01T11:33:54.372Z</time></trkpt><trkpt lat="45.6571283" lon="11.0004833"><ele>1299.0</ele><time>2026-05-01T11:33:55.372Z</time></trkpt><trkpt lat="45.6570033" lon="11.0003967"><ele>1299.0</ele><time>2026-05-01T11:33:56.372Z</time></trkpt><trkpt lat="45.6568867" lon="11.0003117"><ele>1299.0</ele><time>2026-05-01T11:33:57.372Z</time></trkpt><trkpt lat="45.6567717" lon="11.000245"><ele>1299.0</ele><time>2026-05-01T11:33:58.372Z</time></trkpt><trkpt lat="45.65667" lon="11.0002033"><ele>1298.75</ele><time>2026-05-01T11:33:59.372Z</time></trkpt><trkpt lat="45.6565733" lon="11.0002133"><ele>1298.5</ele><time>2026-05-01T11:34:00.372Z</time></trkpt><trkpt lat="45.6564817" lon="11.000285"><ele>1298.25</ele><time>2026-05-01T11:34:01.372Z</time></trkpt><trkpt lat="45.6564233" lon="11.0004067"><ele>1298.0</ele><time>2026-05-01T11:34:02.372Z</time></trkpt><trkpt lat="45.6563883" lon="11.0007267"><ele>1299.5</ele><time>2026-05-01T11:34:04.372Z</time></trkpt><trkpt lat="45.65639" lon="11.0009"><ele>1301.0</ele><time>2026-05-01T11:34:05.372Z</time></trkpt><trkpt lat="45.6563883" lon="11.001075"><ele>1302.5</ele><time>2026-05-01T11:34:06.371Z</time></trkpt><trkpt lat="45.65639" lon="11.001235"><ele>1304.0</ele><time>2026-05-01T11:34:07.372Z</time></trkpt><trkpt lat="45.65641" lon="11.0013917"><ele>1304.0</ele><time>2026-05-01T11:34:08.372Z</time></trkpt><trkpt lat="45.656445" lon="11.001555"><ele>1304.0</ele><time>2026-05-01T11:34:09.372Z</time></trkpt><trkpt lat="45.6564983" lon="11.001715"><ele>1304.0</ele><time>2026-05-01T11:34:10.371Z</time></trkpt><trkpt lat="45.6565567" lon="11.001885"><ele>1304.0</ele><time>2026-05-01T11:34:11.372Z</time></trkpt><trkpt lat="45.6566233" lon="11.0020517"><ele>1303.25</ele><time>2026-05-01T11:34:12.372Z</time></trkpt><trkpt lat="45.6566917" lon="11.00222"><ele>1302.5</ele><time>2026-05-01T11:34:13.372Z</time></trkpt><trkpt lat="45.6567533" lon="11.0023717"><ele>1301.75</ele><time>2026-05-01T11:34:14.371Z</time></trkpt><trkpt lat="45.6568217" lon="11.0025217"><ele>1301.0</ele><time>2026-05-01T11:34:15.371Z</time></trkpt><trkpt lat="45.6569133" lon="11.00265"><ele>1301.0</ele><time>2026-05-01T11:34:16.372Z</time></trkpt><trkpt lat="45.6570283" lon="11.0027567"><ele>1301.0</ele><time>2026-05-01T11:34:17.372Z</time></trkpt><trkpt lat="45.65717" lon="11.0028617"><ele>1301.0</ele><time>2026-05-01T11:34:18.372Z</time></trkpt><trkpt lat="45.657315" lon="11.0029633"><ele>1301.0</ele><time>2026-05-01T11:34:19.372Z</time></trkpt><trkpt lat="45.6574567" lon="11.0030617"><ele>1301.0</ele><time>2026-05-01T11:34:20.372Z</time></trkpt><trkpt lat="45.6575967" lon="11.0031383"><ele>1301.0</ele><time>2026-05-01T11:34:21.372Z</time></trkpt><trkpt lat="45.6577317" lon="11.0032117"><ele>1301.75</ele><time>2026-05-01T11:34:22.372Z</time></trkpt><trkpt lat="45.6578717" lon="11.0032733"><ele>1302.5</ele><time>2026-05-01T11:34:23.372Z</time></trkpt><trkpt lat="45.6580183" lon="11.0033217"><ele>1303.25</ele><time>2026-05-01T11:34:24.372Z</time></trkpt><trkpt lat="45.658165" lon="11.0033717"><ele>1304.0</ele><time>2026-05-01T11:34:25.372Z</time></trkpt><trkpt lat="45.6583183" lon="11.0034333"><ele>1299.0</ele><time>2026-05-01T11:34:26.372Z</time></trkpt><trkpt lat="45.658475" lon="11.0034983"><ele>1294.0</ele><time>2026-05-01T11:34:27.372Z</time></trkpt><trkpt lat="45.6586367" lon="11.00357"><ele>1289.0</ele><time>2026-05-01T11:34:28.372Z</time></trkpt><trkpt lat="45.658785" lon="11.003655"><ele>1289.0</ele><time>2026-05-01T11:34:29.372Z</time></trkpt><trkpt lat="45.658915" lon="11.0037417"><ele>1289.0</ele><time>2026-05-01T11:34:30.372Z</time></trkpt><trkpt lat="45.6590417" lon="11.0038217"><ele>1289.0</ele><time>2026-05-01T11:34:31.371Z</time></trkpt><trkpt lat="45.6591567" lon="11.0038867"><ele>1289.0</ele><time>2026-05-01T11:34:32.372Z</time></trkpt><trkpt lat="45.659255" lon="11.0039433"><ele>1289.0</ele><time>2026-05-01T11:34:33.372Z</time></trkpt><trkpt lat="45.6593317" lon="11.00401"><ele>1289.0</ele><time>2026-05-01T11:34:34.372Z</time></trkpt><trkpt lat="45.65937" lon="11.0040983"><ele>1289.0</ele><time>2026-05-01T11:34:35.372Z</time></trkpt><trkpt lat="45.6593817" lon="11.00421"><ele>1289.0</ele><time>2026-05-01T11:34:36.372Z</time></trkpt><trkpt lat="45.6593617" lon="11.0043133"><ele>1289.0</ele><time>2026-05-01T11:34:37.372Z</time></trkpt><trkpt lat="45.6593067" lon="11.004375"><ele>1289.0</ele><time>2026-05-01T11:34:38.372Z</time></trkpt><trkpt lat="45.6592317" lon="11.0043767"><ele>1289.0</ele><time>2026-05-01T11:34:39.372Z</time></trkpt><trkpt lat="45.6591317" lon="11.0043267"><ele>1289.0</ele><time>2026-05-01T11:34:40.372Z</time></trkpt><trkpt lat="45.6590133" lon="11.0042583"><ele>1289.0</ele><time>2026-05-01T11:34:41.372Z</time></trkpt><trkpt lat="45.658895" lon="11.0042067"><ele>1289.0</ele><time>2026-05-01T11:34:42.372Z</time></trkpt><trkpt lat="45.6587733" lon="11.0041517"><ele>1289.0</ele><time>2026-05-01T11:34:43.372Z</time></trkpt><trkpt lat="45.6586533" lon="11.0041067"><ele>1289.0</ele><time>2026-05-01T11:34:44.372Z</time></trkpt><trkpt lat="45.6585167" lon="11.0040467"><ele>1289.0</ele><time>2026-05-01T11:34:45.372Z</time></trkpt><trkpt lat="45.658385" lon="11.0039917"><ele>1289.0</ele><time>2026-05-01T11:34:46.372Z</time></trkpt><trkpt lat="45.6582633" lon="11.00394"><ele>1288.0</ele><time>2026-05-01T11:34:47.372Z</time></trkpt><trkpt lat="45.6581483" lon="11.003895"><ele>1287.0</ele><time>2026-05-01T11:34:48.372Z</time></trkpt><trkpt lat="45.658035" lon="11.0038583"><ele>1286.0</ele><time>2026-05-01T11:34:49.372Z</time></trkpt><trkpt lat="45.65793" lon="11.0038383"><ele>1285.0</ele><time>2026-05-01T11:34:50.371Z</time></trkpt><trkpt lat="45.6578267" lon="11.00383"><ele>1284.0</ele><time>2026-05-01T11:34:51.372Z</time></trkpt><trkpt lat="45.6577183" lon="11.00385"><ele>1283.6</ele><time>2026-05-01T11:34:52.372Z</time></trkpt><trkpt lat="45.6576067" lon="11.00387"><ele>1283.2</ele><time>2026-05-01T11:34:53.372Z</time></trkpt><trkpt lat="45.6574983" lon="11.003905"><ele>1282.8</ele><time>2026-05-01T11:34:54.372Z</time></trkpt><trkpt lat="45.6574033" lon="11.0039533"><ele>1282.3999999999999</ele><time>2026-05-01T11:34:55.372Z</time></trkpt><trkpt lat="45.6573133" lon="11.0040233"><ele>1282.0</ele><time>2026-05-01T11:34:56.372Z</time></trkpt><trkpt lat="45.6572167" lon="11.0041033"><ele>1278.25</ele><time>2026-05-01T11:34:57.372Z</time></trkpt><trkpt lat="45.6571233" lon="11.0041817"><ele>1274.5</ele><time>2026-05-01T11:34:58.372Z</time></trkpt><trkpt lat="45.6570317" lon="11.0042767"><ele>1270.75</ele><time>2026-05-01T11:34:59.372Z</time></trkpt><trkpt lat="45.6569417" lon="11.004385"><ele>1267.0</ele><time>2026-05-01T11:35:00.372Z</time></trkpt><trkpt lat="45.6568567" lon="11.0045067"><ele>1267.0</ele><time>2026-05-01T11:35:01.372Z</time></trkpt><trkpt lat="45.6567733" lon="11.00463"><ele>1267.0</ele><time>2026-05-01T11:35:02.372Z</time></trkpt><trkpt lat="45.6566933" lon="11.004775"><ele>1267.0</ele><time>2026-05-01T11:35:03.372Z</time></trkpt><trkpt lat="45.6566217" lon="11.0049067"><ele>1267.0</ele><time>2026-05-01T11:35:04.372Z</time></trkpt><trkpt lat="45.6565583" lon="11.0050267"><ele>1264.4</ele><time>2026-05-01T11:35:05.372Z</time></trkpt><trkpt lat="45.6564967" lon="11.0051633"><ele>1261.8000000000002</ele><time>2026-05-01T11:35:06.372Z</time></trkpt><trkpt lat="45.656435" lon="11.0052817"><ele>1259.2</ele><time>2026-05-01T11:35:07.372Z</time></trkpt><trkpt lat="45.65637" lon="11.0054067"><ele>1256.6000000000001</ele><time>2026-05-01T11:35:08.372Z</time></trkpt><trkpt lat="45.6563117" lon="11.0055217"><ele>1254.0</ele><time>2026-05-01T11:35:09.371Z</time></trkpt><trkpt lat="45.65626" lon="11.0056317"><ele>1254.0</ele><time>2026-05-01T11:35:10.372Z</time></trkpt><trkpt lat="45.6562117" lon="11.0057567"><ele>1254.0</ele><time>2026-05-01T11:35:11.372Z</time></trkpt><trkpt lat="45.6561683" lon="11.0058783"><ele>1254.0</ele><time>2026-05-01T11:35:12.372Z</time></trkpt><trkpt lat="45.6561267" lon="11.00601"><ele>1254.0</ele><time>2026-05-01T11:35:13.372Z</time></trkpt><trkpt lat="45.6560983" lon="11.006155"><ele>1254.0</ele><time>2026-05-01T11:35:14.371Z</time></trkpt><trkpt lat="45.6560883" lon="11.0063067"><ele>1253.4</ele><time>2026-05-01T11:35:15.371Z</time></trkpt><trkpt lat="45.656095" lon="11.0064483"><ele>1252.8000000000002</ele><time>2026-05-01T11:35:16.37Z</time></trkpt><trkpt lat="45.65611" lon="11.0065833"><ele>1252.1999999999998</ele><time>2026-05-01T11:35:17.371Z</time></trkpt><trkpt lat="45.6561267" lon="11.006705"><ele>1251.6</ele><time>2026-05-01T11:35:18.371Z</time></trkpt><trkpt lat="45.6561283" lon="11.0068283"><ele>1251.0</ele><time>2026-05-01T11:35:19.371Z</time></trkpt><trkpt lat="45.6561017" lon="11.0069433"><ele>1250.2</ele><time>2026-05-01T11:35:20.371Z</time></trkpt><trkpt lat="45.656065" lon="11.0070417"><ele>1249.3999999999999</ele><time>2026-05-01T11:35:21.371Z</time></trkpt><trkpt lat="45.6560117" lon="11.0071267"><ele>1248.6</ele><time>2026-05-01T11:35:22.371Z</time></trkpt><trkpt lat="45.6559167" lon="11.0071933"><ele>1247.8</ele><time>2026-05-01T11:35:23.371Z</time></trkpt><trkpt lat="45.6558117" lon="11.0072683"><ele>1247.0</ele><time>2026-05-01T11:35:24.371Z</time></trkpt><trkpt lat="45.6557133" lon="11.0073467"><ele>1247.0</ele><time>2026-05-01T11:35:25.371Z</time></trkpt><trkpt lat="45.6556117" lon="11.0073933"><ele>1247.0</ele><time>2026-05-01T11:35:26.37Z</time></trkpt><trkpt lat="45.65551" lon="11.0074183"><ele>1247.0</ele><time>2026-05-01T11:35:27.371Z</time></trkpt><trkpt lat="45.6554167" lon="11.0074067"><ele>1247.0</ele><time>2026-05-01T11:35:28.37Z</time></trkpt><trkpt lat="45.6553383" lon="11.0073467"><ele>1247.0</ele><time>2026-05-01T11:35:29.371Z</time></trkpt><trkpt lat="45.655235" lon="11.0071467"><ele>1244.6</ele><time>2026-05-01T11:35:31.371Z</time></trkpt><trkpt lat="45.6552117" lon="11.0070167"><ele>1242.2</ele><time>2026-05-01T11:35:32.371Z</time></trkpt><trkpt lat="45.6551983" lon="11.0068733"><ele>1239.8</ele><time>2026-05-01T11:35:33.371Z</time></trkpt><trkpt lat="45.6552067" lon="11.00671"><ele>1237.4</ele><time>2026-05-01T11:35:34.371Z</time></trkpt><trkpt lat="45.6552167" lon="11.0065383"><ele>1235.0</ele><time>2026-05-01T11:35:35.371Z</time></trkpt><trkpt lat="45.6552417" lon="11.00636"><ele>1239.0</ele><time>2026-05-01T11:35:36.371Z</time></trkpt><trkpt lat="45.6552883" lon="11.0061667"><ele>1243.0</ele><time>2026-05-01T11:35:37.371Z</time></trkpt><trkpt lat="45.6553317" lon="11.0059717"><ele>1247.0</ele><time>2026-05-01T11:35:38.371Z</time></trkpt><trkpt lat="45.6553617" lon="11.005785"><ele>1251.0</ele><time>2026-05-01T11:35:39.371Z</time></trkpt><trkpt lat="45.6553717" lon="11.0055833"><ele>1251.75</ele><time>2026-05-01T11:35:40.371Z</time></trkpt><trkpt lat="45.6553533" lon="11.0053933"><ele>1252.5</ele><time>2026-05-01T11:35:41.371Z</time></trkpt><trkpt lat="45.6553317" lon="11.0052233"><ele>1253.25</ele><time>2026-05-01T11:35:42.371Z</time></trkpt><trkpt lat="45.6553083" lon="11.0050517"><ele>1254.0</ele><time>2026-05-01T11:35:43.37Z</time></trkpt><trkpt lat="45.6553" lon="11.004865"><ele>1254.0</ele><time>2026-05-01T11:35:44.37Z</time></trkpt><trkpt lat="45.655315" lon="11.0046983"><ele>1254.0</ele><time>2026-05-01T11:35:45.371Z</time></trkpt><trkpt lat="45.65535" lon="11.0045167"><ele>1254.0</ele><time>2026-05-01T11:35:46.371Z</time></trkpt><trkpt lat="45.6553783" lon="11.004335"><ele>1254.0</ele><time>2026-05-01T11:35:47.371Z</time></trkpt><trkpt lat="45.6553933" lon="11.0041517"><ele>1254.5</ele><time>2026-05-01T11:35:48.371Z</time></trkpt><trkpt lat="45.655405" lon="11.0039933"><ele>1255.0</ele><time>2026-05-01T11:35:49.37Z</time></trkpt><trkpt lat="45.6554033" lon="11.003835"><ele>1255.5</ele><time>2026-05-01T11:35:50.371Z</time></trkpt><trkpt lat="45.6553867" lon="11.00367"><ele>1256.0</ele><time>2026-05-01T11:35:51.371Z</time></trkpt><trkpt lat="45.6553517" lon="11.0035017"><ele>1256.0</ele><time>2026-05-01T11:35:52.371Z</time></trkpt><trkpt lat="45.6553" lon="11.003335"><ele>1256.0</ele><time>2026-05-01T11:35:53.371Z</time></trkpt><trkpt lat="45.65525" lon="11.0031683"><ele>1256.0</ele><time>2026-05-01T11:35:54.37Z</time></trkpt><trkpt lat="45.655205" lon="11.0029983"><ele>1256.0</ele><time>2026-05-01T11:35:55.37Z</time></trkpt><trkpt lat="45.6551567" lon="11.0028217"><ele>1251.75</ele><time>2026-05-01T11:35:56.371Z</time></trkpt><trkpt lat="45.6551" lon="11.0026417"><ele>1247.5</ele><time>2026-05-01T11:35:57.371Z</time></trkpt><trkpt lat="45.6550383" lon="11.00246"><ele>1243.25</ele><time>2026-05-01T11:35:58.371Z</time></trkpt><trkpt lat="45.65498" lon="11.002265"><ele>1239.0</ele><time>2026-05-01T11:35:59.371Z</time></trkpt><trkpt lat="45.6549367" lon="11.002035"><ele>1239.0</ele><time>2026-05-01T11:36:00.371Z</time></trkpt><trkpt lat="45.6548717" lon="11.0018167"><ele>1239.0</ele><time>2026-05-01T11:36:01.371Z</time></trkpt><trkpt lat="45.6548167" lon="11.001605"><ele>1239.0</ele><time>2026-05-01T11:36:02.371Z</time></trkpt><trkpt lat="45.6547617" lon="11.0014133"><ele>1239.6000000000001</ele><time>2026-05-01T11:36:03.371Z</time></trkpt><trkpt lat="45.654715" lon="11.0012583"><ele>1240.2</ele><time>2026-05-01T11:36:04.371Z</time></trkpt><trkpt lat="45.6546617" lon="11.0011367"><ele>1240.8000000000002</ele><time>2026-05-01T11:36:05.371Z</time></trkpt><trkpt lat="45.65459" lon="11.001055"><ele>1241.4</ele><time>2026-05-01T11:36:06.371Z</time></trkpt><trkpt lat="45.6545067" lon="11.0010483"><ele>1242.0</ele><time>2026-05-01T11:36:07.371Z</time></trkpt><trkpt lat="45.6544317" lon="11.001085"><ele>1242.0</ele><time>2026-05-01T11:36:08.371Z</time></trkpt><trkpt lat="45.654385" lon="11.0011467"><ele>1242.0</ele><time>2026-05-01T11:36:09.371Z</time></trkpt><trkpt lat="45.654345" lon="11.0012533"><ele>1242.0</ele><time>2026-05-01T11:36:10.371Z</time></trkpt><trkpt lat="45.6542833" lon="11.001405"><ele>1242.0</ele><time>2026-05-01T11:36:11.37Z</time></trkpt><trkpt lat="45.6542183" lon="11.0015517"><ele>1242.0</ele><time>2026-05-01T11:36:12.371Z</time></trkpt><trkpt lat="45.6541467" lon="11.001685"><ele>1238.0</ele><time>2026-05-01T11:36:13.37Z</time></trkpt><trkpt lat="45.6540683" lon="11.0017667"><ele>1234.0</ele><time>2026-05-01T11:36:14.371Z</time></trkpt><trkpt lat="45.6539733" lon="11.0017933"><ele>1230.0</ele><time>2026-05-01T11:36:15.371Z</time></trkpt><trkpt lat="45.65387" lon="11.001795"><ele>1226.0</ele><time>2026-05-01T11:36:16.371Z</time></trkpt><trkpt lat="45.6537717" lon="11.0017667"><ele>1222.0</ele><time>2026-05-01T11:36:17.371Z</time></trkpt><trkpt lat="45.6536917" lon="11.0017083"><ele>1221.6</ele><time>2026-05-01T11:36:18.371Z</time></trkpt><trkpt lat="45.6536267" lon="11.0016133"><ele>1221.2</ele><time>2026-05-01T11:36:19.371Z</time></trkpt><trkpt lat="45.6535633" lon="11.0015017"><ele>1220.8</ele><time>2026-05-01T11:36:20.371Z</time></trkpt><trkpt lat="45.653515" lon="11.001395"><ele>1220.4</ele><time>2026-05-01T11:36:21.37Z</time></trkpt><trkpt lat="45.6534633" lon="11.0012583"><ele>1220.0</ele><time>2026-05-01T11:36:22.371Z</time></trkpt><trkpt lat="45.6534083" lon="11.0011183"><ele>1220.0</ele><time>2026-05-01T11:36:23.371Z</time></trkpt><trkpt lat="45.6533567" lon="11.0009833"><ele>1220.0</ele><time>2026-05-01T11:36:24.37Z</time></trkpt><trkpt lat="45.6533" lon="11.0008383"><ele>1220.0</ele><time>2026-05-01T11:36:25.371Z</time></trkpt><trkpt lat="45.653235" lon="11.0007017"><ele>1220.0</ele><time>2026-05-01T11:36:26.371Z</time></trkpt><trkpt lat="45.6531733" lon="11.0005517"><ele>1225.25</ele><time>2026-05-01T11:36:27.371Z</time></trkpt><trkpt lat="45.65311" lon="11.00041"><ele>1230.5</ele><time>2026-05-01T11:36:28.371Z</time></trkpt><trkpt lat="45.6530467" lon="11.0002683"><ele>1235.75</ele><time>2026-05-01T11:36:29.371Z</time></trkpt><trkpt lat="45.65298" lon="11.00013"><ele>1241.0</ele><time>2026-05-01T11:36:30.371Z</time></trkpt><trkpt lat="45.6529183" lon="10.9999883"><ele>1241.0</ele><time>2026-05-01T11:36:31.371Z</time></trkpt><trkpt lat="45.652855" lon="10.9998467"><ele>1241.0</ele><time>2026-05-01T11:36:32.371Z</time></trkpt><trkpt lat="45.6527833" lon="10.9996933"><ele>1241.0</ele><time>2026-05-01T11:36:33.371Z</time></trkpt><trkpt lat="45.6527133" lon="10.9995517"><ele>1241.0</ele><time>2026-05-01T11:36:34.371Z</time></trkpt><trkpt lat="45.6526233" lon="10.999405"><ele>1233.5</ele><time>2026-05-01T11:36:35.371Z</time></trkpt><trkpt lat="45.6525383" lon="10.9992683"><ele>1226.0</ele><time>2026-05-01T11:36:36.37Z</time></trkpt><trkpt lat="45.652445" lon="10.9991283"><ele>1218.5</ele><time>2026-05-01T11:36:37.371Z</time></trkpt><trkpt lat="45.6523383" lon="10.9989967"><ele>1211.0</ele><time>2026-05-01T11:36:38.371Z</time></trkpt><trkpt lat="45.6522217" lon="10.9988717"><ele>1211.0</ele><time>2026-05-01T11:36:39.371Z</time></trkpt><trkpt lat="45.6520967" lon="10.998755"><ele>1211.0</ele><time>2026-05-01T11:36:40.371Z</time></trkpt><trkpt lat="45.6519783" lon="10.9986433"><ele>1211.0</ele><time>2026-05-01T11:36:41.371Z</time></trkpt><trkpt lat="45.6518683" lon="10.998535"><ele>1211.0</ele><time>2026-05-01T11:36:42.371Z</time></trkpt><trkpt lat="45.6517617" lon="10.9984317"><ele>1207.0</ele><time>2026-05-01T11:36:43.371Z</time></trkpt><trkpt lat="45.6516533" lon="10.9983133"><ele>1203.0</ele><time>2026-05-01T11:36:44.371Z</time></trkpt><trkpt lat="45.6515617" lon="10.99818"><ele>1199.0</ele><time>2026-05-01T11:36:45.37Z</time></trkpt><trkpt lat="45.65148" lon="10.9980433"><ele>1195.0</ele><time>2026-05-01T11:36:46.371Z</time></trkpt><trkpt lat="45.65141" lon="10.9979167"><ele>1195.0</ele><time>2026-05-01T11:36:47.371Z</time></trkpt><trkpt lat="45.651355" lon="10.9977617"><ele>1195.0</ele><time>2026-05-01T11:36:48.371Z</time></trkpt><trkpt lat="45.6513067" lon="10.9976033"><ele>1195.0</ele><time>2026-05-01T11:36:49.371Z</time></trkpt><trkpt lat="45.6512733" lon="10.9974367"><ele>1195.0</ele><time>2026-05-01T11:36:50.371Z</time></trkpt><trkpt lat="45.6512433" lon="10.9972617"><ele>1195.75</ele><time>2026-05-01T11:36:51.371Z</time></trkpt><trkpt lat="45.6512233" lon="10.9970967"><ele>1196.5</ele><time>2026-05-01T11:36:52.371Z</time></trkpt><trkpt lat="45.6512083" lon="10.9969317"><ele>1197.25</ele><time>2026-05-01T11:36:53.371Z</time></trkpt><trkpt lat="45.6511933" lon="10.99677"><ele>1198.0</ele><time>2026-05-01T11:36:54.371Z</time></trkpt><trkpt lat="45.6511833" lon="10.9966"><ele>1198.5</ele><time>2026-05-01T11:36:55.371Z</time></trkpt><trkpt lat="45.6511667" lon="10.9964333"><ele>1199.0</ele><time>2026-05-01T11:36:56.37Z</time></trkpt><trkpt lat="45.6511433" lon="10.996265"><ele>1199.5</ele><time>2026-05-01T11:36:57.371Z</time></trkpt><trkpt lat="45.6511217" lon="10.99609"><ele>1200.0</ele><time>2026-05-01T11:36:58.371Z</time></trkpt><trkpt lat="45.6511033" lon="10.9959117"><ele>1193.0</ele><time>2026-05-01T11:36:59.371Z</time></trkpt><trkpt lat="45.6510817" lon="10.9957283"><ele>1186.0</ele><time>2026-05-01T11:37:00.371Z</time></trkpt><trkpt lat="45.6510617" lon="10.9955467"><ele>1179.0</ele><time>2026-05-01T11:37:01.371Z</time></trkpt><trkpt lat="45.6510467" lon="10.99536"><ele>1172.0</ele><time>2026-05-01T11:37:02.371Z</time></trkpt><trkpt lat="45.65103" lon="10.9951733"><ele>1171.5</ele><time>2026-05-01T11:37:03.371Z</time></trkpt><trkpt lat="45.651015" lon="10.9949783"><ele>1171.0</ele><time>2026-05-01T11:37:04.371Z</time></trkpt><trkpt lat="45.6510117" lon="10.9948033"><ele>1170.5</ele><time>2026-05-01T11:37:05.371Z</time></trkpt><trkpt lat="45.6510017" lon="10.99464"><ele>1170.0</ele><time>2026-05-01T11:37:06.37Z</time></trkpt><trkpt lat="45.6509917" lon="10.9945067"><ele>1170.0</ele><time>2026-05-01T11:37:07.37Z</time></trkpt><trkpt lat="45.6509717" lon="10.994395"><ele>1170.0</ele><time>2026-05-01T11:37:08.371Z</time></trkpt><trkpt lat="45.6509233" lon="10.9943117"><ele>1170.0</ele><time>2026-05-01T11:37:09.371Z</time></trkpt><trkpt lat="45.65086" lon="10.9942833"><ele>1170.0</ele><time>2026-05-01T11:37:10.371Z</time></trkpt><trkpt lat="45.65076" lon="10.9943533"><ele>1170.0</ele><time>2026-05-01T11:37:12.371Z</time></trkpt><trkpt lat="45.65074" lon="10.9944533"><ele>1170.0</ele><time>2026-05-01T11:37:13.371Z</time></trkpt><trkpt lat="45.65075" lon="10.9945733"><ele>1170.0</ele><time>2026-05-01T11:37:14.371Z</time></trkpt><trkpt lat="45.6507817" lon="10.994705"><ele>1170.0</ele><time>2026-05-01T11:37:15.371Z</time></trkpt><trkpt lat="45.650825" lon="10.9948633"><ele>1170.0</ele><time>2026-05-01T11:37:16.371Z</time></trkpt><trkpt lat="45.650855" lon="10.9950217"><ele>1170.0</ele><time>2026-05-01T11:37:17.371Z</time></trkpt><trkpt lat="45.6508717" lon="10.9951933"><ele>1170.5</ele><time>2026-05-01T11:37:18.371Z</time></trkpt><trkpt lat="45.6508683" lon="10.9953783"><ele>1171.0</ele><time>2026-05-01T11:37:19.371Z</time></trkpt><trkpt lat="45.6508533" lon="10.9955683"><ele>1171.5</ele><time>2026-05-01T11:37:20.371Z</time></trkpt><trkpt lat="45.6508333" lon="10.9957633"><ele>1172.0</ele><time>2026-05-01T11:37:21.371Z</time></trkpt><trkpt lat="45.65081" lon="10.9959617"><ele>1172.0</ele><time>2026-05-01T11:37:22.371Z</time></trkpt><trkpt lat="45.6507883" lon="10.99616"><ele>1172.0</ele><time>2026-05-01T11:37:23.371Z</time></trkpt><trkpt lat="45.6507683" lon="10.996365"><ele>1172.0</ele><time>2026-05-01T11:37:24.371Z</time></trkpt><trkpt lat="45.650735" lon="10.9965533"><ele>1172.0</ele><time>2026-05-01T11:37:25.371Z</time></trkpt><trkpt lat="45.65069" lon="10.9967517"><ele>1174.0</ele><time>2026-05-01T11:37:26.37Z</time></trkpt><trkpt lat="45.65062" lon="10.9969517"><ele>1176.0</ele><time>2026-05-01T11:37:27.371Z</time></trkpt><trkpt lat="45.6505267" lon="10.9971667"><ele>1178.0</ele><time>2026-05-01T11:37:28.371Z</time></trkpt><trkpt lat="45.650425" lon="10.9973617"><ele>1179.6666666666667</ele><time>2026-05-01T11:37:29.371Z</time></trkpt><trkpt lat="45.650305" lon="10.9975333"><ele>1181.3333333333333</ele><time>2026-05-01T11:37:30.371Z</time></trkpt><trkpt lat="45.65018" lon="10.9976733"><ele>1183.0</ele><time>2026-05-01T11:37:31.371Z</time></trkpt><trkpt lat="45.6500333" lon="10.9977667"><ele>1178.6666666666665</ele><time>2026-05-01T11:37:32.371Z</time></trkpt><trkpt lat="45.6498783" lon="10.9978117"><ele>1174.3333333333333</ele><time>2026-05-01T11:37:33.371Z</time></trkpt><trkpt lat="45.6497217" lon="10.9978033"><ele>1170.0</ele><time>2026-05-01T11:37:34.371Z</time></trkpt><trkpt lat="45.6495683" lon="10.997725"><ele>1169.3333333333333</ele><time>2026-05-01T11:37:35.371Z</time></trkpt><trkpt lat="45.649405" lon="10.9976"><ele>1168.6666666666665</ele><time>2026-05-01T11:37:36.371Z</time></trkpt><trkpt lat="45.649255" lon="10.9974783"><ele>1168.0</ele><time>2026-05-01T11:37:37.371Z</time></trkpt><trkpt lat="45.64911" lon="10.9973683"><ele>1163.6666666666665</ele><time>2026-05-01T11:37:38.371Z</time></trkpt><trkpt lat="45.648955" lon="10.997285"><ele>1159.3333333333333</ele><time>2026-05-01T11:37:39.371Z</time></trkpt><trkpt lat="45.6487967" lon="10.9972217"><ele>1155.0</ele><time>2026-05-01T11:37:40.37Z</time></trkpt><trkpt lat="45.64864" lon="10.9971667"><ele>1154.25</ele><time>2026-05-01T11:37:41.371Z</time></trkpt><trkpt lat="45.6484867" lon="10.9971167"><ele>1153.5</ele><time>2026-05-01T11:37:42.371Z</time></trkpt><trkpt lat="45.648345" lon="10.9970933"><ele>1152.75</ele><time>2026-05-01T11:37:43.371Z</time></trkpt><trkpt lat="45.648225" lon="10.9971067"><ele>1152.0</ele><time>2026-05-01T11:37:44.371Z</time></trkpt><trkpt lat="45.6481033" lon="10.9971717"><ele>1152.0</ele><time>2026-05-01T11:37:45.37Z</time></trkpt><trkpt lat="45.6479867" lon="10.99728"><ele>1152.0</ele><time>2026-05-01T11:37:46.371Z</time></trkpt><trkpt lat="45.6478933" lon="10.9974067"><ele>1152.0</ele><time>2026-05-01T11:37:47.37Z</time></trkpt><trkpt lat="45.6478117" lon="10.9975433"><ele>1152.0</ele><time>2026-05-01T11:37:48.371Z</time></trkpt><trkpt lat="45.647765" lon="10.9976917"><ele>1153.0</ele><time>2026-05-01T11:37:49.371Z</time></trkpt><trkpt lat="45.64776" lon="10.997845"><ele>1154.0</ele><time>2026-05-01T11:37:50.371Z</time></trkpt><trkpt lat="45.6477917" lon="10.9979883"><ele>1155.0</ele><time>2026-05-01T11:37:51.371Z</time></trkpt><trkpt lat="45.6478367" lon="10.998135"><ele>1156.0</ele><time>2026-05-01T11:37:52.37Z</time></trkpt><trkpt lat="45.6478767" lon="10.998295"><ele>1157.0</ele><time>2026-05-01T11:37:53.371Z</time></trkpt><trkpt lat="45.6478733" lon="10.9984783"><ele>1157.5</ele><time>2026-05-01T11:37:54.371Z</time></trkpt><trkpt lat="45.647835" lon="10.99863"><ele>1158.0</ele><time>2026-05-01T11:37:55.37Z</time></trkpt><trkpt lat="45.6477567" lon="10.9987683"><ele>1158.5</ele><time>2026-05-01T11:37:56.371Z</time></trkpt><trkpt lat="45.6476583" lon="10.9988617"><ele>1159.0</ele><time>2026-05-01T11:37:57.37Z</time></trkpt><trkpt lat="45.64753" lon="10.9989167"><ele>1155.25</ele><time>2026-05-01T11:37:58.371Z</time></trkpt><trkpt lat="45.6473967" lon="10.9989167"><ele>1151.5</ele><time>2026-05-01T11:37:59.371Z</time></trkpt><trkpt lat="45.647265" lon="10.9988667"><ele>1147.75</ele><time>2026-05-01T11:38:00.371Z</time></trkpt><trkpt lat="45.6471433" lon="10.9988017"><ele>1144.0</ele><time>2026-05-01T11:38:01.371Z</time></trkpt><trkpt lat="45.6470283" lon="10.9987617"><ele>1142.4</ele><time>2026-05-01T11:38:02.371Z</time></trkpt><trkpt lat="45.646905" lon="10.9987467"><ele>1140.8000000000002</ele><time>2026-05-01T11:38:03.37Z</time></trkpt><trkpt lat="45.646795" lon="10.9987517"><ele>1139.1999999999998</ele><time>2026-05-01T11:38:04.371Z</time></trkpt><trkpt lat="45.6467" lon="10.9987717"><ele>1137.6</ele><time>2026-05-01T11:38:05.371Z</time></trkpt><trkpt lat="45.646615" lon="10.9988267"><ele>1136.0</ele><time>2026-05-01T11:38:06.371Z</time></trkpt><trkpt lat="45.6465483" lon="10.9989017"><ele>1136.0</ele><time>2026-05-01T11:38:07.371Z</time></trkpt><trkpt lat="45.6464933" lon="10.99899"><ele>1136.0</ele><time>2026-05-01T11:38:08.371Z</time></trkpt><trkpt lat="45.6464317" lon="10.9990717"><ele>1136.0</ele><time>2026-05-01T11:38:09.371Z</time></trkpt><trkpt lat="45.6463767" lon="10.9991533"><ele>1136.0</ele><time>2026-05-01T11:38:10.371Z</time></trkpt><trkpt lat="45.6463233" lon="10.9992283"><ele>1136.0</ele><time>2026-05-01T11:38:11.371Z</time></trkpt><trkpt lat="45.64627" lon="10.9992833"><ele>1136.0</ele><time>2026-05-01T11:38:12.371Z</time></trkpt><trkpt lat="45.6462083" lon="10.9993067"><ele>1136.2857142857142</ele><time>2026-05-01T11:38:13.371Z</time></trkpt><trkpt lat="45.646135" lon="10.9992883"><ele>1136.5714285714284</ele><time>2026-05-01T11:38:14.371Z</time></trkpt><trkpt lat="45.64607" lon="10.9992467"><ele>1136.857142857143</ele><time>2026-05-01T11:38:15.371Z</time></trkpt><trkpt lat="45.6460117" lon="10.9991767"><ele>1137.142857142857</ele><time>2026-05-01T11:38:16.371Z</time></trkpt><trkpt lat="45.6459667" lon="10.9990883"><ele>1137.4285714285716</ele><time>2026-05-01T11:38:17.371Z</time></trkpt><trkpt lat="45.6459267" lon="10.9990017"><ele>1137.7142857142858</ele><time>2026-05-01T11:38:18.371Z</time></trkpt><trkpt lat="45.64589" lon="10.9989117"><ele>1138.0</ele><time>2026-05-01T11:38:19.371Z</time></trkpt><trkpt lat="45.645855" lon="10.99882"><ele>1136.8333333333333</ele><time>2026-05-01T11:38:20.371Z</time></trkpt><trkpt lat="45.64581" lon="10.9987383"><ele>1135.6666666666665</ele><time>2026-05-01T11:38:21.371Z</time></trkpt><trkpt lat="45.6457533" lon="10.9986567"><ele>1134.5</ele><time>2026-05-01T11:38:22.371Z</time></trkpt><trkpt lat="45.6456883" lon="10.9985817"><ele>1133.3333333333333</ele><time>2026-05-01T11:38:23.371Z</time></trkpt><trkpt lat="45.6456167" lon="10.9984917"><ele>1132.1666666666667</ele><time>2026-05-01T11:38:24.371Z</time></trkpt><trkpt lat="45.64553" lon="10.9984017"><ele>1131.0</ele><time>2026-05-01T11:38:25.371Z</time></trkpt><trkpt lat="45.6454367" lon="10.9983233"><ele>1129.0</ele><time>2026-05-01T11:38:26.371Z</time></trkpt><trkpt lat="45.6453383" lon="10.99825"><ele>1127.0</ele><time>2026-05-01T11:38:27.371Z</time></trkpt><trkpt lat="45.6452333" lon="10.99819"><ele>1125.0</ele><time>2026-05-01T11:38:28.37Z</time></trkpt><trkpt lat="45.6451383" lon="10.9981567"><ele>1123.0</ele><time>2026-05-01T11:38:29.371Z</time></trkpt><trkpt lat="45.64505" lon="10.99814"><ele>1121.0</ele><time>2026-05-01T11:38:30.371Z</time></trkpt><trkpt lat="45.6449683" lon="10.9981433"><ele>1121.0</ele><time>2026-05-01T11:38:31.371Z</time></trkpt><trkpt lat="45.6448833" lon="10.9981583"><ele>1121.0</ele><time>2026-05-01T11:38:32.371Z</time></trkpt><trkpt lat="45.6448017" lon="10.9981833"><ele>1121.0</ele><time>2026-05-01T11:38:33.371Z</time></trkpt><trkpt lat="45.6447117" lon="10.9982167"><ele>1121.0</ele><time>2026-05-01T11:38:34.371Z</time></trkpt><trkpt lat="45.644625" lon="10.9982617"><ele>1121.0</ele><time>2026-05-01T11:38:35.37Z</time></trkpt><trkpt lat="45.6445267" lon="10.99831"><ele>1122.0</ele><time>2026-05-01T11:38:36.371Z</time></trkpt><trkpt lat="45.6444183" lon="10.998355"><ele>1123.0</ele><time>2026-05-01T11:38:37.371Z</time></trkpt><trkpt lat="45.6443133" lon="10.99839"><ele>1124.0</ele><time>2026-05-01T11:38:38.371Z</time></trkpt><trkpt lat="45.6442067" lon="10.99841"><ele>1125.0</ele><time>2026-05-01T11:38:39.371Z</time></trkpt><trkpt lat="45.6440917" lon="10.9984067"><ele>1126.0</ele><time>2026-05-01T11:38:40.371Z</time></trkpt><trkpt lat="45.6439867" lon="10.9983883"><ele>1126.0</ele><time>2026-05-01T11:38:41.371Z</time></trkpt><trkpt lat="45.6438783" lon="10.9983583"><ele>1126.0</ele><time>2026-05-01T11:38:42.37Z</time></trkpt><trkpt lat="45.6437733" lon="10.99833"><ele>1126.0</ele><time>2026-05-01T11:38:43.371Z</time></trkpt><trkpt lat="45.6436767" lon="10.9983333"><ele>1126.0</ele><time>2026-05-01T11:38:44.371Z</time></trkpt><trkpt lat="45.64358" lon="10.998375"><ele>1126.0</ele><time>2026-05-01T11:38:45.371Z</time></trkpt><trkpt lat="45.64349" lon="10.9984433"><ele>1124.75</ele><time>2026-05-01T11:38:46.37Z</time></trkpt><trkpt lat="45.6434083" lon="10.9985367"><ele>1123.5</ele><time>2026-05-01T11:38:47.371Z</time></trkpt><trkpt lat="45.6433417" lon="10.9986717"><ele>1122.25</ele><time>2026-05-01T11:38:48.371Z</time></trkpt><trkpt lat="45.6432883" lon="10.9988333"><ele>1121.0</ele><time>2026-05-01T11:38:49.371Z</time></trkpt><trkpt lat="45.64326" lon="10.9990117"><ele>1119.6</ele><time>2026-05-01T11:38:50.371Z</time></trkpt><trkpt lat="45.643245" lon="10.999185"><ele>1118.1999999999998</ele><time>2026-05-01T11:38:51.371Z</time></trkpt><trkpt lat="45.6432367" lon="10.9993483"><ele>1116.8000000000002</ele><time>2026-05-01T11:38:52.371Z</time></trkpt><trkpt lat="45.6432617" lon="10.9994933"><ele>1115.4</ele><time>2026-05-01T11:38:53.371Z</time></trkpt><trkpt lat="45.64331" lon="10.9996233"><ele>1114.0</ele><time>2026-05-01T11:38:54.371Z</time></trkpt><trkpt lat="45.6433867" lon="10.999735"><ele>1114.0</ele><time>2026-05-01T11:38:55.371Z</time></trkpt><trkpt lat="45.6434783" lon="10.9998267"><ele>1114.0</ele><time>2026-05-01T11:38:56.371Z</time></trkpt><trkpt lat="45.643565" lon="10.9999083"><ele>1114.0</ele><time>2026-05-01T11:38:57.371Z</time></trkpt><trkpt lat="45.643655" lon="10.9999967"><ele>1114.0</ele><time>2026-05-01T11:38:58.37Z</time></trkpt><trkpt lat="45.6437233" lon="11.0001233"><ele>1114.0</ele><time>2026-05-01T11:38:59.371Z</time></trkpt><trkpt lat="45.6437717" lon="11.0002667"><ele>1113.75</ele><time>2026-05-01T11:39:00.371Z</time></trkpt><trkpt lat="45.643805" lon="11.000415"><ele>1113.5</ele><time>2026-05-01T11:39:01.37Z</time></trkpt><trkpt lat="45.6438217" lon="11.0005783"><ele>1113.25</ele><time>2026-05-01T11:39:02.37Z</time></trkpt><trkpt lat="45.6438417" lon="11.00075"><ele>1113.0</ele><time>2026-05-01T11:39:03.37Z</time></trkpt><trkpt lat="45.6438783" lon="11.000915"><ele>1113.0</ele><time>2026-05-01T11:39:04.371Z</time></trkpt><trkpt lat="45.6439417" lon="11.0010567"><ele>1113.0</ele><time>2026-05-01T11:39:05.371Z</time></trkpt><trkpt lat="45.644035" lon="11.00115"><ele>1113.0</ele><time>2026-05-01T11:39:06.371Z</time></trkpt><trkpt lat="45.644165" lon="11.001175"><ele>1113.0</ele><time>2026-05-01T11:39:07.371Z</time></trkpt><trkpt lat="45.6442933" lon="11.0011417"><ele>1113.0</ele><time>2026-05-01T11:39:08.371Z</time></trkpt><trkpt lat="45.6444167" lon="11.00107"><ele>1113.0</ele><time>2026-05-01T11:39:09.371Z</time></trkpt><trkpt lat="45.6445367" lon="11.001005"><ele>1113.0</ele><time>2026-05-01T11:39:10.37Z</time></trkpt><trkpt lat="45.6446533" lon="11.000945"><ele>1113.0</ele><time>2026-05-01T11:39:11.37Z</time></trkpt><trkpt lat="45.6447817" lon="11.0009017"><ele>1114.5</ele><time>2026-05-01T11:39:12.371Z</time></trkpt><trkpt lat="45.6449117" lon="11.0008783"><ele>1116.0</ele><time>2026-05-01T11:39:13.371Z</time></trkpt><trkpt lat="45.6450433" lon="11.0008883"><ele>1117.5</ele><time>2026-05-01T11:39:14.371Z</time></trkpt><trkpt lat="45.6451567" lon="11.0009467"><ele>1119.0</ele><time>2026-05-01T11:39:15.371Z</time></trkpt><trkpt lat="45.645245" lon="11.001055"><ele>1119.0</ele><time>2026-05-01T11:39:16.371Z</time></trkpt><trkpt lat="45.6452933" lon="11.0012017"><ele>1119.0</ele><time>2026-05-01T11:39:17.371Z</time></trkpt><trkpt lat="45.6453" lon="11.00135"><ele>1119.0</ele><time>2026-05-01T11:39:18.371Z</time></trkpt><trkpt lat="45.6452683" lon="11.0015067"><ele>1119.0</ele><time>2026-05-01T11:39:19.371Z</time></trkpt><trkpt lat="45.6452183" lon="11.0016767"><ele>1117.25</ele><time>2026-05-01T11:39:20.371Z</time></trkpt><trkpt lat="45.6451567" lon="11.0018583"><ele>1115.5</ele><time>2026-05-01T11:39:21.371Z</time></trkpt><trkpt lat="45.645075" lon="11.0020417"><ele>1113.75</ele><time>2026-05-01T11:39:22.371Z</time></trkpt><trkpt lat="45.645015" lon="11.002235"><ele>1112.0</ele><time>2026-05-01T11:39:23.37Z</time></trkpt><trkpt lat="45.6449817" lon="11.00244"><ele>1112.0</ele><time>2026-05-01T11:39:24.371Z</time></trkpt><trkpt lat="45.6449783" lon="11.0026383"><ele>1112.0</ele><time>2026-05-01T11:39:25.371Z</time></trkpt><trkpt lat="45.645015" lon="11.0028133"><ele>1112.0</ele><time>2026-05-01T11:39:26.371Z</time></trkpt><trkpt lat="45.64508" lon="11.00295"><ele>1112.0</ele><time>2026-05-01T11:39:27.371Z</time></trkpt><trkpt lat="45.6451717" lon="11.00303"><ele>1112.0</ele><time>2026-05-01T11:39:28.371Z</time></trkpt><trkpt lat="45.6452767" lon="11.0030533"><ele>1112.0</ele><time>2026-05-01T11:39:29.371Z</time></trkpt><trkpt lat="45.6454033" lon="11.0029817"><ele>1112.0</ele><time>2026-05-01T11:39:30.371Z</time></trkpt><trkpt lat="45.64552" lon="11.0028467"><ele>1112.0</ele><time>2026-05-01T11:39:31.371Z</time></trkpt><trkpt lat="45.6456283" lon="11.0027283"><ele>1114.0</ele><time>2026-05-01T11:39:32.371Z</time></trkpt><trkpt lat="45.6457467" lon="11.002665"><ele>1116.0</ele><time>2026-05-01T11:39:33.371Z</time></trkpt><trkpt lat="45.6458733" lon="11.0026817"><ele>1118.0</ele><time>2026-05-01T11:39:34.371Z</time></trkpt><trkpt lat="45.6459783" lon="11.0027833"><ele>1120.0</ele><time>2026-05-01T11:39:35.371Z</time></trkpt><trkpt lat="45.64605" lon="11.00294"><ele>1120.0</ele><time>2026-05-01T11:39:36.371Z</time></trkpt><trkpt lat="45.6460967" lon="11.00314"><ele>1120.0</ele><time>2026-05-01T11:39:37.371Z</time></trkpt><trkpt lat="45.64614" lon="11.0033483"><ele>1120.0</ele><time>2026-05-01T11:39:38.371Z</time></trkpt><trkpt lat="45.6461817" lon="11.0035733"><ele>1121.6666666666665</ele><time>2026-05-01T11:39:39.371Z</time></trkpt><trkpt lat="45.64623" lon="11.00378"><ele>1123.3333333333333</ele><time>2026-05-01T11:39:40.371Z</time></trkpt><trkpt lat="45.6462917" lon="11.00398"><ele>1125.0</ele><time>2026-05-01T11:39:41.37Z</time></trkpt><trkpt lat="45.6463883" lon="11.0041617"><ele>1120.0</ele><time>2026-05-01T11:39:42.371Z</time></trkpt><trkpt lat="45.646505" lon="11.0043483"><ele>1115.0</ele><time>2026-05-01T11:39:43.37Z</time></trkpt><trkpt lat="45.6466433" lon="11.0045317"><ele>1110.0</ele><time>2026-05-01T11:39:44.37Z</time></trkpt><trkpt lat="45.6467967" lon="11.004715"><ele>1110.0</ele><time>2026-05-01T11:39:45.371Z</time></trkpt><trkpt lat="45.646945" lon="11.0048867"><ele>1110.0</ele><time>2026-05-01T11:39:46.371Z</time></trkpt><trkpt lat="45.6470917" lon="11.005045"><ele>1110.0</ele><time>2026-05-01T11:39:47.371Z</time></trkpt><trkpt lat="45.6472333" lon="11.0051783"><ele>1109.0</ele><time>2026-05-01T11:39:48.37Z</time></trkpt><trkpt lat="45.6473767" lon="11.0052983"><ele>1108.0</ele><time>2026-05-01T11:39:49.371Z</time></trkpt><trkpt lat="45.6475033" lon="11.0053917"><ele>1107.0</ele><time>2026-05-01T11:39:50.371Z</time></trkpt><trkpt lat="45.6476483" lon="11.0054233"><ele>1105.25</ele><time>2026-05-01T11:39:51.371Z</time></trkpt><trkpt lat="45.6477983" lon="11.0053867"><ele>1103.5</ele><time>2026-05-01T11:39:52.371Z</time></trkpt><trkpt lat="45.6479333" lon="11.0053033"><ele>1101.75</ele><time>2026-05-01T11:39:53.37Z</time></trkpt><trkpt lat="45.6480483" lon="11.00518"><ele>1100.0</ele><time>2026-05-01T11:39:54.37Z</time></trkpt><trkpt lat="45.6481433" lon="11.0050267"><ele>1102.4</ele><time>2026-05-01T11:39:55.371Z</time></trkpt><trkpt lat="45.64821" lon="11.0048583"><ele>1104.8</ele><time>2026-05-01T11:39:56.371Z</time></trkpt><trkpt lat="45.64827" lon="11.0047333"><ele>1107.2</ele><time>2026-05-01T11:39:57.371Z</time></trkpt><trkpt lat="45.6483533" lon="11.0046967"><ele>1109.6</ele><time>2026-05-01T11:39:58.371Z</time></trkpt><trkpt lat="45.648425" lon="11.0047233"><ele>1112.0</ele><time>2026-05-01T11:39:59.371Z</time></trkpt><trkpt lat="45.6484983" lon="11.00478"><ele>1112.0</ele><time>2026-05-01T11:40:00.371Z</time></trkpt><trkpt lat="45.6485817" lon="11.0048883"><ele>1112.0</ele><time>2026-05-01T11:40:01.371Z</time></trkpt><trkpt lat="45.64866" lon="11.005055"><ele>1112.0</ele><time>2026-05-01T11:40:02.371Z</time></trkpt><trkpt lat="45.64876" lon="11.0052783"><ele>1112.0</ele><time>2026-05-01T11:40:03.371Z</time></trkpt><trkpt lat="45.6488633" lon="11.0054767"><ele>1111.0</ele><time>2026-05-01T11:40:04.371Z</time></trkpt><trkpt lat="45.648975" lon="11.005625"><ele>1110.0</ele><time>2026-05-01T11:40:05.371Z</time></trkpt><trkpt lat="45.6491333" lon="11.0056867"><ele>1109.0</ele><time>2026-05-01T11:40:06.371Z</time></trkpt><trkpt lat="45.6493217" lon="11.0057083"><ele>1111.0</ele><time>2026-05-01T11:40:07.371Z</time></trkpt><trkpt lat="45.6495233" lon="11.0057183"><ele>1113.0</ele><time>2026-05-01T11:40:08.371Z</time></trkpt><trkpt lat="45.6497183" lon="11.0057183"><ele>1115.0</ele><time>2026-05-01T11:40:09.371Z</time></trkpt><trkpt lat="45.6498767" lon="11.0057483"><ele>1115.0</ele><time>2026-05-01T11:40:10.371Z</time></trkpt><trkpt lat="45.6500033" lon="11.005805"><ele>1115.0</ele><time>2026-05-01T11:40:11.371Z</time></trkpt><trkpt lat="45.650085" lon="11.0058983"><ele>1115.0</ele><time>2026-05-01T11:40:12.371Z</time></trkpt><trkpt lat="45.6501083" lon="11.006025"><ele>1115.0</ele><time>2026-05-01T11:40:13.371Z</time></trkpt><trkpt lat="45.650085" lon="11.00615"><ele>1115.0</ele><time>2026-05-01T11:40:14.371Z</time></trkpt><trkpt lat="45.6500283" lon="11.0062617"><ele>1108.0</ele><time>2026-05-01T11:40:15.371Z</time></trkpt><trkpt lat="45.6499383" lon="11.00635"><ele>1101.0</ele><time>2026-05-01T11:40:16.371Z</time></trkpt><trkpt lat="45.6498033" lon="11.0064567"><ele>1094.0</ele><time>2026-05-01T11:40:17.37Z</time></trkpt><trkpt lat="45.649675" lon="11.0065967"><ele>1087.0</ele><time>2026-05-01T11:40:18.371Z</time></trkpt><trkpt lat="45.6495767" lon="11.006775"><ele>1086.75</ele><time>2026-05-01T11:40:19.37Z</time></trkpt><trkpt lat="45.6495067" lon="11.0069433"><ele>1086.5</ele><time>2026-05-01T11:40:20.371Z</time></trkpt><trkpt lat="45.64948" lon="11.007105"><ele>1086.25</ele><time>2026-05-01T11:40:21.371Z</time></trkpt><trkpt lat="45.6494983" lon="11.0072417"><ele>1086.0</ele><time>2026-05-01T11:40:22.37Z</time></trkpt><trkpt lat="45.649575" lon="11.0073683"><ele>1086.0</ele><time>2026-05-01T11:40:23.371Z</time></trkpt><trkpt lat="45.6496967" lon="11.0074617"><ele>1086.0</ele><time>2026-05-01T11:40:24.371Z</time></trkpt><trkpt lat="45.6498483" lon="11.0075667"><ele>1086.0</ele><time>2026-05-01T11:40:25.37Z</time></trkpt><trkpt lat="45.650015" lon="11.0076767"><ele>1085.6666666666667</ele><time>2026-05-01T11:40:26.371Z</time></trkpt><trkpt lat="45.650185" lon="11.00779"><ele>1085.3333333333335</ele><time>2026-05-01T11:40:27.371Z</time></trkpt><trkpt lat="45.6503267" lon="11.0078917"><ele>1085.0</ele><time>2026-05-01T11:40:28.371Z</time></trkpt><trkpt lat="45.650495" lon="11.0079567"><ele>1084.25</ele><time>2026-05-01T11:40:29.371Z</time></trkpt><trkpt lat="45.65064" lon="11.0079967"><ele>1083.5</ele><time>2026-05-01T11:40:30.371Z</time></trkpt><trkpt lat="45.650775" lon="11.00802"><ele>1082.75</ele><time>2026-05-01T11:40:31.371Z</time></trkpt><trkpt lat="45.6508867" lon="11.0080933"><ele>1082.0</ele><time>2026-05-01T11:40:32.371Z</time></trkpt><trkpt lat="45.6509783" lon="11.0082217"><ele>1080.0</ele><time>2026-05-01T11:40:33.371Z</time></trkpt><trkpt lat="45.6510117" lon="11.0083783"><ele>1078.0</ele><time>2026-05-01T11:40:34.371Z</time></trkpt><trkpt lat="45.6509917" lon="11.0085633"><ele>1076.0</ele><time>2026-05-01T11:40:35.37Z</time></trkpt><trkpt lat="45.6509033" lon="11.0087583"><ele>1074.0</ele><time>2026-05-01T11:40:36.369Z</time></trkpt><trkpt lat="45.65081" lon="11.00896"><ele>1074.6666666666667</ele><time>2026-05-01T11:40:37.369Z</time></trkpt><trkpt lat="45.6507433" lon="11.00917"><ele>1075.3333333333335</ele><time>2026-05-01T11:40:38.37Z</time></trkpt><trkpt lat="45.6507033" lon="11.009405"><ele>1076.0</ele><time>2026-05-01T11:40:39.37Z</time></trkpt><trkpt lat="45.650695" lon="11.0096517"><ele>1076.0</ele><time>2026-05-01T11:40:40.37Z</time></trkpt><trkpt lat="45.6507033" lon="11.0098917"><ele>1076.0</ele><time>2026-05-01T11:40:41.37Z</time></trkpt><trkpt lat="45.650715" lon="11.010115"><ele>1076.0</ele><time>2026-05-01T11:40:42.37Z</time></trkpt><trkpt lat="45.6507467" lon="11.01031"><ele>1074.0</ele><time>2026-05-01T11:40:43.37Z</time></trkpt><trkpt lat="45.6508217" lon="11.01049"><ele>1072.0</ele><time>2026-05-01T11:40:44.369Z</time></trkpt><trkpt lat="45.650935" lon="11.010645"><ele>1070.0</ele><time>2026-05-01T11:40:45.37Z</time></trkpt><trkpt lat="45.6510717" lon="11.0107883"><ele>1079.0</ele><time>2026-05-01T11:40:46.37Z</time></trkpt><trkpt lat="45.6511883" lon="11.0109383"><ele>1088.0</ele><time>2026-05-01T11:40:47.369Z</time></trkpt><trkpt lat="45.6512733" lon="11.0111017"><ele>1097.0</ele><time>2026-05-01T11:40:48.37Z</time></trkpt><trkpt lat="45.6513567" lon="11.0112533"><ele>1106.0</ele><time>2026-05-01T11:40:49.37Z</time></trkpt><trkpt lat="45.65144" lon="11.0114233"><ele>1106.0</ele><time>2026-05-01T11:40:50.37Z</time></trkpt><trkpt lat="45.6515517" lon="11.01155"><ele>1106.0</ele><time>2026-05-01T11:40:51.37Z</time></trkpt><trkpt lat="45.6516583" lon="11.0116683"><ele>1106.0</ele><time>2026-05-01T11:40:52.37Z</time></trkpt><trkpt lat="45.6517417" lon="11.01181"><ele>1106.0</ele><time>2026-05-01T11:40:53.37Z</time></trkpt><trkpt lat="45.651795" lon="11.0119783"><ele>1096.75</ele><time>2026-05-01T11:40:54.37Z</time></trkpt><trkpt lat="45.6518033" lon="11.01217"><ele>1087.5</ele><time>2026-05-01T11:40:55.37Z</time></trkpt><trkpt lat="45.65177" lon="11.0123717"><ele>1078.25</ele><time>2026-05-01T11:40:56.37Z</time></trkpt><trkpt lat="45.6517367" lon="11.0125783"><ele>1069.0</ele><time>2026-05-01T11:40:57.37Z</time></trkpt><trkpt lat="45.65172" lon="11.0128"><ele>1062.0</ele><time>2026-05-01T11:40:58.37Z</time></trkpt><trkpt lat="45.65172" lon="11.013045"><ele>1055.0</ele><time>2026-05-01T11:40:59.37Z</time></trkpt><trkpt lat="45.65173" lon="11.01331"><ele>1048.0</ele><time>2026-05-01T11:41:00.37Z</time></trkpt><trkpt lat="45.6517433" lon="11.0135533"><ele>1045.6666666666665</ele><time>2026-05-01T11:41:01.37Z</time></trkpt><trkpt lat="45.6517583" lon="11.0137817"><ele>1043.3333333333333</ele><time>2026-05-01T11:41:02.37Z</time></trkpt><trkpt lat="45.65181" lon="11.0139983"><ele>1041.0</ele><time>2026-05-01T11:41:03.37Z</time></trkpt><trkpt lat="45.65189" lon="11.01419"><ele>1050.25</ele><time>2026-05-01T11:41:04.37Z</time></trkpt><trkpt lat="45.651985" lon="11.0143683"><ele>1059.5</ele><time>2026-05-01T11:41:05.37Z</time></trkpt><trkpt lat="45.6520633" lon="11.0145133"><ele>1068.75</ele><time>2026-05-01T11:41:06.369Z</time></trkpt><trkpt lat="45.6521867" lon="11.0146233"><ele>1078.0</ele><time>2026-05-01T11:41:07.37Z</time></trkpt><trkpt lat="45.6523433" lon="11.0146867"><ele>1078.0</ele><time>2026-05-01T11:41:08.37Z</time></trkpt><trkpt lat="45.652515" lon="11.01474"><ele>1078.0</ele><time>2026-05-01T11:41:09.37Z</time></trkpt><trkpt lat="45.6526817" lon="11.0147783"><ele>1078.0</ele><time>2026-05-01T11:41:10.37Z</time></trkpt><trkpt lat="45.6528667" lon="11.014855"><ele>1073.3333333333333</ele><time>2026-05-01T11:41:11.37Z</time></trkpt><trkpt lat="45.65305" lon="11.0149367"><ele>1068.6666666666667</ele><time>2026-05-01T11:41:12.37Z</time></trkpt><trkpt lat="45.6532067" lon="11.0150333"><ele>1064.0</ele><time>2026-05-01T11:41:13.37Z</time></trkpt><trkpt lat="45.6533467" lon="11.015145"><ele>1064.0</ele><time>2026-05-01T11:41:14.37Z</time></trkpt><trkpt lat="45.6534717" lon="11.0152917"><ele>1064.0</ele><time>2026-05-01T11:41:15.37Z</time></trkpt><trkpt lat="45.6535933" lon="11.015445"><ele>1064.0</ele><time>2026-05-01T11:41:16.37Z</time></trkpt><trkpt lat="45.653725" lon="11.0155883"><ele>1056.6666666666667</ele><time>2026-05-01T11:41:17.37Z</time></trkpt><trkpt lat="45.6538567" lon="11.015715"><ele>1049.3333333333333</ele><time>2026-05-01T11:41:18.37Z</time></trkpt><trkpt lat="45.6539933" lon="11.015835"><ele>1042.0</ele><time>2026-05-01T11:41:19.37Z</time></trkpt><trkpt lat="45.654135" lon="11.0159617"><ele>1042.0</ele><time>2026-05-01T11:41:20.37Z</time></trkpt><trkpt lat="45.6542783" lon="11.0160667"><ele>1042.0</ele><time>2026-05-01T11:41:21.37Z</time></trkpt><trkpt lat="45.654425" lon="11.0161317"><ele>1042.0</ele><time>2026-05-01T11:41:22.37Z</time></trkpt><trkpt lat="45.6545633" lon="11.016185"><ele>1047.5</ele><time>2026-05-01T11:41:23.37Z</time></trkpt><trkpt lat="45.6546967" lon="11.01621"><ele>1053.0</ele><time>2026-05-01T11:41:24.37Z</time></trkpt><trkpt lat="45.6548233" lon="11.0161917"><ele>1058.5</ele><time>2026-05-01T11:41:25.369Z</time></trkpt><trkpt lat="45.6549383" lon="11.0161483"><ele>1064.0</ele><time>2026-05-01T11:41:26.369Z</time></trkpt><trkpt lat="45.6550383" lon="11.016105"><ele>1064.0</ele><time>2026-05-01T11:41:27.37Z</time></trkpt><trkpt lat="45.655125" lon="11.0160583"><ele>1064.0</ele><time>2026-05-01T11:41:28.369Z</time></trkpt><trkpt lat="45.6552" lon="11.0160167"><ele>1064.0</ele><time>2026-05-01T11:41:29.37Z</time></trkpt><trkpt lat="45.655275" lon="11.0159783"><ele>1064.0</ele><time>2026-05-01T11:41:30.37Z</time></trkpt><trkpt lat="45.6553633" lon="11.0159433"><ele>1064.0</ele><time>2026-05-01T11:41:31.37Z</time></trkpt><trkpt lat="45.6554517" lon="11.015925"><ele>1064.0</ele><time>2026-05-01T11:41:32.37Z</time></trkpt><trkpt lat="45.655555" lon="11.01595"><ele>1062.2</ele><time>2026-05-01T11:41:33.37Z</time></trkpt><trkpt lat="45.655665" lon="11.01599"><ele>1060.4</ele><time>2026-05-01T11:41:34.37Z</time></trkpt><trkpt lat="45.6557717" lon="11.0160383"><ele>1058.6</ele><time>2026-05-01T11:41:35.37Z</time></trkpt><trkpt lat="45.65587" lon="11.0160833"><ele>1056.8</ele><time>2026-05-01T11:41:36.37Z</time></trkpt><trkpt lat="45.65596" lon="11.01611"><ele>1055.0</ele><time>2026-05-01T11:41:37.369Z</time></trkpt><trkpt lat="45.6560567" lon="11.0161567"><ele>1053.25</ele><time>2026-05-01T11:41:38.369Z</time></trkpt><trkpt lat="45.6561667" lon="11.01617"><ele>1051.5</ele><time>2026-05-01T11:41:39.37Z</time></trkpt><trkpt lat="45.6562767" lon="11.0161633"><ele>1049.75</ele><time>2026-05-01T11:41:40.37Z</time></trkpt><trkpt lat="45.6563867" lon="11.01613"><ele>1048.0</ele><time>2026-05-01T11:41:41.37Z</time></trkpt><trkpt lat="45.6565" lon="11.016085"><ele>1048.0</ele><time>2026-05-01T11:41:42.37Z</time></trkpt><trkpt lat="45.6566133" lon="11.0160383"><ele>1048.0</ele><time>2026-05-01T11:41:43.37Z</time></trkpt><trkpt lat="45.6567233" lon="11.0160117"><ele>1048.0</ele><time>2026-05-01T11:41:44.37Z</time></trkpt><trkpt lat="45.65683" lon="11.015995"><ele>1048.0</ele><time>2026-05-01T11:41:45.37Z</time></trkpt><trkpt lat="45.656935" lon="11.0160017"><ele>1048.0</ele><time>2026-05-01T11:41:46.37Z</time></trkpt><trkpt lat="45.6570217" lon="11.0160267"><ele>1049.0</ele><time>2026-05-01T11:41:47.37Z</time></trkpt><trkpt lat="45.6571017" lon="11.0160633"><ele>1050.0</ele><time>2026-05-01T11:41:48.369Z</time></trkpt><trkpt lat="45.6571733" lon="11.016085"><ele>1051.0</ele><time>2026-05-01T11:41:49.37Z</time></trkpt><trkpt lat="45.6572317" lon="11.0161417"><ele>1052.0</ele><time>2026-05-01T11:41:50.37Z</time></trkpt><trkpt lat="45.657285" lon="11.01622"><ele>1053.0</ele><time>2026-05-01T11:41:51.37Z</time></trkpt><trkpt lat="45.6573317" lon="11.016335"><ele>1054.0</ele><time>2026-05-01T11:41:52.369Z</time></trkpt><trkpt lat="45.6573533" lon="11.0164667"><ele>1054.0</ele><time>2026-05-01T11:41:53.37Z</time></trkpt><trkpt lat="45.6573683" lon="11.0165883"><ele>1054.0</ele><time>2026-05-01T11:41:54.369Z</time></trkpt><trkpt lat="45.6573767" lon="11.016695"><ele>1054.0</ele><time>2026-05-01T11:41:55.37Z</time></trkpt><trkpt lat="45.65738" lon="11.0167983"><ele>1054.0</ele><time>2026-05-01T11:41:56.37Z</time></trkpt><trkpt lat="45.65736" lon="11.0169733"><ele>1054.0</ele><time>2026-05-01T11:41:58.37Z</time></trkpt><trkpt lat="45.6572983" lon="11.0170483"><ele>1054.0</ele><time>2026-05-01T11:41:59.37Z</time></trkpt><trkpt lat="45.6572167" lon="11.0171267"><ele>1045.0</ele><time>2026-05-01T11:42:00.369Z</time></trkpt><trkpt lat="45.6571033" lon="11.0171933"><ele>1036.0</ele><time>2026-05-01T11:42:01.37Z</time></trkpt><trkpt lat="45.6569567" lon="11.0172517"><ele>1027.0</ele><time>2026-05-01T11:42:02.37Z</time></trkpt><trkpt lat="45.6567483" lon="11.0172783"><ele>1019.5</ele><time>2026-05-01T11:42:03.37Z</time></trkpt><trkpt lat="45.656515" lon="11.01731"><ele>1012.0</ele><time>2026-05-01T11:42:04.37Z</time></trkpt><trkpt lat="45.6562983" lon="11.0173517"><ele>1012.0</ele><time>2026-05-01T11:42:05.37Z</time></trkpt><trkpt lat="45.6560933" lon="11.0174"><ele>1012.0</ele><time>2026-05-01T11:42:06.37Z</time></trkpt><trkpt lat="45.65591" lon="11.0174333"><ele>1012.0</ele><time>2026-05-01T11:42:07.37Z</time></trkpt><trkpt lat="45.65574" lon="11.01749"><ele>1020.3333333333333</ele><time>2026-05-01T11:42:08.369Z</time></trkpt><trkpt lat="45.6555817" lon="11.0175417"><ele>1028.6666666666667</ele><time>2026-05-01T11:42:09.37Z</time></trkpt><trkpt lat="45.655445" lon="11.0176367"><ele>1037.0</ele><time>2026-05-01T11:42:10.37Z</time></trkpt><trkpt lat="45.65531" lon="11.017765"><ele>1029.0</ele><time>2026-05-01T11:42:11.37Z</time></trkpt><trkpt lat="45.6551567" lon="11.017925"><ele>1021.0</ele><time>2026-05-01T11:42:12.37Z</time></trkpt><trkpt lat="45.6549817" lon="11.018085"><ele>1013.0</ele><time>2026-05-01T11:42:13.369Z</time></trkpt><trkpt lat="45.6548117" lon="11.0182"><ele>1013.0</ele><time>2026-05-01T11:42:14.369Z</time></trkpt><trkpt lat="45.6546417" lon="11.0182667"><ele>1013.0</ele><time>2026-05-01T11:42:15.37Z</time></trkpt><trkpt lat="45.6544817" lon="11.0182967"><ele>1013.0</ele><time>2026-05-01T11:42:16.37Z</time></trkpt><trkpt lat="45.6543317" lon="11.01824"><ele>1013.0</ele><time>2026-05-01T11:42:17.369Z</time></trkpt><trkpt lat="45.65422" lon="11.0182033"><ele>1013.0</ele><time>2026-05-01T11:42:18.37Z</time></trkpt><trkpt lat="45.6541217" lon="11.018245"><ele>1013.0</ele><time>2026-05-01T11:42:19.37Z</time></trkpt><trkpt lat="45.6540283" lon="11.0183683"><ele>1013.0</ele><time>2026-05-01T11:42:20.37Z</time></trkpt><trkpt lat="45.6539467" lon="11.0185317"><ele>1023.3333333333334</ele><time>2026-05-01T11:42:21.37Z</time></trkpt><trkpt lat="45.65388" lon="11.0187483"><ele>1033.6666666666667</ele><time>2026-05-01T11:42:22.369Z</time></trkpt><trkpt lat="45.6538433" lon="11.0190117"><ele>1044.0</ele><time>2026-05-01T11:42:23.37Z</time></trkpt><trkpt lat="45.65383" lon="11.0192483"><ele>1047.6000000000001</ele><time>2026-05-01T11:42:24.37Z</time></trkpt><trkpt lat="45.6538067" lon="11.0194233"><ele>1051.2</ele><time>2026-05-01T11:42:25.37Z</time></trkpt><trkpt lat="45.653775" lon="11.019565"><ele>1054.8000000000002</ele><time>2026-05-01T11:42:26.37Z</time></trkpt><trkpt lat="45.6537383" lon="11.0196867"><ele>1058.4</ele><time>2026-05-01T11:42:27.37Z</time></trkpt><trkpt lat="45.653645" lon="11.0197817"><ele>1062.0</ele><time>2026-05-01T11:42:29.369Z</time></trkpt><trkpt lat="45.653515" lon="11.0197583"><ele>1062.0</ele><time>2026-05-01T11:42:31.369Z</time></trkpt><trkpt lat="45.6534567" lon="11.0196583"><ele>1062.0</ele><time>2026-05-01T11:42:32.37Z</time></trkpt><trkpt lat="45.6533783" lon="11.0194817"><ele>1062.0</ele><time>2026-05-01T11:42:33.37Z</time></trkpt><trkpt lat="45.6532733" lon="11.0192233"><ele>1062.0</ele><time>2026-05-01T11:42:34.37Z</time></trkpt><trkpt lat="45.6531233" lon="11.01888"><ele>1048.0</ele><time>2026-05-01T11:42:35.37Z</time></trkpt><trkpt lat="45.6529617" lon="11.0185733"><ele>1034.0</ele><time>2026-05-01T11:42:36.37Z</time></trkpt><trkpt lat="45.652835" lon="11.0183317"><ele>1038.3333333333335</ele><time>2026-05-01T11:42:37.37Z</time></trkpt><trkpt lat="45.6527317" lon="11.0181433"><ele>1042.6666666666667</ele><time>2026-05-01T11:42:38.369Z</time></trkpt><trkpt lat="45.6526267" lon="11.01798"><ele>1047.0</ele><time>2026-05-01T11:42:39.37Z</time></trkpt><trkpt lat="45.6524983" lon="11.0178333"><ele>1047.0</ele><time>2026-05-01T11:42:40.369Z</time></trkpt><trkpt lat="45.6523583" lon="11.0177183"><ele>1047.0</ele><time>2026-05-01T11:42:41.37Z</time></trkpt><trkpt lat="45.652185" lon="11.0176417"><ele>1047.0</ele><time>2026-05-01T11:42:42.37Z</time></trkpt><trkpt lat="45.6520117" lon="11.0175783"><ele>1054.0</ele><time>2026-05-01T11:42:43.37Z</time></trkpt><trkpt lat="45.6518333" lon="11.01752"><ele>1061.0</ele><time>2026-05-01T11:42:44.37Z</time></trkpt><trkpt lat="45.6516717" lon="11.0174967"><ele>1068.0</ele><time>2026-05-01T11:42:45.37Z</time></trkpt><trkpt lat="45.651515" lon="11.0175183"><ele>1068.0</ele><time>2026-05-01T11:42:46.37Z</time></trkpt><trkpt lat="45.651365" lon="11.0175667"><ele>1068.0</ele><time>2026-05-01T11:42:47.37Z</time></trkpt><trkpt lat="45.651215" lon="11.0176433"><ele>1068.0</ele><time>2026-05-01T11:42:48.37Z</time></trkpt><trkpt lat="45.6510867" lon="11.017715"><ele>1069.5</ele><time>2026-05-01T11:42:49.37Z</time></trkpt><trkpt lat="45.6509467" lon="11.0177317"><ele>1071.0</ele><time>2026-05-01T11:42:50.37Z</time></trkpt><trkpt lat="45.6508033" lon="11.0176767"><ele>1072.5</ele><time>2026-05-01T11:42:51.37Z</time></trkpt><trkpt lat="45.6506983" lon="11.01757"><ele>1074.0</ele><time>2026-05-01T11:42:52.37Z</time></trkpt><trkpt lat="45.6505983" lon="11.017425"><ele>1072.0</ele><time>2026-05-01T11:42:53.37Z</time></trkpt><trkpt lat="45.65047" lon="11.017265"><ele>1070.0</ele><time>2026-05-01T11:42:54.37Z</time></trkpt><trkpt lat="45.6503117" lon="11.0171417"><ele>1068.0</ele><time>2026-05-01T11:42:55.37Z</time></trkpt><trkpt lat="45.6501467" lon="11.0170533"><ele>1068.0</ele><time>2026-05-01T11:42:56.37Z</time></trkpt><trkpt lat="45.6499867" lon="11.0170083"><ele>1068.0</ele><time>2026-05-01T11:42:57.37Z</time></trkpt><trkpt lat="45.6498233" lon="11.017"><ele>1068.0</ele><time>2026-05-01T11:42:58.37Z</time></trkpt><trkpt lat="45.6496717" lon="11.0170433"><ele>1068.0</ele><time>2026-05-01T11:42:59.37Z</time></trkpt><trkpt lat="45.64955" lon="11.01715"><ele>1068.0</ele><time>2026-05-01T11:43:00.37Z</time></trkpt><trkpt lat="45.6494533" lon="11.0172883"><ele>1068.0</ele><time>2026-05-01T11:43:01.37Z</time></trkpt><trkpt lat="45.649405" lon="11.0174517"><ele>1068.0</ele><time>2026-05-01T11:43:02.37Z</time></trkpt><trkpt lat="45.649405" lon="11.01764"><ele>1070.3333333333333</ele><time>2026-05-01T11:43:03.37Z</time></trkpt><trkpt lat="45.6494033" lon="11.017845"><ele>1072.6666666666665</ele><time>2026-05-01T11:43:04.369Z</time></trkpt><trkpt lat="45.6493883" lon="11.018055"><ele>1075.0</ele><time>2026-05-01T11:43:05.37Z</time></trkpt><trkpt lat="45.6493367" lon="11.01827"><ele>1075.6666666666665</ele><time>2026-05-01T11:43:06.37Z</time></trkpt><trkpt lat="45.64925" lon="11.018445"><ele>1076.3333333333333</ele><time>2026-05-01T11:43:07.37Z</time></trkpt><trkpt lat="45.64911" lon="11.0185733"><ele>1077.0</ele><time>2026-05-01T11:43:08.369Z</time></trkpt><trkpt lat="45.6489433" lon="11.0186567"><ele>1077.0</ele><time>2026-05-01T11:43:09.37Z</time></trkpt><trkpt lat="45.64878" lon="11.0187233"><ele>1077.0</ele><time>2026-05-01T11:43:10.369Z</time></trkpt><trkpt lat="45.6486233" lon="11.0187833"><ele>1077.0</ele><time>2026-05-01T11:43:11.37Z</time></trkpt><trkpt lat="45.648475" lon="11.01885"><ele>1074.0</ele><time>2026-05-01T11:43:12.37Z</time></trkpt><trkpt lat="45.6483317" lon="11.01892"><ele>1071.0</ele><time>2026-05-01T11:43:13.369Z</time></trkpt><trkpt lat="45.6481883" lon="11.01899"><ele>1068.0</ele><time>2026-05-01T11:43:14.37Z</time></trkpt><trkpt lat="45.6480317" lon="11.01904"><ele>1068.0</ele><time>2026-05-01T11:43:15.37Z</time></trkpt><trkpt lat="45.647865" lon="11.019075"><ele>1068.0</ele><time>2026-05-01T11:43:16.369Z</time></trkpt><trkpt lat="45.6476867" lon="11.019075"><ele>1068.0</ele><time>2026-05-01T11:43:17.37Z</time></trkpt><trkpt lat="45.6474967" lon="11.01904"><ele>1067.3333333333333</ele><time>2026-05-01T11:43:18.37Z</time></trkpt><trkpt lat="45.6472867" lon="11.0189833"><ele>1066.6666666666665</ele><time>2026-05-01T11:43:19.37Z</time></trkpt><trkpt lat="45.6470733" lon="11.0188967"><ele>1066.0</ele><time>2026-05-01T11:43:20.37Z</time></trkpt><trkpt lat="45.6468717" lon="11.0188083"><ele>1066.0</ele><time>2026-05-01T11:43:21.37Z</time></trkpt><trkpt lat="45.64668" lon="11.0187333"><ele>1066.0</ele><time>2026-05-01T11:43:22.37Z</time></trkpt><trkpt lat="45.6465017" lon="11.01868"><ele>1066.0</ele><time>2026-05-01T11:43:23.37Z</time></trkpt><trkpt lat="45.6463317" lon="11.018635"><ele>1066.0</ele><time>2026-05-01T11:43:24.37Z</time></trkpt><trkpt lat="45.6461733" lon="11.018625"><ele>1066.0</ele><time>2026-05-01T11:43:25.37Z</time></trkpt><trkpt lat="45.646035" lon="11.0186967"><ele>1066.0</ele><time>2026-05-01T11:43:26.37Z</time></trkpt><trkpt lat="45.64589" lon="11.0188517"><ele>1064.6666666666665</ele><time>2026-05-01T11:43:27.37Z</time></trkpt><trkpt lat="45.6457483" lon="11.0190233"><ele>1063.3333333333333</ele><time>2026-05-01T11:43:28.37Z</time></trkpt><trkpt lat="45.64561" lon="11.019185"><ele>1062.0</ele><time>2026-05-01T11:43:29.37Z</time></trkpt><trkpt lat="45.6454833" lon="11.0193367"><ele>1067.25</ele><time>2026-05-01T11:43:30.37Z</time></trkpt><trkpt lat="45.645405" lon="11.0195067"><ele>1072.5</ele><time>2026-05-01T11:43:31.37Z</time></trkpt><trkpt lat="45.6453717" lon="11.0196883"><ele>1077.75</ele><time>2026-05-01T11:43:32.37Z</time></trkpt><trkpt lat="45.6454117" lon="11.0198833"><ele>1083.0</ele><time>2026-05-01T11:43:33.37Z</time></trkpt><trkpt lat="45.6454683" lon="11.0200817"><ele>1081.0</ele><time>2026-05-01T11:43:34.37Z</time></trkpt><trkpt lat="45.645495" lon="11.020285"><ele>1079.0</ele><time>2026-05-01T11:43:35.37Z</time></trkpt><trkpt lat="45.6454583" lon="11.0204933"><ele>1077.0</ele><time>2026-05-01T11:43:36.37Z</time></trkpt><trkpt lat="45.6453917" lon="11.0206833"><ele>1075.0</ele><time>2026-05-01T11:43:37.37Z</time></trkpt><trkpt lat="45.6452883" lon="11.02084"><ele>1075.0</ele><time>2026-05-01T11:43:38.37Z</time></trkpt><trkpt lat="45.6452267" lon="11.0210333"><ele>1075.0</ele><time>2026-05-01T11:43:39.37Z</time></trkpt><trkpt lat="45.645205" lon="11.0212633"><ele>1075.0</ele><time>2026-05-01T11:43:40.37Z</time></trkpt><trkpt lat="45.645185" lon="11.021495"><ele>1076.5</ele><time>2026-05-01T11:43:41.37Z</time></trkpt><trkpt lat="45.64515" lon="11.0217067"><ele>1078.0</ele><time>2026-05-01T11:43:42.37Z</time></trkpt><trkpt lat="45.6451033" lon="11.0218883"><ele>1079.5</ele><time>2026-05-01T11:43:43.37Z</time></trkpt><trkpt lat="45.64506" lon="11.0220867"><ele>1081.0</ele><time>2026-05-01T11:43:44.37Z</time></trkpt><trkpt lat="45.6450667" lon="11.0222917"><ele>1083.0</ele><time>2026-05-01T11:43:45.37Z</time></trkpt><trkpt lat="45.6450967" lon="11.022495"><ele>1085.0</ele><time>2026-05-01T11:43:46.37Z</time></trkpt><trkpt lat="45.6451717" lon="11.022685"><ele>1087.0</ele><time>2026-05-01T11:43:47.37Z</time></trkpt><trkpt lat="45.6452717" lon="11.0228533"><ele>1092.75</ele><time>2026-05-01T11:43:48.37Z</time></trkpt><trkpt lat="45.6453817" lon="11.0230033"><ele>1098.5</ele><time>2026-05-01T11:43:49.37Z</time></trkpt><trkpt lat="45.6454733" lon="11.0231333"><ele>1104.25</ele><time>2026-05-01T11:43:50.37Z</time></trkpt><trkpt lat="45.645555" lon="11.0232533"><ele>1110.0</ele><time>2026-05-01T11:43:51.37Z</time></trkpt><trkpt lat="45.6456217" lon="11.02339"><ele>1110.0</ele><time>2026-05-01T11:43:52.369Z</time></trkpt><trkpt lat="45.6456433" lon="11.0235417"><ele>1110.0</ele><time>2026-05-01T11:43:53.37Z</time></trkpt><trkpt lat="45.6456283" lon="11.0236883"><ele>1110.0</ele><time>2026-05-01T11:43:54.37Z</time></trkpt><trkpt lat="45.645565" lon="11.02383"><ele>1110.0</ele><time>2026-05-01T11:43:55.37Z</time></trkpt><trkpt lat="45.645485" lon="11.0239517"><ele>1110.0</ele><time>2026-05-01T11:43:56.37Z</time></trkpt><trkpt lat="45.6453967" lon="11.0240483"><ele>1105.75</ele><time>2026-05-01T11:43:57.37Z</time></trkpt><trkpt lat="45.6452933" lon="11.0241367"><ele>1101.5</ele><time>2026-05-01T11:43:58.37Z</time></trkpt><trkpt lat="45.6451967" lon="11.024235"><ele>1097.25</ele><time>2026-05-01T11:43:59.37Z</time></trkpt><trkpt lat="45.645085" lon="11.0243267"><ele>1093.0</ele><time>2026-05-01T11:44:00.37Z</time></trkpt><trkpt lat="45.644975" lon="11.0243917"><ele>1093.0</ele><time>2026-05-01T11:44:01.37Z</time></trkpt><trkpt lat="45.6448567" lon="11.0244117"><ele>1093.0</ele><time>2026-05-01T11:44:02.37Z</time></trkpt><trkpt lat="45.6447367" lon="11.0243883"><ele>1093.0</ele><time>2026-05-01T11:44:03.37Z</time></trkpt><trkpt lat="45.6446217" lon="11.0243667"><ele>1093.0</ele><time>2026-05-01T11:44:04.37Z</time></trkpt><trkpt lat="45.6445067" lon="11.0243667"><ele>1094.25</ele><time>2026-05-01T11:44:05.37Z</time></trkpt><trkpt lat="45.644395" lon="11.02439"><ele>1095.5</ele><time>2026-05-01T11:44:06.37Z</time></trkpt><trkpt lat="45.6442933" lon="11.0244467"><ele>1096.75</ele><time>2026-05-01T11:44:07.37Z</time></trkpt><trkpt lat="45.6441783" lon="11.0245467"><ele>1098.0</ele><time>2026-05-01T11:44:08.37Z</time></trkpt><trkpt lat="45.644045" lon="11.024695"><ele>1098.0</ele><time>2026-05-01T11:44:09.369Z</time></trkpt><trkpt lat="45.6438667" lon="11.02486"><ele>1098.0</ele><time>2026-05-01T11:44:10.37Z</time></trkpt><trkpt lat="45.6436683" lon="11.02503"><ele>1098.0</ele><time>2026-05-01T11:44:11.37Z</time></trkpt><trkpt lat="45.6434783" lon="11.0251967"><ele>1096.0</ele><time>2026-05-01T11:44:12.37Z</time></trkpt><trkpt lat="45.6432867" lon="11.0253533"><ele>1094.0</ele><time>2026-05-01T11:44:13.37Z</time></trkpt><trkpt lat="45.6430983" lon="11.0255283"><ele>1092.0</ele><time>2026-05-01T11:44:14.37Z</time></trkpt><trkpt lat="45.6429283" lon="11.0257317"><ele>1092.3333333333333</ele><time>2026-05-01T11:44:15.37Z</time></trkpt><trkpt lat="45.642775" lon="11.0259483"><ele>1092.6666666666665</ele><time>2026-05-01T11:44:16.37Z</time></trkpt><trkpt lat="45.6426217" lon="11.0261233"><ele>1093.0</ele><time>2026-05-01T11:44:17.37Z</time></trkpt><trkpt lat="45.6424583" lon="11.02625"><ele>1093.0</ele><time>2026-05-01T11:44:18.37Z</time></trkpt><trkpt lat="45.6422733" lon="11.0263483"><ele>1093.0</ele><time>2026-05-01T11:44:19.37Z</time></trkpt><trkpt lat="45.6420717" lon="11.0264267"><ele>1093.0</ele><time>2026-05-01T11:44:20.369Z</time></trkpt><trkpt lat="45.6418767" lon="11.0265383"><ele>1095.6666666666665</ele><time>2026-05-01T11:44:21.37Z</time></trkpt><trkpt lat="45.6416883" lon="11.0266467"><ele>1098.3333333333333</ele><time>2026-05-01T11:44:22.37Z</time></trkpt><trkpt lat="45.6415233" lon="11.02675"><ele>1101.0</ele><time>2026-05-01T11:44:23.37Z</time></trkpt><trkpt lat="45.6413867" lon="11.0268733"><ele>1101.0</ele><time>2026-05-01T11:44:24.37Z</time></trkpt><trkpt lat="45.6412617" lon="11.0270383"><ele>1101.0</ele><time>2026-05-01T11:44:25.37Z</time></trkpt><trkpt lat="45.64116" lon="11.0272617"><ele>1101.0</ele><time>2026-05-01T11:44:26.369Z</time></trkpt><trkpt lat="45.64106" lon="11.02751"><ele>1103.0</ele><time>2026-05-01T11:44:27.37Z</time></trkpt><trkpt lat="45.6409417" lon="11.02777"><ele>1105.0</ele><time>2026-05-01T11:44:28.37Z</time></trkpt><trkpt lat="45.6408467" lon="11.0280183"><ele>1107.0</ele><time>2026-05-01T11:44:29.37Z</time></trkpt><trkpt lat="45.640755" lon="11.0282483"><ele>1113.0</ele><time>2026-05-01T11:44:30.369Z</time></trkpt><trkpt lat="45.640675" lon="11.0284917"><ele>1119.0</ele><time>2026-05-01T11:44:31.37Z</time></trkpt><trkpt lat="45.6405783" lon="11.0287267"><ele>1125.0</ele><time>2026-05-01T11:44:32.37Z</time></trkpt><trkpt lat="45.6405117" lon="11.028995"><ele>1133.0</ele><time>2026-05-01T11:44:33.37Z</time></trkpt><trkpt lat="45.640455" lon="11.0293067"><ele>1141.0</ele><time>2026-05-01T11:44:34.37Z</time></trkpt><trkpt lat="45.640415" lon="11.0296383"><ele>1141.0</ele><time>2026-05-01T11:44:35.37Z</time></trkpt><trkpt lat="45.6404017" lon="11.0299583"><ele>1141.0</ele><time>2026-05-01T11:44:36.37Z</time></trkpt><trkpt lat="45.6403883" lon="11.0302533"><ele>1141.0</ele><time>2026-05-01T11:44:37.37Z</time></trkpt><trkpt lat="45.6403617" lon="11.03053"><ele>1144.6666666666665</ele><time>2026-05-01T11:44:38.37Z</time></trkpt><trkpt lat="45.640315" lon="11.03079"><ele>1148.3333333333333</ele><time>2026-05-01T11:44:39.37Z</time></trkpt><trkpt lat="45.64021" lon="11.0310167"><ele>1152.0</ele><time>2026-05-01T11:44:40.37Z</time></trkpt><trkpt lat="45.640065" lon="11.0311817"><ele>1143.3333333333333</ele><time>2026-05-01T11:44:41.37Z</time></trkpt><trkpt lat="45.639895" lon="11.0312733"><ele>1134.6666666666665</ele><time>2026-05-01T11:44:42.369Z</time></trkpt><trkpt lat="45.63969" lon="11.0313233"><ele>1126.0</ele><time>2026-05-01T11:44:43.37Z</time></trkpt><trkpt lat="45.6394983" lon="11.0313633"><ele>1130.3333333333333</ele><time>2026-05-01T11:44:44.369Z</time></trkpt><trkpt lat="45.6393417" lon="11.0313717"><ele>1134.6666666666667</ele><time>2026-05-01T11:44:45.369Z</time></trkpt><trkpt lat="45.6391917" lon="11.0313067"><ele>1139.0</ele><time>2026-05-01T11:44:46.369Z</time></trkpt><trkpt lat="45.6390567" lon="11.0311733"><ele>1139.0</ele><time>2026-05-01T11:44:47.37Z</time></trkpt><trkpt lat="45.6389383" lon="11.0310067"><ele>1139.0</ele><time>2026-05-01T11:44:48.37Z</time></trkpt><trkpt lat="45.638865" lon="11.0308617"><ele>1139.0</ele><time>2026-05-01T11:44:49.37Z</time></trkpt><trkpt lat="45.6388" lon="11.030755"><ele>1139.0</ele><time>2026-05-01T11:44:50.37Z</time></trkpt><trkpt lat="45.638735" lon="11.030675"><ele>1140.1666666666667</ele><time>2026-05-01T11:44:51.369Z</time></trkpt><trkpt lat="45.63866" lon="11.0306267"><ele>1141.3333333333335</ele><time>2026-05-01T11:44:52.37Z</time></trkpt><trkpt lat="45.6385883" lon="11.030615"><ele>1142.5</ele><time>2026-05-01T11:44:53.37Z</time></trkpt><trkpt lat="45.638515" lon="11.0306567"><ele>1143.6666666666667</ele><time>2026-05-01T11:44:54.37Z</time></trkpt><trkpt lat="45.638425" lon="11.0307433"><ele>1144.8333333333333</ele><time>2026-05-01T11:44:55.369Z</time></trkpt><trkpt lat="45.6383317" lon="11.0308133"><ele>1146.0</ele><time>2026-05-01T11:44:56.37Z</time></trkpt><trkpt lat="45.638235" lon="11.030875"><ele>1146.0</ele><time>2026-05-01T11:44:57.37Z</time></trkpt><trkpt lat="45.6381367" lon="11.0309333"><ele>1146.0</ele><time>2026-05-01T11:44:58.37Z</time></trkpt><trkpt lat="45.6380317" lon="11.03101"><ele>1146.0</ele><time>2026-05-01T11:44:59.37Z</time></trkpt><trkpt lat="45.6378967" lon="11.0310817"><ele>1146.0</ele><time>2026-05-01T11:45:00.37Z</time></trkpt><trkpt lat="45.6377583" lon="11.031165"><ele>1145.0</ele><time>2026-05-01T11:45:01.37Z</time></trkpt><trkpt lat="45.6376033" lon="11.0312467"><ele>1144.0</ele><time>2026-05-01T11:45:02.37Z</time></trkpt><trkpt lat="45.6374483" lon="11.031315"><ele>1143.0</ele><time>2026-05-01T11:45:03.37Z</time></trkpt><trkpt lat="45.6372817" lon="11.031365"><ele>1143.0</ele><time>2026-05-01T11:45:04.37Z</time></trkpt><trkpt lat="45.6370917" lon="11.031415"><ele>1143.0</ele><time>2026-05-01T11:45:05.37Z</time></trkpt><trkpt lat="45.6368833" lon="11.031465"><ele>1143.0</ele><time>2026-05-01T11:45:06.37Z</time></trkpt><trkpt lat="45.6366783" lon="11.0314933"><ele>1139.0</ele><time>2026-05-01T11:45:07.369Z</time></trkpt><trkpt lat="45.6364733" lon="11.03146"><ele>1135.0</ele><time>2026-05-01T11:45:08.368Z</time></trkpt><trkpt lat="45.63628" lon="11.03138"><ele>1131.0</ele><time>2026-05-01T11:45:09.369Z</time></trkpt><trkpt lat="45.6361067" lon="11.031335"><ele>1129.6666666666667</ele><time>2026-05-01T11:45:10.369Z</time></trkpt><trkpt lat="45.6359333" lon="11.0312617"><ele>1128.3333333333335</ele><time>2026-05-01T11:45:11.369Z</time></trkpt><trkpt lat="45.6357683" lon="11.0312217"><ele>1127.0</ele><time>2026-05-01T11:45:12.368Z</time></trkpt><trkpt lat="45.6356167" lon="11.0312267"><ele>1127.0</ele><time>2026-05-01T11:45:13.369Z</time></trkpt><trkpt lat="45.6354683" lon="11.0313117"><ele>1127.0</ele><time>2026-05-01T11:45:14.369Z</time></trkpt><trkpt lat="45.6353433" lon="11.0314583"><ele>1127.0</ele><time>2026-05-01T11:45:15.369Z</time></trkpt><trkpt lat="45.6352633" lon="11.0316233"><ele>1126.75</ele><time>2026-05-01T11:45:16.369Z</time></trkpt><trkpt lat="45.6352267" lon="11.03179"><ele>1126.5</ele><time>2026-05-01T11:45:17.369Z</time></trkpt><trkpt lat="45.63524" lon="11.0319533"><ele>1126.25</ele><time>2026-05-01T11:45:18.369Z</time></trkpt><trkpt lat="45.6353167" lon="11.0321183"><ele>1126.0</ele><time>2026-05-01T11:45:19.368Z</time></trkpt><trkpt lat="45.63546" lon="11.0322533"><ele>1131.6666666666665</ele><time>2026-05-01T11:45:20.369Z</time></trkpt><trkpt lat="45.6356033" lon="11.032385"><ele>1137.3333333333333</ele><time>2026-05-01T11:45:21.369Z</time></trkpt><trkpt lat="45.63573" lon="11.0325167"><ele>1143.0</ele><time>2026-05-01T11:45:22.369Z</time></trkpt><trkpt lat="45.6358233" lon="11.032675"><ele>1143.0</ele><time>2026-05-01T11:45:23.369Z</time></trkpt><trkpt lat="45.6358683" lon="11.032865"><ele>1143.0</ele><time>2026-05-01T11:45:24.368Z</time></trkpt><trkpt lat="45.6358617" lon="11.033065"><ele>1143.0</ele><time>2026-05-01T11:45:25.369Z</time></trkpt><trkpt lat="45.6358267" lon="11.033215"><ele>1143.0</ele><time>2026-05-01T11:45:26.369Z</time></trkpt><trkpt lat="45.6357267" lon="11.03328"><ele>1143.0</ele><time>2026-05-01T11:45:27.369Z</time></trkpt><trkpt lat="45.6356033" lon="11.03328"><ele>1143.0</ele><time>2026-05-01T11:45:28.369Z</time></trkpt><trkpt lat="45.6354667" lon="11.0332333"><ele>1143.0</ele><time>2026-05-01T11:45:29.369Z</time></trkpt><trkpt lat="45.6353117" lon="11.03317"><ele>1143.0</ele><time>2026-05-01T11:45:30.369Z</time></trkpt><trkpt lat="45.635155" lon="11.0331017"><ele>1138.0</ele><time>2026-05-01T11:45:31.369Z</time></trkpt><trkpt lat="45.6350117" lon="11.0330683"><ele>1133.0</ele><time>2026-05-01T11:45:32.369Z</time></trkpt><trkpt lat="45.6348717" lon="11.03303"><ele>1128.0</ele><time>2026-05-01T11:45:33.368Z</time></trkpt><trkpt lat="45.63473" lon="11.033"><ele>1123.0</ele><time>2026-05-01T11:45:34.368Z</time></trkpt><trkpt lat="45.6346" lon="11.033015"><ele>1120.75</ele><time>2026-05-01T11:45:35.369Z</time></trkpt><trkpt lat="45.63446" lon="11.0330517"><ele>1118.5</ele><time>2026-05-01T11:45:36.369Z</time></trkpt><trkpt lat="45.6343267" lon="11.0330533"><ele>1116.25</ele><time>2026-05-01T11:45:37.369Z</time></trkpt><trkpt lat="45.6341867" lon="11.032975"><ele>1114.0</ele><time>2026-05-01T11:45:38.369Z</time></trkpt><trkpt lat="45.6340417" lon="11.0328617"><ele>1114.0</ele><time>2026-05-01T11:45:39.369Z</time></trkpt><trkpt lat="45.633905" lon="11.032785"><ele>1114.0</ele><time>2026-05-01T11:45:40.369Z</time></trkpt><trkpt lat="45.6337683" lon="11.0327617"><ele>1114.0</ele><time>2026-05-01T11:45:41.369Z</time></trkpt><trkpt lat="45.6336333" lon="11.0328"><ele>1114.0</ele><time>2026-05-01T11:45:42.369Z</time></trkpt><trkpt lat="45.6334967" lon="11.0328617"><ele>1115.5</ele><time>2026-05-01T11:45:43.368Z</time></trkpt><trkpt lat="45.633365" lon="11.032875"><ele>1117.0</ele><time>2026-05-01T11:45:44.369Z</time></trkpt><trkpt lat="45.63325" lon="11.0328117"><ele>1118.5</ele><time>2026-05-01T11:45:45.369Z</time></trkpt><trkpt lat="45.6331717" lon="11.0326817"><ele>1120.0</ele><time>2026-05-01T11:45:46.369Z</time></trkpt><trkpt lat="45.6331583" lon="11.032495"><ele>1120.75</ele><time>2026-05-01T11:45:47.369Z</time></trkpt><trkpt lat="45.6331883" lon="11.0322967"><ele>1121.5</ele><time>2026-05-01T11:45:48.369Z</time></trkpt><trkpt lat="45.6332267" lon="11.032105"><ele>1122.25</ele><time>2026-05-01T11:45:49.369Z</time></trkpt><trkpt lat="45.6332667" lon="11.0319283"><ele>1123.0</ele><time>2026-05-01T11:45:50.368Z</time></trkpt><trkpt lat="45.6333017" lon="11.0317517"><ele>1120.25</ele><time>2026-05-01T11:45:51.369Z</time></trkpt><trkpt lat="45.6333317" lon="11.0315783"><ele>1117.5</ele><time>2026-05-01T11:45:52.369Z</time></trkpt><trkpt lat="45.6333817" lon="11.031405"><ele>1114.75</ele><time>2026-05-01T11:45:53.369Z</time></trkpt><trkpt lat="45.6334067" lon="11.03122"><ele>1112.0</ele><time>2026-05-01T11:45:54.369Z</time></trkpt><trkpt lat="45.6334033" lon="11.0310217"><ele>1112.0</ele><time>2026-05-01T11:45:55.369Z</time></trkpt><trkpt lat="45.633355" lon="11.0308617"><ele>1112.0</ele><time>2026-05-01T11:45:56.369Z</time></trkpt><trkpt lat="45.6332567" lon="11.0307417"><ele>1112.0</ele><time>2026-05-01T11:45:57.368Z</time></trkpt><trkpt lat="45.633135" lon="11.0306683"><ele>1112.0</ele><time>2026-05-01T11:45:58.369Z</time></trkpt><trkpt lat="45.6330083" lon="11.0306233"><ele>1109.75</ele><time>2026-05-01T11:45:59.369Z</time></trkpt><trkpt lat="45.632885" lon="11.030595"><ele>1107.5</ele><time>2026-05-01T11:46:00.369Z</time></trkpt><trkpt lat="45.6327667" lon="11.0305583"><ele>1105.25</ele><time>2026-05-01T11:46:01.369Z</time></trkpt><trkpt lat="45.6326467" lon="11.030515"><ele>1103.0</ele><time>2026-05-01T11:46:02.369Z</time></trkpt><trkpt lat="45.6325283" lon="11.0304767"><ele>1103.0</ele><time>2026-05-01T11:46:03.369Z</time></trkpt><trkpt lat="45.6324067" lon="11.0304517"><ele>1103.0</ele><time>2026-05-01T11:46:04.369Z</time></trkpt><trkpt lat="45.6322833" lon="11.0304383"><ele>1103.0</ele><time>2026-05-01T11:46:05.369Z</time></trkpt><trkpt lat="45.6321617" lon="11.0304333"><ele>1103.0</ele><time>2026-05-01T11:46:06.369Z</time></trkpt><trkpt lat="45.6320383" lon="11.0304183"><ele>1104.5</ele><time>2026-05-01T11:46:07.369Z</time></trkpt><trkpt lat="45.63191" lon="11.030365"><ele>1106.0</ele><time>2026-05-01T11:46:08.369Z</time></trkpt><trkpt lat="45.6317883" lon="11.030285"><ele>1107.5</ele><time>2026-05-01T11:46:09.369Z</time></trkpt><trkpt lat="45.6316667" lon="11.03018"><ele>1109.0</ele><time>2026-05-01T11:46:10.369Z</time></trkpt><trkpt lat="45.6315467" lon="11.0300517"><ele>1109.75</ele><time>2026-05-01T11:46:11.368Z</time></trkpt><trkpt lat="45.631425" lon="11.0299283"><ele>1110.5</ele><time>2026-05-01T11:46:12.369Z</time></trkpt><trkpt lat="45.6312817" lon="11.0298383"><ele>1111.25</ele><time>2026-05-01T11:46:13.368Z</time></trkpt><trkpt lat="45.6311383" lon="11.029835"><ele>1112.0</ele><time>2026-05-01T11:46:14.369Z</time></trkpt><trkpt lat="45.63102" lon="11.0299133"><ele>1110.3333333333335</ele><time>2026-05-01T11:46:15.369Z</time></trkpt><trkpt lat="45.6309333" lon="11.0300683"><ele>1108.6666666666667</ele><time>2026-05-01T11:46:16.369Z</time></trkpt><trkpt lat="45.6308617" lon="11.0302667"><ele>1107.0</ele><time>2026-05-01T11:46:17.369Z</time></trkpt><trkpt lat="45.630765" lon="11.0304567"><ele>1107.0</ele><time>2026-05-01T11:46:18.368Z</time></trkpt><trkpt lat="45.6306383" lon="11.030625"><ele>1107.0</ele><time>2026-05-01T11:46:19.369Z</time></trkpt><trkpt lat="45.6304817" lon="11.0307667"><ele>1107.0</ele><time>2026-05-01T11:46:20.369Z</time></trkpt><trkpt lat="45.630315" lon="11.0308717"><ele>1107.0</ele><time>2026-05-01T11:46:21.369Z</time></trkpt><trkpt lat="45.6301583" lon="11.0309333"><ele>1107.0</ele><time>2026-05-01T11:46:22.369Z</time></trkpt><trkpt lat="45.63001" lon="11.030985"><ele>1107.0</ele><time>2026-05-01T11:46:23.369Z</time></trkpt><trkpt lat="45.62989" lon="11.03107"><ele>1107.0</ele><time>2026-05-01T11:46:24.369Z</time></trkpt><trkpt lat="45.6297933" lon="11.0312117"><ele>1107.0</ele><time>2026-05-01T11:46:25.368Z</time></trkpt><trkpt lat="45.6297467" lon="11.03141"><ele>1107.0</ele><time>2026-05-01T11:46:26.368Z</time></trkpt><trkpt lat="45.6297033" lon="11.0316183"><ele>1107.0</ele><time>2026-05-01T11:46:27.369Z</time></trkpt><trkpt lat="45.6296417" lon="11.031805"><ele>1107.0</ele><time>2026-05-01T11:46:28.368Z</time></trkpt><trkpt lat="45.62954" lon="11.031935"><ele>1106.25</ele><time>2026-05-01T11:46:29.368Z</time></trkpt><trkpt lat="45.62941" lon="11.031995"><ele>1105.5</ele><time>2026-05-01T11:46:30.369Z</time></trkpt><trkpt lat="45.6292667" lon="11.0319933"><ele>1104.75</ele><time>2026-05-01T11:46:31.369Z</time></trkpt><trkpt lat="45.6291517" lon="11.03194"><ele>1104.0</ele><time>2026-05-01T11:46:32.368Z</time></trkpt><trkpt lat="45.6290433" lon="11.0319017"><ele>1104.0</ele><time>2026-05-01T11:46:33.369Z</time></trkpt><trkpt lat="45.6289367" lon="11.0319083"><ele>1104.0</ele><time>2026-05-01T11:46:34.369Z</time></trkpt><trkpt lat="45.6288333" lon="11.03197"><ele>1104.0</ele><time>2026-05-01T11:46:35.369Z</time></trkpt><trkpt lat="45.6287317" lon="11.0320683"><ele>1104.0</ele><time>2026-05-01T11:46:36.369Z</time></trkpt><trkpt lat="45.6286383" lon="11.0321933"><ele>1104.5</ele><time>2026-05-01T11:46:37.369Z</time></trkpt><trkpt lat="45.62856" lon="11.0323433"><ele>1105.0</ele><time>2026-05-01T11:46:38.369Z</time></trkpt><trkpt lat="45.6284783" lon="11.0324733"><ele>1105.5</ele><time>2026-05-01T11:46:39.369Z</time></trkpt><trkpt lat="45.6284033" lon="11.03258"><ele>1106.0</ele><time>2026-05-01T11:46:40.369Z</time></trkpt><trkpt lat="45.6283167" lon="11.0326317"><ele>1106.0</ele><time>2026-05-01T11:46:41.368Z</time></trkpt><trkpt lat="45.6282267" lon="11.0326133"><ele>1106.0</ele><time>2026-05-01T11:46:42.368Z</time></trkpt><trkpt lat="45.62815" lon="11.0325767"><ele>1106.0</ele><time>2026-05-01T11:46:43.369Z</time></trkpt><trkpt lat="45.6280767" lon="11.0325117"><ele>1106.0</ele><time>2026-05-01T11:46:44.369Z</time></trkpt><trkpt lat="45.62801" lon="11.032385"><ele>1106.0</ele><time>2026-05-01T11:46:45.369Z</time></trkpt><trkpt lat="45.6279467" lon="11.0322233"><ele>1106.0</ele><time>2026-05-01T11:46:46.369Z</time></trkpt><trkpt lat="45.6278783" lon="11.032075"><ele>1106.0</ele><time>2026-05-01T11:46:47.369Z</time></trkpt><trkpt lat="45.6278" lon="11.0319667"><ele>1106.0</ele><time>2026-05-01T11:46:48.369Z</time></trkpt><trkpt lat="45.627715" lon="11.0319083"><ele>1106.0</ele><time>2026-05-01T11:46:49.369Z</time></trkpt><trkpt lat="45.62763" lon="11.03189"><ele>1106.0</ele><time>2026-05-01T11:46:50.369Z</time></trkpt><trkpt lat="45.6275517" lon="11.0319317"><ele>1107.0</ele><time>2026-05-01T11:46:51.369Z</time></trkpt><trkpt lat="45.6274767" lon="11.0320267"><ele>1108.0</ele><time>2026-05-01T11:46:52.369Z</time></trkpt><trkpt lat="45.627425" lon="11.0321783"><ele>1109.0</ele><time>2026-05-01T11:46:53.369Z</time></trkpt><trkpt lat="45.6273633" lon="11.0323467"><ele>1110.0</ele><time>2026-05-01T11:46:54.369Z</time></trkpt><trkpt lat="45.6272817" lon="11.0325217"><ele>1111.0</ele><time>2026-05-01T11:46:55.369Z</time></trkpt><trkpt lat="45.6271667" lon="11.032675"><ele>1112.0</ele><time>2026-05-01T11:46:56.369Z</time></trkpt><trkpt lat="45.6270333" lon="11.0328"><ele>1113.0</ele><time>2026-05-01T11:46:57.368Z</time></trkpt><trkpt lat="45.6268967" lon="11.0329017"><ele>1113.0</ele><time>2026-05-01T11:46:58.369Z</time></trkpt><trkpt lat="45.6267483" lon="11.0329517"><ele>1113.0</ele><time>2026-05-01T11:46:59.369Z</time></trkpt><trkpt lat="45.626625" lon="11.0329833"><ele>1113.0</ele><time>2026-05-01T11:47:00.369Z</time></trkpt><trkpt lat="45.6264883" lon="11.0330517"><ele>1113.0</ele><time>2026-05-01T11:47:01.369Z</time></trkpt><trkpt lat="45.6263633" lon="11.0331917"><ele>1113.0</ele><time>2026-05-01T11:47:02.369Z</time></trkpt><trkpt lat="45.6262333" lon="11.03329"><ele>1113.0</ele><time>2026-05-01T11:47:03.369Z</time></trkpt><trkpt lat="45.6261117" lon="11.0333383"><ele>1113.0</ele><time>2026-05-01T11:47:04.369Z</time></trkpt><trkpt lat="45.6259683" lon="11.0333333"><ele>1113.0</ele><time>2026-05-01T11:47:05.369Z</time></trkpt><trkpt lat="45.625845" lon="11.033275"><ele>1111.75</ele><time>2026-05-01T11:47:06.368Z</time></trkpt><trkpt lat="45.6257467" lon="11.0331583"><ele>1110.5</ele><time>2026-05-01T11:47:07.369Z</time></trkpt><trkpt lat="45.6256783" lon="11.0330233"><ele>1109.25</ele><time>2026-05-01T11:47:08.369Z</time></trkpt><trkpt lat="45.6256233" lon="11.0328817"><ele>1108.0</ele><time>2026-05-01T11:47:09.368Z</time></trkpt><trkpt lat="45.62556" lon="11.032765"><ele>1108.0</ele><time>2026-05-01T11:47:10.369Z</time></trkpt><trkpt lat="45.6254833" lon="11.0326717"><ele>1108.0</ele><time>2026-05-01T11:47:11.369Z</time></trkpt><trkpt lat="45.6254017" lon="11.0326483"><ele>1108.0</ele><time>2026-05-01T11:47:12.369Z</time></trkpt><trkpt lat="45.6253133" lon="11.032655"><ele>1108.0</ele><time>2026-05-01T11:47:13.369Z</time></trkpt><trkpt lat="45.6252317" lon="11.0326667"><ele>1108.0</ele><time>2026-05-01T11:47:14.369Z</time></trkpt><trkpt lat="45.6251633" lon="11.0326533"><ele>1108.0</ele><time>2026-05-01T11:47:15.368Z</time></trkpt><trkpt lat="45.6250967" lon="11.0326267"><ele>1108.0</ele><time>2026-05-01T11:47:16.369Z</time></trkpt><trkpt lat="45.6250317" lon="11.032615"><ele>1108.0</ele><time>2026-05-01T11:47:17.369Z</time></trkpt><trkpt lat="45.624955" lon="11.032665"><ele>1108.0</ele><time>2026-05-01T11:47:19.368Z</time></trkpt><trkpt lat="45.6250183" lon="11.0327233"><ele>1108.0</ele><time>2026-05-01T11:47:21.369Z</time></trkpt><trkpt lat="45.6250967" lon="11.032745"><ele>1108.0</ele><time>2026-05-01T11:47:22.369Z</time></trkpt><trkpt lat="45.625205" lon="11.0327333"><ele>1108.0</ele><time>2026-05-01T11:47:23.369Z</time></trkpt><trkpt lat="45.6253283" lon="11.0327183"><ele>1108.0</ele><time>2026-05-01T11:47:24.369Z</time></trkpt><trkpt lat="45.62543" lon="11.03274"><ele>1108.0</ele><time>2026-05-01T11:47:25.369Z</time></trkpt><trkpt lat="45.6254983" lon="11.0328217"><ele>1108.0</ele><time>2026-05-01T11:47:26.369Z</time></trkpt><trkpt lat="45.625555" lon="11.03294"><ele>1108.0</ele><time>2026-05-01T11:47:27.369Z</time></trkpt><trkpt lat="45.6255967" lon="11.0331067"><ele>1108.0</ele><time>2026-05-01T11:47:28.369Z</time></trkpt><trkpt lat="45.6256517" lon="11.03329"><ele>1112.5</ele><time>2026-05-01T11:47:29.369Z</time></trkpt><trkpt lat="45.62571" lon="11.033455"><ele>1117.0</ele><time>2026-05-01T11:47:30.369Z</time></trkpt><trkpt lat="45.6257983" lon="11.0335833"><ele>1121.5</ele><time>2026-05-01T11:47:31.368Z</time></trkpt><trkpt lat="45.6258967" lon="11.033645"><ele>1126.0</ele><time>2026-05-01T11:47:32.369Z</time></trkpt><trkpt lat="45.6260133" lon="11.0336433"><ele>1126.0</ele><time>2026-05-01T11:47:33.369Z</time></trkpt><trkpt lat="45.626115" lon="11.0336483"><ele>1126.0</ele><time>2026-05-01T11:47:34.369Z</time></trkpt><trkpt lat="45.6262117" lon="11.03369"><ele>1126.0</ele><time>2026-05-01T11:47:35.369Z</time></trkpt><trkpt lat="45.6263033" lon="11.033785"><ele>1126.0</ele><time>2026-05-01T11:47:36.368Z</time></trkpt><trkpt lat="45.62639" lon="11.0338933"><ele>1126.0</ele><time>2026-05-01T11:47:37.368Z</time></trkpt><trkpt lat="45.6264767" lon="11.033995"><ele>1127.3333333333333</ele><time>2026-05-01T11:47:38.369Z</time></trkpt><trkpt lat="45.6265367" lon="11.034095"><ele>1128.6666666666665</ele><time>2026-05-01T11:47:39.369Z</time></trkpt><trkpt lat="45.6265817" lon="11.0341733"><ele>1130.0</ele><time>2026-05-01T11:47:40.368Z</time></trkpt><trkpt lat="45.62661" lon="11.034255"><ele>1131.3333333333333</ele><time>2026-05-01T11:47:41.369Z</time></trkpt><trkpt lat="45.6266417" lon="11.03434"><ele>1132.6666666666667</ele><time>2026-05-01T11:47:42.369Z</time></trkpt><trkpt lat="45.62668" lon="11.03446"><ele>1134.0</ele><time>2026-05-01T11:47:43.369Z</time></trkpt><trkpt lat="45.62674" lon="11.0346067"><ele>1136.25</ele><time>2026-05-01T11:47:44.369Z</time></trkpt><trkpt lat="45.6268117" lon="11.0347667"><ele>1138.5</ele><time>2026-05-01T11:47:45.369Z</time></trkpt><trkpt lat="45.6269017" lon="11.0349133"><ele>1140.75</ele><time>2026-05-01T11:47:46.368Z</time></trkpt><trkpt lat="45.6270283" lon="11.0350333"><ele>1143.0</ele><time>2026-05-01T11:47:47.369Z</time></trkpt><trkpt lat="45.6271967" lon="11.035125"><ele>1144.6666666666667</ele><time>2026-05-01T11:47:48.369Z</time></trkpt><trkpt lat="45.62738" lon="11.0351967"><ele>1146.3333333333335</ele><time>2026-05-01T11:47:49.369Z</time></trkpt><trkpt lat="45.6275683" lon="11.0352167"><ele>1148.0</ele><time>2026-05-01T11:47:50.369Z</time></trkpt><trkpt lat="45.6277667" lon="11.0351983"><ele>1151.3333333333335</ele><time>2026-05-01T11:47:51.369Z</time></trkpt><trkpt lat="45.6279633" lon="11.0351433"><ele>1154.6666666666667</ele><time>2026-05-01T11:47:52.369Z</time></trkpt><trkpt lat="45.62814" lon="11.0350717"><ele>1158.0</ele><time>2026-05-01T11:47:53.369Z</time></trkpt><trkpt lat="45.6282883" lon="11.0350367"><ele>1158.0</ele><time>2026-05-01T11:47:54.369Z</time></trkpt><trkpt lat="45.628365" lon="11.03505"><ele>1158.0</ele><time>2026-05-01T11:47:55.369Z</time></trkpt><trkpt lat="45.6284333" lon="11.0351017"><ele>1158.0</ele><time>2026-05-01T11:47:56.369Z</time></trkpt><trkpt lat="45.6284033" lon="11.0352933"><ele>1158.0</ele><time>2026-05-01T11:47:58.369Z</time></trkpt><trkpt lat="45.628345" lon="11.0354283"><ele>1158.0</ele><time>2026-05-01T11:47:59.369Z</time></trkpt><trkpt lat="45.6282633" lon="11.0355917"><ele>1158.0</ele><time>2026-05-01T11:48:00.369Z</time></trkpt><trkpt lat="45.6281617" lon="11.0357933"><ele>1158.0</ele><time>2026-05-01T11:48:01.369Z</time></trkpt><trkpt lat="45.6280617" lon="11.0360017"><ele>1158.0</ele><time>2026-05-01T11:48:02.369Z</time></trkpt><trkpt lat="45.6279817" lon="11.0361833"><ele>1159.0</ele><time>2026-05-01T11:48:03.369Z</time></trkpt><trkpt lat="45.6279433" lon="11.036355"><ele>1160.0</ele><time>2026-05-01T11:48:04.368Z</time></trkpt><trkpt lat="45.6279183" lon="11.036525"><ele>1161.0</ele><time>2026-05-01T11:48:05.369Z</time></trkpt><trkpt lat="45.6279367" lon="11.0366583"><ele>1162.0</ele><time>2026-05-01T11:48:06.369Z</time></trkpt><trkpt lat="45.6279983" lon="11.0367517"><ele>1163.0</ele><time>2026-05-01T11:48:07.369Z</time></trkpt><trkpt lat="45.6280867" lon="11.0367933"><ele>1163.0</ele><time>2026-05-01T11:48:08.368Z</time></trkpt><trkpt lat="45.6282067" lon="11.0368283"><ele>1163.0</ele><time>2026-05-01T11:48:09.369Z</time></trkpt><trkpt lat="45.6283733" lon="11.036845"><ele>1163.0</ele><time>2026-05-01T11:48:10.369Z</time></trkpt><trkpt lat="45.6285583" lon="11.0368883"><ele>1167.5</ele><time>2026-05-01T11:48:11.369Z</time></trkpt><trkpt lat="45.628705" lon="11.037"><ele>1172.0</ele><time>2026-05-01T11:48:12.369Z</time></trkpt><trkpt lat="45.6287733" lon="11.037155"><ele>1176.5</ele><time>2026-05-01T11:48:13.369Z</time></trkpt><trkpt lat="45.628785" lon="11.0373283"><ele>1181.0</ele><time>2026-05-01T11:48:14.369Z</time></trkpt><trkpt lat="45.6287667" lon="11.0375383"><ele>1181.0</ele><time>2026-05-01T11:48:15.369Z</time></trkpt><trkpt lat="45.62873" lon="11.0377567"><ele>1181.0</ele><time>2026-05-01T11:48:16.369Z</time></trkpt><trkpt lat="45.6286967" lon="11.03796"><ele>1181.0</ele><time>2026-05-01T11:48:17.369Z</time></trkpt><trkpt lat="45.6286683" lon="11.0381417"><ele>1181.0</ele><time>2026-05-01T11:48:18.369Z</time></trkpt><trkpt lat="45.6286833" lon="11.0383017"><ele>1180.0</ele><time>2026-05-01T11:48:19.369Z</time></trkpt><trkpt lat="45.6287533" lon="11.0384133"><ele>1179.0</ele><time>2026-05-01T11:48:20.369Z</time></trkpt><trkpt lat="45.6288717" lon="11.03847"><ele>1178.0</ele><time>2026-05-01T11:48:21.369Z</time></trkpt><trkpt lat="45.629025" lon="11.03849"><ele>1177.0</ele><time>2026-05-01T11:48:22.369Z</time></trkpt><trkpt lat="45.629205" lon="11.0385033"><ele>1177.0</ele><time>2026-05-01T11:48:23.369Z</time></trkpt><trkpt lat="45.6294017" lon="11.0385183"><ele>1177.0</ele><time>2026-05-01T11:48:24.369Z</time></trkpt><trkpt lat="45.6296083" lon="11.0385283"><ele>1177.0</ele><time>2026-05-01T11:48:25.369Z</time></trkpt><trkpt lat="45.629825" lon="11.0385233"><ele>1182.0</ele><time>2026-05-01T11:48:26.369Z</time></trkpt><trkpt lat="45.6300417" lon="11.0385217"><ele>1187.0</ele><time>2026-05-01T11:48:27.369Z</time></trkpt><trkpt lat="45.6302367" lon="11.0385333"><ele>1192.0</ele><time>2026-05-01T11:48:28.369Z</time></trkpt><trkpt lat="45.630425" lon="11.0385317"><ele>1194.6666666666665</ele><time>2026-05-01T11:48:29.368Z</time></trkpt><trkpt lat="45.6306033" lon="11.038525"><ele>1197.3333333333333</ele><time>2026-05-01T11:48:30.368Z</time></trkpt><trkpt lat="45.630765" lon="11.0385367"><ele>1200.0</ele><time>2026-05-01T11:48:31.369Z</time></trkpt><trkpt lat="45.6309233" lon="11.038565"><ele>1200.0</ele><time>2026-05-01T11:48:32.368Z</time></trkpt><trkpt lat="45.6310867" lon="11.0386033"><ele>1200.0</ele><time>2026-05-01T11:48:33.369Z</time></trkpt><trkpt lat="45.6312667" lon="11.0386417"><ele>1200.0</ele><time>2026-05-01T11:48:34.368Z</time></trkpt><trkpt lat="45.63144" lon="11.0387083"><ele>1203.0</ele><time>2026-05-01T11:48:35.369Z</time></trkpt><trkpt lat="45.6316467" lon="11.0387967"><ele>1206.0</ele><time>2026-05-01T11:48:36.369Z</time></trkpt><trkpt lat="45.631855" lon="11.03887"><ele>1209.0</ele><time>2026-05-01T11:48:37.369Z</time></trkpt><trkpt lat="45.6320667" lon="11.0389667"><ele>1211.3333333333333</ele><time>2026-05-01T11:48:38.369Z</time></trkpt><trkpt lat="45.6322467" lon="11.03904"><ele>1213.6666666666665</ele><time>2026-05-01T11:48:39.368Z</time></trkpt><trkpt lat="45.6324167" lon="11.039095"><ele>1216.0</ele><time>2026-05-01T11:48:40.369Z</time></trkpt><trkpt lat="45.632575" lon="11.0391583"><ele>1215.25</ele><time>2026-05-01T11:48:41.369Z</time></trkpt><trkpt lat="45.63272" lon="11.0392183"><ele>1214.5</ele><time>2026-05-01T11:48:42.369Z</time></trkpt><trkpt lat="45.6328483" lon="11.0392833"><ele>1213.75</ele><time>2026-05-01T11:48:43.369Z</time></trkpt><trkpt lat="45.63297" lon="11.0393667"><ele>1213.0</ele><time>2026-05-01T11:48:44.368Z</time></trkpt><trkpt lat="45.6330883" lon="11.039465"><ele>1213.0</ele><time>2026-05-01T11:48:45.369Z</time></trkpt><trkpt lat="45.6332033" lon="11.039585"><ele>1213.0</ele><time>2026-05-01T11:48:46.369Z</time></trkpt><trkpt lat="45.6333117" lon="11.0397267"><ele>1213.0</ele><time>2026-05-01T11:48:47.369Z</time></trkpt><trkpt lat="45.6334483" lon="11.0398917"><ele>1209.5</ele><time>2026-05-01T11:48:48.369Z</time></trkpt><trkpt lat="45.6336117" lon="11.0400833"><ele>1206.0</ele><time>2026-05-01T11:48:49.369Z</time></trkpt><trkpt lat="45.63391" lon="11.0404733"><ele>1212.3333333333333</ele><time>2026-05-01T11:48:51.369Z</time></trkpt><trkpt lat="45.634055" lon="11.04062"><ele>1218.6666666666665</ele><time>2026-05-01T11:48:52.369Z</time></trkpt><trkpt lat="45.6342183" lon="11.0407283"><ele>1225.0</ele><time>2026-05-01T11:48:53.369Z</time></trkpt><trkpt lat="45.6344033" lon="11.040775"><ele>1225.0</ele><time>2026-05-01T11:48:54.369Z</time></trkpt><trkpt lat="45.6345867" lon="11.0407783"><ele>1225.0</ele><time>2026-05-01T11:48:55.369Z</time></trkpt><trkpt lat="45.6347733" lon="11.0408017"><ele>1225.0</ele><time>2026-05-01T11:48:56.369Z</time></trkpt><trkpt lat="45.63494" lon="11.0408767"><ele>1225.0</ele><time>2026-05-01T11:48:57.369Z</time></trkpt><trkpt lat="45.635085" lon="11.04101"><ele>1225.0</ele><time>2026-05-01T11:48:58.369Z</time></trkpt><trkpt lat="45.6352067" lon="11.0411933"><ele>1225.0</ele><time>2026-05-01T11:48:59.369Z</time></trkpt><trkpt lat="45.63531" lon="11.0413883"><ele>1231.3333333333333</ele><time>2026-05-01T11:49:00.369Z</time></trkpt><trkpt lat="45.6354317" lon="11.0415833"><ele>1237.6666666666667</ele><time>2026-05-01T11:49:01.369Z</time></trkpt><trkpt lat="45.6355767" lon="11.0417683"><ele>1244.0</ele><time>2026-05-01T11:49:02.369Z</time></trkpt><trkpt lat="45.6357483" lon="11.0419533"><ele>1244.0</ele><time>2026-05-01T11:49:03.369Z</time></trkpt><trkpt lat="45.6359483" lon="11.0421233"><ele>1244.0</ele><time>2026-05-01T11:49:04.369Z</time></trkpt><trkpt lat="45.6361683" lon="11.0422817"><ele>1243.0</ele><time>2026-05-01T11:49:05.369Z</time></trkpt><trkpt lat="45.6364183" lon="11.042435"><ele>1242.0</ele><time>2026-05-01T11:49:06.369Z</time></trkpt><trkpt lat="45.6366933" lon="11.04261"><ele>1255.5</ele><time>2026-05-01T11:49:07.369Z</time></trkpt><trkpt lat="45.63699" lon="11.0427917"><ele>1269.0</ele><time>2026-05-01T11:49:08.368Z</time></trkpt><trkpt lat="45.6372883" lon="11.0429717"><ele>1269.0</ele><time>2026-05-01T11:49:09.368Z</time></trkpt><trkpt lat="45.6375733" lon="11.0431383"><ele>1269.0</ele><time>2026-05-01T11:49:10.369Z</time></trkpt><trkpt lat="45.6378483" lon="11.0433167"><ele>1263.5</ele><time>2026-05-01T11:49:11.369Z</time></trkpt><trkpt lat="45.638115" lon="11.043485"><ele>1258.0</ele><time>2026-05-01T11:49:12.369Z</time></trkpt><trkpt lat="45.638375" lon="11.0436533"><ele>1258.0</ele><time>2026-05-01T11:49:13.368Z</time></trkpt><trkpt lat="45.6386267" lon="11.0438267"><ele>1258.0</ele><time>2026-05-01T11:49:14.369Z</time></trkpt><trkpt lat="45.63887" lon="11.0439967"><ele>1254.5</ele><time>2026-05-01T11:49:15.369Z</time></trkpt><trkpt lat="45.6391167" lon="11.04416"><ele>1251.0</ele><time>2026-05-01T11:49:16.369Z</time></trkpt><trkpt lat="45.6393567" lon="11.0443267"><ele>1261.5</ele><time>2026-05-01T11:49:17.369Z</time></trkpt><trkpt lat="45.639595" lon="11.0444983"><ele>1272.0</ele><time>2026-05-01T11:49:18.368Z</time></trkpt><trkpt lat="45.63984" lon="11.044665"><ele>1272.0</ele><time>2026-05-01T11:49:19.369Z</time></trkpt><trkpt lat="45.64011" lon="11.0448233"><ele>1272.0</ele><time>2026-05-01T11:49:20.369Z</time></trkpt><trkpt lat="45.640375" lon="11.044935"><ele>1266.0</ele><time>2026-05-01T11:49:21.368Z</time></trkpt><trkpt lat="45.6406217" lon="11.0450533"><ele>1260.0</ele><time>2026-05-01T11:49:22.369Z</time></trkpt><trkpt lat="45.6408517" lon="11.0451883"><ele>1260.0</ele><time>2026-05-01T11:49:23.369Z</time></trkpt><trkpt lat="45.641075" lon="11.0453467"><ele>1260.0</ele><time>2026-05-01T11:49:24.368Z</time></trkpt><trkpt lat="45.6412917" lon="11.0455167"><ele>1271.0</ele><time>2026-05-01T11:49:25.368Z</time></trkpt><trkpt lat="45.6415033" lon="11.0456817"><ele>1282.0</ele><time>2026-05-01T11:49:26.369Z</time></trkpt><trkpt lat="45.6417067" lon="11.0457917"><ele>1278.3333333333333</ele><time>2026-05-01T11:49:27.369Z</time></trkpt><trkpt lat="45.6419017" lon="11.04588"><ele>1274.6666666666667</ele><time>2026-05-01T11:49:28.368Z</time></trkpt><trkpt lat="45.6420917" lon="11.04594"><ele>1271.0</ele><time>2026-05-01T11:49:29.369Z</time></trkpt><trkpt lat="45.6422583" lon="11.046"><ele>1271.0</ele><time>2026-05-01T11:49:30.369Z</time></trkpt><trkpt lat="45.6424033" lon="11.0460917"><ele>1271.0</ele><time>2026-05-01T11:49:31.368Z</time></trkpt><trkpt lat="45.6424933" lon="11.0462567"><ele>1271.0</ele><time>2026-05-01T11:49:32.369Z</time></trkpt><trkpt lat="45.6425617" lon="11.0464833"><ele>1265.3333333333335</ele><time>2026-05-01T11:49:33.368Z</time></trkpt><trkpt lat="45.6426" lon="11.04673"><ele>1259.6666666666667</ele><time>2026-05-01T11:49:34.368Z</time></trkpt><trkpt lat="45.6426133" lon="11.04699"><ele>1254.0</ele><time>2026-05-01T11:49:35.369Z</time></trkpt><trkpt lat="45.6426117" lon="11.0472633"><ele>1252.0</ele><time>2026-05-01T11:49:36.369Z</time></trkpt><trkpt lat="45.6425933" lon="11.0475133"><ele>1250.0</ele><time>2026-05-01T11:49:37.369Z</time></trkpt><trkpt lat="45.6425733" lon="11.0477333"><ele>1248.0</ele><time>2026-05-01T11:49:38.369Z</time></trkpt><trkpt lat="45.6425483" lon="11.04794"><ele>1248.0</ele><time>2026-05-01T11:49:39.369Z</time></trkpt><trkpt lat="45.6425417" lon="11.0481033"><ele>1248.0</ele><time>2026-05-01T11:49:40.369Z</time></trkpt><trkpt lat="45.6425617" lon="11.0482583"><ele>1248.0</ele><time>2026-05-01T11:49:41.369Z</time></trkpt><trkpt lat="45.642615" lon="11.0483683"><ele>1248.0</ele><time>2026-05-01T11:49:42.369Z</time></trkpt><trkpt lat="45.64269" lon="11.0484267"><ele>1248.0</ele><time>2026-05-01T11:49:43.369Z</time></trkpt><trkpt lat="45.6427933" lon="11.0484417"><ele>1251.0</ele><time>2026-05-01T11:49:44.368Z</time></trkpt><trkpt lat="45.6429317" lon="11.0484117"><ele>1254.0</ele><time>2026-05-01T11:49:45.369Z</time></trkpt><trkpt lat="45.6430867" lon="11.0483783"><ele>1257.0</ele><time>2026-05-01T11:49:46.368Z</time></trkpt><trkpt lat="45.6432517" lon="11.0483583"><ele>1257.0</ele><time>2026-05-01T11:49:47.369Z</time></trkpt><trkpt lat="45.64343" lon="11.0483367"><ele>1257.0</ele><time>2026-05-01T11:49:48.369Z</time></trkpt><trkpt lat="45.6436117" lon="11.0483217"><ele>1257.0</ele><time>2026-05-01T11:49:49.369Z</time></trkpt><trkpt lat="45.6438017" lon="11.0483183"><ele>1260.3333333333333</ele><time>2026-05-01T11:49:50.369Z</time></trkpt><trkpt lat="45.64401" lon="11.0483217"><ele>1263.6666666666665</ele><time>2026-05-01T11:49:51.369Z</time></trkpt><trkpt lat="45.6442133" lon="11.0483317"><ele>1267.0</ele><time>2026-05-01T11:49:52.368Z</time></trkpt><trkpt lat="45.6444033" lon="11.0483517"><ele>1268.0</ele><time>2026-05-01T11:49:53.367Z</time></trkpt><trkpt lat="45.64459" lon="11.048365"><ele>1269.0</ele><time>2026-05-01T11:49:54.368Z</time></trkpt><trkpt lat="45.644765" lon="11.0483733"><ele>1270.0</ele><time>2026-05-01T11:49:55.368Z</time></trkpt><trkpt lat="45.644935" lon="11.0483833"><ele>1270.0</ele><time>2026-05-01T11:49:56.368Z</time></trkpt><trkpt lat="45.6451083" lon="11.0483967"><ele>1270.0</ele><time>2026-05-01T11:49:57.368Z</time></trkpt><trkpt lat="45.64529" lon="11.0484083"><ele>1270.0</ele><time>2026-05-01T11:49:58.368Z</time></trkpt><trkpt lat="45.6454717" lon="11.04842"><ele>1272.0</ele><time>2026-05-01T11:49:59.368Z</time></trkpt><trkpt lat="45.645655" lon="11.0484183"><ele>1274.0</ele><time>2026-05-01T11:50:00.368Z</time></trkpt><trkpt lat="45.6458417" lon="11.048395"><ele>1276.0</ele><time>2026-05-01T11:50:01.367Z</time></trkpt><trkpt lat="45.64603" lon="11.04835"><ele>1283.0</ele><time>2026-05-01T11:50:02.368Z</time></trkpt><trkpt lat="45.6462217" lon="11.04829"><ele>1290.0</ele><time>2026-05-01T11:50:03.368Z</time></trkpt><trkpt lat="45.6464117" lon="11.048225"><ele>1297.0</ele><time>2026-05-01T11:50:04.368Z</time></trkpt><trkpt lat="45.6465933" lon="11.0481717"><ele>1297.0</ele><time>2026-05-01T11:50:05.368Z</time></trkpt><trkpt lat="45.6467917" lon="11.04814"><ele>1297.0</ele><time>2026-05-01T11:50:06.368Z</time></trkpt><trkpt lat="45.6469833" lon="11.0481467"><ele>1297.0</ele><time>2026-05-01T11:50:07.368Z</time></trkpt><trkpt lat="45.647175" lon="11.048185"><ele>1299.3333333333333</ele><time>2026-05-01T11:50:08.368Z</time></trkpt><trkpt lat="45.6473667" lon="11.04825"><ele>1301.6666666666667</ele><time>2026-05-01T11:50:09.368Z</time></trkpt><trkpt lat="45.6475583" lon="11.0483267"><ele>1304.0</ele><time>2026-05-01T11:50:10.368Z</time></trkpt><trkpt lat="45.6477233" lon="11.0484033"><ele>1293.6666666666667</ele><time>2026-05-01T11:50:11.367Z</time></trkpt><trkpt lat="45.6478867" lon="11.048475"><ele>1283.3333333333333</ele><time>2026-05-01T11:50:12.368Z</time></trkpt><trkpt lat="45.6480583" lon="11.0485583"><ele>1273.0</ele><time>2026-05-01T11:50:13.368Z</time></trkpt><trkpt lat="45.6482467" lon="11.0486083"><ele>1273.0</ele><time>2026-05-01T11:50:14.368Z</time></trkpt><trkpt lat="45.6484317" lon="11.0486183"><ele>1273.0</ele><time>2026-05-01T11:50:15.368Z</time></trkpt><trkpt lat="45.6486033" lon="11.0486317"><ele>1273.0</ele><time>2026-05-01T11:50:16.368Z</time></trkpt><trkpt lat="45.6487783" lon="11.0486367"><ele>1272.25</ele><time>2026-05-01T11:50:17.367Z</time></trkpt><trkpt lat="45.6489383" lon="11.0486567"><ele>1271.5</ele><time>2026-05-01T11:50:18.368Z</time></trkpt><trkpt lat="45.6490667" lon="11.048695"><ele>1270.75</ele><time>2026-05-01T11:50:19.368Z</time></trkpt><trkpt lat="45.649175" lon="11.0487767"><ele>1270.0</ele><time>2026-05-01T11:50:20.368Z</time></trkpt><trkpt lat="45.6492683" lon="11.0489"><ele>1270.0</ele><time>2026-05-01T11:50:21.368Z</time></trkpt><trkpt lat="45.6493417" lon="11.0490533"><ele>1270.0</ele><time>2026-05-01T11:50:22.368Z</time></trkpt><trkpt lat="45.6493717" lon="11.0492283"><ele>1270.0</ele><time>2026-05-01T11:50:23.367Z</time></trkpt><trkpt lat="45.6493717" lon="11.04942"><ele>1270.0</ele><time>2026-05-01T11:50:24.368Z</time></trkpt><trkpt lat="45.6493833" lon="11.0496283"><ele>1267.0</ele><time>2026-05-01T11:50:25.368Z</time></trkpt><trkpt lat="45.6494117" lon="11.04982"><ele>1264.0</ele><time>2026-05-01T11:50:26.368Z</time></trkpt><trkpt lat="45.6494833" lon="11.0500033"><ele>1261.0</ele><time>2026-05-01T11:50:27.368Z</time></trkpt><trkpt lat="45.6495883" lon="11.0501267"><ele>1258.0</ele><time>2026-05-01T11:50:28.368Z</time></trkpt><trkpt lat="45.64971" lon="11.05022"><ele>1258.0</ele><time>2026-05-01T11:50:29.368Z</time></trkpt><trkpt lat="45.64985" lon="11.0503017"><ele>1258.0</ele><time>2026-05-01T11:50:30.368Z</time></trkpt><trkpt lat="45.6500017" lon="11.0503617"><ele>1258.0</ele><time>2026-05-01T11:50:31.368Z</time></trkpt><trkpt lat="45.6501683" lon="11.050405"><ele>1262.3333333333333</ele><time>2026-05-01T11:50:32.368Z</time></trkpt><trkpt lat="45.650345" lon="11.0504517"><ele>1266.6666666666667</ele><time>2026-05-01T11:50:33.367Z</time></trkpt><trkpt lat="45.650535" lon="11.0505083"><ele>1271.0</ele><time>2026-05-01T11:50:34.368Z</time></trkpt><trkpt lat="45.65072" lon="11.05056"><ele>1271.0</ele><time>2026-05-01T11:50:35.367Z</time></trkpt><trkpt lat="45.6509" lon="11.0506167"><ele>1271.0</ele><time>2026-05-01T11:50:36.368Z</time></trkpt><trkpt lat="45.6510833" lon="11.0506317"><ele>1271.0</ele><time>2026-05-01T11:50:37.368Z</time></trkpt><trkpt lat="45.6512883" lon="11.0506167"><ele>1271.3333333333335</ele><time>2026-05-01T11:50:38.368Z</time></trkpt><trkpt lat="45.651505" lon="11.05061"><ele>1271.6666666666667</ele><time>2026-05-01T11:50:39.368Z</time></trkpt><trkpt lat="45.6517083" lon="11.05064"><ele>1272.0</ele><time>2026-05-01T11:50:40.368Z</time></trkpt><trkpt lat="45.6518617" lon="11.0507283"><ele>1275.6666666666667</ele><time>2026-05-01T11:50:41.368Z</time></trkpt><trkpt lat="45.65198" lon="11.0508767"><ele>1279.3333333333335</ele><time>2026-05-01T11:50:42.368Z</time></trkpt><trkpt lat="45.652065" lon="11.051075"><ele>1283.0</ele><time>2026-05-01T11:50:43.368Z</time></trkpt><trkpt lat="45.6521133" lon="11.0512733"><ele>1283.0</ele><time>2026-05-01T11:50:44.368Z</time></trkpt><trkpt lat="45.652165" lon="11.0514733"><ele>1283.0</ele><time>2026-05-01T11:50:45.367Z</time></trkpt><trkpt lat="45.6522333" lon="11.051645"><ele>1283.0</ele><time>2026-05-01T11:50:46.368Z</time></trkpt><trkpt lat="45.65235" lon="11.05176"><ele>1283.0</ele><time>2026-05-01T11:50:47.367Z</time></trkpt><trkpt lat="45.6524983" lon="11.0518567"><ele>1286.0</ele><time>2026-05-01T11:50:48.368Z</time></trkpt><trkpt lat="45.6526617" lon="11.051955"><ele>1289.0</ele><time>2026-05-01T11:50:49.368Z</time></trkpt><trkpt lat="45.6528267" lon="11.0520633"><ele>1292.0</ele><time>2026-05-01T11:50:50.368Z</time></trkpt><trkpt lat="45.6529833" lon="11.052175"><ele>1292.0</ele><time>2026-05-01T11:50:51.368Z</time></trkpt><trkpt lat="45.65313" lon="11.05228"><ele>1292.0</ele><time>2026-05-01T11:50:52.368Z</time></trkpt><trkpt lat="45.6532667" lon="11.0523767"><ele>1292.0</ele><time>2026-05-01T11:50:53.368Z</time></trkpt><trkpt lat="45.6533967" lon="11.0525033"><ele>1286.0</ele><time>2026-05-01T11:50:54.368Z</time></trkpt><trkpt lat="45.65352" lon="11.0526183"><ele>1280.0</ele><time>2026-05-01T11:50:55.368Z</time></trkpt><trkpt lat="45.6536217" lon="11.0527283"><ele>1274.0</ele><time>2026-05-01T11:50:56.368Z</time></trkpt><trkpt lat="45.653715" lon="11.05282"><ele>1268.0</ele><time>2026-05-01T11:50:57.367Z</time></trkpt><trkpt lat="45.6538167" lon="11.0528883"><ele>1268.0</ele><time>2026-05-01T11:50:58.368Z</time></trkpt><trkpt lat="45.6539317" lon="11.0528983"><ele>1268.0</ele><time>2026-05-01T11:50:59.368Z</time></trkpt><trkpt lat="45.6540567" lon="11.0528433"><ele>1268.0</ele><time>2026-05-01T11:51:00.368Z</time></trkpt><trkpt lat="45.6541817" lon="11.0527333"><ele>1268.0</ele><time>2026-05-01T11:51:01.368Z</time></trkpt><trkpt lat="45.65431" lon="11.0526"><ele>1269.6666666666667</ele><time>2026-05-01T11:51:02.368Z</time></trkpt><trkpt lat="45.6544683" lon="11.0524533"><ele>1271.3333333333333</ele><time>2026-05-01T11:51:03.368Z</time></trkpt><trkpt lat="45.654635" lon="11.05228"><ele>1273.0</ele><time>2026-05-01T11:51:04.368Z</time></trkpt><trkpt lat="45.6547917" lon="11.0520733"><ele>1273.0</ele><time>2026-05-01T11:51:05.368Z</time></trkpt><trkpt lat="45.6549717" lon="11.0517833"><ele>1273.0</ele><time>2026-05-01T11:51:06.368Z</time></trkpt><trkpt lat="45.655145" lon="11.0514783"><ele>1277.6666666666665</ele><time>2026-05-01T11:51:07.368Z</time></trkpt><trkpt lat="45.655305" lon="11.05125"><ele>1282.3333333333333</ele><time>2026-05-01T11:51:08.368Z</time></trkpt><trkpt lat="45.65549" lon="11.0510867"><ele>1287.0</ele><time>2026-05-01T11:51:09.368Z</time></trkpt><trkpt lat="45.6557033" lon="11.05094"><ele>1287.0</ele><time>2026-05-01T11:51:10.368Z</time></trkpt><trkpt lat="45.6559183" lon="11.0508"><ele>1287.0</ele><time>2026-05-01T11:51:11.367Z</time></trkpt><trkpt lat="45.656115" lon="11.050675"><ele>1294.3333333333333</ele><time>2026-05-01T11:51:12.367Z</time></trkpt><trkpt lat="45.6563033" lon="11.0505633"><ele>1301.6666666666665</ele><time>2026-05-01T11:51:13.368Z</time></trkpt><trkpt lat="45.6565" lon="11.0504883"><ele>1309.0</ele><time>2026-05-01T11:51:14.368Z</time></trkpt><trkpt lat="45.6567033" lon="11.0505167"><ele>1309.0</ele><time>2026-05-01T11:51:15.368Z</time></trkpt><trkpt lat="45.6568967" lon="11.0506117"><ele>1309.0</ele><time>2026-05-01T11:51:16.368Z</time></trkpt><trkpt lat="45.6571083" lon="11.0507167"><ele>1309.0</ele><time>2026-05-01T11:51:17.368Z</time></trkpt><trkpt lat="45.6573317" lon="11.0507983"><ele>1309.6666666666665</ele><time>2026-05-01T11:51:18.368Z</time></trkpt><trkpt lat="45.6575667" lon="11.0508517"><ele>1310.3333333333333</ele><time>2026-05-01T11:51:19.368Z</time></trkpt><trkpt lat="45.65776" lon="11.05094"><ele>1311.0</ele><time>2026-05-01T11:51:20.368Z</time></trkpt><trkpt lat="45.6580067" lon="11.0509867"><ele>1311.0</ele><time>2026-05-01T11:51:21.367Z</time></trkpt><trkpt lat="45.6582433" lon="11.0510633"><ele>1311.0</ele><time>2026-05-01T11:51:22.368Z</time></trkpt><trkpt lat="45.6584667" lon="11.0511617"><ele>1319.0</ele><time>2026-05-01T11:51:23.367Z</time></trkpt><trkpt lat="45.6586833" lon="11.0512633"><ele>1327.0</ele><time>2026-05-01T11:51:24.368Z</time></trkpt><trkpt lat="45.6589017" lon="11.051365"><ele>1327.0</ele><time>2026-05-01T11:51:25.367Z</time></trkpt><trkpt lat="45.6591233" lon="11.0514633"><ele>1327.0</ele><time>2026-05-01T11:51:26.368Z</time></trkpt><trkpt lat="45.6593367" lon="11.0515583"><ele>1320.0</ele><time>2026-05-01T11:51:27.368Z</time></trkpt><trkpt lat="45.6595517" lon="11.0516417"><ele>1313.0</ele><time>2026-05-01T11:51:28.368Z</time></trkpt><trkpt lat="45.6597717" lon="11.051725"><ele>1313.0</ele><time>2026-05-01T11:51:29.368Z</time></trkpt><trkpt lat="45.6599833" lon="11.0518267"><ele>1313.0</ele><time>2026-05-01T11:51:30.367Z</time></trkpt><trkpt lat="45.6601817" lon="11.0519667"><ele>1313.0</ele><time>2026-05-01T11:51:31.367Z</time></trkpt><trkpt lat="45.6603667" lon="11.05213"><ele>1313.6666666666667</ele><time>2026-05-01T11:51:32.368Z</time></trkpt><trkpt lat="45.6605583" lon="11.0522967"><ele>1314.3333333333333</ele><time>2026-05-01T11:51:33.368Z</time></trkpt><trkpt lat="45.6607183" lon="11.0524717"><ele>1315.0</ele><time>2026-05-01T11:51:34.367Z</time></trkpt><trkpt lat="45.6608917" lon="11.0526333"><ele>1315.0</ele><time>2026-05-01T11:51:35.368Z</time></trkpt><trkpt lat="45.6610633" lon="11.052815"><ele>1315.0</ele><time>2026-05-01T11:51:36.367Z</time></trkpt><trkpt lat="45.6612483" lon="11.0529817"><ele>1315.0</ele><time>2026-05-01T11:51:37.368Z</time></trkpt><trkpt lat="45.6614417" lon="11.053145"><ele>1314.6666666666665</ele><time>2026-05-01T11:51:38.368Z</time></trkpt><trkpt lat="45.6616417" lon="11.0532883"><ele>1314.3333333333333</ele><time>2026-05-01T11:51:39.368Z</time></trkpt><trkpt lat="45.6618383" lon="11.0534317"><ele>1314.0</ele><time>2026-05-01T11:51:40.368Z</time></trkpt><trkpt lat="45.662045" lon="11.05355"><ele>1317.0</ele><time>2026-05-01T11:51:41.368Z</time></trkpt><trkpt lat="45.6622517" lon="11.0536283"><ele>1320.0</ele><time>2026-05-01T11:51:42.368Z</time></trkpt><trkpt lat="45.6624767" lon="11.0536467"><ele>1323.0</ele><time>2026-05-01T11:51:43.368Z</time></trkpt><trkpt lat="45.6626983" lon="11.053645"><ele>1329.5</ele><time>2026-05-01T11:51:44.367Z</time></trkpt><trkpt lat="45.6629267" lon="11.0536217"><ele>1336.0</ele><time>2026-05-01T11:51:45.368Z</time></trkpt><trkpt lat="45.6631717" lon="11.0536"><ele>1336.0</ele><time>2026-05-01T11:51:46.368Z</time></trkpt><trkpt lat="45.66339" lon="11.0536283"><ele>1336.0</ele><time>2026-05-01T11:51:47.368Z</time></trkpt><trkpt lat="45.6636067" lon="11.05369"><ele>1336.0</ele><time>2026-05-01T11:51:48.367Z</time></trkpt><trkpt lat="45.6638217" lon="11.0537583"><ele>1341.3333333333333</ele><time>2026-05-01T11:51:49.368Z</time></trkpt><trkpt lat="45.6640367" lon="11.0538133"><ele>1346.6666666666667</ele><time>2026-05-01T11:51:50.368Z</time></trkpt><trkpt lat="45.6642567" lon="11.0538633"><ele>1352.0</ele><time>2026-05-01T11:51:51.368Z</time></trkpt><trkpt lat="45.66447" lon="11.0538983"><ele>1353.0</ele><time>2026-05-01T11:51:52.367Z</time></trkpt><trkpt lat="45.664685" lon="11.0539067"><ele>1354.0</ele><time>2026-05-01T11:51:53.368Z</time></trkpt><trkpt lat="45.6648983" lon="11.0538917"><ele>1355.0</ele><time>2026-05-01T11:51:54.368Z</time></trkpt><trkpt lat="45.66511" lon="11.053865"><ele>1354.6666666666667</ele><time>2026-05-01T11:51:55.368Z</time></trkpt><trkpt lat="45.6653167" lon="11.053825"><ele>1354.3333333333333</ele><time>2026-05-01T11:51:56.368Z</time></trkpt><trkpt lat="45.665525" lon="11.053785"><ele>1354.0</ele><time>2026-05-01T11:51:57.368Z</time></trkpt><trkpt lat="45.66573" lon="11.0537567"><ele>1354.0</ele><time>2026-05-01T11:51:58.368Z</time></trkpt><trkpt lat="45.6659467" lon="11.0537283"><ele>1354.0</ele><time>2026-05-01T11:51:59.368Z</time></trkpt><trkpt lat="45.6661717" lon="11.0536867"><ele>1354.0</ele><time>2026-05-01T11:52:00.368Z</time></trkpt><trkpt lat="45.666405" lon="11.0536033"><ele>1354.0</ele><time>2026-05-01T11:52:01.368Z</time></trkpt><trkpt lat="45.666655" lon="11.0534733"><ele>1354.0</ele><time>2026-05-01T11:52:02.368Z</time></trkpt><trkpt lat="45.6669117" lon="11.0533083"><ele>1367.5</ele><time>2026-05-01T11:52:03.368Z</time></trkpt><trkpt lat="45.66715" lon="11.05314"><ele>1381.0</ele><time>2026-05-01T11:52:04.368Z</time></trkpt><trkpt lat="45.6673633" lon="11.0529967"><ele>1381.0</ele><time>2026-05-01T11:52:05.368Z</time></trkpt><trkpt lat="45.66758" lon="11.0529033"><ele>1381.0</ele><time>2026-05-01T11:52:06.368Z</time></trkpt><trkpt lat="45.6678017" lon="11.0528617"><ele>1381.0</ele><time>2026-05-01T11:52:07.368Z</time></trkpt><trkpt lat="45.6680183" lon="11.0528817"><ele>1381.0</ele><time>2026-05-01T11:52:08.368Z</time></trkpt><trkpt lat="45.6682433" lon="11.05294"><ele>1381.0</ele><time>2026-05-01T11:52:09.368Z</time></trkpt><trkpt lat="45.668485" lon="11.0530133"><ele>1383.6666666666665</ele><time>2026-05-01T11:52:10.368Z</time></trkpt><trkpt lat="45.6687067" lon="11.0530833"><ele>1386.3333333333333</ele><time>2026-05-01T11:52:11.368Z</time></trkpt><trkpt lat="45.66891" lon="11.05314"><ele>1389.0</ele><time>2026-05-01T11:52:12.368Z</time></trkpt><trkpt lat="45.6690917" lon="11.0531967"><ele>1389.0</ele><time>2026-05-01T11:52:13.368Z</time></trkpt><trkpt lat="45.6692367" lon="11.05327"><ele>1389.0</ele><time>2026-05-01T11:52:14.368Z</time></trkpt><trkpt lat="45.6693233" lon="11.0533833"><ele>1389.0</ele><time>2026-05-01T11:52:15.368Z</time></trkpt><trkpt lat="45.6693517" lon="11.05355"><ele>1389.0</ele><time>2026-05-01T11:52:16.368Z</time></trkpt><trkpt lat="45.669345" lon="11.05376"><ele>1386.6666666666667</ele><time>2026-05-01T11:52:17.368Z</time></trkpt><trkpt lat="45.6692783" lon="11.053995"><ele>1384.3333333333335</ele><time>2026-05-01T11:52:18.368Z</time></trkpt><trkpt lat="45.66918" lon="11.0542567"><ele>1382.0</ele><time>2026-05-01T11:52:19.368Z</time></trkpt><trkpt lat="45.6690783" lon="11.054545"><ele>1382.0</ele><time>2026-05-01T11:52:20.368Z</time></trkpt><trkpt lat="45.6689683" lon="11.0548583"><ele>1382.0</ele><time>2026-05-01T11:52:21.368Z</time></trkpt><trkpt lat="45.6688467" lon="11.05519"><ele>1382.0</ele><time>2026-05-01T11:52:22.368Z</time></trkpt><trkpt lat="45.6687417" lon="11.0554883"><ele>1382.0</ele><time>2026-05-01T11:52:23.368Z</time></trkpt><trkpt lat="45.6686467" lon="11.0557433"><ele>1382.0</ele><time>2026-05-01T11:52:24.368Z</time></trkpt><trkpt lat="45.6685683" lon="11.0559583"><ele>1382.0</ele><time>2026-05-01T11:52:25.368Z</time></trkpt><trkpt lat="45.6685217" lon="11.056145"><ele>1382.0</ele><time>2026-05-01T11:52:26.368Z</time></trkpt><trkpt lat="45.6685233" lon="11.0563067"><ele>1382.0</ele><time>2026-05-01T11:52:27.368Z</time></trkpt><trkpt lat="45.6685767" lon="11.0564183"><ele>1382.0</ele><time>2026-05-01T11:52:28.367Z</time></trkpt><trkpt lat="45.66865" lon="11.056495"><ele>1382.0</ele><time>2026-05-01T11:52:29.367Z</time></trkpt><trkpt lat="45.66872" lon="11.0565283"><ele>1385.8333333333335</ele><time>2026-05-01T11:52:30.368Z</time></trkpt><trkpt lat="45.668785" lon="11.05653"><ele>1389.6666666666667</ele><time>2026-05-01T11:52:31.367Z</time></trkpt><trkpt lat="45.66884" lon="11.0564633"><ele>1393.5</ele><time>2026-05-01T11:52:33.368Z</time></trkpt><trkpt lat="45.668845" lon="11.056355"><ele>1397.3333333333333</ele><time>2026-05-01T11:52:35.368Z</time></trkpt><trkpt lat="45.6687767" lon="11.0563333"><ele>1401.1666666666665</ele><time>2026-05-01T11:52:38.368Z</time></trkpt><trkpt lat="45.668805" lon="11.0564567"><ele>1405.0</ele><time>2026-05-01T11:52:40.367Z</time></trkpt><trkpt lat="45.668875" lon="11.0565283"><ele>1405.0</ele><time>2026-05-01T11:52:41.368Z</time></trkpt><trkpt lat="45.6689967" lon="11.0566067"><ele>1405.0</ele><time>2026-05-01T11:52:42.368Z</time></trkpt><trkpt lat="45.6691617" lon="11.0566617"><ele>1405.0</ele><time>2026-05-01T11:52:43.367Z</time></trkpt><trkpt lat="45.66935" lon="11.056715"><ele>1409.3333333333333</ele><time>2026-05-01T11:52:44.368Z</time></trkpt><trkpt lat="45.66956" lon="11.056775"><ele>1413.6666666666667</ele><time>2026-05-01T11:52:45.368Z</time></trkpt><trkpt lat="45.6697833" lon="11.0568417"><ele>1418.0</ele><time>2026-05-01T11:52:46.368Z</time></trkpt><trkpt lat="45.67" lon="11.056915"><ele>1418.0</ele><time>2026-05-01T11:52:47.368Z</time></trkpt><trkpt lat="45.6702" lon="11.0569983"><ele>1418.0</ele><time>2026-05-01T11:52:48.368Z</time></trkpt><trkpt lat="45.670365" lon="11.057135"><ele>1418.0</ele><time>2026-05-01T11:52:49.368Z</time></trkpt><trkpt lat="45.67052" lon="11.0573417"><ele>1421.0</ele><time>2026-05-01T11:52:50.368Z</time></trkpt><trkpt lat="45.6706917" lon="11.0575617"><ele>1424.0</ele><time>2026-05-01T11:52:51.367Z</time></trkpt><trkpt lat="45.6708783" lon="11.0577433"><ele>1424.0</ele><time>2026-05-01T11:52:52.367Z</time></trkpt><trkpt lat="45.6710533" lon="11.05791"><ele>1424.0</ele><time>2026-05-01T11:52:53.368Z</time></trkpt><trkpt lat="45.6712" lon="11.0580883"><ele>1424.0</ele><time>2026-05-01T11:52:54.368Z</time></trkpt><trkpt lat="45.671285" lon="11.058315"><ele>1428.3333333333335</ele><time>2026-05-01T11:52:55.368Z</time></trkpt><trkpt lat="45.6713317" lon="11.0585617"><ele>1432.6666666666667</ele><time>2026-05-01T11:52:56.368Z</time></trkpt><trkpt lat="45.67132" lon="11.0588183"><ele>1437.0</ele><time>2026-05-01T11:52:57.368Z</time></trkpt><trkpt lat="45.6712533" lon="11.0590867"><ele>1433.6666666666667</ele><time>2026-05-01T11:52:58.367Z</time></trkpt><trkpt lat="45.6711483" lon="11.059375"><ele>1430.3333333333335</ele><time>2026-05-01T11:52:59.367Z</time></trkpt><trkpt lat="45.6710517" lon="11.05965"><ele>1427.0</ele><time>2026-05-01T11:53:00.368Z</time></trkpt><trkpt lat="45.6709683" lon="11.059885"><ele>1430.25</ele><time>2026-05-01T11:53:01.368Z</time></trkpt><trkpt lat="45.670915" lon="11.06009"><ele>1433.5</ele><time>2026-05-01T11:53:02.368Z</time></trkpt><trkpt lat="45.6708883" lon="11.06028"><ele>1436.75</ele><time>2026-05-01T11:53:03.368Z</time></trkpt><trkpt lat="45.6709067" lon="11.0604817"><ele>1440.0</ele><time>2026-05-01T11:53:04.368Z</time></trkpt><trkpt lat="45.6709583" lon="11.060705"><ele>1442.3333333333333</ele><time>2026-05-01T11:53:05.368Z</time></trkpt><trkpt lat="45.6710267" lon="11.0609317"><ele>1444.6666666666665</ele><time>2026-05-01T11:53:06.368Z</time></trkpt><trkpt lat="45.6710933" lon="11.0611717"><ele>1447.0</ele><time>2026-05-01T11:53:07.367Z</time></trkpt><trkpt lat="45.6711817" lon="11.0614183"><ele>1453.6666666666665</ele><time>2026-05-01T11:53:08.368Z</time></trkpt><trkpt lat="45.671285" lon="11.0616517"><ele>1460.3333333333333</ele><time>2026-05-01T11:53:09.368Z</time></trkpt><trkpt lat="45.6714117" lon="11.0618733"><ele>1467.0</ele><time>2026-05-01T11:53:10.367Z</time></trkpt><trkpt lat="45.6715617" lon="11.062085"><ele>1467.0</ele><time>2026-05-01T11:53:11.368Z</time></trkpt><trkpt lat="45.6717567" lon="11.06225"><ele>1467.0</ele><time>2026-05-01T11:53:12.368Z</time></trkpt><trkpt lat="45.671975" lon="11.06239"><ele>1469.5</ele><time>2026-05-01T11:53:13.367Z</time></trkpt><trkpt lat="45.672205" lon="11.0624767"><ele>1472.0</ele><time>2026-05-01T11:53:14.368Z</time></trkpt><trkpt lat="45.67243" lon="11.062565"><ele>1472.0</ele><time>2026-05-01T11:53:15.368Z</time></trkpt><trkpt lat="45.6726317" lon="11.0627"><ele>1472.0</ele><time>2026-05-01T11:53:16.368Z</time></trkpt><trkpt lat="45.6728067" lon="11.0628517"><ele>1472.0</ele><time>2026-05-01T11:53:17.367Z</time></trkpt><trkpt lat="45.6729783" lon="11.0630017"><ele>1474.0</ele><time>2026-05-01T11:53:18.368Z</time></trkpt><trkpt lat="45.6731467" lon="11.0631733"><ele>1476.0</ele><time>2026-05-01T11:53:19.368Z</time></trkpt><trkpt lat="45.67331" lon="11.0633417"><ele>1478.0</ele><time>2026-05-01T11:53:20.368Z</time></trkpt><trkpt lat="45.673465" lon="11.063505"><ele>1481.0</ele><time>2026-05-01T11:53:21.368Z</time></trkpt><trkpt lat="45.67361" lon="11.06366"><ele>1484.0</ele><time>2026-05-01T11:53:22.368Z</time></trkpt><trkpt lat="45.6737617" lon="11.0637917"><ele>1487.0</ele><time>2026-05-01T11:53:23.368Z</time></trkpt><trkpt lat="45.6739233" lon="11.0638767"><ele>1487.0</ele><time>2026-05-01T11:53:24.367Z</time></trkpt><trkpt lat="45.6740967" lon="11.063925"><ele>1487.0</ele><time>2026-05-01T11:53:25.368Z</time></trkpt><trkpt lat="45.6742733" lon="11.0639217"><ele>1487.0</ele><time>2026-05-01T11:53:26.368Z</time></trkpt><trkpt lat="45.6744583" lon="11.06388"><ele>1488.3333333333335</ele><time>2026-05-01T11:53:27.368Z</time></trkpt><trkpt lat="45.6746333" lon="11.0638017"><ele>1489.6666666666667</ele><time>2026-05-01T11:53:28.368Z</time></trkpt><trkpt lat="45.6747967" lon="11.063685"><ele>1491.0</ele><time>2026-05-01T11:53:29.367Z</time></trkpt><trkpt lat="45.674955" lon="11.06356"><ele>1491.0</ele><time>2026-05-01T11:53:30.368Z</time></trkpt><trkpt lat="45.6751117" lon="11.063445"><ele>1491.0</ele><time>2026-05-01T11:53:31.368Z</time></trkpt><trkpt lat="45.6752783" lon="11.0633383"><ele>1491.0</ele><time>2026-05-01T11:53:32.368Z</time></trkpt><trkpt lat="45.675455" lon="11.0632317"><ele>1496.3333333333333</ele><time>2026-05-01T11:53:33.368Z</time></trkpt><trkpt lat="45.6756417" lon="11.0631167"><ele>1501.6666666666665</ele><time>2026-05-01T11:53:34.368Z</time></trkpt><trkpt lat="45.6758483" lon="11.0630167"><ele>1507.0</ele><time>2026-05-01T11:53:35.368Z</time></trkpt><trkpt lat="45.676055" lon="11.062945"><ele>1507.75</ele><time>2026-05-01T11:53:36.368Z</time></trkpt><trkpt lat="45.6762217" lon="11.062895"><ele>1508.5</ele><time>2026-05-01T11:53:37.368Z</time></trkpt><trkpt lat="45.67635" lon="11.0628817"><ele>1509.25</ele><time>2026-05-01T11:53:38.368Z</time></trkpt><trkpt lat="45.6764383" lon="11.0629267"><ele>1510.0</ele><time>2026-05-01T11:53:39.368Z</time></trkpt><trkpt lat="45.676485" lon="11.0630317"><ele>1510.0</ele><time>2026-05-01T11:53:40.368Z</time></trkpt><trkpt lat="45.6764867" lon="11.0631633"><ele>1510.0</ele><time>2026-05-01T11:53:41.368Z</time></trkpt><trkpt lat="45.6764333" lon="11.0632867"><ele>1510.0</ele><time>2026-05-01T11:53:42.368Z</time></trkpt><trkpt lat="45.676335" lon="11.063375"><ele>1510.0</ele><time>2026-05-01T11:53:43.368Z</time></trkpt><trkpt lat="45.6761967" lon="11.063465"><ele>1506.0</ele><time>2026-05-01T11:53:44.368Z</time></trkpt><trkpt lat="45.6760567" lon="11.0635883"><ele>1502.0</ele><time>2026-05-01T11:53:45.368Z</time></trkpt><trkpt lat="45.6759283" lon="11.0637867"><ele>1498.0</ele><time>2026-05-01T11:53:46.368Z</time></trkpt><trkpt lat="45.6758383" lon="11.0640433"><ele>1501.0</ele><time>2026-05-01T11:53:47.368Z</time></trkpt><trkpt lat="45.6757833" lon="11.0643583"><ele>1504.0</ele><time>2026-05-01T11:53:48.368Z</time></trkpt><trkpt lat="45.675735" lon="11.0646867"><ele>1508.0</ele><time>2026-05-01T11:53:49.368Z</time></trkpt><trkpt lat="45.675675" lon="11.06499"><ele>1512.0</ele><time>2026-05-01T11:53:50.368Z</time></trkpt><trkpt lat="45.6755767" lon="11.065245"><ele>1516.0</ele><time>2026-05-01T11:53:51.368Z</time></trkpt><trkpt lat="45.67544" lon="11.0654567"><ele>1516.0</ele><time>2026-05-01T11:53:52.368Z</time></trkpt><trkpt lat="45.6752833" lon="11.0656217"><ele>1516.0</ele><time>2026-05-01T11:53:53.368Z</time></trkpt><trkpt lat="45.6751183" lon="11.06576"><ele>1516.0</ele><time>2026-05-01T11:53:54.368Z</time></trkpt><trkpt lat="45.6749817" lon="11.0658817"><ele>1516.0</ele><time>2026-05-01T11:53:55.368Z</time></trkpt><trkpt lat="45.6748767" lon="11.0660117"><ele>1516.0</ele><time>2026-05-01T11:53:56.368Z</time></trkpt><trkpt lat="45.674815" lon="11.066165"><ele>1516.0</ele><time>2026-05-01T11:53:57.368Z</time></trkpt><trkpt lat="45.6748017" lon="11.0663533"><ele>1516.0</ele><time>2026-05-01T11:53:58.368Z</time></trkpt><trkpt lat="45.67485" lon="11.0665383"><ele>1517.5</ele><time>2026-05-01T11:53:59.368Z</time></trkpt><trkpt lat="45.674925" lon="11.0666667"><ele>1519.0</ele><time>2026-05-01T11:54:00.367Z</time></trkpt><trkpt lat="45.675035" lon="11.0667133"><ele>1520.5</ele><time>2026-05-01T11:54:01.368Z</time></trkpt><trkpt lat="45.6751683" lon="11.066675"><ele>1522.0</ele><time>2026-05-01T11:54:02.368Z</time></trkpt><trkpt lat="45.6753083" lon="11.06656"><ele>1524.3333333333333</ele><time>2026-05-01T11:54:03.368Z</time></trkpt><trkpt lat="45.67545" lon="11.06641"><ele>1526.6666666666667</ele><time>2026-05-01T11:54:04.368Z</time></trkpt><trkpt lat="45.6756167" lon="11.06626"><ele>1529.0</ele><time>2026-05-01T11:54:05.368Z</time></trkpt><trkpt lat="45.6758183" lon="11.0661183"><ele>1529.0</ele><time>2026-05-01T11:54:06.367Z</time></trkpt><trkpt lat="45.6760483" lon="11.0659933"><ele>1529.0</ele><time>2026-05-01T11:54:07.368Z</time></trkpt><trkpt lat="45.67631" lon="11.0658567"><ele>1529.0</ele><time>2026-05-01T11:54:08.368Z</time></trkpt><trkpt lat="45.676575" lon="11.06571"><ele>1529.0</ele><time>2026-05-01T11:54:09.368Z</time></trkpt><trkpt lat="45.6768217" lon="11.0655667"><ele>1535.0</ele><time>2026-05-01T11:54:10.368Z</time></trkpt><trkpt lat="45.677045" lon="11.06542"><ele>1541.0</ele><time>2026-05-01T11:54:11.368Z</time></trkpt><trkpt lat="45.6772417" lon="11.0653067"><ele>1541.0</ele><time>2026-05-01T11:54:12.368Z</time></trkpt><trkpt lat="45.6774083" lon="11.065205"><ele>1541.0</ele><time>2026-05-01T11:54:13.368Z</time></trkpt><trkpt lat="45.677555" lon="11.0651333"><ele>1541.0</ele><time>2026-05-01T11:54:14.368Z</time></trkpt><trkpt lat="45.6776833" lon="11.0651117"><ele>1541.0</ele><time>2026-05-01T11:54:15.368Z</time></trkpt><trkpt lat="45.67779" lon="11.0651767"><ele>1541.0</ele><time>2026-05-01T11:54:16.368Z</time></trkpt><trkpt lat="45.6778517" lon="11.0653017"><ele>1541.0</ele><time>2026-05-01T11:54:17.368Z</time></trkpt><trkpt lat="45.6778633" lon="11.06546"><ele>1541.0</ele><time>2026-05-01T11:54:18.368Z</time></trkpt><trkpt lat="45.677825" lon="11.0656083"><ele>1541.0</ele><time>2026-05-01T11:54:19.368Z</time></trkpt><trkpt lat="45.67772" lon="11.0657317"><ele>1545.0</ele><time>2026-05-01T11:54:20.367Z</time></trkpt><trkpt lat="45.6775767" lon="11.06582"><ele>1549.0</ele><time>2026-05-01T11:54:21.368Z</time></trkpt><trkpt lat="45.6773983" lon="11.0659083"><ele>1553.0</ele><time>2026-05-01T11:54:22.368Z</time></trkpt><trkpt lat="45.6772283" lon="11.0660133"><ele>1553.0</ele><time>2026-05-01T11:54:23.368Z</time></trkpt><trkpt lat="45.6770683" lon="11.0661433"><ele>1553.0</ele><time>2026-05-01T11:54:24.367Z</time></trkpt><trkpt lat="45.67693" lon="11.0663083"><ele>1553.0</ele><time>2026-05-01T11:54:25.368Z</time></trkpt><trkpt lat="45.67682" lon="11.066505"><ele>1553.0</ele><time>2026-05-01T11:54:26.368Z</time></trkpt><trkpt lat="45.6767517" lon="11.06674"><ele>1553.0</ele><time>2026-05-01T11:54:27.368Z</time></trkpt><trkpt lat="45.6767467" lon="11.0670017"><ele>1553.0</ele><time>2026-05-01T11:54:28.367Z</time></trkpt><trkpt lat="45.6767683" lon="11.0672633"><ele>1554.3333333333333</ele><time>2026-05-01T11:54:29.368Z</time></trkpt><trkpt lat="45.6768033" lon="11.0675067"><ele>1555.6666666666665</ele><time>2026-05-01T11:54:30.367Z</time></trkpt><trkpt lat="45.6768717" lon="11.0677483"><ele>1557.0</ele><time>2026-05-01T11:54:31.368Z</time></trkpt><trkpt lat="45.6769817" lon="11.0679733"><ele>1561.6666666666665</ele><time>2026-05-01T11:54:32.368Z</time></trkpt><trkpt lat="45.6771367" lon="11.0681583"><ele>1566.3333333333333</ele><time>2026-05-01T11:54:33.368Z</time></trkpt><trkpt lat="45.6773167" lon="11.068295"><ele>1571.0</ele><time>2026-05-01T11:54:34.366Z</time></trkpt><trkpt lat="45.6775033" lon="11.0684067"><ele>1571.0</ele><time>2026-05-01T11:54:35.367Z</time></trkpt><trkpt lat="45.6776933" lon="11.0685033"><ele>1571.0</ele><time>2026-05-01T11:54:36.367Z</time></trkpt><trkpt lat="45.6778917" lon="11.0686083"><ele>1571.0</ele><time>2026-05-01T11:54:37.367Z</time></trkpt><trkpt lat="45.6780833" lon="11.0687283"><ele>1572.6666666666665</ele><time>2026-05-01T11:54:38.367Z</time></trkpt><trkpt lat="45.6782617" lon="11.0688583"><ele>1574.3333333333335</ele><time>2026-05-01T11:54:39.367Z</time></trkpt><trkpt lat="45.6784167" lon="11.0690267"><ele>1576.0</ele><time>2026-05-01T11:54:40.367Z</time></trkpt><trkpt lat="45.6785417" lon="11.0692533"><ele>1581.6666666666667</ele><time>2026-05-01T11:54:41.366Z</time></trkpt><trkpt lat="45.6786333" lon="11.06949"><ele>1587.3333333333335</ele><time>2026-05-01T11:54:42.367Z</time></trkpt><trkpt lat="45.6787233" lon="11.069715"><ele>1593.0</ele><time>2026-05-01T11:54:43.366Z</time></trkpt><trkpt lat="45.6788083" lon="11.0699083"><ele>1590.75</ele><time>2026-05-01T11:54:44.367Z</time></trkpt><trkpt lat="45.6789033" lon="11.0700667"><ele>1588.5</ele><time>2026-05-01T11:54:45.366Z</time></trkpt><trkpt lat="45.679005" lon="11.0701933"><ele>1586.25</ele><time>2026-05-01T11:54:46.367Z</time></trkpt><trkpt lat="45.679125" lon="11.0702533"><ele>1584.0</ele><time>2026-05-01T11:54:47.367Z</time></trkpt><trkpt lat="45.67938" lon="11.0702083"><ele>1583.75</ele><time>2026-05-01T11:54:49.367Z</time></trkpt><trkpt lat="45.6794967" lon="11.07015"><ele>1583.5</ele><time>2026-05-01T11:54:50.367Z</time></trkpt><trkpt lat="45.679615" lon="11.0700867"><ele>1583.25</ele><time>2026-05-01T11:54:51.367Z</time></trkpt><trkpt lat="45.679735" lon="11.0700067"><ele>1583.0</ele><time>2026-05-01T11:54:52.367Z</time></trkpt><trkpt lat="45.67986" lon="11.06993"><ele>1582.25</ele><time>2026-05-01T11:54:53.367Z</time></trkpt><trkpt lat="45.6799933" lon="11.0698617"><ele>1581.5</ele><time>2026-05-01T11:54:54.367Z</time></trkpt><trkpt lat="45.6801317" lon="11.0697917"><ele>1580.75</ele><time>2026-05-01T11:54:55.367Z</time></trkpt><trkpt lat="45.68027" lon="11.06972"><ele>1580.0</ele><time>2026-05-01T11:54:56.367Z</time></trkpt><trkpt lat="45.6804033" lon="11.0696317"><ele>1580.0</ele><time>2026-05-01T11:54:57.367Z</time></trkpt><trkpt lat="45.6805317" lon="11.0695217"><ele>1580.0</ele><time>2026-05-01T11:54:58.367Z</time></trkpt><trkpt lat="45.6806517" lon="11.0694017"><ele>1580.0</ele><time>2026-05-01T11:54:59.367Z</time></trkpt><trkpt lat="45.6807633" lon="11.069285"><ele>1580.0</ele><time>2026-05-01T11:55:00.367Z</time></trkpt><trkpt lat="45.6808783" lon="11.06917"><ele>1580.25</ele><time>2026-05-01T11:55:01.367Z</time></trkpt><trkpt lat="45.681" lon="11.0690633"><ele>1580.5</ele><time>2026-05-01T11:55:02.367Z</time></trkpt><trkpt lat="45.6811317" lon="11.0690067"><ele>1580.75</ele><time>2026-05-01T11:55:03.367Z</time></trkpt><trkpt lat="45.6812617" lon="11.0690217"><ele>1581.0</ele><time>2026-05-01T11:55:04.366Z</time></trkpt><trkpt lat="45.68137" lon="11.0691183"><ele>1581.0</ele><time>2026-05-01T11:55:05.367Z</time></trkpt><trkpt lat="45.6814417" lon="11.0692733"><ele>1581.0</ele><time>2026-05-01T11:55:06.367Z</time></trkpt><trkpt lat="45.6814783" lon="11.0694733"><ele>1581.0</ele><time>2026-05-01T11:55:07.367Z</time></trkpt><trkpt lat="45.6814767" lon="11.0696933"><ele>1581.0</ele><time>2026-05-01T11:55:08.367Z</time></trkpt><trkpt lat="45.6814733" lon="11.0699167"><ele>1580.0</ele><time>2026-05-01T11:55:09.367Z</time></trkpt><trkpt lat="45.6814683" lon="11.0701417"><ele>1579.0</ele><time>2026-05-01T11:55:10.367Z</time></trkpt><trkpt lat="45.6814633" lon="11.0703733"><ele>1578.0</ele><time>2026-05-01T11:55:11.367Z</time></trkpt><trkpt lat="45.6814633" lon="11.0706017"><ele>1577.0</ele><time>2026-05-01T11:55:12.366Z</time></trkpt><trkpt lat="45.68146" lon="11.0708283"><ele>1576.0</ele><time>2026-05-01T11:55:13.367Z</time></trkpt><trkpt lat="45.68145" lon="11.0710667"><ele>1575.0</ele><time>2026-05-01T11:55:14.367Z</time></trkpt><trkpt lat="45.6814483" lon="11.0713133"><ele>1575.0</ele><time>2026-05-01T11:55:15.367Z</time></trkpt><trkpt lat="45.6814483" lon="11.0715533"><ele>1575.0</ele><time>2026-05-01T11:55:16.367Z</time></trkpt><trkpt lat="45.6814567" lon="11.0717917"><ele>1575.0</ele><time>2026-05-01T11:55:17.367Z</time></trkpt><trkpt lat="45.6814717" lon="11.072025"><ele>1574.0</ele><time>2026-05-01T11:55:18.366Z</time></trkpt><trkpt lat="45.6815033" lon="11.07227"><ele>1573.0</ele><time>2026-05-01T11:55:19.367Z</time></trkpt><trkpt lat="45.6815617" lon="11.0725117"><ele>1572.0</ele><time>2026-05-01T11:55:20.367Z</time></trkpt><trkpt lat="45.6816483" lon="11.0727333"><ele>1570.6666666666665</ele><time>2026-05-01T11:55:21.367Z</time></trkpt><trkpt lat="45.68178" lon="11.07293"><ele>1569.3333333333333</ele><time>2026-05-01T11:55:22.367Z</time></trkpt><trkpt lat="45.681945" lon="11.0730733"><ele>1568.0</ele><time>2026-05-01T11:55:23.367Z</time></trkpt><trkpt lat="45.6821233" lon="11.0732017"><ele>1562.3333333333333</ele><time>2026-05-01T11:55:24.367Z</time></trkpt><trkpt lat="45.6823083" lon="11.07334"><ele>1556.6666666666665</ele><time>2026-05-01T11:55:25.367Z</time></trkpt><trkpt lat="45.68249" lon="11.0734717"><ele>1551.0</ele><time>2026-05-01T11:55:26.367Z</time></trkpt><trkpt lat="45.6826683" lon="11.073605"><ele>1551.0</ele><time>2026-05-01T11:55:27.367Z</time></trkpt><trkpt lat="45.6828467" lon="11.0737333"><ele>1551.0</ele><time>2026-05-01T11:55:28.367Z</time></trkpt><trkpt lat="45.68302" lon="11.0738567"><ele>1551.0</ele><time>2026-05-01T11:55:29.367Z</time></trkpt><trkpt lat="45.683185" lon="11.0739783"><ele>1551.0</ele><time>2026-05-01T11:55:30.366Z</time></trkpt><trkpt lat="45.6833433" lon="11.0740983"><ele>1551.0</ele><time>2026-05-01T11:55:31.367Z</time></trkpt><trkpt lat="45.6835017" lon="11.0742183"><ele>1551.0</ele><time>2026-05-01T11:55:32.367Z</time></trkpt><trkpt lat="45.68366" lon="11.0743383"><ele>1556.0</ele><time>2026-05-01T11:55:33.367Z</time></trkpt><trkpt lat="45.68382" lon="11.074455"><ele>1561.0</ele><time>2026-05-01T11:55:34.367Z</time></trkpt><trkpt lat="45.6839867" lon="11.0745733"><ele>1566.0</ele><time>2026-05-01T11:55:35.367Z</time></trkpt><trkpt lat="45.6841533" lon="11.0746917"><ele>1566.0</ele><time>2026-05-01T11:55:36.366Z</time></trkpt><trkpt lat="45.684315" lon="11.0748117"><ele>1566.0</ele><time>2026-05-01T11:55:37.367Z</time></trkpt><trkpt lat="45.6844683" lon="11.0749267"><ele>1566.0</ele><time>2026-05-01T11:55:38.367Z</time></trkpt><trkpt lat="45.68462" lon="11.0750417"><ele>1564.0</ele><time>2026-05-01T11:55:39.367Z</time></trkpt><trkpt lat="45.6847717" lon="11.0751583"><ele>1562.0</ele><time>2026-05-01T11:55:40.367Z</time></trkpt><trkpt lat="45.6849267" lon="11.0752667"><ele>1560.0</ele><time>2026-05-01T11:55:41.367Z</time></trkpt><trkpt lat="45.6850867" lon="11.07539"><ele>1560.0</ele><time>2026-05-01T11:55:42.367Z</time></trkpt><trkpt lat="45.6852533" lon="11.07551"><ele>1560.0</ele><time>2026-05-01T11:55:43.367Z</time></trkpt><trkpt lat="45.68543" lon="11.0756383"><ele>1560.0</ele><time>2026-05-01T11:55:44.367Z</time></trkpt><trkpt lat="45.6856067" lon="11.075765"><ele>1557.6666666666665</ele><time>2026-05-01T11:55:45.367Z</time></trkpt><trkpt lat="45.6857767" lon="11.0758917"><ele>1555.3333333333333</ele><time>2026-05-01T11:55:46.367Z</time></trkpt><trkpt lat="45.6859433" lon="11.0760133"><ele>1553.0</ele><time>2026-05-01T11:55:47.366Z</time></trkpt><trkpt lat="45.68611" lon="11.0761467"><ele>1553.0</ele><time>2026-05-01T11:55:48.367Z</time></trkpt><trkpt lat="45.6862733" lon="11.0762833"><ele>1553.0</ele><time>2026-05-01T11:55:49.367Z</time></trkpt><trkpt lat="45.686445" lon="11.0764067"><ele>1553.0</ele><time>2026-05-01T11:55:50.367Z</time></trkpt><trkpt lat="45.6866083" lon="11.07652"><ele>1550.0</ele><time>2026-05-01T11:55:51.367Z</time></trkpt><trkpt lat="45.68677" lon="11.0766317"><ele>1547.0</ele><time>2026-05-01T11:55:52.367Z</time></trkpt><trkpt lat="45.6869217" lon="11.0767433"><ele>1544.0</ele><time>2026-05-01T11:55:53.367Z</time></trkpt><trkpt lat="45.68707" lon="11.07685"><ele>1544.0</ele><time>2026-05-01T11:55:54.367Z</time></trkpt><trkpt lat="45.68721" lon="11.07697"><ele>1544.0</ele><time>2026-05-01T11:55:55.366Z</time></trkpt><trkpt lat="45.6873367" lon="11.0770967"><ele>1544.0</ele><time>2026-05-01T11:55:56.367Z</time></trkpt><trkpt lat="45.6874483" lon="11.0772467"><ele>1544.0</ele><time>2026-05-01T11:55:57.367Z</time></trkpt><trkpt lat="45.68754" lon="11.077435"><ele>1544.0</ele><time>2026-05-01T11:55:58.367Z</time></trkpt><trkpt lat="45.6876" lon="11.0776517"><ele>1544.0</ele><time>2026-05-01T11:55:59.367Z</time></trkpt><trkpt lat="45.6876283" lon="11.0778883"><ele>1543.0</ele><time>2026-05-01T11:56:00.367Z</time></trkpt><trkpt lat="45.68762" lon="11.07813"><ele>1542.0</ele><time>2026-05-01T11:56:01.367Z</time></trkpt><trkpt lat="45.687585" lon="11.07836"><ele>1541.0</ele><time>2026-05-01T11:56:02.367Z</time></trkpt><trkpt lat="45.6875117" lon="11.078585"><ele>1540.6666666666665</ele><time>2026-05-01T11:56:03.367Z</time></trkpt><trkpt lat="45.6874017" lon="11.078775"><ele>1540.3333333333335</ele><time>2026-05-01T11:56:04.367Z</time></trkpt><trkpt lat="45.6872717" lon="11.0789267"><ele>1540.0</ele><time>2026-05-01T11:56:05.366Z</time></trkpt><trkpt lat="45.6871217" lon="11.0790617"><ele>1537.3333333333335</ele><time>2026-05-01T11:56:06.366Z</time></trkpt><trkpt lat="45.686965" lon="11.0791917"><ele>1534.6666666666667</ele><time>2026-05-01T11:56:07.367Z</time></trkpt><trkpt lat="45.6867983" lon="11.079325"><ele>1532.0</ele><time>2026-05-01T11:56:08.367Z</time></trkpt><trkpt lat="45.6866267" lon="11.07947"><ele>1532.0</ele><time>2026-05-01T11:56:09.367Z</time></trkpt><trkpt lat="45.6864583" lon="11.0796267"><ele>1532.0</ele><time>2026-05-01T11:56:10.367Z</time></trkpt><trkpt lat="45.686295" lon="11.0797683"><ele>1532.0</ele><time>2026-05-01T11:56:11.367Z</time></trkpt><trkpt lat="45.6861417" lon="11.0799083"><ele>1530.6666666666667</ele><time>2026-05-01T11:56:12.367Z</time></trkpt><trkpt lat="45.686" lon="11.08007"><ele>1529.3333333333333</ele><time>2026-05-01T11:56:13.367Z</time></trkpt><trkpt lat="45.6858867" lon="11.0802483"><ele>1528.0</ele><time>2026-05-01T11:56:14.366Z</time></trkpt><trkpt lat="45.68581" lon="11.08048"><ele>1528.0</ele><time>2026-05-01T11:56:15.367Z</time></trkpt><trkpt lat="45.6857767" lon="11.0807383"><ele>1528.0</ele><time>2026-05-01T11:56:16.366Z</time></trkpt><trkpt lat="45.6857933" lon="11.0810083"><ele>1528.0</ele><time>2026-05-01T11:56:17.367Z</time></trkpt><trkpt lat="45.685835" lon="11.0812733"><ele>1524.6666666666665</ele><time>2026-05-01T11:56:18.367Z</time></trkpt><trkpt lat="45.6858783" lon="11.08152"><ele>1521.3333333333333</ele><time>2026-05-01T11:56:19.367Z</time></trkpt><trkpt lat="45.6859133" lon="11.0817567"><ele>1518.0</ele><time>2026-05-01T11:56:20.367Z</time></trkpt><trkpt lat="45.685935" lon="11.0819783"><ele>1516.3333333333333</ele><time>2026-05-01T11:56:21.367Z</time></trkpt><trkpt lat="45.685925" lon="11.0822"><ele>1514.6666666666665</ele><time>2026-05-01T11:56:22.366Z</time></trkpt><trkpt lat="45.6858883" lon="11.082415"><ele>1513.0</ele><time>2026-05-01T11:56:23.366Z</time></trkpt><trkpt lat="45.6858233" lon="11.0826217"><ele>1511.3333333333333</ele><time>2026-05-01T11:56:24.367Z</time></trkpt><trkpt lat="45.6857467" lon="11.082815"><ele>1509.6666666666667</ele><time>2026-05-01T11:56:25.367Z</time></trkpt><trkpt lat="45.6856533" lon="11.08301"><ele>1508.0</ele><time>2026-05-01T11:56:26.367Z</time></trkpt><trkpt lat="45.685555" lon="11.083205"><ele>1509.6666666666667</ele><time>2026-05-01T11:56:27.367Z</time></trkpt><trkpt lat="45.685455" lon="11.0833867"><ele>1511.3333333333333</ele><time>2026-05-01T11:56:28.367Z</time></trkpt><trkpt lat="45.6853467" lon="11.083555"><ele>1513.0</ele><time>2026-05-01T11:56:29.367Z</time></trkpt><trkpt lat="45.68523" lon="11.0837083"><ele>1513.0</ele><time>2026-05-01T11:56:30.367Z</time></trkpt><trkpt lat="45.6851117" lon="11.0838467"><ele>1513.0</ele><time>2026-05-01T11:56:31.366Z</time></trkpt><trkpt lat="45.6849833" lon="11.083955"><ele>1513.0</ele><time>2026-05-01T11:56:32.366Z</time></trkpt><trkpt lat="45.6848667" lon="11.0840383"><ele>1513.0</ele><time>2026-05-01T11:56:33.367Z</time></trkpt><trkpt lat="45.6847433" lon="11.0841267"><ele>1510.0</ele><time>2026-05-01T11:56:34.367Z</time></trkpt><trkpt lat="45.6846167" lon="11.084215"><ele>1507.0</ele><time>2026-05-01T11:56:35.367Z</time></trkpt><trkpt lat="45.6844917" lon="11.0843033"><ele>1504.0</ele><time>2026-05-01T11:56:36.366Z</time></trkpt><trkpt lat="45.68437" lon="11.0843817"><ele>1501.0</ele><time>2026-05-01T11:56:37.367Z</time></trkpt><trkpt lat="45.6842433" lon="11.0844583"><ele>1501.0</ele><time>2026-05-01T11:56:38.367Z</time></trkpt><trkpt lat="45.6841117" lon="11.0845433"><ele>1501.0</ele><time>2026-05-01T11:56:39.367Z</time></trkpt><trkpt lat="45.6839817" lon="11.084635"><ele>1501.0</ele><time>2026-05-01T11:56:40.367Z</time></trkpt><trkpt lat="45.6838533" lon="11.0847383"><ele>1501.0</ele><time>2026-05-01T11:56:41.367Z</time></trkpt><trkpt lat="45.6837233" lon="11.08488"><ele>1497.0</ele><time>2026-05-01T11:56:42.367Z</time></trkpt><trkpt lat="45.683605" lon="11.08504"><ele>1493.0</ele><time>2026-05-01T11:56:43.367Z</time></trkpt><trkpt lat="45.6835017" lon="11.085235"><ele>1489.0</ele><time>2026-05-01T11:56:44.367Z</time></trkpt><trkpt lat="45.6834" lon="11.085455"><ele>1486.6666666666665</ele><time>2026-05-01T11:56:45.367Z</time></trkpt><trkpt lat="45.6833067" lon="11.0856733"><ele>1484.3333333333333</ele><time>2026-05-01T11:56:46.366Z</time></trkpt><trkpt lat="45.6832133" lon="11.0858867"><ele>1482.0</ele><time>2026-05-01T11:56:47.367Z</time></trkpt><trkpt lat="45.683115" lon="11.08609"><ele>1478.6666666666667</ele><time>2026-05-01T11:56:48.367Z</time></trkpt><trkpt lat="45.68302" lon="11.086285"><ele>1475.3333333333335</ele><time>2026-05-01T11:56:49.367Z</time></trkpt><trkpt lat="45.6829217" lon="11.0864733"><ele>1472.0</ele><time>2026-05-01T11:56:50.367Z</time></trkpt><trkpt lat="45.6828183" lon="11.0866417"><ele>1470.3333333333335</ele><time>2026-05-01T11:56:51.367Z</time></trkpt><trkpt lat="45.6827017" lon="11.0868033"><ele>1468.6666666666667</ele><time>2026-05-01T11:56:52.367Z</time></trkpt><trkpt lat="45.6825817" lon="11.0869433"><ele>1467.0</ele><time>2026-05-01T11:56:53.367Z</time></trkpt><trkpt lat="45.6824633" lon="11.0870667"><ele>1467.0</ele><time>2026-05-01T11:56:54.367Z</time></trkpt><trkpt lat="45.682355" lon="11.0871983"><ele>1467.0</ele><time>2026-05-01T11:56:55.366Z</time></trkpt><trkpt lat="45.6822433" lon="11.087325"><ele>1467.0</ele><time>2026-05-01T11:56:56.367Z</time></trkpt><trkpt lat="45.682135" lon="11.0874533"><ele>1467.0</ele><time>2026-05-01T11:56:57.367Z</time></trkpt><trkpt lat="45.6820267" lon="11.0875767"><ele>1466.25</ele><time>2026-05-01T11:56:58.366Z</time></trkpt><trkpt lat="45.68191" lon="11.0876917"><ele>1465.5</ele><time>2026-05-01T11:56:59.367Z</time></trkpt><trkpt lat="45.6817783" lon="11.087785"><ele>1464.75</ele><time>2026-05-01T11:57:00.367Z</time></trkpt><trkpt lat="45.6816383" lon="11.0878683"><ele>1464.0</ele><time>2026-05-01T11:57:01.366Z</time></trkpt><trkpt lat="45.68148" lon="11.08795"><ele>1464.0</ele><time>2026-05-01T11:57:02.367Z</time></trkpt><trkpt lat="45.6813033" lon="11.0880367"><ele>1464.0</ele><time>2026-05-01T11:57:03.367Z</time></trkpt><trkpt lat="45.6811183" lon="11.0881333"><ele>1464.0</ele><time>2026-05-01T11:57:04.366Z</time></trkpt><trkpt lat="45.6809183" lon="11.088235"><ele>1462.0</ele><time>2026-05-01T11:57:05.367Z</time></trkpt><trkpt lat="45.6807183" lon="11.0883333"><ele>1460.0</ele><time>2026-05-01T11:57:06.367Z</time></trkpt><trkpt lat="45.6805183" lon="11.0884383"><ele>1458.0</ele><time>2026-05-01T11:57:07.367Z</time></trkpt><trkpt lat="45.6803183" lon="11.0885433"><ele>1455.3333333333333</ele><time>2026-05-01T11:57:08.367Z</time></trkpt><trkpt lat="45.680125" lon="11.0886483"><ele>1452.6666666666665</ele><time>2026-05-01T11:57:09.367Z</time></trkpt><trkpt lat="45.679935" lon="11.08876"><ele>1450.0</ele><time>2026-05-01T11:57:10.366Z</time></trkpt><trkpt lat="45.6797533" lon="11.08888"><ele>1450.0</ele><time>2026-05-01T11:57:11.366Z</time></trkpt><trkpt lat="45.6795733" lon="11.089005"><ele>1450.0</ele><time>2026-05-01T11:57:12.367Z</time></trkpt><trkpt lat="45.6793917" lon="11.08914"><ele>1450.0</ele><time>2026-05-01T11:57:13.367Z</time></trkpt><trkpt lat="45.6792117" lon="11.0892717"><ele>1449.0</ele><time>2026-05-01T11:57:14.367Z</time></trkpt><trkpt lat="45.6790233" lon="11.0893933"><ele>1448.0</ele><time>2026-05-01T11:57:15.366Z</time></trkpt><trkpt lat="45.6788417" lon="11.0894917"><ele>1447.0</ele><time>2026-05-01T11:57:16.367Z</time></trkpt><trkpt lat="45.67866" lon="11.0895683"><ele>1444.3333333333333</ele><time>2026-05-01T11:57:17.367Z</time></trkpt><trkpt lat="45.67847" lon="11.08961"><ele>1441.6666666666667</ele><time>2026-05-01T11:57:18.366Z</time></trkpt><trkpt lat="45.6782717" lon="11.0896167"><ele>1439.0</ele><time>2026-05-01T11:57:19.367Z</time></trkpt><trkpt lat="45.67807" lon="11.08956"><ele>1439.0</ele><time>2026-05-01T11:57:20.366Z</time></trkpt><trkpt lat="45.6778567" lon="11.0894883"><ele>1439.0</ele><time>2026-05-01T11:57:21.367Z</time></trkpt><trkpt lat="45.6776433" lon="11.089415"><ele>1439.0</ele><time>2026-05-01T11:57:22.367Z</time></trkpt><trkpt lat="45.6774383" lon="11.0893483"><ele>1437.6666666666667</ele><time>2026-05-01T11:57:23.367Z</time></trkpt><trkpt lat="45.6772383" lon="11.0892817"><ele>1436.3333333333333</ele><time>2026-05-01T11:57:24.367Z</time></trkpt><trkpt lat="45.6770383" lon="11.0892217"><ele>1435.0</ele><time>2026-05-01T11:57:25.367Z</time></trkpt><trkpt lat="45.6768417" lon="11.0891817"><ele>1434.3333333333333</ele><time>2026-05-01T11:57:26.367Z</time></trkpt><trkpt lat="45.6766417" lon="11.0891617"><ele>1433.6666666666667</ele><time>2026-05-01T11:57:27.367Z</time></trkpt><trkpt lat="45.6764417" lon="11.08917"><ele>1433.0</ele><time>2026-05-01T11:57:28.367Z</time></trkpt><trkpt lat="45.6762317" lon="11.089205"><ele>1431.3333333333335</ele><time>2026-05-01T11:57:29.367Z</time></trkpt><trkpt lat="45.676025" lon="11.0892433"><ele>1429.6666666666667</ele><time>2026-05-01T11:57:30.367Z</time></trkpt><trkpt lat="45.675815" lon="11.0892533"><ele>1428.0</ele><time>2026-05-01T11:57:31.366Z</time></trkpt><trkpt lat="45.6756017" lon="11.0891933"><ele>1424.0</ele><time>2026-05-01T11:57:32.366Z</time></trkpt><trkpt lat="45.6754017" lon="11.0890883"><ele>1420.0</ele><time>2026-05-01T11:57:33.367Z</time></trkpt><trkpt lat="45.6752017" lon="11.0889517"><ele>1416.0</ele><time>2026-05-01T11:57:34.367Z</time></trkpt><trkpt lat="45.6749983" lon="11.088815"><ele>1416.0</ele><time>2026-05-01T11:57:35.367Z</time></trkpt><trkpt lat="45.6747917" lon="11.0886767"><ele>1416.0</ele><time>2026-05-01T11:57:36.367Z</time></trkpt><trkpt lat="45.67459" lon="11.0885483"><ele>1416.0</ele><time>2026-05-01T11:57:37.367Z</time></trkpt><trkpt lat="45.6743933" lon="11.08842"><ele>1415.6666666666667</ele><time>2026-05-01T11:57:38.367Z</time></trkpt><trkpt lat="45.6742017" lon="11.0883083"><ele>1415.3333333333335</ele><time>2026-05-01T11:57:39.366Z</time></trkpt><trkpt lat="45.6740083" lon="11.08822"><ele>1415.0</ele><time>2026-05-01T11:57:40.366Z</time></trkpt><trkpt lat="45.6738017" lon="11.08817"><ele>1408.6666666666667</ele><time>2026-05-01T11:57:41.367Z</time></trkpt><trkpt lat="45.6736" lon="11.0881683"><ele>1402.3333333333333</ele><time>2026-05-01T11:57:42.367Z</time></trkpt><trkpt lat="45.6734067" lon="11.0881783"><ele>1396.0</ele><time>2026-05-01T11:57:43.366Z</time></trkpt><trkpt lat="45.673215" lon="11.0881583"><ele>1396.0</ele><time>2026-05-01T11:57:44.366Z</time></trkpt><trkpt lat="45.67304" lon="11.0880767"><ele>1396.0</ele><time>2026-05-01T11:57:45.367Z</time></trkpt><trkpt lat="45.67289" lon="11.08791"><ele>1396.0</ele><time>2026-05-01T11:57:46.367Z</time></trkpt><trkpt lat="45.6727783" lon="11.0876917"><ele>1396.0</ele><time>2026-05-01T11:57:47.367Z</time></trkpt><trkpt lat="45.672685" lon="11.0874733"><ele>1396.0</ele><time>2026-05-01T11:57:48.367Z</time></trkpt><trkpt lat="45.6725717" lon="11.087285"><ele>1396.0</ele><time>2026-05-01T11:57:49.367Z</time></trkpt><trkpt lat="45.6724183" lon="11.0871467"><ele>1391.3333333333333</ele><time>2026-05-01T11:57:50.367Z</time></trkpt><trkpt lat="45.6722333" lon="11.0870567"><ele>1386.6666666666667</ele><time>2026-05-01T11:57:51.367Z</time></trkpt><trkpt lat="45.6720317" lon="11.0869767"><ele>1382.0</ele><time>2026-05-01T11:57:52.367Z</time></trkpt><trkpt lat="45.67182" lon="11.0869067"><ele>1382.0</ele><time>2026-05-01T11:57:53.367Z</time></trkpt><trkpt lat="45.6716" lon="11.0868233"><ele>1382.0</ele><time>2026-05-01T11:57:54.367Z</time></trkpt><trkpt lat="45.6713767" lon="11.0867217"><ele>1382.0</ele><time>2026-05-01T11:57:55.367Z</time></trkpt><trkpt lat="45.6711417" lon="11.0865983"><ele>1382.0</ele><time>2026-05-01T11:57:56.367Z</time></trkpt><trkpt lat="45.6709067" lon="11.0864667"><ele>1378.5</ele><time>2026-05-01T11:57:57.367Z</time></trkpt><trkpt lat="45.6706717" lon="11.08633"><ele>1375.0</ele><time>2026-05-01T11:57:58.367Z</time></trkpt><trkpt lat="45.67043" lon="11.0861967"><ele>1373.0</ele><time>2026-05-01T11:57:59.367Z</time></trkpt><trkpt lat="45.67018" lon="11.0860617"><ele>1371.0</ele><time>2026-05-01T11:58:00.366Z</time></trkpt><trkpt lat="45.6699383" lon="11.0859317"><ele>1371.0</ele><time>2026-05-01T11:58:01.367Z</time></trkpt><trkpt lat="45.6697017" lon="11.0858183"><ele>1371.0</ele><time>2026-05-01T11:58:02.366Z</time></trkpt><trkpt lat="45.669465" lon="11.085735"><ele>1359.5</ele><time>2026-05-01T11:58:03.367Z</time></trkpt><trkpt lat="45.669205" lon="11.0856967"><ele>1348.0</ele><time>2026-05-01T11:58:04.367Z</time></trkpt><trkpt lat="45.668925" lon="11.0857167"><ele>1357.5</ele><time>2026-05-01T11:58:05.367Z</time></trkpt><trkpt lat="45.6686317" lon="11.08577"><ele>1367.0</ele><time>2026-05-01T11:58:06.367Z</time></trkpt><trkpt lat="45.668355" lon="11.0858217"><ele>1367.0</ele><time>2026-05-01T11:58:07.367Z</time></trkpt><trkpt lat="45.6680883" lon="11.085865"><ele>1367.0</ele><time>2026-05-01T11:58:08.367Z</time></trkpt><trkpt lat="45.6678383" lon="11.08588"><ele>1367.5</ele><time>2026-05-01T11:58:09.367Z</time></trkpt><trkpt lat="45.6675883" lon="11.085865"><ele>1368.0</ele><time>2026-05-01T11:58:10.367Z</time></trkpt><trkpt lat="45.6673433" lon="11.08583"><ele>1368.0</ele><time>2026-05-01T11:58:11.367Z</time></trkpt><trkpt lat="45.6670967" lon="11.08579"><ele>1368.0</ele><time>2026-05-01T11:58:12.367Z</time></trkpt><trkpt lat="45.66685" lon="11.085755"><ele>1360.5</ele><time>2026-05-01T11:58:13.366Z</time></trkpt><trkpt lat="45.6665983" lon="11.08572"><ele>1353.0</ele><time>2026-05-01T11:58:14.366Z</time></trkpt><trkpt lat="45.6663533" lon="11.0856917"><ele>1355.5</ele><time>2026-05-01T11:58:15.367Z</time></trkpt><trkpt lat="45.6661083" lon="11.0856617"><ele>1358.0</ele><time>2026-05-01T11:58:16.367Z</time></trkpt><trkpt lat="45.665865" lon="11.0856217"><ele>1358.0</ele><time>2026-05-01T11:58:17.367Z</time></trkpt><trkpt lat="45.6656233" lon="11.0855783"><ele>1358.0</ele><time>2026-05-01T11:58:18.367Z</time></trkpt><trkpt lat="45.6653833" lon="11.085535"><ele>1362.5</ele><time>2026-05-01T11:58:19.367Z</time></trkpt><trkpt lat="45.6651367" lon="11.085495"><ele>1367.0</ele><time>2026-05-01T11:58:20.367Z</time></trkpt><trkpt lat="45.6648883" lon="11.085455"><ele>1367.0</ele><time>2026-05-01T11:58:21.367Z</time></trkpt><trkpt lat="45.6646417" lon="11.0854217"><ele>1367.0</ele><time>2026-05-01T11:58:22.367Z</time></trkpt><trkpt lat="45.664395" lon="11.08539"><ele>1369.0</ele><time>2026-05-01T11:58:23.367Z</time></trkpt><trkpt lat="45.6641483" lon="11.0853567"><ele>1371.0</ele><time>2026-05-01T11:58:24.367Z</time></trkpt><trkpt lat="45.6638983" lon="11.0853167"><ele>1371.0</ele><time>2026-05-01T11:58:25.367Z</time></trkpt><trkpt lat="45.6636483" lon="11.0852733"><ele>1371.0</ele><time>2026-05-01T11:58:26.367Z</time></trkpt><trkpt lat="45.66339" lon="11.0852333"><ele>1373.5</ele><time>2026-05-01T11:58:27.366Z</time></trkpt><trkpt lat="45.6631217" lon="11.0851967"><ele>1376.0</ele><time>2026-05-01T11:58:28.367Z</time></trkpt><trkpt lat="45.662845" lon="11.0851633"><ele>1378.0</ele><time>2026-05-01T11:58:29.366Z</time></trkpt><trkpt lat="45.6625767" lon="11.0851283"><ele>1380.0</ele><time>2026-05-01T11:58:30.367Z</time></trkpt><trkpt lat="45.6623117" lon="11.0850867"><ele>1380.0</ele><time>2026-05-01T11:58:31.367Z</time></trkpt><trkpt lat="45.6620633" lon="11.0850583"><ele>1380.0</ele><time>2026-05-01T11:58:32.367Z</time></trkpt><trkpt lat="45.6618317" lon="11.0850367"><ele>1382.6666666666667</ele><time>2026-05-01T11:58:33.367Z</time></trkpt><trkpt lat="45.6616167" lon="11.085015"><ele>1385.3333333333335</ele><time>2026-05-01T11:58:34.366Z</time></trkpt><trkpt lat="45.661405" lon="11.0850133"><ele>1388.0</ele><time>2026-05-01T11:58:35.367Z</time></trkpt><trkpt lat="45.6612083" lon="11.08505"><ele>1388.3333333333335</ele><time>2026-05-01T11:58:36.367Z</time></trkpt><trkpt lat="45.661015" lon="11.0851467"><ele>1388.6666666666667</ele><time>2026-05-01T11:58:37.367Z</time></trkpt><trkpt lat="45.660815" lon="11.0852817"><ele>1389.0</ele><time>2026-05-01T11:58:38.367Z</time></trkpt><trkpt lat="45.660615" lon="11.0854283"><ele>1389.0</ele><time>2026-05-01T11:58:39.366Z</time></trkpt><trkpt lat="45.660415" lon="11.0855833"><ele>1389.0</ele><time>2026-05-01T11:58:40.367Z</time></trkpt><trkpt lat="45.6602117" lon="11.0857433"><ele>1389.0</ele><time>2026-05-01T11:58:41.366Z</time></trkpt><trkpt lat="45.6600083" lon="11.085915"><ele>1389.0</ele><time>2026-05-01T11:58:42.367Z</time></trkpt><trkpt lat="45.6597983" lon="11.0860933"><ele>1389.0</ele><time>2026-05-01T11:58:43.367Z</time></trkpt><trkpt lat="45.6595883" lon="11.0862833"><ele>1389.0</ele><time>2026-05-01T11:58:44.367Z</time></trkpt><trkpt lat="45.659385" lon="11.0864683"><ele>1386.5</ele><time>2026-05-01T11:58:45.367Z</time></trkpt><trkpt lat="45.6591733" lon="11.08665"><ele>1384.0</ele><time>2026-05-01T11:58:46.367Z</time></trkpt><trkpt lat="45.6589633" lon="11.0868333"><ele>1384.0</ele><time>2026-05-01T11:58:47.367Z</time></trkpt><trkpt lat="45.6587683" lon="11.087"><ele>1384.0</ele><time>2026-05-01T11:58:48.366Z</time></trkpt><trkpt lat="45.65859" lon="11.0871567"><ele>1384.0</ele><time>2026-05-01T11:58:49.366Z</time></trkpt><trkpt lat="45.6584183" lon="11.08731"><ele>1384.6666666666665</ele><time>2026-05-01T11:58:50.367Z</time></trkpt><trkpt lat="45.65826" lon="11.0874833"><ele>1385.3333333333333</ele><time>2026-05-01T11:58:51.367Z</time></trkpt><trkpt lat="45.6581133" lon="11.0876733"><ele>1386.0</ele><time>2026-05-01T11:58:52.367Z</time></trkpt><trkpt lat="45.6579717" lon="11.0878617"><ele>1386.0</ele><time>2026-05-01T11:58:53.367Z</time></trkpt><trkpt lat="45.65785" lon="11.0880467"><ele>1386.0</ele><time>2026-05-01T11:58:54.366Z</time></trkpt><trkpt lat="45.657755" lon="11.0882433"><ele>1386.0</ele><time>2026-05-01T11:58:55.367Z</time></trkpt><trkpt lat="45.6576917" lon="11.08845"><ele>1386.6666666666667</ele><time>2026-05-01T11:58:56.367Z</time></trkpt><trkpt lat="45.6576767" lon="11.0886717"><ele>1387.3333333333335</ele><time>2026-05-01T11:58:57.367Z</time></trkpt><trkpt lat="45.6577017" lon="11.088915"><ele>1388.0</ele><time>2026-05-01T11:58:58.367Z</time></trkpt><trkpt lat="45.6577483" lon="11.0891783"><ele>1390.3333333333335</ele><time>2026-05-01T11:58:59.367Z</time></trkpt><trkpt lat="45.6578133" lon="11.08945"><ele>1392.6666666666667</ele><time>2026-05-01T11:59:00.367Z</time></trkpt><trkpt lat="45.6578767" lon="11.08974"><ele>1395.0</ele><time>2026-05-01T11:59:01.367Z</time></trkpt><trkpt lat="45.6579533" lon="11.0900483"><ele>1395.0</ele><time>2026-05-01T11:59:02.367Z</time></trkpt><trkpt lat="45.6580333" lon="11.0903533"><ele>1395.0</ele><time>2026-05-01T11:59:03.367Z</time></trkpt><trkpt lat="45.6580817" lon="11.0906867"><ele>1392.0</ele><time>2026-05-01T11:59:04.367Z</time></trkpt><trkpt lat="45.6581217" lon="11.0910033"><ele>1389.0</ele><time>2026-05-01T11:59:05.367Z</time></trkpt><trkpt lat="45.658155" lon="11.0913017"><ele>1386.0</ele><time>2026-05-01T11:59:06.367Z</time></trkpt><trkpt lat="45.6581833" lon="11.0915783"><ele>1386.0</ele><time>2026-05-01T11:59:07.367Z</time></trkpt><trkpt lat="45.6582167" lon="11.09183"><ele>1386.0</ele><time>2026-05-01T11:59:08.367Z</time></trkpt><trkpt lat="45.6582433" lon="11.0920417"><ele>1386.0</ele><time>2026-05-01T11:59:09.367Z</time></trkpt><trkpt lat="45.6582417" lon="11.0922283"><ele>1386.0</ele><time>2026-05-01T11:59:10.366Z</time></trkpt><trkpt lat="45.6582117" lon="11.0923917"><ele>1386.0</ele><time>2026-05-01T11:59:11.367Z</time></trkpt><trkpt lat="45.6581483" lon="11.0925283"><ele>1386.0</ele><time>2026-05-01T11:59:12.366Z</time></trkpt><trkpt lat="45.658075" lon="11.09262"><ele>1386.0</ele><time>2026-05-01T11:59:13.366Z</time></trkpt><trkpt lat="45.65798" lon="11.09267"><ele>1386.0</ele><time>2026-05-01T11:59:14.367Z</time></trkpt><trkpt lat="45.6578767" lon="11.09266"><ele>1385.5</ele><time>2026-05-01T11:59:15.367Z</time></trkpt><trkpt lat="45.6577683" lon="11.0926117"><ele>1385.0</ele><time>2026-05-01T11:59:16.367Z</time></trkpt><trkpt lat="45.65765" lon="11.0925267"><ele>1384.5</ele><time>2026-05-01T11:59:17.367Z</time></trkpt><trkpt lat="45.657525" lon="11.0924317"><ele>1384.0</ele><time>2026-05-01T11:59:18.367Z</time></trkpt><trkpt lat="45.65738" lon="11.0923433"><ele>1384.6666666666665</ele><time>2026-05-01T11:59:19.367Z</time></trkpt><trkpt lat="45.657235" lon="11.092255"><ele>1385.3333333333333</ele><time>2026-05-01T11:59:20.367Z</time></trkpt><trkpt lat="45.657075" lon="11.0921767"><ele>1386.0</ele><time>2026-05-01T11:59:21.367Z</time></trkpt><trkpt lat="45.6569033" lon="11.0921217"><ele>1386.0</ele><time>2026-05-01T11:59:22.367Z</time></trkpt><trkpt lat="45.6567233" lon="11.09209"><ele>1386.0</ele><time>2026-05-01T11:59:23.367Z</time></trkpt><trkpt lat="45.656545" lon="11.0920767"><ele>1386.0</ele><time>2026-05-01T11:59:24.367Z</time></trkpt><trkpt lat="45.656375" lon="11.092055"><ele>1386.0</ele><time>2026-05-01T11:59:25.367Z</time></trkpt><trkpt lat="45.6562" lon="11.0920083"><ele>1386.0</ele><time>2026-05-01T11:59:26.367Z</time></trkpt><trkpt lat="45.65607" lon="11.09194"><ele>1386.0</ele><time>2026-05-01T11:59:27.367Z</time></trkpt><trkpt lat="45.6559417" lon="11.0918983"><ele>1386.0</ele><time>2026-05-01T11:59:28.367Z</time></trkpt><trkpt lat="45.6558133" lon="11.0919117"><ele>1387.75</ele><time>2026-05-01T11:59:29.367Z</time></trkpt><trkpt lat="45.6556933" lon="11.0919683"><ele>1389.5</ele><time>2026-05-01T11:59:30.367Z</time></trkpt><trkpt lat="45.6555883" lon="11.092065"><ele>1391.25</ele><time>2026-05-01T11:59:31.367Z</time></trkpt><trkpt lat="45.6555" lon="11.0921767"><ele>1393.0</ele><time>2026-05-01T11:59:32.366Z</time></trkpt><trkpt lat="45.6554283" lon="11.092285"><ele>1393.0</ele><time>2026-05-01T11:59:33.367Z</time></trkpt><trkpt lat="45.6553717" lon="11.0924083"><ele>1393.0</ele><time>2026-05-01T11:59:34.367Z</time></trkpt><trkpt lat="45.6553233" lon="11.0925367"><ele>1393.0</ele><time>2026-05-01T11:59:35.367Z</time></trkpt><trkpt lat="45.6552933" lon="11.0926717"><ele>1393.0</ele><time>2026-05-01T11:59:36.367Z</time></trkpt><trkpt lat="45.6552883" lon="11.0928117"><ele>1393.0</ele><time>2026-05-01T11:59:37.367Z</time></trkpt><trkpt lat="45.6552883" lon="11.0929633"><ele>1392.8000000000002</ele><time>2026-05-01T11:59:38.367Z</time></trkpt><trkpt lat="45.6552767" lon="11.0931133"><ele>1392.6</ele><time>2026-05-01T11:59:39.367Z</time></trkpt><trkpt lat="45.6552467" lon="11.0932633"><ele>1392.4</ele><time>2026-05-01T11:59:40.367Z</time></trkpt><trkpt lat="45.6551867" lon="11.0934"><ele>1392.1999999999998</ele><time>2026-05-01T11:59:41.367Z</time></trkpt><trkpt lat="45.6551083" lon="11.09352"><ele>1392.0</ele><time>2026-05-01T11:59:42.367Z</time></trkpt><trkpt lat="45.65501" lon="11.093605"><ele>1394.75</ele><time>2026-05-01T11:59:43.367Z</time></trkpt><trkpt lat="45.6548983" lon="11.0936617"><ele>1397.5</ele><time>2026-05-01T11:59:44.367Z</time></trkpt><trkpt lat="45.654785" lon="11.093715"><ele>1400.25</ele><time>2026-05-01T11:59:45.367Z</time></trkpt><trkpt lat="45.6546783" lon="11.0937817"><ele>1403.0</ele><time>2026-05-01T11:59:46.367Z</time></trkpt><trkpt lat="45.65457" lon="11.0938483"><ele>1403.0</ele><time>2026-05-01T11:59:47.367Z</time></trkpt><trkpt lat="45.6544583" lon="11.0939067"><ele>1403.0</ele><time>2026-05-01T11:59:48.367Z</time></trkpt><trkpt lat="45.654345" lon="11.0939683"><ele>1403.0</ele><time>2026-05-01T11:59:49.367Z</time></trkpt><trkpt lat="45.65423" lon="11.094025"><ele>1403.0</ele><time>2026-05-01T11:59:50.367Z</time></trkpt><trkpt lat="45.6541167" lon="11.09409"><ele>1404.0</ele><time>2026-05-01T11:59:51.367Z</time></trkpt><trkpt lat="45.654005" lon="11.0941517"><ele>1405.0</ele><time>2026-05-01T11:59:52.367Z</time></trkpt><trkpt lat="45.65389" lon="11.0942033"><ele>1406.0</ele><time>2026-05-01T11:59:53.367Z</time></trkpt><trkpt lat="45.6537817" lon="11.094245"><ele>1407.0</ele><time>2026-05-01T11:59:54.367Z</time></trkpt><trkpt lat="45.653665" lon="11.0942783"><ele>1406.0</ele><time>2026-05-01T11:59:55.367Z</time></trkpt><trkpt lat="45.653545" lon="11.0943067"><ele>1405.0</ele><time>2026-05-01T11:59:56.366Z</time></trkpt><trkpt lat="45.6534217" lon="11.09433"><ele>1404.0</ele><time>2026-05-01T11:59:57.367Z</time></trkpt><trkpt lat="45.6532917" lon="11.0943383"><ele>1403.0</ele><time>2026-05-01T11:59:58.367Z</time></trkpt><trkpt lat="45.6531617" lon="11.0943483"><ele>1403.0</ele><time>2026-05-01T11:59:59.366Z</time></trkpt><trkpt lat="45.6530383" lon="11.0943617"><ele>1403.0</ele><time>2026-05-01T12:00:00.367Z</time></trkpt><trkpt lat="45.652925" lon="11.0943683"><ele>1403.0</ele><time>2026-05-01T12:00:01.367Z</time></trkpt><trkpt lat="45.652815" lon="11.09437"><ele>1403.0</ele><time>2026-05-01T12:00:02.367Z</time></trkpt><trkpt lat="45.6527183" lon="11.094375"><ele>1403.0</ele><time>2026-05-01T12:00:03.367Z</time></trkpt><trkpt lat="45.6526267" lon="11.094385"><ele>1403.3333333333335</ele><time>2026-05-01T12:00:04.366Z</time></trkpt><trkpt lat="45.6525417" lon="11.094395"><ele>1403.6666666666667</ele><time>2026-05-01T12:00:05.367Z</time></trkpt><trkpt lat="45.65246" lon="11.0944033"><ele>1404.0</ele><time>2026-05-01T12:00:06.367Z</time></trkpt><trkpt lat="45.65238" lon="11.0944017"><ele>1404.3333333333333</ele><time>2026-05-01T12:00:07.367Z</time></trkpt><trkpt lat="45.6523067" lon="11.094405"><ele>1404.6666666666665</ele><time>2026-05-01T12:00:08.367Z</time></trkpt><trkpt lat="45.6522417" lon="11.0944117"><ele>1405.0</ele><time>2026-05-01T12:00:09.367Z</time></trkpt><trkpt lat="45.6521367" lon="11.09442"><ele>1405.0</ele><time>2026-05-01T12:00:11.367Z</time></trkpt><trkpt lat="45.6520333" lon="11.0944067"><ele>1405.0</ele><time>2026-05-01T12:00:13.367Z</time></trkpt><trkpt lat="45.651895" lon="11.094385"><ele>1405.0</ele><time>2026-05-01T12:00:15.367Z</time></trkpt><trkpt lat="45.6518" lon="11.0943667"><ele>1405.0</ele><time>2026-05-01T12:00:16.366Z</time></trkpt><trkpt lat="45.6517" lon="11.0943483"><ele>1405.0</ele><time>2026-05-01T12:00:17.367Z</time></trkpt><trkpt lat="45.6516117" lon="11.0943283"><ele>1405.0</ele><time>2026-05-01T12:00:18.367Z</time></trkpt><trkpt lat="45.6515317" lon="11.0943117"><ele>1405.0</ele><time>2026-05-01T12:00:19.367Z</time></trkpt><trkpt lat="45.651465" lon="11.09431"><ele>1405.0</ele><time>2026-05-01T12:00:20.366Z</time></trkpt><trkpt lat="45.6514017" lon="11.0943133"><ele>1405.0</ele><time>2026-05-01T12:00:21.366Z</time></trkpt><trkpt lat="45.65129" lon="11.0943167"><ele>1405.0</ele><time>2026-05-01T12:00:23.366Z</time></trkpt><trkpt lat="45.6512033" lon="11.0943183"><ele>1405.0</ele><time>2026-05-01T12:00:25.366Z</time></trkpt><trkpt lat="45.6511317" lon="11.09433"><ele>1405.0</ele><time>2026-05-01T12:00:28.366Z</time></trkpt><trkpt lat="45.6511667" lon="11.0944167"><ele>1405.0</ele><time>2026-05-01T12:00:32.366Z</time></trkpt><trkpt lat="45.6512317" lon="11.0944"><ele>1405.0</ele><time>2026-05-01T12:00:33.366Z</time></trkpt><trkpt lat="45.6513233" lon="11.0943667"><ele>1405.0</ele><time>2026-05-01T12:00:34.366Z</time></trkpt><trkpt lat="45.6514267" lon="11.0943533"><ele>1405.0</ele><time>2026-05-01T12:00:35.365Z</time></trkpt><trkpt lat="45.6515317" lon="11.0943583"><ele>1405.0</ele><time>2026-05-01T12:00:36.365Z</time></trkpt><trkpt lat="45.6516417" lon="11.09438"><ele>1405.0</ele><time>2026-05-01T12:00:37.366Z</time></trkpt><trkpt lat="45.6517533" lon="11.094395"><ele>1405.0</ele><time>2026-05-01T12:00:38.366Z</time></trkpt><trkpt lat="45.65186" lon="11.09441"><ele>1405.0</ele><time>2026-05-01T12:00:39.366Z</time></trkpt><trkpt lat="45.6519567" lon="11.0944267"><ele>1405.0</ele><time>2026-05-01T12:00:40.365Z</time></trkpt><trkpt lat="45.6520483" lon="11.094435"><ele>1405.0</ele><time>2026-05-01T12:00:41.366Z</time></trkpt><trkpt lat="45.652145" lon="11.09444"><ele>1405.0</ele><time>2026-05-01T12:00:42.366Z</time></trkpt><trkpt lat="45.6522467" lon="11.0944367"><ele>1405.0</ele><time>2026-05-01T12:00:43.366Z</time></trkpt><trkpt lat="45.65236" lon="11.09443"><ele>1405.0</ele><time>2026-05-01T12:00:44.366Z</time></trkpt><trkpt lat="45.65249" lon="11.0944217"><ele>1405.0</ele><time>2026-05-01T12:00:45.366Z</time></trkpt><trkpt lat="45.6526217" lon="11.0944067"><ele>1405.0</ele><time>2026-05-01T12:00:46.366Z</time></trkpt><trkpt lat="45.65276" lon="11.0944017"><ele>1405.0</ele><time>2026-05-01T12:00:47.366Z</time></trkpt><trkpt lat="45.6529033" lon="11.0943983"><ele>1405.0</ele><time>2026-05-01T12:00:48.365Z</time></trkpt><trkpt lat="45.653055" lon="11.0943867"><ele>1405.0</ele><time>2026-05-01T12:00:49.366Z</time></trkpt><trkpt lat="45.653205" lon="11.094375"><ele>1404.6</ele><time>2026-05-01T12:00:50.366Z</time></trkpt><trkpt lat="45.6533333" lon="11.0943667"><ele>1404.2</ele><time>2026-05-01T12:00:51.365Z</time></trkpt><trkpt lat="45.6534517" lon="11.0943517"><ele>1403.8000000000002</ele><time>2026-05-01T12:00:52.366Z</time></trkpt><trkpt lat="45.6535517" lon="11.0943433"><ele>1403.4</ele><time>2026-05-01T12:00:53.366Z</time></trkpt><trkpt lat="45.65363" lon="11.09433"><ele>1403.0</ele><time>2026-05-01T12:00:54.366Z</time></trkpt><trkpt lat="45.653705" lon="11.09428"><ele>1403.0</ele><time>2026-05-01T12:00:56.366Z</time></trkpt><trkpt lat="45.653665" lon="11.0941867"><ele>1403.0</ele><time>2026-05-01T12:00:59.366Z</time></trkpt><trkpt lat="45.6535533" lon="11.0941467"><ele>1403.0</ele><time>2026-05-01T12:01:01.366Z</time></trkpt><trkpt lat="45.65347" lon="11.0941217"><ele>1403.0</ele><time>2026-05-01T12:01:02.366Z</time></trkpt><trkpt lat="45.65339" lon="11.0940833"><ele>1403.0</ele><time>2026-05-01T12:01:03.366Z</time></trkpt><trkpt lat="45.65332" lon="11.0940167"><ele>1403.0</ele><time>2026-05-01T12:01:04.366Z</time></trkpt><trkpt lat="45.6532683" lon="11.0939367"><ele>1400.6000000000001</ele><time>2026-05-01T12:01:05.366Z</time></trkpt><trkpt lat="45.6532333" lon="11.0938567"><ele>1398.2</ele><time>2026-05-01T12:01:06.365Z</time></trkpt><trkpt lat="45.653225" lon="11.0936717"><ele>1395.8</ele><time>2026-05-01T12:01:08.365Z</time></trkpt><trkpt lat="45.6532417" lon="11.0935533"><ele>1393.4</ele><time>2026-05-01T12:01:09.366Z</time></trkpt><trkpt lat="45.6532683" lon="11.093425"><ele>1391.0</ele><time>2026-05-01T12:01:10.366Z</time></trkpt><trkpt lat="45.6532967" lon="11.0933"><ele>1388.8333333333335</ele><time>2026-05-01T12:01:11.366Z</time></trkpt><trkpt lat="45.6533183" lon="11.0931767"><ele>1386.6666666666667</ele><time>2026-05-01T12:01:12.366Z</time></trkpt><trkpt lat="45.65333" lon="11.093065"><ele>1384.5</ele><time>2026-05-01T12:01:13.366Z</time></trkpt><trkpt lat="45.6533383" lon="11.0929433"><ele>1382.3333333333333</ele><time>2026-05-01T12:01:14.366Z</time></trkpt><trkpt lat="45.6533433" lon="11.09282"><ele>1380.1666666666665</ele><time>2026-05-01T12:01:15.366Z</time></trkpt><trkpt lat="45.6533317" lon="11.0926867"><ele>1378.0</ele><time>2026-05-01T12:01:16.366Z</time></trkpt><trkpt lat="45.65331" lon="11.0925517"><ele>1376.0</ele><time>2026-05-01T12:01:17.366Z</time></trkpt><trkpt lat="45.6532883" lon="11.09242"><ele>1374.0</ele><time>2026-05-01T12:01:18.366Z</time></trkpt><trkpt lat="45.65326" lon="11.092285"><ele>1372.0</ele><time>2026-05-01T12:01:19.366Z</time></trkpt><trkpt lat="45.6532317" lon="11.09215"><ele>1370.0</ele><time>2026-05-01T12:01:20.366Z</time></trkpt><trkpt lat="45.6531917" lon="11.09202"><ele>1368.0</ele><time>2026-05-01T12:01:21.366Z</time></trkpt><trkpt lat="45.6531583" lon="11.0918933"><ele>1368.0</ele><time>2026-05-01T12:01:22.366Z</time></trkpt><trkpt lat="45.65312" lon="11.0917517"><ele>1368.0</ele><time>2026-05-01T12:01:23.366Z</time></trkpt><trkpt lat="45.653085" lon="11.09162"><ele>1368.0</ele><time>2026-05-01T12:01:24.366Z</time></trkpt><trkpt lat="45.6530517" lon="11.0914967"><ele>1368.0</ele><time>2026-05-01T12:01:25.366Z</time></trkpt><trkpt lat="45.6530283" lon="11.09137"><ele>1368.0</ele><time>2026-05-01T12:01:26.366Z</time></trkpt><trkpt lat="45.652995" lon="11.0912483"><ele>1366.6666666666667</ele><time>2026-05-01T12:01:27.366Z</time></trkpt><trkpt lat="45.6529683" lon="11.0911317"><ele>1365.3333333333333</ele><time>2026-05-01T12:01:28.366Z</time></trkpt><trkpt lat="45.65294" lon="11.0910333"><ele>1364.0</ele><time>2026-05-01T12:01:29.366Z</time></trkpt><trkpt lat="45.6529317" lon="11.09091"><ele>1362.6666666666665</ele><time>2026-05-01T12:01:31.366Z</time></trkpt><trkpt lat="45.653" lon="11.090855"><ele>1361.3333333333333</ele><time>2026-05-01T12:01:33.365Z</time></trkpt><trkpt lat="45.6530867" lon="11.0908433"><ele>1360.0</ele><time>2026-05-01T12:01:35.366Z</time></trkpt><trkpt lat="45.6531583" lon="11.09092"><ele>1360.0</ele><time>2026-05-01T12:01:37.365Z</time></trkpt><trkpt lat="45.6532033" lon="11.0909983"><ele>1360.0</ele><time>2026-05-01T12:01:38.366Z</time></trkpt><trkpt lat="45.6532583" lon="11.0911083"><ele>1360.0</ele><time>2026-05-01T12:01:39.366Z</time></trkpt><trkpt lat="45.6533283" lon="11.0912433"><ele>1360.0</ele><time>2026-05-01T12:01:40.366Z</time></trkpt><trkpt lat="45.65339" lon="11.09138"><ele>1360.0</ele><time>2026-05-01T12:01:41.366Z</time></trkpt><trkpt lat="45.6534467" lon="11.091505"><ele>1360.6666666666665</ele><time>2026-05-01T12:01:42.366Z</time></trkpt><trkpt lat="45.6535017" lon="11.09161"><ele>1361.3333333333333</ele><time>2026-05-01T12:01:43.366Z</time></trkpt><trkpt lat="45.6535583" lon="11.0916967"><ele>1362.0</ele><time>2026-05-01T12:01:44.366Z</time></trkpt><trkpt lat="45.653625" lon="11.0917867"><ele>1362.6666666666667</ele><time>2026-05-01T12:01:45.366Z</time></trkpt><trkpt lat="45.6536967" lon="11.09187"><ele>1363.3333333333335</ele><time>2026-05-01T12:01:46.366Z</time></trkpt><trkpt lat="45.6537633" lon="11.0919317"><ele>1364.0</ele><time>2026-05-01T12:01:47.366Z</time></trkpt><trkpt lat="45.6538283" lon="11.0919817"><ele>1364.0</ele><time>2026-05-01T12:01:48.366Z</time></trkpt><trkpt lat="45.65394" lon="11.0919867"><ele>1364.0</ele><time>2026-05-01T12:01:50.366Z</time></trkpt><trkpt lat="45.6540017" lon="11.0918833"><ele>1364.0</ele><time>2026-05-01T12:01:52.366Z</time></trkpt><trkpt lat="45.654035" lon="11.0917817"><ele>1364.0</ele><time>2026-05-01T12:01:53.365Z</time></trkpt><trkpt lat="45.6540867" lon="11.0916417"><ele>1364.0</ele><time>2026-05-01T12:01:54.366Z</time></trkpt><trkpt lat="45.6541417" lon="11.0914883"><ele>1360.8000000000002</ele><time>2026-05-01T12:01:55.366Z</time></trkpt><trkpt lat="45.6541983" lon="11.0913517"><ele>1357.6000000000001</ele><time>2026-05-01T12:01:56.366Z</time></trkpt><trkpt lat="45.6542517" lon="11.0912183"><ele>1354.4</ele><time>2026-05-01T12:01:57.365Z</time></trkpt><trkpt lat="45.6542983" lon="11.0910917"><ele>1351.2</ele><time>2026-05-01T12:01:58.366Z</time></trkpt><trkpt lat="45.6543417" lon="11.0909717"><ele>1348.0</ele><time>2026-05-01T12:01:59.366Z</time></trkpt><trkpt lat="45.6543767" lon="11.0908533"><ele>1347.6666666666665</ele><time>2026-05-01T12:02:00.366Z</time></trkpt><trkpt lat="45.6544083" lon="11.09074"><ele>1347.3333333333333</ele><time>2026-05-01T12:02:01.366Z</time></trkpt><trkpt lat="45.65443" lon="11.0906367"><ele>1347.0</ele><time>2026-05-01T12:02:02.365Z</time></trkpt><trkpt lat="45.6544533" lon="11.0905483"><ele>1346.6666666666667</ele><time>2026-05-01T12:02:03.366Z</time></trkpt><trkpt lat="45.6544917" lon="11.09046"><ele>1346.3333333333335</ele><time>2026-05-01T12:02:04.366Z</time></trkpt><trkpt lat="45.6545433" lon="11.0903583"><ele>1346.0</ele><time>2026-05-01T12:02:05.366Z</time></trkpt><trkpt lat="45.6546033" lon="11.0902433"><ele>1346.0</ele><time>2026-05-01T12:02:06.366Z</time></trkpt><trkpt lat="45.6546617" lon="11.0901233"><ele>1346.0</ele><time>2026-05-01T12:02:07.366Z</time></trkpt><trkpt lat="45.65472" lon="11.090025"><ele>1346.0</ele><time>2026-05-01T12:02:08.365Z</time></trkpt><trkpt lat="45.6547833" lon="11.08994"><ele>1346.0</ele><time>2026-05-01T12:02:09.366Z</time></trkpt><trkpt lat="45.6548583" lon="11.0898733"><ele>1346.0</ele><time>2026-05-01T12:02:10.366Z</time></trkpt><trkpt lat="45.6549417" lon="11.0898"><ele>1344.4</ele><time>2026-05-01T12:02:11.366Z</time></trkpt><trkpt lat="45.655015" lon="11.0897333"><ele>1342.8</ele><time>2026-05-01T12:02:12.365Z</time></trkpt><trkpt lat="45.65507" lon="11.089675"><ele>1341.2</ele><time>2026-05-01T12:02:13.366Z</time></trkpt><trkpt lat="45.65515" lon="11.0895483"><ele>1339.6000000000001</ele><time>2026-05-01T12:02:15.366Z</time></trkpt><trkpt lat="45.6551967" lon="11.0894133"><ele>1338.0</ele><time>2026-05-01T12:02:17.366Z</time></trkpt><trkpt lat="45.6552183" lon="11.0893183"><ele>1338.0</ele><time>2026-05-01T12:02:18.365Z</time></trkpt><trkpt lat="45.6552483" lon="11.0892117"><ele>1338.0</ele><time>2026-05-01T12:02:19.366Z</time></trkpt><trkpt lat="45.6552683" lon="11.0890917"><ele>1338.0</ele><time>2026-05-01T12:02:20.366Z</time></trkpt><trkpt lat="45.6552867" lon="11.0889733"><ele>1338.0</ele><time>2026-05-01T12:02:21.365Z</time></trkpt><trkpt lat="45.6553083" lon="11.0888483"><ele>1338.0</ele><time>2026-05-01T12:02:22.366Z</time></trkpt><trkpt lat="45.6553167" lon="11.0887167"><ele>1338.0</ele><time>2026-05-01T12:02:23.366Z</time></trkpt><trkpt lat="45.6553217" lon="11.0885833"><ele>1338.0</ele><time>2026-05-01T12:02:24.366Z</time></trkpt><trkpt lat="45.6553" lon="11.08847"><ele>1338.0</ele><time>2026-05-01T12:02:25.366Z</time></trkpt><trkpt lat="45.655265" lon="11.08836"><ele>1338.0</ele><time>2026-05-01T12:02:26.366Z</time></trkpt><trkpt lat="45.655225" lon="11.0882483"><ele>1338.0</ele><time>2026-05-01T12:02:27.366Z</time></trkpt><trkpt lat="45.6551817" lon="11.0881417"><ele>1338.0</ele><time>2026-05-01T12:02:28.366Z</time></trkpt><trkpt lat="45.6551467" lon="11.08805"><ele>1338.0</ele><time>2026-05-01T12:02:29.365Z</time></trkpt><trkpt lat="45.6551183" lon="11.0879633"><ele>1338.0</ele><time>2026-05-01T12:02:30.365Z</time></trkpt><trkpt lat="45.6550733" lon="11.08781"><ele>1338.0</ele><time>2026-05-01T12:02:32.366Z</time></trkpt><trkpt lat="45.65504" lon="11.0877167"><ele>1338.0</ele><time>2026-05-01T12:02:34.366Z</time></trkpt><trkpt lat="45.6550067" lon="11.0876333"><ele>1338.0</ele><time>2026-05-01T12:04:23.366Z</time></trkpt><trkpt lat="45.65495" lon="11.0874733"><ele>1338.0</ele><time>2026-05-01T12:04:25.366Z</time></trkpt><trkpt lat="45.65492" lon="11.08737"><ele>1337.6000000000001</ele><time>2026-05-01T12:04:26.366Z</time></trkpt><trkpt lat="45.6548867" lon="11.0872617"><ele>1337.2</ele><time>2026-05-01T12:04:27.366Z</time></trkpt><trkpt lat="45.6548533" lon="11.0871483"><ele>1336.8</ele><time>2026-05-01T12:04:28.366Z</time></trkpt><trkpt lat="45.6548183" lon="11.0870133"><ele>1336.4</ele><time>2026-05-01T12:04:29.366Z</time></trkpt><trkpt lat="45.654775" lon="11.0868867"><ele>1336.0</ele><time>2026-05-01T12:04:30.366Z</time></trkpt><trkpt lat="45.6547467" lon="11.0867633"><ele>1336.0</ele><time>2026-05-01T12:04:31.366Z</time></trkpt><trkpt lat="45.654715" lon="11.0866517"><ele>1336.0</ele><time>2026-05-01T12:04:32.366Z</time></trkpt><trkpt lat="45.6546783" lon="11.0865267"><ele>1336.0</ele><time>2026-05-01T12:04:33.366Z</time></trkpt><trkpt lat="45.6546383" lon="11.0863833"><ele>1336.0</ele><time>2026-05-01T12:04:34.366Z</time></trkpt><trkpt lat="45.6545967" lon="11.0862483"><ele>1336.0</ele><time>2026-05-01T12:04:35.366Z</time></trkpt><trkpt lat="45.654555" lon="11.086105"><ele>1335.6</ele><time>2026-05-01T12:04:36.366Z</time></trkpt><trkpt lat="45.6545167" lon="11.0859633"><ele>1335.1999999999998</ele><time>2026-05-01T12:04:37.366Z</time></trkpt><trkpt lat="45.65447" lon="11.08582"><ele>1334.8000000000002</ele><time>2026-05-01T12:04:38.366Z</time></trkpt><trkpt lat="45.65443" lon="11.0856883"><ele>1334.4</ele><time>2026-05-01T12:04:39.366Z</time></trkpt><trkpt lat="45.6543883" lon="11.0855667"><ele>1334.0</ele><time>2026-05-01T12:04:40.366Z</time></trkpt><trkpt lat="45.6543533" lon="11.0854433"><ele>1334.0</ele><time>2026-05-01T12:04:41.365Z</time></trkpt><trkpt lat="45.6543267" lon="11.0853233"><ele>1334.0</ele><time>2026-05-01T12:04:42.365Z</time></trkpt><trkpt lat="45.6543" lon="11.0852"><ele>1334.0</ele><time>2026-05-01T12:04:43.366Z</time></trkpt><trkpt lat="45.65427" lon="11.085085"><ele>1334.0</ele><time>2026-05-01T12:04:44.365Z</time></trkpt><trkpt lat="45.6542433" lon="11.0849767"><ele>1334.0</ele><time>2026-05-01T12:04:45.366Z</time></trkpt><trkpt lat="45.654215" lon="11.0848683"><ele>1334.0</ele><time>2026-05-01T12:04:46.365Z</time></trkpt><trkpt lat="45.6541833" lon="11.0847617"><ele>1333.6666666666667</ele><time>2026-05-01T12:04:47.366Z</time></trkpt><trkpt lat="45.65415" lon="11.0846517"><ele>1333.3333333333335</ele><time>2026-05-01T12:04:48.365Z</time></trkpt><trkpt lat="45.654105" lon="11.0845583"><ele>1333.0</ele><time>2026-05-01T12:04:49.366Z</time></trkpt><trkpt lat="45.6540533" lon="11.0844733"><ele>1332.6666666666667</ele><time>2026-05-01T12:04:50.366Z</time></trkpt><trkpt lat="45.6540017" lon="11.0843967"><ele>1332.3333333333333</ele><time>2026-05-01T12:04:51.366Z</time></trkpt><trkpt lat="45.6539333" lon="11.0842783"><ele>1332.0</ele><time>2026-05-01T12:04:53.366Z</time></trkpt><trkpt lat="45.6539317" lon="11.0841867"><ele>1331.3999999999999</ele><time>2026-05-01T12:04:55.366Z</time></trkpt><trkpt lat="45.6539933" lon="11.0840783"><ele>1330.8</ele><time>2026-05-01T12:07:05.365Z</time></trkpt><trkpt lat="45.654065" lon="11.083925"><ele>1330.2</ele><time>2026-05-01T12:07:07.365Z</time></trkpt><trkpt lat="45.6541083" lon="11.0838283"><ele>1329.6</ele><time>2026-05-01T12:07:08.365Z</time></trkpt><trkpt lat="45.6541467" lon="11.0837233"><ele>1329.0</ele><time>2026-05-01T12:07:09.365Z</time></trkpt><trkpt lat="45.6541917" lon="11.0836133"><ele>1329.0</ele><time>2026-05-01T12:07:10.365Z</time></trkpt><trkpt lat="45.6542417" lon="11.0834983"><ele>1329.0</ele><time>2026-05-01T12:07:11.365Z</time></trkpt><trkpt lat="45.654295" lon="11.083375"><ele>1329.0</ele><time>2026-05-01T12:07:12.365Z</time></trkpt><trkpt lat="45.65434" lon="11.0832517"><ele>1329.0</ele><time>2026-05-01T12:07:13.365Z</time></trkpt><trkpt lat="45.6543767" lon="11.0831417"><ele>1329.0</ele><time>2026-05-01T12:07:14.364Z</time></trkpt><trkpt lat="45.6544133" lon="11.08304"><ele>1329.3333333333333</ele><time>2026-05-01T12:07:15.365Z</time></trkpt><trkpt lat="45.6544617" lon="11.08294"><ele>1329.6666666666667</ele><time>2026-05-01T12:07:16.365Z</time></trkpt><trkpt lat="45.6545033" lon="11.0828417"><ele>1330.0</ele><time>2026-05-01T12:07:17.365Z</time></trkpt><trkpt lat="45.6545417" lon="11.0827317"><ele>1330.3333333333335</ele><time>2026-05-01T12:07:18.365Z</time></trkpt><trkpt lat="45.654585" lon="11.0826217"><ele>1330.6666666666667</ele><time>2026-05-01T12:07:19.365Z</time></trkpt><trkpt lat="45.65463" lon="11.0825183"><ele>1331.0</ele><time>2026-05-01T12:07:20.365Z</time></trkpt><trkpt lat="45.6546733" lon="11.0824033"><ele>1329.1999999999998</ele><time>2026-05-01T12:07:21.365Z</time></trkpt><trkpt lat="45.6547217" lon="11.08228"><ele>1327.3999999999999</ele><time>2026-05-01T12:07:22.365Z</time></trkpt><trkpt lat="45.6547583" lon="11.08216"><ele>1325.6</ele><time>2026-05-01T12:07:23.365Z</time></trkpt><trkpt lat="45.654785" lon="11.0820483"><ele>1323.8</ele><time>2026-05-01T12:07:24.365Z</time></trkpt><trkpt lat="45.6547917" lon="11.08195"><ele>1322.0</ele><time>2026-05-01T12:07:25.365Z</time></trkpt><trkpt lat="45.6547817" lon="11.0817667"><ele>1322.0</ele><time>2026-05-01T12:07:27.365Z</time></trkpt><trkpt lat="45.65476" lon="11.0816167"><ele>1322.0</ele><time>2026-05-01T12:07:29.364Z</time></trkpt><trkpt lat="45.6547383" lon="11.0814983"><ele>1322.0</ele><time>2026-05-01T12:07:31.365Z</time></trkpt><trkpt lat="45.6547517" lon="11.0813517"><ele>1322.0</ele><time>2026-05-01T12:07:33.364Z</time></trkpt><trkpt lat="45.6547917" lon="11.0812283"><ele>1322.0</ele><time>2026-05-01T12:07:35.365Z</time></trkpt><trkpt lat="45.6548333" lon="11.0811233"><ele>1321.3999999999999</ele><time>2026-05-01T12:07:37.365Z</time></trkpt><trkpt lat="45.6548817" lon="11.0810117"><ele>1320.8</ele><time>2026-05-01T12:07:39.365Z</time></trkpt><trkpt lat="45.654915" lon="11.0808667"><ele>1320.2</ele><time>2026-05-01T12:07:41.364Z</time></trkpt><trkpt lat="45.6549333" lon="11.08071"><ele>1319.6</ele><time>2026-05-01T12:07:43.365Z</time></trkpt><trkpt lat="45.65496" lon="11.08054"><ele>1319.0</ele><time>2026-05-01T12:07:45.365Z</time></trkpt><trkpt lat="45.6549683" lon="11.0804483"><ele>1318.8571428571427</ele><time>2026-05-01T12:07:46.365Z</time></trkpt><trkpt lat="45.6549767" lon="11.0803583"><ele>1318.7142857142858</ele><time>2026-05-01T12:07:47.365Z</time></trkpt><trkpt lat="45.655005" lon="11.0802717"><ele>1318.5714285714284</ele><time>2026-05-01T12:07:48.364Z</time></trkpt><trkpt lat="45.65503" lon="11.080185"><ele>1318.4285714285713</ele><time>2026-05-01T12:07:49.365Z</time></trkpt><trkpt lat="45.65504" lon="11.0800817"><ele>1318.2857142857142</ele><time>2026-05-01T12:07:50.365Z</time></trkpt><trkpt lat="45.6550333" lon="11.0799833"><ele>1318.142857142857</ele><time>2026-05-01T12:07:51.365Z</time></trkpt><trkpt lat="45.6550133" lon="11.079895"><ele>1318.0</ele><time>2026-05-01T12:07:52.364Z</time></trkpt><trkpt lat="45.6549917" lon="11.07975"><ele>1317.8333333333333</ele><time>2026-05-01T12:07:54.365Z</time></trkpt><trkpt lat="45.6549767" lon="11.07963"><ele>1317.6666666666665</ele><time>2026-05-01T12:07:56.365Z</time></trkpt><trkpt lat="45.6549617" lon="11.07954"><ele>1317.5</ele><time>2026-05-01T12:07:58.365Z</time></trkpt><trkpt lat="45.6549667" lon="11.07945"><ele>1317.3333333333333</ele><time>2026-05-01T12:08:00.365Z</time></trkpt><trkpt lat="45.6550067" lon="11.0793233"><ele>1317.1666666666667</ele><time>2026-05-01T12:08:03.365Z</time></trkpt><trkpt lat="45.655025" lon="11.079205"><ele>1317.0</ele><time>2026-05-01T12:08:05.365Z</time></trkpt><trkpt lat="45.655065" lon="11.0790533"><ele>1316.8333333333333</ele><time>2026-05-01T12:08:07.365Z</time></trkpt><trkpt lat="45.6550917" lon="11.0788933"><ele>1316.6666666666667</ele><time>2026-05-01T12:08:09.364Z</time></trkpt><trkpt lat="45.6551" lon="11.078785"><ele>1316.5</ele><time>2026-05-01T12:08:11.365Z</time></trkpt><trkpt lat="45.6550783" lon="11.0786633"><ele>1316.3333333333335</ele><time>2026-05-01T12:08:15.365Z</time></trkpt><trkpt lat="45.6551067" lon="11.0785783"><ele>1316.1666666666667</ele><time>2026-05-01T12:08:19.364Z</time></trkpt><trkpt lat="45.65517" lon="11.0786267"><ele>1316.0</ele><time>2026-05-01T12:08:28.365Z</time></trkpt><trkpt lat="45.65513" lon="11.0787517"><ele>1316.0</ele><time>2026-05-01T12:08:32.365Z</time></trkpt><trkpt lat="45.6551017" lon="11.0788867"><ele>1316.0</ele><time>2026-05-01T12:08:34.365Z</time></trkpt><trkpt lat="45.655095" lon="11.0789817"><ele>1316.0</ele><time>2026-05-01T12:08:35.365Z</time></trkpt><trkpt lat="45.6550617" lon="11.0791467"><ele>1316.0</ele><time>2026-05-01T12:08:37.365Z</time></trkpt><trkpt lat="45.655025" lon="11.0793067"><ele>1316.0</ele><time>2026-05-01T12:08:39.365Z</time></trkpt><trkpt lat="45.6549933" lon="11.07947"><ele>1316.25</ele><time>2026-05-01T12:08:41.364Z</time></trkpt><trkpt lat="45.654995" lon="11.079625"><ele>1316.5</ele><time>2026-05-01T12:08:43.365Z</time></trkpt><trkpt lat="45.655015" lon="11.0798"><ele>1316.75</ele><time>2026-05-01T12:08:45.365Z</time></trkpt><trkpt lat="45.6550317" lon="11.079965"><ele>1317.0</ele><time>2026-05-01T12:08:47.365Z</time></trkpt><trkpt lat="45.655045" lon="11.0801283"><ele>1317.1999999999998</ele><time>2026-05-01T12:08:49.365Z</time></trkpt><trkpt lat="45.6550183" lon="11.0802767"><ele>1317.4</ele><time>2026-05-01T12:08:51.365Z</time></trkpt><trkpt lat="45.6549767" lon="11.08044"><ele>1317.6</ele><time>2026-05-01T12:08:53.365Z</time></trkpt><trkpt lat="45.654965" lon="11.080545"><ele>1317.8000000000002</ele><time>2026-05-01T12:08:54.365Z</time></trkpt><trkpt lat="45.65496" lon="11.08067"><ele>1318.0</ele><time>2026-05-01T12:08:55.364Z</time></trkpt><trkpt lat="45.6549533" lon="11.080785"><ele>1318.2</ele><time>2026-05-01T12:08:56.365Z</time></trkpt><trkpt lat="45.65494" lon="11.0808733"><ele>1318.4</ele><time>2026-05-01T12:08:57.364Z</time></trkpt><trkpt lat="45.6548933" lon="11.081"><ele>1318.6000000000001</ele><time>2026-05-01T12:08:59.365Z</time></trkpt><trkpt lat="45.6548333" lon="11.0811333"><ele>1318.8000000000002</ele><time>2026-05-01T12:09:01.365Z</time></trkpt><trkpt lat="45.6547783" lon="11.0812667"><ele>1319.0</ele><time>2026-05-01T12:09:03.364Z</time></trkpt><trkpt lat="45.65475" lon="11.0813983"><ele>1319.0</ele><time>2026-05-01T12:09:05.364Z</time></trkpt><trkpt lat="45.6547417" lon="11.0815317"><ele>1319.0</ele><time>2026-05-01T12:09:07.365Z</time></trkpt><trkpt lat="45.6547533" lon="11.0816267"><ele>1319.0</ele><time>2026-05-01T12:09:43.365Z</time></trkpt><trkpt lat="45.6547833" lon="11.0817433"><ele>1319.0</ele><time>2026-05-01T12:09:45.365Z</time></trkpt><trkpt lat="45.6547983" lon="11.0819067"><ele>1319.0</ele><time>2026-05-01T12:09:47.365Z</time></trkpt><trkpt lat="45.6547967" lon="11.0820117"><ele>1319.0</ele><time>2026-05-01T12:09:48.365Z</time></trkpt><trkpt lat="45.6547817" lon="11.0821183"><ele>1319.5</ele><time>2026-05-01T12:09:49.365Z</time></trkpt><trkpt lat="45.6547433" lon="11.082235"><ele>1320.0</ele><time>2026-05-01T12:09:50.365Z</time></trkpt><trkpt lat="45.6547" lon="11.0823517"><ele>1320.5</ele><time>2026-05-01T12:09:51.365Z</time></trkpt><trkpt lat="45.6546567" lon="11.0824583"><ele>1321.0</ele><time>2026-05-01T12:09:52.364Z</time></trkpt><trkpt lat="45.6546167" lon="11.08256"><ele>1321.5</ele><time>2026-05-01T12:09:53.365Z</time></trkpt><trkpt lat="45.6545767" lon="11.0826517"><ele>1322.0</ele><time>2026-05-01T12:09:54.365Z</time></trkpt><trkpt lat="45.6545383" lon="11.0827467"><ele>1322.8333333333335</ele><time>2026-05-01T12:09:55.365Z</time></trkpt><trkpt lat="45.6545017" lon="11.0828533"><ele>1323.6666666666667</ele><time>2026-05-01T12:09:56.365Z</time></trkpt><trkpt lat="45.6544533" lon="11.08295"><ele>1324.5</ele><time>2026-05-01T12:09:57.364Z</time></trkpt><trkpt lat="45.65441" lon="11.0830467"><ele>1325.3333333333333</ele><time>2026-05-01T12:09:58.365Z</time></trkpt><trkpt lat="45.6543683" lon="11.08315"><ele>1326.1666666666665</ele><time>2026-05-01T12:09:59.365Z</time></trkpt><trkpt lat="45.6543283" lon="11.083265"><ele>1327.0</ele><time>2026-05-01T12:10:00.365Z</time></trkpt><trkpt lat="45.6542817" lon="11.083395"><ele>1327.3999999999999</ele><time>2026-05-01T12:10:01.364Z</time></trkpt><trkpt lat="45.6542283" lon="11.0835233"><ele>1327.8</ele><time>2026-05-01T12:10:02.365Z</time></trkpt><trkpt lat="45.654175" lon="11.083655"><ele>1328.2</ele><time>2026-05-01T12:10:03.365Z</time></trkpt><trkpt lat="45.6541267" lon="11.0837783"><ele>1328.6</ele><time>2026-05-01T12:10:04.365Z</time></trkpt><trkpt lat="45.6540783" lon="11.0838917"><ele>1329.0</ele><time>2026-05-01T12:10:05.365Z</time></trkpt><trkpt lat="45.6540317" lon="11.0839983"><ele>1329.0</ele><time>2026-05-01T12:10:06.364Z</time></trkpt><trkpt lat="45.6539883" lon="11.0840883"><ele>1329.0</ele><time>2026-05-01T12:10:07.364Z</time></trkpt><trkpt lat="45.6539483" lon="11.08416"><ele>1329.0</ele><time>2026-05-01T12:10:08.365Z</time></trkpt><trkpt lat="45.653935" lon="11.084275"><ele>1329.0</ele><time>2026-05-01T12:10:10.365Z</time></trkpt><trkpt lat="45.6539733" lon="11.0843517"><ele>1329.0</ele><time>2026-05-01T12:10:12.365Z</time></trkpt><trkpt lat="45.6540267" lon="11.0844333"><ele>1329.0</ele><time>2026-05-01T12:10:14.365Z</time></trkpt><trkpt lat="45.6540967" lon="11.0845467"><ele>1329.6</ele><time>2026-05-01T12:10:16.365Z</time></trkpt><trkpt lat="45.654135" lon="11.0846233"><ele>1330.2</ele><time>2026-05-01T12:10:17.365Z</time></trkpt><trkpt lat="45.65419" lon="11.084775"><ele>1330.8</ele><time>2026-05-01T12:10:19.365Z</time></trkpt><trkpt lat="45.6542367" lon="11.0849383"><ele>1331.3999999999999</ele><time>2026-05-01T12:10:21.365Z</time></trkpt><trkpt lat="45.6542683" lon="11.0850917"><ele>1332.0</ele><time>2026-05-01T12:10:23.365Z</time></trkpt><trkpt lat="45.6543033" lon="11.085215"><ele>1332.3333333333333</ele><time>2026-05-01T12:10:25.365Z</time></trkpt><trkpt lat="45.65434" lon="11.0853483"><ele>1332.6666666666667</ele><time>2026-05-01T12:10:27.365Z</time></trkpt><trkpt lat="45.6543833" lon="11.0855117"><ele>1333.0</ele><time>2026-05-01T12:10:29.364Z</time></trkpt><trkpt lat="45.6544083" lon="11.085595"><ele>1333.3333333333335</ele><time>2026-05-01T12:10:30.365Z</time></trkpt><trkpt lat="45.654435" lon="11.08568"><ele>1333.6666666666667</ele><time>2026-05-01T12:10:31.365Z</time></trkpt><trkpt lat="45.6544617" lon="11.08577"><ele>1334.0</ele><time>2026-05-01T12:10:32.364Z</time></trkpt><trkpt lat="45.6544883" lon="11.08586"><ele>1335.2857142857144</ele><time>2026-05-01T12:10:33.365Z</time></trkpt><trkpt lat="45.654515" lon="11.0859517"><ele>1336.5714285714287</ele><time>2026-05-01T12:10:34.365Z</time></trkpt><trkpt lat="45.6545433" lon="11.0860517"><ele>1337.857142857143</ele><time>2026-05-01T12:10:35.363Z</time></trkpt><trkpt lat="45.654565" lon="11.0861417"><ele>1339.1428571428573</ele><time>2026-05-01T12:10:36.363Z</time></trkpt><trkpt lat="45.6546" lon="11.0862333"><ele>1340.4285714285716</ele><time>2026-05-01T12:10:37.364Z</time></trkpt><trkpt lat="45.6546267" lon="11.08633"><ele>1341.7142857142858</ele><time>2026-05-01T12:10:38.364Z</time></trkpt><trkpt lat="45.654655" lon="11.0864233"><ele>1343.0</ele><time>2026-05-01T12:10:39.364Z</time></trkpt><trkpt lat="45.6546867" lon="11.0865183"><ele>1342.0</ele><time>2026-05-01T12:10:40.364Z</time></trkpt><trkpt lat="45.6547117" lon="11.0866167"><ele>1341.0</ele><time>2026-05-01T12:10:41.364Z</time></trkpt><trkpt lat="45.654735" lon="11.0867133"><ele>1340.0</ele><time>2026-05-01T12:10:42.364Z</time></trkpt><trkpt lat="45.6547583" lon="11.0868133"><ele>1339.0</ele><time>2026-05-01T12:10:43.364Z</time></trkpt><trkpt lat="45.65479" lon="11.0869017"><ele>1338.0</ele><time>2026-05-01T12:10:44.364Z</time></trkpt><trkpt lat="45.6548267" lon="11.087"><ele>1337.0</ele><time>2026-05-01T12:10:45.364Z</time></trkpt><trkpt lat="45.6548617" lon="11.087095"><ele>1336.0</ele><time>2026-05-01T12:10:46.364Z</time></trkpt><trkpt lat="45.65489" lon="11.0872083"><ele>1336.0</ele><time>2026-05-01T12:10:47.363Z</time></trkpt><trkpt lat="45.6549167" lon="11.087315"><ele>1336.0</ele><time>2026-05-01T12:10:48.364Z</time></trkpt><trkpt lat="45.6549483" lon="11.0874283"><ele>1336.0</ele><time>2026-05-01T12:10:49.364Z</time></trkpt><trkpt lat="45.654985" lon="11.0875433"><ele>1336.0</ele><time>2026-05-01T12:10:50.364Z</time></trkpt><trkpt lat="45.6550217" lon="11.0876617"><ele>1336.0</ele><time>2026-05-01T12:10:51.364Z</time></trkpt><trkpt lat="45.6550617" lon="11.08778"><ele>1336.0</ele><time>2026-05-01T12:10:52.364Z</time></trkpt><trkpt lat="45.6551" lon="11.0878967"><ele>1336.1666666666665</ele><time>2026-05-01T12:10:53.364Z</time></trkpt><trkpt lat="45.6551333" lon="11.088005"><ele>1336.3333333333333</ele><time>2026-05-01T12:10:54.364Z</time></trkpt><trkpt lat="45.655175" lon="11.0881183"><ele>1336.5</ele><time>2026-05-01T12:10:55.364Z</time></trkpt><trkpt lat="45.655215" lon="11.0882283"><ele>1336.6666666666667</ele><time>2026-05-01T12:10:56.364Z</time></trkpt><trkpt lat="45.6552567" lon="11.08833"><ele>1336.8333333333335</ele><time>2026-05-01T12:10:57.364Z</time></trkpt><trkpt lat="45.65529" lon="11.08841"><ele>1337.0</ele><time>2026-05-01T12:10:58.364Z</time></trkpt><trkpt lat="45.6553167" lon="11.0885"><ele>1337.0</ele><time>2026-05-01T12:10:59.363Z</time></trkpt><trkpt lat="45.65533" lon="11.0885917"><ele>1337.0</ele><time>2026-05-01T12:11:00.364Z</time></trkpt><trkpt lat="45.6553283" lon="11.0886967"><ele>1337.0</ele><time>2026-05-01T12:11:01.364Z</time></trkpt><trkpt lat="45.6553233" lon="11.0888133"><ele>1337.0</ele><time>2026-05-01T12:11:02.364Z</time></trkpt><trkpt lat="45.6553067" lon="11.088935"><ele>1337.0</ele><time>2026-05-01T12:11:03.364Z</time></trkpt><trkpt lat="45.6552833" lon="11.08905"><ele>1337.0</ele><time>2026-05-01T12:11:04.364Z</time></trkpt><trkpt lat="45.6552567" lon="11.08916"><ele>1337.1666666666667</ele><time>2026-05-01T12:11:05.364Z</time></trkpt><trkpt lat="45.65523" lon="11.089275"><ele>1337.3333333333335</ele><time>2026-05-01T12:11:06.364Z</time></trkpt><trkpt lat="45.655195" lon="11.0893817"><ele>1337.5</ele><time>2026-05-01T12:11:07.364Z</time></trkpt><trkpt lat="45.6551517" lon="11.0894917"><ele>1337.6666666666667</ele><time>2026-05-01T12:11:08.364Z</time></trkpt><trkpt lat="45.6551067" lon="11.0895817"><ele>1337.8333333333333</ele><time>2026-05-01T12:11:09.364Z</time></trkpt><trkpt lat="45.6550583" lon="11.089665"><ele>1338.0</ele><time>2026-05-01T12:11:10.364Z</time></trkpt><trkpt lat="45.655005" lon="11.08973"><ele>1338.0</ele><time>2026-05-01T12:11:11.364Z</time></trkpt><trkpt lat="45.6549133" lon="11.0898183"><ele>1338.0</ele><time>2026-05-01T12:11:13.364Z</time></trkpt><trkpt lat="45.6548367" lon="11.0898833"><ele>1338.0</ele><time>2026-05-01T12:11:15.364Z</time></trkpt><trkpt lat="45.6547817" lon="11.08994"><ele>1338.0</ele><time>2026-05-01T12:11:17.364Z</time></trkpt><trkpt lat="45.6547167" lon="11.09002"><ele>1338.0</ele><time>2026-05-01T12:17:45.363Z</time></trkpt><trkpt lat="45.6546633" lon="11.0901167"><ele>1338.0</ele><time>2026-05-01T12:17:47.363Z</time></trkpt><trkpt lat="45.6545933" lon="11.090265"><ele>1338.0</ele><time>2026-05-01T12:17:49.363Z</time></trkpt><trkpt lat="45.6545483" lon="11.090345"><ele>1338.0</ele><time>2026-05-01T12:17:50.363Z</time></trkpt><trkpt lat="45.654505" lon="11.0904233"><ele>1338.0</ele><time>2026-05-01T12:17:51.363Z</time></trkpt><trkpt lat="45.6544683" lon="11.0905067"><ele>1338.0</ele><time>2026-05-01T12:17:52.362Z</time></trkpt><trkpt lat="45.6544467" lon="11.0906033"><ele>1338.0</ele><time>2026-05-01T12:17:53.363Z</time></trkpt><trkpt lat="45.654425" lon="11.0907033"><ele>1338.0</ele><time>2026-05-01T12:17:54.363Z</time></trkpt><trkpt lat="45.6543817" lon="11.09087"><ele>1339.6666666666667</ele><time>2026-05-01T12:17:56.363Z</time></trkpt><trkpt lat="45.6543583" lon="11.0909583"><ele>1341.3333333333333</ele><time>2026-05-01T12:17:57.363Z</time></trkpt><trkpt lat="45.6543283" lon="11.0910433"><ele>1343.0</ele><time>2026-05-01T12:17:58.363Z</time></trkpt><trkpt lat="45.654295" lon="11.0911367"><ele>1344.6666666666665</ele><time>2026-05-01T12:17:59.363Z</time></trkpt><trkpt lat="45.654255" lon="11.0912383"><ele>1346.3333333333333</ele><time>2026-05-01T12:18:00.362Z</time></trkpt><trkpt lat="45.654215" lon="11.0913367"><ele>1348.0</ele><time>2026-05-01T12:18:01.363Z</time></trkpt><trkpt lat="45.654175" lon="11.0914417"><ele>1348.0</ele><time>2026-05-01T12:18:02.362Z</time></trkpt><trkpt lat="45.6541383" lon="11.0915483"><ele>1348.0</ele><time>2026-05-01T12:18:03.363Z</time></trkpt><trkpt lat="45.6541" lon="11.0916567"><ele>1348.0</ele><time>2026-05-01T12:18:04.363Z</time></trkpt><trkpt lat="45.6540617" lon="11.0917667"><ele>1348.0</ele><time>2026-05-01T12:18:05.363Z</time></trkpt><trkpt lat="45.6540233" lon="11.0918633"><ele>1348.0</ele><time>2026-05-01T12:18:06.363Z</time></trkpt><trkpt lat="45.6539883" lon="11.0919467"><ele>1348.0</ele><time>2026-05-01T12:18:07.363Z</time></trkpt><trkpt lat="45.653945" lon="11.0920133"><ele>1350.6666666666665</ele><time>2026-05-01T12:18:08.363Z</time></trkpt><trkpt lat="45.6538767" lon="11.0920333"><ele>1353.3333333333333</ele><time>2026-05-01T12:18:10.363Z</time></trkpt><trkpt lat="45.653795" lon="11.091975"><ele>1356.0</ele><time>2026-05-01T12:18:12.363Z</time></trkpt><trkpt lat="45.65369" lon="11.0918817"><ele>1358.6666666666667</ele><time>2026-05-01T12:18:14.361Z</time></trkpt><trkpt lat="45.6536317" lon="11.0918233"><ele>1361.3333333333335</ele><time>2026-05-01T12:18:15.362Z</time></trkpt><trkpt lat="45.6535767" lon="11.0917533"><ele>1364.0</ele><time>2026-05-01T12:18:16.362Z</time></trkpt><trkpt lat="45.65352" lon="11.09168"><ele>1364.5714285714284</ele><time>2026-05-01T12:18:17.361Z</time></trkpt><trkpt lat="45.65347" lon="11.0916133"><ele>1365.142857142857</ele><time>2026-05-01T12:18:18.362Z</time></trkpt><trkpt lat="45.65343" lon="11.091535"><ele>1365.7142857142858</ele><time>2026-05-01T12:18:19.362Z</time></trkpt><trkpt lat="45.6534" lon="11.091435"><ele>1366.2857142857142</ele><time>2026-05-01T12:18:20.362Z</time></trkpt><trkpt lat="45.653365" lon="11.0913367"><ele>1366.857142857143</ele><time>2026-05-01T12:18:21.362Z</time></trkpt><trkpt lat="45.653325" lon="11.09124"><ele>1367.4285714285713</ele><time>2026-05-01T12:18:22.361Z</time></trkpt><trkpt lat="45.6532783" lon="11.0911467"><ele>1368.0</ele><time>2026-05-01T12:18:23.362Z</time></trkpt><trkpt lat="45.6532333" lon="11.0910517"><ele>1366.4</ele><time>2026-05-01T12:18:24.362Z</time></trkpt><trkpt lat="45.6531833" lon="11.0909617"><ele>1364.8000000000002</ele><time>2026-05-01T12:18:25.362Z</time></trkpt><trkpt lat="45.653135" lon="11.0908933"><ele>1363.2</ele><time>2026-05-01T12:18:26.362Z</time></trkpt><trkpt lat="45.6530317" lon="11.0908433"><ele>1361.6</ele><time>2026-05-01T12:18:28.362Z</time></trkpt><trkpt lat="45.65295" lon="11.0909067"><ele>1360.0</ele><time>2026-05-01T12:18:30.362Z</time></trkpt><trkpt lat="45.6529417" lon="11.0910483"><ele>1360.0</ele><time>2026-05-01T12:18:32.362Z</time></trkpt><trkpt lat="45.6529767" lon="11.0911883"><ele>1360.0</ele><time>2026-05-01T12:18:34.361Z</time></trkpt><trkpt lat="45.6529967" lon="11.0912817"><ele>1360.0</ele><time>2026-05-01T12:18:35.362Z</time></trkpt><trkpt lat="45.65302" lon="11.091375"><ele>1360.0</ele><time>2026-05-01T12:18:36.362Z</time></trkpt><trkpt lat="45.653045" lon="11.091475"><ele>1360.0</ele><time>2026-05-01T12:18:37.361Z</time></trkpt><trkpt lat="45.65307" lon="11.091575"><ele>1360.0</ele><time>2026-05-01T12:18:38.362Z</time></trkpt><trkpt lat="45.6530967" lon="11.0916767"><ele>1361.3333333333333</ele><time>2026-05-01T12:18:39.362Z</time></trkpt><trkpt lat="45.6531233" lon="11.0917833"><ele>1362.6666666666665</ele><time>2026-05-01T12:18:40.362Z</time></trkpt><trkpt lat="45.6531483" lon="11.0918867"><ele>1364.0</ele><time>2026-05-01T12:18:41.362Z</time></trkpt><trkpt lat="45.6531733" lon="11.09199"><ele>1365.3333333333333</ele><time>2026-05-01T12:18:42.361Z</time></trkpt><trkpt lat="45.6531983" lon="11.092095"><ele>1366.6666666666667</ele><time>2026-05-01T12:18:43.362Z</time></trkpt><trkpt lat="45.6532283" lon="11.0922017"><ele>1368.0</ele><time>2026-05-01T12:18:44.362Z</time></trkpt><trkpt lat="45.6532583" lon="11.09231"><ele>1368.0</ele><time>2026-05-01T12:18:45.362Z</time></trkpt><trkpt lat="45.6532867" lon="11.09242"><ele>1368.0</ele><time>2026-05-01T12:18:46.362Z</time></trkpt><trkpt lat="45.65331" lon="11.0925333"><ele>1368.0</ele><time>2026-05-01T12:18:47.362Z</time></trkpt><trkpt lat="45.6533317" lon="11.0926483"><ele>1368.0</ele><time>2026-05-01T12:18:48.362Z</time></trkpt><trkpt lat="45.65335" lon="11.0927633"><ele>1368.0</ele><time>2026-05-01T12:18:49.362Z</time></trkpt><trkpt lat="45.6533567" lon="11.0928817"><ele>1368.0</ele><time>2026-05-01T12:18:50.362Z</time></trkpt><trkpt lat="45.6533517" lon="11.0929967"><ele>1369.6666666666667</ele><time>2026-05-01T12:18:51.362Z</time></trkpt><trkpt lat="45.6533367" lon="11.0931083"><ele>1371.3333333333333</ele><time>2026-05-01T12:18:52.362Z</time></trkpt><trkpt lat="45.6533217" lon="11.0932183"><ele>1373.0</ele><time>2026-05-01T12:18:53.362Z</time></trkpt><trkpt lat="45.6533067" lon="11.0933267"><ele>1374.6666666666665</ele><time>2026-05-01T12:18:54.361Z</time></trkpt><trkpt lat="45.65328" lon="11.0934333"><ele>1376.3333333333333</ele><time>2026-05-01T12:18:55.362Z</time></trkpt><trkpt lat="45.65326" lon="11.0935417"><ele>1378.0</ele><time>2026-05-01T12:18:56.361Z</time></trkpt><trkpt lat="45.6532417" lon="11.093635"><ele>1379.857142857143</ele><time>2026-05-01T12:18:57.362Z</time></trkpt><trkpt lat="45.653235" lon="11.0937383"><ele>1381.7142857142858</ele><time>2026-05-01T12:18:58.361Z</time></trkpt><trkpt lat="45.6532317" lon="11.09384"><ele>1383.5714285714284</ele><time>2026-05-01T12:18:59.362Z</time></trkpt><trkpt lat="45.6532467" lon="11.0939383"><ele>1385.4285714285716</ele><time>2026-05-01T12:19:00.362Z</time></trkpt><trkpt lat="45.6532833" lon="11.094015"><ele>1387.2857142857144</ele><time>2026-05-01T12:19:01.361Z</time></trkpt><trkpt lat="45.6533383" lon="11.0940733"><ele>1389.142857142857</ele><time>2026-05-01T12:19:02.362Z</time></trkpt><trkpt lat="45.6534083" lon="11.094125"><ele>1391.0</ele><time>2026-05-01T12:19:03.362Z</time></trkpt><trkpt lat="45.653485" lon="11.0941617"><ele>1393.0</ele><time>2026-05-01T12:19:04.361Z</time></trkpt><trkpt lat="45.6535783" lon="11.094185"><ele>1395.0</ele><time>2026-05-01T12:19:05.362Z</time></trkpt><trkpt lat="45.6536483" lon="11.0941833"><ele>1397.0</ele><time>2026-05-01T12:19:06.362Z</time></trkpt><trkpt lat="45.6537183" lon="11.0941983"><ele>1399.0</ele><time>2026-05-01T12:19:08.362Z</time></trkpt><trkpt lat="45.653695" lon="11.0942867"><ele>1401.0</ele><time>2026-05-01T12:19:14.362Z</time></trkpt><trkpt lat="45.6535983" lon="11.0942767"><ele>1403.0</ele><time>2026-05-01T12:19:16.362Z</time></trkpt><trkpt lat="45.6535283" lon="11.0942733"><ele>1403.0</ele><time>2026-05-01T12:19:18.362Z</time></trkpt><trkpt lat="45.65343" lon="11.094295"><ele>1403.0</ele><time>2026-05-01T12:19:49.362Z</time></trkpt><trkpt lat="45.6533633" lon="11.0943033"><ele>1403.0</ele><time>2026-05-01T12:19:50.362Z</time></trkpt><trkpt lat="45.6532883" lon="11.094305"><ele>1403.0</ele><time>2026-05-01T12:19:52.362Z</time></trkpt><trkpt lat="45.653195" lon="11.0943067"><ele>1403.0</ele><time>2026-05-01T12:20:44.362Z</time></trkpt><trkpt lat="45.653085" lon="11.0943233"><ele>1403.0</ele><time>2026-05-01T12:20:46.361Z</time></trkpt><trkpt lat="45.653005" lon="11.0943333"><ele>1403.0</ele><time>2026-05-01T12:20:47.361Z</time></trkpt><trkpt lat="45.652905" lon="11.0943417"><ele>1403.0</ele><time>2026-05-01T12:20:48.362Z</time></trkpt><trkpt lat="45.6527967" lon="11.0943467"><ele>1403.0</ele><time>2026-05-01T12:20:49.362Z</time></trkpt><trkpt lat="45.652685" lon="11.0943617"><ele>1403.0</ele><time>2026-05-01T12:20:50.362Z</time></trkpt><trkpt lat="45.6525667" lon="11.0943867"><ele>1403.0</ele><time>2026-05-01T12:20:51.362Z</time></trkpt><trkpt lat="45.65244" lon="11.094405"><ele>1403.4</ele><time>2026-05-01T12:20:52.362Z</time></trkpt><trkpt lat="45.6523183" lon="11.094415"><ele>1403.8000000000002</ele><time>2026-05-01T12:20:53.362Z</time></trkpt><trkpt lat="45.652205" lon="11.09442"><ele>1404.2</ele><time>2026-05-01T12:20:54.362Z</time></trkpt><trkpt lat="45.6521017" lon="11.094425"><ele>1404.6</ele><time>2026-05-01T12:20:55.362Z</time></trkpt><trkpt lat="45.6519983" lon="11.0944133"><ele>1405.0</ele><time>2026-05-01T12:20:56.362Z</time></trkpt><trkpt lat="45.6518883" lon="11.0943917"><ele>1405.0</ele><time>2026-05-01T12:20:57.362Z</time></trkpt><trkpt lat="45.6517683" lon="11.094365"><ele>1405.0</ele><time>2026-05-01T12:20:58.362Z</time></trkpt><trkpt lat="45.6516383" lon="11.0943383"><ele>1405.0</ele><time>2026-05-01T12:20:59.362Z</time></trkpt><trkpt lat="45.65151" lon="11.0943167"><ele>1405.0</ele><time>2026-05-01T12:21:00.362Z</time></trkpt><trkpt lat="45.6513867" lon="11.0943117"><ele>1405.0</ele><time>2026-05-01T12:21:01.362Z</time></trkpt><trkpt lat="45.65127" lon="11.0943267"><ele>1405.0</ele><time>2026-05-01T12:21:02.362Z</time></trkpt><trkpt lat="45.6511633" lon="11.094375"><ele>1405.0</ele><time>2026-05-01T12:21:03.362Z</time></trkpt><trkpt lat="45.6510683" lon="11.0944467"><ele>1405.0</ele><time>2026-05-01T12:21:04.362Z</time></trkpt><trkpt lat="45.6509717" lon="11.0945417"><ele>1404.2</ele><time>2026-05-01T12:21:05.362Z</time></trkpt><trkpt lat="45.65089" lon="11.09464"><ele>1403.4</ele><time>2026-05-01T12:21:06.362Z</time></trkpt><trkpt lat="45.6508017" lon="11.0947317"><ele>1402.6</ele><time>2026-05-01T12:21:07.362Z</time></trkpt><trkpt lat="45.6507133" lon="11.0948133"><ele>1401.8</ele><time>2026-05-01T12:21:08.362Z</time></trkpt><trkpt lat="45.650615" lon="11.0948783"><ele>1401.0</ele><time>2026-05-01T12:21:09.362Z</time></trkpt><trkpt lat="45.65051" lon="11.0949217"><ele>1401.0</ele><time>2026-05-01T12:21:10.362Z</time></trkpt><trkpt lat="45.6503967" lon="11.0949083"><ele>1401.0</ele><time>2026-05-01T12:21:11.362Z</time></trkpt><trkpt lat="45.65028" lon="11.09486"><ele>1401.0</ele><time>2026-05-01T12:21:12.362Z</time></trkpt><trkpt lat="45.6501583" lon="11.0947983"><ele>1401.0</ele><time>2026-05-01T12:21:13.361Z</time></trkpt><trkpt lat="45.6500267" lon="11.0947467"><ele>1398.6666666666667</ele><time>2026-05-01T12:21:14.361Z</time></trkpt><trkpt lat="45.64989" lon="11.0947017"><ele>1396.3333333333335</ele><time>2026-05-01T12:21:15.362Z</time></trkpt><trkpt lat="45.6497433" lon="11.0946683"><ele>1394.0</ele><time>2026-05-01T12:21:16.361Z</time></trkpt><trkpt lat="45.64942" lon="11.094695"><ele>1390.6666666666667</ele><time>2026-05-01T12:21:18.362Z</time></trkpt><trkpt lat="45.6492567" lon="11.0947483"><ele>1387.3333333333333</ele><time>2026-05-01T12:21:19.362Z</time></trkpt><trkpt lat="45.6490867" lon="11.0948117"><ele>1384.0</ele><time>2026-05-01T12:21:20.362Z</time></trkpt><trkpt lat="45.64892" lon="11.0948717"><ele>1384.0</ele><time>2026-05-01T12:21:21.362Z</time></trkpt><trkpt lat="45.6487517" lon="11.09492"><ele>1384.0</ele><time>2026-05-01T12:21:22.362Z</time></trkpt><trkpt lat="45.6485683" lon="11.09495"><ele>1384.0</ele><time>2026-05-01T12:21:23.362Z</time></trkpt><trkpt lat="45.648395" lon="11.0949583"><ele>1384.0</ele><time>2026-05-01T12:21:24.361Z</time></trkpt><trkpt lat="45.648225" lon="11.0949233"><ele>1384.0</ele><time>2026-05-01T12:21:25.362Z</time></trkpt><trkpt lat="45.6480517" lon="11.09487"><ele>1384.0</ele><time>2026-05-01T12:21:26.362Z</time></trkpt><trkpt lat="45.64788" lon="11.09483"><ele>1383.0</ele><time>2026-05-01T12:21:27.362Z</time></trkpt><trkpt lat="45.6477133" lon="11.0948"><ele>1382.0</ele><time>2026-05-01T12:21:28.362Z</time></trkpt><trkpt lat="45.647545" lon="11.0947967"><ele>1381.0</ele><time>2026-05-01T12:21:29.362Z</time></trkpt><trkpt lat="45.6473733" lon="11.0948117"><ele>1381.0</ele><time>2026-05-01T12:21:30.362Z</time></trkpt><trkpt lat="45.6472067" lon="11.09483"><ele>1381.0</ele><time>2026-05-01T12:21:31.361Z</time></trkpt><trkpt lat="45.6470467" lon="11.0948467"><ele>1381.0</ele><time>2026-05-01T12:21:32.361Z</time></trkpt><trkpt lat="45.64689" lon="11.0948567"><ele>1384.5</ele><time>2026-05-01T12:21:33.362Z</time></trkpt><trkpt lat="45.6467417" lon="11.0948417"><ele>1388.0</ele><time>2026-05-01T12:21:34.362Z</time></trkpt><trkpt lat="45.6466133" lon="11.0947817"><ele>1391.5</ele><time>2026-05-01T12:21:35.361Z</time></trkpt><trkpt lat="45.6465133" lon="11.0946717"><ele>1395.0</ele><time>2026-05-01T12:21:36.361Z</time></trkpt><trkpt lat="45.6464483" lon="11.0945383"><ele>1395.0</ele><time>2026-05-01T12:21:37.361Z</time></trkpt><trkpt lat="45.6464017" lon="11.0943833"><ele>1395.0</ele><time>2026-05-01T12:21:38.361Z</time></trkpt><trkpt lat="45.6463567" lon="11.0942167"><ele>1395.0</ele><time>2026-05-01T12:21:39.361Z</time></trkpt><trkpt lat="45.64629" lon="11.0940517"><ele>1395.0</ele><time>2026-05-01T12:21:40.361Z</time></trkpt><trkpt lat="45.64622" lon="11.0939067"><ele>1394.75</ele><time>2026-05-01T12:21:41.361Z</time></trkpt><trkpt lat="45.64614" lon="11.0937783"><ele>1394.5</ele><time>2026-05-01T12:21:42.361Z</time></trkpt><trkpt lat="45.6460467" lon="11.0936417"><ele>1394.25</ele><time>2026-05-01T12:21:43.361Z</time></trkpt><trkpt lat="45.6459483" lon="11.0934967"><ele>1394.0</ele><time>2026-05-01T12:21:44.361Z</time></trkpt><trkpt lat="45.6458433" lon="11.0933517"><ele>1393.75</ele><time>2026-05-01T12:21:45.361Z</time></trkpt><trkpt lat="45.64574" lon="11.0932083"><ele>1393.5</ele><time>2026-05-01T12:21:46.361Z</time></trkpt><trkpt lat="45.645645" lon="11.0930483"><ele>1393.25</ele><time>2026-05-01T12:21:47.361Z</time></trkpt><trkpt lat="45.64557" lon="11.0928817"><ele>1393.0</ele><time>2026-05-01T12:21:48.361Z</time></trkpt><trkpt lat="45.645495" lon="11.0927117"><ele>1393.0</ele><time>2026-05-01T12:21:49.36Z</time></trkpt><trkpt lat="45.6454167" lon="11.0925517"><ele>1393.0</ele><time>2026-05-01T12:21:50.361Z</time></trkpt><trkpt lat="45.6453417" lon="11.0923867"><ele>1393.0</ele><time>2026-05-01T12:21:51.361Z</time></trkpt><trkpt lat="45.6452583" lon="11.0922383"><ele>1393.0</ele><time>2026-05-01T12:21:52.361Z</time></trkpt><trkpt lat="45.645175" lon="11.0920967"><ele>1393.25</ele><time>2026-05-01T12:21:53.361Z</time></trkpt><trkpt lat="45.6450833" lon="11.0919633"><ele>1393.5</ele><time>2026-05-01T12:21:54.361Z</time></trkpt><trkpt lat="45.6449883" lon="11.0918333"><ele>1393.75</ele><time>2026-05-01T12:21:55.361Z</time></trkpt><trkpt lat="45.6448883" lon="11.091705"><ele>1394.0</ele><time>2026-05-01T12:21:56.361Z</time></trkpt><trkpt lat="45.6447717" lon="11.0916117"><ele>1392.0</ele><time>2026-05-01T12:21:57.361Z</time></trkpt><trkpt lat="45.64465" lon="11.0915483"><ele>1390.0</ele><time>2026-05-01T12:21:58.361Z</time></trkpt><trkpt lat="45.6445233" lon="11.0915067"><ele>1388.0</ele><time>2026-05-01T12:21:59.361Z</time></trkpt><trkpt lat="45.6443933" lon="11.0914917"><ele>1386.0</ele><time>2026-05-01T12:22:00.36Z</time></trkpt><trkpt lat="45.64426" lon="11.0914667"><ele>1386.0</ele><time>2026-05-01T12:22:01.361Z</time></trkpt><trkpt lat="45.6441167" lon="11.0914383"><ele>1386.0</ele><time>2026-05-01T12:22:02.361Z</time></trkpt><trkpt lat="45.6439433" lon="11.0913767"><ele>1386.0</ele><time>2026-05-01T12:22:03.36Z</time></trkpt><trkpt lat="45.6437317" lon="11.0912867"><ele>1380.0</ele><time>2026-05-01T12:22:04.361Z</time></trkpt><trkpt lat="45.6435017" lon="11.0911783"><ele>1374.0</ele><time>2026-05-01T12:22:05.361Z</time></trkpt><trkpt lat="45.6432817" lon="11.0910617"><ele>1374.0</ele><time>2026-05-01T12:22:06.361Z</time></trkpt><trkpt lat="45.6430667" lon="11.09097"><ele>1374.0</ele><time>2026-05-01T12:22:07.361Z</time></trkpt><trkpt lat="45.6428533" lon="11.090885"><ele>1374.0</ele><time>2026-05-01T12:22:08.361Z</time></trkpt><trkpt lat="45.6426433" lon="11.0908283"><ele>1370.0</ele><time>2026-05-01T12:22:09.361Z</time></trkpt><trkpt lat="45.6424333" lon="11.090785"><ele>1366.0</ele><time>2026-05-01T12:22:10.36Z</time></trkpt><trkpt lat="45.6422267" lon="11.0907483"><ele>1362.0</ele><time>2026-05-01T12:22:11.361Z</time></trkpt><trkpt lat="45.6420183" lon="11.09071"><ele>1357.6666666666667</ele><time>2026-05-01T12:22:12.361Z</time></trkpt><trkpt lat="45.64181" lon="11.090645"><ele>1353.3333333333335</ele><time>2026-05-01T12:22:13.36Z</time></trkpt><trkpt lat="45.64161" lon="11.09055"><ele>1349.0</ele><time>2026-05-01T12:22:14.361Z</time></trkpt><trkpt lat="45.6414117" lon="11.0904433"><ele>1349.0</ele><time>2026-05-01T12:22:15.361Z</time></trkpt><trkpt lat="45.6412217" lon="11.0903283"><ele>1349.0</ele><time>2026-05-01T12:22:16.361Z</time></trkpt><trkpt lat="45.6410367" lon="11.0902167"><ele>1349.0</ele><time>2026-05-01T12:22:17.361Z</time></trkpt><trkpt lat="45.6408683" lon="11.09012"><ele>1347.0</ele><time>2026-05-01T12:22:18.361Z</time></trkpt><trkpt lat="45.6407183" lon="11.09001"><ele>1345.0</ele><time>2026-05-01T12:22:19.361Z</time></trkpt><trkpt lat="45.6406033" lon="11.089865"><ele>1343.0</ele><time>2026-05-01T12:22:20.36Z</time></trkpt><trkpt lat="45.6405083" lon="11.08946"><ele>1339.75</ele><time>2026-05-01T12:22:22.361Z</time></trkpt><trkpt lat="45.6404917" lon="11.0892433"><ele>1336.5</ele><time>2026-05-01T12:22:23.36Z</time></trkpt><trkpt lat="45.6404567" lon="11.0890417"><ele>1333.25</ele><time>2026-05-01T12:22:24.361Z</time></trkpt><trkpt lat="45.6403933" lon="11.0888917"><ele>1330.0</ele><time>2026-05-01T12:22:25.361Z</time></trkpt><trkpt lat="45.6402867" lon="11.088795"><ele>1328.25</ele><time>2026-05-01T12:22:26.36Z</time></trkpt><trkpt lat="45.640175" lon="11.0887667"><ele>1326.5</ele><time>2026-05-01T12:22:27.36Z</time></trkpt><trkpt lat="45.6400533" lon="11.0888067"><ele>1324.75</ele><time>2026-05-01T12:22:28.36Z</time></trkpt><trkpt lat="45.6399217" lon="11.08886"><ele>1323.0</ele><time>2026-05-01T12:22:29.361Z</time></trkpt><trkpt lat="45.63979" lon="11.0888867"><ele>1323.0</ele><time>2026-05-01T12:22:30.361Z</time></trkpt><trkpt lat="45.6396417" lon="11.0888633"><ele>1323.0</ele><time>2026-05-01T12:22:31.361Z</time></trkpt><trkpt lat="45.639515" lon="11.08879"><ele>1323.0</ele><time>2026-05-01T12:22:32.361Z</time></trkpt><trkpt lat="45.63941" lon="11.0886633"><ele>1323.0</ele><time>2026-05-01T12:22:33.361Z</time></trkpt><trkpt lat="45.63937" lon="11.0885"><ele>1323.3333333333333</ele><time>2026-05-01T12:22:34.361Z</time></trkpt><trkpt lat="45.6393883" lon="11.0883067"><ele>1323.6666666666665</ele><time>2026-05-01T12:22:35.361Z</time></trkpt><trkpt lat="45.63945" lon="11.088095"><ele>1324.0</ele><time>2026-05-01T12:22:36.361Z</time></trkpt><trkpt lat="45.639515" lon="11.08788"><ele>1319.6666666666665</ele><time>2026-05-01T12:22:37.36Z</time></trkpt><trkpt lat="45.6395683" lon="11.08767"><ele>1315.3333333333333</ele><time>2026-05-01T12:22:38.36Z</time></trkpt><trkpt lat="45.639615" lon="11.0874583"><ele>1311.0</ele><time>2026-05-01T12:22:39.361Z</time></trkpt><trkpt lat="45.6396367" lon="11.0872317"><ele>1308.0</ele><time>2026-05-01T12:22:40.361Z</time></trkpt><trkpt lat="45.6396267" lon="11.0870033"><ele>1305.0</ele><time>2026-05-01T12:22:41.36Z</time></trkpt><trkpt lat="45.6395967" lon="11.0867733"><ele>1302.0</ele><time>2026-05-01T12:22:42.361Z</time></trkpt><trkpt lat="45.6395383" lon="11.0865383"><ele>1302.0</ele><time>2026-05-01T12:22:43.361Z</time></trkpt><trkpt lat="45.6394517" lon="11.0863233"><ele>1302.0</ele><time>2026-05-01T12:22:44.36Z</time></trkpt><trkpt lat="45.6393233" lon="11.0861017"><ele>1302.0</ele><time>2026-05-01T12:22:45.361Z</time></trkpt><trkpt lat="45.6391667" lon="11.08589"><ele>1297.6666666666667</ele><time>2026-05-01T12:22:46.361Z</time></trkpt><trkpt lat="45.6390117" lon="11.085685"><ele>1293.3333333333335</ele><time>2026-05-01T12:22:47.361Z</time></trkpt><trkpt lat="45.638855" lon="11.0854883"><ele>1289.0</ele><time>2026-05-01T12:22:48.36Z</time></trkpt><trkpt lat="45.63871" lon="11.0853017"><ele>1288.0</ele><time>2026-05-01T12:22:49.361Z</time></trkpt><trkpt lat="45.638555" lon="11.0851367"><ele>1287.0</ele><time>2026-05-01T12:22:50.361Z</time></trkpt><trkpt lat="45.6383917" lon="11.0850083"><ele>1286.0</ele><time>2026-05-01T12:22:51.36Z</time></trkpt><trkpt lat="45.6382233" lon="11.0849067"><ele>1286.0</ele><time>2026-05-01T12:22:52.361Z</time></trkpt><trkpt lat="45.6380767" lon="11.0848467"><ele>1286.0</ele><time>2026-05-01T12:22:53.361Z</time></trkpt><trkpt lat="45.6379367" lon="11.0848617"><ele>1286.0</ele><time>2026-05-01T12:22:54.361Z</time></trkpt><trkpt lat="45.6378067" lon="11.084965"><ele>1286.0</ele><time>2026-05-01T12:22:55.361Z</time></trkpt><trkpt lat="45.6377017" lon="11.0851483"><ele>1286.3333333333335</ele><time>2026-05-01T12:22:56.361Z</time></trkpt><trkpt lat="45.637635" lon="11.08537"><ele>1286.6666666666667</ele><time>2026-05-01T12:22:57.361Z</time></trkpt><trkpt lat="45.6376133" lon="11.0856133"><ele>1287.0</ele><time>2026-05-01T12:22:58.361Z</time></trkpt><trkpt lat="45.6376117" lon="11.085845"><ele>1288.0</ele><time>2026-05-01T12:22:59.361Z</time></trkpt><trkpt lat="45.6375733" lon="11.0860467"><ele>1289.0</ele><time>2026-05-01T12:23:00.361Z</time></trkpt><trkpt lat="45.6374783" lon="11.0862067"><ele>1290.0</ele><time>2026-05-01T12:23:01.361Z</time></trkpt><trkpt lat="45.6373467" lon="11.0863083"><ele>1291.0</ele><time>2026-05-01T12:23:02.361Z</time></trkpt><trkpt lat="45.6372183" lon="11.086315"><ele>1291.0</ele><time>2026-05-01T12:23:03.361Z</time></trkpt><trkpt lat="45.6371117" lon="11.0862383"><ele>1291.0</ele><time>2026-05-01T12:23:04.361Z</time></trkpt><trkpt lat="45.6370217" lon="11.0860967"><ele>1291.0</ele><time>2026-05-01T12:23:05.36Z</time></trkpt><trkpt lat="45.6369267" lon="11.0859183"><ele>1291.0</ele><time>2026-05-01T12:23:06.361Z</time></trkpt><trkpt lat="45.6368233" lon="11.0857383"><ele>1285.6666666666665</ele><time>2026-05-01T12:23:07.361Z</time></trkpt><trkpt lat="45.636715" lon="11.0855533"><ele>1280.3333333333333</ele><time>2026-05-01T12:23:08.36Z</time></trkpt><trkpt lat="45.6366017" lon="11.085365"><ele>1275.0</ele><time>2026-05-01T12:23:09.361Z</time></trkpt><trkpt lat="45.63649" lon="11.0852"><ele>1275.0</ele><time>2026-05-01T12:23:10.361Z</time></trkpt><trkpt lat="45.6363667" lon="11.0850433"><ele>1275.0</ele><time>2026-05-01T12:23:11.36Z</time></trkpt><trkpt lat="45.6362433" lon="11.0849133"><ele>1275.0</ele><time>2026-05-01T12:23:12.361Z</time></trkpt><trkpt lat="45.6361267" lon="11.0848017"><ele>1272.6666666666667</ele><time>2026-05-01T12:23:13.361Z</time></trkpt><trkpt lat="45.6359933" lon="11.08471"><ele>1270.3333333333335</ele><time>2026-05-01T12:23:14.36Z</time></trkpt><trkpt lat="45.6358283" lon="11.08469"><ele>1268.0</ele><time>2026-05-01T12:23:15.361Z</time></trkpt><trkpt lat="45.635665" lon="11.0847683"><ele>1268.0</ele><time>2026-05-01T12:23:16.361Z</time></trkpt><trkpt lat="45.63551" lon="11.08492"><ele>1268.0</ele><time>2026-05-01T12:23:17.361Z</time></trkpt><trkpt lat="45.6353617" lon="11.085105"><ele>1268.0</ele><time>2026-05-01T12:23:18.361Z</time></trkpt><trkpt lat="45.6352283" lon="11.08529"><ele>1267.0</ele><time>2026-05-01T12:23:19.361Z</time></trkpt><trkpt lat="45.6351183" lon="11.085475"><ele>1266.0</ele><time>2026-05-01T12:23:20.361Z</time></trkpt><trkpt lat="45.6350167" lon="11.0856867"><ele>1265.0</ele><time>2026-05-01T12:23:21.361Z</time></trkpt><trkpt lat="45.634945" lon="11.0859267"><ele>1267.0</ele><time>2026-05-01T12:23:22.361Z</time></trkpt><trkpt lat="45.6348833" lon="11.0861733"><ele>1269.0</ele><time>2026-05-01T12:23:23.36Z</time></trkpt><trkpt lat="45.6348167" lon="11.086415"><ele>1271.0</ele><time>2026-05-01T12:23:24.361Z</time></trkpt><trkpt lat="45.6347383" lon="11.0866417"><ele>1271.0</ele><time>2026-05-01T12:23:25.36Z</time></trkpt><trkpt lat="45.634675" lon="11.0868733"><ele>1271.0</ele><time>2026-05-01T12:23:26.361Z</time></trkpt><trkpt lat="45.6346533" lon="11.0871133"><ele>1271.0</ele><time>2026-05-01T12:23:27.361Z</time></trkpt><trkpt lat="45.6346617" lon="11.0873733"><ele>1268.3333333333335</ele><time>2026-05-01T12:23:28.361Z</time></trkpt><trkpt lat="45.6347117" lon="11.08762"><ele>1265.6666666666667</ele><time>2026-05-01T12:23:29.36Z</time></trkpt><trkpt lat="45.6347883" lon="11.0878483"><ele>1263.0</ele><time>2026-05-01T12:23:30.361Z</time></trkpt><trkpt lat="45.6348567" lon="11.0880817"><ele>1260.6666666666667</ele><time>2026-05-01T12:23:31.361Z</time></trkpt><trkpt lat="45.634895" lon="11.0883217"><ele>1258.3333333333335</ele><time>2026-05-01T12:23:32.361Z</time></trkpt><trkpt lat="45.6349033" lon="11.0885683"><ele>1256.0</ele><time>2026-05-01T12:23:33.361Z</time></trkpt><trkpt lat="45.6348733" lon="11.0888017"><ele>1256.0</ele><time>2026-05-01T12:23:34.361Z</time></trkpt><trkpt lat="45.6348217" lon="11.089015"><ele>1256.0</ele><time>2026-05-01T12:23:35.36Z</time></trkpt><trkpt lat="45.6347383" lon="11.08918"><ele>1256.0</ele><time>2026-05-01T12:23:36.36Z</time></trkpt><trkpt lat="45.6346467" lon="11.0892883"><ele>1256.0</ele><time>2026-05-01T12:23:37.361Z</time></trkpt><trkpt lat="45.63455" lon="11.0893317"><ele>1254.25</ele><time>2026-05-01T12:23:38.361Z</time></trkpt><trkpt lat="45.634455" lon="11.0893033"><ele>1252.5</ele><time>2026-05-01T12:23:39.361Z</time></trkpt><trkpt lat="45.6343433" lon="11.0891967"><ele>1250.75</ele><time>2026-05-01T12:23:40.361Z</time></trkpt><trkpt lat="45.6342117" lon="11.0890983"><ele>1249.0</ele><time>2026-05-01T12:23:41.361Z</time></trkpt><trkpt lat="45.6340517" lon="11.0890033"><ele>1244.6666666666665</ele><time>2026-05-01T12:23:42.361Z</time></trkpt><trkpt lat="45.6338483" lon="11.0889217"><ele>1240.3333333333333</ele><time>2026-05-01T12:23:43.361Z</time></trkpt><trkpt lat="45.63366" lon="11.08888"><ele>1236.0</ele><time>2026-05-01T12:23:44.361Z</time></trkpt><trkpt lat="45.6334633" lon="11.0888117"><ele>1231.6666666666667</ele><time>2026-05-01T12:23:45.361Z</time></trkpt><trkpt lat="45.6332633" lon="11.0886933"><ele>1227.3333333333335</ele><time>2026-05-01T12:23:46.361Z</time></trkpt><trkpt lat="45.633075" lon="11.0885533"><ele>1223.0</ele><time>2026-05-01T12:23:47.36Z</time></trkpt><trkpt lat="45.632895" lon="11.0884333"><ele>1223.6666666666667</ele><time>2026-05-01T12:23:48.36Z</time></trkpt><trkpt lat="45.632715" lon="11.0883333"><ele>1224.3333333333333</ele><time>2026-05-01T12:23:49.36Z</time></trkpt><trkpt lat="45.6325283" lon="11.0882483"><ele>1225.0</ele><time>2026-05-01T12:23:50.361Z</time></trkpt><trkpt lat="45.6323583" lon="11.088175"><ele>1218.3333333333333</ele><time>2026-05-01T12:23:51.361Z</time></trkpt><trkpt lat="45.6321983" lon="11.0880983"><ele>1211.6666666666667</ele><time>2026-05-01T12:23:52.36Z</time></trkpt><trkpt lat="45.6320317" lon="11.0880233"><ele>1205.0</ele><time>2026-05-01T12:23:53.361Z</time></trkpt><trkpt lat="45.6318483" lon="11.0879567"><ele>1205.0</ele><time>2026-05-01T12:23:54.361Z</time></trkpt><trkpt lat="45.6316683" lon="11.0879083"><ele>1205.0</ele><time>2026-05-01T12:23:55.361Z</time></trkpt><trkpt lat="45.63148" lon="11.0878633"><ele>1205.0</ele><time>2026-05-01T12:23:56.361Z</time></trkpt><trkpt lat="45.6312983" lon="11.0878133"><ele>1202.3333333333335</ele><time>2026-05-01T12:23:57.36Z</time></trkpt><trkpt lat="45.6311217" lon="11.0877617"><ele>1199.6666666666667</ele><time>2026-05-01T12:23:58.361Z</time></trkpt><trkpt lat="45.6309417" lon="11.0877233"><ele>1197.0</ele><time>2026-05-01T12:23:59.361Z</time></trkpt><trkpt lat="45.6307617" lon="11.08769"><ele>1197.0</ele><time>2026-05-01T12:24:00.361Z</time></trkpt><trkpt lat="45.6305767" lon="11.087645"><ele>1197.0</ele><time>2026-05-01T12:24:01.361Z</time></trkpt><trkpt lat="45.6303933" lon="11.0875983"><ele>1197.0</ele><time>2026-05-01T12:24:02.361Z</time></trkpt><trkpt lat="45.63021" lon="11.08756"><ele>1194.0</ele><time>2026-05-01T12:24:03.361Z</time></trkpt><trkpt lat="45.6300217" lon="11.0875383"><ele>1191.0</ele><time>2026-05-01T12:24:04.361Z</time></trkpt><trkpt lat="45.6298333" lon="11.0875267"><ele>1188.0</ele><time>2026-05-01T12:24:05.361Z</time></trkpt><trkpt lat="45.6296417" lon="11.0875367"><ele>1185.0</ele><time>2026-05-01T12:24:06.361Z</time></trkpt><trkpt lat="45.6294583" lon="11.0875617"><ele>1182.0</ele><time>2026-05-01T12:24:07.36Z</time></trkpt><trkpt lat="45.6292767" lon="11.0875767"><ele>1179.0</ele><time>2026-05-01T12:24:08.361Z</time></trkpt><trkpt lat="45.629095" lon="11.087595"><ele>1179.0</ele><time>2026-05-01T12:24:09.361Z</time></trkpt><trkpt lat="45.62892" lon="11.0876333"><ele>1179.0</ele><time>2026-05-01T12:24:10.361Z</time></trkpt><trkpt lat="45.62875" lon="11.0877"><ele>1179.0</ele><time>2026-05-01T12:24:11.361Z</time></trkpt><trkpt lat="45.628585" lon="11.0878033"><ele>1177.3333333333333</ele><time>2026-05-01T12:24:12.361Z</time></trkpt><trkpt lat="45.628435" lon="11.0879383"><ele>1175.6666666666665</ele><time>2026-05-01T12:24:13.361Z</time></trkpt><trkpt lat="45.6282733" lon="11.0880683"><ele>1174.0</ele><time>2026-05-01T12:24:14.36Z</time></trkpt><trkpt lat="45.62809" lon="11.0881717"><ele>1174.0</ele><time>2026-05-01T12:24:15.361Z</time></trkpt><trkpt lat="45.6278933" lon="11.08823"><ele>1174.0</ele><time>2026-05-01T12:24:16.361Z</time></trkpt><trkpt lat="45.6277" lon="11.08826"><ele>1174.0</ele><time>2026-05-01T12:24:17.361Z</time></trkpt><trkpt lat="45.6275233" lon="11.0882717"><ele>1172.75</ele><time>2026-05-01T12:24:18.361Z</time></trkpt><trkpt lat="45.6273667" lon="11.0882917"><ele>1171.5</ele><time>2026-05-01T12:24:19.361Z</time></trkpt><trkpt lat="45.6272317" lon="11.0883"><ele>1170.25</ele><time>2026-05-01T12:24:20.361Z</time></trkpt><trkpt lat="45.6271383" lon="11.0882883"><ele>1169.0</ele><time>2026-05-01T12:24:21.361Z</time></trkpt><trkpt lat="45.6270683" lon="11.0882567"><ele>1168.2</ele><time>2026-05-01T12:24:22.361Z</time></trkpt><trkpt lat="45.62696" lon="11.0882317"><ele>1167.4</ele><time>2026-05-01T12:24:24.361Z</time></trkpt><trkpt lat="45.626895" lon="11.0882733"><ele>1166.6</ele><time>2026-05-01T12:24:25.36Z</time></trkpt><trkpt lat="45.6268317" lon="11.08836"><ele>1165.8</ele><time>2026-05-01T12:24:26.361Z</time></trkpt><trkpt lat="45.6267567" lon="11.0884517"><ele>1165.0</ele><time>2026-05-01T12:24:27.361Z</time></trkpt><trkpt lat="45.6266667" lon="11.0885617"><ele>1165.0</ele><time>2026-05-01T12:24:28.361Z</time></trkpt><trkpt lat="45.6265617" lon="11.0886733"><ele>1165.0</ele><time>2026-05-01T12:24:29.361Z</time></trkpt><trkpt lat="45.6264417" lon="11.088765"><ele>1165.0</ele><time>2026-05-01T12:24:30.361Z</time></trkpt><trkpt lat="45.6263133" lon="11.0888367"><ele>1165.0</ele><time>2026-05-01T12:24:31.361Z</time></trkpt><trkpt lat="45.6261733" lon="11.0888933"><ele>1165.0</ele><time>2026-05-01T12:24:32.361Z</time></trkpt><trkpt lat="45.62603" lon="11.0889467"><ele>1165.0</ele><time>2026-05-01T12:24:33.36Z</time></trkpt><trkpt lat="45.62588" lon="11.0889883"><ele>1165.0</ele><time>2026-05-01T12:24:34.361Z</time></trkpt><trkpt lat="45.625725" lon="11.08904"><ele>1165.0</ele><time>2026-05-01T12:24:35.361Z</time></trkpt><trkpt lat="45.625565" lon="11.0890833"><ele>1165.0</ele><time>2026-05-01T12:24:36.36Z</time></trkpt><trkpt lat="45.6254033" lon="11.0891383"><ele>1165.0</ele><time>2026-05-01T12:24:37.361Z</time></trkpt><trkpt lat="45.6252367" lon="11.0891867"><ele>1165.6666666666665</ele><time>2026-05-01T12:24:38.361Z</time></trkpt><trkpt lat="45.625075" lon="11.0892417"><ele>1166.3333333333333</ele><time>2026-05-01T12:24:39.361Z</time></trkpt><trkpt lat="45.6249067" lon="11.0893017"><ele>1167.0</ele><time>2026-05-01T12:24:40.361Z</time></trkpt><trkpt lat="45.6247333" lon="11.089355"><ele>1167.0</ele><time>2026-05-01T12:24:41.361Z</time></trkpt><trkpt lat="45.6245633" lon="11.0894017"><ele>1167.0</ele><time>2026-05-01T12:24:42.361Z</time></trkpt><trkpt lat="45.6244" lon="11.0894433"><ele>1167.0</ele><time>2026-05-01T12:24:43.361Z</time></trkpt><trkpt lat="45.62424" lon="11.0894617"><ele>1168.6666666666667</ele><time>2026-05-01T12:24:44.361Z</time></trkpt><trkpt lat="45.624075" lon="11.08944"><ele>1170.3333333333335</ele><time>2026-05-01T12:24:45.361Z</time></trkpt><trkpt lat="45.623905" lon="11.0894183"><ele>1172.0</ele><time>2026-05-01T12:24:46.361Z</time></trkpt><trkpt lat="45.62374" lon="11.089375"><ele>1175.3333333333335</ele><time>2026-05-01T12:24:47.361Z</time></trkpt><trkpt lat="45.6235617" lon="11.089335"><ele>1178.6666666666667</ele><time>2026-05-01T12:24:48.36Z</time></trkpt><trkpt lat="45.62339" lon="11.0893083"><ele>1182.0</ele><time>2026-05-01T12:24:49.361Z</time></trkpt><trkpt lat="45.6232133" lon="11.0892933"><ele>1182.0</ele><time>2026-05-01T12:24:50.361Z</time></trkpt><trkpt lat="45.623035" lon="11.089285"><ele>1182.0</ele><time>2026-05-01T12:24:51.361Z</time></trkpt><trkpt lat="45.6228667" lon="11.08928"><ele>1182.0</ele><time>2026-05-01T12:24:52.36Z</time></trkpt><trkpt lat="45.6226983" lon="11.08928"><ele>1182.3333333333333</ele><time>2026-05-01T12:24:53.36Z</time></trkpt><trkpt lat="45.6225317" lon="11.0892717"><ele>1182.6666666666665</ele><time>2026-05-01T12:24:54.36Z</time></trkpt><trkpt lat="45.6223667" lon="11.0892817"><ele>1183.0</ele><time>2026-05-01T12:24:55.361Z</time></trkpt><trkpt lat="45.622205" lon="11.089295"><ele>1183.0</ele><time>2026-05-01T12:24:56.36Z</time></trkpt><trkpt lat="45.622045" lon="11.089305"><ele>1183.0</ele><time>2026-05-01T12:24:57.361Z</time></trkpt><trkpt lat="45.6218867" lon="11.0892917"><ele>1183.0</ele><time>2026-05-01T12:24:58.361Z</time></trkpt><trkpt lat="45.621725" lon="11.0892833"><ele>1183.3333333333333</ele><time>2026-05-01T12:24:59.361Z</time></trkpt><trkpt lat="45.6215683" lon="11.089255"><ele>1183.6666666666667</ele><time>2026-05-01T12:25:00.361Z</time></trkpt><trkpt lat="45.6214067" lon="11.0892083"><ele>1184.0</ele><time>2026-05-01T12:25:01.361Z</time></trkpt><trkpt lat="45.6212417" lon="11.0891433"><ele>1182.3333333333335</ele><time>2026-05-01T12:25:02.36Z</time></trkpt><trkpt lat="45.6210817" lon="11.0890533"><ele>1180.6666666666667</ele><time>2026-05-01T12:25:03.361Z</time></trkpt><trkpt lat="45.6209133" lon="11.0889667"><ele>1179.0</ele><time>2026-05-01T12:25:04.361Z</time></trkpt><trkpt lat="45.6207583" lon="11.0888517"><ele>1179.0</ele><time>2026-05-01T12:25:05.361Z</time></trkpt><trkpt lat="45.6206083" lon="11.0887483"><ele>1179.0</ele><time>2026-05-01T12:25:06.361Z</time></trkpt><trkpt lat="45.6204533" lon="11.08864"><ele>1179.0</ele><time>2026-05-01T12:25:07.361Z</time></trkpt><trkpt lat="45.6203083" lon="11.0885267"><ele>1170.0</ele><time>2026-05-01T12:25:08.361Z</time></trkpt><trkpt lat="45.6201617" lon="11.0884283"><ele>1161.0</ele><time>2026-05-01T12:25:09.361Z</time></trkpt><trkpt lat="45.62001" lon="11.08836"><ele>1152.0</ele><time>2026-05-01T12:25:10.361Z</time></trkpt><trkpt lat="45.61985" lon="11.0883167"><ele>1152.0</ele><time>2026-05-01T12:25:11.361Z</time></trkpt><trkpt lat="45.6196967" lon="11.0883633"><ele>1152.0</ele><time>2026-05-01T12:25:12.361Z</time></trkpt><trkpt lat="45.619545" lon="11.0884733"><ele>1152.0</ele><time>2026-05-01T12:25:13.361Z</time></trkpt><trkpt lat="45.61941" lon="11.08861"><ele>1146.0</ele><time>2026-05-01T12:25:14.361Z</time></trkpt><trkpt lat="45.6192867" lon="11.0887467"><ele>1140.0</ele><time>2026-05-01T12:25:15.361Z</time></trkpt><trkpt lat="45.6191817" lon="11.0888683"><ele>1134.0</ele><time>2026-05-01T12:25:16.361Z</time></trkpt><trkpt lat="45.619085" lon="11.0889733"><ele>1128.0</ele><time>2026-05-01T12:25:17.361Z</time></trkpt><trkpt lat="45.6189917" lon="11.0890767"><ele>1130.1666666666667</ele><time>2026-05-01T12:25:18.361Z</time></trkpt><trkpt lat="45.6189133" lon="11.08918"><ele>1132.3333333333333</ele><time>2026-05-01T12:25:19.361Z</time></trkpt><trkpt lat="45.61886" lon="11.0892883"><ele>1134.5</ele><time>2026-05-01T12:25:20.361Z</time></trkpt><trkpt lat="45.61882" lon="11.0893883"><ele>1136.6666666666665</ele><time>2026-05-01T12:25:21.361Z</time></trkpt><trkpt lat="45.6188" lon="11.0895"><ele>1138.8333333333333</ele><time>2026-05-01T12:25:22.361Z</time></trkpt><trkpt lat="45.6188133" lon="11.08962"><ele>1141.0</ele><time>2026-05-01T12:25:23.361Z</time></trkpt><trkpt lat="45.6188517" lon="11.089725"><ele>1141.0</ele><time>2026-05-01T12:25:24.361Z</time></trkpt><trkpt lat="45.618905" lon="11.0898183"><ele>1141.0</ele><time>2026-05-01T12:25:25.361Z</time></trkpt><trkpt lat="45.6189617" lon="11.0899117"><ele>1141.0</ele><time>2026-05-01T12:25:26.361Z</time></trkpt><trkpt lat="45.6189983" lon="11.0900183"><ele>1141.0</ele><time>2026-05-01T12:25:27.361Z</time></trkpt><trkpt lat="45.6190233" lon="11.09012"><ele>1141.0</ele><time>2026-05-01T12:25:28.361Z</time></trkpt><trkpt lat="45.6190333" lon="11.0902133"><ele>1141.0</ele><time>2026-05-01T12:25:29.361Z</time></trkpt><trkpt lat="45.61898" lon="11.090375"><ele>1141.6</ele><time>2026-05-01T12:25:31.361Z</time></trkpt><trkpt lat="45.618925" lon="11.0904617"><ele>1142.1999999999998</ele><time>2026-05-01T12:25:32.36Z</time></trkpt><trkpt lat="45.6188583" lon="11.0905317"><ele>1142.8000000000002</ele><time>2026-05-01T12:25:33.361Z</time></trkpt><trkpt lat="45.6187683" lon="11.0906"><ele>1143.4</ele><time>2026-05-01T12:25:34.361Z</time></trkpt><trkpt lat="45.6186783" lon="11.09066"><ele>1144.0</ele><time>2026-05-01T12:25:35.361Z</time></trkpt><trkpt lat="45.618585" lon="11.09073"><ele>1137.3333333333333</ele><time>2026-05-01T12:25:36.361Z</time></trkpt><trkpt lat="45.6184933" lon="11.0908333"><ele>1130.6666666666667</ele><time>2026-05-01T12:25:37.361Z</time></trkpt><trkpt lat="45.6183967" lon="11.0910183"><ele>1124.0</ele><time>2026-05-01T12:25:38.361Z</time></trkpt><trkpt lat="45.6182967" lon="11.091265"><ele>1124.0</ele><time>2026-05-01T12:25:39.361Z</time></trkpt><trkpt lat="45.6181917" lon="11.0915117"><ele>1124.0</ele><time>2026-05-01T12:25:40.361Z</time></trkpt><trkpt lat="45.61808" lon="11.09173"><ele>1124.0</ele><time>2026-05-01T12:25:41.361Z</time></trkpt><trkpt lat="45.6179633" lon="11.0919383"><ele>1124.0</ele><time>2026-05-01T12:25:42.36Z</time></trkpt><trkpt lat="45.6178483" lon="11.0921333"><ele>1124.0</ele><time>2026-05-01T12:25:43.359Z</time></trkpt><trkpt lat="45.6177383" lon="11.0923167"><ele>1124.0</ele><time>2026-05-01T12:25:44.36Z</time></trkpt><trkpt lat="45.6176267" lon="11.0924817"><ele>1123.3333333333335</ele><time>2026-05-01T12:25:45.359Z</time></trkpt><trkpt lat="45.6175267" lon="11.0926583"><ele>1122.6666666666667</ele><time>2026-05-01T12:25:46.359Z</time></trkpt><trkpt lat="45.6174283" lon="11.092865"><ele>1122.0</ele><time>2026-05-01T12:25:47.359Z</time></trkpt><trkpt lat="45.6173433" lon="11.0931067"><ele>1122.3333333333333</ele><time>2026-05-01T12:25:48.36Z</time></trkpt><trkpt lat="45.61728" lon="11.0933667"><ele>1122.6666666666665</ele><time>2026-05-01T12:25:49.36Z</time></trkpt><trkpt lat="45.61722" lon="11.0936117"><ele>1123.0</ele><time>2026-05-01T12:25:50.36Z</time></trkpt><trkpt lat="45.6171433" lon="11.0938367"><ele>1123.0</ele><time>2026-05-01T12:25:51.359Z</time></trkpt><trkpt lat="45.617035" lon="11.094015"><ele>1123.0</ele><time>2026-05-01T12:25:52.36Z</time></trkpt><trkpt lat="45.6168867" lon="11.0941133"><ele>1123.0</ele><time>2026-05-01T12:25:53.36Z</time></trkpt><trkpt lat="45.61671" lon="11.09417"><ele>1116.6666666666665</ele><time>2026-05-01T12:25:54.359Z</time></trkpt><trkpt lat="45.6165283" lon="11.0942083"><ele>1110.3333333333333</ele><time>2026-05-01T12:25:55.36Z</time></trkpt><trkpt lat="45.61635" lon="11.09425"><ele>1104.0</ele><time>2026-05-01T12:25:56.36Z</time></trkpt><trkpt lat="45.6161717" lon="11.0943017"><ele>1101.6666666666667</ele><time>2026-05-01T12:25:57.36Z</time></trkpt><trkpt lat="45.6159917" lon="11.0943433"><ele>1099.3333333333335</ele><time>2026-05-01T12:25:58.36Z</time></trkpt><trkpt lat="45.6158183" lon="11.09438"><ele>1097.0</ele><time>2026-05-01T12:25:59.36Z</time></trkpt><trkpt lat="45.61565" lon="11.0944133"><ele>1097.0</ele><time>2026-05-01T12:26:00.359Z</time></trkpt><trkpt lat="45.615485" lon="11.0944333"><ele>1097.0</ele><time>2026-05-01T12:26:01.36Z</time></trkpt><trkpt lat="45.615315" lon="11.09444"><ele>1097.0</ele><time>2026-05-01T12:26:02.36Z</time></trkpt><trkpt lat="45.615155" lon="11.094445"><ele>1098.3333333333335</ele><time>2026-05-01T12:26:03.36Z</time></trkpt><trkpt lat="45.6149767" lon="11.094455"><ele>1099.6666666666667</ele><time>2026-05-01T12:26:04.36Z</time></trkpt><trkpt lat="45.6148133" lon="11.09446"><ele>1101.0</ele><time>2026-05-01T12:26:05.36Z</time></trkpt><trkpt lat="45.6146467" lon="11.09446"><ele>1100.3333333333333</ele><time>2026-05-01T12:26:06.36Z</time></trkpt><trkpt lat="45.6144767" lon="11.094455"><ele>1099.6666666666665</ele><time>2026-05-01T12:26:07.36Z</time></trkpt><trkpt lat="45.6142983" lon="11.0944517"><ele>1099.0</ele><time>2026-05-01T12:26:08.36Z</time></trkpt><trkpt lat="45.6141233" lon="11.0944233"><ele>1099.0</ele><time>2026-05-01T12:26:09.36Z</time></trkpt><trkpt lat="45.6139433" lon="11.0943617"><ele>1099.0</ele><time>2026-05-01T12:26:10.36Z</time></trkpt><trkpt lat="45.61375" lon="11.0942817"><ele>1099.0</ele><time>2026-05-01T12:26:11.36Z</time></trkpt><trkpt lat="45.6135583" lon="11.09421"><ele>1099.0</ele><time>2026-05-01T12:26:12.36Z</time></trkpt><trkpt lat="45.6133767" lon="11.0941867"><ele>1099.0</ele><time>2026-05-01T12:26:13.36Z</time></trkpt><trkpt lat="45.6132033" lon="11.0942483"><ele>1099.0</ele><time>2026-05-01T12:26:14.36Z</time></trkpt><trkpt lat="45.6130317" lon="11.0943617"><ele>1099.0</ele><time>2026-05-01T12:26:15.36Z</time></trkpt><trkpt lat="45.61285" lon="11.094465"><ele>1099.0</ele><time>2026-05-01T12:26:16.36Z</time></trkpt><trkpt lat="45.6126567" lon="11.0945117"><ele>1099.0</ele><time>2026-05-01T12:26:17.36Z</time></trkpt><trkpt lat="45.61247" lon="11.0945133"><ele>1097.0</ele><time>2026-05-01T12:26:18.36Z</time></trkpt><trkpt lat="45.6123067" lon="11.09447"><ele>1095.0</ele><time>2026-05-01T12:26:19.36Z</time></trkpt><trkpt lat="45.6121667" lon="11.09437"><ele>1093.0</ele><time>2026-05-01T12:26:20.36Z</time></trkpt><trkpt lat="45.61206" lon="11.0942133"><ele>1089.6666666666665</ele><time>2026-05-01T12:26:21.36Z</time></trkpt><trkpt lat="45.61194" lon="11.09408"><ele>1086.3333333333333</ele><time>2026-05-01T12:26:22.36Z</time></trkpt><trkpt lat="45.6117883" lon="11.0940217"><ele>1083.0</ele><time>2026-05-01T12:26:23.36Z</time></trkpt><trkpt lat="45.611645" lon="11.0940533"><ele>1085.6666666666667</ele><time>2026-05-01T12:26:24.36Z</time></trkpt><trkpt lat="45.6115167" lon="11.0941633"><ele>1088.3333333333335</ele><time>2026-05-01T12:26:25.36Z</time></trkpt><trkpt lat="45.61141" lon="11.0943367"><ele>1091.0</ele><time>2026-05-01T12:26:26.36Z</time></trkpt><trkpt lat="45.6113217" lon="11.0945283"><ele>1091.0</ele><time>2026-05-01T12:26:27.359Z</time></trkpt><trkpt lat="45.61124" lon="11.0947033"><ele>1091.0</ele><time>2026-05-01T12:26:28.359Z</time></trkpt><trkpt lat="45.6111333" lon="11.0948383"><ele>1091.0</ele><time>2026-05-01T12:26:29.36Z</time></trkpt><trkpt lat="45.6110017" lon="11.0949117"><ele>1091.0</ele><time>2026-05-01T12:26:30.359Z</time></trkpt><trkpt lat="45.6108567" lon="11.0949167"><ele>1088.3333333333335</ele><time>2026-05-01T12:26:31.36Z</time></trkpt><trkpt lat="45.6107067" lon="11.09485"><ele>1085.6666666666667</ele><time>2026-05-01T12:26:32.36Z</time></trkpt><trkpt lat="45.6105567" lon="11.0947583"><ele>1083.0</ele><time>2026-05-01T12:26:33.36Z</time></trkpt><trkpt lat="45.6103983" lon="11.0946983"><ele>1084.6666666666667</ele><time>2026-05-01T12:26:34.36Z</time></trkpt><trkpt lat="45.6102267" lon="11.0946867"><ele>1086.3333333333335</ele><time>2026-05-01T12:26:35.36Z</time></trkpt><trkpt lat="45.610055" lon="11.09471"><ele>1088.0</ele><time>2026-05-01T12:26:36.36Z</time></trkpt><trkpt lat="45.6098933" lon="11.0947483"><ele>1088.0</ele><time>2026-05-01T12:26:37.36Z</time></trkpt><trkpt lat="45.6097417" lon="11.0947883"><ele>1088.0</ele><time>2026-05-01T12:26:38.36Z</time></trkpt><trkpt lat="45.6095983" lon="11.0948233"><ele>1088.0</ele><time>2026-05-01T12:26:39.36Z</time></trkpt><trkpt lat="45.6094567" lon="11.0948617"><ele>1088.0</ele><time>2026-05-01T12:26:40.36Z</time></trkpt><trkpt lat="45.6093117" lon="11.0949033"><ele>1085.75</ele><time>2026-05-01T12:26:41.359Z</time></trkpt><trkpt lat="45.6091783" lon="11.0949433"><ele>1083.5</ele><time>2026-05-01T12:26:42.36Z</time></trkpt><trkpt lat="45.6090433" lon="11.095"><ele>1081.25</ele><time>2026-05-01T12:26:43.36Z</time></trkpt><trkpt lat="45.6089133" lon="11.09507"><ele>1079.0</ele><time>2026-05-01T12:26:44.359Z</time></trkpt><trkpt lat="45.608785" lon="11.0951817"><ele>1079.0</ele><time>2026-05-01T12:26:45.36Z</time></trkpt><trkpt lat="45.608665" lon="11.0953217"><ele>1079.0</ele><time>2026-05-01T12:26:46.36Z</time></trkpt><trkpt lat="45.6085533" lon="11.09547"><ele>1079.0</ele><time>2026-05-01T12:26:47.36Z</time></trkpt><trkpt lat="45.60845" lon="11.0956167"><ele>1076.3333333333335</ele><time>2026-05-01T12:26:48.36Z</time></trkpt><trkpt lat="45.608315" lon="11.0957217"><ele>1073.6666666666667</ele><time>2026-05-01T12:26:49.36Z</time></trkpt><trkpt lat="45.608155" lon="11.0957633"><ele>1071.0</ele><time>2026-05-01T12:26:50.36Z</time></trkpt><trkpt lat="45.6080017" lon="11.0957267"><ele>1069.75</ele><time>2026-05-01T12:26:51.36Z</time></trkpt><trkpt lat="45.60786" lon="11.095635"><ele>1068.5</ele><time>2026-05-01T12:26:52.36Z</time></trkpt><trkpt lat="45.60773" lon="11.09555"><ele>1067.25</ele><time>2026-05-01T12:26:53.36Z</time></trkpt><trkpt lat="45.6075983" lon="11.095485"><ele>1066.0</ele><time>2026-05-01T12:26:54.36Z</time></trkpt><trkpt lat="45.60747" lon="11.095445"><ele>1065.5</ele><time>2026-05-01T12:26:55.359Z</time></trkpt><trkpt lat="45.6073367" lon="11.095435"><ele>1065.0</ele><time>2026-05-01T12:26:56.36Z</time></trkpt><trkpt lat="45.6072183" lon="11.0954833"><ele>1064.5</ele><time>2026-05-01T12:26:57.36Z</time></trkpt><trkpt lat="45.6071067" lon="11.095565"><ele>1064.0</ele><time>2026-05-01T12:26:58.359Z</time></trkpt><trkpt lat="45.60701" lon="11.09568"><ele>1067.2</ele><time>2026-05-01T12:26:59.36Z</time></trkpt><trkpt lat="45.6069083" lon="11.0957967"><ele>1070.4</ele><time>2026-05-01T12:27:00.36Z</time></trkpt><trkpt lat="45.60682" lon="11.0958967"><ele>1073.6</ele><time>2026-05-01T12:27:01.36Z</time></trkpt><trkpt lat="45.6067317" lon="11.0959617"><ele>1076.8</ele><time>2026-05-01T12:27:02.36Z</time></trkpt><trkpt lat="45.6066333" lon="11.09599"><ele>1080.0</ele><time>2026-05-01T12:27:03.36Z</time></trkpt><trkpt lat="45.606535" lon="11.0959733"><ele>1080.0</ele><time>2026-05-01T12:27:04.36Z</time></trkpt><trkpt lat="45.606425" lon="11.0959183"><ele>1080.0</ele><time>2026-05-01T12:27:05.36Z</time></trkpt><trkpt lat="45.606315" lon="11.0958267"><ele>1080.0</ele><time>2026-05-01T12:27:06.36Z</time></trkpt><trkpt lat="45.6061933" lon="11.09572"><ele>1080.0</ele><time>2026-05-01T12:27:07.36Z</time></trkpt><trkpt lat="45.60607" lon="11.0955983"><ele>1078.0</ele><time>2026-05-01T12:27:08.36Z</time></trkpt><trkpt lat="45.605955" lon="11.0954817"><ele>1076.0</ele><time>2026-05-01T12:27:09.36Z</time></trkpt><trkpt lat="45.6058417" lon="11.0953767"><ele>1074.0</ele><time>2026-05-01T12:27:10.36Z</time></trkpt><trkpt lat="45.6057217" lon="11.09528"><ele>1072.0</ele><time>2026-05-01T12:27:11.36Z</time></trkpt><trkpt lat="45.6056033" lon="11.095195"><ele>1072.0</ele><time>2026-05-01T12:27:12.359Z</time></trkpt><trkpt lat="45.6054833" lon="11.095115"><ele>1072.0</ele><time>2026-05-01T12:27:13.36Z</time></trkpt><trkpt lat="45.6053583" lon="11.095055"><ele>1072.0</ele><time>2026-05-01T12:27:14.36Z</time></trkpt><trkpt lat="45.6052333" lon="11.0950017"><ele>1072.0</ele><time>2026-05-01T12:27:15.36Z</time></trkpt><trkpt lat="45.6050933" lon="11.0949733"><ele>1074.25</ele><time>2026-05-01T12:27:16.359Z</time></trkpt><trkpt lat="45.6049567" lon="11.0949633"><ele>1076.5</ele><time>2026-05-01T12:27:17.36Z</time></trkpt><trkpt lat="45.60482" lon="11.0949633"><ele>1078.75</ele><time>2026-05-01T12:27:18.36Z</time></trkpt><trkpt lat="45.6046817" lon="11.094945"><ele>1081.0</ele><time>2026-05-01T12:27:19.36Z</time></trkpt><trkpt lat="45.6045433" lon="11.0949417"><ele>1080.0</ele><time>2026-05-01T12:27:20.36Z</time></trkpt><trkpt lat="45.60441" lon="11.0949517"><ele>1079.0</ele><time>2026-05-01T12:27:21.36Z</time></trkpt><trkpt lat="45.60427" lon="11.0949467"><ele>1078.0</ele><time>2026-05-01T12:27:22.36Z</time></trkpt><trkpt lat="45.6041417" lon="11.0949417"><ele>1077.0</ele><time>2026-05-01T12:27:23.359Z</time></trkpt><trkpt lat="45.604015" lon="11.0949383"><ele>1077.0</ele><time>2026-05-01T12:27:24.36Z</time></trkpt><trkpt lat="45.6038933" lon="11.09495"><ele>1077.0</ele><time>2026-05-01T12:27:25.36Z</time></trkpt><trkpt lat="45.6037717" lon="11.0949817"><ele>1077.0</ele><time>2026-05-01T12:27:26.36Z</time></trkpt><trkpt lat="45.60366" lon="11.095045"><ele>1077.0</ele><time>2026-05-01T12:27:27.36Z</time></trkpt><trkpt lat="45.6035533" lon="11.0951617"><ele>1080.0</ele><time>2026-05-01T12:27:28.36Z</time></trkpt><trkpt lat="45.6034433" lon="11.0952967"><ele>1083.0</ele><time>2026-05-01T12:27:29.36Z</time></trkpt><trkpt lat="45.6033217" lon="11.0954317"><ele>1086.0</ele><time>2026-05-01T12:27:30.36Z</time></trkpt><trkpt lat="45.60319" lon="11.0955567"><ele>1086.0</ele><time>2026-05-01T12:27:31.36Z</time></trkpt><trkpt lat="45.603055" lon="11.0956483"><ele>1086.0</ele><time>2026-05-01T12:27:32.36Z</time></trkpt><trkpt lat="45.6029367" lon="11.095755"><ele>1086.0</ele><time>2026-05-01T12:27:33.36Z</time></trkpt><trkpt lat="45.6028567" lon="11.0958817"><ele>1086.0</ele><time>2026-05-01T12:27:34.359Z</time></trkpt><trkpt lat="45.6028117" lon="11.0960217"><ele>1082.5</ele><time>2026-05-01T12:27:35.359Z</time></trkpt><trkpt lat="45.602835" lon="11.09618"><ele>1079.0</ele><time>2026-05-01T12:27:36.36Z</time></trkpt><trkpt lat="45.602925" lon="11.09635"><ele>1075.5</ele><time>2026-05-01T12:27:37.359Z</time></trkpt><trkpt lat="45.6030417" lon="11.0965417"><ele>1072.0</ele><time>2026-05-01T12:27:38.36Z</time></trkpt><trkpt lat="45.603145" lon="11.0967467"><ele>1071.0</ele><time>2026-05-01T12:27:39.36Z</time></trkpt><trkpt lat="45.6032317" lon="11.096975"><ele>1070.0</ele><time>2026-05-01T12:27:40.36Z</time></trkpt><trkpt lat="45.6032783" lon="11.097235"><ele>1069.0</ele><time>2026-05-01T12:27:41.36Z</time></trkpt><trkpt lat="45.6032483" lon="11.0975517"><ele>1069.0</ele><time>2026-05-01T12:27:42.359Z</time></trkpt><trkpt lat="45.6032283" lon="11.0978517"><ele>1069.0</ele><time>2026-05-01T12:27:43.36Z</time></trkpt><trkpt lat="45.6031883" lon="11.09812"><ele>1069.0</ele><time>2026-05-01T12:27:44.36Z</time></trkpt><trkpt lat="45.60314" lon="11.0984333"><ele>1067.6666666666665</ele><time>2026-05-01T12:27:45.36Z</time></trkpt><trkpt lat="45.6030633" lon="11.0987267"><ele>1066.3333333333333</ele><time>2026-05-01T12:27:46.36Z</time></trkpt><trkpt lat="45.6029883" lon="11.0990067"><ele>1065.0</ele><time>2026-05-01T12:27:47.36Z</time></trkpt><trkpt lat="45.60293" lon="11.0992533"><ele>1064.3333333333333</ele><time>2026-05-01T12:27:48.36Z</time></trkpt><trkpt lat="45.6028767" lon="11.0994867"><ele>1063.6666666666665</ele><time>2026-05-01T12:27:49.36Z</time></trkpt><trkpt lat="45.6028267" lon="11.0997083"><ele>1063.0</ele><time>2026-05-01T12:27:50.36Z</time></trkpt><trkpt lat="45.602745" lon="11.0998967"><ele>1062.25</ele><time>2026-05-01T12:27:51.36Z</time></trkpt><trkpt lat="45.6026383" lon="11.10003"><ele>1061.5</ele><time>2026-05-01T12:27:52.359Z</time></trkpt><trkpt lat="45.6025017" lon="11.1000667"><ele>1060.75</ele><time>2026-05-01T12:27:53.36Z</time></trkpt><trkpt lat="45.6023717" lon="11.10005"><ele>1060.0</ele><time>2026-05-01T12:27:54.36Z</time></trkpt><trkpt lat="45.602265" lon="11.099985"><ele>1063.0</ele><time>2026-05-01T12:27:55.36Z</time></trkpt><trkpt lat="45.60218" lon="11.0998833"><ele>1066.0</ele><time>2026-05-01T12:27:56.36Z</time></trkpt><trkpt lat="45.6021067" lon="11.0997483"><ele>1069.0</ele><time>2026-05-01T12:27:57.359Z</time></trkpt><trkpt lat="45.6020567" lon="11.099605"><ele>1072.0</ele><time>2026-05-01T12:27:58.36Z</time></trkpt><trkpt lat="45.6020083" lon="11.0994633"><ele>1072.25</ele><time>2026-05-01T12:27:59.36Z</time></trkpt><trkpt lat="45.6019367" lon="11.09933"><ele>1072.5</ele><time>2026-05-01T12:28:00.36Z</time></trkpt><trkpt lat="45.6018267" lon="11.0991883"><ele>1072.75</ele><time>2026-05-01T12:28:01.36Z</time></trkpt><trkpt lat="45.6016917" lon="11.0990383"><ele>1073.0</ele><time>2026-05-01T12:28:02.359Z</time></trkpt><trkpt lat="45.60153" lon="11.0989033"><ele>1073.0</ele><time>2026-05-01T12:28:03.36Z</time></trkpt><trkpt lat="45.6013417" lon="11.0987933"><ele>1073.0</ele><time>2026-05-01T12:28:04.36Z</time></trkpt><trkpt lat="45.60115" lon="11.0987167"><ele>1073.0</ele><time>2026-05-01T12:28:05.36Z</time></trkpt><trkpt lat="45.60096" lon="11.0986717"><ele>1069.3333333333335</ele><time>2026-05-01T12:28:06.36Z</time></trkpt><trkpt lat="45.600765" lon="11.0986383"><ele>1065.6666666666667</ele><time>2026-05-01T12:28:07.359Z</time></trkpt><trkpt lat="45.60058" lon="11.0986417"><ele>1062.0</ele><time>2026-05-01T12:28:08.36Z</time></trkpt><trkpt lat="45.6003967" lon="11.09872"><ele>1064.0</ele><time>2026-05-01T12:28:09.36Z</time></trkpt><trkpt lat="45.6002333" lon="11.0988183"><ele>1066.0</ele><time>2026-05-01T12:28:10.359Z</time></trkpt><trkpt lat="45.60007" lon="11.0989517"><ele>1068.0</ele><time>2026-05-01T12:28:11.36Z</time></trkpt><trkpt lat="45.5999133" lon="11.0991017"><ele>1065.3333333333333</ele><time>2026-05-01T12:28:12.36Z</time></trkpt><trkpt lat="45.599765" lon="11.0992583"><ele>1062.6666666666665</ele><time>2026-05-01T12:28:13.36Z</time></trkpt><trkpt lat="45.5996083" lon="11.0994333"><ele>1060.0</ele><time>2026-05-01T12:28:14.36Z</time></trkpt><trkpt lat="45.5994517" lon="11.0996"><ele>1060.0</ele><time>2026-05-01T12:28:15.36Z</time></trkpt><trkpt lat="45.5993" lon="11.0997567"><ele>1060.0</ele><time>2026-05-01T12:28:16.36Z</time></trkpt><trkpt lat="45.5991533" lon="11.0999117"><ele>1060.0</ele><time>2026-05-01T12:28:17.36Z</time></trkpt><trkpt lat="45.5990033" lon="11.1000567"><ele>1054.0</ele><time>2026-05-01T12:28:18.36Z</time></trkpt><trkpt lat="45.5988433" lon="11.1001767"><ele>1048.0</ele><time>2026-05-01T12:28:19.36Z</time></trkpt><trkpt lat="45.598685" lon="11.100255"><ele>1042.0</ele><time>2026-05-01T12:28:20.36Z</time></trkpt><trkpt lat="45.5985183" lon="11.1002933"><ele>1042.0</ele><time>2026-05-01T12:28:21.36Z</time></trkpt><trkpt lat="45.5983617" lon="11.1002833"><ele>1042.0</ele><time>2026-05-01T12:28:22.359Z</time></trkpt><trkpt lat="45.5982167" lon="11.100235"><ele>1042.0</ele><time>2026-05-01T12:28:23.36Z</time></trkpt><trkpt lat="45.598075" lon="11.100135"><ele>1042.0</ele><time>2026-05-01T12:28:24.36Z</time></trkpt><trkpt lat="45.5979317" lon="11.1000033"><ele>1042.0</ele><time>2026-05-01T12:28:25.36Z</time></trkpt><trkpt lat="45.5977833" lon="11.0998483"><ele>1042.0</ele><time>2026-05-01T12:28:26.36Z</time></trkpt><trkpt lat="45.5976267" lon="11.099705"><ele>1043.0</ele><time>2026-05-01T12:28:27.359Z</time></trkpt><trkpt lat="45.59746" lon="11.099575"><ele>1044.0</ele><time>2026-05-01T12:28:28.36Z</time></trkpt><trkpt lat="45.5972983" lon="11.099445"><ele>1045.0</ele><time>2026-05-01T12:28:29.36Z</time></trkpt><trkpt lat="45.5971383" lon="11.099315"><ele>1038.6666666666665</ele><time>2026-05-01T12:28:30.36Z</time></trkpt><trkpt lat="45.59699" lon="11.0992017"><ele>1032.3333333333333</ele><time>2026-05-01T12:28:31.36Z</time></trkpt><trkpt lat="45.596855" lon="11.0990717"><ele>1026.0</ele><time>2026-05-01T12:28:32.36Z</time></trkpt><trkpt lat="45.5967683" lon="11.098895"><ele>1026.0</ele><time>2026-05-01T12:28:33.36Z</time></trkpt><trkpt lat="45.596725" lon="11.0986783"><ele>1026.0</ele><time>2026-05-01T12:28:34.36Z</time></trkpt><trkpt lat="45.5967333" lon="11.0984517"><ele>1026.0</ele><time>2026-05-01T12:28:35.36Z</time></trkpt><trkpt lat="45.5967583" lon="11.0982083"><ele>1030.0</ele><time>2026-05-01T12:28:36.36Z</time></trkpt><trkpt lat="45.59677" lon="11.0979817"><ele>1034.0</ele><time>2026-05-01T12:28:37.36Z</time></trkpt><trkpt lat="45.5967283" lon="11.0977717"><ele>1038.0</ele><time>2026-05-01T12:28:38.36Z</time></trkpt><trkpt lat="45.5966217" lon="11.097605"><ele>1038.0</ele><time>2026-05-01T12:28:39.36Z</time></trkpt><trkpt lat="45.596495" lon="11.0974833"><ele>1038.0</ele><time>2026-05-01T12:28:40.36Z</time></trkpt><trkpt lat="45.5963517" lon="11.09741"><ele>1038.0</ele><time>2026-05-01T12:28:41.36Z</time></trkpt><trkpt lat="45.5961933" lon="11.0973333"><ele>1036.3333333333333</ele><time>2026-05-01T12:28:42.36Z</time></trkpt><trkpt lat="45.5960283" lon="11.0972583"><ele>1034.6666666666665</ele><time>2026-05-01T12:28:43.36Z</time></trkpt><trkpt lat="45.5958683" lon="11.097175"><ele>1033.0</ele><time>2026-05-01T12:28:44.36Z</time></trkpt><trkpt lat="45.5957183" lon="11.0970783"><ele>1033.0</ele><time>2026-05-01T12:28:45.36Z</time></trkpt><trkpt lat="45.5955917" lon="11.0969217"><ele>1033.0</ele><time>2026-05-01T12:28:46.36Z</time></trkpt><trkpt lat="45.5955017" lon="11.0967233"><ele>1033.0</ele><time>2026-05-01T12:28:47.359Z</time></trkpt><trkpt lat="45.5954417" lon="11.0964833"><ele>1033.0</ele><time>2026-05-01T12:28:48.36Z</time></trkpt><trkpt lat="45.5954183" lon="11.096235"><ele>1033.0</ele><time>2026-05-01T12:28:49.36Z</time></trkpt><trkpt lat="45.5954317" lon="11.09599"><ele>1033.0</ele><time>2026-05-01T12:28:50.359Z</time></trkpt><trkpt lat="45.5954867" lon="11.09574"><ele>1033.0</ele><time>2026-05-01T12:28:51.36Z</time></trkpt><trkpt lat="45.5955733" lon="11.0955033"><ele>1033.0</ele><time>2026-05-01T12:28:52.36Z</time></trkpt><trkpt lat="45.5956733" lon="11.095265"><ele>1033.0</ele><time>2026-05-01T12:28:53.36Z</time></trkpt><trkpt lat="45.59575" lon="11.0950183"><ele>1031.6666666666665</ele><time>2026-05-01T12:28:54.36Z</time></trkpt><trkpt lat="45.5958" lon="11.09476"><ele>1030.3333333333333</ele><time>2026-05-01T12:28:55.36Z</time></trkpt><trkpt lat="45.5957883" lon="11.094485"><ele>1029.0</ele><time>2026-05-01T12:28:56.36Z</time></trkpt><trkpt lat="45.59573" lon="11.0941883"><ele>1030.0</ele><time>2026-05-01T12:28:57.359Z</time></trkpt><trkpt lat="45.5956367" lon="11.09386"><ele>1031.0</ele><time>2026-05-01T12:28:58.36Z</time></trkpt><trkpt lat="45.595515" lon="11.0935133"><ele>1033.5</ele><time>2026-05-01T12:28:59.36Z</time></trkpt><trkpt lat="45.5953833" lon="11.093155"><ele>1036.0</ele><time>2026-05-01T12:29:00.36Z</time></trkpt><trkpt lat="45.5952283" lon="11.092845"><ele>1032.5</ele><time>2026-05-01T12:29:01.36Z</time></trkpt><trkpt lat="45.595065" lon="11.092575"><ele>1029.0</ele><time>2026-05-01T12:29:02.36Z</time></trkpt><trkpt lat="45.5948833" lon="11.0923333"><ele>1029.0</ele><time>2026-05-01T12:29:03.359Z</time></trkpt><trkpt lat="45.5947" lon="11.092135"><ele>1029.0</ele><time>2026-05-01T12:29:04.359Z</time></trkpt><trkpt lat="45.5945167" lon="11.0919467"><ele>1025.5</ele><time>2026-05-01T12:29:05.36Z</time></trkpt><trkpt lat="45.594325" lon="11.091755"><ele>1022.0</ele><time>2026-05-01T12:29:06.36Z</time></trkpt><trkpt lat="45.5941333" lon="11.091565"><ele>1022.0</ele><time>2026-05-01T12:29:07.359Z</time></trkpt><trkpt lat="45.59394" lon="11.09138"><ele>1022.0</ele><time>2026-05-01T12:29:08.36Z</time></trkpt><trkpt lat="45.5937567" lon="11.0912033"><ele>1017.6666666666667</ele><time>2026-05-01T12:29:09.359Z</time></trkpt><trkpt lat="45.5935767" lon="11.0910267"><ele>1013.3333333333333</ele><time>2026-05-01T12:29:10.36Z</time></trkpt><trkpt lat="45.5934083" lon="11.0908217"><ele>1009.0</ele><time>2026-05-01T12:29:11.36Z</time></trkpt><trkpt lat="45.5932517" lon="11.0906017"><ele>1009.0</ele><time>2026-05-01T12:29:12.359Z</time></trkpt><trkpt lat="45.5931167" lon="11.0903467"><ele>1009.0</ele><time>2026-05-01T12:29:13.36Z</time></trkpt><trkpt lat="45.5929967" lon="11.0900633"><ele>1007.6666666666666</ele><time>2026-05-01T12:29:14.36Z</time></trkpt><trkpt lat="45.5928883" lon="11.0897883"><ele>1006.3333333333333</ele><time>2026-05-01T12:29:15.36Z</time></trkpt><trkpt lat="45.5927767" lon="11.0895267"><ele>1005.0</ele><time>2026-05-01T12:29:16.36Z</time></trkpt><trkpt lat="45.5926817" lon="11.0892717"><ele>999.6666666666667</ele><time>2026-05-01T12:29:17.36Z</time></trkpt><trkpt lat="45.5925817" lon="11.0890283"><ele>994.3333333333334</ele><time>2026-05-01T12:29:18.36Z</time></trkpt><trkpt lat="45.5924917" lon="11.088795"><ele>989.0</ele><time>2026-05-01T12:29:19.36Z</time></trkpt><trkpt lat="45.5924167" lon="11.0885933"><ele>989.0</ele><time>2026-05-01T12:29:20.36Z</time></trkpt><trkpt lat="45.5923617" lon="11.0884217"><ele>989.0</ele><time>2026-05-01T12:29:21.36Z</time></trkpt><trkpt lat="45.592345" lon="11.0882483"><ele>989.0</ele><time>2026-05-01T12:29:22.36Z</time></trkpt><trkpt lat="45.59238" lon="11.0880967"><ele>989.0</ele><time>2026-05-01T12:29:23.36Z</time></trkpt><trkpt lat="45.5924483" lon="11.0879783"><ele>988.4000000000001</ele><time>2026-05-01T12:29:24.36Z</time></trkpt><trkpt lat="45.59253" lon="11.0878833"><ele>987.8000000000001</ele><time>2026-05-01T12:29:25.36Z</time></trkpt><trkpt lat="45.59262" lon="11.0878233"><ele>987.1999999999999</ele><time>2026-05-01T12:29:26.36Z</time></trkpt><trkpt lat="45.59271" lon="11.0877633"><ele>986.5999999999999</ele><time>2026-05-01T12:29:27.36Z</time></trkpt><trkpt lat="45.59278" lon="11.0876883"><ele>986.0</ele><time>2026-05-01T12:29:28.36Z</time></trkpt><trkpt lat="45.592835" lon="11.08759"><ele>987.5999999999999</ele><time>2026-05-01T12:29:29.359Z</time></trkpt><trkpt lat="45.5928567" lon="11.0874883"><ele>989.1999999999999</ele><time>2026-05-01T12:29:30.359Z</time></trkpt><trkpt lat="45.5928367" lon="11.0873783"><ele>990.8000000000001</ele><time>2026-05-01T12:29:31.359Z</time></trkpt><trkpt lat="45.59278" lon="11.0872867"><ele>992.4000000000001</ele><time>2026-05-01T12:29:32.359Z</time></trkpt><trkpt lat="45.5926717" lon="11.0872067"><ele>994.0</ele><time>2026-05-01T12:29:33.36Z</time></trkpt><trkpt lat="45.5925067" lon="11.0871167"><ele>994.0</ele><time>2026-05-01T12:29:34.36Z</time></trkpt><trkpt lat="45.59226" lon="11.087005"><ele>994.0</ele><time>2026-05-01T12:29:35.36Z</time></trkpt><trkpt lat="45.591995" lon="11.08685"><ele>991.5</ele><time>2026-05-01T12:29:36.359Z</time></trkpt><trkpt lat="45.5917783" lon="11.0867117"><ele>989.0</ele><time>2026-05-01T12:29:37.36Z</time></trkpt><trkpt lat="45.5915883" lon="11.0865683"><ele>989.0</ele><time>2026-05-01T12:29:38.359Z</time></trkpt><trkpt lat="45.5914133" lon="11.0864217"><ele>989.0</ele><time>2026-05-01T12:29:39.36Z</time></trkpt><trkpt lat="45.5912583" lon="11.0862583"><ele>989.0</ele><time>2026-05-01T12:29:40.36Z</time></trkpt><trkpt lat="45.591115" lon="11.0860667"><ele>984.6666666666667</ele><time>2026-05-01T12:29:41.36Z</time></trkpt><trkpt lat="45.5909817" lon="11.0858733"><ele>980.3333333333333</ele><time>2026-05-01T12:29:42.36Z</time></trkpt><trkpt lat="45.5908517" lon="11.0856867"><ele>976.0</ele><time>2026-05-01T12:29:43.36Z</time></trkpt><trkpt lat="45.59072" lon="11.0855217"><ele>976.0</ele><time>2026-05-01T12:29:44.36Z</time></trkpt><trkpt lat="45.5905917" lon="11.0853633"><ele>976.0</ele><time>2026-05-01T12:29:45.36Z</time></trkpt><trkpt lat="45.5904767" lon="11.0851917"><ele>976.0</ele><time>2026-05-01T12:29:46.36Z</time></trkpt><trkpt lat="45.5903733" lon="11.0850117"><ele>969.0</ele><time>2026-05-01T12:29:47.36Z</time></trkpt><trkpt lat="45.5902917" lon="11.0848383"><ele>962.0</ele><time>2026-05-01T12:29:48.36Z</time></trkpt><trkpt lat="45.59022" lon="11.0846717"><ele>955.0</ele><time>2026-05-01T12:29:49.36Z</time></trkpt><trkpt lat="45.5901633" lon="11.0845217"><ele>948.0</ele><time>2026-05-01T12:29:50.36Z</time></trkpt><trkpt lat="45.59012" lon="11.08437"><ele>948.0</ele><time>2026-05-01T12:29:51.36Z</time></trkpt><trkpt lat="45.5900833" lon="11.084225"><ele>948.0</ele><time>2026-05-01T12:29:52.36Z</time></trkpt><trkpt lat="45.5900517" lon="11.08408"><ele>948.0</ele><time>2026-05-01T12:29:53.36Z</time></trkpt><trkpt lat="45.590035" lon="11.083925"><ele>948.0</ele><time>2026-05-01T12:29:54.36Z</time></trkpt><trkpt lat="45.590025" lon="11.08377"><ele>948.0</ele><time>2026-05-01T12:29:55.36Z</time></trkpt><trkpt lat="45.590015" lon="11.0836233"><ele>947.1666666666666</ele><time>2026-05-01T12:29:56.359Z</time></trkpt><trkpt lat="45.590015" lon="11.0835017"><ele>946.3333333333333</ele><time>2026-05-01T12:29:57.36Z</time></trkpt><trkpt lat="45.5900167" lon="11.0833883"><ele>945.5</ele><time>2026-05-01T12:29:58.36Z</time></trkpt><trkpt lat="45.5900317" lon="11.0832717"><ele>944.6666666666666</ele><time>2026-05-01T12:29:59.36Z</time></trkpt><trkpt lat="45.5900567" lon="11.083175"><ele>943.8333333333333</ele><time>2026-05-01T12:30:00.36Z</time></trkpt><trkpt lat="45.590095" lon="11.0830783"><ele>943.0</ele><time>2026-05-01T12:30:01.36Z</time></trkpt><trkpt lat="45.59015" lon="11.0829967"><ele>941.1666666666666</ele><time>2026-05-01T12:30:02.36Z</time></trkpt><trkpt lat="45.590195" lon="11.0829183"><ele>939.3333333333333</ele><time>2026-05-01T12:30:03.36Z</time></trkpt><trkpt lat="45.5902333" lon="11.0828367"><ele>937.5</ele><time>2026-05-01T12:30:04.36Z</time></trkpt><trkpt lat="45.5902467" lon="11.082715"><ele>935.6666666666667</ele><time>2026-05-01T12:30:06.359Z</time></trkpt><trkpt lat="45.5901583" lon="11.0826883"><ele>933.8333333333334</ele><time>2026-05-01T12:30:08.36Z</time></trkpt><trkpt lat="45.5900983" lon="11.0827533"><ele>932.0</ele><time>2026-05-01T12:30:09.36Z</time></trkpt><trkpt lat="45.5900367" lon="11.082875"><ele>932.0</ele><time>2026-05-01T12:30:10.36Z</time></trkpt><trkpt lat="45.5899533" lon="11.0830767"><ele>932.0</ele><time>2026-05-01T12:30:11.36Z</time></trkpt><trkpt lat="45.5898633" lon="11.08335"><ele>932.0</ele><time>2026-05-01T12:30:12.36Z</time></trkpt><trkpt lat="45.5897617" lon="11.08366"><ele>935.6666666666667</ele><time>2026-05-01T12:30:13.36Z</time></trkpt><trkpt lat="45.5896983" lon="11.0839633"><ele>939.3333333333333</ele><time>2026-05-01T12:30:14.36Z</time></trkpt><trkpt lat="45.58969" lon="11.084255"><ele>943.0</ele><time>2026-05-01T12:30:15.36Z</time></trkpt><trkpt lat="45.5897233" lon="11.0845283"><ele>942.5</ele><time>2026-05-01T12:30:16.36Z</time></trkpt><trkpt lat="45.5897417" lon="11.084745"><ele>942.0</ele><time>2026-05-01T12:30:17.36Z</time></trkpt><trkpt lat="45.5897633" lon="11.08493"><ele>941.5</ele><time>2026-05-01T12:30:18.36Z</time></trkpt><trkpt lat="45.5897683" lon="11.0850767"><ele>941.0</ele><time>2026-05-01T12:30:19.36Z</time></trkpt><trkpt lat="45.5897133" lon="11.0851833"><ele>941.0</ele><time>2026-05-01T12:30:20.359Z</time></trkpt><trkpt lat="45.589645" lon="11.08523"><ele>940.9999999999999</ele><time>2026-05-01T12:30:21.36Z</time></trkpt><trkpt lat="45.5895717" lon="11.08523"><ele>940.9999999999999</ele><time>2026-05-01T12:30:22.36Z</time></trkpt><trkpt lat="45.5895083" lon="11.085175"><ele>941.0</ele><time>2026-05-01T12:30:23.36Z</time></trkpt><trkpt lat="45.58945" lon="11.085045"><ele>941.0</ele><time>2026-05-01T12:30:24.36Z</time></trkpt><trkpt lat="45.5894133" lon="11.08485"><ele>932.3333333333334</ele><time>2026-05-01T12:30:25.36Z</time></trkpt><trkpt lat="45.5894067" lon="11.08462"><ele>923.6666666666667</ele><time>2026-05-01T12:30:26.36Z</time></trkpt><trkpt lat="45.5894233" lon="11.08435"><ele>915.0</ele><time>2026-05-01T12:30:27.36Z</time></trkpt><trkpt lat="45.5894417" lon="11.0840817"><ele>912.6666666666667</ele><time>2026-05-01T12:30:28.36Z</time></trkpt><trkpt lat="45.589455" lon="11.0838033"><ele>910.3333333333334</ele><time>2026-05-01T12:30:29.36Z</time></trkpt><trkpt lat="45.589465" lon="11.0835217"><ele>908.0</ele><time>2026-05-01T12:30:30.359Z</time></trkpt><trkpt lat="45.5894733" lon="11.08325"><ele>904.6666666666667</ele><time>2026-05-01T12:30:31.36Z</time></trkpt><trkpt lat="45.589495" lon="11.0829967"><ele>901.3333333333333</ele><time>2026-05-01T12:30:32.36Z</time></trkpt><trkpt lat="45.5895433" lon="11.082755"><ele>898.0</ele><time>2026-05-01T12:30:33.36Z</time></trkpt><trkpt lat="45.5895983" lon="11.0825083"><ele>908.3333333333333</ele><time>2026-05-01T12:30:34.36Z</time></trkpt><trkpt lat="45.5896467" lon="11.0822517"><ele>918.6666666666667</ele><time>2026-05-01T12:30:35.36Z</time></trkpt><trkpt lat="45.5896583" lon="11.0819917"><ele>929.0</ele><time>2026-05-01T12:30:36.36Z</time></trkpt><trkpt lat="45.5896217" lon="11.0817133"><ele>931.6666666666667</ele><time>2026-05-01T12:30:37.36Z</time></trkpt><trkpt lat="45.5895433" lon="11.08143"><ele>934.3333333333333</ele><time>2026-05-01T12:30:38.36Z</time></trkpt><trkpt lat="45.5894517" lon="11.0811667"><ele>937.0</ele><time>2026-05-01T12:30:39.36Z</time></trkpt><trkpt lat="45.5893683" lon="11.0809167"><ele>922.6666666666666</ele><time>2026-05-01T12:30:40.36Z</time></trkpt><trkpt lat="45.5893017" lon="11.0806567"><ele>908.3333333333333</ele><time>2026-05-01T12:30:41.36Z</time></trkpt><trkpt lat="45.5892517" lon="11.0803983"><ele>894.0</ele><time>2026-05-01T12:30:42.36Z</time></trkpt><trkpt lat="45.589245" lon="11.080115"><ele>889.6666666666667</ele><time>2026-05-01T12:30:43.36Z</time></trkpt><trkpt lat="45.5892683" lon="11.07985"><ele>885.3333333333334</ele><time>2026-05-01T12:30:44.36Z</time></trkpt><trkpt lat="45.5893217" lon="11.0795867"><ele>881.0</ele><time>2026-05-01T12:30:45.359Z</time></trkpt><trkpt lat="45.589405" lon="11.07931"><ele>878.6666666666667</ele><time>2026-05-01T12:30:46.36Z</time></trkpt><trkpt lat="45.5894917" lon="11.0790483"><ele>876.3333333333333</ele><time>2026-05-01T12:30:47.359Z</time></trkpt><trkpt lat="45.5895617" lon="11.0787983"><ele>874.0</ele><time>2026-05-01T12:30:48.36Z</time></trkpt><trkpt lat="45.589615" lon="11.0785433"><ele>886.3333333333333</ele><time>2026-05-01T12:30:49.36Z</time></trkpt><trkpt lat="45.5896283" lon="11.0783"><ele>898.6666666666667</ele><time>2026-05-01T12:30:50.36Z</time></trkpt><trkpt lat="45.5896033" lon="11.07804"><ele>911.0</ele><time>2026-05-01T12:30:51.36Z</time></trkpt><trkpt lat="45.5895383" lon="11.0777867"><ele>899.0</ele><time>2026-05-01T12:30:52.36Z</time></trkpt><trkpt lat="45.5894783" lon="11.07753"><ele>887.0</ele><time>2026-05-01T12:30:53.359Z</time></trkpt><trkpt lat="45.5894667" lon="11.0772733"><ele>875.0</ele><time>2026-05-01T12:30:54.36Z</time></trkpt><trkpt lat="45.5894833" lon="11.077035"><ele>877.0</ele><time>2026-05-01T12:30:55.36Z</time></trkpt><trkpt lat="45.589545" lon="11.076795"><ele>879.0</ele><time>2026-05-01T12:30:56.36Z</time></trkpt><trkpt lat="45.5896183" lon="11.0765517"><ele>881.0</ele><time>2026-05-01T12:30:57.36Z</time></trkpt><trkpt lat="45.5897067" lon="11.0763233"><ele>881.0</ele><time>2026-05-01T12:30:58.36Z</time></trkpt><trkpt lat="45.5897933" lon="11.0760933"><ele>881.0</ele><time>2026-05-01T12:30:59.36Z</time></trkpt><trkpt lat="45.58987" lon="11.0758733"><ele>881.0</ele><time>2026-05-01T12:31:00.36Z</time></trkpt><trkpt lat="45.5899367" lon="11.075645"><ele>876.6666666666667</ele><time>2026-05-01T12:31:01.36Z</time></trkpt><trkpt lat="45.5900083" lon="11.0754283"><ele>872.3333333333333</ele><time>2026-05-01T12:31:02.36Z</time></trkpt><trkpt lat="45.5900867" lon="11.07522"><ele>868.0</ele><time>2026-05-01T12:31:03.36Z</time></trkpt><trkpt lat="45.5901617" lon="11.0750083"><ele>862.3333333333333</ele><time>2026-05-01T12:31:04.359Z</time></trkpt><trkpt lat="45.5902433" lon="11.0748083"><ele>856.6666666666667</ele><time>2026-05-01T12:31:05.36Z</time></trkpt><trkpt lat="45.5903167" lon="11.07459"><ele>851.0</ele><time>2026-05-01T12:31:06.36Z</time></trkpt><trkpt lat="45.590395" lon="11.0743717"><ele>860.3333333333334</ele><time>2026-05-01T12:31:07.36Z</time></trkpt><trkpt lat="45.590455" lon="11.0741467"><ele>869.6666666666667</ele><time>2026-05-01T12:31:08.36Z</time></trkpt><trkpt lat="45.5905133" lon="11.0739117"><ele>879.0</ele><time>2026-05-01T12:31:09.36Z</time></trkpt><trkpt lat="45.590565" lon="11.0736833"><ele>879.0</ele><time>2026-05-01T12:31:10.36Z</time></trkpt><trkpt lat="45.5906167" lon="11.073465"><ele>879.0</ele><time>2026-05-01T12:31:11.359Z</time></trkpt><trkpt lat="45.59067" lon="11.07325"><ele>879.0</ele><time>2026-05-01T12:31:12.359Z</time></trkpt><trkpt lat="45.5907267" lon="11.0730633"><ele>875.5</ele><time>2026-05-01T12:31:13.358Z</time></trkpt><trkpt lat="45.59078" lon="11.0728683"><ele>872.0</ele><time>2026-05-01T12:31:14.358Z</time></trkpt><trkpt lat="45.5908317" lon="11.0726767"><ele>868.5</ele><time>2026-05-01T12:31:15.359Z</time></trkpt><trkpt lat="45.5908733" lon="11.07247"><ele>865.0</ele><time>2026-05-01T12:31:16.358Z</time></trkpt><trkpt lat="45.5909417" lon="11.0722783"><ele>861.25</ele><time>2026-05-01T12:31:17.359Z</time></trkpt><trkpt lat="45.5910117" lon="11.0720967"><ele>857.5</ele><time>2026-05-01T12:31:18.359Z</time></trkpt><trkpt lat="45.59108" lon="11.0719417"><ele>853.75</ele><time>2026-05-01T12:31:19.359Z</time></trkpt><trkpt lat="45.5911433" lon="11.0718133"><ele>850.0</ele><time>2026-05-01T12:31:20.359Z</time></trkpt><trkpt lat="45.59116" lon="11.0716817"><ele>850.0</ele><time>2026-05-01T12:31:21.359Z</time></trkpt><trkpt lat="45.5911333" lon="11.0715917"><ele>850.0</ele><time>2026-05-01T12:31:22.359Z</time></trkpt><trkpt lat="45.5910367" lon="11.0716067"><ele>850.0</ele><time>2026-05-01T12:31:24.359Z</time></trkpt><trkpt lat="45.590985" lon="11.0717033"><ele>850.0</ele><time>2026-05-01T12:31:25.359Z</time></trkpt><trkpt lat="45.5909317" lon="11.0718667"><ele>850.0</ele><time>2026-05-01T12:31:26.359Z</time></trkpt><trkpt lat="45.590895" lon="11.072035"><ele>850.0</ele><time>2026-05-01T12:31:27.359Z</time></trkpt><trkpt lat="45.5908283" lon="11.0722467"><ele>850.0</ele><time>2026-05-01T12:31:28.359Z</time></trkpt><trkpt lat="45.5907517" lon="11.0724467"><ele>850.0</ele><time>2026-05-01T12:31:29.358Z</time></trkpt><trkpt lat="45.59068" lon="11.0726483"><ele>855.0</ele><time>2026-05-01T12:31:30.359Z</time></trkpt><trkpt lat="45.590585" lon="11.0728583"><ele>860.0</ele><time>2026-05-01T12:31:31.359Z</time></trkpt><trkpt lat="45.59048" lon="11.07307"><ele>865.0</ele><time>2026-05-01T12:31:32.358Z</time></trkpt><trkpt lat="45.590365" lon="11.07328"><ele>856.6666666666666</ele><time>2026-05-01T12:31:33.359Z</time></trkpt><trkpt lat="45.5902183" lon="11.0735183"><ele>848.3333333333333</ele><time>2026-05-01T12:31:34.359Z</time></trkpt><trkpt lat="45.59009" lon="11.0737617"><ele>840.0</ele><time>2026-05-01T12:31:35.359Z</time></trkpt><trkpt lat="45.5899717" lon="11.0740017"><ele>843.6666666666667</ele><time>2026-05-01T12:31:36.359Z</time></trkpt><trkpt lat="45.5898583" lon="11.0742367"><ele>847.3333333333334</ele><time>2026-05-01T12:31:37.359Z</time></trkpt><trkpt lat="45.5897533" lon="11.0744517"><ele>851.0</ele><time>2026-05-01T12:31:38.359Z</time></trkpt><trkpt lat="45.5896433" lon="11.0746517"><ele>851.0</ele><time>2026-05-01T12:31:39.359Z</time></trkpt><trkpt lat="45.589545" lon="11.0748383"><ele>851.0</ele><time>2026-05-01T12:31:40.359Z</time></trkpt><trkpt lat="45.5894467" lon="11.075"><ele>851.0</ele><time>2026-05-01T12:31:41.359Z</time></trkpt><trkpt lat="45.5893417" lon="11.07512"><ele>851.0</ele><time>2026-05-01T12:31:42.359Z</time></trkpt><trkpt lat="45.589245" lon="11.0751767"><ele>848.5</ele><time>2026-05-01T12:31:43.359Z</time></trkpt><trkpt lat="45.5891167" lon="11.0751417"><ele>846.0</ele><time>2026-05-01T12:31:44.359Z</time></trkpt><trkpt lat="45.58901" lon="11.0750233"><ele>843.5</ele><time>2026-05-01T12:31:45.358Z</time></trkpt><trkpt lat="45.5889633" lon="11.07486"><ele>841.0</ele><time>2026-05-01T12:31:46.359Z</time></trkpt><trkpt lat="45.5890017" lon="11.0746783"><ele>839.6666666666666</ele><time>2026-05-01T12:31:47.359Z</time></trkpt><trkpt lat="45.5890833" lon="11.0744967"><ele>838.3333333333333</ele><time>2026-05-01T12:31:48.359Z</time></trkpt><trkpt lat="45.5891817" lon="11.074295"><ele>837.0</ele><time>2026-05-01T12:31:49.359Z</time></trkpt><trkpt lat="45.589295" lon="11.0740483"><ele>836.3333333333333</ele><time>2026-05-01T12:31:50.358Z</time></trkpt><trkpt lat="45.5894067" lon="11.0737767"><ele>835.6666666666666</ele><time>2026-05-01T12:31:51.359Z</time></trkpt><trkpt lat="45.5895083" lon="11.073495"><ele>835.0</ele><time>2026-05-01T12:31:52.359Z</time></trkpt><trkpt lat="45.5896017" lon="11.07322"><ele>833.3333333333333</ele><time>2026-05-01T12:31:53.358Z</time></trkpt><trkpt lat="45.589685" lon="11.07295"><ele>831.6666666666667</ele><time>2026-05-01T12:31:54.359Z</time></trkpt><trkpt lat="45.5897567" lon="11.07268"><ele>830.0</ele><time>2026-05-01T12:31:55.359Z</time></trkpt><trkpt lat="45.5898183" lon="11.0724067"><ele>826.6666666666667</ele><time>2026-05-01T12:31:56.359Z</time></trkpt><trkpt lat="45.5898733" lon="11.072145"><ele>823.3333333333333</ele><time>2026-05-01T12:31:57.359Z</time></trkpt><trkpt lat="45.5899133" lon="11.0718633"><ele>820.0</ele><time>2026-05-01T12:31:58.359Z</time></trkpt><trkpt lat="45.58995" lon="11.0715733"><ele>818.3333333333333</ele><time>2026-05-01T12:31:59.359Z</time></trkpt><trkpt lat="45.5899967" lon="11.0712833"><ele>816.6666666666667</ele><time>2026-05-01T12:32:00.359Z</time></trkpt><trkpt lat="45.5900367" lon="11.0709983"><ele>815.0</ele><time>2026-05-01T12:32:01.359Z</time></trkpt><trkpt lat="45.5900767" lon="11.070715"><ele>813.6666666666667</ele><time>2026-05-01T12:32:02.359Z</time></trkpt><trkpt lat="45.5901317" lon="11.0704367"><ele>812.3333333333333</ele><time>2026-05-01T12:32:03.359Z</time></trkpt><trkpt lat="45.5901717" lon="11.0701917"><ele>811.0</ele><time>2026-05-01T12:32:04.359Z</time></trkpt><trkpt lat="45.5902167" lon="11.06993"><ele>809.6666666666666</ele><time>2026-05-01T12:32:05.359Z</time></trkpt><trkpt lat="45.590265" lon="11.0696833"><ele>808.3333333333333</ele><time>2026-05-01T12:32:06.358Z</time></trkpt><trkpt lat="45.590305" lon="11.0694617"><ele>807.0</ele><time>2026-05-01T12:32:07.359Z</time></trkpt><trkpt lat="45.59032" lon="11.0692317"><ele>805.3333333333333</ele><time>2026-05-01T12:32:08.359Z</time></trkpt><trkpt lat="45.5903117" lon="11.0689883"><ele>803.6666666666666</ele><time>2026-05-01T12:32:09.358Z</time></trkpt><trkpt lat="45.59027" lon="11.06875"><ele>802.0</ele><time>2026-05-01T12:32:10.359Z</time></trkpt><trkpt lat="45.5902183" lon="11.06851"><ele>802.0</ele><time>2026-05-01T12:32:11.359Z</time></trkpt><trkpt lat="45.5901533" lon="11.0682817"><ele>802.0</ele><time>2026-05-01T12:32:12.359Z</time></trkpt><trkpt lat="45.59009" lon="11.0680817"><ele>802.0</ele><time>2026-05-01T12:32:13.358Z</time></trkpt><trkpt lat="45.5899983" lon="11.067915"><ele>800.75</ele><time>2026-05-01T12:32:14.359Z</time></trkpt><trkpt lat="45.5898867" lon="11.0677917"><ele>799.5</ele><time>2026-05-01T12:32:15.359Z</time></trkpt><trkpt lat="45.5897533" lon="11.06769"><ele>798.25</ele><time>2026-05-01T12:32:16.359Z</time></trkpt><trkpt lat="45.58961" lon="11.0676183"><ele>797.0</ele><time>2026-05-01T12:32:17.359Z</time></trkpt><trkpt lat="45.589475" lon="11.0675717"><ele>797.0</ele><time>2026-05-01T12:32:18.359Z</time></trkpt><trkpt lat="45.58934" lon="11.0675417"><ele>797.0</ele><time>2026-05-01T12:32:19.359Z</time></trkpt><trkpt lat="45.5892033" lon="11.0675017"><ele>797.0</ele><time>2026-05-01T12:32:20.359Z</time></trkpt><trkpt lat="45.5890583" lon="11.06745"><ele>797.0</ele><time>2026-05-01T12:32:21.359Z</time></trkpt><trkpt lat="45.588915" lon="11.06741"><ele>796.75</ele><time>2026-05-01T12:32:22.359Z</time></trkpt><trkpt lat="45.5887817" lon="11.0673717"><ele>796.5</ele><time>2026-05-01T12:32:23.359Z</time></trkpt><trkpt lat="45.5886483" lon="11.0673217"><ele>796.25</ele><time>2026-05-01T12:32:24.359Z</time></trkpt><trkpt lat="45.5885183" lon="11.0672917"><ele>796.0</ele><time>2026-05-01T12:32:25.359Z</time></trkpt><trkpt lat="45.5883867" lon="11.06725"><ele>795.75</ele><time>2026-05-01T12:32:26.359Z</time></trkpt><trkpt lat="45.5882517" lon="11.0672133"><ele>795.5</ele><time>2026-05-01T12:32:27.359Z</time></trkpt><trkpt lat="45.5881317" lon="11.06717"><ele>795.25</ele><time>2026-05-01T12:32:28.359Z</time></trkpt><trkpt lat="45.5880117" lon="11.0671067"><ele>795.0</ele><time>2026-05-01T12:32:29.358Z</time></trkpt><trkpt lat="45.5879067" lon="11.06702"><ele>796.0</ele><time>2026-05-01T12:32:30.359Z</time></trkpt><trkpt lat="45.5878283" lon="11.0668817"><ele>797.0</ele><time>2026-05-01T12:32:31.359Z</time></trkpt><trkpt lat="45.58777" lon="11.0667033"><ele>798.0</ele><time>2026-05-01T12:32:32.359Z</time></trkpt><trkpt lat="45.5877383" lon="11.0664883"><ele>799.0</ele><time>2026-05-01T12:32:33.358Z</time></trkpt><trkpt lat="45.5876883" lon="11.0662833"><ele>795.6666666666666</ele><time>2026-05-01T12:32:34.359Z</time></trkpt><trkpt lat="45.587605" lon="11.0661"><ele>792.3333333333333</ele><time>2026-05-01T12:32:35.359Z</time></trkpt><trkpt lat="45.587485" lon="11.0659367"><ele>789.0</ele><time>2026-05-01T12:32:36.359Z</time></trkpt><trkpt lat="45.5873333" lon="11.0658083"><ele>783.6666666666667</ele><time>2026-05-01T12:32:37.358Z</time></trkpt><trkpt lat="45.5871583" lon="11.0657333"><ele>778.3333333333334</ele><time>2026-05-01T12:32:38.359Z</time></trkpt><trkpt lat="45.58697" lon="11.0656667"><ele>773.0</ele><time>2026-05-01T12:32:39.359Z</time></trkpt><trkpt lat="45.586795" lon="11.06559"><ele>773.0</ele><time>2026-05-01T12:32:40.359Z</time></trkpt><trkpt lat="45.58662" lon="11.0655067"><ele>773.0</ele><time>2026-05-01T12:32:41.359Z</time></trkpt><trkpt lat="45.5864533" lon="11.0654183"><ele>773.0</ele><time>2026-05-01T12:32:42.359Z</time></trkpt><trkpt lat="45.5862917" lon="11.065335"><ele>776.3333333333334</ele><time>2026-05-01T12:32:43.358Z</time></trkpt><trkpt lat="45.5861417" lon="11.065265"><ele>779.6666666666667</ele><time>2026-05-01T12:32:44.358Z</time></trkpt><trkpt lat="45.5859967" lon="11.0651967"><ele>783.0</ele><time>2026-05-01T12:32:45.359Z</time></trkpt><trkpt lat="45.5858433" lon="11.06515"><ele>783.0</ele><time>2026-05-01T12:32:46.359Z</time></trkpt><trkpt lat="45.5856817" lon="11.06518"><ele>783.0</ele><time>2026-05-01T12:32:47.359Z</time></trkpt><trkpt lat="45.5855233" lon="11.06524"><ele>783.0</ele><time>2026-05-01T12:32:48.359Z</time></trkpt><trkpt lat="45.585355" lon="11.0653183"><ele>781.3333333333333</ele><time>2026-05-01T12:32:49.359Z</time></trkpt><trkpt lat="45.5851933" lon="11.0653883"><ele>779.6666666666666</ele><time>2026-05-01T12:32:50.359Z</time></trkpt><trkpt lat="45.58505" lon="11.0654467"><ele>778.0</ele><time>2026-05-01T12:32:51.358Z</time></trkpt><trkpt lat="45.584915" lon="11.0654667"><ele>778.0</ele><time>2026-05-01T12:32:52.359Z</time></trkpt><trkpt lat="45.5847833" lon="11.0654283"><ele>778.0</ele><time>2026-05-01T12:32:53.359Z</time></trkpt><trkpt lat="45.584665" lon="11.0653217"><ele>778.0</ele><time>2026-05-01T12:32:54.359Z</time></trkpt><trkpt lat="45.5845533" lon="11.0651617"><ele>778.0</ele><time>2026-05-01T12:32:55.359Z</time></trkpt><trkpt lat="45.5844717" lon="11.06497"><ele>774.0</ele><time>2026-05-01T12:32:56.359Z</time></trkpt><trkpt lat="45.5843883" lon="11.06475"><ele>770.0</ele><time>2026-05-01T12:32:57.359Z</time></trkpt><trkpt lat="45.5842783" lon="11.0645483"><ele>766.0</ele><time>2026-05-01T12:32:58.359Z</time></trkpt><trkpt lat="45.5841617" lon="11.064365"><ele>766.0</ele><time>2026-05-01T12:32:59.359Z</time></trkpt><trkpt lat="45.5840467" lon="11.0641983"><ele>766.0</ele><time>2026-05-01T12:33:00.359Z</time></trkpt><trkpt lat="45.5839283" lon="11.06403"><ele>766.0</ele><time>2026-05-01T12:33:01.359Z</time></trkpt><trkpt lat="45.5838183" lon="11.0638717"><ele>766.6666666666667</ele><time>2026-05-01T12:33:02.358Z</time></trkpt><trkpt lat="45.5837167" lon="11.063705"><ele>767.3333333333334</ele><time>2026-05-01T12:33:03.359Z</time></trkpt><trkpt lat="45.5836133" lon="11.0635367"><ele>768.0</ele><time>2026-05-01T12:33:04.359Z</time></trkpt><trkpt lat="45.5835183" lon="11.0633517"><ele>763.0</ele><time>2026-05-01T12:33:05.358Z</time></trkpt><trkpt lat="45.5834233" lon="11.06316"><ele>758.0</ele><time>2026-05-01T12:33:06.359Z</time></trkpt><trkpt lat="45.58333" lon="11.062955"><ele>753.0</ele><time>2026-05-01T12:33:07.359Z</time></trkpt><trkpt lat="45.5832417" lon="11.0627383"><ele>753.0</ele><time>2026-05-01T12:33:08.359Z</time></trkpt><trkpt lat="45.58316" lon="11.06251"><ele>753.0</ele><time>2026-05-01T12:33:09.359Z</time></trkpt><trkpt lat="45.583075" lon="11.0622867"><ele>753.0</ele><time>2026-05-01T12:33:10.359Z</time></trkpt><trkpt lat="45.5829983" lon="11.0620783"><ele>753.6666666666666</ele><time>2026-05-01T12:33:11.359Z</time></trkpt><trkpt lat="45.582925" lon="11.0618717"><ele>754.3333333333333</ele><time>2026-05-01T12:33:12.359Z</time></trkpt><trkpt lat="45.582855" lon="11.06165"><ele>755.0</ele><time>2026-05-01T12:33:13.359Z</time></trkpt><trkpt lat="45.5828267" lon="11.0614167"><ele>751.0</ele><time>2026-05-01T12:33:14.358Z</time></trkpt><trkpt lat="45.58284" lon="11.0611733"><ele>747.0</ele><time>2026-05-01T12:33:15.359Z</time></trkpt><trkpt lat="45.5829" lon="11.0609533"><ele>743.0</ele><time>2026-05-01T12:33:16.359Z</time></trkpt><trkpt lat="45.5830117" lon="11.0607483"><ele>736.3333333333333</ele><time>2026-05-01T12:33:17.359Z</time></trkpt><trkpt lat="45.5831517" lon="11.0605783"><ele>729.6666666666666</ele><time>2026-05-01T12:33:18.358Z</time></trkpt><trkpt lat="45.583315" lon="11.0604733"><ele>723.0</ele><time>2026-05-01T12:33:19.359Z</time></trkpt><trkpt lat="45.58349" lon="11.0604133"><ele>723.0</ele><time>2026-05-01T12:33:20.359Z</time></trkpt><trkpt lat="45.5836617" lon="11.0603567"><ele>723.0</ele><time>2026-05-01T12:33:21.359Z</time></trkpt><trkpt lat="45.5838233" lon="11.0603017"><ele>723.0</ele><time>2026-05-01T12:33:22.359Z</time></trkpt><trkpt lat="45.583985" lon="11.0602467"><ele>724.0</ele><time>2026-05-01T12:33:23.359Z</time></trkpt><trkpt lat="45.5841417" lon="11.0601967"><ele>725.0</ele><time>2026-05-01T12:33:24.358Z</time></trkpt><trkpt lat="45.5842983" lon="11.0601483"><ele>726.0</ele><time>2026-05-01T12:33:25.358Z</time></trkpt><trkpt lat="45.5844483" lon="11.0601183"><ele>724.3333333333334</ele><time>2026-05-01T12:33:26.359Z</time></trkpt><trkpt lat="45.5846083" lon="11.0601317"><ele>722.6666666666667</ele><time>2026-05-01T12:33:27.358Z</time></trkpt><trkpt lat="45.5847783" lon="11.0601583"><ele>721.0</ele><time>2026-05-01T12:33:28.358Z</time></trkpt><trkpt lat="45.5849567" lon="11.060185"><ele>721.0</ele><time>2026-05-01T12:33:29.359Z</time></trkpt><trkpt lat="45.5851267" lon="11.0602083"><ele>721.0</ele><time>2026-05-01T12:33:30.359Z</time></trkpt><trkpt lat="45.585285" lon="11.0602533"><ele>721.0</ele><time>2026-05-01T12:33:31.359Z</time></trkpt><trkpt lat="45.5854267" lon="11.0603467"><ele>719.75</ele><time>2026-05-01T12:33:32.359Z</time></trkpt><trkpt lat="45.585545" lon="11.060495"><ele>718.5</ele><time>2026-05-01T12:33:33.359Z</time></trkpt><trkpt lat="45.5856383" lon="11.06065"><ele>717.25</ele><time>2026-05-01T12:33:34.359Z</time></trkpt><trkpt lat="45.5857183" lon="11.0607933"><ele>716.0</ele><time>2026-05-01T12:33:35.359Z</time></trkpt><trkpt lat="45.585795" lon="11.060885"><ele>716.0</ele><time>2026-05-01T12:33:36.359Z</time></trkpt><trkpt lat="45.5858833" lon="11.06089"><ele>716.0</ele><time>2026-05-01T12:33:37.359Z</time></trkpt><trkpt lat="45.5859383" lon="11.0608317"><ele>716.0</ele><time>2026-05-01T12:33:38.359Z</time></trkpt><trkpt lat="45.5859617" lon="11.0607217"><ele>716.0</ele><time>2026-05-01T12:33:39.359Z</time></trkpt><trkpt lat="45.5859417" lon="11.0606017"><ele>716.0</ele><time>2026-05-01T12:33:40.359Z</time></trkpt><trkpt lat="45.5858917" lon="11.0604683"><ele>716.0</ele><time>2026-05-01T12:33:41.359Z</time></trkpt><trkpt lat="45.58584" lon="11.0603167"><ele>716.0</ele><time>2026-05-01T12:33:42.359Z</time></trkpt><trkpt lat="45.5857867" lon="11.0601383"><ele>716.0</ele><time>2026-05-01T12:33:43.359Z</time></trkpt><trkpt lat="45.5857383" lon="11.0598867"><ele>716.0</ele><time>2026-05-01T12:33:44.358Z</time></trkpt><trkpt lat="45.5857317" lon="11.059615"><ele>715.0</ele><time>2026-05-01T12:33:45.359Z</time></trkpt><trkpt lat="45.5857517" lon="11.059305"><ele>714.0</ele><time>2026-05-01T12:33:46.359Z</time></trkpt><trkpt lat="45.5857717" lon="11.0590067"><ele>713.0</ele><time>2026-05-01T12:33:47.358Z</time></trkpt><trkpt lat="45.58579" lon="11.0587283"><ele>711.6666666666666</ele><time>2026-05-01T12:33:48.359Z</time></trkpt><trkpt lat="45.5858083" lon="11.0584567"><ele>710.3333333333334</ele><time>2026-05-01T12:33:49.358Z</time></trkpt><trkpt lat="45.5858233" lon="11.0582"><ele>709.0</ele><time>2026-05-01T12:33:50.359Z</time></trkpt><trkpt lat="45.58584" lon="11.057965"><ele>707.6666666666667</ele><time>2026-05-01T12:33:51.359Z</time></trkpt><trkpt lat="45.5858767" lon="11.0577283"><ele>706.3333333333334</ele><time>2026-05-01T12:33:52.359Z</time></trkpt><trkpt lat="45.5859433" lon="11.0575133"><ele>705.0</ele><time>2026-05-01T12:33:53.358Z</time></trkpt><trkpt lat="45.5860417" lon="11.0573067"><ele>702.6666666666666</ele><time>2026-05-01T12:33:54.358Z</time></trkpt><trkpt lat="45.58619" lon="11.0571117"><ele>700.3333333333333</ele><time>2026-05-01T12:33:55.359Z</time></trkpt><trkpt lat="45.5863567" lon="11.0569433"><ele>698.0</ele><time>2026-05-01T12:33:56.359Z</time></trkpt><trkpt lat="45.5865267" lon="11.056775"><ele>690.6666666666666</ele><time>2026-05-01T12:33:57.359Z</time></trkpt><trkpt lat="45.586685" lon="11.0565883"><ele>683.3333333333334</ele><time>2026-05-01T12:33:58.359Z</time></trkpt><trkpt lat="45.58684" lon="11.0563867"><ele>676.0</ele><time>2026-05-01T12:33:59.359Z</time></trkpt><trkpt lat="45.5869533" lon="11.056155"><ele>677.6666666666667</ele><time>2026-05-01T12:34:00.358Z</time></trkpt><trkpt lat="45.5870583" lon="11.0559083"><ele>679.3333333333334</ele><time>2026-05-01T12:34:01.358Z</time></trkpt><trkpt lat="45.5871633" lon="11.05565"><ele>681.0</ele><time>2026-05-01T12:34:02.359Z</time></trkpt><trkpt lat="45.5872683" lon="11.0553933"><ele>681.0</ele><time>2026-05-01T12:34:03.359Z</time></trkpt><trkpt lat="45.58737" lon="11.05515"><ele>681.0</ele><time>2026-05-01T12:34:04.359Z</time></trkpt><trkpt lat="45.587465" lon="11.0549167"><ele>681.0</ele><time>2026-05-01T12:34:05.359Z</time></trkpt><trkpt lat="45.5875583" lon="11.0546917"><ele>677.0</ele><time>2026-05-01T12:34:06.359Z</time></trkpt><trkpt lat="45.58765" lon="11.0544717"><ele>673.0</ele><time>2026-05-01T12:34:07.359Z</time></trkpt><trkpt lat="45.5877233" lon="11.0542683"><ele>669.0</ele><time>2026-05-01T12:34:08.359Z</time></trkpt><trkpt lat="45.587765" lon="11.054045"><ele>664.6666666666666</ele><time>2026-05-01T12:34:09.359Z</time></trkpt><trkpt lat="45.58778" lon="11.0538233"><ele>660.3333333333333</ele><time>2026-05-01T12:34:10.359Z</time></trkpt><trkpt lat="45.587785" lon="11.0535933"><ele>656.0</ele><time>2026-05-01T12:34:11.358Z</time></trkpt><trkpt lat="45.5878233" lon="11.05337"><ele>656.6666666666666</ele><time>2026-05-01T12:34:12.359Z</time></trkpt><trkpt lat="45.5879083" lon="11.05318"><ele>657.3333333333334</ele><time>2026-05-01T12:34:13.359Z</time></trkpt><trkpt lat="45.5880233" lon="11.053005"><ele>658.0</ele><time>2026-05-01T12:34:14.359Z</time></trkpt><trkpt lat="45.5881533" lon="11.0528483"><ele>658.0</ele><time>2026-05-01T12:34:15.359Z</time></trkpt><trkpt lat="45.5882983" lon="11.052725"><ele>658.0</ele><time>2026-05-01T12:34:16.359Z</time></trkpt><trkpt lat="45.5884617" lon="11.0526467"><ele>658.0</ele><time>2026-05-01T12:34:17.358Z</time></trkpt><trkpt lat="45.5886383" lon="11.0525967"><ele>660.3333333333334</ele><time>2026-05-01T12:34:18.359Z</time></trkpt><trkpt lat="45.58882" lon="11.0525467"><ele>662.6666666666666</ele><time>2026-05-01T12:34:19.359Z</time></trkpt><trkpt lat="45.5889833" lon="11.052505"><ele>665.0</ele><time>2026-05-01T12:34:20.359Z</time></trkpt><trkpt lat="45.5891283" lon="11.0524617"><ele>659.0</ele><time>2026-05-01T12:34:21.358Z</time></trkpt><trkpt lat="45.58926" lon="11.0524117"><ele>653.0</ele><time>2026-05-01T12:34:22.359Z</time></trkpt><trkpt lat="45.5893867" lon="11.0523767"><ele>647.0</ele><time>2026-05-01T12:34:23.358Z</time></trkpt><trkpt lat="45.589505" lon="11.05237"><ele>641.0</ele><time>2026-05-01T12:34:24.359Z</time></trkpt><trkpt lat="45.5896033" lon="11.0523783"><ele>641.0</ele><time>2026-05-01T12:34:25.359Z</time></trkpt><trkpt lat="45.589685" lon="11.0523667"><ele>641.0</ele><time>2026-05-01T12:34:26.358Z</time></trkpt><trkpt lat="45.58977" lon="11.052325"><ele>641.0</ele><time>2026-05-01T12:34:27.359Z</time></trkpt><trkpt lat="45.58987" lon="11.0522583"><ele>641.0</ele><time>2026-05-01T12:34:28.359Z</time></trkpt><trkpt lat="45.5899683" lon="11.05214"><ele>641.0</ele><time>2026-05-01T12:34:29.358Z</time></trkpt><trkpt lat="45.5900583" lon="11.051985"><ele>641.0</ele><time>2026-05-01T12:34:30.358Z</time></trkpt><trkpt lat="45.5901433" lon="11.051815"><ele>641.0</ele><time>2026-05-01T12:34:31.359Z</time></trkpt><trkpt lat="45.5902217" lon="11.0516267"><ele>641.0</ele><time>2026-05-01T12:34:32.358Z</time></trkpt><trkpt lat="45.590275" lon="11.0514567"><ele>641.0</ele><time>2026-05-01T12:34:33.359Z</time></trkpt><trkpt lat="45.590355" lon="11.0512917"><ele>642.0</ele><time>2026-05-01T12:34:34.359Z</time></trkpt><trkpt lat="45.5903967" lon="11.0511283"><ele>643.0</ele><time>2026-05-01T12:34:35.359Z</time></trkpt><trkpt lat="45.5903983" lon="11.050975"><ele>644.0</ele><time>2026-05-01T12:34:36.359Z</time></trkpt><trkpt lat="45.5903333" lon="11.050845"><ele>645.0</ele><time>2026-05-01T12:34:37.359Z</time></trkpt><trkpt lat="45.5902183" lon="11.0507183"><ele>645.0</ele><time>2026-05-01T12:34:38.359Z</time></trkpt><trkpt lat="45.59009" lon="11.0506017"><ele>645.0</ele><time>2026-05-01T12:34:39.359Z</time></trkpt><trkpt lat="45.589975" lon="11.0505017"><ele>645.0</ele><time>2026-05-01T12:34:40.359Z</time></trkpt><trkpt lat="45.5898683" lon="11.0504083"><ele>645.0</ele><time>2026-05-01T12:34:41.359Z</time></trkpt><trkpt lat="45.5897833" lon="11.050305"><ele>645.0</ele><time>2026-05-01T12:34:42.359Z</time></trkpt><trkpt lat="45.5897233" lon="11.05019"><ele>645.0</ele><time>2026-05-01T12:34:43.359Z</time></trkpt><trkpt lat="45.58972" lon="11.050055"><ele>645.0</ele><time>2026-05-01T12:34:44.358Z</time></trkpt><trkpt lat="45.58977" lon="11.0499"><ele>645.0</ele><time>2026-05-01T12:34:45.359Z</time></trkpt><trkpt lat="45.5898567" lon="11.049735"><ele>638.0</ele><time>2026-05-01T12:34:46.359Z</time></trkpt><trkpt lat="45.589955" lon="11.0495567"><ele>631.0</ele><time>2026-05-01T12:34:47.359Z</time></trkpt><trkpt lat="45.590065" lon="11.0493783"><ele>624.0</ele><time>2026-05-01T12:34:48.359Z</time></trkpt><trkpt lat="45.5901533" lon="11.0491983"><ele>624.3333333333334</ele><time>2026-05-01T12:34:49.359Z</time></trkpt><trkpt lat="45.5902567" lon="11.04903"><ele>624.6666666666667</ele><time>2026-05-01T12:34:50.359Z</time></trkpt><trkpt lat="45.5903917" lon="11.04889"><ele>625.0</ele><time>2026-05-01T12:34:51.359Z</time></trkpt><trkpt lat="45.5905417" lon="11.0487567"><ele>625.0</ele><time>2026-05-01T12:34:52.359Z</time></trkpt><trkpt lat="45.5906933" lon="11.0486217"><ele>625.0</ele><time>2026-05-01T12:34:53.359Z</time></trkpt><trkpt lat="45.5908317" lon="11.04847"><ele>625.0</ele><time>2026-05-01T12:34:54.358Z</time></trkpt><trkpt lat="45.5909667" lon="11.0483183"><ele>625.3333333333334</ele><time>2026-05-01T12:34:55.359Z</time></trkpt><trkpt lat="45.59111" lon="11.0481867"><ele>625.6666666666666</ele><time>2026-05-01T12:34:56.359Z</time></trkpt><trkpt lat="45.59126" lon="11.0480683"><ele>626.0</ele><time>2026-05-01T12:34:57.359Z</time></trkpt><trkpt lat="45.5914033" lon="11.0479617"><ele>626.0</ele><time>2026-05-01T12:34:58.359Z</time></trkpt><trkpt lat="45.5915183" lon="11.0478117"><ele>626.0</ele><time>2026-05-01T12:34:59.359Z</time></trkpt><trkpt lat="45.591635" lon="11.0476517"><ele>626.0</ele><time>2026-05-01T12:35:00.359Z</time></trkpt><trkpt lat="45.591755" lon="11.0474683"><ele>624.3333333333333</ele><time>2026-05-01T12:35:01.359Z</time></trkpt><trkpt lat="45.59184" lon="11.0472767"><ele>622.6666666666666</ele><time>2026-05-01T12:35:02.359Z</time></trkpt><trkpt lat="45.5919133" lon="11.047085"><ele>621.0</ele><time>2026-05-01T12:35:03.359Z</time></trkpt><trkpt lat="45.591965" lon="11.0468933"><ele>621.0</ele><time>2026-05-01T12:35:04.359Z</time></trkpt><trkpt lat="45.5919933" lon="11.0467167"><ele>621.0</ele><time>2026-05-01T12:35:05.359Z</time></trkpt><trkpt lat="45.5919983" lon="11.0465767"><ele>621.0</ele><time>2026-05-01T12:35:06.358Z</time></trkpt><trkpt lat="45.5919517" lon="11.0464717"><ele>621.0</ele><time>2026-05-01T12:35:07.359Z</time></trkpt><trkpt lat="45.591855" lon="11.0464367"><ele>621.0</ele><time>2026-05-01T12:35:08.359Z</time></trkpt><trkpt lat="45.5917333" lon="11.0465033"><ele>621.0</ele><time>2026-05-01T12:35:09.359Z</time></trkpt><trkpt lat="45.59163" lon="11.04665"><ele>621.0</ele><time>2026-05-01T12:35:10.358Z</time></trkpt><trkpt lat="45.5915133" lon="11.046855"><ele>621.0</ele><time>2026-05-01T12:35:11.359Z</time></trkpt><trkpt lat="45.5913483" lon="11.0470617"><ele>619.0</ele><time>2026-05-01T12:35:12.359Z</time></trkpt><trkpt lat="45.5911717" lon="11.0472083"><ele>617.0</ele><time>2026-05-01T12:35:13.359Z</time></trkpt><trkpt lat="45.5909933" lon="11.0473483"><ele>615.0</ele><time>2026-05-01T12:35:14.359Z</time></trkpt><trkpt lat="45.590805" lon="11.0475183"><ele>615.0</ele><time>2026-05-01T12:35:15.359Z</time></trkpt><trkpt lat="45.5906567" lon="11.0476817"><ele>615.0</ele><time>2026-05-01T12:35:16.359Z</time></trkpt><trkpt lat="45.5904667" lon="11.0477917"><ele>615.0</ele><time>2026-05-01T12:35:17.359Z</time></trkpt><trkpt lat="45.590255" lon="11.0478133"><ele>624.6666666666666</ele><time>2026-05-01T12:35:18.359Z</time></trkpt><trkpt lat="45.5900333" lon="11.0478167"><ele>634.3333333333333</ele><time>2026-05-01T12:35:19.359Z</time></trkpt><trkpt lat="45.5898183" lon="11.0478233"><ele>644.0</ele><time>2026-05-01T12:35:20.358Z</time></trkpt><trkpt lat="45.5896083" lon="11.0478767"><ele>641.3333333333333</ele><time>2026-05-01T12:35:21.358Z</time></trkpt><trkpt lat="45.5894133" lon="11.0480117"><ele>638.6666666666666</ele><time>2026-05-01T12:35:22.359Z</time></trkpt><trkpt lat="45.5892317" lon="11.0481833"><ele>636.0</ele><time>2026-05-01T12:35:23.359Z</time></trkpt><trkpt lat="45.58909" lon="11.0483967"><ele>636.0</ele><time>2026-05-01T12:35:24.359Z</time></trkpt><trkpt lat="45.5889517" lon="11.048575"><ele>636.0</ele><time>2026-05-01T12:35:25.359Z</time></trkpt><trkpt lat="45.5887983" lon="11.048715"><ele>636.0</ele><time>2026-05-01T12:35:26.359Z</time></trkpt><trkpt lat="45.5886267" lon="11.0488717"><ele>638.6666666666666</ele><time>2026-05-01T12:35:27.359Z</time></trkpt><trkpt lat="45.58846" lon="11.04903"><ele>641.3333333333333</ele><time>2026-05-01T12:35:28.359Z</time></trkpt><trkpt lat="45.5883233" lon="11.0492217"><ele>644.0</ele><time>2026-05-01T12:35:29.359Z</time></trkpt><trkpt lat="45.5881933" lon="11.049415"><ele>644.0</ele><time>2026-05-01T12:35:30.359Z</time></trkpt><trkpt lat="45.5880467" lon="11.0495733"><ele>644.0</ele><time>2026-05-01T12:35:31.359Z</time></trkpt><trkpt lat="45.5878883" lon="11.0496667"><ele>644.0</ele><time>2026-05-01T12:35:32.358Z</time></trkpt><trkpt lat="45.58771" lon="11.04976"><ele>651.3333333333333</ele><time>2026-05-01T12:35:33.359Z</time></trkpt><trkpt lat="45.5875317" lon="11.04983"><ele>658.6666666666666</ele><time>2026-05-01T12:35:34.359Z</time></trkpt><trkpt lat="45.5873433" lon="11.0498333"><ele>666.0</ele><time>2026-05-01T12:35:35.359Z</time></trkpt><trkpt lat="45.5871517" lon="11.04978"><ele>670.6666666666666</ele><time>2026-05-01T12:35:36.359Z</time></trkpt><trkpt lat="45.5869567" lon="11.0497183"><ele>675.3333333333333</ele><time>2026-05-01T12:35:37.359Z</time></trkpt><trkpt lat="45.5867417" lon="11.0496667"><ele>680.0</ele><time>2026-05-01T12:35:38.359Z</time></trkpt><trkpt lat="45.5865467" lon="11.0496483"><ele>680.0</ele><time>2026-05-01T12:35:39.359Z</time></trkpt><trkpt lat="45.58635" lon="11.0496933"><ele>680.0</ele><time>2026-05-01T12:35:40.359Z</time></trkpt><trkpt lat="45.5861233" lon="11.04971"><ele>680.0</ele><time>2026-05-01T12:35:41.359Z</time></trkpt><trkpt lat="45.5859133" lon="11.04978"><ele>683.3333333333333</ele><time>2026-05-01T12:35:42.359Z</time></trkpt><trkpt lat="45.58573" lon="11.049895"><ele>686.6666666666666</ele><time>2026-05-01T12:35:43.359Z</time></trkpt><trkpt lat="45.5855667" lon="11.049995"><ele>690.0</ele><time>2026-05-01T12:35:44.359Z</time></trkpt><trkpt lat="45.5854183" lon="11.05006"><ele>687.25</ele><time>2026-05-01T12:35:45.359Z</time></trkpt><trkpt lat="45.5852733" lon="11.050055"><ele>684.5</ele><time>2026-05-01T12:35:46.358Z</time></trkpt><trkpt lat="45.5851333" lon="11.0499833"><ele>681.75</ele><time>2026-05-01T12:35:47.359Z</time></trkpt><trkpt lat="45.5850117" lon="11.0498567"><ele>679.0</ele><time>2026-05-01T12:35:48.359Z</time></trkpt><trkpt lat="45.5849017" lon="11.0496667"><ele>679.0</ele><time>2026-05-01T12:35:49.359Z</time></trkpt><trkpt lat="45.5848183" lon="11.0494417"><ele>679.0</ele><time>2026-05-01T12:35:50.359Z</time></trkpt><trkpt lat="45.58477" lon="11.049185"><ele>679.0</ele><time>2026-05-01T12:35:51.359Z</time></trkpt><trkpt lat="45.584725" lon="11.0488933"><ele>685.3333333333334</ele><time>2026-05-01T12:35:52.359Z</time></trkpt><trkpt lat="45.5846767" lon="11.0485833"><ele>691.6666666666666</ele><time>2026-05-01T12:35:53.359Z</time></trkpt><trkpt lat="45.5846217" lon="11.0482833"><ele>698.0</ele><time>2026-05-01T12:35:54.359Z</time></trkpt><trkpt lat="45.5845683" lon="11.048"><ele>701.0</ele><time>2026-05-01T12:35:55.359Z</time></trkpt><trkpt lat="45.5845267" lon="11.047695"><ele>704.0</ele><time>2026-05-01T12:35:56.359Z</time></trkpt><trkpt lat="45.5844867" lon="11.0474183"><ele>707.0</ele><time>2026-05-01T12:35:57.359Z</time></trkpt><trkpt lat="45.5844333" lon="11.0471583"><ele>702.3333333333333</ele><time>2026-05-01T12:35:58.359Z</time></trkpt><trkpt lat="45.5844117" lon="11.04688"><ele>697.6666666666666</ele><time>2026-05-01T12:35:59.359Z</time></trkpt><trkpt lat="45.5844183" lon="11.0466117"><ele>693.0</ele><time>2026-05-01T12:36:00.358Z</time></trkpt><trkpt lat="45.5844317" lon="11.0463483"><ele>693.0</ele><time>2026-05-01T12:36:01.359Z</time></trkpt><trkpt lat="45.5844283" lon="11.0460967"><ele>693.0</ele><time>2026-05-01T12:36:02.359Z</time></trkpt><trkpt lat="45.58438" lon="11.04587"><ele>693.0</ele><time>2026-05-01T12:36:03.359Z</time></trkpt><trkpt lat="45.584265" lon="11.0456833"><ele>697.6666666666666</ele><time>2026-05-01T12:36:04.359Z</time></trkpt><trkpt lat="45.5841217" lon="11.04554"><ele>702.3333333333333</ele><time>2026-05-01T12:36:05.359Z</time></trkpt><trkpt lat="45.58396" lon="11.0454133"><ele>707.0</ele><time>2026-05-01T12:36:06.359Z</time></trkpt><trkpt lat="45.5838133" lon="11.0452967"><ele>707.0</ele><time>2026-05-01T12:36:07.359Z</time></trkpt><trkpt lat="45.5836867" lon="11.0451383"><ele>707.0</ele><time>2026-05-01T12:36:08.359Z</time></trkpt><trkpt lat="45.5835833" lon="11.04495"><ele>707.0</ele><time>2026-05-01T12:36:09.358Z</time></trkpt><trkpt lat="45.5835067" lon="11.0447367"><ele>708.0</ele><time>2026-05-01T12:36:10.358Z</time></trkpt><trkpt lat="45.583435" lon="11.0445167"><ele>709.0</ele><time>2026-05-01T12:36:11.358Z</time></trkpt><trkpt lat="45.5833517" lon="11.0442867"><ele>710.0</ele><time>2026-05-01T12:36:12.358Z</time></trkpt><trkpt lat="45.5832517" lon="11.0440817"><ele>712.3333333333333</ele><time>2026-05-01T12:36:13.359Z</time></trkpt><trkpt lat="45.58313" lon="11.043915"><ele>714.6666666666666</ele><time>2026-05-01T12:36:14.359Z</time></trkpt><trkpt lat="45.5829717" lon="11.043775"><ele>717.0</ele><time>2026-05-01T12:36:15.358Z</time></trkpt><trkpt lat="45.5827783" lon="11.0436733"><ele>718.5</ele><time>2026-05-01T12:36:16.358Z</time></trkpt><trkpt lat="45.5825617" lon="11.0435883"><ele>720.0</ele><time>2026-05-01T12:36:17.359Z</time></trkpt><trkpt lat="45.58233" lon="11.0435017"><ele>720.0</ele><time>2026-05-01T12:36:18.358Z</time></trkpt><trkpt lat="45.582105" lon="11.0434167"><ele>720.0</ele><time>2026-05-01T12:36:19.358Z</time></trkpt><trkpt lat="45.581885" lon="11.04333"><ele>725.6666666666666</ele><time>2026-05-01T12:36:20.358Z</time></trkpt><trkpt lat="45.5816767" lon="11.043245"><ele>731.3333333333333</ele><time>2026-05-01T12:36:21.358Z</time></trkpt><trkpt lat="45.5814683" lon="11.043165"><ele>737.0</ele><time>2026-05-01T12:36:22.358Z</time></trkpt><trkpt lat="45.5812633" lon="11.0430867"><ele>736.3333333333333</ele><time>2026-05-01T12:36:23.358Z</time></trkpt><trkpt lat="45.5810633" lon="11.0430133"><ele>735.6666666666666</ele><time>2026-05-01T12:36:24.358Z</time></trkpt><trkpt lat="45.5808767" lon="11.042955"><ele>735.0</ele><time>2026-05-01T12:36:25.358Z</time></trkpt><trkpt lat="45.58068" lon="11.0429417"><ele>735.0</ele><time>2026-05-01T12:36:26.358Z</time></trkpt><trkpt lat="45.5804967" lon="11.0429583"><ele>735.0</ele><time>2026-05-01T12:36:27.358Z</time></trkpt><trkpt lat="45.5803317" lon="11.04298"><ele>735.0</ele><time>2026-05-01T12:36:28.357Z</time></trkpt><trkpt lat="45.5801833" lon="11.0429967"><ele>735.6</ele><time>2026-05-01T12:36:29.358Z</time></trkpt><trkpt lat="45.5800533" lon="11.043005"><ele>736.2</ele><time>2026-05-01T12:36:30.358Z</time></trkpt><trkpt lat="45.5799383" lon="11.042995"><ele>736.8</ele><time>2026-05-01T12:36:31.358Z</time></trkpt><trkpt lat="45.5798367" lon="11.0429517"><ele>737.4</ele><time>2026-05-01T12:36:32.357Z</time></trkpt><trkpt lat="45.5797533" lon="11.04289"><ele>738.0</ele><time>2026-05-01T12:36:33.358Z</time></trkpt><trkpt lat="45.5796833" lon="11.0427967"><ele>738.0</ele><time>2026-05-01T12:36:34.358Z</time></trkpt><trkpt lat="45.5796633" lon="11.0427033"><ele>738.0</ele><time>2026-05-01T12:36:35.358Z</time></trkpt><trkpt lat="45.5796167" lon="11.04259"><ele>738.0</ele><time>2026-05-01T12:36:37.358Z</time></trkpt><trkpt lat="45.57953" lon="11.0425833"><ele>738.0</ele><time>2026-05-01T12:36:39.357Z</time></trkpt><trkpt lat="45.5794717" lon="11.0426217"><ele>738.0</ele><time>2026-05-01T12:36:40.358Z</time></trkpt><trkpt lat="45.5793917" lon="11.0427133"><ele>738.0</ele><time>2026-05-01T12:36:41.358Z</time></trkpt><trkpt lat="45.57929" lon="11.0428267"><ele>737.25</ele><time>2026-05-01T12:36:42.358Z</time></trkpt><trkpt lat="45.5791817" lon="11.04292"><ele>736.5</ele><time>2026-05-01T12:36:43.358Z</time></trkpt><trkpt lat="45.579075" lon="11.0430017"><ele>735.75</ele><time>2026-05-01T12:36:44.358Z</time></trkpt><trkpt lat="45.5789817" lon="11.0430883"><ele>735.0</ele><time>2026-05-01T12:36:45.358Z</time></trkpt><trkpt lat="45.5788917" lon="11.0431717"><ele>735.0</ele><time>2026-05-01T12:36:46.358Z</time></trkpt><trkpt lat="45.5788" lon="11.04325"><ele>735.0</ele><time>2026-05-01T12:36:47.358Z</time></trkpt><trkpt lat="45.5786933" lon="11.0432983"><ele>735.0</ele><time>2026-05-01T12:36:48.358Z</time></trkpt><trkpt lat="45.5785783" lon="11.0433367"><ele>735.0</ele><time>2026-05-01T12:36:49.358Z</time></trkpt><trkpt lat="45.5784567" lon="11.0433417"><ele>735.75</ele><time>2026-05-01T12:36:50.358Z</time></trkpt><trkpt lat="45.5783233" lon="11.0433283"><ele>736.5</ele><time>2026-05-01T12:36:51.358Z</time></trkpt><trkpt lat="45.578195" lon="11.04328"><ele>737.25</ele><time>2026-05-01T12:36:52.358Z</time></trkpt><trkpt lat="45.5780833" lon="11.0432067"><ele>738.0</ele><time>2026-05-01T12:36:53.358Z</time></trkpt><trkpt lat="45.5779783" lon="11.0431133"><ele>736.5</ele><time>2026-05-01T12:36:54.358Z</time></trkpt><trkpt lat="45.5778917" lon="11.0429917"><ele>735.0</ele><time>2026-05-01T12:36:55.358Z</time></trkpt><trkpt lat="45.5778067" lon="11.042855"><ele>733.5</ele><time>2026-05-01T12:36:56.358Z</time></trkpt><trkpt lat="45.577745" lon="11.0427067"><ele>732.0</ele><time>2026-05-01T12:36:57.358Z</time></trkpt><trkpt lat="45.57769" lon="11.0425317"><ele>730.25</ele><time>2026-05-01T12:36:58.358Z</time></trkpt><trkpt lat="45.5776467" lon="11.042345"><ele>728.5</ele><time>2026-05-01T12:36:59.358Z</time></trkpt><trkpt lat="45.5776067" lon="11.04216"><ele>726.75</ele><time>2026-05-01T12:37:00.358Z</time></trkpt><trkpt lat="45.5775633" lon="11.0419767"><ele>725.0</ele><time>2026-05-01T12:37:01.358Z</time></trkpt><trkpt lat="45.5775117" lon="11.041815"><ele>725.0</ele><time>2026-05-01T12:37:02.358Z</time></trkpt><trkpt lat="45.5774483" lon="11.0416617"><ele>725.0</ele><time>2026-05-01T12:37:03.358Z</time></trkpt><trkpt lat="45.5773683" lon="11.0415317"><ele>725.0</ele><time>2026-05-01T12:37:04.358Z</time></trkpt><trkpt lat="45.57728" lon="11.0414233"><ele>725.0</ele><time>2026-05-01T12:37:05.357Z</time></trkpt><trkpt lat="45.577185" lon="11.041345"><ele>723.5</ele><time>2026-05-01T12:37:06.358Z</time></trkpt><trkpt lat="45.5770783" lon="11.0412917"><ele>722.0</ele><time>2026-05-01T12:37:07.358Z</time></trkpt><trkpt lat="45.5769583" lon="11.0412583"><ele>720.5</ele><time>2026-05-01T12:37:08.357Z</time></trkpt><trkpt lat="45.576835" lon="11.0412383"><ele>719.0</ele><time>2026-05-01T12:37:09.358Z</time></trkpt><trkpt lat="45.5767133" lon="11.0412483"><ele>719.0</ele><time>2026-05-01T12:37:10.358Z</time></trkpt><trkpt lat="45.5765983" lon="11.0412667"><ele>719.0</ele><time>2026-05-01T12:37:11.358Z</time></trkpt><trkpt lat="45.576485" lon="11.041285"><ele>719.0</ele><time>2026-05-01T12:37:12.358Z</time></trkpt><trkpt lat="45.5763683" lon="11.0413017"><ele>719.0</ele><time>2026-05-01T12:37:13.358Z</time></trkpt><trkpt lat="45.5762583" lon="11.04132"><ele>718.25</ele><time>2026-05-01T12:37:14.358Z</time></trkpt><trkpt lat="45.5761517" lon="11.0413433"><ele>717.5</ele><time>2026-05-01T12:37:15.358Z</time></trkpt><trkpt lat="45.5760383" lon="11.0413483"><ele>716.75</ele><time>2026-05-01T12:37:16.357Z</time></trkpt><trkpt lat="45.57591" lon="11.041345"><ele>716.0</ele><time>2026-05-01T12:37:17.358Z</time></trkpt><trkpt lat="45.5757867" lon="11.0413667"><ele>716.0</ele><time>2026-05-01T12:37:18.358Z</time></trkpt><trkpt lat="45.5756833" lon="11.041365"><ele>716.0</ele><time>2026-05-01T12:37:19.358Z</time></trkpt><trkpt lat="45.575585" lon="11.0413683"><ele>716.0</ele><time>2026-05-01T12:37:20.358Z</time></trkpt><trkpt lat="45.5754867" lon="11.04135"><ele>716.0</ele><time>2026-05-01T12:37:21.358Z</time></trkpt><trkpt lat="45.5754033" lon="11.0413133"><ele>716.0</ele><time>2026-05-01T12:37:22.358Z</time></trkpt><trkpt lat="45.57533" lon="11.0412333"><ele>715.25</ele><time>2026-05-01T12:37:23.358Z</time></trkpt><trkpt lat="45.575275" lon="11.0410983"><ele>714.5</ele><time>2026-05-01T12:37:24.358Z</time></trkpt><trkpt lat="45.5752233" lon="11.04095"><ele>713.75</ele><time>2026-05-01T12:37:25.358Z</time></trkpt><trkpt lat="45.5751733" lon="11.04079"><ele>713.0</ele><time>2026-05-01T12:37:26.358Z</time></trkpt><trkpt lat="45.5751217" lon="11.04062"><ele>713.0</ele><time>2026-05-01T12:37:27.358Z</time></trkpt><trkpt lat="45.575065" lon="11.0404467"><ele>713.0</ele><time>2026-05-01T12:37:28.357Z</time></trkpt><trkpt lat="45.5750083" lon="11.0402783"><ele>713.0</ele><time>2026-05-01T12:37:29.358Z</time></trkpt><trkpt lat="45.5749533" lon="11.0401083"><ele>713.0</ele><time>2026-05-01T12:37:30.358Z</time></trkpt><trkpt lat="45.5749017" lon="11.03995"><ele>712.0</ele><time>2026-05-01T12:37:31.358Z</time></trkpt><trkpt lat="45.57485" lon="11.0397933"><ele>711.0</ele><time>2026-05-01T12:37:32.358Z</time></trkpt><trkpt lat="45.5748033" lon="11.039645"><ele>710.0</ele><time>2026-05-01T12:37:33.358Z</time></trkpt><trkpt lat="45.57475" lon="11.0395033"><ele>709.0</ele><time>2026-05-01T12:37:34.358Z</time></trkpt><trkpt lat="45.5747" lon="11.0393633"><ele>709.0</ele><time>2026-05-01T12:37:35.358Z</time></trkpt><trkpt lat="45.5746517" lon="11.039225"><ele>709.0</ele><time>2026-05-01T12:37:36.358Z</time></trkpt><trkpt lat="45.5745917" lon="11.0390817"><ele>709.0</ele><time>2026-05-01T12:37:37.358Z</time></trkpt><trkpt lat="45.57453" lon="11.0389467"><ele>709.0</ele><time>2026-05-01T12:37:38.357Z</time></trkpt><trkpt lat="45.574455" lon="11.038815"><ele>709.75</ele><time>2026-05-01T12:37:39.357Z</time></trkpt><trkpt lat="45.5743683" lon="11.0386883"><ele>710.5</ele><time>2026-05-01T12:37:40.358Z</time></trkpt><trkpt lat="45.5742333" lon="11.03863"><ele>711.25</ele><time>2026-05-01T12:37:41.358Z</time></trkpt><trkpt lat="45.5741133" lon="11.0385867"><ele>712.0</ele><time>2026-05-01T12:37:42.357Z</time></trkpt><trkpt lat="45.5739983" lon="11.0385683"><ele>712.0</ele><time>2026-05-01T12:37:43.358Z</time></trkpt><trkpt lat="45.57389" lon="11.03856"><ele>712.0</ele><time>2026-05-01T12:37:44.358Z</time></trkpt><trkpt lat="45.573785" lon="11.0385783"><ele>712.0</ele><time>2026-05-01T12:37:45.358Z</time></trkpt><trkpt lat="45.5736817" lon="11.03863"><ele>712.0</ele><time>2026-05-01T12:37:46.358Z</time></trkpt><trkpt lat="45.57358" lon="11.0386983"><ele>712.0</ele><time>2026-05-01T12:37:47.358Z</time></trkpt><trkpt lat="45.573485" lon="11.0387783"><ele>711.0</ele><time>2026-05-01T12:37:48.357Z</time></trkpt><trkpt lat="45.57339" lon="11.0388867"><ele>710.0</ele><time>2026-05-01T12:37:49.358Z</time></trkpt><trkpt lat="45.5733033" lon="11.03901"><ele>709.0</ele><time>2026-05-01T12:37:50.358Z</time></trkpt><trkpt lat="45.5732333" lon="11.0391533"><ele>708.0</ele><time>2026-05-01T12:37:51.357Z</time></trkpt><trkpt lat="45.57317" lon="11.039305"><ele>708.0</ele><time>2026-05-01T12:37:52.358Z</time></trkpt><trkpt lat="45.5731183" lon="11.0394583"><ele>708.0</ele><time>2026-05-01T12:37:53.358Z</time></trkpt><trkpt lat="45.5730683" lon="11.0396117"><ele>708.0</ele><time>2026-05-01T12:37:54.358Z</time></trkpt><trkpt lat="45.57301" lon="11.0397617"><ele>708.0</ele><time>2026-05-01T12:37:55.358Z</time></trkpt><trkpt lat="45.57295" lon="11.0399083"><ele>709.25</ele><time>2026-05-01T12:37:56.358Z</time></trkpt><trkpt lat="45.5728783" lon="11.0400383"><ele>710.5</ele><time>2026-05-01T12:37:57.358Z</time></trkpt><trkpt lat="45.5727967" lon="11.0401617"><ele>711.75</ele><time>2026-05-01T12:37:58.358Z</time></trkpt><trkpt lat="45.57271" lon="11.040265"><ele>713.0</ele><time>2026-05-01T12:37:59.358Z</time></trkpt><trkpt lat="45.572625" lon="11.0403617"><ele>710.2</ele><time>2026-05-01T12:38:00.358Z</time></trkpt><trkpt lat="45.572545" lon="11.04045"><ele>707.4</ele><time>2026-05-01T12:38:01.358Z</time></trkpt><trkpt lat="45.5724767" lon="11.0405183"><ele>704.6</ele><time>2026-05-01T12:38:02.358Z</time></trkpt><trkpt lat="45.5724183" lon="11.0405683"><ele>701.8000000000001</ele><time>2026-05-01T12:38:03.357Z</time></trkpt><trkpt lat="45.5723083" lon="11.0406167"><ele>699.0</ele><time>2026-05-01T12:38:05.358Z</time></trkpt><trkpt lat="45.5722383" lon="11.040705"><ele>699.3333333333334</ele><time>2026-05-01T12:38:07.358Z</time></trkpt><trkpt lat="45.5722" lon="11.0408333"><ele>699.6666666666666</ele><time>2026-05-01T12:45:27.356Z</time></trkpt><trkpt lat="45.572175" lon="11.0409183"><ele>700.0</ele><time>2026-05-01T12:45:28.356Z</time></trkpt><trkpt lat="45.5721317" lon="11.0410133"><ele>700.3333333333333</ele><time>2026-05-01T12:45:29.356Z</time></trkpt><trkpt lat="45.5720767" lon="11.0411217"><ele>700.6666666666666</ele><time>2026-05-01T12:45:30.356Z</time></trkpt><trkpt lat="45.57203" lon="11.0412383"><ele>701.0</ele><time>2026-05-01T12:45:31.356Z</time></trkpt><trkpt lat="45.5719833" lon="11.04137"><ele>701.5</ele><time>2026-05-01T12:45:32.356Z</time></trkpt><trkpt lat="45.5719433" lon="11.0415117"><ele>702.0</ele><time>2026-05-01T12:45:33.356Z</time></trkpt><trkpt lat="45.57192" lon="11.0416667"><ele>702.5</ele><time>2026-05-01T12:45:34.356Z</time></trkpt><trkpt lat="45.5719" lon="11.041835"><ele>703.0</ele><time>2026-05-01T12:45:35.356Z</time></trkpt><trkpt lat="45.5719" lon="11.0420083"><ele>703.0</ele><time>2026-05-01T12:45:36.356Z</time></trkpt><trkpt lat="45.5719" lon="11.0421933"><ele>703.0</ele><time>2026-05-01T12:45:37.356Z</time></trkpt><trkpt lat="45.571885" lon="11.04238"><ele>703.0</ele><time>2026-05-01T12:45:38.356Z</time></trkpt><trkpt lat="45.5718617" lon="11.0425717"><ele>703.0</ele><time>2026-05-01T12:45:39.356Z</time></trkpt><trkpt lat="45.571825" lon="11.0427683"><ele>703.3333333333334</ele><time>2026-05-01T12:45:40.355Z</time></trkpt><trkpt lat="45.5717733" lon="11.0429683"><ele>703.6666666666666</ele><time>2026-05-01T12:45:41.356Z</time></trkpt><trkpt lat="45.5717167" lon="11.0431667"><ele>704.0</ele><time>2026-05-01T12:45:42.356Z</time></trkpt><trkpt lat="45.5716433" lon="11.0433567"><ele>704.0</ele><time>2026-05-01T12:45:43.356Z</time></trkpt><trkpt lat="45.5715717" lon="11.04355"><ele>704.0</ele><time>2026-05-01T12:45:44.356Z</time></trkpt><trkpt lat="45.5714917" lon="11.0437367"><ele>704.0</ele><time>2026-05-01T12:45:45.356Z</time></trkpt><trkpt lat="45.5714017" lon="11.0439083"><ele>704.0</ele><time>2026-05-01T12:45:46.355Z</time></trkpt><trkpt lat="45.5713283" lon="11.0440767"><ele>704.0</ele><time>2026-05-01T12:45:47.356Z</time></trkpt><trkpt lat="45.571245" lon="11.0442283"><ele>704.0</ele><time>2026-05-01T12:45:48.356Z</time></trkpt><trkpt lat="45.57115" lon="11.0443633"><ele>704.0</ele><time>2026-05-01T12:45:49.356Z</time></trkpt><trkpt lat="45.5710367" lon="11.0444817"><ele>705.5</ele><time>2026-05-01T12:45:50.356Z</time></trkpt><trkpt lat="45.5709067" lon="11.044565"><ele>707.0</ele><time>2026-05-01T12:45:51.356Z</time></trkpt><trkpt lat="45.570765" lon="11.04462"><ele>708.5</ele><time>2026-05-01T12:45:52.356Z</time></trkpt><trkpt lat="45.5706233" lon="11.0446367"><ele>710.0</ele><time>2026-05-01T12:45:53.355Z</time></trkpt><trkpt lat="45.570475" lon="11.0446017"><ele>710.0</ele><time>2026-05-01T12:45:54.355Z</time></trkpt><trkpt lat="45.5703183" lon="11.04455"><ele>710.0</ele><time>2026-05-01T12:45:55.356Z</time></trkpt><trkpt lat="45.57016" lon="11.0444933"><ele>710.0</ele><time>2026-05-01T12:45:56.356Z</time></trkpt><trkpt lat="45.5700067" lon="11.0444417"><ele>710.0</ele><time>2026-05-01T12:45:57.356Z</time></trkpt><trkpt lat="45.5698533" lon="11.04438"><ele>710.0</ele><time>2026-05-01T12:45:58.356Z</time></trkpt><trkpt lat="45.56971" lon="11.0443083"><ele>710.0</ele><time>2026-05-01T12:45:59.356Z</time></trkpt><trkpt lat="45.569585" lon="11.0442467"><ele>710.0</ele><time>2026-05-01T12:46:00.355Z</time></trkpt><trkpt lat="45.5694567" lon="11.0441517"><ele>711.5</ele><time>2026-05-01T12:46:01.355Z</time></trkpt><trkpt lat="45.5693367" lon="11.0440417"><ele>713.0</ele><time>2026-05-01T12:46:02.355Z</time></trkpt><trkpt lat="45.5692167" lon="11.0439183"><ele>714.5</ele><time>2026-05-01T12:46:03.356Z</time></trkpt><trkpt lat="45.5691033" lon="11.0437917"><ele>716.0</ele><time>2026-05-01T12:46:04.355Z</time></trkpt><trkpt lat="45.5689867" lon="11.04365"><ele>716.0</ele><time>2026-05-01T12:46:05.356Z</time></trkpt><trkpt lat="45.5688717" lon="11.0435133"><ele>716.0</ele><time>2026-05-01T12:46:06.356Z</time></trkpt><trkpt lat="45.568755" lon="11.04337"><ele>716.0</ele><time>2026-05-01T12:46:07.356Z</time></trkpt><trkpt lat="45.56863" lon="11.04323"><ele>715.6666666666666</ele><time>2026-05-01T12:46:08.355Z</time></trkpt><trkpt lat="45.5685083" lon="11.0430933"><ele>715.3333333333334</ele><time>2026-05-01T12:46:09.356Z</time></trkpt><trkpt lat="45.56839" lon="11.0429383"><ele>715.0</ele><time>2026-05-01T12:46:10.356Z</time></trkpt><trkpt lat="45.5682683" lon="11.0427767"><ele>715.0</ele><time>2026-05-01T12:46:11.356Z</time></trkpt><trkpt lat="45.5681417" lon="11.042635"><ele>715.0</ele><time>2026-05-01T12:46:12.356Z</time></trkpt><trkpt lat="45.5680083" lon="11.0424917"><ele>715.0</ele><time>2026-05-01T12:46:13.356Z</time></trkpt><trkpt lat="45.567875" lon="11.04234"><ele>714.3333333333334</ele><time>2026-05-01T12:46:14.356Z</time></trkpt><trkpt lat="45.5677467" lon="11.0421883"><ele>713.6666666666666</ele><time>2026-05-01T12:46:15.356Z</time></trkpt><trkpt lat="45.5676183" lon="11.0420317"><ele>713.0</ele><time>2026-05-01T12:46:16.356Z</time></trkpt><trkpt lat="45.5674867" lon="11.0418817"><ele>713.0</ele><time>2026-05-01T12:46:17.356Z</time></trkpt><trkpt lat="45.5673583" lon="11.0417383"><ele>713.0</ele><time>2026-05-01T12:46:18.356Z</time></trkpt><trkpt lat="45.567225" lon="11.0415983"><ele>713.0</ele><time>2026-05-01T12:46:19.356Z</time></trkpt><trkpt lat="45.5670867" lon="11.04147"><ele>712.3333333333333</ele><time>2026-05-01T12:46:20.356Z</time></trkpt><trkpt lat="45.5669367" lon="11.0413683"><ele>711.6666666666666</ele><time>2026-05-01T12:46:21.356Z</time></trkpt><trkpt lat="45.5667883" lon="11.0412917"><ele>711.0</ele><time>2026-05-01T12:46:22.356Z</time></trkpt><trkpt lat="45.566635" lon="11.0412517"><ele>711.0</ele><time>2026-05-01T12:46:23.356Z</time></trkpt><trkpt lat="45.566475" lon="11.041225"><ele>711.0</ele><time>2026-05-01T12:46:24.356Z</time></trkpt><trkpt lat="45.5663117" lon="11.0412167"><ele>711.0</ele><time>2026-05-01T12:46:25.356Z</time></trkpt><trkpt lat="45.5661467" lon="11.04121"><ele>707.0</ele><time>2026-05-01T12:46:26.356Z</time></trkpt><trkpt lat="45.56598" lon="11.0412033"><ele>703.0</ele><time>2026-05-01T12:46:27.356Z</time></trkpt><trkpt lat="45.5658117" lon="11.0411967"><ele>699.0</ele><time>2026-05-01T12:46:28.356Z</time></trkpt><trkpt lat="45.5656417" lon="11.0411983"><ele>699.0</ele><time>2026-05-01T12:46:29.356Z</time></trkpt><trkpt lat="45.5654667" lon="11.0412133"><ele>699.0</ele><time>2026-05-01T12:46:30.356Z</time></trkpt><trkpt lat="45.5652917" lon="11.041245"><ele>699.0</ele><time>2026-05-01T12:46:31.356Z</time></trkpt><trkpt lat="45.56512" lon="11.0412867"><ele>696.3333333333334</ele><time>2026-05-01T12:46:32.356Z</time></trkpt><trkpt lat="45.5649583" lon="11.0413333"><ele>693.6666666666667</ele><time>2026-05-01T12:46:33.355Z</time></trkpt><trkpt lat="45.5647917" lon="11.041385"><ele>691.0</ele><time>2026-05-01T12:46:34.356Z</time></trkpt><trkpt lat="45.5646217" lon="11.04143"><ele>686.6666666666667</ele><time>2026-05-01T12:46:35.356Z</time></trkpt><trkpt lat="45.564455" lon="11.0414733"><ele>682.3333333333334</ele><time>2026-05-01T12:46:36.356Z</time></trkpt><trkpt lat="45.564295" lon="11.04154"><ele>678.0</ele><time>2026-05-01T12:46:37.356Z</time></trkpt><trkpt lat="45.5641333" lon="11.0416217"><ele>682.0</ele><time>2026-05-01T12:46:38.356Z</time></trkpt><trkpt lat="45.56398" lon="11.0417233"><ele>686.0</ele><time>2026-05-01T12:46:39.356Z</time></trkpt><trkpt lat="45.5638317" lon="11.0418667"><ele>690.0</ele><time>2026-05-01T12:46:40.355Z</time></trkpt><trkpt lat="45.5636917" lon="11.0420267"><ele>690.0</ele><time>2026-05-01T12:46:41.356Z</time></trkpt><trkpt lat="45.5635267" lon="11.0421517"><ele>690.0</ele><time>2026-05-01T12:46:42.356Z</time></trkpt><trkpt lat="45.56335" lon="11.0422317"><ele>690.0</ele><time>2026-05-01T12:46:43.355Z</time></trkpt><trkpt lat="45.5631667" lon="11.0422567"><ele>690.0</ele><time>2026-05-01T12:46:44.356Z</time></trkpt><trkpt lat="45.5629667" lon="11.042235"><ele>690.0</ele><time>2026-05-01T12:46:45.355Z</time></trkpt><trkpt lat="45.5627567" lon="11.04221"><ele>690.0</ele><time>2026-05-01T12:46:46.356Z</time></trkpt><trkpt lat="45.5625333" lon="11.042195"><ele>690.6666666666666</ele><time>2026-05-01T12:46:47.356Z</time></trkpt><trkpt lat="45.5623133" lon="11.0421983"><ele>691.3333333333333</ele><time>2026-05-01T12:46:48.356Z</time></trkpt><trkpt lat="45.5621083" lon="11.0422417"><ele>692.0</ele><time>2026-05-01T12:46:49.355Z</time></trkpt><trkpt lat="45.5619083" lon="11.042335"><ele>694.0</ele><time>2026-05-01T12:46:50.356Z</time></trkpt><trkpt lat="45.561725" lon="11.042425"><ele>696.0</ele><time>2026-05-01T12:46:51.356Z</time></trkpt><trkpt lat="45.5615383" lon="11.04247"><ele>698.0</ele><time>2026-05-01T12:46:52.355Z</time></trkpt><trkpt lat="45.5613533" lon="11.04242"><ele>690.0</ele><time>2026-05-01T12:46:53.356Z</time></trkpt><trkpt lat="45.5611683" lon="11.04231"><ele>682.0</ele><time>2026-05-01T12:46:54.356Z</time></trkpt><trkpt lat="45.5609583" lon="11.0421817"><ele>674.0</ele><time>2026-05-01T12:46:55.356Z</time></trkpt><trkpt lat="45.56073" lon="11.042085"><ele>674.0</ele><time>2026-05-01T12:46:56.356Z</time></trkpt><trkpt lat="45.5604717" lon="11.0420133"><ele>674.0</ele><time>2026-05-01T12:46:57.356Z</time></trkpt><trkpt lat="45.5602233" lon="11.041935"><ele>679.5</ele><time>2026-05-01T12:46:58.356Z</time></trkpt><trkpt lat="45.55999" lon="11.0418333"><ele>685.0</ele><time>2026-05-01T12:46:59.356Z</time></trkpt><trkpt lat="45.5597683" lon="11.0417083"><ele>680.5</ele><time>2026-05-01T12:47:00.355Z</time></trkpt><trkpt lat="45.5595617" lon="11.0415583"><ele>676.0</ele><time>2026-05-01T12:47:01.356Z</time></trkpt><trkpt lat="45.5593633" lon="11.0413833"><ele>676.0</ele><time>2026-05-01T12:47:02.356Z</time></trkpt><trkpt lat="45.5591833" lon="11.0411817"><ele>676.0</ele><time>2026-05-01T12:47:03.356Z</time></trkpt><trkpt lat="45.559025" lon="11.0409517"><ele>675.3333333333334</ele><time>2026-05-01T12:47:04.356Z</time></trkpt><trkpt lat="45.5589" lon="11.040695"><ele>674.6666666666666</ele><time>2026-05-01T12:47:05.356Z</time></trkpt><trkpt lat="45.5587967" lon="11.0404417"><ele>674.0</ele><time>2026-05-01T12:47:06.356Z</time></trkpt><trkpt lat="45.55869" lon="11.0402033"><ele>674.0</ele><time>2026-05-01T12:47:07.356Z</time></trkpt><trkpt lat="45.5585317" lon="11.04001"><ele>674.0</ele><time>2026-05-01T12:47:08.356Z</time></trkpt><trkpt lat="45.5583417" lon="11.0398833"><ele>674.0</ele><time>2026-05-01T12:47:09.356Z</time></trkpt><trkpt lat="45.5581217" lon="11.0398217"><ele>671.3333333333333</ele><time>2026-05-01T12:47:10.355Z</time></trkpt><trkpt lat="45.5579233" lon="11.03978"><ele>668.6666666666666</ele><time>2026-05-01T12:47:11.356Z</time></trkpt><trkpt lat="45.5577267" lon="11.0397167"><ele>666.0</ele><time>2026-05-01T12:47:12.356Z</time></trkpt><trkpt lat="45.5575567" lon="11.0396267"><ele>666.0</ele><time>2026-05-01T12:47:13.355Z</time></trkpt><trkpt lat="45.557405" lon="11.03949"><ele>666.0</ele><time>2026-05-01T12:47:14.356Z</time></trkpt><trkpt lat="45.55727" lon="11.03932"><ele>666.0</ele><time>2026-05-01T12:47:15.356Z</time></trkpt><trkpt lat="45.5571417" lon="11.0391567"><ele>664.3333333333334</ele><time>2026-05-01T12:47:16.356Z</time></trkpt><trkpt lat="45.55704" lon="11.03896"><ele>662.6666666666667</ele><time>2026-05-01T12:47:17.356Z</time></trkpt><trkpt lat="45.55694" lon="11.0387767"><ele>661.0</ele><time>2026-05-01T12:47:18.356Z</time></trkpt><trkpt lat="45.5568533" lon="11.0386183"><ele>659.0</ele><time>2026-05-01T12:47:19.356Z</time></trkpt><trkpt lat="45.5567933" lon="11.03846"><ele>657.0</ele><time>2026-05-01T12:47:20.355Z</time></trkpt><trkpt lat="45.5567717" lon="11.0382983"><ele>655.0</ele><time>2026-05-01T12:47:21.356Z</time></trkpt><trkpt lat="45.556785" lon="11.03814"><ele>653.0</ele><time>2026-05-01T12:47:22.356Z</time></trkpt><trkpt lat="45.556845" lon="11.03801"><ele>652.0</ele><time>2026-05-01T12:47:23.356Z</time></trkpt><trkpt lat="45.5569267" lon="11.0378983"><ele>651.0</ele><time>2026-05-01T12:47:24.356Z</time></trkpt><trkpt lat="45.5570367" lon="11.0378033"><ele>650.0</ele><time>2026-05-01T12:47:25.356Z</time></trkpt><trkpt lat="45.5571583" lon="11.037725"><ele>649.0</ele><time>2026-05-01T12:47:26.356Z</time></trkpt><trkpt lat="45.5572833" lon="11.0376583"><ele>649.0</ele><time>2026-05-01T12:47:27.356Z</time></trkpt><trkpt lat="45.5574183" lon="11.03763"><ele>649.0</ele><time>2026-05-01T12:47:28.356Z</time></trkpt><trkpt lat="45.5575533" lon="11.0376417"><ele>649.0</ele><time>2026-05-01T12:47:29.356Z</time></trkpt><trkpt lat="45.5576867" lon="11.0376833"><ele>649.0</ele><time>2026-05-01T12:47:30.356Z</time></trkpt><trkpt lat="45.5578033" lon="11.0377383"><ele>648.2</ele><time>2026-05-01T12:47:31.356Z</time></trkpt><trkpt lat="45.557905" lon="11.0378017"><ele>647.4000000000001</ele><time>2026-05-01T12:47:32.355Z</time></trkpt><trkpt lat="45.5580083" lon="11.03785"><ele>646.6</ele><time>2026-05-01T12:47:33.356Z</time></trkpt><trkpt lat="45.5581033" lon="11.0378683"><ele>645.8</ele><time>2026-05-01T12:47:34.356Z</time></trkpt><trkpt lat="45.5581933" lon="11.03784"><ele>645.0</ele><time>2026-05-01T12:47:35.356Z</time></trkpt><trkpt lat="45.5582733" lon="11.037765"><ele>645.0</ele><time>2026-05-01T12:47:36.356Z</time></trkpt><trkpt lat="45.5583283" lon="11.037665"><ele>645.0</ele><time>2026-05-01T12:47:37.355Z</time></trkpt><trkpt lat="45.5583533" lon="11.0375433"><ele>645.0</ele><time>2026-05-01T12:47:38.356Z</time></trkpt><trkpt lat="45.5583533" lon="11.0374183"><ele>645.0</ele><time>2026-05-01T12:47:39.356Z</time></trkpt><trkpt lat="45.5583283" lon="11.0373"><ele>645.0</ele><time>2026-05-01T12:47:40.356Z</time></trkpt><trkpt lat="45.558265" lon="11.0371983"><ele>645.0</ele><time>2026-05-01T12:47:41.356Z</time></trkpt><trkpt lat="45.5581667" lon="11.0371217"><ele>641.6666666666666</ele><time>2026-05-01T12:47:42.356Z</time></trkpt><trkpt lat="45.5580217" lon="11.0370817"><ele>638.3333333333333</ele><time>2026-05-01T12:47:43.355Z</time></trkpt><trkpt lat="45.5578333" lon="11.0370533"><ele>635.0</ele><time>2026-05-01T12:47:44.356Z</time></trkpt><trkpt lat="45.5576217" lon="11.036995"><ele>635.0</ele><time>2026-05-01T12:47:45.356Z</time></trkpt><trkpt lat="45.5574233" lon="11.0369217"><ele>635.0</ele><time>2026-05-01T12:47:46.356Z</time></trkpt><trkpt lat="45.5572383" lon="11.0368467"><ele>635.0</ele><time>2026-05-01T12:47:47.356Z</time></trkpt><trkpt lat="45.557065" lon="11.0367333"><ele>636.0</ele><time>2026-05-01T12:47:48.356Z</time></trkpt><trkpt lat="45.55692" lon="11.036565"><ele>637.0</ele><time>2026-05-01T12:47:49.356Z</time></trkpt><trkpt lat="45.5567967" lon="11.036385"><ele>638.0</ele><time>2026-05-01T12:47:50.356Z</time></trkpt><trkpt lat="45.5566583" lon="11.0362383"><ele>638.0</ele><time>2026-05-01T12:47:51.356Z</time></trkpt><trkpt lat="45.5564883" lon="11.0361367"><ele>638.0</ele><time>2026-05-01T12:47:52.356Z</time></trkpt><trkpt lat="45.5563067" lon="11.0360817"><ele>638.0</ele><time>2026-05-01T12:47:53.356Z</time></trkpt><trkpt lat="45.5561083" lon="11.0360333"><ele>636.6666666666666</ele><time>2026-05-01T12:47:54.356Z</time></trkpt><trkpt lat="45.5559117" lon="11.0359717"><ele>635.3333333333334</ele><time>2026-05-01T12:47:55.356Z</time></trkpt><trkpt lat="45.55572" lon="11.035915"><ele>634.0</ele><time>2026-05-01T12:47:56.356Z</time></trkpt><trkpt lat="45.5555167" lon="11.0358567"><ele>636.6666666666667</ele><time>2026-05-01T12:47:57.356Z</time></trkpt><trkpt lat="45.5553033" lon="11.0357933"><ele>639.3333333333334</ele><time>2026-05-01T12:47:58.356Z</time></trkpt><trkpt lat="45.5551017" lon="11.03573"><ele>642.0</ele><time>2026-05-01T12:47:59.355Z</time></trkpt><trkpt lat="45.55489" lon="11.0356667"><ele>642.0</ele><time>2026-05-01T12:48:00.356Z</time></trkpt><trkpt lat="45.5546833" lon="11.0355833"><ele>642.0</ele><time>2026-05-01T12:48:01.356Z</time></trkpt><trkpt lat="45.5544867" lon="11.035495"><ele>642.0</ele><time>2026-05-01T12:48:02.356Z</time></trkpt><trkpt lat="45.554295" lon="11.0353917"><ele>638.0</ele><time>2026-05-01T12:48:03.356Z</time></trkpt><trkpt lat="45.5541133" lon="11.0352667"><ele>634.0</ele><time>2026-05-01T12:48:04.356Z</time></trkpt><trkpt lat="45.5539367" lon="11.0351333"><ele>630.0</ele><time>2026-05-01T12:48:05.356Z</time></trkpt><trkpt lat="45.5537583" lon="11.0349867"><ele>628.3333333333334</ele><time>2026-05-01T12:48:06.355Z</time></trkpt><trkpt lat="45.553585" lon="11.03485"><ele>626.6666666666667</ele><time>2026-05-01T12:48:07.356Z</time></trkpt><trkpt lat="45.553415" lon="11.0347217"><ele>625.0</ele><time>2026-05-01T12:48:08.356Z</time></trkpt><trkpt lat="45.5532467" lon="11.0346017"><ele>625.0</ele><time>2026-05-01T12:48:09.356Z</time></trkpt><trkpt lat="45.5530867" lon="11.0344817"><ele>625.0</ele><time>2026-05-01T12:48:10.356Z</time></trkpt><trkpt lat="45.5529383" lon="11.0343483"><ele>625.0</ele><time>2026-05-01T12:48:11.356Z</time></trkpt><trkpt lat="45.5527917" lon="11.0341983"><ele>619.0</ele><time>2026-05-01T12:48:12.356Z</time></trkpt><trkpt lat="45.5526733" lon="11.0340267"><ele>613.0</ele><time>2026-05-01T12:48:13.356Z</time></trkpt><trkpt lat="45.55259" lon="11.033805"><ele>607.0</ele><time>2026-05-01T12:48:14.356Z</time></trkpt><trkpt lat="45.5525417" lon="11.0335533"><ele>607.0</ele><time>2026-05-01T12:48:15.356Z</time></trkpt><trkpt lat="45.5525117" lon="11.033285"><ele>607.0</ele><time>2026-05-01T12:48:16.356Z</time></trkpt><trkpt lat="45.5524833" lon="11.033"><ele>607.0</ele><time>2026-05-01T12:48:17.356Z</time></trkpt><trkpt lat="45.55245" lon="11.0327"><ele>609.5</ele><time>2026-05-01T12:48:18.356Z</time></trkpt><trkpt lat="45.552385" lon="11.0323967"><ele>612.0</ele><time>2026-05-01T12:48:19.356Z</time></trkpt><trkpt lat="45.5522733" lon="11.032095"><ele>612.0</ele><time>2026-05-01T12:48:20.356Z</time></trkpt><trkpt lat="45.5521583" lon="11.0318383"><ele>612.0</ele><time>2026-05-01T12:48:21.356Z</time></trkpt><trkpt lat="45.55204" lon="11.0315917"><ele>612.0</ele><time>2026-05-01T12:48:22.356Z</time></trkpt><trkpt lat="45.5519383" lon="11.0313483"><ele>606.6666666666666</ele><time>2026-05-01T12:48:23.355Z</time></trkpt><trkpt lat="45.55185" lon="11.0311183"><ele>601.3333333333333</ele><time>2026-05-01T12:48:24.355Z</time></trkpt><trkpt lat="45.5517867" lon="11.0308883"><ele>596.0</ele><time>2026-05-01T12:48:25.356Z</time></trkpt><trkpt lat="45.5517417" lon="11.0306467"><ele>596.0</ele><time>2026-05-01T12:48:26.356Z</time></trkpt><trkpt lat="45.5516833" lon="11.0304183"><ele>596.0</ele><time>2026-05-01T12:48:27.356Z</time></trkpt><trkpt lat="45.5516183" lon="11.0301933"><ele>596.0</ele><time>2026-05-01T12:48:28.356Z</time></trkpt><trkpt lat="45.55154" lon="11.0299967"><ele>595.6666666666666</ele><time>2026-05-01T12:48:29.356Z</time></trkpt><trkpt lat="45.5514317" lon="11.0298283"><ele>595.3333333333334</ele><time>2026-05-01T12:48:30.356Z</time></trkpt><trkpt lat="45.5513" lon="11.0297233"><ele>595.0</ele><time>2026-05-01T12:48:31.356Z</time></trkpt><trkpt lat="45.5511583" lon="11.0296367"><ele>595.0</ele><time>2026-05-01T12:48:32.356Z</time></trkpt><trkpt lat="45.5510183" lon="11.0295867"><ele>595.0</ele><time>2026-05-01T12:48:33.356Z</time></trkpt><trkpt lat="45.5508967" lon="11.0295283"><ele>595.0</ele><time>2026-05-01T12:48:34.356Z</time></trkpt><trkpt lat="45.5507817" lon="11.029475"><ele>595.0</ele><time>2026-05-01T12:48:35.356Z</time></trkpt><trkpt lat="45.5506717" lon="11.02943"><ele>595.0</ele><time>2026-05-01T12:48:36.356Z</time></trkpt><trkpt lat="45.5505667" lon="11.0293783"><ele>595.0</ele><time>2026-05-01T12:48:37.356Z</time></trkpt><trkpt lat="45.55047" lon="11.0293333"><ele>595.0</ele><time>2026-05-01T12:48:38.356Z</time></trkpt><trkpt lat="45.5503767" lon="11.029295"><ele>595.0</ele><time>2026-05-01T12:48:39.356Z</time></trkpt><trkpt lat="45.550295" lon="11.0292167"><ele>595.0</ele><time>2026-05-01T12:48:40.356Z</time></trkpt><trkpt lat="45.5502267" lon="11.0291417"><ele>593.0</ele><time>2026-05-01T12:48:41.356Z</time></trkpt><trkpt lat="45.550165" lon="11.0290733"><ele>591.0</ele><time>2026-05-01T12:48:42.355Z</time></trkpt><trkpt lat="45.5501" lon="11.0290383"><ele>589.0</ele><time>2026-05-01T12:48:43.356Z</time></trkpt><trkpt lat="45.5500167" lon="11.0290417"><ele>587.0</ele><time>2026-05-01T12:48:44.356Z</time></trkpt><trkpt lat="45.5499317" lon="11.02904"><ele>585.0</ele><time>2026-05-01T12:48:45.356Z</time></trkpt><trkpt lat="45.549835" lon="11.0289983"><ele>583.0</ele><time>2026-05-01T12:48:46.356Z</time></trkpt><trkpt lat="45.5497467" lon="11.0288833"><ele>583.0</ele><time>2026-05-01T12:48:47.355Z</time></trkpt><trkpt lat="45.5496617" lon="11.0287467"><ele>583.0</ele><time>2026-05-01T12:48:48.356Z</time></trkpt><trkpt lat="45.54958" lon="11.0285783"><ele>583.0</ele><time>2026-05-01T12:48:49.356Z</time></trkpt><trkpt lat="45.5495233" lon="11.02839"><ele>583.0</ele><time>2026-05-01T12:48:50.356Z</time></trkpt><trkpt lat="45.5494867" lon="11.02819"><ele>581.75</ele><time>2026-05-01T12:48:51.356Z</time></trkpt><trkpt lat="45.5494817" lon="11.027985"><ele>580.5</ele><time>2026-05-01T12:48:52.356Z</time></trkpt><trkpt lat="45.5495083" lon="11.027775"><ele>579.25</ele><time>2026-05-01T12:48:53.356Z</time></trkpt><trkpt lat="45.54955" lon="11.0275683"><ele>578.0</ele><time>2026-05-01T12:48:54.356Z</time></trkpt><trkpt lat="45.5496233" lon="11.0273317"><ele>571.0</ele><time>2026-05-01T12:48:55.356Z</time></trkpt><trkpt lat="45.5497233" lon="11.02715"><ele>564.0</ele><time>2026-05-01T12:48:56.356Z</time></trkpt><trkpt lat="45.5498533" lon="11.027"><ele>557.0</ele><time>2026-05-01T12:48:57.356Z</time></trkpt><trkpt lat="45.5499983" lon="11.0268733"><ele>557.0</ele><time>2026-05-01T12:48:58.355Z</time></trkpt><trkpt lat="45.5501433" lon="11.0267567"><ele>557.0</ele><time>2026-05-01T12:48:59.356Z</time></trkpt><trkpt lat="45.550285" lon="11.02663"><ele>557.0</ele><time>2026-05-01T12:49:00.356Z</time></trkpt><trkpt lat="45.5504233" lon="11.026485"><ele>560.0</ele><time>2026-05-01T12:49:01.354Z</time></trkpt><trkpt lat="45.5505333" lon="11.0262817"><ele>563.0</ele><time>2026-05-01T12:49:02.355Z</time></trkpt><trkpt lat="45.5505867" lon="11.0260583"><ele>566.0</ele><time>2026-05-01T12:49:03.355Z</time></trkpt><trkpt lat="45.5505867" lon="11.0258283"><ele>568.6666666666666</ele><time>2026-05-01T12:49:04.355Z</time></trkpt><trkpt lat="45.5505317" lon="11.0255833"><ele>571.3333333333334</ele><time>2026-05-01T12:49:05.355Z</time></trkpt><trkpt lat="45.5504283" lon="11.02535"><ele>574.0</ele><time>2026-05-01T12:49:06.354Z</time></trkpt><trkpt lat="45.5502733" lon="11.0251517"><ele>568.6666666666667</ele><time>2026-05-01T12:49:07.355Z</time></trkpt><trkpt lat="45.5500967" lon="11.02499"><ele>563.3333333333334</ele><time>2026-05-01T12:49:08.355Z</time></trkpt><trkpt lat="45.5499133" lon="11.02483"><ele>558.0</ele><time>2026-05-01T12:49:09.355Z</time></trkpt><trkpt lat="45.5497267" lon="11.02467"><ele>551.0</ele><time>2026-05-01T12:49:10.355Z</time></trkpt><trkpt lat="45.5495367" lon="11.0245167"><ele>544.0</ele><time>2026-05-01T12:49:11.355Z</time></trkpt><trkpt lat="45.5493433" lon="11.0243417"><ele>537.0</ele><time>2026-05-01T12:49:12.355Z</time></trkpt><trkpt lat="45.5491617" lon="11.0241567"><ele>535.3333333333334</ele><time>2026-05-01T12:49:13.355Z</time></trkpt><trkpt lat="45.5489867" lon="11.0239733"><ele>533.6666666666667</ele><time>2026-05-01T12:49:14.355Z</time></trkpt><trkpt lat="45.5488233" lon="11.0238033"><ele>532.0</ele><time>2026-05-01T12:49:15.355Z</time></trkpt><trkpt lat="45.54865" lon="11.0236383"><ele>532.0</ele><time>2026-05-01T12:49:16.355Z</time></trkpt><trkpt lat="45.548465" lon="11.0235383"><ele>532.0</ele><time>2026-05-01T12:49:17.355Z</time></trkpt><trkpt lat="45.5482583" lon="11.0235017"><ele>532.0</ele><time>2026-05-01T12:49:18.355Z</time></trkpt><trkpt lat="45.548045" lon="11.0235183"><ele>529.3333333333334</ele><time>2026-05-01T12:49:19.355Z</time></trkpt><trkpt lat="45.5478433" lon="11.0235683"><ele>526.6666666666666</ele><time>2026-05-01T12:49:20.355Z</time></trkpt><trkpt lat="45.5476433" lon="11.0236067"><ele>524.0</ele><time>2026-05-01T12:49:21.354Z</time></trkpt><trkpt lat="45.547445" lon="11.0236117"><ele>524.0</ele><time>2026-05-01T12:49:22.355Z</time></trkpt><trkpt lat="45.54724" lon="11.02357"><ele>524.0</ele><time>2026-05-01T12:49:23.355Z</time></trkpt><trkpt lat="45.5470317" lon="11.0234717"><ele>524.0</ele><time>2026-05-01T12:49:24.355Z</time></trkpt><trkpt lat="45.5468217" lon="11.0233517"><ele>522.5</ele><time>2026-05-01T12:49:25.354Z</time></trkpt><trkpt lat="45.5465933" lon="11.0232267"><ele>521.0</ele><time>2026-05-01T12:49:26.355Z</time></trkpt><trkpt lat="45.5463733" lon="11.0231067"><ele>514.0</ele><time>2026-05-01T12:49:27.355Z</time></trkpt><trkpt lat="45.54615" lon="11.0229833"><ele>507.0</ele><time>2026-05-01T12:49:28.354Z</time></trkpt><trkpt lat="45.545935" lon="11.0228583"><ele>507.0</ele><time>2026-05-01T12:49:29.355Z</time></trkpt><trkpt lat="45.5457283" lon="11.02274"><ele>507.0</ele><time>2026-05-01T12:49:30.354Z</time></trkpt><trkpt lat="45.545525" lon="11.0226283"><ele>507.0</ele><time>2026-05-01T12:49:31.355Z</time></trkpt><trkpt lat="45.54533" lon="11.0225217"><ele>504.66666666666663</ele><time>2026-05-01T12:49:32.355Z</time></trkpt><trkpt lat="45.5451417" lon="11.0224133"><ele>502.3333333333333</ele><time>2026-05-01T12:49:33.355Z</time></trkpt><trkpt lat="45.5449583" lon="11.022305"><ele>500.0</ele><time>2026-05-01T12:49:34.355Z</time></trkpt><trkpt lat="45.5447883" lon="11.022195"><ele>500.0</ele><time>2026-05-01T12:49:35.355Z</time></trkpt><trkpt lat="45.5446333" lon="11.022065"><ele>500.0</ele><time>2026-05-01T12:49:36.355Z</time></trkpt><trkpt lat="45.5443483" lon="11.0217283"><ele>495.3333333333333</ele><time>2026-05-01T12:49:38.354Z</time></trkpt><trkpt lat="45.5442283" lon="11.021535"><ele>490.66666666666663</ele><time>2026-05-01T12:49:39.355Z</time></trkpt><trkpt lat="45.54412" lon="11.0213167"><ele>486.0</ele><time>2026-05-01T12:49:40.355Z</time></trkpt><trkpt lat="45.54402" lon="11.0211017"><ele>486.0</ele><time>2026-05-01T12:49:41.355Z</time></trkpt><trkpt lat="45.543925" lon="11.0208867"><ele>486.0</ele><time>2026-05-01T12:49:42.355Z</time></trkpt><trkpt lat="45.5438317" lon="11.02068"><ele>486.0</ele><time>2026-05-01T12:49:43.355Z</time></trkpt><trkpt lat="45.5437383" lon="11.0204717"><ele>481.66666666666663</ele><time>2026-05-01T12:49:44.355Z</time></trkpt><trkpt lat="45.54365" lon="11.0202733"><ele>477.3333333333333</ele><time>2026-05-01T12:49:45.354Z</time></trkpt><trkpt lat="45.5435633" lon="11.0200833"><ele>473.0</ele><time>2026-05-01T12:49:46.355Z</time></trkpt><trkpt lat="45.543485" lon="11.0199017"><ele>473.0</ele><time>2026-05-01T12:49:47.355Z</time></trkpt><trkpt lat="45.5434167" lon="11.019725"><ele>473.0</ele><time>2026-05-01T12:49:48.355Z</time></trkpt><trkpt lat="45.5433617" lon="11.0195433"><ele>473.0</ele><time>2026-05-01T12:49:49.354Z</time></trkpt><trkpt lat="45.5433167" lon="11.0193483"><ele>473.0</ele><time>2026-05-01T12:49:50.355Z</time></trkpt><trkpt lat="45.5432817" lon="11.019145"><ele>472.25</ele><time>2026-05-01T12:49:51.355Z</time></trkpt><trkpt lat="45.5432467" lon="11.0189433"><ele>471.5</ele><time>2026-05-01T12:49:52.355Z</time></trkpt><trkpt lat="45.5432233" lon="11.0187267"><ele>470.75</ele><time>2026-05-01T12:49:53.355Z</time></trkpt><trkpt lat="45.5431783" lon="11.018525"><ele>470.0</ele><time>2026-05-01T12:49:54.355Z</time></trkpt><trkpt lat="45.5431267" lon="11.0183233"><ele>471.66666666666663</ele><time>2026-05-01T12:49:55.355Z</time></trkpt><trkpt lat="45.5430683" lon="11.0181233"><ele>473.33333333333337</ele><time>2026-05-01T12:49:56.355Z</time></trkpt><trkpt lat="45.5429983" lon="11.017925"><ele>475.0</ele><time>2026-05-01T12:49:57.355Z</time></trkpt><trkpt lat="45.54291" lon="11.01774"><ele>471.33333333333337</ele><time>2026-05-01T12:49:58.355Z</time></trkpt><trkpt lat="45.5428067" lon="11.0175717"><ele>467.66666666666663</ele><time>2026-05-01T12:49:59.355Z</time></trkpt><trkpt lat="45.542695" lon="11.0174117"><ele>464.0</ele><time>2026-05-01T12:50:00.355Z</time></trkpt><trkpt lat="45.5425567" lon="11.01726"><ele>464.0</ele><time>2026-05-01T12:50:01.354Z</time></trkpt><trkpt lat="45.5423733" lon="11.0171167"><ele>464.0</ele><time>2026-05-01T12:50:02.355Z</time></trkpt><trkpt lat="45.542155" lon="11.016985"><ele>464.0</ele><time>2026-05-01T12:50:03.354Z</time></trkpt><trkpt lat="45.54195" lon="11.0168267"><ele>461.3333333333333</ele><time>2026-05-01T12:50:04.355Z</time></trkpt><trkpt lat="45.5417633" lon="11.016665"><ele>458.66666666666663</ele><time>2026-05-01T12:50:05.355Z</time></trkpt><trkpt lat="45.5415817" lon="11.0164917"><ele>456.0</ele><time>2026-05-01T12:50:06.355Z</time></trkpt><trkpt lat="45.5414083" lon="11.016295"><ele>456.0</ele><time>2026-05-01T12:50:07.355Z</time></trkpt><trkpt lat="45.5412583" lon="11.0160633"><ele>456.0</ele><time>2026-05-01T12:50:08.354Z</time></trkpt><trkpt lat="45.5411117" lon="11.0158017"><ele>448.0</ele><time>2026-05-01T12:50:09.355Z</time></trkpt><trkpt lat="45.5409617" lon="11.015535"><ele>440.0</ele><time>2026-05-01T12:50:10.354Z</time></trkpt><trkpt lat="45.5408083" lon="11.0152817"><ele>440.0</ele><time>2026-05-01T12:50:11.355Z</time></trkpt><trkpt lat="45.54065" lon="11.0150083"><ele>440.0</ele><time>2026-05-01T12:50:12.355Z</time></trkpt><trkpt lat="45.5404867" lon="11.0147233"><ele>429.5</ele><time>2026-05-01T12:50:13.355Z</time></trkpt><trkpt lat="45.5403217" lon="11.0144333"><ele>419.0</ele><time>2026-05-01T12:50:14.355Z</time></trkpt><trkpt lat="45.5401517" lon="11.0141567"><ele>423.0</ele><time>2026-05-01T12:50:15.355Z</time></trkpt><trkpt lat="45.5399833" lon="11.0138767"><ele>427.0</ele><time>2026-05-01T12:50:16.355Z</time></trkpt><trkpt lat="45.5398167" lon="11.0135983"><ele>427.0</ele><time>2026-05-01T12:50:17.355Z</time></trkpt><trkpt lat="45.5396533" lon="11.0133317"><ele>427.0</ele><time>2026-05-01T12:50:18.355Z</time></trkpt><trkpt lat="45.5394767" lon="11.0130783"><ele>420.0</ele><time>2026-05-01T12:50:19.355Z</time></trkpt><trkpt lat="45.5392933" lon="11.012835"><ele>413.0</ele><time>2026-05-01T12:50:20.355Z</time></trkpt><trkpt lat="45.5390967" lon="11.0126167"><ele>410.0</ele><time>2026-05-01T12:50:21.355Z</time></trkpt><trkpt lat="45.5388967" lon="11.01243"><ele>407.0</ele><time>2026-05-01T12:50:22.355Z</time></trkpt><trkpt lat="45.5387017" lon="11.0122667"><ele>407.0</ele><time>2026-05-01T12:50:23.355Z</time></trkpt><trkpt lat="45.5385117" lon="11.01211"><ele>407.0</ele><time>2026-05-01T12:50:24.355Z</time></trkpt><trkpt lat="45.538325" lon="11.01196"><ele>407.0</ele><time>2026-05-01T12:50:25.355Z</time></trkpt><trkpt lat="45.5381467" lon="11.011805"><ele>407.66666666666663</ele><time>2026-05-01T12:50:26.355Z</time></trkpt><trkpt lat="45.5379767" lon="11.01164"><ele>408.33333333333337</ele><time>2026-05-01T12:50:27.355Z</time></trkpt><trkpt lat="45.53783" lon="11.0114567"><ele>409.0</ele><time>2026-05-01T12:50:28.355Z</time></trkpt><trkpt lat="45.5377283" lon="11.011225"><ele>401.33333333333337</ele><time>2026-05-01T12:50:29.355Z</time></trkpt><trkpt lat="45.5376683" lon="11.0109733"><ele>393.66666666666663</ele><time>2026-05-01T12:50:30.355Z</time></trkpt><trkpt lat="45.5376483" lon="11.010695"><ele>386.0</ele><time>2026-05-01T12:50:31.355Z</time></trkpt><trkpt lat="45.53766" lon="11.0104217"><ele>383.3333333333333</ele><time>2026-05-01T12:50:32.355Z</time></trkpt><trkpt lat="45.53772" lon="11.01016"><ele>380.66666666666663</ele><time>2026-05-01T12:50:33.355Z</time></trkpt><trkpt lat="45.5378217" lon="11.0099367"><ele>378.0</ele><time>2026-05-01T12:50:34.355Z</time></trkpt><trkpt lat="45.53795" lon="11.0097517"><ele>376.6666666666667</ele><time>2026-05-01T12:50:35.355Z</time></trkpt><trkpt lat="45.5381117" lon="11.009605"><ele>375.33333333333337</ele><time>2026-05-01T12:50:36.355Z</time></trkpt><trkpt lat="45.5382883" lon="11.0095317"><ele>374.0</ele><time>2026-05-01T12:50:37.355Z</time></trkpt><trkpt lat="45.5384817" lon="11.0095267"><ele>374.0</ele><time>2026-05-01T12:50:38.355Z</time></trkpt><trkpt lat="45.5386983" lon="11.0095633"><ele>374.0</ele><time>2026-05-01T12:50:39.355Z</time></trkpt><trkpt lat="45.5389083" lon="11.0096433"><ele>374.0</ele><time>2026-05-01T12:50:40.355Z</time></trkpt><trkpt lat="45.5390983" lon="11.009715"><ele>370.6666666666667</ele><time>2026-05-01T12:50:41.354Z</time></trkpt><trkpt lat="45.5392817" lon="11.009755"><ele>367.3333333333333</ele><time>2026-05-01T12:50:42.355Z</time></trkpt><trkpt lat="45.53947" lon="11.0097817"><ele>364.0</ele><time>2026-05-01T12:50:43.355Z</time></trkpt><trkpt lat="45.539675" lon="11.009765"><ele>363.3333333333333</ele><time>2026-05-01T12:50:44.354Z</time></trkpt><trkpt lat="45.5398683" lon="11.009685"><ele>362.6666666666667</ele><time>2026-05-01T12:50:45.355Z</time></trkpt><trkpt lat="45.5400467" lon="11.0095717"><ele>362.0</ele><time>2026-05-01T12:50:46.355Z</time></trkpt><trkpt lat="45.5402017" lon="11.0093867"><ele>362.0</ele><time>2026-05-01T12:50:47.355Z</time></trkpt><trkpt lat="45.5403417" lon="11.0091833"><ele>362.0</ele><time>2026-05-01T12:50:48.355Z</time></trkpt><trkpt lat="45.540495" lon="11.009005"><ele>362.0</ele><time>2026-05-01T12:50:49.355Z</time></trkpt><trkpt lat="45.540665" lon="11.0088583"><ele>358.0</ele><time>2026-05-01T12:50:50.354Z</time></trkpt><trkpt lat="45.5408517" lon="11.0087483"><ele>354.0</ele><time>2026-05-01T12:50:51.355Z</time></trkpt><trkpt lat="45.54105" lon="11.0086633"><ele>350.0</ele><time>2026-05-01T12:50:52.355Z</time></trkpt><trkpt lat="45.5412517" lon="11.0085833"><ele>349.0</ele><time>2026-05-01T12:50:53.355Z</time></trkpt><trkpt lat="45.5414533" lon="11.0085033"><ele>348.0</ele><time>2026-05-01T12:50:54.355Z</time></trkpt><trkpt lat="45.5416517" lon="11.0084333"><ele>347.0</ele><time>2026-05-01T12:50:55.355Z</time></trkpt><trkpt lat="45.5418567" lon="11.0084"><ele>343.6666666666667</ele><time>2026-05-01T12:50:56.354Z</time></trkpt><trkpt lat="45.542075" lon="11.0084"><ele>340.3333333333333</ele><time>2026-05-01T12:50:57.355Z</time></trkpt><trkpt lat="45.5422867" lon="11.0084217"><ele>337.0</ele><time>2026-05-01T12:50:58.355Z</time></trkpt><trkpt lat="45.5425" lon="11.00848"><ele>337.0</ele><time>2026-05-01T12:50:59.355Z</time></trkpt><trkpt lat="45.542705" lon="11.0085583"><ele>337.0</ele><time>2026-05-01T12:51:00.355Z</time></trkpt><trkpt lat="45.5429083" lon="11.0086967"><ele>337.0</ele><time>2026-05-01T12:51:01.355Z</time></trkpt><trkpt lat="45.5430933" lon="11.0088467"><ele>335.66666666666663</ele><time>2026-05-01T12:51:02.355Z</time></trkpt><trkpt lat="45.5432717" lon="11.009015"><ele>334.3333333333333</ele><time>2026-05-01T12:51:03.355Z</time></trkpt><trkpt lat="45.5434183" lon="11.0092167"><ele>333.0</ele><time>2026-05-01T12:51:04.355Z</time></trkpt><trkpt lat="45.5435367" lon="11.0094483"><ele>333.0</ele><time>2026-05-01T12:51:05.355Z</time></trkpt><trkpt lat="45.5436633" lon="11.0096567"><ele>333.0</ele><time>2026-05-01T12:51:06.355Z</time></trkpt><trkpt lat="45.5437983" lon="11.0098117"><ele>333.0</ele><time>2026-05-01T12:51:07.355Z</time></trkpt><trkpt lat="45.5439367" lon="11.00993"><ele>323.0</ele><time>2026-05-01T12:51:08.355Z</time></trkpt><trkpt lat="45.54409" lon="11.0099883"><ele>313.0</ele><time>2026-05-01T12:51:09.355Z</time></trkpt><trkpt lat="45.5442467" lon="11.0099633"><ele>303.0</ele><time>2026-05-01T12:51:10.354Z</time></trkpt><trkpt lat="45.5444217" lon="11.0098717"><ele>314.6666666666667</ele><time>2026-05-01T12:51:11.355Z</time></trkpt><trkpt lat="45.54458" lon="11.009715"><ele>326.33333333333337</ele><time>2026-05-01T12:51:12.355Z</time></trkpt><trkpt lat="45.5447283" lon="11.0095033"><ele>338.0</ele><time>2026-05-01T12:51:13.354Z</time></trkpt><trkpt lat="45.544845" lon="11.0092367"><ele>328.0</ele><time>2026-05-01T12:51:14.355Z</time></trkpt><trkpt lat="45.5449217" lon="11.0088983"><ele>318.0</ele><time>2026-05-01T12:51:15.355Z</time></trkpt><trkpt lat="45.544955" lon="11.0085383"><ele>312.6666666666667</ele><time>2026-05-01T12:51:16.355Z</time></trkpt><trkpt lat="45.5449933" lon="11.0082067"><ele>307.33333333333337</ele><time>2026-05-01T12:51:17.355Z</time></trkpt><trkpt lat="45.5450517" lon="11.0079133"><ele>302.0</ele><time>2026-05-01T12:51:18.355Z</time></trkpt><trkpt lat="45.5451367" lon="11.00765"><ele>301.33333333333337</ele><time>2026-05-01T12:51:19.355Z</time></trkpt><trkpt lat="45.545245" lon="11.0074117"><ele>300.6666666666667</ele><time>2026-05-01T12:51:20.355Z</time></trkpt><trkpt lat="45.5453867" lon="11.00721"><ele>300.0</ele><time>2026-05-01T12:51:21.355Z</time></trkpt><trkpt lat="45.5455667" lon="11.0070583"><ele>300.0</ele><time>2026-05-01T12:51:22.355Z</time></trkpt><trkpt lat="45.5457667" lon="11.0069167"><ele>300.0</ele><time>2026-05-01T12:51:23.355Z</time></trkpt><trkpt lat="45.54598" lon="11.0067733"><ele>291.0</ele><time>2026-05-01T12:51:24.355Z</time></trkpt><trkpt lat="45.5461883" lon="11.0066"><ele>282.0</ele><time>2026-05-01T12:51:25.355Z</time></trkpt><trkpt lat="45.5463917" lon="11.006425"><ele>282.0</ele><time>2026-05-01T12:51:26.354Z</time></trkpt><trkpt lat="45.5465917" lon="11.0062567"><ele>282.0</ele><time>2026-05-01T12:51:27.355Z</time></trkpt><trkpt lat="45.5467917" lon="11.0060983"><ele>282.0</ele><time>2026-05-01T12:51:28.355Z</time></trkpt><trkpt lat="45.5469767" lon="11.005935"><ele>282.0</ele><time>2026-05-01T12:51:29.355Z</time></trkpt><trkpt lat="45.54716" lon="11.0057883"><ele>282.0</ele><time>2026-05-01T12:51:30.354Z</time></trkpt><trkpt lat="45.5473367" lon="11.00566"><ele>278.0</ele><time>2026-05-01T12:51:31.354Z</time></trkpt><trkpt lat="45.547515" lon="11.00553"><ele>274.0</ele><time>2026-05-01T12:51:32.355Z</time></trkpt><trkpt lat="45.5477067" lon="11.0054133"><ele>270.0</ele><time>2026-05-01T12:51:33.355Z</time></trkpt><trkpt lat="45.547905" lon="11.0053083"><ele>270.0</ele><time>2026-05-01T12:51:34.354Z</time></trkpt><trkpt lat="45.548115" lon="11.0052333"><ele>270.0</ele><time>2026-05-01T12:51:35.355Z</time></trkpt><trkpt lat="45.5483217" lon="11.0051717"><ele>270.0</ele><time>2026-05-01T12:51:36.355Z</time></trkpt><trkpt lat="45.54853" lon="11.00512"><ele>269.0</ele><time>2026-05-01T12:51:37.355Z</time></trkpt><trkpt lat="45.54873" lon="11.0050833"><ele>268.0</ele><time>2026-05-01T12:51:38.354Z</time></trkpt><trkpt lat="45.54893" lon="11.00507"><ele>267.0</ele><time>2026-05-01T12:51:39.355Z</time></trkpt><trkpt lat="45.5491267" lon="11.0050817"><ele>267.0</ele><time>2026-05-01T12:51:40.355Z</time></trkpt><trkpt lat="45.54934" lon="11.005135"><ele>267.0</ele><time>2026-05-01T12:51:41.355Z</time></trkpt><trkpt lat="45.549555" lon="11.0051833"><ele>267.0</ele><time>2026-05-01T12:51:42.355Z</time></trkpt><trkpt lat="45.5497733" lon="11.00524"><ele>263.3333333333333</ele><time>2026-05-01T12:51:43.355Z</time></trkpt><trkpt lat="45.5499883" lon="11.0053017"><ele>259.66666666666663</ele><time>2026-05-01T12:51:44.355Z</time></trkpt><trkpt lat="45.550195" lon="11.00536"><ele>256.0</ele><time>2026-05-01T12:51:45.355Z</time></trkpt><trkpt lat="45.5504017" lon="11.0054183"><ele>254.33333333333331</ele><time>2026-05-01T12:51:46.355Z</time></trkpt><trkpt lat="45.5505817" lon="11.0054433"><ele>252.66666666666669</ele><time>2026-05-01T12:51:47.355Z</time></trkpt><trkpt lat="45.5507683" lon="11.0054917"><ele>251.0</ele><time>2026-05-01T12:51:48.355Z</time></trkpt><trkpt lat="45.5509567" lon="11.00551"><ele>251.0</ele><time>2026-05-01T12:51:49.354Z</time></trkpt><trkpt lat="45.5511383" lon="11.0054883"><ele>251.0</ele><time>2026-05-01T12:51:50.355Z</time></trkpt><trkpt lat="45.551315" lon="11.00542"><ele>251.0</ele><time>2026-05-01T12:51:51.355Z</time></trkpt><trkpt lat="45.551465" lon="11.0053067"><ele>250.66666666666669</ele><time>2026-05-01T12:51:52.355Z</time></trkpt><trkpt lat="45.5515783" lon="11.0051417"><ele>250.33333333333331</ele><time>2026-05-01T12:51:53.355Z</time></trkpt><trkpt lat="45.5516733" lon="11.0049583"><ele>250.0</ele><time>2026-05-01T12:51:54.354Z</time></trkpt><trkpt lat="45.5517283" lon="11.0047467"><ele>250.0</ele><time>2026-05-01T12:51:55.354Z</time></trkpt><trkpt lat="45.5517533" lon="11.0045033"><ele>250.0</ele><time>2026-05-01T12:51:56.355Z</time></trkpt><trkpt lat="45.551745" lon="11.0042667"><ele>250.0</ele><time>2026-05-01T12:51:57.354Z</time></trkpt><trkpt lat="45.5517083" lon="11.0040317"><ele>250.33333333333331</ele><time>2026-05-01T12:51:58.355Z</time></trkpt><trkpt lat="45.5516433" lon="11.003815"><ele>250.66666666666669</ele><time>2026-05-01T12:51:59.355Z</time></trkpt><trkpt lat="45.5515583" lon="11.003635"><ele>251.0</ele><time>2026-05-01T12:52:00.355Z</time></trkpt><trkpt lat="45.5514633" lon="11.003495"><ele>251.0</ele><time>2026-05-01T12:52:01.355Z</time></trkpt><trkpt lat="45.551355" lon="11.0033767"><ele>251.0</ele><time>2026-05-01T12:52:02.355Z</time></trkpt><trkpt lat="45.5512467" lon="11.0032867"><ele>251.0</ele><time>2026-05-01T12:52:03.355Z</time></trkpt><trkpt lat="45.5511333" lon="11.00323"><ele>251.0</ele><time>2026-05-01T12:52:04.354Z</time></trkpt><trkpt lat="45.5509967" lon="11.0031967"><ele>249.75</ele><time>2026-05-01T12:52:05.355Z</time></trkpt><trkpt lat="45.5508533" lon="11.0031933"><ele>248.5</ele><time>2026-05-01T12:52:06.355Z</time></trkpt><trkpt lat="45.5507117" lon="11.0032133"><ele>247.25</ele><time>2026-05-01T12:52:07.354Z</time></trkpt><trkpt lat="45.5505633" lon="11.0032467"><ele>246.0</ele><time>2026-05-01T12:52:08.355Z</time></trkpt><trkpt lat="45.5504133" lon="11.0032817"><ele>246.0</ele><time>2026-05-01T12:52:09.355Z</time></trkpt><trkpt lat="45.5502683" lon="11.00332"><ele>246.0</ele><time>2026-05-01T12:52:10.355Z</time></trkpt><trkpt lat="45.55013" lon="11.0033617"><ele>246.0</ele><time>2026-05-01T12:52:11.354Z</time></trkpt><trkpt lat="45.5499917" lon="11.0034083"><ele>246.0</ele><time>2026-05-01T12:52:12.355Z</time></trkpt><trkpt lat="45.5498567" lon="11.0034467"><ele>245.5</ele><time>2026-05-01T12:52:13.355Z</time></trkpt><trkpt lat="45.54972" lon="11.003495"><ele>245.0</ele><time>2026-05-01T12:52:14.355Z</time></trkpt><trkpt lat="45.5495867" lon="11.0035267"><ele>244.5</ele><time>2026-05-01T12:52:15.355Z</time></trkpt><trkpt lat="45.5494633" lon="11.00356"><ele>244.0</ele><time>2026-05-01T12:52:16.355Z</time></trkpt><trkpt lat="45.549335" lon="11.0035867"><ele>243.5</ele><time>2026-05-01T12:52:17.355Z</time></trkpt><trkpt lat="45.549215" lon="11.003615"><ele>243.0</ele><time>2026-05-01T12:52:18.355Z</time></trkpt><trkpt lat="45.5491" lon="11.0036367"><ele>242.5</ele><time>2026-05-01T12:52:19.355Z</time></trkpt><trkpt lat="45.5489883" lon="11.0036583"><ele>242.0</ele><time>2026-05-01T12:52:20.355Z</time></trkpt><trkpt lat="45.548885" lon="11.003685"><ele>242.00000000000003</ele><time>2026-05-01T12:52:21.355Z</time></trkpt><trkpt lat="45.54881" lon="11.003705"><ele>242.0</ele><time>2026-05-01T12:52:22.355Z</time></trkpt><trkpt lat="45.5487483" lon="11.0037317"><ele>242.0</ele><time>2026-05-01T12:52:23.355Z</time></trkpt><trkpt lat="45.5486867" lon="11.0037567"><ele>242.0</ele><time>2026-05-01T12:52:24.355Z</time></trkpt><trkpt lat="45.548625" lon="11.0037783"><ele>242.00000000000003</ele><time>2026-05-01T12:52:25.355Z</time></trkpt><trkpt lat="45.548505" lon="11.0037817"><ele>242.0</ele><time>2026-05-01T12:52:27.355Z</time></trkpt><trkpt lat="45.5483983" lon="11.0037167"><ele>241.6</ele><time>2026-05-01T12:52:29.355Z</time></trkpt><trkpt lat="45.5482883" lon="11.0037083"><ele>241.2</ele><time>2026-05-01T12:52:31.355Z</time></trkpt><trkpt lat="45.5481633" lon="11.0037733"><ele>240.8</ele><time>2026-05-01T12:52:33.355Z</time></trkpt><trkpt lat="45.54809" lon="11.0037883"><ele>240.4</ele><time>2026-05-01T12:52:34.355Z</time></trkpt><trkpt lat="45.548005" lon="11.0037883"><ele>240.0</ele><time>2026-05-01T12:52:35.355Z</time></trkpt><trkpt lat="45.5479167" lon="11.0037867"><ele>239.8</ele><time>2026-05-01T12:52:36.354Z</time></trkpt><trkpt lat="45.547825" lon="11.0037883"><ele>239.6</ele><time>2026-05-01T12:52:37.355Z</time></trkpt><trkpt lat="45.54773" lon="11.00379"><ele>239.39999999999998</ele><time>2026-05-01T12:52:38.355Z</time></trkpt><trkpt lat="45.54763" lon="11.0038017"><ele>239.2</ele><time>2026-05-01T12:52:39.355Z</time></trkpt><trkpt lat="45.547525" lon="11.0038083"><ele>239.0</ele><time>2026-05-01T12:52:40.355Z</time></trkpt><trkpt lat="45.5474133" lon="11.0038133"><ele>239.0</ele><time>2026-05-01T12:52:41.354Z</time></trkpt><trkpt lat="45.54729" lon="11.0038067"><ele>239.0</ele><time>2026-05-01T12:52:42.354Z</time></trkpt><trkpt lat="45.5471583" lon="11.0037933"><ele>239.0</ele><time>2026-05-01T12:52:43.355Z</time></trkpt><trkpt lat="45.547025" lon="11.0037733"><ele>239.0</ele><time>2026-05-01T12:52:44.355Z</time></trkpt><trkpt lat="45.546895" lon="11.0037317"><ele>238.5</ele><time>2026-05-01T12:52:45.355Z</time></trkpt><trkpt lat="45.5467683" lon="11.003665"><ele>238.0</ele><time>2026-05-01T12:52:46.355Z</time></trkpt><trkpt lat="45.54664" lon="11.0035883"><ele>237.5</ele><time>2026-05-01T12:52:47.355Z</time></trkpt><trkpt lat="45.5465183" lon="11.00351"><ele>237.0</ele><time>2026-05-01T12:52:48.355Z</time></trkpt><trkpt lat="45.546395" lon="11.0034317"><ele>237.0</ele><time>2026-05-01T12:52:49.355Z</time></trkpt><trkpt lat="45.5462817" lon="11.0033433"><ele>237.0</ele><time>2026-05-01T12:52:50.355Z</time></trkpt><trkpt lat="45.5461717" lon="11.0032633"><ele>237.0</ele><time>2026-05-01T12:52:51.354Z</time></trkpt><trkpt lat="45.5460633" lon="11.0031833"><ele>237.0</ele><time>2026-05-01T12:52:52.354Z</time></trkpt><trkpt lat="45.5459617" lon="11.0031"><ele>236.6</ele><time>2026-05-01T12:52:53.355Z</time></trkpt><trkpt lat="45.545865" lon="11.0030233"><ele>236.2</ele><time>2026-05-01T12:52:54.355Z</time></trkpt><trkpt lat="45.5457783" lon="11.0029467"><ele>235.8</ele><time>2026-05-01T12:52:55.355Z</time></trkpt><trkpt lat="45.545705" lon="11.002855"><ele>235.4</ele><time>2026-05-01T12:52:56.355Z</time></trkpt><trkpt lat="45.5456417" lon="11.0027417"><ele>235.0</ele><time>2026-05-01T12:52:57.355Z</time></trkpt><trkpt lat="45.5455883" lon="11.0026117"><ele>235.5</ele><time>2026-05-01T12:52:58.355Z</time></trkpt><trkpt lat="45.545535" lon="11.0024717"><ele>236.0</ele><time>2026-05-01T12:52:59.355Z</time></trkpt><trkpt lat="45.545475" lon="11.002335"><ele>236.5</ele><time>2026-05-01T12:53:00.355Z</time></trkpt><trkpt lat="45.5454083" lon="11.0021983"><ele>237.0</ele><time>2026-05-01T12:53:01.355Z</time></trkpt><trkpt lat="45.5453367" lon="11.0020783"><ele>237.0</ele><time>2026-05-01T12:53:02.354Z</time></trkpt><trkpt lat="45.5452683" lon="11.0019583"><ele>237.0</ele><time>2026-05-01T12:53:03.354Z</time></trkpt><trkpt lat="45.545195" lon="11.0018433"><ele>237.0</ele><time>2026-05-01T12:53:04.354Z</time></trkpt><trkpt lat="45.5451183" lon="11.0017433"><ele>237.0</ele><time>2026-05-01T12:53:05.354Z</time></trkpt><trkpt lat="45.5450533" lon="11.00165"><ele>237.0</ele><time>2026-05-01T12:53:06.354Z</time></trkpt><trkpt lat="45.5449983" lon="11.0015633"><ele>239.5</ele><time>2026-05-01T12:53:07.353Z</time></trkpt><trkpt lat="45.5449467" lon="11.00147"><ele>242.0</ele><time>2026-05-01T12:53:08.354Z</time></trkpt><trkpt lat="45.5449033" lon="11.0013767"><ele>244.5</ele><time>2026-05-01T12:53:09.353Z</time></trkpt><trkpt lat="45.5448633" lon="11.0012817"><ele>247.0</ele><time>2026-05-01T12:53:10.353Z</time></trkpt><trkpt lat="45.5448267" lon="11.00118"><ele>249.5</ele><time>2026-05-01T12:53:11.354Z</time></trkpt><trkpt lat="45.5447917" lon="11.0010867"><ele>252.0</ele><time>2026-05-01T12:53:12.354Z</time></trkpt><trkpt lat="45.5447333" lon="11.0010067"><ele>252.0</ele><time>2026-05-01T12:53:13.354Z</time></trkpt><trkpt lat="45.54467" lon="11.0009333"><ele>252.0</ele><time>2026-05-01T12:53:14.353Z</time></trkpt><trkpt lat="45.5446217" lon="11.0008517"><ele>252.0</ele><time>2026-05-01T12:53:15.354Z</time></trkpt><trkpt lat="45.5445867" lon="11.000775"><ele>252.0</ele><time>2026-05-01T12:53:16.354Z</time></trkpt><trkpt lat="45.54454" lon="11.0007017"><ele>252.0</ele><time>2026-05-01T12:53:17.354Z</time></trkpt><trkpt lat="45.5444633" lon="11.0006"><ele>252.0</ele><time>2026-05-01T12:53:19.354Z</time></trkpt><trkpt lat="45.5443717" lon="11.0004933"><ele>250.66666666666666</ele><time>2026-05-01T12:54:07.354Z</time></trkpt><trkpt lat="45.5443333" lon="11.0004067"><ele>249.33333333333331</ele><time>2026-05-01T12:54:08.354Z</time></trkpt><trkpt lat="45.54429" lon="11.00033"><ele>248.0</ele><time>2026-05-01T12:54:09.354Z</time></trkpt><trkpt lat="45.544245" lon="11.0002467"><ele>246.66666666666666</ele><time>2026-05-01T12:54:10.354Z</time></trkpt><trkpt lat="45.5442117" lon="11.00015"><ele>245.33333333333331</ele><time>2026-05-01T12:54:11.354Z</time></trkpt><trkpt lat="45.54418" lon="11.00003"><ele>244.0</ele><time>2026-05-01T12:54:12.354Z</time></trkpt><trkpt lat="45.5441433" lon="10.999925"><ele>244.0</ele><time>2026-05-01T12:54:13.354Z</time></trkpt><trkpt lat="45.5441067" lon="10.9998017"><ele>243.99999999999997</ele><time>2026-05-01T12:54:14.354Z</time></trkpt><trkpt lat="45.5440633" lon="10.99968"><ele>243.99999999999997</ele><time>2026-05-01T12:54:15.354Z</time></trkpt><trkpt lat="45.5440183" lon="10.9995667"><ele>244.0</ele><time>2026-05-01T12:54:16.354Z</time></trkpt><trkpt lat="45.543975" lon="10.9994533"><ele>244.0</ele><time>2026-05-01T12:54:17.353Z</time></trkpt><trkpt lat="45.5439433" lon="10.9993467"><ele>243.99999999999997</ele><time>2026-05-01T12:54:18.353Z</time></trkpt><trkpt lat="45.5439183" lon="10.999245"><ele>244.0</ele><time>2026-05-01T12:54:19.354Z</time></trkpt><trkpt lat="45.5438983" lon="10.9991383"><ele>244.0</ele><time>2026-05-01T12:54:20.354Z</time></trkpt><trkpt lat="45.5438883" lon="10.9990183"><ele>244.0</ele><time>2026-05-01T12:54:21.354Z</time></trkpt><trkpt lat="45.5438883" lon="10.9988917"><ele>243.99999999999997</ele><time>2026-05-01T12:54:22.354Z</time></trkpt><trkpt lat="45.5439" lon="10.9987683"><ele>244.0</ele><time>2026-05-01T12:54:23.353Z</time></trkpt><trkpt lat="45.5439283" lon="10.99864"><ele>245.79999999999998</ele><time>2026-05-01T12:54:24.354Z</time></trkpt><trkpt lat="45.5439683" lon="10.9985117"><ele>247.59999999999997</ele><time>2026-05-01T12:54:25.353Z</time></trkpt><trkpt lat="45.544015" lon="10.9983717"><ele>249.4</ele><time>2026-05-01T12:54:26.354Z</time></trkpt><trkpt lat="45.544035" lon="10.99821"><ele>251.2</ele><time>2026-05-01T12:54:27.354Z</time></trkpt><trkpt lat="45.5440183" lon="10.99803"><ele>253.0</ele><time>2026-05-01T12:54:28.353Z</time></trkpt><trkpt lat="45.5439567" lon="10.9978567"><ele>254.0</ele><time>2026-05-01T12:54:29.354Z</time></trkpt><trkpt lat="45.5438917" lon="10.997695"><ele>255.0</ele><time>2026-05-01T12:54:30.353Z</time></trkpt><trkpt lat="45.543845" lon="10.9975467"><ele>256.0</ele><time>2026-05-01T12:54:31.353Z</time></trkpt><trkpt lat="45.54385" lon="10.997435"><ele>257.0</ele><time>2026-05-01T12:54:32.354Z</time></trkpt><trkpt lat="45.5439167" lon="10.9973283"><ele>258.0</ele><time>2026-05-01T12:54:34.354Z</time></trkpt><trkpt lat="45.544045" lon="10.9974467"><ele>258.0</ele><time>2026-05-01T12:54:36.353Z</time></trkpt><trkpt lat="45.5441383" lon="10.9976067"><ele>258.0</ele><time>2026-05-01T12:54:37.354Z</time></trkpt><trkpt lat="45.5442283" lon="10.99778"><ele>258.0</ele><time>2026-05-01T12:54:38.354Z</time></trkpt><trkpt lat="45.5443017" lon="10.99793"><ele>258.0</ele><time>2026-05-01T12:54:39.354Z</time></trkpt><trkpt lat="45.5443617" lon="10.99805"><ele>258.0</ele><time>2026-05-01T12:54:40.354Z</time></trkpt><trkpt lat="45.544425" lon="10.9981333"><ele>258.0</ele><time>2026-05-01T12:54:41.354Z</time></trkpt><trkpt lat="45.5445167" lon="10.9981383"><ele>258.0</ele><time>2026-05-01T12:54:43.354Z</time></trkpt><trkpt lat="45.54453" lon="10.9979983"><ele>258.0</ele><time>2026-05-01T12:54:45.354Z</time></trkpt><trkpt lat="45.5444767" lon="10.9979017"><ele>258.0</ele><time>2026-05-01T12:54:46.354Z</time></trkpt><trkpt lat="45.5443917" lon="10.9977833"><ele>258.0</ele><time>2026-05-01T12:54:47.354Z</time></trkpt><trkpt lat="45.544305" lon="10.9976283"><ele>258.0</ele><time>2026-05-01T12:54:48.353Z</time></trkpt><trkpt lat="45.5442117" lon="10.9974283"><ele>258.0</ele><time>2026-05-01T12:54:49.354Z</time></trkpt><trkpt lat="45.5441217" lon="10.9972233"><ele>263.6666666666667</ele><time>2026-05-01T12:54:50.354Z</time></trkpt><trkpt lat="45.5440483" lon="10.99699"><ele>269.33333333333337</ele><time>2026-05-01T12:54:51.354Z</time></trkpt><trkpt lat="45.5439717" lon="10.9967467"><ele>275.0</ele><time>2026-05-01T12:54:52.354Z</time></trkpt><trkpt lat="45.5438983" lon="10.9965167"><ele>271.0</ele><time>2026-05-01T12:54:53.354Z</time></trkpt><trkpt lat="45.5438017" lon="10.9962967"><ele>267.0</ele><time>2026-05-01T12:54:54.353Z</time></trkpt><trkpt lat="45.543695" lon="10.996105"><ele>263.0</ele><time>2026-05-01T12:54:55.354Z</time></trkpt><trkpt lat="45.5435717" lon="10.99593"><ele>266.0</ele><time>2026-05-01T12:54:56.354Z</time></trkpt><trkpt lat="45.5434733" lon="10.9957617"><ele>269.0</ele><time>2026-05-01T12:54:57.354Z</time></trkpt><trkpt lat="45.543415" lon="10.995575"><ele>272.0</ele><time>2026-05-01T12:54:58.354Z</time></trkpt><trkpt lat="45.5433967" lon="10.9953983"><ele>275.0</ele><time>2026-05-01T12:54:59.354Z</time></trkpt><trkpt lat="45.5434467" lon="10.9952633"><ele>275.0</ele><time>2026-05-01T12:55:00.354Z</time></trkpt><trkpt lat="45.54352" lon="10.99515"><ele>275.0</ele><time>2026-05-01T12:55:01.354Z</time></trkpt><trkpt lat="45.543615" lon="10.9950367"><ele>275.0</ele><time>2026-05-01T12:55:02.354Z</time></trkpt><trkpt lat="45.54369" lon="10.9948883"><ele>275.0</ele><time>2026-05-01T12:55:03.354Z</time></trkpt><trkpt lat="45.54375" lon="10.99469"><ele>287.0</ele><time>2026-05-01T12:55:04.354Z</time></trkpt><trkpt lat="45.54378" lon="10.99445"><ele>299.0</ele><time>2026-05-01T12:55:05.354Z</time></trkpt><trkpt lat="45.5437683" lon="10.994185"><ele>311.0</ele><time>2026-05-01T12:55:06.354Z</time></trkpt><trkpt lat="45.543745" lon="10.9939083"><ele>307.0</ele><time>2026-05-01T12:55:07.354Z</time></trkpt><trkpt lat="45.543705" lon="10.9936483"><ele>303.0</ele><time>2026-05-01T12:55:08.354Z</time></trkpt><trkpt lat="45.5436567" lon="10.9934267"><ele>299.0</ele><time>2026-05-01T12:55:09.354Z</time></trkpt><trkpt lat="45.5435967" lon="10.9932267"><ele>299.0</ele><time>2026-05-01T12:55:10.354Z</time></trkpt><trkpt lat="45.5434967" lon="10.9930833"><ele>299.0</ele><time>2026-05-01T12:55:11.354Z</time></trkpt><trkpt lat="45.5433783" lon="10.99302"><ele>299.0</ele><time>2026-05-01T12:55:12.354Z</time></trkpt><trkpt lat="45.5432567" lon="10.993035"><ele>299.0</ele><time>2026-05-01T12:55:13.354Z</time></trkpt><trkpt lat="45.5431433" lon="10.9931383"><ele>299.0</ele><time>2026-05-01T12:55:14.354Z</time></trkpt><trkpt lat="45.5430467" lon="10.9933067"><ele>299.0</ele><time>2026-05-01T12:55:15.354Z</time></trkpt><trkpt lat="45.542965" lon="10.9934367"><ele>299.0</ele><time>2026-05-01T12:55:16.354Z</time></trkpt><trkpt lat="45.54289" lon="10.99348"><ele>299.0</ele><time>2026-05-01T12:55:17.354Z</time></trkpt><trkpt lat="45.5428217" lon="10.9934517"><ele>299.0</ele><time>2026-05-01T12:55:18.353Z</time></trkpt><trkpt lat="45.542775" lon="10.99338"><ele>299.5</ele><time>2026-05-01T12:55:19.354Z</time></trkpt><trkpt lat="45.54275" lon="10.9932583"><ele>300.0</ele><time>2026-05-01T12:55:20.354Z</time></trkpt><trkpt lat="45.5427533" lon="10.993075"><ele>300.5</ele><time>2026-05-01T12:55:21.354Z</time></trkpt><trkpt lat="45.5427833" lon="10.99284"><ele>301.0</ele><time>2026-05-01T12:55:22.354Z</time></trkpt><trkpt lat="45.5428067" lon="10.99262"><ele>303.0</ele><time>2026-05-01T12:55:23.354Z</time></trkpt><trkpt lat="45.5428033" lon="10.9924283"><ele>305.0</ele><time>2026-05-01T12:55:24.354Z</time></trkpt><trkpt lat="45.5427683" lon="10.992235"><ele>307.0</ele><time>2026-05-01T12:55:25.353Z</time></trkpt><trkpt lat="45.5426983" lon="10.9920483"><ele>309.0</ele><time>2026-05-01T12:55:26.354Z</time></trkpt><trkpt lat="45.5426117" lon="10.991855"><ele>312.0</ele><time>2026-05-01T12:55:27.354Z</time></trkpt><trkpt lat="45.542515" lon="10.9916667"><ele>315.0</ele><time>2026-05-01T12:55:28.354Z</time></trkpt><trkpt lat="45.542415" lon="10.991455"><ele>318.0</ele><time>2026-05-01T12:55:29.354Z</time></trkpt><trkpt lat="45.5423233" lon="10.99123"><ele>318.0</ele><time>2026-05-01T12:55:30.354Z</time></trkpt><trkpt lat="45.5422567" lon="10.9910217"><ele>318.0</ele><time>2026-05-01T12:55:31.353Z</time></trkpt><trkpt lat="45.5422167" lon="10.9908067"><ele>318.0</ele><time>2026-05-01T12:55:32.354Z</time></trkpt><trkpt lat="45.54221" lon="10.9905733"><ele>321.3333333333333</ele><time>2026-05-01T12:55:33.354Z</time></trkpt><trkpt lat="45.5422067" lon="10.9903417"><ele>324.66666666666663</ele><time>2026-05-01T12:55:34.354Z</time></trkpt><trkpt lat="45.5422" lon="10.9901133"><ele>328.0</ele><time>2026-05-01T12:55:35.354Z</time></trkpt><trkpt lat="45.5421767" lon="10.9898783"><ele>330.66666666666663</ele><time>2026-05-01T12:55:36.354Z</time></trkpt><trkpt lat="45.54213" lon="10.98964"><ele>333.3333333333333</ele><time>2026-05-01T12:55:37.354Z</time></trkpt><trkpt lat="45.5420617" lon="10.9894033"><ele>336.0</ele><time>2026-05-01T12:55:38.354Z</time></trkpt><trkpt lat="45.5420017" lon="10.9891683"><ele>336.0</ele><time>2026-05-01T12:55:39.354Z</time></trkpt><trkpt lat="45.5419517" lon="10.9889533"><ele>336.0</ele><time>2026-05-01T12:55:40.354Z</time></trkpt><trkpt lat="45.5419033" lon="10.9887433"><ele>336.0</ele><time>2026-05-01T12:55:41.354Z</time></trkpt><trkpt lat="45.5418967" lon="10.9885317"><ele>336.6666666666667</ele><time>2026-05-01T12:55:42.354Z</time></trkpt><trkpt lat="45.5419233" lon="10.9883217"><ele>337.33333333333337</ele><time>2026-05-01T12:55:43.354Z</time></trkpt><trkpt lat="45.5419833" lon="10.988115"><ele>338.0</ele><time>2026-05-01T12:55:44.353Z</time></trkpt><trkpt lat="45.542065" lon="10.9879133"><ele>343.33333333333337</ele><time>2026-05-01T12:55:45.353Z</time></trkpt><trkpt lat="45.54216" lon="10.987725"><ele>348.6666666666667</ele><time>2026-05-01T12:55:46.354Z</time></trkpt><trkpt lat="45.5422717" lon="10.9875433"><ele>354.0</ele><time>2026-05-01T12:55:47.354Z</time></trkpt><trkpt lat="45.5423717" lon="10.987335"><ele>354.3333333333333</ele><time>2026-05-01T12:55:48.354Z</time></trkpt><trkpt lat="45.5424383" lon="10.987095"><ele>354.66666666666663</ele><time>2026-05-01T12:55:49.354Z</time></trkpt><trkpt lat="45.5424733" lon="10.9868617"><ele>355.0</ele><time>2026-05-01T12:55:50.354Z</time></trkpt><trkpt lat="45.5424917" lon="10.98668"><ele>355.0</ele><time>2026-05-01T12:55:51.354Z</time></trkpt><trkpt lat="45.54252" lon="10.9865617"><ele>355.0</ele><time>2026-05-01T12:55:52.354Z</time></trkpt><trkpt lat="45.5425983" lon="10.9865017"><ele>355.0</ele><time>2026-05-01T12:55:54.354Z</time></trkpt><trkpt lat="45.542645" lon="10.986655"><ele>355.0</ele><time>2026-05-01T12:55:56.353Z</time></trkpt><trkpt lat="45.5426417" lon="10.9868267"><ele>355.0</ele><time>2026-05-01T12:55:57.354Z</time></trkpt><trkpt lat="45.5426317" lon="10.98703"><ele>355.0</ele><time>2026-05-01T12:55:58.353Z</time></trkpt><trkpt lat="45.5426583" lon="10.9872167"><ele>355.0</ele><time>2026-05-01T12:55:59.354Z</time></trkpt><trkpt lat="45.5427183" lon="10.987385"><ele>355.0</ele><time>2026-05-01T12:56:00.354Z</time></trkpt><trkpt lat="45.542795" lon="10.9875533"><ele>355.0</ele><time>2026-05-01T12:56:01.354Z</time></trkpt><trkpt lat="45.5428833" lon="10.9877267"><ele>360.3333333333333</ele><time>2026-05-01T12:56:02.354Z</time></trkpt><trkpt lat="45.5429683" lon="10.9878967"><ele>365.6666666666667</ele><time>2026-05-01T12:56:03.354Z</time></trkpt><trkpt lat="45.5430633" lon="10.98807"><ele>371.0</ele><time>2026-05-01T12:56:04.354Z</time></trkpt><trkpt lat="45.54317" lon="10.988245"><ele>366.6666666666667</ele><time>2026-05-01T12:56:05.354Z</time></trkpt><trkpt lat="45.5433067" lon="10.9883783"><ele>362.3333333333333</ele><time>2026-05-01T12:56:06.354Z</time></trkpt><trkpt lat="45.54346" lon="10.98844"><ele>358.0</ele><time>2026-05-01T12:56:07.354Z</time></trkpt><trkpt lat="45.543625" lon="10.9884433"><ele>363.3333333333333</ele><time>2026-05-01T12:56:08.354Z</time></trkpt><trkpt lat="45.5437917" lon="10.9883933"><ele>368.6666666666667</ele><time>2026-05-01T12:56:09.354Z</time></trkpt><trkpt lat="45.54396" lon="10.9883583"><ele>374.0</ele><time>2026-05-01T12:56:10.354Z</time></trkpt><trkpt lat="45.54412" lon="10.9883417"><ele>374.0</ele><time>2026-05-01T12:56:11.354Z</time></trkpt><trkpt lat="45.5442617" lon="10.988375"><ele>374.0</ele><time>2026-05-01T12:56:12.354Z</time></trkpt><trkpt lat="45.5443867" lon="10.988465"><ele>374.0</ele><time>2026-05-01T12:56:13.354Z</time></trkpt><trkpt lat="45.5445" lon="10.988605"><ele>374.0</ele><time>2026-05-01T12:56:14.353Z</time></trkpt><trkpt lat="45.5445933" lon="10.988795"><ele>378.6</ele><time>2026-05-01T12:56:15.354Z</time></trkpt><trkpt lat="45.5446683" lon="10.98896"><ele>383.2</ele><time>2026-05-01T12:56:16.354Z</time></trkpt><trkpt lat="45.54474" lon="10.9890867"><ele>387.8</ele><time>2026-05-01T12:56:17.354Z</time></trkpt><trkpt lat="45.54483" lon="10.9891383"><ele>392.40000000000003</ele><time>2026-05-01T12:56:18.354Z</time></trkpt><trkpt lat="45.544915" lon="10.9891233"><ele>397.0</ele><time>2026-05-01T12:56:19.354Z</time></trkpt><trkpt lat="45.5449917" lon="10.989055"><ele>397.0</ele><time>2026-05-01T12:56:20.354Z</time></trkpt><trkpt lat="45.5450517" lon="10.988925"><ele>397.0</ele><time>2026-05-01T12:56:21.354Z</time></trkpt><trkpt lat="45.5450867" lon="10.9887383"><ele>397.0</ele><time>2026-05-01T12:56:22.354Z</time></trkpt><trkpt lat="45.5450917" lon="10.988495"><ele>397.0</ele><time>2026-05-01T12:56:23.354Z</time></trkpt><trkpt lat="45.5450883" lon="10.9882117"><ele>398.6666666666667</ele><time>2026-05-01T12:56:24.354Z</time></trkpt><trkpt lat="45.5450817" lon="10.9879567"><ele>400.33333333333337</ele><time>2026-05-01T12:56:25.353Z</time></trkpt><trkpt lat="45.5450983" lon="10.9876867"><ele>402.0</ele><time>2026-05-01T12:56:26.353Z</time></trkpt><trkpt lat="45.5451183" lon="10.987425"><ele>404.0</ele><time>2026-05-01T12:56:27.354Z</time></trkpt><trkpt lat="45.54514" lon="10.98716"><ele>406.0</ele><time>2026-05-01T12:56:28.354Z</time></trkpt><trkpt lat="45.5451617" lon="10.9868933"><ele>408.0</ele><time>2026-05-01T12:56:29.354Z</time></trkpt><trkpt lat="45.5452067" lon="10.9866317"><ele>410.0</ele><time>2026-05-01T12:56:30.354Z</time></trkpt><trkpt lat="45.54527" lon="10.986375"><ele>412.0</ele><time>2026-05-01T12:56:31.353Z</time></trkpt><trkpt lat="45.545335" lon="10.9861383"><ele>414.0</ele><time>2026-05-01T12:56:32.352Z</time></trkpt><trkpt lat="45.54538" lon="10.9859033"><ele>414.66666666666663</ele><time>2026-05-01T12:56:33.353Z</time></trkpt><trkpt lat="45.5453833" lon="10.9856683"><ele>415.3333333333333</ele><time>2026-05-01T12:56:34.353Z</time></trkpt><trkpt lat="45.5453367" lon="10.98545"><ele>416.0</ele><time>2026-05-01T12:56:35.353Z</time></trkpt><trkpt lat="45.5452567" lon="10.98521"><ele>418.0</ele><time>2026-05-01T12:56:36.353Z</time></trkpt><trkpt lat="45.5451883" lon="10.9849817"><ele>420.0</ele><time>2026-05-01T12:56:37.353Z</time></trkpt><trkpt lat="45.5451483" lon="10.9847233"><ele>422.0</ele><time>2026-05-01T12:56:38.353Z</time></trkpt><trkpt lat="45.5451617" lon="10.9844617"><ele>425.66666666666663</ele><time>2026-05-01T12:56:39.353Z</time></trkpt><trkpt lat="45.5451867" lon="10.9841783"><ele>429.33333333333337</ele><time>2026-05-01T12:56:40.353Z</time></trkpt><trkpt lat="45.5452033" lon="10.983915"><ele>433.0</ele><time>2026-05-01T12:56:41.353Z</time></trkpt><trkpt lat="45.5451883" lon="10.9836983"><ele>433.0</ele><time>2026-05-01T12:56:42.353Z</time></trkpt><trkpt lat="45.5451667" lon="10.9835517"><ele>432.99999999999994</ele><time>2026-05-01T12:56:43.352Z</time></trkpt><trkpt lat="45.5451617" lon="10.9834283"><ele>432.99999999999994</ele><time>2026-05-01T12:56:44.353Z</time></trkpt><trkpt lat="45.5451933" lon="10.98334"><ele>433.0</ele><time>2026-05-01T12:56:45.352Z</time></trkpt><trkpt lat="45.5453033" lon="10.98331"><ele>433.0</ele><time>2026-05-01T12:56:47.353Z</time></trkpt><trkpt lat="45.545375" lon="10.983375"><ele>439.0</ele><time>2026-05-01T12:56:48.353Z</time></trkpt><trkpt lat="45.545475" lon="10.9835033"><ele>445.0</ele><time>2026-05-01T12:56:49.353Z</time></trkpt><trkpt lat="45.5455983" lon="10.9836967"><ele>451.0</ele><time>2026-05-01T12:56:50.353Z</time></trkpt><trkpt lat="45.545715" lon="10.9838683"><ele>451.0</ele><time>2026-05-01T12:56:51.353Z</time></trkpt><trkpt lat="45.5458383" lon="10.9840233"><ele>451.0</ele><time>2026-05-01T12:56:52.353Z</time></trkpt><trkpt lat="45.5459833" lon="10.9841683"><ele>451.0</ele><time>2026-05-01T12:56:53.353Z</time></trkpt><trkpt lat="45.5461467" lon="10.9843267"><ele>453.33333333333337</ele><time>2026-05-01T12:56:54.353Z</time></trkpt><trkpt lat="45.546315" lon="10.98449"><ele>455.66666666666663</ele><time>2026-05-01T12:56:55.353Z</time></trkpt><trkpt lat="45.5464867" lon="10.9846483"><ele>458.0</ele><time>2026-05-01T12:56:56.353Z</time></trkpt><trkpt lat="45.5466583" lon="10.9847983"><ele>458.0</ele><time>2026-05-01T12:56:57.353Z</time></trkpt><trkpt lat="45.5468383" lon="10.98492"><ele>458.0</ele><time>2026-05-01T12:56:58.353Z</time></trkpt><trkpt lat="45.5470217" lon="10.985035"><ele>458.0</ele><time>2026-05-01T12:56:59.353Z</time></trkpt><trkpt lat="45.5472033" lon="10.9851583"><ele>458.0</ele><time>2026-05-01T12:57:00.352Z</time></trkpt><trkpt lat="45.54737" lon="10.9852767"><ele>458.0</ele><time>2026-05-01T12:57:01.353Z</time></trkpt><trkpt lat="45.54753" lon="10.9854033"><ele>458.0</ele><time>2026-05-01T12:57:02.353Z</time></trkpt><trkpt lat="45.547685" lon="10.9855333"><ele>458.0</ele><time>2026-05-01T12:57:03.353Z</time></trkpt><trkpt lat="45.5478233" lon="10.98565"><ele>458.0</ele><time>2026-05-01T12:57:04.353Z</time></trkpt><trkpt lat="45.5479517" lon="10.985755"><ele>458.0</ele><time>2026-05-01T12:57:05.352Z</time></trkpt><trkpt lat="45.5480767" lon="10.9858633"><ele>461.5</ele><time>2026-05-01T12:57:06.353Z</time></trkpt><trkpt lat="45.5481967" lon="10.9859717"><ele>465.0</ele><time>2026-05-01T12:57:07.353Z</time></trkpt><trkpt lat="45.5483117" lon="10.9860683"><ele>468.5</ele><time>2026-05-01T12:57:08.353Z</time></trkpt><trkpt lat="45.5484233" lon="10.9861683"><ele>472.0</ele><time>2026-05-01T12:57:09.353Z</time></trkpt><trkpt lat="45.5485283" lon="10.986255"><ele>472.0</ele><time>2026-05-01T12:57:10.353Z</time></trkpt><trkpt lat="45.5486383" lon="10.9863533"><ele>472.0</ele><time>2026-05-01T12:57:11.353Z</time></trkpt><trkpt lat="45.5487433" lon="10.9864433"><ele>472.0</ele><time>2026-05-01T12:57:12.353Z</time></trkpt><trkpt lat="45.5488583" lon="10.98653"><ele>472.0</ele><time>2026-05-01T12:57:13.353Z</time></trkpt><trkpt lat="45.5489767" lon="10.9866033"><ele>472.75</ele><time>2026-05-01T12:57:14.352Z</time></trkpt><trkpt lat="45.549115" lon="10.9866517"><ele>473.5</ele><time>2026-05-01T12:57:15.353Z</time></trkpt><trkpt lat="45.549255" lon="10.986675"><ele>474.25</ele><time>2026-05-01T12:57:16.353Z</time></trkpt><trkpt lat="45.5493933" lon="10.9866817"><ele>475.0</ele><time>2026-05-01T12:57:17.352Z</time></trkpt><trkpt lat="45.5495283" lon="10.986685"><ele>478.5</ele><time>2026-05-01T12:57:18.353Z</time></trkpt><trkpt lat="45.5496533" lon="10.9866667"><ele>482.0</ele><time>2026-05-01T12:57:19.353Z</time></trkpt><trkpt lat="45.5497767" lon="10.9866567"><ele>485.5</ele><time>2026-05-01T12:57:20.353Z</time></trkpt><trkpt lat="45.5499" lon="10.9866567"><ele>489.0</ele><time>2026-05-01T12:57:21.353Z</time></trkpt><trkpt lat="45.5500183" lon="10.98668"><ele>489.0</ele><time>2026-05-01T12:57:22.353Z</time></trkpt><trkpt lat="45.5501383" lon="10.9867233"><ele>489.0</ele><time>2026-05-01T12:57:23.353Z</time></trkpt><trkpt lat="45.5502467" lon="10.986775"><ele>489.0</ele><time>2026-05-01T12:57:24.352Z</time></trkpt><trkpt lat="45.5503433" lon="10.9868267"><ele>489.0</ele><time>2026-05-01T12:57:25.353Z</time></trkpt><trkpt lat="45.5504433" lon="10.986905"><ele>491.5</ele><time>2026-05-01T12:57:26.353Z</time></trkpt><trkpt lat="45.55054" lon="10.987005"><ele>494.0</ele><time>2026-05-01T12:57:27.353Z</time></trkpt><trkpt lat="45.550615" lon="10.9871317"><ele>496.5</ele><time>2026-05-01T12:57:28.353Z</time></trkpt><trkpt lat="45.5506883" lon="10.987255"><ele>499.0</ele><time>2026-05-01T12:57:29.353Z</time></trkpt><trkpt lat="45.55075" lon="10.987395"><ele>499.0</ele><time>2026-05-01T12:57:30.353Z</time></trkpt><trkpt lat="45.5508333" lon="10.987505"><ele>499.0</ele><time>2026-05-01T12:57:31.353Z</time></trkpt><trkpt lat="45.55094" lon="10.9875967"><ele>499.0</ele><time>2026-05-01T12:57:32.353Z</time></trkpt><trkpt lat="45.55106" lon="10.9876567"><ele>499.0</ele><time>2026-05-01T12:57:33.353Z</time></trkpt><trkpt lat="45.551195" lon="10.9877067"><ele>498.25</ele><time>2026-05-01T12:57:34.352Z</time></trkpt><trkpt lat="45.551325" lon="10.9877517"><ele>497.5</ele><time>2026-05-01T12:57:35.353Z</time></trkpt><trkpt lat="45.5514633" lon="10.9878033"><ele>496.75</ele><time>2026-05-01T12:57:36.353Z</time></trkpt><trkpt lat="45.551595" lon="10.9878617"><ele>496.0</ele><time>2026-05-01T12:57:37.353Z</time></trkpt><trkpt lat="45.5517317" lon="10.9879433"><ele>496.0</ele><time>2026-05-01T12:57:38.353Z</time></trkpt><trkpt lat="45.5518733" lon="10.9880433"><ele>496.0</ele><time>2026-05-01T12:57:39.353Z</time></trkpt><trkpt lat="45.5520217" lon="10.988165"><ele>496.0</ele><time>2026-05-01T12:57:40.353Z</time></trkpt><trkpt lat="45.5521717" lon="10.9882883"><ele>497.33333333333337</ele><time>2026-05-01T12:57:41.352Z</time></trkpt><trkpt lat="45.55234" lon="10.98841"><ele>498.66666666666663</ele><time>2026-05-01T12:57:42.352Z</time></trkpt><trkpt lat="45.5525117" lon="10.988525"><ele>500.0</ele><time>2026-05-01T12:57:43.353Z</time></trkpt><trkpt lat="45.5526883" lon="10.988595"><ele>499.3333333333333</ele><time>2026-05-01T12:57:44.353Z</time></trkpt><trkpt lat="45.5528733" lon="10.9886267"><ele>498.66666666666663</ele><time>2026-05-01T12:57:45.353Z</time></trkpt><trkpt lat="45.5530567" lon="10.98864"><ele>498.0</ele><time>2026-05-01T12:57:46.353Z</time></trkpt><trkpt lat="45.5532417" lon="10.988635"><ele>498.0</ele><time>2026-05-01T12:57:47.353Z</time></trkpt><trkpt lat="45.5534317" lon="10.988605"><ele>498.0</ele><time>2026-05-01T12:57:48.353Z</time></trkpt><trkpt lat="45.55362" lon="10.9885583"><ele>498.0</ele><time>2026-05-01T12:57:49.353Z</time></trkpt><trkpt lat="45.5538133" lon="10.9885033"><ele>494.66666666666663</ele><time>2026-05-01T12:57:50.353Z</time></trkpt><trkpt lat="45.554005" lon="10.9884367"><ele>491.3333333333333</ele><time>2026-05-01T12:57:51.353Z</time></trkpt><trkpt lat="45.5541933" lon="10.98836"><ele>488.0</ele><time>2026-05-01T12:57:52.353Z</time></trkpt><trkpt lat="45.5543633" lon="10.988255"><ele>488.3333333333333</ele><time>2026-05-01T12:57:53.353Z</time></trkpt><trkpt lat="45.554515" lon="10.9881"><ele>488.66666666666663</ele><time>2026-05-01T12:57:54.353Z</time></trkpt><trkpt lat="45.5546333" lon="10.9878917"><ele>489.0</ele><time>2026-05-01T12:57:55.353Z</time></trkpt><trkpt lat="45.5547583" lon="10.98768"><ele>495.33333333333337</ele><time>2026-05-01T12:57:56.353Z</time></trkpt><trkpt lat="45.5548967" lon="10.9874833"><ele>501.6666666666667</ele><time>2026-05-01T12:57:57.353Z</time></trkpt><trkpt lat="45.555045" lon="10.9873017"><ele>508.0</ele><time>2026-05-01T12:57:58.353Z</time></trkpt><trkpt lat="45.5552083" lon="10.98714"><ele>503.6666666666667</ele><time>2026-05-01T12:57:59.353Z</time></trkpt><trkpt lat="45.5553833" lon="10.9870033"><ele>499.33333333333337</ele><time>2026-05-01T12:58:00.353Z</time></trkpt><trkpt lat="45.5555633" lon="10.986915"><ele>495.0</ele><time>2026-05-01T12:58:01.353Z</time></trkpt><trkpt lat="45.555755" lon="10.9868483"><ele>495.0</ele><time>2026-05-01T12:58:02.352Z</time></trkpt><trkpt lat="45.5559383" lon="10.9868267"><ele>495.0</ele><time>2026-05-01T12:58:03.352Z</time></trkpt><trkpt lat="45.55612" lon="10.9868033"><ele>495.0</ele><time>2026-05-01T12:58:04.353Z</time></trkpt><trkpt lat="45.5563033" lon="10.9867717"><ele>494.66666666666663</ele><time>2026-05-01T12:58:05.352Z</time></trkpt><trkpt lat="45.5564867" lon="10.9867367"><ele>494.3333333333333</ele><time>2026-05-01T12:58:06.353Z</time></trkpt><trkpt lat="45.5566717" lon="10.9867117"><ele>494.0</ele><time>2026-05-01T12:58:07.353Z</time></trkpt><trkpt lat="45.55686" lon="10.98668"><ele>503.0</ele><time>2026-05-01T12:58:08.353Z</time></trkpt><trkpt lat="45.5570383" lon="10.9866517"><ele>512.0</ele><time>2026-05-01T12:58:09.353Z</time></trkpt><trkpt lat="45.55722" lon="10.9866317"><ele>521.0</ele><time>2026-05-01T12:58:10.353Z</time></trkpt><trkpt lat="45.5573983" lon="10.9866217"><ele>521.0</ele><time>2026-05-01T12:58:11.353Z</time></trkpt><trkpt lat="45.55757" lon="10.986615"><ele>521.0</ele><time>2026-05-01T12:58:12.352Z</time></trkpt><trkpt lat="45.5577383" lon="10.9866133"><ele>521.0</ele><time>2026-05-01T12:58:13.352Z</time></trkpt><trkpt lat="45.5578983" lon="10.9866217"><ele>521.6666666666666</ele><time>2026-05-01T12:58:14.353Z</time></trkpt><trkpt lat="45.5580667" lon="10.9866317"><ele>522.3333333333334</ele><time>2026-05-01T12:58:15.353Z</time></trkpt><trkpt lat="45.5582367" lon="10.9866317"><ele>523.0</ele><time>2026-05-01T12:58:16.352Z</time></trkpt><trkpt lat="45.558405" lon="10.9866033"><ele>523.0</ele><time>2026-05-01T12:58:17.353Z</time></trkpt><trkpt lat="45.558575" lon="10.9865467"><ele>523.0</ele><time>2026-05-01T12:58:18.353Z</time></trkpt><trkpt lat="45.5587517" lon="10.9864867"><ele>523.0</ele><time>2026-05-01T12:58:19.352Z</time></trkpt><trkpt lat="45.55892" lon="10.9864433"><ele>524.6666666666667</ele><time>2026-05-01T12:58:20.353Z</time></trkpt><trkpt lat="45.5590883" lon="10.986435"><ele>526.3333333333334</ele><time>2026-05-01T12:58:21.353Z</time></trkpt><trkpt lat="45.5592517" lon="10.9864917"><ele>528.0</ele><time>2026-05-01T12:58:22.353Z</time></trkpt><trkpt lat="45.55941" lon="10.9865967"><ele>530.0</ele><time>2026-05-01T12:58:23.353Z</time></trkpt><trkpt lat="45.5595617" lon="10.9867217"><ele>532.0</ele><time>2026-05-01T12:58:24.353Z</time></trkpt><trkpt lat="45.55971" lon="10.9868583"><ele>534.0</ele><time>2026-05-01T12:58:25.353Z</time></trkpt><trkpt lat="45.5598483" lon="10.9870133"><ele>534.0</ele><time>2026-05-01T12:58:26.353Z</time></trkpt><trkpt lat="45.5599833" lon="10.987175"><ele>534.0</ele><time>2026-05-01T12:58:27.353Z</time></trkpt><trkpt lat="45.5601033" lon="10.98735"><ele>534.0</ele><time>2026-05-01T12:58:28.353Z</time></trkpt><trkpt lat="45.5602083" lon="10.9875"><ele>533.0</ele><time>2026-05-01T12:58:29.353Z</time></trkpt><trkpt lat="45.5603017" lon="10.9876417"><ele>532.0</ele><time>2026-05-01T12:58:30.352Z</time></trkpt><trkpt lat="45.5603867" lon="10.987735"><ele>531.0</ele><time>2026-05-01T12:58:31.353Z</time></trkpt><trkpt lat="45.5604667" lon="10.98776"><ele>530.0</ele><time>2026-05-01T12:58:32.353Z</time></trkpt><trkpt lat="45.5605533" lon="10.9877367"><ele>529.0</ele><time>2026-05-01T12:58:33.353Z</time></trkpt><trkpt lat="45.5606167" lon="10.9876667"><ele>529.5</ele><time>2026-05-01T12:58:34.353Z</time></trkpt><trkpt lat="45.5606717" lon="10.9875417"><ele>530.0</ele><time>2026-05-01T12:58:35.353Z</time></trkpt><trkpt lat="45.5607033" lon="10.9873783"><ele>530.5</ele><time>2026-05-01T12:58:36.353Z</time></trkpt><trkpt lat="45.5606967" lon="10.9871883"><ele>531.0</ele><time>2026-05-01T12:58:37.353Z</time></trkpt><trkpt lat="45.5607117" lon="10.9870033"><ele>531.0</ele><time>2026-05-01T12:58:38.353Z</time></trkpt><trkpt lat="45.560755" lon="10.9868333"><ele>531.0</ele><time>2026-05-01T12:58:39.353Z</time></trkpt><trkpt lat="45.560805" lon="10.9866683"><ele>531.0</ele><time>2026-05-01T12:58:40.353Z</time></trkpt><trkpt lat="45.56086" lon="10.986515"><ele>531.0</ele><time>2026-05-01T12:58:41.353Z</time></trkpt><trkpt lat="45.5609267" lon="10.9863683"><ele>531.2</ele><time>2026-05-01T12:58:42.353Z</time></trkpt><trkpt lat="45.5610233" lon="10.9862717"><ele>531.4000000000001</ele><time>2026-05-01T12:58:43.353Z</time></trkpt><trkpt lat="45.5611233" lon="10.986205"><ele>531.6</ele><time>2026-05-01T12:58:44.353Z</time></trkpt><trkpt lat="45.5612267" lon="10.986195"><ele>531.8000000000001</ele><time>2026-05-01T12:58:45.352Z</time></trkpt><trkpt lat="45.5613317" lon="10.9862"><ele>532.0</ele><time>2026-05-01T12:58:46.353Z</time></trkpt><trkpt lat="45.5614417" lon="10.9862017"><ele>532.0</ele><time>2026-05-01T12:58:47.353Z</time></trkpt><trkpt lat="45.5615617" lon="10.9861733"><ele>532.0</ele><time>2026-05-01T12:58:48.353Z</time></trkpt><trkpt lat="45.56169" lon="10.9861183"><ele>532.0</ele><time>2026-05-01T12:58:49.353Z</time></trkpt><trkpt lat="45.56183" lon="10.9860433"><ele>532.0</ele><time>2026-05-01T12:58:50.353Z</time></trkpt><trkpt lat="45.5619467" lon="10.98596"><ele>535.0</ele><time>2026-05-01T12:58:51.353Z</time></trkpt><trkpt lat="45.5620467" lon="10.985845"><ele>538.0</ele><time>2026-05-01T12:58:52.353Z</time></trkpt><trkpt lat="45.5621483" lon="10.98571"><ele>541.0</ele><time>2026-05-01T12:58:53.353Z</time></trkpt><trkpt lat="45.5622567" lon="10.9855633"><ele>544.0</ele><time>2026-05-01T12:58:54.353Z</time></trkpt><trkpt lat="45.5623583" lon="10.98541"><ele>544.0</ele><time>2026-05-01T12:58:55.353Z</time></trkpt><trkpt lat="45.56247" lon="10.98521"><ele>544.0</ele><time>2026-05-01T12:58:56.353Z</time></trkpt><trkpt lat="45.5625817" lon="10.98497"><ele>544.0</ele><time>2026-05-01T12:58:57.353Z</time></trkpt><trkpt lat="45.5626883" lon="10.98472"><ele>548.6666666666667</ele><time>2026-05-01T12:58:58.353Z</time></trkpt><trkpt lat="45.5628067" lon="10.98451"><ele>553.3333333333334</ele><time>2026-05-01T12:58:59.353Z</time></trkpt><trkpt lat="45.5629317" lon="10.9843517"><ele>558.0</ele><time>2026-05-01T12:59:00.353Z</time></trkpt><trkpt lat="45.56307" lon="10.9842367"><ele>564.3333333333334</ele><time>2026-05-01T12:59:01.353Z</time></trkpt><trkpt lat="45.5632283" lon="10.984145"><ele>570.6666666666667</ele><time>2026-05-01T12:59:02.353Z</time></trkpt><trkpt lat="45.5633883" lon="10.9840567"><ele>577.0</ele><time>2026-05-01T12:59:03.353Z</time></trkpt><trkpt lat="45.56354" lon="10.9839817"><ele>577.0</ele><time>2026-05-01T12:59:04.353Z</time></trkpt><trkpt lat="45.5636967" lon="10.9839183"><ele>577.0</ele><time>2026-05-01T12:59:05.353Z</time></trkpt><trkpt lat="45.563835" lon="10.98386"><ele>577.0</ele><time>2026-05-01T12:59:06.352Z</time></trkpt><trkpt lat="45.5639617" lon="10.9837817"><ele>577.0</ele><time>2026-05-01T12:59:07.353Z</time></trkpt><trkpt lat="45.564085" lon="10.9836983"><ele>575.25</ele><time>2026-05-01T12:59:08.353Z</time></trkpt><trkpt lat="45.5642133" lon="10.9836433"><ele>573.5</ele><time>2026-05-01T12:59:09.353Z</time></trkpt><trkpt lat="45.5643383" lon="10.9836367"><ele>571.75</ele><time>2026-05-01T12:59:10.353Z</time></trkpt><trkpt lat="45.56446" lon="10.98367"><ele>570.0</ele><time>2026-05-01T12:59:11.353Z</time></trkpt><trkpt lat="45.5645567" lon="10.9837067"><ele>568.8</ele><time>2026-05-01T12:59:12.353Z</time></trkpt><trkpt lat="45.5646383" lon="10.9837367"><ele>567.6</ele><time>2026-05-01T12:59:13.353Z</time></trkpt><trkpt lat="45.5647617" lon="10.98374"><ele>566.4</ele><time>2026-05-01T12:59:15.353Z</time></trkpt><trkpt lat="45.5648517" lon="10.98371"><ele>565.2</ele><time>2026-05-01T12:59:16.353Z</time></trkpt><trkpt lat="45.5649567" lon="10.9836417"><ele>564.0</ele><time>2026-05-01T12:59:17.353Z</time></trkpt><trkpt lat="45.5650717" lon="10.9835367"><ele>564.0</ele><time>2026-05-01T12:59:18.353Z</time></trkpt><trkpt lat="45.56519" lon="10.98342"><ele>564.0</ele><time>2026-05-01T12:59:19.352Z</time></trkpt><trkpt lat="45.565315" lon="10.9832733"><ele>564.0</ele><time>2026-05-01T12:59:20.352Z</time></trkpt><trkpt lat="45.565425" lon="10.9831267"><ele>565.3333333333334</ele><time>2026-05-01T12:59:21.353Z</time></trkpt><trkpt lat="45.5655267" lon="10.9829467"><ele>566.6666666666667</ele><time>2026-05-01T12:59:22.353Z</time></trkpt><trkpt lat="45.5656167" lon="10.9827483"><ele>568.0</ele><time>2026-05-01T12:59:23.353Z</time></trkpt><trkpt lat="45.5657" lon="10.98253"><ele>573.6666666666667</ele><time>2026-05-01T12:59:24.352Z</time></trkpt><trkpt lat="45.5657967" lon="10.9823067"><ele>579.3333333333334</ele><time>2026-05-01T12:59:25.353Z</time></trkpt><trkpt lat="45.56591" lon="10.9821117"><ele>585.0</ele><time>2026-05-01T12:59:26.353Z</time></trkpt><trkpt lat="45.5660283" lon="10.9819267"><ele>585.0</ele><time>2026-05-01T12:59:27.353Z</time></trkpt><trkpt lat="45.5661383" lon="10.981725"><ele>585.0</ele><time>2026-05-01T12:59:28.353Z</time></trkpt><trkpt lat="45.5662217" lon="10.9815267"><ele>585.0</ele><time>2026-05-01T12:59:29.353Z</time></trkpt><trkpt lat="45.5662933" lon="10.9813167"><ele>583.6666666666666</ele><time>2026-05-01T12:59:30.353Z</time></trkpt><trkpt lat="45.5663817" lon="10.98113"><ele>582.3333333333333</ele><time>2026-05-01T12:59:31.352Z</time></trkpt><trkpt lat="45.5664933" lon="10.98098"><ele>581.0</ele><time>2026-05-01T12:59:32.353Z</time></trkpt><trkpt lat="45.5666283" lon="10.9808733"><ele>583.0</ele><time>2026-05-01T12:59:33.352Z</time></trkpt><trkpt lat="45.56677" lon="10.9807867"><ele>585.0</ele><time>2026-05-01T12:59:34.353Z</time></trkpt><trkpt lat="45.56691" lon="10.9806483"><ele>587.0</ele><time>2026-05-01T12:59:35.353Z</time></trkpt><trkpt lat="45.5670483" lon="10.980475"><ele>587.0</ele><time>2026-05-01T12:59:36.353Z</time></trkpt><trkpt lat="45.56718" lon="10.9802967"><ele>587.0</ele><time>2026-05-01T12:59:37.353Z</time></trkpt><trkpt lat="45.567305" lon="10.9800983"><ele>587.0</ele><time>2026-05-01T12:59:38.353Z</time></trkpt><trkpt lat="45.5674317" lon="10.9799"><ele>594.0</ele><time>2026-05-01T12:59:39.353Z</time></trkpt><trkpt lat="45.5675667" lon="10.97973"><ele>601.0</ele><time>2026-05-01T12:59:40.353Z</time></trkpt><trkpt lat="45.5677167" lon="10.9795867"><ele>608.0</ele><time>2026-05-01T12:59:41.353Z</time></trkpt><trkpt lat="45.5678483" lon="10.9793717"><ele>610.0</ele><time>2026-05-01T12:59:42.353Z</time></trkpt><trkpt lat="45.56796" lon="10.9791467"><ele>612.0</ele><time>2026-05-01T12:59:43.353Z</time></trkpt><trkpt lat="45.568075" lon="10.97895"><ele>614.0</ele><time>2026-05-01T12:59:44.352Z</time></trkpt><trkpt lat="45.5682" lon="10.9787883"><ele>614.0</ele><time>2026-05-01T12:59:45.352Z</time></trkpt><trkpt lat="45.5683567" lon="10.978685"><ele>614.0</ele><time>2026-05-01T12:59:46.353Z</time></trkpt><trkpt lat="45.5685367" lon="10.978595"><ele>614.0</ele><time>2026-05-01T12:59:47.353Z</time></trkpt><trkpt lat="45.5687233" lon="10.9785267"><ele>609.6666666666666</ele><time>2026-05-01T12:59:48.353Z</time></trkpt><trkpt lat="45.56891" lon="10.978445"><ele>605.3333333333334</ele><time>2026-05-01T12:59:49.353Z</time></trkpt><trkpt lat="45.56908" lon="10.978365"><ele>601.0</ele><time>2026-05-01T12:59:50.353Z</time></trkpt><trkpt lat="45.5692417" lon="10.978295"><ele>607.5</ele><time>2026-05-01T12:59:51.353Z</time></trkpt><trkpt lat="45.5693867" lon="10.9782317"><ele>614.0</ele><time>2026-05-01T12:59:52.353Z</time></trkpt><trkpt lat="45.5695167" lon="10.97818"><ele>620.5</ele><time>2026-05-01T12:59:53.353Z</time></trkpt><trkpt lat="45.5696333" lon="10.978145"><ele>627.0</ele><time>2026-05-01T12:59:54.353Z</time></trkpt><trkpt lat="45.5697317" lon="10.9781117"><ele>627.0</ele><time>2026-05-01T12:59:55.352Z</time></trkpt><trkpt lat="45.5698133" lon="10.978075"><ele>627.0</ele><time>2026-05-01T12:59:56.352Z</time></trkpt><trkpt lat="45.5698717" lon="10.9780183"><ele>627.0</ele><time>2026-05-01T12:59:57.352Z</time></trkpt><trkpt lat="45.5699017" lon="10.9778867"><ele>627.0</ele><time>2026-05-01T12:59:59.352Z</time></trkpt><trkpt lat="45.56978" lon="10.977795"><ele>627.0</ele><time>2026-05-01T13:00:01.352Z</time></trkpt><trkpt lat="45.56965" lon="10.9778333"><ele>628.25</ele><time>2026-05-01T13:00:02.352Z</time></trkpt><trkpt lat="45.5695033" lon="10.9778933"><ele>629.5</ele><time>2026-05-01T13:00:03.352Z</time></trkpt><trkpt lat="45.569355" lon="10.9779367"><ele>630.75</ele><time>2026-05-01T13:00:04.352Z</time></trkpt><trkpt lat="45.5692133" lon="10.9779717"><ele>632.0</ele><time>2026-05-01T13:00:05.352Z</time></trkpt><trkpt lat="45.5691233" lon="10.9779733"><ele>632.0</ele><time>2026-05-01T13:00:06.352Z</time></trkpt><trkpt lat="45.5690417" lon="10.9779133"><ele>632.0</ele><time>2026-05-01T13:00:08.352Z</time></trkpt><trkpt lat="45.5690967" lon="10.9778417"><ele>632.0</ele><time>2026-05-01T13:00:10.352Z</time></trkpt><trkpt lat="45.5691817" lon="10.9778433"><ele>632.0</ele><time>2026-05-01T13:00:11.352Z</time></trkpt><trkpt lat="45.5693033" lon="10.9778367"><ele>632.0</ele><time>2026-05-01T13:00:12.352Z</time></trkpt><trkpt lat="45.56945" lon="10.977795"><ele>630.3333333333333</ele><time>2026-05-01T13:00:13.352Z</time></trkpt><trkpt lat="45.569605" lon="10.977715"><ele>628.6666666666666</ele><time>2026-05-01T13:00:14.351Z</time></trkpt><trkpt lat="45.569755" lon="10.9776433"><ele>627.0</ele><time>2026-05-01T13:00:15.352Z</time></trkpt><trkpt lat="45.5699083" lon="10.9775483"><ele>636.3333333333334</ele><time>2026-05-01T13:00:16.352Z</time></trkpt><trkpt lat="45.5700633" lon="10.9774483"><ele>645.6666666666667</ele><time>2026-05-01T13:00:17.351Z</time></trkpt><trkpt lat="45.5702083" lon="10.977345"><ele>655.0</ele><time>2026-05-01T13:00:18.352Z</time></trkpt><trkpt lat="45.570335" lon="10.9771917"><ele>656.6666666666667</ele><time>2026-05-01T13:00:19.352Z</time></trkpt><trkpt lat="45.5704717" lon="10.97701"><ele>658.3333333333334</ele><time>2026-05-01T13:00:20.352Z</time></trkpt><trkpt lat="45.5705933" lon="10.9768333"><ele>660.0</ele><time>2026-05-01T13:00:21.352Z</time></trkpt><trkpt lat="45.5707183" lon="10.97665"><ele>660.0</ele><time>2026-05-01T13:00:22.352Z</time></trkpt><trkpt lat="45.570845" lon="10.9764733"><ele>660.0</ele><time>2026-05-01T13:00:23.352Z</time></trkpt><trkpt lat="45.5709667" lon="10.9763183"><ele>660.0</ele><time>2026-05-01T13:00:24.352Z</time></trkpt><trkpt lat="45.5710767" lon="10.9761883"><ele>660.0</ele><time>2026-05-01T13:00:25.352Z</time></trkpt><trkpt lat="45.57116" lon="10.9760833"><ele>660.0</ele><time>2026-05-01T13:00:26.352Z</time></trkpt><trkpt lat="45.57123" lon="10.976"><ele>660.0</ele><time>2026-05-01T13:00:27.352Z</time></trkpt><trkpt lat="45.5712933" lon="10.9759233"><ele>660.0</ele><time>2026-05-01T13:00:28.352Z</time></trkpt><trkpt lat="45.57134" lon="10.97584"><ele>660.0</ele><time>2026-05-01T13:00:29.352Z</time></trkpt><trkpt lat="45.5713733" lon="10.9757583"><ele>660.0</ele><time>2026-05-01T13:00:30.352Z</time></trkpt><trkpt lat="45.5714217" lon="10.97564"><ele>661.5</ele><time>2026-05-01T13:00:32.352Z</time></trkpt><trkpt lat="45.5714133" lon="10.9755417"><ele>663.0</ele><time>2026-05-01T13:00:34.352Z</time></trkpt><trkpt lat="45.5713283" lon="10.9754967"><ele>664.5</ele><time>2026-05-01T13:00:36.351Z</time></trkpt><trkpt lat="45.5712483" lon="10.97549"><ele>666.0</ele><time>2026-05-01T13:00:37.351Z</time></trkpt><trkpt lat="45.5711683" lon="10.975475"><ele>667.5</ele><time>2026-05-01T13:00:38.352Z</time></trkpt><trkpt lat="45.57109" lon="10.9754533"><ele>669.0</ele><time>2026-05-01T13:00:39.352Z</time></trkpt><trkpt lat="45.5710017" lon="10.9754117"><ele>669.3333333333334</ele><time>2026-05-01T13:00:40.352Z</time></trkpt><trkpt lat="45.57093" lon="10.9753667"><ele>669.6666666666666</ele><time>2026-05-01T13:00:41.352Z</time></trkpt><trkpt lat="45.5708567" lon="10.9753183"><ele>670.0</ele><time>2026-05-01T13:00:42.352Z</time></trkpt><trkpt lat="45.5707867" lon="10.9752617"><ele>670.3333333333333</ele><time>2026-05-01T13:00:43.352Z</time></trkpt><trkpt lat="45.5707267" lon="10.9751933"><ele>670.6666666666666</ele><time>2026-05-01T13:00:44.352Z</time></trkpt><trkpt lat="45.5706767" lon="10.97512"><ele>671.0</ele><time>2026-05-01T13:00:45.352Z</time></trkpt><trkpt lat="45.5706133" lon="10.9750033"><ele>671.0</ele><time>2026-05-01T13:00:47.352Z</time></trkpt><trkpt lat="45.5705733" lon="10.9749"><ele>671.0</ele><time>2026-05-01T13:00:50.352Z</time></trkpt><trkpt lat="45.5705283" lon="10.9747983"><ele>671.0</ele><time>2026-05-01T13:00:52.352Z</time></trkpt><trkpt lat="45.5704717" lon="10.9746567"><ele>671.0</ele><time>2026-05-01T13:00:54.352Z</time></trkpt><trkpt lat="45.5704367" lon="10.9745667"><ele>671.0</ele><time>2026-05-01T13:00:55.351Z</time></trkpt><trkpt lat="45.5703933" lon="10.974475"><ele>671.0</ele><time>2026-05-01T13:00:56.351Z</time></trkpt><trkpt lat="45.5703383" lon="10.9743917"><ele>671.1999999999999</ele><time>2026-05-01T13:00:57.352Z</time></trkpt><trkpt lat="45.5702483" lon="10.9742833"><ele>671.4</ele><time>2026-05-01T13:00:58.352Z</time></trkpt><trkpt lat="45.5701783" lon="10.97421"><ele>671.6</ele><time>2026-05-01T13:00:59.352Z</time></trkpt><trkpt lat="45.5701017" lon="10.9741467"><ele>671.8</ele><time>2026-05-01T13:01:00.352Z</time></trkpt><trkpt lat="45.5700133" lon="10.9740883"><ele>672.0</ele><time>2026-05-01T13:01:01.352Z</time></trkpt><trkpt lat="45.5699183" lon="10.97403"><ele>672.0</ele><time>2026-05-01T13:01:02.352Z</time></trkpt><trkpt lat="45.5698217" lon="10.9739733"><ele>672.0</ele><time>2026-05-01T13:01:03.351Z</time></trkpt><trkpt lat="45.5697217" lon="10.97393"><ele>672.0</ele><time>2026-05-01T13:01:04.352Z</time></trkpt><trkpt lat="45.5696233" lon="10.9739017"><ele>672.0</ele><time>2026-05-01T13:01:05.352Z</time></trkpt><trkpt lat="45.5695383" lon="10.9738783"><ele>672.0</ele><time>2026-05-01T13:01:06.352Z</time></trkpt><trkpt lat="45.5694467" lon="10.9738667"><ele>672.0</ele><time>2026-05-01T13:01:07.352Z</time></trkpt><trkpt lat="45.5693483" lon="10.973875"><ele>672.0</ele><time>2026-05-01T13:01:08.352Z</time></trkpt><trkpt lat="45.5692483" lon="10.9738983"><ele>672.0</ele><time>2026-05-01T13:01:09.352Z</time></trkpt><trkpt lat="45.5691533" lon="10.9739333"><ele>672.0</ele><time>2026-05-01T13:01:10.352Z</time></trkpt><trkpt lat="45.5690567" lon="10.9739833"><ele>672.0</ele><time>2026-05-01T13:01:11.352Z</time></trkpt><trkpt lat="45.5689533" lon="10.974035"><ele>672.0</ele><time>2026-05-01T13:01:12.351Z</time></trkpt><trkpt lat="45.56885" lon="10.9740817"><ele>672.0</ele><time>2026-05-01T13:01:13.352Z</time></trkpt><trkpt lat="45.56875" lon="10.97414"><ele>672.0</ele><time>2026-05-01T13:01:14.352Z</time></trkpt><trkpt lat="45.5686533" lon="10.9741967"><ele>672.0</ele><time>2026-05-01T13:01:15.351Z</time></trkpt><trkpt lat="45.56856" lon="10.974245"><ele>672.0</ele><time>2026-05-01T13:01:16.352Z</time></trkpt><trkpt lat="45.56846" lon="10.9743083"><ele>674.8</ele><time>2026-05-01T13:01:17.352Z</time></trkpt><trkpt lat="45.568365" lon="10.9743733"><ele>677.6</ele><time>2026-05-01T13:01:18.352Z</time></trkpt><trkpt lat="45.5682567" lon="10.9744167"><ele>680.4</ele><time>2026-05-01T13:01:19.352Z</time></trkpt><trkpt lat="45.568145" lon="10.9744667"><ele>683.1999999999999</ele><time>2026-05-01T13:01:20.352Z</time></trkpt><trkpt lat="45.568035" lon="10.9745017"><ele>686.0</ele><time>2026-05-01T13:01:21.352Z</time></trkpt><trkpt lat="45.5679267" lon="10.974485"><ele>684.5</ele><time>2026-05-01T13:01:22.352Z</time></trkpt><trkpt lat="45.5678167" lon="10.9744333"><ele>683.0</ele><time>2026-05-01T13:01:23.352Z</time></trkpt><trkpt lat="45.56771" lon="10.974355"><ele>681.5</ele><time>2026-05-01T13:01:24.351Z</time></trkpt><trkpt lat="45.5676117" lon="10.9742583"><ele>680.0</ele><time>2026-05-01T13:01:25.352Z</time></trkpt><trkpt lat="45.567515" lon="10.9741617"><ele>674.75</ele><time>2026-05-01T13:01:26.352Z</time></trkpt><trkpt lat="45.5674317" lon="10.9740467"><ele>669.5</ele><time>2026-05-01T13:01:27.352Z</time></trkpt><trkpt lat="45.567355" lon="10.9739333"><ele>664.25</ele><time>2026-05-01T13:01:28.352Z</time></trkpt><trkpt lat="45.5672683" lon="10.9738267"><ele>659.0</ele><time>2026-05-01T13:01:29.352Z</time></trkpt><trkpt lat="45.567175" lon="10.973725"><ele>659.0</ele><time>2026-05-01T13:01:30.351Z</time></trkpt><trkpt lat="45.5670817" lon="10.9736617"><ele>659.0</ele><time>2026-05-01T13:01:31.352Z</time></trkpt><trkpt lat="45.5669817" lon="10.9736133"><ele>659.0</ele><time>2026-05-01T13:01:32.352Z</time></trkpt><trkpt lat="45.566875" lon="10.9735733"><ele>659.0</ele><time>2026-05-01T13:01:33.351Z</time></trkpt><trkpt lat="45.566765" lon="10.9735383"><ele>659.0</ele><time>2026-05-01T13:01:34.352Z</time></trkpt><trkpt lat="45.5666583" lon="10.9734933"><ele>659.0</ele><time>2026-05-01T13:01:35.352Z</time></trkpt><trkpt lat="45.5665567" lon="10.9734483"><ele>659.0</ele><time>2026-05-01T13:01:36.352Z</time></trkpt><trkpt lat="45.566455" lon="10.9734"><ele>659.0</ele><time>2026-05-01T13:01:37.352Z</time></trkpt><trkpt lat="45.5663533" lon="10.9733583"><ele>659.0</ele><time>2026-05-01T13:01:38.352Z</time></trkpt><trkpt lat="45.56626" lon="10.973315"><ele>659.0</ele><time>2026-05-01T13:01:39.352Z</time></trkpt><trkpt lat="45.56618" lon="10.9732767"><ele>657.1666666666666</ele><time>2026-05-01T13:01:40.351Z</time></trkpt><trkpt lat="45.5661033" lon="10.97325"><ele>655.3333333333333</ele><time>2026-05-01T13:01:41.352Z</time></trkpt><trkpt lat="45.5660283" lon="10.9732167"><ele>653.5</ele><time>2026-05-01T13:01:42.352Z</time></trkpt><trkpt lat="45.5659717" lon="10.97317"><ele>651.6666666666666</ele><time>2026-05-01T13:01:43.352Z</time></trkpt><trkpt lat="45.56595" lon="10.9730683"><ele>649.8333333333334</ele><time>2026-05-01T13:01:45.352Z</time></trkpt><trkpt lat="45.5660567" lon="10.9729933"><ele>648.0</ele><time>2026-05-01T13:01:47.351Z</time></trkpt><trkpt lat="45.5661367" lon="10.9729783"><ele>647.4</ele><time>2026-05-01T13:01:48.351Z</time></trkpt><trkpt lat="45.5662283" lon="10.9729967"><ele>646.8</ele><time>2026-05-01T13:01:49.352Z</time></trkpt><trkpt lat="45.56633" lon="10.9730417"><ele>646.2</ele><time>2026-05-01T13:01:50.352Z</time></trkpt><trkpt lat="45.5664183" lon="10.9731033"><ele>645.6</ele><time>2026-05-01T13:01:51.352Z</time></trkpt><trkpt lat="45.5664867" lon="10.9731617"><ele>645.0</ele><time>2026-05-01T13:01:52.352Z</time></trkpt><trkpt lat="45.566545" lon="10.9732283"><ele>645.0</ele><time>2026-05-01T13:01:53.351Z</time></trkpt><trkpt lat="45.56662" lon="10.97325"><ele>645.0</ele><time>2026-05-01T13:01:55.351Z</time></trkpt><trkpt lat="45.5666417" lon="10.973155"><ele>645.0</ele><time>2026-05-01T13:01:57.352Z</time></trkpt><trkpt lat="45.5665983" lon="10.9730817"><ele>645.0</ele><time>2026-05-01T13:01:58.352Z</time></trkpt><trkpt lat="45.5665333" lon="10.9729883"><ele>645.0</ele><time>2026-05-01T13:01:59.352Z</time></trkpt><trkpt lat="45.5664767" lon="10.972865"><ele>645.0</ele><time>2026-05-01T13:02:00.352Z</time></trkpt><trkpt lat="45.5664217" lon="10.9727117"><ele>645.0</ele><time>2026-05-01T13:02:01.352Z</time></trkpt><trkpt lat="45.5663767" lon="10.9725633"><ele>645.0</ele><time>2026-05-01T13:02:02.352Z</time></trkpt><trkpt lat="45.56634" lon="10.9724267"><ele>645.0</ele><time>2026-05-01T13:02:03.352Z</time></trkpt><trkpt lat="45.5663117" lon="10.972285"><ele>645.0</ele><time>2026-05-01T13:02:04.352Z</time></trkpt><trkpt lat="45.5662867" lon="10.9721483"><ele>645.0</ele><time>2026-05-01T13:02:05.352Z</time></trkpt><trkpt lat="45.5662767" lon="10.9720083"><ele>642.25</ele><time>2026-05-01T13:02:06.352Z</time></trkpt><trkpt lat="45.5662717" lon="10.97185"><ele>639.5</ele><time>2026-05-01T13:02:07.352Z</time></trkpt><trkpt lat="45.5662767" lon="10.9716783"><ele>636.75</ele><time>2026-05-01T13:02:08.352Z</time></trkpt><trkpt lat="45.5662833" lon="10.9715167"><ele>634.0</ele><time>2026-05-01T13:02:09.352Z</time></trkpt><trkpt lat="45.5662933" lon="10.9713583"><ele>631.0</ele><time>2026-05-01T13:02:10.352Z</time></trkpt><trkpt lat="45.566305" lon="10.9712"><ele>628.0</ele><time>2026-05-01T13:02:11.352Z</time></trkpt><trkpt lat="45.5663217" lon="10.9710283"><ele>625.0</ele><time>2026-05-01T13:02:12.352Z</time></trkpt><trkpt lat="45.5663317" lon="10.97086"><ele>622.0</ele><time>2026-05-01T13:02:13.352Z</time></trkpt><trkpt lat="45.5663367" lon="10.97069"><ele>620.6</ele><time>2026-05-01T13:02:14.352Z</time></trkpt><trkpt lat="45.5663317" lon="10.9705333"><ele>619.2</ele><time>2026-05-01T13:02:15.352Z</time></trkpt><trkpt lat="45.5663233" lon="10.9703767"><ele>617.8</ele><time>2026-05-01T13:02:16.351Z</time></trkpt><trkpt lat="45.566305" lon="10.9702133"><ele>616.4</ele><time>2026-05-01T13:02:17.352Z</time></trkpt><trkpt lat="45.5662867" lon="10.970055"><ele>615.0</ele><time>2026-05-01T13:02:18.352Z</time></trkpt><trkpt lat="45.56628" lon="10.9698817"><ele>612.75</ele><time>2026-05-01T13:02:19.351Z</time></trkpt><trkpt lat="45.56628" lon="10.9697167"><ele>610.5</ele><time>2026-05-01T13:02:20.351Z</time></trkpt><trkpt lat="45.5662817" lon="10.9695517"><ele>608.25</ele><time>2026-05-01T13:02:21.352Z</time></trkpt><trkpt lat="45.5662833" lon="10.9693967"><ele>606.0</ele><time>2026-05-01T13:02:22.352Z</time></trkpt><trkpt lat="45.5662733" lon="10.96924"><ele>605.0</ele><time>2026-05-01T13:02:23.352Z</time></trkpt><trkpt lat="45.566255" lon="10.9690817"><ele>604.0</ele><time>2026-05-01T13:02:24.352Z</time></trkpt><trkpt lat="45.5662117" lon="10.9689317"><ele>603.0</ele><time>2026-05-01T13:02:25.351Z</time></trkpt><trkpt lat="45.56616" lon="10.9688"><ele>602.0</ele><time>2026-05-01T13:02:26.352Z</time></trkpt><trkpt lat="45.56609" lon="10.9686767"><ele>601.0</ele><time>2026-05-01T13:02:27.352Z</time></trkpt><trkpt lat="45.5660233" lon="10.9685583"><ele>600.8</ele><time>2026-05-01T13:02:28.352Z</time></trkpt><trkpt lat="45.5659483" lon="10.9684433"><ele>600.6</ele><time>2026-05-01T13:02:29.352Z</time></trkpt><trkpt lat="45.56586" lon="10.968355"><ele>600.4</ele><time>2026-05-01T13:02:30.352Z</time></trkpt><trkpt lat="45.565765" lon="10.9682983"><ele>600.2</ele><time>2026-05-01T13:02:31.352Z</time></trkpt><trkpt lat="45.5656667" lon="10.96827"><ele>600.0</ele><time>2026-05-01T13:02:32.352Z</time></trkpt><trkpt lat="45.565585" lon="10.9682317"><ele>598.2</ele><time>2026-05-01T13:02:33.352Z</time></trkpt><trkpt lat="45.5655167" lon="10.9681667"><ele>596.4</ele><time>2026-05-01T13:02:34.352Z</time></trkpt><trkpt lat="45.56547" lon="10.9680683"><ele>594.6</ele><time>2026-05-01T13:02:35.352Z</time></trkpt><trkpt lat="45.5654517" lon="10.9679467"><ele>592.8</ele><time>2026-05-01T13:02:36.352Z</time></trkpt><trkpt lat="45.5654367" lon="10.9678133"><ele>591.0</ele><time>2026-05-01T13:02:37.352Z</time></trkpt><trkpt lat="45.565425" lon="10.9676633"><ele>591.0</ele><time>2026-05-01T13:02:38.352Z</time></trkpt><trkpt lat="45.5654067" lon="10.96753"><ele>591.0</ele><time>2026-05-01T13:02:39.352Z</time></trkpt><trkpt lat="45.56539" lon="10.9673833"><ele>591.0</ele><time>2026-05-01T13:02:40.352Z</time></trkpt><trkpt lat="45.56537" lon="10.9672317"><ele>591.0</ele><time>2026-05-01T13:02:41.351Z</time></trkpt><trkpt lat="45.5653517" lon="10.9670867"><ele>591.0</ele><time>2026-05-01T13:02:42.352Z</time></trkpt><trkpt lat="45.5653367" lon="10.9669417"><ele>587.0</ele><time>2026-05-01T13:02:43.352Z</time></trkpt><trkpt lat="45.5653183" lon="10.9668083"><ele>583.0</ele><time>2026-05-01T13:02:44.352Z</time></trkpt><trkpt lat="45.5652983" lon="10.9666867"><ele>579.0</ele><time>2026-05-01T13:02:45.352Z</time></trkpt><trkpt lat="45.5652783" lon="10.9665683"><ele>575.0</ele><time>2026-05-01T13:02:46.352Z</time></trkpt><trkpt lat="45.5652683" lon="10.9664733"><ele>571.0</ele><time>2026-05-01T13:02:47.352Z</time></trkpt><trkpt lat="45.5653183" lon="10.9663683"><ele>567.0</ele><time>2026-05-01T13:02:49.352Z</time></trkpt><trkpt lat="45.56539" lon="10.9663933"><ele>567.0</ele><time>2026-05-01T13:02:50.352Z</time></trkpt><trkpt lat="45.5654717" lon="10.966445"><ele>567.0</ele><time>2026-05-01T13:02:51.352Z</time></trkpt><trkpt lat="45.56557" lon="10.9664933"><ele>567.0</ele><time>2026-05-01T13:02:52.352Z</time></trkpt><trkpt lat="45.5656733" lon="10.9665617"><ele>567.0</ele><time>2026-05-01T13:02:53.352Z</time></trkpt><trkpt lat="45.5657817" lon="10.96664"><ele>567.0</ele><time>2026-05-01T13:02:54.352Z</time></trkpt><trkpt lat="45.565875" lon="10.9667317"><ele>569.4</ele><time>2026-05-01T13:02:55.352Z</time></trkpt><trkpt lat="45.5659517" lon="10.9668317"><ele>571.8000000000001</ele><time>2026-05-01T13:02:56.351Z</time></trkpt><trkpt lat="45.5660233" lon="10.9669333"><ele>574.2</ele><time>2026-05-01T13:02:57.352Z</time></trkpt><trkpt lat="45.566095" lon="10.9670183"><ele>576.6</ele><time>2026-05-01T13:02:58.352Z</time></trkpt><trkpt lat="45.5661617" lon="10.9670783"><ele>579.0</ele><time>2026-05-01T13:02:59.352Z</time></trkpt><trkpt lat="45.5662583" lon="10.967075"><ele>579.0</ele><time>2026-05-01T13:03:01.352Z</time></trkpt><trkpt lat="45.5663" lon="10.9669067"><ele>579.0</ele><time>2026-05-01T13:03:03.352Z</time></trkpt><trkpt lat="45.5663" lon="10.9667667"><ele>579.0</ele><time>2026-05-01T13:03:04.352Z</time></trkpt><trkpt lat="45.5662983" lon="10.9666"><ele>579.0</ele><time>2026-05-01T13:03:05.352Z</time></trkpt><trkpt lat="45.5662883" lon="10.9664317"><ele>576.75</ele><time>2026-05-01T13:03:06.351Z</time></trkpt><trkpt lat="45.5662633" lon="10.9662117"><ele>574.5</ele><time>2026-05-01T13:03:07.352Z</time></trkpt><trkpt lat="45.566255" lon="10.9660383"><ele>572.25</ele><time>2026-05-01T13:03:08.352Z</time></trkpt><trkpt lat="45.56625" lon="10.96586"><ele>570.0</ele><time>2026-05-01T13:03:09.352Z</time></trkpt><trkpt lat="45.5662733" lon="10.96576"><ele>570.0</ele><time>2026-05-01T13:03:10.352Z</time></trkpt><trkpt lat="45.5663883" lon="10.96575"><ele>570.0</ele><time>2026-05-01T13:03:12.351Z</time></trkpt><trkpt lat="45.566475" lon="10.9658217"><ele>570.0</ele><time>2026-05-01T13:03:13.352Z</time></trkpt><trkpt lat="45.56657" lon="10.96593"><ele>570.0</ele><time>2026-05-01T13:03:14.352Z</time></trkpt><trkpt lat="45.5666683" lon="10.9660417"><ele>570.0</ele><time>2026-05-01T13:03:15.352Z</time></trkpt><trkpt lat="45.5667517" lon="10.96614"><ele>570.0</ele><time>2026-05-01T13:03:16.351Z</time></trkpt><trkpt lat="45.5668417" lon="10.9662183"><ele>570.0</ele><time>2026-05-01T13:03:17.351Z</time></trkpt><trkpt lat="45.5669317" lon="10.9662817"><ele>570.0</ele><time>2026-05-01T13:03:18.352Z</time></trkpt><trkpt lat="45.5670283" lon="10.9663333"><ele>570.0</ele><time>2026-05-01T13:03:19.351Z</time></trkpt><trkpt lat="45.56712" lon="10.9663583"><ele>571.0</ele><time>2026-05-01T13:03:20.352Z</time></trkpt><trkpt lat="45.5672083" lon="10.96637"><ele>572.0</ele><time>2026-05-01T13:03:21.352Z</time></trkpt><trkpt lat="45.5672833" lon="10.96634"><ele>573.0</ele><time>2026-05-01T13:03:22.352Z</time></trkpt><trkpt lat="45.567345" lon="10.9662733"><ele>574.0</ele><time>2026-05-01T13:03:23.352Z</time></trkpt><trkpt lat="45.5673983" lon="10.9661067"><ele>575.0</ele><time>2026-05-01T13:03:25.352Z</time></trkpt><trkpt lat="45.5673817" lon="10.9659833"><ele>575.2</ele><time>2026-05-01T13:03:26.352Z</time></trkpt><trkpt lat="45.5673383" lon="10.9658583"><ele>575.4</ele><time>2026-05-01T13:03:27.352Z</time></trkpt><trkpt lat="45.56728" lon="10.96572"><ele>575.6</ele><time>2026-05-01T13:03:28.352Z</time></trkpt><trkpt lat="45.56723" lon="10.9655867"><ele>575.8</ele><time>2026-05-01T13:03:29.352Z</time></trkpt><trkpt lat="45.5671867" lon="10.96546"><ele>576.0</ele><time>2026-05-01T13:03:30.352Z</time></trkpt><trkpt lat="45.567175" lon="10.9653483"><ele>576.0</ele><time>2026-05-01T13:03:31.351Z</time></trkpt><trkpt lat="45.5672133" lon="10.9651917"><ele>576.0</ele><time>2026-05-01T13:03:33.351Z</time></trkpt><trkpt lat="45.5673083" lon="10.96505"><ele>576.0</ele><time>2026-05-01T13:03:35.35Z</time></trkpt><trkpt lat="45.56735" lon="10.9649517"><ele>576.0</ele><time>2026-05-01T13:03:36.351Z</time></trkpt><trkpt lat="45.56737" lon="10.96484"><ele>576.0</ele><time>2026-05-01T13:03:37.351Z</time></trkpt><trkpt lat="45.5673917" lon="10.964715"><ele>576.0</ele><time>2026-05-01T13:03:38.351Z</time></trkpt><trkpt lat="45.567405" lon="10.964575"><ele>576.0</ele><time>2026-05-01T13:03:39.35Z</time></trkpt><trkpt lat="45.567395" lon="10.9644267"><ele>576.0</ele><time>2026-05-01T13:03:40.351Z</time></trkpt><trkpt lat="45.5673617" lon="10.9642783"><ele>576.0</ele><time>2026-05-01T13:03:41.351Z</time></trkpt><trkpt lat="45.5673217" lon="10.9641233"><ele>576.0</ele><time>2026-05-01T13:03:42.351Z</time></trkpt><trkpt lat="45.567265" lon="10.9639783"><ele>576.0</ele><time>2026-05-01T13:03:43.351Z</time></trkpt><trkpt lat="45.5672317" lon="10.963825"><ele>576.0</ele><time>2026-05-01T13:03:44.351Z</time></trkpt><trkpt lat="45.567205" lon="10.9636617"><ele>576.0</ele><time>2026-05-01T13:03:45.351Z</time></trkpt><trkpt lat="45.567145" lon="10.9635033"><ele>576.0</ele><time>2026-05-01T13:03:46.351Z</time></trkpt><trkpt lat="45.5670667" lon="10.96336"><ele>572.4</ele><time>2026-05-01T13:03:47.351Z</time></trkpt><trkpt lat="45.5669967" lon="10.9632233"><ele>568.8</ele><time>2026-05-01T13:03:48.351Z</time></trkpt><trkpt lat="45.5669433" lon="10.963105"><ele>565.1999999999999</ele><time>2026-05-01T13:03:49.351Z</time></trkpt><trkpt lat="45.5668983" lon="10.962985"><ele>561.6</ele><time>2026-05-01T13:03:50.351Z</time></trkpt><trkpt lat="45.5668533" lon="10.9628883"><ele>558.0</ele><time>2026-05-01T13:03:51.351Z</time></trkpt><trkpt lat="45.5668017" lon="10.962825"><ele>558.0</ele><time>2026-05-01T13:03:52.351Z</time></trkpt><trkpt lat="45.5666683" lon="10.9628017"><ele>558.0</ele><time>2026-05-01T13:03:54.351Z</time></trkpt><trkpt lat="45.5665767" lon="10.9628117"><ele>558.0</ele><time>2026-05-01T13:03:55.351Z</time></trkpt><trkpt lat="45.5664783" lon="10.9628067"><ele>558.0</ele><time>2026-05-01T13:03:56.351Z</time></trkpt><trkpt lat="45.5663733" lon="10.9627733"><ele>558.0</ele><time>2026-05-01T13:03:57.351Z</time></trkpt><trkpt lat="45.5662683" lon="10.9627233"><ele>556.4</ele><time>2026-05-01T13:03:58.351Z</time></trkpt><trkpt lat="45.5661683" lon="10.9626567"><ele>554.8</ele><time>2026-05-01T13:03:59.351Z</time></trkpt><trkpt lat="45.5660767" lon="10.9625817"><ele>553.2</ele><time>2026-05-01T13:04:00.35Z</time></trkpt><trkpt lat="45.5659867" lon="10.9624917"><ele>551.6</ele><time>2026-05-01T13:04:01.351Z</time></trkpt><trkpt lat="45.5658967" lon="10.9623783"><ele>550.0</ele><time>2026-05-01T13:04:02.351Z</time></trkpt><trkpt lat="45.5658117" lon="10.9622683"><ele>550.0</ele><time>2026-05-01T13:04:03.351Z</time></trkpt><trkpt lat="45.565735" lon="10.9621583"><ele>550.0</ele><time>2026-05-01T13:04:04.351Z</time></trkpt><trkpt lat="45.5656567" lon="10.9620567"><ele>550.0</ele><time>2026-05-01T13:04:05.351Z</time></trkpt><trkpt lat="45.565585" lon="10.9619583"><ele>550.0</ele><time>2026-05-01T13:04:06.35Z</time></trkpt><trkpt lat="45.5655283" lon="10.9618567"><ele>550.0</ele><time>2026-05-01T13:04:07.351Z</time></trkpt><trkpt lat="45.5654933" lon="10.96175"><ele>549.5</ele><time>2026-05-01T13:04:08.351Z</time></trkpt><trkpt lat="45.5655017" lon="10.9616583"><ele>549.0</ele><time>2026-05-01T13:04:09.351Z</time></trkpt><trkpt lat="45.5655783" lon="10.9615667"><ele>548.5</ele><time>2026-05-01T13:04:11.351Z</time></trkpt><trkpt lat="45.5656367" lon="10.96151"><ele>548.0</ele><time>2026-05-01T13:04:13.351Z</time></trkpt><trkpt lat="45.5655767" lon="10.9614667"><ele>547.5</ele><time>2026-05-01T13:04:15.351Z</time></trkpt><trkpt lat="45.5655017" lon="10.9614517"><ele>547.0</ele><time>2026-05-01T13:04:16.351Z</time></trkpt><trkpt lat="45.5654133" lon="10.9614333"><ele>547.0</ele><time>2026-05-01T13:04:17.351Z</time></trkpt><trkpt lat="45.56533" lon="10.9614067"><ele>547.0</ele><time>2026-05-01T13:04:18.351Z</time></trkpt><trkpt lat="45.5652667" lon="10.9613033"><ele>547.0</ele><time>2026-05-01T13:04:20.351Z</time></trkpt><trkpt lat="45.5653433" lon="10.9612233"><ele>547.0</ele><time>2026-05-01T13:04:22.351Z</time></trkpt><trkpt lat="45.5654233" lon="10.9612117"><ele>547.0</ele><time>2026-05-01T13:04:23.351Z</time></trkpt><trkpt lat="45.5655217" lon="10.961215"><ele>547.0</ele><time>2026-05-01T13:04:24.35Z</time></trkpt><trkpt lat="45.5656083" lon="10.9612333"><ele>547.0</ele><time>2026-05-01T13:04:25.351Z</time></trkpt><trkpt lat="45.56568" lon="10.96124"><ele>547.0</ele><time>2026-05-01T13:04:26.351Z</time></trkpt><trkpt lat="45.5657633" lon="10.9611983"><ele>547.0</ele><time>2026-05-01T13:04:28.351Z</time></trkpt><trkpt lat="45.5657367" lon="10.9611117"><ele>547.0</ele><time>2026-05-01T13:04:30.351Z</time></trkpt><trkpt lat="45.5656583" lon="10.9610683"><ele>547.0</ele><time>2026-05-01T13:04:31.351Z</time></trkpt><trkpt lat="45.56554" lon="10.9610067"><ele>547.0</ele><time>2026-05-01T13:04:32.351Z</time></trkpt><trkpt lat="45.5654133" lon="10.9609433"><ele>547.0</ele><time>2026-05-01T13:04:33.351Z</time></trkpt><trkpt lat="45.5652817" lon="10.9608833"><ele>547.0</ele><time>2026-05-01T13:04:34.351Z</time></trkpt><trkpt lat="45.5651667" lon="10.96086"><ele>547.0</ele><time>2026-05-01T13:04:35.351Z</time></trkpt><trkpt lat="45.5650617" lon="10.9608617"><ele>544.3333333333334</ele><time>2026-05-01T13:04:36.35Z</time></trkpt><trkpt lat="45.5649617" lon="10.9608833"><ele>541.6666666666667</ele><time>2026-05-01T13:04:37.35Z</time></trkpt><trkpt lat="45.5648717" lon="10.9609117"><ele>539.0</ele><time>2026-05-01T13:04:38.351Z</time></trkpt><trkpt lat="45.5648" lon="10.9609267"><ele>536.3333333333334</ele><time>2026-05-01T13:04:39.351Z</time></trkpt><trkpt lat="45.564725" lon="10.960905"><ele>533.6666666666666</ele><time>2026-05-01T13:04:40.351Z</time></trkpt><trkpt lat="45.5646667" lon="10.96083"><ele>531.0</ele><time>2026-05-01T13:04:41.351Z</time></trkpt><trkpt lat="45.564635" lon="10.9607167"><ele>530.0</ele><time>2026-05-01T13:04:42.351Z</time></trkpt><trkpt lat="45.5646383" lon="10.9605833"><ele>529.0</ele><time>2026-05-01T13:04:43.351Z</time></trkpt><trkpt lat="45.5646167" lon="10.96047"><ele>528.0</ele><time>2026-05-01T13:04:45.351Z</time></trkpt><trkpt lat="45.5645717" lon="10.9605467"><ele>527.0</ele><time>2026-05-01T13:04:47.351Z</time></trkpt><trkpt lat="45.5645833" lon="10.9607067"><ele>526.0</ele><time>2026-05-01T13:04:49.351Z</time></trkpt><trkpt lat="45.56453" lon="10.9607817"><ele>525.0</ele><time>2026-05-01T13:04:51.351Z</time></trkpt><trkpt lat="45.5645033" lon="10.9606717"><ele>525.0</ele><time>2026-05-01T13:04:53.351Z</time></trkpt><trkpt lat="45.564515" lon="10.9605517"><ele>525.0</ele><time>2026-05-01T13:04:54.351Z</time></trkpt><trkpt lat="45.5645317" lon="10.9603817"><ele>525.0</ele><time>2026-05-01T13:04:55.351Z</time></trkpt><trkpt lat="45.5645533" lon="10.9601983"><ele>525.0</ele><time>2026-05-01T13:04:56.35Z</time></trkpt><trkpt lat="45.5645767" lon="10.9600333"><ele>520.5</ele><time>2026-05-01T13:04:57.351Z</time></trkpt><trkpt lat="45.5645917" lon="10.959885"><ele>516.0</ele><time>2026-05-01T13:04:58.351Z</time></trkpt><trkpt lat="45.5645967" lon="10.95973"><ele>511.5</ele><time>2026-05-01T13:04:59.351Z</time></trkpt><trkpt lat="45.56457" lon="10.95956"><ele>507.0</ele><time>2026-05-01T13:05:00.351Z</time></trkpt><trkpt lat="45.564495" lon="10.9593783"><ele>504.33333333333337</ele><time>2026-05-01T13:05:01.35Z</time></trkpt><trkpt lat="45.564395" lon="10.9592033"><ele>501.6666666666667</ele><time>2026-05-01T13:05:02.351Z</time></trkpt><trkpt lat="45.5642967" lon="10.959035"><ele>499.0</ele><time>2026-05-01T13:05:03.35Z</time></trkpt><trkpt lat="45.5642067" lon="10.958875"><ele>496.75</ele><time>2026-05-01T13:05:04.35Z</time></trkpt><trkpt lat="45.5641233" lon="10.9587217"><ele>494.5</ele><time>2026-05-01T13:05:05.351Z</time></trkpt><trkpt lat="45.564045" lon="10.958585"><ele>492.25</ele><time>2026-05-01T13:05:06.35Z</time></trkpt><trkpt lat="45.56397" lon="10.95846"><ele>490.0</ele><time>2026-05-01T13:05:07.35Z</time></trkpt><trkpt lat="45.5638967" lon="10.9583367"><ele>489.0</ele><time>2026-05-01T13:05:08.351Z</time></trkpt><trkpt lat="45.5638183" lon="10.9582067"><ele>488.0</ele><time>2026-05-01T13:05:09.351Z</time></trkpt><trkpt lat="45.5637467" lon="10.958075"><ele>487.0</ele><time>2026-05-01T13:05:10.351Z</time></trkpt><trkpt lat="45.563675" lon="10.9579433"><ele>486.0</ele><time>2026-05-01T13:05:11.35Z</time></trkpt><trkpt lat="45.5636" lon="10.9578167"><ele>486.25</ele><time>2026-05-01T13:05:12.351Z</time></trkpt><trkpt lat="45.5635167" lon="10.9576933"><ele>486.5</ele><time>2026-05-01T13:05:13.351Z</time></trkpt><trkpt lat="45.56343" lon="10.957565"><ele>486.75</ele><time>2026-05-01T13:05:14.351Z</time></trkpt><trkpt lat="45.5633433" lon="10.9574433"><ele>487.0</ele><time>2026-05-01T13:05:15.351Z</time></trkpt><trkpt lat="45.5632533" lon="10.9573133"><ele>487.0</ele><time>2026-05-01T13:05:16.351Z</time></trkpt><trkpt lat="45.56316" lon="10.9571933"><ele>487.0</ele><time>2026-05-01T13:05:17.351Z</time></trkpt><trkpt lat="45.5630717" lon="10.95706"><ele>487.0</ele><time>2026-05-01T13:05:18.351Z</time></trkpt><trkpt lat="45.562985" lon="10.9569333"><ele>487.0</ele><time>2026-05-01T13:05:19.35Z</time></trkpt><trkpt lat="45.5629017" lon="10.956815"><ele>484.20000000000005</ele><time>2026-05-01T13:05:20.351Z</time></trkpt><trkpt lat="45.5628317" lon="10.9566867"><ele>481.40000000000003</ele><time>2026-05-01T13:05:21.351Z</time></trkpt><trkpt lat="45.5627733" lon="10.95655"><ele>478.59999999999997</ele><time>2026-05-01T13:05:22.35Z</time></trkpt><trkpt lat="45.5627283" lon="10.9564217"><ele>475.79999999999995</ele><time>2026-05-01T13:05:23.351Z</time></trkpt><trkpt lat="45.5626967" lon="10.9563033"><ele>473.0</ele><time>2026-05-01T13:05:24.351Z</time></trkpt><trkpt lat="45.5626867" lon="10.9562"><ele>472.99999999999994</ele><time>2026-05-01T13:05:25.351Z</time></trkpt><trkpt lat="45.562765" lon="10.956155"><ele>473.0</ele><time>2026-05-01T13:05:27.35Z</time></trkpt><trkpt lat="45.5628383" lon="10.9561967"><ele>473.0</ele><time>2026-05-01T13:05:28.351Z</time></trkpt><trkpt lat="45.5629067" lon="10.9562567"><ele>473.0</ele><time>2026-05-01T13:05:29.351Z</time></trkpt><trkpt lat="45.5629967" lon="10.9562933"><ele>472.99999999999994</ele><time>2026-05-01T13:05:31.351Z</time></trkpt><trkpt lat="45.5630117" lon="10.9562033"><ele>473.0</ele><time>2026-05-01T13:05:35.351Z</time></trkpt><trkpt lat="45.5629217" lon="10.9560983"><ele>473.0</ele><time>2026-05-01T13:05:37.351Z</time></trkpt><trkpt lat="45.56285" lon="10.956035"><ele>472.99999999999994</ele><time>2026-05-01T13:05:38.351Z</time></trkpt><trkpt lat="45.5627583" lon="10.955955"><ele>472.99999999999994</ele><time>2026-05-01T13:05:39.351Z</time></trkpt><trkpt lat="45.5626567" lon="10.9558833"><ele>473.0</ele><time>2026-05-01T13:05:40.351Z</time></trkpt><trkpt lat="45.5625483" lon="10.9558433"><ele>473.0</ele><time>2026-05-01T13:05:41.35Z</time></trkpt><trkpt lat="45.5624483" lon="10.9558683"><ele>473.0</ele><time>2026-05-01T13:05:42.351Z</time></trkpt><trkpt lat="45.5623817" lon="10.955945"><ele>472.99999999999994</ele><time>2026-05-01T13:05:43.35Z</time></trkpt><trkpt lat="45.56234" lon="10.9560683"><ele>472.99999999999994</ele><time>2026-05-01T13:05:44.351Z</time></trkpt><trkpt lat="45.5623433" lon="10.9562283"><ele>473.0</ele><time>2026-05-01T13:05:45.351Z</time></trkpt><trkpt lat="45.5623717" lon="10.9564183"><ele>473.0</ele><time>2026-05-01T13:05:46.351Z</time></trkpt><trkpt lat="45.56241" lon="10.9566367"><ele>470.3333333333333</ele><time>2026-05-01T13:05:47.351Z</time></trkpt><trkpt lat="45.56245" lon="10.95685"><ele>467.66666666666663</ele><time>2026-05-01T13:05:48.351Z</time></trkpt><trkpt lat="45.56249" lon="10.9570483"><ele>465.0</ele><time>2026-05-01T13:05:49.351Z</time></trkpt><trkpt lat="45.562545" lon="10.9572483"><ele>465.0</ele><time>2026-05-01T13:05:50.351Z</time></trkpt><trkpt lat="45.5626133" lon="10.9574633"><ele>465.0</ele><time>2026-05-01T13:05:51.351Z</time></trkpt><trkpt lat="45.56268" lon="10.95769"><ele>465.0</ele><time>2026-05-01T13:05:52.351Z</time></trkpt><trkpt lat="45.5627283" lon="10.9579283"><ele>462.33333333333337</ele><time>2026-05-01T13:05:53.351Z</time></trkpt><trkpt lat="45.5627817" lon="10.9581583"><ele>459.6666666666667</ele><time>2026-05-01T13:05:54.35Z</time></trkpt><trkpt lat="45.5628233" lon="10.9583917"><ele>457.0</ele><time>2026-05-01T13:05:55.35Z</time></trkpt><trkpt lat="45.5628533" lon="10.9586117"><ele>457.0</ele><time>2026-05-01T13:05:56.351Z</time></trkpt><trkpt lat="45.562855" lon="10.95882"><ele>457.0</ele><time>2026-05-01T13:05:57.351Z</time></trkpt><trkpt lat="45.5628233" lon="10.9590117"><ele>457.0</ele><time>2026-05-01T13:05:58.351Z</time></trkpt><trkpt lat="45.5627617" lon="10.9591667"><ele>457.0</ele><time>2026-05-01T13:05:59.351Z</time></trkpt><trkpt lat="45.56265" lon="10.9592367"><ele>457.0</ele><time>2026-05-01T13:06:00.351Z</time></trkpt><trkpt lat="45.562515" lon="10.9592217"><ele>457.0</ele><time>2026-05-01T13:06:01.351Z</time></trkpt><trkpt lat="45.56238" lon="10.9591267"><ele>457.0</ele><time>2026-05-01T13:06:02.351Z</time></trkpt><trkpt lat="45.5622433" lon="10.9589783"><ele>457.0</ele><time>2026-05-01T13:06:03.351Z</time></trkpt><trkpt lat="45.5621117" lon="10.9588183"><ele>457.0</ele><time>2026-05-01T13:06:04.351Z</time></trkpt><trkpt lat="45.5619767" lon="10.9586483"><ele>457.0</ele><time>2026-05-01T13:06:05.351Z</time></trkpt><trkpt lat="45.5618367" lon="10.95847"><ele>454.0</ele><time>2026-05-01T13:06:06.351Z</time></trkpt><trkpt lat="45.5616967" lon="10.958305"><ele>451.0</ele><time>2026-05-01T13:06:07.351Z</time></trkpt><trkpt lat="45.5615567" lon="10.9581333"><ele>448.0</ele><time>2026-05-01T13:06:08.35Z</time></trkpt><trkpt lat="45.5614283" lon="10.9579667"><ele>448.0</ele><time>2026-05-01T13:06:09.351Z</time></trkpt><trkpt lat="45.5613067" lon="10.9578017"><ele>448.0</ele><time>2026-05-01T13:06:10.351Z</time></trkpt><trkpt lat="45.5611867" lon="10.9576367"><ele>448.0</ele><time>2026-05-01T13:06:11.351Z</time></trkpt><trkpt lat="45.5610617" lon="10.9574833"><ele>444.0</ele><time>2026-05-01T13:06:12.351Z</time></trkpt><trkpt lat="45.560945" lon="10.95733"><ele>440.0</ele><time>2026-05-01T13:06:13.351Z</time></trkpt><trkpt lat="45.5608317" lon="10.9571783"><ele>436.0</ele><time>2026-05-01T13:06:14.351Z</time></trkpt><trkpt lat="45.560725" lon="10.9570267"><ele>436.0</ele><time>2026-05-01T13:06:15.351Z</time></trkpt><trkpt lat="45.5606217" lon="10.95686"><ele>436.0</ele><time>2026-05-01T13:06:16.351Z</time></trkpt><trkpt lat="45.5605317" lon="10.9566917"><ele>436.0</ele><time>2026-05-01T13:06:17.351Z</time></trkpt><trkpt lat="45.560455" lon="10.956515"><ele>435.6666666666667</ele><time>2026-05-01T13:06:18.351Z</time></trkpt><trkpt lat="45.5603833" lon="10.9563267"><ele>435.33333333333337</ele><time>2026-05-01T13:06:19.351Z</time></trkpt><trkpt lat="45.5602983" lon="10.9561433"><ele>435.0</ele><time>2026-05-01T13:06:20.35Z</time></trkpt><trkpt lat="45.560195" lon="10.9559833"><ele>432.33333333333337</ele><time>2026-05-01T13:06:21.351Z</time></trkpt><trkpt lat="45.5600783" lon="10.9558483"><ele>429.6666666666667</ele><time>2026-05-01T13:06:22.35Z</time></trkpt><trkpt lat="45.5599517" lon="10.9557167"><ele>427.0</ele><time>2026-05-01T13:06:23.351Z</time></trkpt><trkpt lat="45.559825" lon="10.95559"><ele>427.0</ele><time>2026-05-01T13:06:24.35Z</time></trkpt><trkpt lat="45.5596933" lon="10.955465"><ele>427.0</ele><time>2026-05-01T13:06:25.35Z</time></trkpt><trkpt lat="45.559555" lon="10.9553333"><ele>427.0</ele><time>2026-05-01T13:06:26.35Z</time></trkpt><trkpt lat="45.5594217" lon="10.9552"><ele>422.6666666666667</ele><time>2026-05-01T13:06:27.351Z</time></trkpt><trkpt lat="45.5592883" lon="10.95506"><ele>418.33333333333337</ele><time>2026-05-01T13:06:28.35Z</time></trkpt><trkpt lat="45.5591617" lon="10.954915"><ele>414.0</ele><time>2026-05-01T13:06:29.351Z</time></trkpt><trkpt lat="45.559035" lon="10.9547533"><ele>414.0</ele><time>2026-05-01T13:06:30.35Z</time></trkpt><trkpt lat="45.5589067" lon="10.9545867"><ele>414.0</ele><time>2026-05-01T13:06:31.351Z</time></trkpt><trkpt lat="45.5587817" lon="10.9544017"><ele>414.0</ele><time>2026-05-01T13:06:32.35Z</time></trkpt><trkpt lat="45.5586583" lon="10.954225"><ele>407.0</ele><time>2026-05-01T13:06:33.351Z</time></trkpt><trkpt lat="45.5585483" lon="10.9540417"><ele>400.0</ele><time>2026-05-01T13:06:34.351Z</time></trkpt><trkpt lat="45.5584667" lon="10.9538333"><ele>393.0</ele><time>2026-05-01T13:06:35.351Z</time></trkpt><trkpt lat="45.558415" lon="10.9536017"><ele>393.0</ele><time>2026-05-01T13:06:36.351Z</time></trkpt><trkpt lat="45.5583533" lon="10.9533917"><ele>393.0</ele><time>2026-05-01T13:06:37.351Z</time></trkpt><trkpt lat="45.5582583" lon="10.9531983"><ele>393.0</ele><time>2026-05-01T13:06:38.351Z</time></trkpt><trkpt lat="45.55813" lon="10.9530383"><ele>395.33333333333337</ele><time>2026-05-01T13:06:39.351Z</time></trkpt><trkpt lat="45.5580167" lon="10.9528683"><ele>397.6666666666667</ele><time>2026-05-01T13:06:40.351Z</time></trkpt><trkpt lat="45.5579333" lon="10.9526767"><ele>400.0</ele><time>2026-05-01T13:06:41.351Z</time></trkpt><trkpt lat="45.5578933" lon="10.9524517"><ele>394.0</ele><time>2026-05-01T13:06:42.351Z</time></trkpt><trkpt lat="45.5578683" lon="10.952215"><ele>388.0</ele><time>2026-05-01T13:06:43.351Z</time></trkpt><trkpt lat="45.5578267" lon="10.95198"><ele>382.0</ele><time>2026-05-01T13:06:44.35Z</time></trkpt><trkpt lat="45.55777" lon="10.9517517"><ele>383.3333333333333</ele><time>2026-05-01T13:06:45.35Z</time></trkpt><trkpt lat="45.5577033" lon="10.9515233"><ele>384.66666666666663</ele><time>2026-05-01T13:06:46.351Z</time></trkpt><trkpt lat="45.5576417" lon="10.9512867"><ele>386.0</ele><time>2026-05-01T13:06:47.351Z</time></trkpt><trkpt lat="45.55758" lon="10.951055"><ele>384.25</ele><time>2026-05-01T13:06:48.351Z</time></trkpt><trkpt lat="45.5575333" lon="10.95084"><ele>382.5</ele><time>2026-05-01T13:06:49.351Z</time></trkpt><trkpt lat="45.557525" lon="10.95063"><ele>380.75</ele><time>2026-05-01T13:06:50.351Z</time></trkpt><trkpt lat="45.5575733" lon="10.9504483"><ele>379.0</ele><time>2026-05-01T13:06:51.351Z</time></trkpt><trkpt lat="45.5576183" lon="10.9502633"><ele>379.0</ele><time>2026-05-01T13:06:52.351Z</time></trkpt><trkpt lat="45.557605" lon="10.950125"><ele>379.0</ele><time>2026-05-01T13:06:53.351Z</time></trkpt><trkpt lat="45.5575267" lon="10.95002"><ele>379.0</ele><time>2026-05-01T13:06:54.351Z</time></trkpt><trkpt lat="45.5574167" lon="10.9499783"><ele>379.0</ele><time>2026-05-01T13:06:55.35Z</time></trkpt><trkpt lat="45.5572767" lon="10.9499933"><ele>375.3333333333333</ele><time>2026-05-01T13:06:56.351Z</time></trkpt><trkpt lat="45.5571217" lon="10.9500367"><ele>371.6666666666667</ele><time>2026-05-01T13:06:57.351Z</time></trkpt><trkpt lat="45.5569417" lon="10.95012"><ele>368.0</ele><time>2026-05-01T13:06:58.351Z</time></trkpt><trkpt lat="45.5567633" lon="10.9502083"><ele>367.6666666666667</ele><time>2026-05-01T13:06:59.351Z</time></trkpt><trkpt lat="45.556575" lon="10.9502833"><ele>367.3333333333333</ele><time>2026-05-01T13:07:00.351Z</time></trkpt><trkpt lat="45.5563883" lon="10.9503483"><ele>367.0</ele><time>2026-05-01T13:07:01.35Z</time></trkpt><trkpt lat="45.5562083" lon="10.95042"><ele>359.3333333333333</ele><time>2026-05-01T13:07:02.351Z</time></trkpt><trkpt lat="45.55603" lon="10.9504817"><ele>351.6666666666667</ele><time>2026-05-01T13:07:03.351Z</time></trkpt><trkpt lat="45.555855" lon="10.9505217"><ele>344.0</ele><time>2026-05-01T13:07:04.351Z</time></trkpt><trkpt lat="45.5556783" lon="10.950495"><ele>344.0</ele><time>2026-05-01T13:07:05.351Z</time></trkpt><trkpt lat="45.555495" lon="10.9504117"><ele>344.0</ele><time>2026-05-01T13:07:06.351Z</time></trkpt><trkpt lat="45.5553183" lon="10.95029"><ele>344.0</ele><time>2026-05-01T13:07:07.351Z</time></trkpt><trkpt lat="45.5551583" lon="10.9501267"><ele>342.33333333333337</ele><time>2026-05-01T13:07:08.351Z</time></trkpt><trkpt lat="45.5550067" lon="10.94994"><ele>340.6666666666667</ele><time>2026-05-01T13:07:09.35Z</time></trkpt><trkpt lat="45.5548617" lon="10.9497083"><ele>339.0</ele><time>2026-05-01T13:07:10.351Z</time></trkpt><trkpt lat="45.554725" lon="10.9494617"><ele>339.0</ele><time>2026-05-01T13:07:11.351Z</time></trkpt><trkpt lat="45.5545933" lon="10.94922"><ele>339.0</ele><time>2026-05-01T13:07:12.351Z</time></trkpt><trkpt lat="45.5544533" lon="10.9489783"><ele>339.0</ele><time>2026-05-01T13:07:13.35Z</time></trkpt><trkpt lat="45.5543017" lon="10.9487567"><ele>339.0</ele><time>2026-05-01T13:07:14.35Z</time></trkpt><trkpt lat="45.55413" lon="10.9485417"><ele>339.0</ele><time>2026-05-01T13:07:15.35Z</time></trkpt><trkpt lat="45.553955" lon="10.9483483"><ele>338.0</ele><time>2026-05-01T13:07:16.35Z</time></trkpt><trkpt lat="45.5537767" lon="10.948165"><ele>337.0</ele><time>2026-05-01T13:07:17.35Z</time></trkpt><trkpt lat="45.5536033" lon="10.9480067"><ele>336.0</ele><time>2026-05-01T13:07:18.35Z</time></trkpt><trkpt lat="45.55343" lon="10.94787"><ele>336.0</ele><time>2026-05-01T13:07:19.349Z</time></trkpt><trkpt lat="45.5532533" lon="10.9477467"><ele>336.0</ele><time>2026-05-01T13:07:20.35Z</time></trkpt><trkpt lat="45.55307" lon="10.9476433"><ele>336.0</ele><time>2026-05-01T13:07:21.35Z</time></trkpt><trkpt lat="45.5528883" lon="10.9475517"><ele>330.6666666666667</ele><time>2026-05-01T13:07:22.35Z</time></trkpt><trkpt lat="45.5527" lon="10.9474733"><ele>325.33333333333337</ele><time>2026-05-01T13:07:23.35Z</time></trkpt><trkpt lat="45.5525067" lon="10.9473883"><ele>320.0</ele><time>2026-05-01T13:07:24.35Z</time></trkpt><trkpt lat="45.5523117" lon="10.9473067"><ele>320.0</ele><time>2026-05-01T13:07:25.35Z</time></trkpt><trkpt lat="45.552135" lon="10.94719"><ele>320.0</ele><time>2026-05-01T13:07:26.349Z</time></trkpt><trkpt lat="45.5519783" lon="10.9470467"><ele>320.0</ele><time>2026-05-01T13:07:27.35Z</time></trkpt><trkpt lat="45.5518317" lon="10.9468683"><ele>316.33333333333337</ele><time>2026-05-01T13:07:28.35Z</time></trkpt><trkpt lat="45.5516833" lon="10.946685"><ele>312.6666666666667</ele><time>2026-05-01T13:07:29.35Z</time></trkpt><trkpt lat="45.5515533" lon="10.9464783"><ele>309.0</ele><time>2026-05-01T13:07:30.35Z</time></trkpt><trkpt lat="45.551435" lon="10.9462733"><ele>309.0</ele><time>2026-05-01T13:07:31.349Z</time></trkpt><trkpt lat="45.5513317" lon="10.9460667"><ele>309.0</ele><time>2026-05-01T13:07:32.35Z</time></trkpt><trkpt lat="45.5512317" lon="10.9458533"><ele>309.0</ele><time>2026-05-01T13:07:33.35Z</time></trkpt><trkpt lat="45.551145" lon="10.9456417"><ele>308.0</ele><time>2026-05-01T13:07:34.35Z</time></trkpt><trkpt lat="45.55107" lon="10.9454617"><ele>307.0</ele><time>2026-05-01T13:07:35.349Z</time></trkpt><trkpt lat="45.5509783" lon="10.9453217"><ele>306.0</ele><time>2026-05-01T13:07:36.35Z</time></trkpt><trkpt lat="45.55087" lon="10.9452633"><ele>305.0</ele><time>2026-05-01T13:07:37.35Z</time></trkpt><trkpt lat="45.55075" lon="10.9452817"><ele>305.0</ele><time>2026-05-01T13:07:38.35Z</time></trkpt><trkpt lat="45.5506217" lon="10.9453983"><ele>305.0</ele><time>2026-05-01T13:07:39.35Z</time></trkpt><trkpt lat="45.5505033" lon="10.9455433"><ele>305.0</ele><time>2026-05-01T13:07:40.35Z</time></trkpt><trkpt lat="45.5503933" lon="10.94568"><ele>302.25</ele><time>2026-05-01T13:07:41.35Z</time></trkpt><trkpt lat="45.5502817" lon="10.9457883"><ele>299.5</ele><time>2026-05-01T13:07:42.35Z</time></trkpt><trkpt lat="45.5501617" lon="10.9458517"><ele>296.75</ele><time>2026-05-01T13:07:43.35Z</time></trkpt><trkpt lat="45.5500233" lon="10.9458367"><ele>294.0</ele><time>2026-05-01T13:07:44.35Z</time></trkpt><trkpt lat="45.5498883" lon="10.945755"><ele>294.0</ele><time>2026-05-01T13:07:45.35Z</time></trkpt><trkpt lat="45.5497567" lon="10.9456233"><ele>294.0</ele><time>2026-05-01T13:07:46.35Z</time></trkpt><trkpt lat="45.5496317" lon="10.9454883"><ele>294.0</ele><time>2026-05-01T13:07:47.349Z</time></trkpt><trkpt lat="45.5494967" lon="10.945355"><ele>294.0</ele><time>2026-05-01T13:07:48.35Z</time></trkpt><trkpt lat="45.549355" lon="10.945225"><ele>294.0</ele><time>2026-05-01T13:07:49.35Z</time></trkpt><trkpt lat="45.5492117" lon="10.945095"><ele>294.0</ele><time>2026-05-01T13:07:50.35Z</time></trkpt><trkpt lat="45.5490567" lon="10.944985"><ele>288.3333333333333</ele><time>2026-05-01T13:07:51.35Z</time></trkpt><trkpt lat="45.54888" lon="10.9448867"><ele>282.66666666666663</ele><time>2026-05-01T13:07:52.349Z</time></trkpt><trkpt lat="45.5487033" lon="10.944815"><ele>277.0</ele><time>2026-05-01T13:07:53.349Z</time></trkpt><trkpt lat="45.548535" lon="10.9447767"><ele>275.0</ele><time>2026-05-01T13:07:54.35Z</time></trkpt><trkpt lat="45.5483717" lon="10.9447533"><ele>273.0</ele><time>2026-05-01T13:07:55.35Z</time></trkpt><trkpt lat="45.5482133" lon="10.94477"><ele>271.0</ele><time>2026-05-01T13:07:56.35Z</time></trkpt><trkpt lat="45.5480567" lon="10.9448183"><ele>271.0</ele><time>2026-05-01T13:07:57.35Z</time></trkpt><trkpt lat="45.5479317" lon="10.9449383"><ele>271.0</ele><time>2026-05-01T13:07:58.35Z</time></trkpt><trkpt lat="45.5478317" lon="10.9451167"><ele>271.0</ele><time>2026-05-01T13:07:59.35Z</time></trkpt><trkpt lat="45.547755" lon="10.945315"><ele>267.0</ele><time>2026-05-01T13:08:00.349Z</time></trkpt><trkpt lat="45.5476583" lon="10.9455083"><ele>263.0</ele><time>2026-05-01T13:08:01.35Z</time></trkpt><trkpt lat="45.547545" lon="10.94566"><ele>259.0</ele><time>2026-05-01T13:08:02.349Z</time></trkpt><trkpt lat="45.5474017" lon="10.9457717"><ele>259.0</ele><time>2026-05-01T13:08:03.35Z</time></trkpt><trkpt lat="45.5472483" lon="10.9458233"><ele>259.0</ele><time>2026-05-01T13:08:04.349Z</time></trkpt><trkpt lat="45.5470783" lon="10.94581"><ele>259.0</ele><time>2026-05-01T13:08:05.35Z</time></trkpt><trkpt lat="45.5468933" lon="10.9457583"><ele>256.0</ele><time>2026-05-01T13:08:06.35Z</time></trkpt><trkpt lat="45.5467133" lon="10.94569"><ele>253.0</ele><time>2026-05-01T13:08:07.35Z</time></trkpt><trkpt lat="45.5465267" lon="10.945615"><ele>250.0</ele><time>2026-05-01T13:08:08.35Z</time></trkpt><trkpt lat="45.546335" lon="10.9455333"><ele>248.66666666666666</ele><time>2026-05-01T13:08:09.35Z</time></trkpt><trkpt lat="45.5461367" lon="10.9454483"><ele>247.33333333333331</ele><time>2026-05-01T13:08:10.35Z</time></trkpt><trkpt lat="45.5459417" lon="10.94536"><ele>246.0</ele><time>2026-05-01T13:08:11.35Z</time></trkpt><trkpt lat="45.5457383" lon="10.9452717"><ele>246.0</ele><time>2026-05-01T13:08:12.35Z</time></trkpt><trkpt lat="45.5455467" lon="10.9451833"><ele>246.0</ele><time>2026-05-01T13:08:13.35Z</time></trkpt><trkpt lat="45.545355" lon="10.9450933"><ele>246.0</ele><time>2026-05-01T13:08:14.35Z</time></trkpt><trkpt lat="45.5451783" lon="10.9450083"><ele>243.0</ele><time>2026-05-01T13:08:15.35Z</time></trkpt><trkpt lat="45.5450033" lon="10.9449233"><ele>240.0</ele><time>2026-05-01T13:08:16.349Z</time></trkpt><trkpt lat="45.54484" lon="10.944835"><ele>237.0</ele><time>2026-05-01T13:08:17.35Z</time></trkpt><trkpt lat="45.5446833" lon="10.94475"><ele>236.0</ele><time>2026-05-01T13:08:18.35Z</time></trkpt><trkpt lat="45.5445267" lon="10.9446617"><ele>235.0</ele><time>2026-05-01T13:08:19.35Z</time></trkpt><trkpt lat="45.5443767" lon="10.9445783"><ele>234.0</ele><time>2026-05-01T13:08:20.35Z</time></trkpt><trkpt lat="45.5442267" lon="10.9444933"><ele>234.0</ele><time>2026-05-01T13:08:21.35Z</time></trkpt><trkpt lat="45.54408" lon="10.9444033"><ele>234.0</ele><time>2026-05-01T13:08:22.35Z</time></trkpt><trkpt lat="45.5439367" lon="10.9443133"><ele>234.0</ele><time>2026-05-01T13:08:23.35Z</time></trkpt><trkpt lat="45.5438" lon="10.9442183"><ele>233.0</ele><time>2026-05-01T13:08:24.35Z</time></trkpt><trkpt lat="45.5436833" lon="10.9441017"><ele>232.0</ele><time>2026-05-01T13:08:25.35Z</time></trkpt><trkpt lat="45.5435817" lon="10.9439667"><ele>231.0</ele><time>2026-05-01T13:08:26.35Z</time></trkpt><trkpt lat="45.5434967" lon="10.9438133"><ele>230.0</ele><time>2026-05-01T13:08:27.35Z</time></trkpt><trkpt lat="45.543415" lon="10.9436533"><ele>230.0</ele><time>2026-05-01T13:08:28.349Z</time></trkpt><trkpt lat="45.5433433" lon="10.94349"><ele>230.0</ele><time>2026-05-01T13:08:29.35Z</time></trkpt><trkpt lat="45.5432717" lon="10.943315"><ele>230.0</ele><time>2026-05-01T13:08:30.35Z</time></trkpt><trkpt lat="45.5431933" lon="10.9431517"><ele>230.0</ele><time>2026-05-01T13:08:31.349Z</time></trkpt><trkpt lat="45.5431117" lon="10.94299"><ele>229.5</ele><time>2026-05-01T13:08:32.349Z</time></trkpt><trkpt lat="45.5430083" lon="10.9428533"><ele>229.0</ele><time>2026-05-01T13:08:33.35Z</time></trkpt><trkpt lat="45.5428817" lon="10.94276"><ele>228.5</ele><time>2026-05-01T13:08:34.35Z</time></trkpt><trkpt lat="45.542745" lon="10.9427083"><ele>228.0</ele><time>2026-05-01T13:08:35.35Z</time></trkpt><trkpt lat="45.5425933" lon="10.9426983"><ele>227.0</ele><time>2026-05-01T13:08:36.35Z</time></trkpt><trkpt lat="45.542445" lon="10.9426933"><ele>226.0</ele><time>2026-05-01T13:08:37.349Z</time></trkpt><trkpt lat="45.5422967" lon="10.9426917"><ele>225.0</ele><time>2026-05-01T13:08:38.35Z</time></trkpt><trkpt lat="45.5421483" lon="10.9426983"><ele>224.0</ele><time>2026-05-01T13:08:39.35Z</time></trkpt><trkpt lat="45.542" lon="10.942695"><ele>223.0</ele><time>2026-05-01T13:08:40.35Z</time></trkpt><trkpt lat="45.5418567" lon="10.9426917"><ele>222.0</ele><time>2026-05-01T13:08:41.35Z</time></trkpt><trkpt lat="45.541715" lon="10.942675"><ele>221.0</ele><time>2026-05-01T13:08:42.35Z</time></trkpt><trkpt lat="45.5415817" lon="10.9426383"><ele>220.0</ele><time>2026-05-01T13:08:43.349Z</time></trkpt><trkpt lat="45.541435" lon="10.942605"><ele>220.0</ele><time>2026-05-01T13:08:44.35Z</time></trkpt><trkpt lat="45.5412933" lon="10.942575"><ele>220.0</ele><time>2026-05-01T13:08:45.35Z</time></trkpt><trkpt lat="45.5411633" lon="10.9425217"><ele>220.0</ele><time>2026-05-01T13:08:46.349Z</time></trkpt><trkpt lat="45.54103" lon="10.94246"><ele>220.0</ele><time>2026-05-01T13:08:47.35Z</time></trkpt><trkpt lat="45.5408917" lon="10.9424"><ele>219.0</ele><time>2026-05-01T13:08:48.35Z</time></trkpt><trkpt lat="45.54075" lon="10.9423267"><ele>218.0</ele><time>2026-05-01T13:08:49.35Z</time></trkpt><trkpt lat="45.540615" lon="10.942255"><ele>217.0</ele><time>2026-05-01T13:08:50.35Z</time></trkpt><trkpt lat="45.5404733" lon="10.942185"><ele>216.0</ele><time>2026-05-01T13:08:51.35Z</time></trkpt><trkpt lat="45.5403333" lon="10.94212"><ele>215.75</ele><time>2026-05-01T13:08:52.35Z</time></trkpt><trkpt lat="45.540195" lon="10.942055"><ele>215.5</ele><time>2026-05-01T13:08:53.35Z</time></trkpt><trkpt lat="45.540055" lon="10.9419917"><ele>215.25</ele><time>2026-05-01T13:08:54.349Z</time></trkpt><trkpt lat="45.5399133" lon="10.9419267"><ele>215.0</ele><time>2026-05-01T13:08:55.35Z</time></trkpt><trkpt lat="45.5397717" lon="10.9418633"><ele>215.0</ele><time>2026-05-01T13:08:56.35Z</time></trkpt><trkpt lat="45.5396267" lon="10.9417983"><ele>215.0</ele><time>2026-05-01T13:08:57.35Z</time></trkpt><trkpt lat="45.5394817" lon="10.9417417"><ele>215.0</ele><time>2026-05-01T13:08:58.35Z</time></trkpt><trkpt lat="45.53934" lon="10.9416883"><ele>215.0</ele><time>2026-05-01T13:08:59.349Z</time></trkpt><trkpt lat="45.5391917" lon="10.9416317"><ele>214.5</ele><time>2026-05-01T13:09:00.35Z</time></trkpt><trkpt lat="45.53905" lon="10.94158"><ele>214.0</ele><time>2026-05-01T13:09:01.35Z</time></trkpt><trkpt lat="45.5389083" lon="10.941515"><ele>213.5</ele><time>2026-05-01T13:09:02.349Z</time></trkpt><trkpt lat="45.5387717" lon="10.941425"><ele>213.0</ele><time>2026-05-01T13:09:03.35Z</time></trkpt><trkpt lat="45.538645" lon="10.9413267"><ele>212.0</ele><time>2026-05-01T13:09:04.35Z</time></trkpt><trkpt lat="45.538525" lon="10.9412183"><ele>211.0</ele><time>2026-05-01T13:09:05.35Z</time></trkpt><trkpt lat="45.5384083" lon="10.941115"><ele>210.0</ele><time>2026-05-01T13:09:06.349Z</time></trkpt><trkpt lat="45.53829" lon="10.9410167"><ele>209.0</ele><time>2026-05-01T13:09:07.35Z</time></trkpt><trkpt lat="45.5381733" lon="10.9409133"><ele>209.25</ele><time>2026-05-01T13:09:08.35Z</time></trkpt><trkpt lat="45.5380667" lon="10.9408017"><ele>209.5</ele><time>2026-05-01T13:09:09.35Z</time></trkpt><trkpt lat="45.5379683" lon="10.9406733"><ele>209.75</ele><time>2026-05-01T13:09:10.35Z</time></trkpt><trkpt lat="45.5378733" lon="10.940535"><ele>210.0</ele><time>2026-05-01T13:09:11.35Z</time></trkpt><trkpt lat="45.5377783" lon="10.940405"><ele>209.5</ele><time>2026-05-01T13:09:12.35Z</time></trkpt><trkpt lat="45.5376817" lon="10.9402817"><ele>209.0</ele><time>2026-05-01T13:09:13.35Z</time></trkpt><trkpt lat="45.5375783" lon="10.9401717"><ele>208.5</ele><time>2026-05-01T13:09:14.35Z</time></trkpt><trkpt lat="45.5374783" lon="10.9400667"><ele>208.0</ele><time>2026-05-01T13:09:15.35Z</time></trkpt><trkpt lat="45.5373767" lon="10.9399633"><ele>208.0</ele><time>2026-05-01T13:09:16.35Z</time></trkpt><trkpt lat="45.5372733" lon="10.9398633"><ele>208.0</ele><time>2026-05-01T13:09:17.35Z</time></trkpt><trkpt lat="45.5371683" lon="10.9397683"><ele>208.0</ele><time>2026-05-01T13:09:18.35Z</time></trkpt><trkpt lat="45.5370617" lon="10.939675"><ele>208.0</ele><time>2026-05-01T13:09:19.35Z</time></trkpt><trkpt lat="45.5369483" lon="10.939585"><ele>207.5</ele><time>2026-05-01T13:09:20.35Z</time></trkpt><trkpt lat="45.53683" lon="10.9395067"><ele>207.0</ele><time>2026-05-01T13:09:21.349Z</time></trkpt><trkpt lat="45.536705" lon="10.9394383"><ele>206.5</ele><time>2026-05-01T13:09:22.35Z</time></trkpt><trkpt lat="45.5365733" lon="10.9393833"><ele>206.0</ele><time>2026-05-01T13:09:23.35Z</time></trkpt><trkpt lat="45.5364283" lon="10.9393517"><ele>206.0</ele><time>2026-05-01T13:09:24.35Z</time></trkpt><trkpt lat="45.5362833" lon="10.9393417"><ele>206.0</ele><time>2026-05-01T13:09:25.35Z</time></trkpt><trkpt lat="45.536145" lon="10.9393633"><ele>206.0</ele><time>2026-05-01T13:09:26.35Z</time></trkpt><trkpt lat="45.5360133" lon="10.9393967"><ele>206.0</ele><time>2026-05-01T13:09:27.35Z</time></trkpt><trkpt lat="45.5358867" lon="10.939445"><ele>205.0</ele><time>2026-05-01T13:09:28.35Z</time></trkpt><trkpt lat="45.53576" lon="10.9395067"><ele>204.0</ele><time>2026-05-01T13:09:29.35Z</time></trkpt><trkpt lat="45.5356383" lon="10.9395733"><ele>203.0</ele><time>2026-05-01T13:09:30.35Z</time></trkpt><trkpt lat="45.5355133" lon="10.939655"><ele>202.0</ele><time>2026-05-01T13:09:31.35Z</time></trkpt><trkpt lat="45.5353767" lon="10.9397533"><ele>201.33333333333331</ele><time>2026-05-01T13:09:32.35Z</time></trkpt><trkpt lat="45.5352317" lon="10.939875"><ele>200.66666666666669</ele><time>2026-05-01T13:09:33.35Z</time></trkpt><trkpt lat="45.5350833" lon="10.9399983"><ele>200.0</ele><time>2026-05-01T13:09:34.35Z</time></trkpt><trkpt lat="45.5349367" lon="10.9401183"><ele>200.0</ele><time>2026-05-01T13:09:35.35Z</time></trkpt><trkpt lat="45.534805" lon="10.94025"><ele>200.0</ele><time>2026-05-01T13:09:36.35Z</time></trkpt><trkpt lat="45.5346817" lon="10.940385"><ele>200.0</ele><time>2026-05-01T13:09:37.35Z</time></trkpt><trkpt lat="45.5345633" lon="10.9405167"><ele>198.75</ele><time>2026-05-01T13:09:38.349Z</time></trkpt><trkpt lat="45.53445" lon="10.940655"><ele>197.5</ele><time>2026-05-01T13:09:39.35Z</time></trkpt><trkpt lat="45.5343383" lon="10.940775"><ele>196.25</ele><time>2026-05-01T13:09:40.35Z</time></trkpt><trkpt lat="45.53421" lon="10.9408767"><ele>195.0</ele><time>2026-05-01T13:09:41.35Z</time></trkpt><trkpt lat="45.5340767" lon="10.9409633"><ele>195.0</ele><time>2026-05-01T13:09:42.35Z</time></trkpt><trkpt lat="45.5339433" lon="10.9409917"><ele>195.0</ele><time>2026-05-01T13:09:43.35Z</time></trkpt><trkpt lat="45.5338067" lon="10.9409783"><ele>195.0</ele><time>2026-05-01T13:09:44.35Z</time></trkpt><trkpt lat="45.5336717" lon="10.9409283"><ele>195.0</ele><time>2026-05-01T13:09:45.35Z</time></trkpt><trkpt lat="45.533535" lon="10.9408567"><ele>195.0</ele><time>2026-05-01T13:09:46.35Z</time></trkpt><trkpt lat="45.5334" lon="10.9407783"><ele>195.0</ele><time>2026-05-01T13:09:47.35Z</time></trkpt><trkpt lat="45.533265" lon="10.9406983"><ele>195.0</ele><time>2026-05-01T13:09:48.35Z</time></trkpt><trkpt lat="45.533125" lon="10.9406333"><ele>195.0</ele><time>2026-05-01T13:09:49.349Z</time></trkpt><trkpt lat="45.5329867" lon="10.94058"><ele>194.0</ele><time>2026-05-01T13:09:50.35Z</time></trkpt><trkpt lat="45.5328417" lon="10.9405233"><ele>193.0</ele><time>2026-05-01T13:09:51.35Z</time></trkpt><trkpt lat="45.5327033" lon="10.94046"><ele>192.0</ele><time>2026-05-01T13:09:52.35Z</time></trkpt><trkpt lat="45.5325717" lon="10.9403783"><ele>191.0</ele><time>2026-05-01T13:09:53.35Z</time></trkpt><trkpt lat="45.5324533" lon="10.94028"><ele>191.0</ele><time>2026-05-01T13:09:54.349Z</time></trkpt><trkpt lat="45.532345" lon="10.9401883"><ele>191.0</ele><time>2026-05-01T13:09:55.35Z</time></trkpt><trkpt lat="45.532245" lon="10.9401117"><ele>191.0</ele><time>2026-05-01T13:09:56.35Z</time></trkpt><trkpt lat="45.5321467" lon="10.9400467"><ele>191.0</ele><time>2026-05-01T13:09:57.35Z</time></trkpt><trkpt lat="45.5320517" lon="10.939975"><ele>190.75</ele><time>2026-05-01T13:09:58.35Z</time></trkpt><trkpt lat="45.5319483" lon="10.939905"><ele>190.5</ele><time>2026-05-01T13:09:59.349Z</time></trkpt><trkpt lat="45.5318483" lon="10.9398217"><ele>190.25</ele><time>2026-05-01T13:10:00.35Z</time></trkpt><trkpt lat="45.5317417" lon="10.939745"><ele>190.0</ele><time>2026-05-01T13:10:01.35Z</time></trkpt><trkpt lat="45.5316317" lon="10.93968"><ele>190.0</ele><time>2026-05-01T13:10:02.35Z</time></trkpt><trkpt lat="45.53151" lon="10.93961"><ele>190.0</ele><time>2026-05-01T13:10:03.35Z</time></trkpt><trkpt lat="45.5313817" lon="10.93955"><ele>190.0</ele><time>2026-05-01T13:10:04.35Z</time></trkpt><trkpt lat="45.531255" lon="10.93952"><ele>190.0</ele><time>2026-05-01T13:10:05.35Z</time></trkpt><trkpt lat="45.5311167" lon="10.9395133"><ele>189.5</ele><time>2026-05-01T13:10:06.35Z</time></trkpt><trkpt lat="45.5309783" lon="10.93951"><ele>189.0</ele><time>2026-05-01T13:10:07.35Z</time></trkpt><trkpt lat="45.5308433" lon="10.9395167"><ele>188.5</ele><time>2026-05-01T13:10:08.35Z</time></trkpt><trkpt lat="45.53072" lon="10.9395217"><ele>188.0</ele><time>2026-05-01T13:10:09.35Z</time></trkpt><trkpt lat="45.5306117" lon="10.939525"><ele>188.0</ele><time>2026-05-01T13:10:10.35Z</time></trkpt><trkpt lat="45.5305167" lon="10.9395617"><ele>188.0</ele><time>2026-05-01T13:10:11.35Z</time></trkpt><trkpt lat="45.5304283" lon="10.9396133"><ele>188.0</ele><time>2026-05-01T13:10:12.35Z</time></trkpt><trkpt lat="45.5303383" lon="10.9396883"><ele>188.0</ele><time>2026-05-01T13:10:13.35Z</time></trkpt><trkpt lat="45.5302483" lon="10.93978"><ele>188.0</ele><time>2026-05-01T13:10:14.349Z</time></trkpt><trkpt lat="45.5301683" lon="10.93987"><ele>187.5</ele><time>2026-05-01T13:10:15.35Z</time></trkpt><trkpt lat="45.5300933" lon="10.9399567"><ele>187.0</ele><time>2026-05-01T13:10:16.35Z</time></trkpt><trkpt lat="45.5300183" lon="10.94002"><ele>186.5</ele><time>2026-05-01T13:10:17.35Z</time></trkpt><trkpt lat="45.52994" lon="10.9400517"><ele>186.0</ele><time>2026-05-01T13:10:18.35Z</time></trkpt><trkpt lat="45.5298617" lon="10.940035"><ele>185.5</ele><time>2026-05-01T13:10:19.35Z</time></trkpt><trkpt lat="45.529805" lon="10.939975"><ele>185.0</ele><time>2026-05-01T13:10:20.349Z</time></trkpt><trkpt lat="45.5297517" lon="10.9398917"><ele>185.0</ele><time>2026-05-01T13:10:21.349Z</time></trkpt><trkpt lat="45.5296867" lon="10.9398317"><ele>185.0</ele><time>2026-05-01T13:10:22.35Z</time></trkpt><trkpt lat="45.5296083" lon="10.939835"><ele>185.0</ele><time>2026-05-01T13:10:23.35Z</time></trkpt><trkpt lat="45.5295417" lon="10.9398867"><ele>185.0</ele><time>2026-05-01T13:10:24.35Z</time></trkpt><trkpt lat="45.5294933" lon="10.9399683"><ele>185.0</ele><time>2026-05-01T13:10:25.35Z</time></trkpt><trkpt lat="45.529455" lon="10.94005"><ele>185.0</ele><time>2026-05-01T13:10:26.35Z</time></trkpt><trkpt lat="45.52935" lon="10.9401517"><ele>184.2</ele><time>2026-05-01T13:10:28.35Z</time></trkpt><trkpt lat="45.5292683" lon="10.9401867"><ele>183.4</ele><time>2026-05-01T13:10:29.349Z</time></trkpt><trkpt lat="45.5291783" lon="10.94022"><ele>182.60000000000002</ele><time>2026-05-01T13:10:30.35Z</time></trkpt><trkpt lat="45.5290933" lon="10.9402533"><ele>181.8</ele><time>2026-05-01T13:10:31.35Z</time></trkpt><trkpt lat="45.529005" lon="10.9403033"><ele>181.0</ele><time>2026-05-01T13:10:32.35Z</time></trkpt><trkpt lat="45.5289183" lon="10.9403617"><ele>181.0</ele><time>2026-05-01T13:10:33.349Z</time></trkpt><trkpt lat="45.528825" lon="10.940435"><ele>181.0</ele><time>2026-05-01T13:10:34.35Z</time></trkpt><trkpt lat="45.5287267" lon="10.9405083"><ele>181.0</ele><time>2026-05-01T13:10:35.35Z</time></trkpt><trkpt lat="45.5286183" lon="10.9405883"><ele>181.0</ele><time>2026-05-01T13:10:36.35Z</time></trkpt><trkpt lat="45.528515" lon="10.9406667"><ele>180.5</ele><time>2026-05-01T13:10:37.35Z</time></trkpt><trkpt lat="45.5284" lon="10.9407367"><ele>180.0</ele><time>2026-05-01T13:10:38.35Z</time></trkpt><trkpt lat="45.5282767" lon="10.9408"><ele>179.5</ele><time>2026-05-01T13:10:39.35Z</time></trkpt><trkpt lat="45.5281483" lon="10.9408483"><ele>179.0</ele><time>2026-05-01T13:10:40.35Z</time></trkpt><trkpt lat="45.52801" lon="10.9408883"><ele>178.0</ele><time>2026-05-01T13:10:41.35Z</time></trkpt><trkpt lat="45.527875" lon="10.9409117"><ele>177.0</ele><time>2026-05-01T13:10:42.349Z</time></trkpt><trkpt lat="45.5277367" lon="10.940915"><ele>176.0</ele><time>2026-05-01T13:10:43.35Z</time></trkpt><trkpt lat="45.5276017" lon="10.9409283"><ele>175.0</ele><time>2026-05-01T13:10:44.35Z</time></trkpt><trkpt lat="45.5274533" lon="10.9409383"><ele>175.0</ele><time>2026-05-01T13:10:45.35Z</time></trkpt><trkpt lat="45.5272933" lon="10.9409583"><ele>175.0</ele><time>2026-05-01T13:10:46.35Z</time></trkpt><trkpt lat="45.52712" lon="10.94098"><ele>175.0</ele><time>2026-05-01T13:10:47.35Z</time></trkpt><trkpt lat="45.5269333" lon="10.941"><ele>174.66666666666669</ele><time>2026-05-01T13:10:48.35Z</time></trkpt><trkpt lat="45.5267467" lon="10.941"><ele>174.33333333333334</ele><time>2026-05-01T13:10:49.35Z</time></trkpt><trkpt lat="45.5265733" lon="10.9409983"><ele>174.0</ele><time>2026-05-01T13:10:50.35Z</time></trkpt><trkpt lat="45.526405" lon="10.9409917"><ele>174.0</ele><time>2026-05-01T13:10:51.35Z</time></trkpt><trkpt lat="45.5262533" lon="10.940995"><ele>174.0</ele><time>2026-05-01T13:10:52.349Z</time></trkpt><trkpt lat="45.5261083" lon="10.9409917"><ele>174.0</ele><time>2026-05-01T13:10:53.35Z</time></trkpt><trkpt lat="45.5259683" lon="10.940975"><ele>174.0</ele><time>2026-05-01T13:10:54.35Z</time></trkpt><trkpt lat="45.52584" lon="10.9409567"><ele>174.0</ele><time>2026-05-01T13:10:55.35Z</time></trkpt><trkpt lat="45.5257067" lon="10.9409383"><ele>174.0</ele><time>2026-05-01T13:10:56.35Z</time></trkpt><trkpt lat="45.5255783" lon="10.94092"><ele>174.0</ele><time>2026-05-01T13:10:57.35Z</time></trkpt><trkpt lat="45.52546" lon="10.9409"><ele>174.0</ele><time>2026-05-01T13:10:58.35Z</time></trkpt><trkpt lat="45.5253383" lon="10.94088"><ele>173.5</ele><time>2026-05-01T13:10:59.35Z</time></trkpt><trkpt lat="45.52522" lon="10.9408283"><ele>173.0</ele><time>2026-05-01T13:11:00.349Z</time></trkpt><trkpt lat="45.5250983" lon="10.9407517"><ele>172.5</ele><time>2026-05-01T13:11:01.349Z</time></trkpt><trkpt lat="45.5249817" lon="10.9406633"><ele>172.0</ele><time>2026-05-01T13:11:02.349Z</time></trkpt><trkpt lat="45.5248717" lon="10.9405583"><ele>172.0</ele><time>2026-05-01T13:11:03.349Z</time></trkpt><trkpt lat="45.5247733" lon="10.9404467"><ele>172.0</ele><time>2026-05-01T13:11:04.348Z</time></trkpt><trkpt lat="45.5246733" lon="10.9403333"><ele>172.0</ele><time>2026-05-01T13:11:05.349Z</time></trkpt><trkpt lat="45.524575" lon="10.9402217"><ele>172.0</ele><time>2026-05-01T13:11:06.349Z</time></trkpt><trkpt lat="45.52448" lon="10.9401183"><ele>171.8</ele><time>2026-05-01T13:11:07.349Z</time></trkpt><trkpt lat="45.5243867" lon="10.9400167"><ele>171.6</ele><time>2026-05-01T13:11:08.349Z</time></trkpt><trkpt lat="45.5242867" lon="10.9399517"><ele>171.4</ele><time>2026-05-01T13:11:09.349Z</time></trkpt><trkpt lat="45.5241917" lon="10.9398933"><ele>171.20000000000002</ele><time>2026-05-01T13:11:10.349Z</time></trkpt><trkpt lat="45.5240983" lon="10.9398433"><ele>171.0</ele><time>2026-05-01T13:11:11.349Z</time></trkpt><trkpt lat="45.5240017" lon="10.9398067"><ele>171.0</ele><time>2026-05-01T13:11:12.349Z</time></trkpt><trkpt lat="45.52391" lon="10.9397817"><ele>171.0</ele><time>2026-05-01T13:11:13.349Z</time></trkpt><trkpt lat="45.52382" lon="10.93977"><ele>171.0</ele><time>2026-05-01T13:11:14.349Z</time></trkpt><trkpt lat="45.523745" lon="10.9397717"><ele>171.0</ele><time>2026-05-01T13:11:15.349Z</time></trkpt><trkpt lat="45.5236533" lon="10.939795"><ele>171.0</ele><time>2026-05-01T13:11:17.349Z</time></trkpt><trkpt lat="45.5235867" lon="10.939805"><ele>171.0</ele><time>2026-05-01T13:11:19.348Z</time></trkpt><trkpt lat="45.5234683" lon="10.9398333"><ele>169.8</ele><time>2026-05-01T13:11:21.348Z</time></trkpt><trkpt lat="45.5233833" lon="10.9398617"><ele>168.60000000000002</ele><time>2026-05-01T13:11:22.348Z</time></trkpt><trkpt lat="45.52329" lon="10.939895"><ele>167.4</ele><time>2026-05-01T13:11:23.349Z</time></trkpt><trkpt lat="45.52319" lon="10.9399383"><ele>166.2</ele><time>2026-05-01T13:11:24.349Z</time></trkpt><trkpt lat="45.5230933" lon="10.9399867"><ele>165.0</ele><time>2026-05-01T13:11:25.349Z</time></trkpt><trkpt lat="45.5229933" lon="10.9400183"><ele>164.8</ele><time>2026-05-01T13:11:26.349Z</time></trkpt><trkpt lat="45.5228917" lon="10.9400367"><ele>164.6</ele><time>2026-05-01T13:11:27.349Z</time></trkpt><trkpt lat="45.522785" lon="10.94004"><ele>164.39999999999998</ele><time>2026-05-01T13:11:28.349Z</time></trkpt><trkpt lat="45.5226733" lon="10.9400083"><ele>164.2</ele><time>2026-05-01T13:11:29.349Z</time></trkpt><trkpt lat="45.52256" lon="10.9399617"><ele>164.0</ele><time>2026-05-01T13:11:30.349Z</time></trkpt><trkpt lat="45.5224483" lon="10.939905"><ele>164.0</ele><time>2026-05-01T13:11:31.349Z</time></trkpt><trkpt lat="45.5223483" lon="10.9398583"><ele>164.0</ele><time>2026-05-01T13:11:32.349Z</time></trkpt><trkpt lat="45.5222517" lon="10.9398167"><ele>164.0</ele><time>2026-05-01T13:11:33.349Z</time></trkpt><trkpt lat="45.52215" lon="10.9397783"><ele>164.0</ele><time>2026-05-01T13:11:34.349Z</time></trkpt><trkpt lat="45.5220433" lon="10.9397367"><ele>164.0</ele><time>2026-05-01T13:11:35.349Z</time></trkpt><trkpt lat="45.521935" lon="10.9396933"><ele>163.5</ele><time>2026-05-01T13:11:36.349Z</time></trkpt><trkpt lat="45.5218217" lon="10.9396383"><ele>163.0</ele><time>2026-05-01T13:11:37.349Z</time></trkpt><trkpt lat="45.52171" lon="10.939585"><ele>162.5</ele><time>2026-05-01T13:11:38.349Z</time></trkpt><trkpt lat="45.521595" lon="10.9395317"><ele>162.0</ele><time>2026-05-01T13:11:39.349Z</time></trkpt><trkpt lat="45.521475" lon="10.9394783"><ele>162.0</ele><time>2026-05-01T13:11:40.349Z</time></trkpt><trkpt lat="45.521355" lon="10.9394217"><ele>162.0</ele><time>2026-05-01T13:11:41.349Z</time></trkpt><trkpt lat="45.5212317" lon="10.93938"><ele>162.0</ele><time>2026-05-01T13:11:42.349Z</time></trkpt><trkpt lat="45.5211117" lon="10.9393617"><ele>162.0</ele><time>2026-05-01T13:11:43.349Z</time></trkpt><trkpt lat="45.5209867" lon="10.9393467"><ele>161.5</ele><time>2026-05-01T13:11:44.349Z</time></trkpt><trkpt lat="45.5208633" lon="10.939335"><ele>161.0</ele><time>2026-05-01T13:11:45.349Z</time></trkpt><trkpt lat="45.5207367" lon="10.9393217"><ele>160.5</ele><time>2026-05-01T13:11:46.349Z</time></trkpt><trkpt lat="45.5206167" lon="10.939305"><ele>160.0</ele><time>2026-05-01T13:11:47.349Z</time></trkpt><trkpt lat="45.5204833" lon="10.9392967"><ele>158.33333333333334</ele><time>2026-05-01T13:11:48.349Z</time></trkpt><trkpt lat="45.5203217" lon="10.939295"><ele>156.66666666666666</ele><time>2026-05-01T13:11:49.349Z</time></trkpt><trkpt lat="45.52016" lon="10.9392767"><ele>155.0</ele><time>2026-05-01T13:11:50.349Z</time></trkpt><trkpt lat="45.5199883" lon="10.9392533"><ele>155.0</ele><time>2026-05-01T13:11:51.349Z</time></trkpt><trkpt lat="45.51982" lon="10.9392283"><ele>155.0</ele><time>2026-05-01T13:11:52.349Z</time></trkpt><trkpt lat="45.5196533" lon="10.9392017"><ele>155.0</ele><time>2026-05-01T13:11:53.349Z</time></trkpt><trkpt lat="45.5194883" lon="10.9391733"><ele>154.0</ele><time>2026-05-01T13:11:54.349Z</time></trkpt><trkpt lat="45.5193267" lon="10.9391517"><ele>153.0</ele><time>2026-05-01T13:11:55.349Z</time></trkpt><trkpt lat="45.51916" lon="10.9391333"><ele>152.0</ele><time>2026-05-01T13:11:56.349Z</time></trkpt><trkpt lat="45.5189917" lon="10.939115"><ele>152.0</ele><time>2026-05-01T13:11:57.349Z</time></trkpt><trkpt lat="45.5188267" lon="10.9390933"><ele>152.0</ele><time>2026-05-01T13:11:58.348Z</time></trkpt><trkpt lat="45.518665" lon="10.9390767"><ele>152.0</ele><time>2026-05-01T13:11:59.349Z</time></trkpt><trkpt lat="45.5184983" lon="10.9390617"><ele>151.33333333333331</ele><time>2026-05-01T13:12:00.349Z</time></trkpt><trkpt lat="45.518335" lon="10.9390467"><ele>150.66666666666666</ele><time>2026-05-01T13:12:01.349Z</time></trkpt><trkpt lat="45.5181817" lon="10.93903"><ele>150.0</ele><time>2026-05-01T13:12:02.349Z</time></trkpt><trkpt lat="45.5180367" lon="10.93902"><ele>150.0</ele><time>2026-05-01T13:12:03.349Z</time></trkpt><trkpt lat="45.5178933" lon="10.939"><ele>150.0</ele><time>2026-05-01T13:12:04.349Z</time></trkpt><trkpt lat="45.5177567" lon="10.93899"><ele>150.0</ele><time>2026-05-01T13:12:05.349Z</time></trkpt><trkpt lat="45.51762" lon="10.93898"><ele>150.0</ele><time>2026-05-01T13:12:06.349Z</time></trkpt><trkpt lat="45.5174933" lon="10.9389783"><ele>150.0</ele><time>2026-05-01T13:12:07.349Z</time></trkpt><trkpt lat="45.5173683" lon="10.9389783"><ele>150.0</ele><time>2026-05-01T13:12:08.349Z</time></trkpt><trkpt lat="45.5172383" lon="10.9389817"><ele>150.0</ele><time>2026-05-01T13:12:09.349Z</time></trkpt><trkpt lat="45.5171117" lon="10.9389833"><ele>150.0</ele><time>2026-05-01T13:12:10.349Z</time></trkpt><trkpt lat="45.5169767" lon="10.938975"><ele>150.0</ele><time>2026-05-01T13:12:11.349Z</time></trkpt><trkpt lat="45.516835" lon="10.9389633"><ele>150.0</ele><time>2026-05-01T13:12:12.348Z</time></trkpt><trkpt lat="45.5166883" lon="10.9389367"><ele>150.0</ele><time>2026-05-01T13:12:13.349Z</time></trkpt><trkpt lat="45.5165367" lon="10.9389"><ele>150.0</ele><time>2026-05-01T13:12:14.349Z</time></trkpt><trkpt lat="45.5163833" lon="10.9388517"><ele>149.66666666666666</ele><time>2026-05-01T13:12:15.349Z</time></trkpt><trkpt lat="45.5162317" lon="10.9388017"><ele>149.33333333333331</ele><time>2026-05-01T13:12:16.349Z</time></trkpt><trkpt lat="45.5160833" lon="10.93874"><ele>149.0</ele><time>2026-05-01T13:12:17.349Z</time></trkpt><trkpt lat="45.5159417" lon="10.9386517"><ele>149.0</ele><time>2026-05-01T13:12:18.349Z</time></trkpt><trkpt lat="45.515815" lon="10.938545"><ele>149.0</ele><time>2026-05-01T13:12:19.349Z</time></trkpt><trkpt lat="45.5156833" lon="10.9384367"><ele>149.0</ele><time>2026-05-01T13:12:20.348Z</time></trkpt><trkpt lat="45.515555" lon="10.938335"><ele>149.0</ele><time>2026-05-01T13:12:21.349Z</time></trkpt><trkpt lat="45.5154117" lon="10.9382433"><ele>148.0</ele><time>2026-05-01T13:12:22.349Z</time></trkpt><trkpt lat="45.5152733" lon="10.9381433"><ele>147.0</ele><time>2026-05-01T13:12:23.349Z</time></trkpt><trkpt lat="45.5151367" lon="10.9380483"><ele>146.0</ele><time>2026-05-01T13:12:24.349Z</time></trkpt><trkpt lat="45.5149967" lon="10.9379517"><ele>146.0</ele><time>2026-05-01T13:12:25.349Z</time></trkpt><trkpt lat="45.5148483" lon="10.9378583"><ele>146.0</ele><time>2026-05-01T13:12:26.349Z</time></trkpt><trkpt lat="45.5147017" lon="10.93776"><ele>146.0</ele><time>2026-05-01T13:12:27.349Z</time></trkpt><trkpt lat="45.514555" lon="10.937665"><ele>145.66666666666666</ele><time>2026-05-01T13:12:28.349Z</time></trkpt><trkpt lat="45.5144117" lon="10.9375633"><ele>145.33333333333334</ele><time>2026-05-01T13:12:29.349Z</time></trkpt><trkpt lat="45.514275" lon="10.9374333"><ele>145.0</ele><time>2026-05-01T13:12:30.349Z</time></trkpt><trkpt lat="45.5141367" lon="10.9373033"><ele>145.0</ele><time>2026-05-01T13:12:31.349Z</time></trkpt><trkpt lat="45.51401" lon="10.9371783"><ele>145.0</ele><time>2026-05-01T13:12:32.349Z</time></trkpt><trkpt lat="45.5138783" lon="10.9370617"><ele>145.0</ele><time>2026-05-01T13:12:33.348Z</time></trkpt><trkpt lat="45.5137433" lon="10.9369467"><ele>144.0</ele><time>2026-05-01T13:12:34.348Z</time></trkpt><trkpt lat="45.5136117" lon="10.9368383"><ele>143.0</ele><time>2026-05-01T13:12:35.349Z</time></trkpt><trkpt lat="45.5134833" lon="10.9367183"><ele>142.0</ele><time>2026-05-01T13:12:36.349Z</time></trkpt><trkpt lat="45.5133533" lon="10.9366033"><ele>142.0</ele><time>2026-05-01T13:12:37.348Z</time></trkpt><trkpt lat="45.5132233" lon="10.9364967"><ele>142.0</ele><time>2026-05-01T13:12:38.349Z</time></trkpt><trkpt lat="45.5131017" lon="10.9363683"><ele>142.0</ele><time>2026-05-01T13:12:39.349Z</time></trkpt><trkpt lat="45.5129783" lon="10.9362533"><ele>142.0</ele><time>2026-05-01T13:12:40.349Z</time></trkpt><trkpt lat="45.512855" lon="10.9361333"><ele>141.5</ele><time>2026-05-01T13:12:41.349Z</time></trkpt><trkpt lat="45.512735" lon="10.9360133"><ele>141.0</ele><time>2026-05-01T13:12:42.349Z</time></trkpt><trkpt lat="45.5126133" lon="10.9358883"><ele>140.5</ele><time>2026-05-01T13:12:43.349Z</time></trkpt><trkpt lat="45.5124967" lon="10.9357667"><ele>140.0</ele><time>2026-05-01T13:12:44.349Z</time></trkpt><trkpt lat="45.512375" lon="10.9356483"><ele>140.0</ele><time>2026-05-01T13:12:45.349Z</time></trkpt><trkpt lat="45.5122567" lon="10.9355183"><ele>140.0</ele><time>2026-05-01T13:12:46.349Z</time></trkpt><trkpt lat="45.51214" lon="10.935385"><ele>140.0</ele><time>2026-05-01T13:12:47.349Z</time></trkpt><trkpt lat="45.5120133" lon="10.93526"><ele>138.33333333333331</ele><time>2026-05-01T13:12:48.349Z</time></trkpt><trkpt lat="45.5118783" lon="10.935145"><ele>136.66666666666666</ele><time>2026-05-01T13:12:49.348Z</time></trkpt><trkpt lat="45.5117317" lon="10.9350283"><ele>135.0</ele><time>2026-05-01T13:12:50.349Z</time></trkpt><trkpt lat="45.5115683" lon="10.9349"><ele>134.66666666666666</ele><time>2026-05-01T13:12:51.349Z</time></trkpt><trkpt lat="45.511405" lon="10.9347767"><ele>134.33333333333331</ele><time>2026-05-01T13:12:52.349Z</time></trkpt><trkpt lat="45.5112417" lon="10.9346367"><ele>134.0</ele><time>2026-05-01T13:12:53.349Z</time></trkpt><trkpt lat="45.5110783" lon="10.9344917"><ele>134.0</ele><time>2026-05-01T13:12:54.349Z</time></trkpt><trkpt lat="45.5109083" lon="10.9343583"><ele>134.0</ele><time>2026-05-01T13:12:55.349Z</time></trkpt><trkpt lat="45.5107267" lon="10.9342467"><ele>134.0</ele><time>2026-05-01T13:12:56.349Z</time></trkpt><trkpt lat="45.5105367" lon="10.9341733"><ele>133.33333333333331</ele><time>2026-05-01T13:12:57.349Z</time></trkpt><trkpt lat="45.5103483" lon="10.9341217"><ele>132.66666666666666</ele><time>2026-05-01T13:12:58.349Z</time></trkpt><trkpt lat="45.5101567" lon="10.934075"><ele>132.0</ele><time>2026-05-01T13:12:59.349Z</time></trkpt><trkpt lat="45.5099583" lon="10.934045"><ele>132.0</ele><time>2026-05-01T13:13:00.349Z</time></trkpt><trkpt lat="45.5097633" lon="10.9340167"><ele>132.0</ele><time>2026-05-01T13:13:01.348Z</time></trkpt><trkpt lat="45.5095717" lon="10.9339867"><ele>132.0</ele><time>2026-05-01T13:13:02.348Z</time></trkpt><trkpt lat="45.50937" lon="10.9339617"><ele>131.0</ele><time>2026-05-01T13:13:03.349Z</time></trkpt><trkpt lat="45.5091767" lon="10.93393"><ele>130.0</ele><time>2026-05-01T13:13:04.348Z</time></trkpt><trkpt lat="45.50898" lon="10.9339017"><ele>129.0</ele><time>2026-05-01T13:13:05.348Z</time></trkpt><trkpt lat="45.5087833" lon="10.9338717"><ele>129.0</ele><time>2026-05-01T13:13:06.348Z</time></trkpt><trkpt lat="45.5085933" lon="10.9338467"><ele>129.0</ele><time>2026-05-01T13:13:07.349Z</time></trkpt><trkpt lat="45.508405" lon="10.9338183"><ele>129.0</ele><time>2026-05-01T13:13:08.349Z</time></trkpt><trkpt lat="45.5082267" lon="10.9337917"><ele>129.0</ele><time>2026-05-01T13:13:09.348Z</time></trkpt><trkpt lat="45.5080567" lon="10.9337667"><ele>129.0</ele><time>2026-05-01T13:13:10.349Z</time></trkpt><trkpt lat="45.50788" lon="10.933745"><ele>129.0</ele><time>2026-05-01T13:13:11.349Z</time></trkpt><trkpt lat="45.5077017" lon="10.9337317"><ele>128.66666666666666</ele><time>2026-05-01T13:13:12.349Z</time></trkpt><trkpt lat="45.50752" lon="10.9337283"><ele>128.33333333333331</ele><time>2026-05-01T13:13:13.349Z</time></trkpt><trkpt lat="45.5073383" lon="10.93374"><ele>128.0</ele><time>2026-05-01T13:13:14.349Z</time></trkpt><trkpt lat="45.5071633" lon="10.933765"><ele>128.33333333333331</ele><time>2026-05-01T13:13:15.349Z</time></trkpt><trkpt lat="45.50699" lon="10.9337933"><ele>128.66666666666666</ele><time>2026-05-01T13:13:16.349Z</time></trkpt><trkpt lat="45.5068133" lon="10.9338283"><ele>129.0</ele><time>2026-05-01T13:13:17.349Z</time></trkpt><trkpt lat="45.5066483" lon="10.9338583"><ele>129.0</ele><time>2026-05-01T13:13:18.349Z</time></trkpt><trkpt lat="45.5064833" lon="10.9338883"><ele>129.0</ele><time>2026-05-01T13:13:19.349Z</time></trkpt><trkpt lat="45.5063267" lon="10.9339233"><ele>129.0</ele><time>2026-05-01T13:13:20.348Z</time></trkpt><trkpt lat="45.50617" lon="10.9339517"><ele>128.0</ele><time>2026-05-01T13:13:21.349Z</time></trkpt><trkpt lat="45.5060117" lon="10.9339767"><ele>127.0</ele><time>2026-05-01T13:13:22.349Z</time></trkpt><trkpt lat="45.5058583" lon="10.934015"><ele>126.0</ele><time>2026-05-01T13:13:23.349Z</time></trkpt><trkpt lat="45.5057017" lon="10.9340483"><ele>126.0</ele><time>2026-05-01T13:13:24.349Z</time></trkpt><trkpt lat="45.5055517" lon="10.934075"><ele>126.0</ele><time>2026-05-01T13:13:25.349Z</time></trkpt><trkpt lat="45.5054033" lon="10.934095"><ele>126.0</ele><time>2026-05-01T13:13:26.349Z</time></trkpt><trkpt lat="45.50525" lon="10.9341233"><ele>126.33333333333334</ele><time>2026-05-01T13:13:27.349Z</time></trkpt><trkpt lat="45.5050933" lon="10.934155"><ele>126.66666666666667</ele><time>2026-05-01T13:13:28.349Z</time></trkpt><trkpt lat="45.504945" lon="10.9341933"><ele>127.0</ele><time>2026-05-01T13:13:29.349Z</time></trkpt><trkpt lat="45.5047783" lon="10.9342217"><ele>127.0</ele><time>2026-05-01T13:13:30.349Z</time></trkpt><trkpt lat="45.504615" lon="10.9342517"><ele>127.0</ele><time>2026-05-01T13:13:31.349Z</time></trkpt><trkpt lat="45.504455" lon="10.934285"><ele>127.0</ele><time>2026-05-01T13:13:32.349Z</time></trkpt><trkpt lat="45.5042933" lon="10.93431"><ele>125.25</ele><time>2026-05-01T13:13:33.349Z</time></trkpt><trkpt lat="45.5041367" lon="10.9343467"><ele>123.5</ele><time>2026-05-01T13:13:34.349Z</time></trkpt><trkpt lat="45.5039933" lon="10.9343767"><ele>121.75</ele><time>2026-05-01T13:13:35.349Z</time></trkpt><trkpt lat="45.50385" lon="10.9344083"><ele>120.0</ele><time>2026-05-01T13:13:36.348Z</time></trkpt><trkpt lat="45.5037117" lon="10.9344383"><ele>119.75</ele><time>2026-05-01T13:13:37.348Z</time></trkpt><trkpt lat="45.5035733" lon="10.9344667"><ele>119.5</ele><time>2026-05-01T13:13:38.349Z</time></trkpt><trkpt lat="45.5034467" lon="10.9344833"><ele>119.25</ele><time>2026-05-01T13:13:39.349Z</time></trkpt><trkpt lat="45.5033367" lon="10.9345033"><ele>119.0</ele><time>2026-05-01T13:13:40.349Z</time></trkpt><trkpt lat="45.5032433" lon="10.9345217"><ele>119.0</ele><time>2026-05-01T13:13:41.349Z</time></trkpt><trkpt lat="45.5031483" lon="10.9345283"><ele>119.0</ele><time>2026-05-01T13:13:42.349Z</time></trkpt><trkpt lat="45.5030583" lon="10.9344983"><ele>119.0</ele><time>2026-05-01T13:13:43.349Z</time></trkpt><trkpt lat="45.502965" lon="10.93444"><ele>119.0</ele><time>2026-05-01T13:13:44.349Z</time></trkpt><trkpt lat="45.5028867" lon="10.934345"><ele>119.0</ele><time>2026-05-01T13:13:45.348Z</time></trkpt><trkpt lat="45.5028267" lon="10.9342133"><ele>118.5</ele><time>2026-05-01T13:13:46.349Z</time></trkpt><trkpt lat="45.5027883" lon="10.934065"><ele>118.0</ele><time>2026-05-01T13:13:47.348Z</time></trkpt><trkpt lat="45.5027867" lon="10.9339017"><ele>117.5</ele><time>2026-05-01T13:13:48.349Z</time></trkpt><trkpt lat="45.5027833" lon="10.9337233"><ele>117.0</ele><time>2026-05-01T13:13:49.349Z</time></trkpt><trkpt lat="45.50277" lon="10.9335333"><ele>117.25</ele><time>2026-05-01T13:13:50.349Z</time></trkpt><trkpt lat="45.5027583" lon="10.933345"><ele>117.5</ele><time>2026-05-01T13:13:51.349Z</time></trkpt><trkpt lat="45.5027433" lon="10.9331567"><ele>117.75</ele><time>2026-05-01T13:13:52.349Z</time></trkpt><trkpt lat="45.50273" lon="10.932965"><ele>118.0</ele><time>2026-05-01T13:13:53.349Z</time></trkpt><trkpt lat="45.5027167" lon="10.932775"><ele>118.0</ele><time>2026-05-01T13:13:54.348Z</time></trkpt><trkpt lat="45.5027033" lon="10.93259"><ele>118.0</ele><time>2026-05-01T13:13:55.349Z</time></trkpt><trkpt lat="45.5026917" lon="10.9324067"><ele>118.0</ele><time>2026-05-01T13:13:56.348Z</time></trkpt><trkpt lat="45.5026783" lon="10.9322217"><ele>118.0</ele><time>2026-05-01T13:13:57.349Z</time></trkpt><trkpt lat="45.5026667" lon="10.93205"><ele>118.0</ele><time>2026-05-01T13:13:58.349Z</time></trkpt><trkpt lat="45.5026567" lon="10.9318883"><ele>118.00000000000001</ele><time>2026-05-01T13:13:59.349Z</time></trkpt><trkpt lat="45.502655" lon="10.93174"><ele>118.00000000000001</ele><time>2026-05-01T13:14:00.349Z</time></trkpt><trkpt lat="45.5026583" lon="10.931635"><ele>118.0</ele><time>2026-05-01T13:14:01.349Z</time></trkpt><trkpt lat="45.50268" lon="10.9315417"><ele>118.0</ele><time>2026-05-01T13:14:02.349Z</time></trkpt><trkpt lat="45.50272" lon="10.9313983"><ele>117.0</ele><time>2026-05-01T13:14:04.348Z</time></trkpt></trkseg></trk></gpx>